<?xml version="1.0" encoding="UTF-8" standalone="no" ?>
<gpx xmlns="http://www.topografix.com/GPX/1/1" xmlns:xsi="http://www.w3.org/2001/XMLSchema-instance" xsi:schemaLocation="http://www.topografix.com/GPX/1/1 http://www.topografix.com/GPX/1/1/gpx.xsd" version="1.1" creator="VisuGPX - https://www.visugpx.com">
  <metadata>
    <name>2017-02-25 Tour des Chambarans</name>
    <desc><![CDATA[Belle boucle de début de saison dans les Chambarans, quand les grands cols sont fermés et que les routes sont encore humide de l'hiver

Départ de Grenoble]]></desc>
  </metadata>
  <trk>
    <name><![CDATA[2017-02-25 13:41]]></name>
    <desc><![CDATA[<p>Heure de départ: 02/25/2017 13:41</p><p>Heure d'arrivée: 02/25/2017 18:10</p><p>Distance: 167,4 km (04:29)</p><p>Temps déplacement: 02:10</p><p>Vitesse moyenne: 37,33 km/h</p><p>Vitesse moyenne mouv.: 77,12 km/h</p><p>Vitesse Max.: 140,22km/h</p><p>Altitude minimale: 127 m</p><p>Altitude maximale: 683 m</p><p>Vitesse de montée: 950,8 m/h</p><p>Vitesse de descente: -828,4 m/h</p><p>Gain d'altitude: 1615 m</p><p>Perte d'altitude: -1617 m</p><p>Temps de montée: 01:41</p><p>Temps de descente: 01:57</p><hr align="center" width="480" style="height: 2px; width: 517px"/>]]></desc>
    <trkseg>
      <trkpt lat="45.20114" lon="5.71786">
        <ele>192.95</ele>
        <time>2017-02-25T12:41:07Z</time>
      </trkpt>
      <trkpt lat="45.20114" lon="5.71786">
        <ele>192.95</ele>
        <time>2017-02-25T12:41:08Z</time>
      </trkpt>
      <trkpt lat="45.20114" lon="5.71786">
        <ele>192.95</ele>
        <time>2017-02-25T12:41:09Z</time>
      </trkpt>
      <trkpt lat="45.20114" lon="5.71786">
        <ele>192.95</ele>
        <time>2017-02-25T12:41:10Z</time>
      </trkpt>
      <trkpt lat="45.20114" lon="5.71786">
        <ele>192.95</ele>
        <time>2017-02-25T12:41:11Z</time>
      </trkpt>
      <trkpt lat="45.20114" lon="5.71786">
        <ele>192.95</ele>
        <time>2017-02-25T12:41:12Z</time>
      </trkpt>
      <trkpt lat="45.20114" lon="5.71786">
        <ele>192.95</ele>
        <time>2017-02-25T12:41:13Z</time>
      </trkpt>
      <trkpt lat="45.20114" lon="5.71786">
        <ele>192.95</ele>
        <time>2017-02-25T12:41:14Z</time>
      </trkpt>
      <trkpt lat="45.20114" lon="5.71786">
        <ele>192.95</ele>
        <time>2017-02-25T12:41:15Z</time>
      </trkpt>
      <trkpt lat="45.20114" lon="5.71786">
        <ele>192.95</ele>
        <time>2017-02-25T12:41:16Z</time>
      </trkpt>
      <trkpt lat="45.20114" lon="5.71786">
        <ele>192.95</ele>
        <time>2017-02-25T12:41:17Z</time>
      </trkpt>
      <trkpt lat="45.20114" lon="5.71786">
        <ele>192.95</ele>
        <time>2017-02-25T12:41:18Z</time>
      </trkpt>
      <trkpt lat="45.20114" lon="5.71786">
        <ele>192.95</ele>
        <time>2017-02-25T12:41:19Z</time>
      </trkpt>
      <trkpt lat="45.20114" lon="5.71786">
        <ele>192.95</ele>
        <time>2017-02-25T12:41:20Z</time>
      </trkpt>
      <trkpt lat="45.20114" lon="5.71786">
        <ele>192.95</ele>
        <time>2017-02-25T12:41:21Z</time>
      </trkpt>
      <trkpt lat="45.20114" lon="5.71786">
        <ele>192.95</ele>
        <time>2017-02-25T12:41:22Z</time>
      </trkpt>
      <trkpt lat="45.20114" lon="5.71786">
        <ele>192.95</ele>
        <time>2017-02-25T12:41:23Z</time>
      </trkpt>
      <trkpt lat="45.20114" lon="5.71786">
        <ele>192.95</ele>
        <time>2017-02-25T12:41:24Z</time>
      </trkpt>
      <trkpt lat="45.20114" lon="5.71786">
        <ele>192.95</ele>
        <time>2017-02-25T12:41:25Z</time>
      </trkpt>
      <trkpt lat="45.20114" lon="5.71786">
        <ele>192.95</ele>
        <time>2017-02-25T12:41:26Z</time>
      </trkpt>
      <trkpt lat="45.20114" lon="5.71786">
        <ele>192.95</ele>
        <time>2017-02-25T12:41:27Z</time>
      </trkpt>
      <trkpt lat="45.20114" lon="5.71786">
        <ele>192.95</ele>
        <time>2017-02-25T12:41:28Z</time>
      </trkpt>
      <trkpt lat="45.20114" lon="5.71786">
        <ele>192.95</ele>
        <time>2017-02-25T12:41:29Z</time>
      </trkpt>
      <trkpt lat="45.20114" lon="5.71786">
        <ele>192.95</ele>
        <time>2017-02-25T12:41:30Z</time>
      </trkpt>
      <trkpt lat="45.20114" lon="5.71786">
        <ele>192.95</ele>
        <time>2017-02-25T12:41:31Z</time>
      </trkpt>
      <trkpt lat="45.20114" lon="5.71786">
        <ele>192.95</ele>
        <time>2017-02-25T12:41:32Z</time>
      </trkpt>
      <trkpt lat="45.20114" lon="5.71786">
        <ele>192.95</ele>
        <time>2017-02-25T12:41:33Z</time>
      </trkpt>
      <trkpt lat="45.20114" lon="5.71786">
        <ele>192.95</ele>
        <time>2017-02-25T12:41:34Z</time>
      </trkpt>
      <trkpt lat="45.20114" lon="5.71786">
        <ele>192.95</ele>
        <time>2017-02-25T12:41:35Z</time>
      </trkpt>
      <trkpt lat="45.20114" lon="5.71786">
        <ele>192.95</ele>
        <time>2017-02-25T12:41:36Z</time>
      </trkpt>
      <trkpt lat="45.20114" lon="5.71786">
        <ele>192.95</ele>
        <time>2017-02-25T12:41:37Z</time>
      </trkpt>
      <trkpt lat="45.20114" lon="5.71786">
        <ele>192.95</ele>
        <time>2017-02-25T12:41:38Z</time>
      </trkpt>
      <trkpt lat="45.20114" lon="5.71786">
        <ele>192.95</ele>
        <time>2017-02-25T12:41:39Z</time>
      </trkpt>
      <trkpt lat="45.20114" lon="5.71786">
        <ele>192.95</ele>
        <time>2017-02-25T12:41:40Z</time>
      </trkpt>
      <trkpt lat="45.20114" lon="5.71786">
        <ele>192.95</ele>
        <time>2017-02-25T12:41:41Z</time>
      </trkpt>
      <trkpt lat="45.20114" lon="5.71786">
        <ele>192.95</ele>
        <time>2017-02-25T12:41:42Z</time>
      </trkpt>
      <trkpt lat="45.20114" lon="5.71786">
        <ele>192.95</ele>
        <time>2017-02-25T12:41:43Z</time>
      </trkpt>
      <trkpt lat="45.20114" lon="5.71786">
        <ele>192.95</ele>
        <time>2017-02-25T12:41:44Z</time>
      </trkpt>
      <trkpt lat="45.20114" lon="5.71786">
        <ele>192.95</ele>
        <time>2017-02-25T12:41:45Z</time>
      </trkpt>
      <trkpt lat="45.20114" lon="5.71786">
        <ele>192.95</ele>
        <time>2017-02-25T12:41:46Z</time>
      </trkpt>
      <trkpt lat="45.20114" lon="5.71786">
        <ele>192.95</ele>
        <time>2017-02-25T12:41:47Z</time>
      </trkpt>
      <trkpt lat="45.20114" lon="5.71786">
        <ele>192.95</ele>
        <time>2017-02-25T12:41:48Z</time>
      </trkpt>
      <trkpt lat="45.20114" lon="5.71786">
        <ele>192.95</ele>
        <time>2017-02-25T12:41:49Z</time>
      </trkpt>
      <trkpt lat="45.20114" lon="5.71786">
        <ele>192.95</ele>
        <time>2017-02-25T12:41:50Z</time>
      </trkpt>
      <trkpt lat="45.20114" lon="5.71786">
        <ele>192.95</ele>
        <time>2017-02-25T12:41:51Z</time>
      </trkpt>
      <trkpt lat="45.20114" lon="5.71786">
        <ele>192.95</ele>
        <time>2017-02-25T12:41:52Z</time>
      </trkpt>
      <trkpt lat="45.20114" lon="5.71786">
        <ele>192.95</ele>
        <time>2017-02-25T12:41:53Z</time>
      </trkpt>
      <trkpt lat="45.20114" lon="5.71786">
        <ele>192.95</ele>
        <time>2017-02-25T12:41:54Z</time>
      </trkpt>
      <trkpt lat="45.20114" lon="5.71786">
        <ele>192.95</ele>
        <time>2017-02-25T12:41:55Z</time>
      </trkpt>
      <trkpt lat="45.20114" lon="5.71786">
        <ele>192.95</ele>
        <time>2017-02-25T12:41:56Z</time>
      </trkpt>
      <trkpt lat="45.20114" lon="5.71786">
        <ele>192.95</ele>
        <time>2017-02-25T12:41:57Z</time>
      </trkpt>
      <trkpt lat="45.20114" lon="5.71786">
        <ele>192.95</ele>
        <time>2017-02-25T12:41:58Z</time>
      </trkpt>
      <trkpt lat="45.20114" lon="5.71786">
        <ele>192.95</ele>
        <time>2017-02-25T12:41:59Z</time>
      </trkpt>
      <trkpt lat="45.20114" lon="5.71786">
        <ele>192.95</ele>
        <time>2017-02-25T12:42:00Z</time>
      </trkpt>
      <trkpt lat="45.20114" lon="5.71786">
        <ele>192.95</ele>
        <time>2017-02-25T12:42:01Z</time>
      </trkpt>
      <trkpt lat="45.20114" lon="5.71786">
        <ele>192.95</ele>
        <time>2017-02-25T12:42:02Z</time>
      </trkpt>
      <trkpt lat="45.20114" lon="5.71786">
        <ele>192.95</ele>
        <time>2017-02-25T12:42:03Z</time>
      </trkpt>
      <trkpt lat="45.20114" lon="5.71786">
        <ele>192.95</ele>
        <time>2017-02-25T12:42:04Z</time>
      </trkpt>
      <trkpt lat="45.20114" lon="5.71786">
        <ele>192.95</ele>
        <time>2017-02-25T12:42:05Z</time>
      </trkpt>
      <trkpt lat="45.20114" lon="5.71786">
        <ele>192.95</ele>
        <time>2017-02-25T12:42:06Z</time>
      </trkpt>
      <trkpt lat="45.20114" lon="5.71786">
        <ele>192.95</ele>
        <time>2017-02-25T12:42:07Z</time>
      </trkpt>
      <trkpt lat="45.20114" lon="5.71786">
        <ele>192.95</ele>
        <time>2017-02-25T12:42:08Z</time>
      </trkpt>
      <trkpt lat="45.20114" lon="5.71786">
        <ele>192.95</ele>
        <time>2017-02-25T12:42:09Z</time>
      </trkpt>
      <trkpt lat="45.20114" lon="5.71786">
        <ele>192.95</ele>
        <time>2017-02-25T12:42:10Z</time>
      </trkpt>
      <trkpt lat="45.20114" lon="5.71786">
        <ele>192.95</ele>
        <time>2017-02-25T12:42:11Z</time>
      </trkpt>
      <trkpt lat="45.20114" lon="5.71786">
        <ele>192.95</ele>
        <time>2017-02-25T12:42:12Z</time>
      </trkpt>
      <trkpt lat="45.20114" lon="5.71786">
        <ele>192.95</ele>
        <time>2017-02-25T12:42:13Z</time>
      </trkpt>
      <trkpt lat="45.20114" lon="5.71786">
        <ele>192.95</ele>
        <time>2017-02-25T12:42:14Z</time>
      </trkpt>
      <trkpt lat="45.20114" lon="5.71786">
        <ele>192.95</ele>
        <time>2017-02-25T12:42:15Z</time>
      </trkpt>
      <trkpt lat="45.20114" lon="5.71786">
        <ele>192.95</ele>
        <time>2017-02-25T12:42:16Z</time>
      </trkpt>
      <trkpt lat="45.20114" lon="5.71786">
        <ele>192.95</ele>
        <time>2017-02-25T12:42:17Z</time>
      </trkpt>
      <trkpt lat="45.20114" lon="5.71786">
        <ele>192.95</ele>
        <time>2017-02-25T12:42:18Z</time>
      </trkpt>
      <trkpt lat="45.20114" lon="5.71786">
        <ele>192.95</ele>
        <time>2017-02-25T12:42:19Z</time>
      </trkpt>
      <trkpt lat="45.20114" lon="5.71786">
        <ele>192.95</ele>
        <time>2017-02-25T12:42:20Z</time>
      </trkpt>
      <trkpt lat="45.20114" lon="5.71786">
        <ele>192.95</ele>
        <time>2017-02-25T12:42:21Z</time>
      </trkpt>
      <trkpt lat="45.20114" lon="5.71786">
        <ele>192.95</ele>
        <time>2017-02-25T12:42:22Z</time>
      </trkpt>
      <trkpt lat="45.20114" lon="5.71786">
        <ele>192.95</ele>
        <time>2017-02-25T12:42:23Z</time>
      </trkpt>
      <trkpt lat="45.20114" lon="5.71786">
        <ele>192.95</ele>
        <time>2017-02-25T12:42:24Z</time>
      </trkpt>
      <trkpt lat="45.20114" lon="5.71786">
        <ele>192.95</ele>
        <time>2017-02-25T12:42:25Z</time>
      </trkpt>
      <trkpt lat="45.20114" lon="5.71786">
        <ele>192.95</ele>
        <time>2017-02-25T12:42:26Z</time>
      </trkpt>
      <trkpt lat="45.20114" lon="5.71786">
        <ele>192.95</ele>
        <time>2017-02-25T12:42:27Z</time>
      </trkpt>
      <trkpt lat="45.20114" lon="5.71786">
        <ele>192.95</ele>
        <time>2017-02-25T12:42:28Z</time>
      </trkpt>
      <trkpt lat="45.20114" lon="5.71786">
        <ele>192.95</ele>
        <time>2017-02-25T12:42:29Z</time>
      </trkpt>
      <trkpt lat="45.20114" lon="5.71786">
        <ele>192.95</ele>
        <time>2017-02-25T12:42:30Z</time>
      </trkpt>
      <trkpt lat="45.20114" lon="5.71786">
        <ele>192.95</ele>
        <time>2017-02-25T12:42:31Z</time>
      </trkpt>
      <trkpt lat="45.20114" lon="5.71786">
        <ele>192.95</ele>
        <time>2017-02-25T12:42:32Z</time>
      </trkpt>
      <trkpt lat="45.20114" lon="5.71786">
        <ele>192.95</ele>
        <time>2017-02-25T12:42:33Z</time>
      </trkpt>
      <trkpt lat="45.20114" lon="5.71786">
        <ele>192.95</ele>
        <time>2017-02-25T12:42:34Z</time>
      </trkpt>
      <trkpt lat="45.20114" lon="5.71786">
        <ele>192.95</ele>
        <time>2017-02-25T12:42:35Z</time>
      </trkpt>
      <trkpt lat="45.20114" lon="5.71786">
        <ele>192.95</ele>
        <time>2017-02-25T12:42:36Z</time>
      </trkpt>
      <trkpt lat="45.20114" lon="5.71786">
        <ele>192.95</ele>
        <time>2017-02-25T12:42:37Z</time>
      </trkpt>
      <trkpt lat="45.20114" lon="5.71786">
        <ele>192.95</ele>
        <time>2017-02-25T12:42:38Z</time>
      </trkpt>
      <trkpt lat="45.20114" lon="5.71786">
        <ele>192.95</ele>
        <time>2017-02-25T12:42:39Z</time>
      </trkpt>
      <trkpt lat="45.20114" lon="5.71786">
        <ele>192.95</ele>
        <time>2017-02-25T12:42:40Z</time>
      </trkpt>
      <trkpt lat="45.20114" lon="5.71786">
        <ele>192.95</ele>
        <time>2017-02-25T12:42:41Z</time>
      </trkpt>
      <trkpt lat="45.20114" lon="5.71786">
        <ele>192.95</ele>
        <time>2017-02-25T12:42:42Z</time>
      </trkpt>
      <trkpt lat="45.20114" lon="5.71786">
        <ele>192.95</ele>
        <time>2017-02-25T12:42:43Z</time>
      </trkpt>
      <trkpt lat="45.20114" lon="5.71786">
        <ele>192.95</ele>
        <time>2017-02-25T12:42:44Z</time>
      </trkpt>
      <trkpt lat="45.20114" lon="5.71786">
        <ele>192.95</ele>
        <time>2017-02-25T12:42:45Z</time>
      </trkpt>
      <trkpt lat="45.20114" lon="5.71786">
        <ele>192.95</ele>
        <time>2017-02-25T12:42:46Z</time>
      </trkpt>
      <trkpt lat="45.20114" lon="5.71786">
        <ele>192.95</ele>
        <time>2017-02-25T12:42:47Z</time>
      </trkpt>
      <trkpt lat="45.20114" lon="5.71786">
        <ele>192.95</ele>
        <time>2017-02-25T12:42:48Z</time>
      </trkpt>
      <trkpt lat="45.20114" lon="5.71786">
        <ele>192.95</ele>
        <time>2017-02-25T12:42:49Z</time>
      </trkpt>
      <trkpt lat="45.20114" lon="5.71786">
        <ele>192.95</ele>
        <time>2017-02-25T12:42:50Z</time>
      </trkpt>
      <trkpt lat="45.20114" lon="5.71786">
        <ele>192.95</ele>
        <time>2017-02-25T12:42:51Z</time>
      </trkpt>
      <trkpt lat="45.20114" lon="5.71786">
        <ele>192.95</ele>
        <time>2017-02-25T12:42:52Z</time>
      </trkpt>
      <trkpt lat="45.20114" lon="5.71786">
        <ele>192.95</ele>
        <time>2017-02-25T12:42:53Z</time>
      </trkpt>
      <trkpt lat="45.20114" lon="5.71786">
        <ele>192.95</ele>
        <time>2017-02-25T12:42:54Z</time>
      </trkpt>
      <trkpt lat="45.20114" lon="5.71786">
        <ele>192.95</ele>
        <time>2017-02-25T12:42:55Z</time>
      </trkpt>
      <trkpt lat="45.20114" lon="5.71786">
        <ele>192.95</ele>
        <time>2017-02-25T12:42:56Z</time>
      </trkpt>
      <trkpt lat="45.20114" lon="5.71786">
        <ele>192.95</ele>
        <time>2017-02-25T12:42:57Z</time>
      </trkpt>
      <trkpt lat="45.20114" lon="5.71786">
        <ele>192.95</ele>
        <time>2017-02-25T12:42:58Z</time>
      </trkpt>
      <trkpt lat="45.20114" lon="5.71786">
        <ele>192.95</ele>
        <time>2017-02-25T12:42:59Z</time>
      </trkpt>
      <trkpt lat="45.20114" lon="5.71786">
        <ele>192.95</ele>
        <time>2017-02-25T12:43:00Z</time>
      </trkpt>
      <trkpt lat="45.20114" lon="5.71786">
        <ele>192.95</ele>
        <time>2017-02-25T12:43:01Z</time>
      </trkpt>
      <trkpt lat="45.20114" lon="5.71786">
        <ele>192.95</ele>
        <time>2017-02-25T12:43:02Z</time>
      </trkpt>
      <trkpt lat="45.20114" lon="5.71786">
        <ele>192.95</ele>
        <time>2017-02-25T12:43:03Z</time>
      </trkpt>
      <trkpt lat="45.20114" lon="5.71786">
        <ele>192.95</ele>
        <time>2017-02-25T12:43:04Z</time>
      </trkpt>
      <trkpt lat="45.20114" lon="5.71786">
        <ele>192.95</ele>
        <time>2017-02-25T12:43:05Z</time>
      </trkpt>
      <trkpt lat="45.20114" lon="5.71786">
        <ele>192.95</ele>
        <time>2017-02-25T12:43:06Z</time>
      </trkpt>
      <trkpt lat="45.20114" lon="5.71786">
        <ele>192.95</ele>
        <time>2017-02-25T12:43:07Z</time>
      </trkpt>
      <trkpt lat="45.20114" lon="5.71786">
        <ele>192.95</ele>
        <time>2017-02-25T12:43:08Z</time>
      </trkpt>
      <trkpt lat="45.20114" lon="5.71786">
        <ele>192.95</ele>
        <time>2017-02-25T12:43:09Z</time>
      </trkpt>
      <trkpt lat="45.20114" lon="5.71786">
        <ele>192.95</ele>
        <time>2017-02-25T12:43:10Z</time>
      </trkpt>
      <trkpt lat="45.20114" lon="5.71786">
        <ele>192.95</ele>
        <time>2017-02-25T12:43:11Z</time>
      </trkpt>
      <trkpt lat="45.20114" lon="5.71786">
        <ele>192.95</ele>
        <time>2017-02-25T12:43:12Z</time>
      </trkpt>
      <trkpt lat="45.20114" lon="5.71786">
        <ele>192.95</ele>
        <time>2017-02-25T12:43:13Z</time>
      </trkpt>
      <trkpt lat="45.20114" lon="5.71786">
        <ele>192.95</ele>
        <time>2017-02-25T12:43:14Z</time>
      </trkpt>
      <trkpt lat="45.20114" lon="5.71786">
        <ele>192.95</ele>
        <time>2017-02-25T12:43:15Z</time>
      </trkpt>
      <trkpt lat="45.20114" lon="5.71786">
        <ele>192.95</ele>
        <time>2017-02-25T12:43:16Z</time>
      </trkpt>
      <trkpt lat="45.20114" lon="5.71786">
        <ele>192.95</ele>
        <time>2017-02-25T12:43:17Z</time>
      </trkpt>
      <trkpt lat="45.20114" lon="5.71786">
        <ele>192.95</ele>
        <time>2017-02-25T12:43:18Z</time>
      </trkpt>
      <trkpt lat="45.20114" lon="5.71786">
        <ele>192.95</ele>
        <time>2017-02-25T12:43:19Z</time>
      </trkpt>
      <trkpt lat="45.20114" lon="5.71786">
        <ele>192.95</ele>
        <time>2017-02-25T12:43:20Z</time>
      </trkpt>
      <trkpt lat="45.20114" lon="5.71786">
        <ele>192.95</ele>
        <time>2017-02-25T12:43:21Z</time>
      </trkpt>
      <trkpt lat="45.20114" lon="5.71786">
        <ele>192.95</ele>
        <time>2017-02-25T12:43:22Z</time>
      </trkpt>
      <trkpt lat="45.20114" lon="5.71786">
        <ele>192.95</ele>
        <time>2017-02-25T12:43:23Z</time>
      </trkpt>
      <trkpt lat="45.20114" lon="5.71786">
        <ele>192.95</ele>
        <time>2017-02-25T12:43:24Z</time>
      </trkpt>
      <trkpt lat="45.20114" lon="5.71786">
        <ele>192.95</ele>
        <time>2017-02-25T12:43:25Z</time>
      </trkpt>
      <trkpt lat="45.20114" lon="5.71786">
        <ele>192.95</ele>
        <time>2017-02-25T12:43:26Z</time>
      </trkpt>
      <trkpt lat="45.20114" lon="5.71786">
        <ele>192.95</ele>
        <time>2017-02-25T12:43:27Z</time>
      </trkpt>
      <trkpt lat="45.20114" lon="5.71786">
        <ele>192.95</ele>
        <time>2017-02-25T12:43:28Z</time>
      </trkpt>
      <trkpt lat="45.20114" lon="5.71786">
        <ele>192.95</ele>
        <time>2017-02-25T12:43:29Z</time>
      </trkpt>
      <trkpt lat="45.20114" lon="5.71786">
        <ele>192.95</ele>
        <time>2017-02-25T12:43:30Z</time>
      </trkpt>
      <trkpt lat="45.20114" lon="5.71786">
        <ele>192.95</ele>
        <time>2017-02-25T12:43:31Z</time>
      </trkpt>
      <trkpt lat="45.20114" lon="5.71786">
        <ele>192.95</ele>
        <time>2017-02-25T12:43:32Z</time>
      </trkpt>
      <trkpt lat="45.20114" lon="5.71786">
        <ele>192.95</ele>
        <time>2017-02-25T12:43:33Z</time>
      </trkpt>
      <trkpt lat="45.20114" lon="5.71786">
        <ele>192.95</ele>
        <time>2017-02-25T12:43:34Z</time>
      </trkpt>
      <trkpt lat="45.20114" lon="5.71786">
        <ele>192.95</ele>
        <time>2017-02-25T12:43:35Z</time>
      </trkpt>
      <trkpt lat="45.20114" lon="5.71786">
        <ele>192.95</ele>
        <time>2017-02-25T12:43:36Z</time>
      </trkpt>
      <trkpt lat="45.20114" lon="5.71786">
        <ele>192.95</ele>
        <time>2017-02-25T12:43:37Z</time>
      </trkpt>
      <trkpt lat="45.20114" lon="5.71786">
        <ele>192.95</ele>
        <time>2017-02-25T12:43:38Z</time>
      </trkpt>
      <trkpt lat="45.20114" lon="5.71786">
        <ele>192.95</ele>
        <time>2017-02-25T12:43:39Z</time>
      </trkpt>
      <trkpt lat="45.20114" lon="5.71786">
        <ele>192.95</ele>
        <time>2017-02-25T12:43:40Z</time>
      </trkpt>
      <trkpt lat="45.20114" lon="5.71786">
        <ele>192.95</ele>
        <time>2017-02-25T12:43:41Z</time>
      </trkpt>
      <trkpt lat="45.20114" lon="5.71786">
        <ele>192.95</ele>
        <time>2017-02-25T12:43:42Z</time>
      </trkpt>
      <trkpt lat="45.20114" lon="5.71786">
        <ele>192.95</ele>
        <time>2017-02-25T12:43:43Z</time>
      </trkpt>
      <trkpt lat="45.20114" lon="5.71786">
        <ele>192.95</ele>
        <time>2017-02-25T12:43:44Z</time>
      </trkpt>
      <trkpt lat="45.20114" lon="5.71786">
        <ele>192.95</ele>
        <time>2017-02-25T12:43:45Z</time>
      </trkpt>
      <trkpt lat="45.20114" lon="5.71786">
        <ele>192.95</ele>
        <time>2017-02-25T12:43:46Z</time>
      </trkpt>
      <trkpt lat="45.20114" lon="5.71786">
        <ele>192.95</ele>
        <time>2017-02-25T12:43:47Z</time>
      </trkpt>
      <trkpt lat="45.20114" lon="5.71786">
        <ele>192.95</ele>
        <time>2017-02-25T12:43:48Z</time>
      </trkpt>
      <trkpt lat="45.20114" lon="5.71786">
        <ele>192.95</ele>
        <time>2017-02-25T12:43:49Z</time>
      </trkpt>
      <trkpt lat="45.20114" lon="5.71786">
        <ele>192.95</ele>
        <time>2017-02-25T12:43:50Z</time>
      </trkpt>
      <trkpt lat="45.20114" lon="5.71786">
        <ele>192.95</ele>
        <time>2017-02-25T12:43:51Z</time>
      </trkpt>
      <trkpt lat="45.20114" lon="5.71786">
        <ele>192.95</ele>
        <time>2017-02-25T12:43:52Z</time>
      </trkpt>
      <trkpt lat="45.20114" lon="5.71786">
        <ele>192.95</ele>
        <time>2017-02-25T12:43:53Z</time>
      </trkpt>
      <trkpt lat="45.20114" lon="5.71786">
        <ele>192.95</ele>
        <time>2017-02-25T12:43:54Z</time>
      </trkpt>
      <trkpt lat="45.20114" lon="5.71786">
        <ele>192.95</ele>
        <time>2017-02-25T12:43:55Z</time>
      </trkpt>
      <trkpt lat="45.20114" lon="5.71786">
        <ele>192.95</ele>
        <time>2017-02-25T12:43:56Z</time>
      </trkpt>
      <trkpt lat="45.20114" lon="5.71786">
        <ele>192.95</ele>
        <time>2017-02-25T12:43:57Z</time>
      </trkpt>
      <trkpt lat="45.20114" lon="5.71786">
        <ele>192.95</ele>
        <time>2017-02-25T12:43:58Z</time>
      </trkpt>
      <trkpt lat="45.20114" lon="5.71786">
        <ele>192.95</ele>
        <time>2017-02-25T12:43:59Z</time>
      </trkpt>
      <trkpt lat="45.20114" lon="5.71786">
        <ele>192.95</ele>
        <time>2017-02-25T12:44:00Z</time>
      </trkpt>
      <trkpt lat="45.20114" lon="5.71786">
        <ele>192.95</ele>
        <time>2017-02-25T12:44:01Z</time>
      </trkpt>
      <trkpt lat="45.20114" lon="5.71786">
        <ele>192.95</ele>
        <time>2017-02-25T12:44:02Z</time>
      </trkpt>
      <trkpt lat="45.20114" lon="5.71786">
        <ele>192.95</ele>
        <time>2017-02-25T12:44:03Z</time>
      </trkpt>
      <trkpt lat="45.20114" lon="5.71786">
        <ele>192.95</ele>
        <time>2017-02-25T12:44:04Z</time>
      </trkpt>
      <trkpt lat="45.20114" lon="5.71786">
        <ele>192.95</ele>
        <time>2017-02-25T12:44:05Z</time>
      </trkpt>
      <trkpt lat="45.20114" lon="5.71786">
        <ele>192.95</ele>
        <time>2017-02-25T12:44:06Z</time>
      </trkpt>
      <trkpt lat="45.20114" lon="5.71786">
        <ele>192.95</ele>
        <time>2017-02-25T12:44:07Z</time>
      </trkpt>
      <trkpt lat="45.20114" lon="5.71786">
        <ele>192.95</ele>
        <time>2017-02-25T12:44:08Z</time>
      </trkpt>
      <trkpt lat="45.20114" lon="5.71786">
        <ele>192.95</ele>
        <time>2017-02-25T12:44:09Z</time>
      </trkpt>
      <trkpt lat="45.20114" lon="5.71786">
        <ele>192.95</ele>
        <time>2017-02-25T12:44:10Z</time>
      </trkpt>
      <trkpt lat="45.20114" lon="5.71786">
        <ele>192.95</ele>
        <time>2017-02-25T12:44:11Z</time>
      </trkpt>
      <trkpt lat="45.20114" lon="5.71786">
        <ele>192.95</ele>
        <time>2017-02-25T12:44:12Z</time>
      </trkpt>
      <trkpt lat="45.20114" lon="5.71786">
        <ele>192.95</ele>
        <time>2017-02-25T12:44:13Z</time>
      </trkpt>
      <trkpt lat="45.20114" lon="5.71786">
        <ele>192.95</ele>
        <time>2017-02-25T12:44:14Z</time>
      </trkpt>
      <trkpt lat="45.20114" lon="5.71786">
        <ele>192.95</ele>
        <time>2017-02-25T12:44:15Z</time>
      </trkpt>
      <trkpt lat="45.20114" lon="5.71786">
        <ele>192.95</ele>
        <time>2017-02-25T12:44:16Z</time>
      </trkpt>
      <trkpt lat="45.20114" lon="5.71786">
        <ele>192.95</ele>
        <time>2017-02-25T12:44:17Z</time>
      </trkpt>
      <trkpt lat="45.20114" lon="5.71786">
        <ele>192.95</ele>
        <time>2017-02-25T12:44:18Z</time>
      </trkpt>
      <trkpt lat="45.20114" lon="5.71786">
        <ele>192.95</ele>
        <time>2017-02-25T12:44:19Z</time>
      </trkpt>
      <trkpt lat="45.20114" lon="5.71786">
        <ele>192.95</ele>
        <time>2017-02-25T12:44:20Z</time>
      </trkpt>
      <trkpt lat="45.20114" lon="5.71786">
        <ele>192.95</ele>
        <time>2017-02-25T12:44:21Z</time>
      </trkpt>
      <trkpt lat="45.20114" lon="5.71786">
        <ele>192.95</ele>
        <time>2017-02-25T12:44:22Z</time>
      </trkpt>
      <trkpt lat="45.20114" lon="5.71786">
        <ele>192.95</ele>
        <time>2017-02-25T12:44:23Z</time>
      </trkpt>
      <trkpt lat="45.20114" lon="5.71786">
        <ele>192.95</ele>
        <time>2017-02-25T12:44:24Z</time>
      </trkpt>
      <trkpt lat="45.20114" lon="5.71786">
        <ele>192.95</ele>
        <time>2017-02-25T12:44:25Z</time>
      </trkpt>
      <trkpt lat="45.20114" lon="5.71786">
        <ele>192.95</ele>
        <time>2017-02-25T12:44:26Z</time>
      </trkpt>
      <trkpt lat="45.20114" lon="5.71786">
        <ele>192.95</ele>
        <time>2017-02-25T12:44:27Z</time>
      </trkpt>
      <trkpt lat="45.20114" lon="5.71786">
        <ele>192.95</ele>
        <time>2017-02-25T12:44:28Z</time>
      </trkpt>
      <trkpt lat="45.20114" lon="5.71786">
        <ele>192.95</ele>
        <time>2017-02-25T12:44:29Z</time>
      </trkpt>
      <trkpt lat="45.20114" lon="5.71786">
        <ele>192.95</ele>
        <time>2017-02-25T12:44:30Z</time>
      </trkpt>
      <trkpt lat="45.20114" lon="5.71786">
        <ele>192.95</ele>
        <time>2017-02-25T12:44:31Z</time>
      </trkpt>
      <trkpt lat="45.20105" lon="5.71789">
        <ele>195.59</ele>
        <time>2017-02-25T12:44:32Z</time>
      </trkpt>
      <trkpt lat="45.20105" lon="5.71789">
        <ele>196.12</ele>
        <time>2017-02-25T12:44:33Z</time>
      </trkpt>
      <trkpt lat="45.20105" lon="5.71789">
        <ele>196.3</ele>
        <time>2017-02-25T12:44:34Z</time>
      </trkpt>
      <trkpt lat="45.20105" lon="5.71789">
        <ele>196.34</ele>
        <time>2017-02-25T12:44:35Z</time>
      </trkpt>
      <trkpt lat="45.20105" lon="5.71789">
        <ele>196.35</ele>
        <time>2017-02-25T12:44:36Z</time>
      </trkpt>
      <trkpt lat="45.20105" lon="5.71789">
        <ele>196.35</ele>
        <time>2017-02-25T12:44:37Z</time>
      </trkpt>
      <trkpt lat="45.20105" lon="5.71789">
        <ele>196.35</ele>
        <time>2017-02-25T12:44:38Z</time>
      </trkpt>
      <trkpt lat="45.20105" lon="5.71789">
        <ele>196.35</ele>
        <time>2017-02-25T12:44:39Z</time>
      </trkpt>
      <trkpt lat="45.20105" lon="5.71789">
        <ele>196.35</ele>
        <time>2017-02-25T12:44:40Z</time>
      </trkpt>
      <trkpt lat="45.20105" lon="5.71789">
        <ele>196.35</ele>
        <time>2017-02-25T12:44:41Z</time>
      </trkpt>
      <trkpt lat="45.20105" lon="5.71789">
        <ele>196.35</ele>
        <time>2017-02-25T12:44:42Z</time>
      </trkpt>
      <trkpt lat="45.20105" lon="5.71789">
        <ele>196.35</ele>
        <time>2017-02-25T12:44:43Z</time>
      </trkpt>
      <trkpt lat="45.20105" lon="5.71789">
        <ele>196.35</ele>
        <time>2017-02-25T12:44:44Z</time>
      </trkpt>
      <trkpt lat="45.20105" lon="5.71789">
        <ele>196.35</ele>
        <time>2017-02-25T12:44:45Z</time>
      </trkpt>
      <trkpt lat="45.20105" lon="5.71789">
        <ele>196.35</ele>
        <time>2017-02-25T12:44:46Z</time>
      </trkpt>
      <trkpt lat="45.20105" lon="5.71789">
        <ele>196.35</ele>
        <time>2017-02-25T12:44:47Z</time>
      </trkpt>
      <trkpt lat="45.20105" lon="5.71789">
        <ele>196.35</ele>
        <time>2017-02-25T12:44:48Z</time>
      </trkpt>
      <trkpt lat="45.20105" lon="5.71789">
        <ele>196.35</ele>
        <time>2017-02-25T12:44:49Z</time>
      </trkpt>
      <trkpt lat="45.20105" lon="5.71789">
        <ele>196.35</ele>
        <time>2017-02-25T12:44:50Z</time>
      </trkpt>
      <trkpt lat="45.20105" lon="5.71789">
        <ele>196.35</ele>
        <time>2017-02-25T12:44:51Z</time>
      </trkpt>
      <trkpt lat="45.20105" lon="5.71789">
        <ele>196.35</ele>
        <time>2017-02-25T12:44:52Z</time>
      </trkpt>
      <trkpt lat="45.20103" lon="5.7179">
        <ele>199.07</ele>
        <time>2017-02-25T12:44:53Z</time>
      </trkpt>
      <trkpt lat="45.20101" lon="5.71791">
        <ele>199.45</ele>
        <time>2017-02-25T12:44:54Z</time>
      </trkpt>
      <trkpt lat="45.201" lon="5.71792">
        <ele>199.29</ele>
        <time>2017-02-25T12:44:55Z</time>
      </trkpt>
      <trkpt lat="45.20098" lon="5.71794">
        <ele>199.02</ele>
        <time>2017-02-25T12:44:56Z</time>
      </trkpt>
      <trkpt lat="45.20096" lon="5.71796">
        <ele>198.88</ele>
        <time>2017-02-25T12:44:57Z</time>
      </trkpt>
      <trkpt lat="45.20094" lon="5.71797">
        <ele>198.62</ele>
        <time>2017-02-25T12:44:58Z</time>
      </trkpt>
      <trkpt lat="45.20092" lon="5.71798">
        <ele>198.32</ele>
        <time>2017-02-25T12:44:59Z</time>
      </trkpt>
      <trkpt lat="45.20089" lon="5.71799">
        <ele>198.1</ele>
        <time>2017-02-25T12:45:00Z</time>
      </trkpt>
      <trkpt lat="45.20087" lon="5.718">
        <ele>197.82</ele>
        <time>2017-02-25T12:45:01Z</time>
      </trkpt>
      <trkpt lat="45.20085" lon="5.71801">
        <ele>197.52</ele>
        <time>2017-02-25T12:45:02Z</time>
      </trkpt>
      <trkpt lat="45.20082" lon="5.71802">
        <ele>197.14</ele>
        <time>2017-02-25T12:45:03Z</time>
      </trkpt>
      <trkpt lat="45.2008" lon="5.71803">
        <ele>196.59</ele>
        <time>2017-02-25T12:45:04Z</time>
      </trkpt>
      <trkpt lat="45.20078" lon="5.71802">
        <ele>196.32</ele>
        <time>2017-02-25T12:45:05Z</time>
      </trkpt>
      <trkpt lat="45.20076" lon="5.71801">
        <ele>195.78</ele>
        <time>2017-02-25T12:45:06Z</time>
      </trkpt>
      <trkpt lat="45.20075" lon="5.71797">
        <ele>195.12</ele>
        <time>2017-02-25T12:45:07Z</time>
      </trkpt>
      <trkpt lat="45.20074" lon="5.71793">
        <ele>194.66</ele>
        <time>2017-02-25T12:45:08Z</time>
      </trkpt>
      <trkpt lat="45.20074" lon="5.71789">
        <ele>193.85</ele>
        <time>2017-02-25T12:45:09Z</time>
      </trkpt>
      <trkpt lat="45.20073" lon="5.71785">
        <ele>192.97</ele>
        <time>2017-02-25T12:45:10Z</time>
      </trkpt>
      <trkpt lat="45.20073" lon="5.7178">
        <ele>192.23</ele>
        <time>2017-02-25T12:45:11Z</time>
      </trkpt>
      <trkpt lat="45.20075" lon="5.71777">
        <ele>191.77</ele>
        <time>2017-02-25T12:45:12Z</time>
      </trkpt>
      <trkpt lat="45.20077" lon="5.71773">
        <ele>191.59</ele>
        <time>2017-02-25T12:45:13Z</time>
      </trkpt>
      <trkpt lat="45.2008" lon="5.71769">
        <ele>191.08</ele>
        <time>2017-02-25T12:45:14Z</time>
      </trkpt>
      <trkpt lat="45.20082" lon="5.71766">
        <ele>190.33</ele>
        <time>2017-02-25T12:45:15Z</time>
      </trkpt>
      <trkpt lat="45.20085" lon="5.71762">
        <ele>189.71</ele>
        <time>2017-02-25T12:45:16Z</time>
      </trkpt>
      <trkpt lat="45.20088" lon="5.71759">
        <ele>189.18</ele>
        <time>2017-02-25T12:45:17Z</time>
      </trkpt>
      <trkpt lat="45.2009" lon="5.71756">
        <ele>188.6</ele>
        <time>2017-02-25T12:45:18Z</time>
      </trkpt>
      <trkpt lat="45.20092" lon="5.71753">
        <ele>187.68</ele>
        <time>2017-02-25T12:45:19Z</time>
      </trkpt>
      <trkpt lat="45.20095" lon="5.71749">
        <ele>187.09</ele>
        <time>2017-02-25T12:45:20Z</time>
      </trkpt>
      <trkpt lat="45.20097" lon="5.71746">
        <ele>186.74</ele>
        <time>2017-02-25T12:45:21Z</time>
      </trkpt>
      <trkpt lat="45.201" lon="5.71743">
        <ele>186.35</ele>
        <time>2017-02-25T12:45:22Z</time>
      </trkpt>
      <trkpt lat="45.20101" lon="5.71739">
        <ele>185.87</ele>
        <time>2017-02-25T12:45:23Z</time>
      </trkpt>
      <trkpt lat="45.20102" lon="5.71735">
        <ele>185.29</ele>
        <time>2017-02-25T12:45:24Z</time>
      </trkpt>
      <trkpt lat="45.20102" lon="5.71732">
        <ele>185.42</ele>
        <time>2017-02-25T12:45:25Z</time>
      </trkpt>
      <trkpt lat="45.20102" lon="5.71731">
        <ele>183.68</ele>
        <time>2017-02-25T12:45:26Z</time>
      </trkpt>
      <trkpt lat="45.20101" lon="5.7173">
        <ele>183.26</ele>
        <time>2017-02-25T12:45:27Z</time>
      </trkpt>
      <trkpt lat="45.20101" lon="5.7173">
        <ele>183.33</ele>
        <time>2017-02-25T12:45:28Z</time>
      </trkpt>
      <trkpt lat="45.20101" lon="5.7173">
        <ele>184.15</ele>
        <time>2017-02-25T12:45:29Z</time>
      </trkpt>
      <trkpt lat="45.20101" lon="5.7173">
        <ele>184.31</ele>
        <time>2017-02-25T12:45:30Z</time>
      </trkpt>
      <trkpt lat="45.20101" lon="5.7173">
        <ele>184.34</ele>
        <time>2017-02-25T12:45:31Z</time>
      </trkpt>
      <trkpt lat="45.20101" lon="5.7173">
        <ele>184.35</ele>
        <time>2017-02-25T12:45:32Z</time>
      </trkpt>
      <trkpt lat="45.20101" lon="5.7173">
        <ele>184.35</ele>
        <time>2017-02-25T12:45:33Z</time>
      </trkpt>
      <trkpt lat="45.20101" lon="5.7173">
        <ele>184.35</ele>
        <time>2017-02-25T12:45:34Z</time>
      </trkpt>
      <trkpt lat="45.20101" lon="5.7173">
        <ele>184.35</ele>
        <time>2017-02-25T12:45:35Z</time>
      </trkpt>
      <trkpt lat="45.201" lon="5.71726">
        <ele>187.63</ele>
        <time>2017-02-25T12:45:36Z</time>
      </trkpt>
      <trkpt lat="45.20098" lon="5.71728">
        <ele>188.6</ele>
        <time>2017-02-25T12:45:37Z</time>
      </trkpt>
      <trkpt lat="45.20096" lon="5.71731">
        <ele>188.72</ele>
        <time>2017-02-25T12:45:38Z</time>
      </trkpt>
      <trkpt lat="45.20087" lon="5.71736">
        <ele>186.5</ele>
        <time>2017-02-25T12:45:39Z</time>
      </trkpt>
      <trkpt lat="45.20081" lon="5.71741">
        <ele>185.26</ele>
        <time>2017-02-25T12:45:40Z</time>
      </trkpt>
      <trkpt lat="45.20074" lon="5.71746">
        <ele>183.81</ele>
        <time>2017-02-25T12:45:41Z</time>
      </trkpt>
      <trkpt lat="45.20065" lon="5.71752">
        <ele>182.4</ele>
        <time>2017-02-25T12:45:42Z</time>
      </trkpt>
      <trkpt lat="45.20057" lon="5.71757">
        <ele>181.48</ele>
        <time>2017-02-25T12:45:43Z</time>
      </trkpt>
      <trkpt lat="45.20048" lon="5.71761">
        <ele>180.98</ele>
        <time>2017-02-25T12:45:44Z</time>
      </trkpt>
      <trkpt lat="45.20038" lon="5.71765">
        <ele>180.55</ele>
        <time>2017-02-25T12:45:45Z</time>
      </trkpt>
      <trkpt lat="45.20029" lon="5.71768">
        <ele>180.15</ele>
        <time>2017-02-25T12:45:46Z</time>
      </trkpt>
      <trkpt lat="45.20018" lon="5.7177">
        <ele>179.75</ele>
        <time>2017-02-25T12:45:47Z</time>
      </trkpt>
      <trkpt lat="45.20008" lon="5.71773">
        <ele>179.11</ele>
        <time>2017-02-25T12:45:48Z</time>
      </trkpt>
      <trkpt lat="45.19998" lon="5.71776">
        <ele>178.42</ele>
        <time>2017-02-25T12:45:49Z</time>
      </trkpt>
      <trkpt lat="45.19988" lon="5.71778">
        <ele>177.96</ele>
        <time>2017-02-25T12:45:50Z</time>
      </trkpt>
      <trkpt lat="45.19978" lon="5.7178">
        <ele>177.39</ele>
        <time>2017-02-25T12:45:51Z</time>
      </trkpt>
      <trkpt lat="45.19967" lon="5.71783">
        <ele>176.88</ele>
        <time>2017-02-25T12:45:52Z</time>
      </trkpt>
      <trkpt lat="45.19957" lon="5.71785">
        <ele>176.37</ele>
        <time>2017-02-25T12:45:53Z</time>
      </trkpt>
      <trkpt lat="45.19946" lon="5.71788">
        <ele>176.11</ele>
        <time>2017-02-25T12:45:54Z</time>
      </trkpt>
      <trkpt lat="45.19936" lon="5.7179">
        <ele>175.82</ele>
        <time>2017-02-25T12:45:55Z</time>
      </trkpt>
      <trkpt lat="45.19925" lon="5.71793">
        <ele>175.6</ele>
        <time>2017-02-25T12:45:56Z</time>
      </trkpt>
      <trkpt lat="45.19915" lon="5.71795">
        <ele>175.32</ele>
        <time>2017-02-25T12:45:57Z</time>
      </trkpt>
      <trkpt lat="45.19905" lon="5.71797">
        <ele>175.02</ele>
        <time>2017-02-25T12:45:58Z</time>
      </trkpt>
      <trkpt lat="45.19898" lon="5.71797">
        <ele>174.8</ele>
        <time>2017-02-25T12:45:59Z</time>
      </trkpt>
      <trkpt lat="45.19891" lon="5.71797">
        <ele>174.52</ele>
        <time>2017-02-25T12:46:00Z</time>
      </trkpt>
      <trkpt lat="45.19886" lon="5.71795">
        <ele>174.3</ele>
        <time>2017-02-25T12:46:01Z</time>
      </trkpt>
      <trkpt lat="45.19882" lon="5.71792">
        <ele>174.18</ele>
        <time>2017-02-25T12:46:02Z</time>
      </trkpt>
      <trkpt lat="45.19879" lon="5.71788">
        <ele>174</ele>
        <time>2017-02-25T12:46:03Z</time>
      </trkpt>
      <trkpt lat="45.19883" lon="5.7178">
        <ele>173.72</ele>
        <time>2017-02-25T12:46:04Z</time>
      </trkpt>
      <trkpt lat="45.19886" lon="5.71772">
        <ele>173.34</ele>
        <time>2017-02-25T12:46:05Z</time>
      </trkpt>
      <trkpt lat="45.19887" lon="5.71766">
        <ele>172.95</ele>
        <time>2017-02-25T12:46:06Z</time>
      </trkpt>
      <trkpt lat="45.1989" lon="5.71759">
        <ele>172.63</ele>
        <time>2017-02-25T12:46:07Z</time>
      </trkpt>
      <trkpt lat="45.19895" lon="5.71752">
        <ele>171.12</ele>
        <time>2017-02-25T12:46:08Z</time>
      </trkpt>
      <trkpt lat="45.199" lon="5.71744">
        <ele>169.54</ele>
        <time>2017-02-25T12:46:09Z</time>
      </trkpt>
      <trkpt lat="45.19908" lon="5.71736">
        <ele>167.71</ele>
        <time>2017-02-25T12:46:10Z</time>
      </trkpt>
      <trkpt lat="45.19915" lon="5.7173">
        <ele>166.22</ele>
        <time>2017-02-25T12:46:11Z</time>
      </trkpt>
      <trkpt lat="45.19922" lon="5.71724">
        <ele>165.68</ele>
        <time>2017-02-25T12:46:12Z</time>
      </trkpt>
      <trkpt lat="45.1993" lon="5.7172">
        <ele>165.5</ele>
        <time>2017-02-25T12:46:13Z</time>
      </trkpt>
      <trkpt lat="45.19937" lon="5.71715">
        <ele>165.14</ele>
        <time>2017-02-25T12:46:14Z</time>
      </trkpt>
      <trkpt lat="45.19944" lon="5.71711">
        <ele>164.91</ele>
        <time>2017-02-25T12:46:15Z</time>
      </trkpt>
      <trkpt lat="45.19953" lon="5.71707">
        <ele>164.7</ele>
        <time>2017-02-25T12:46:16Z</time>
      </trkpt>
      <trkpt lat="45.19962" lon="5.71702">
        <ele>164.26</ele>
        <time>2017-02-25T12:46:17Z</time>
      </trkpt>
      <trkpt lat="45.1997" lon="5.71696">
        <ele>164.25</ele>
        <time>2017-02-25T12:46:18Z</time>
      </trkpt>
      <trkpt lat="45.19978" lon="5.7169">
        <ele>164.25</ele>
        <time>2017-02-25T12:46:19Z</time>
      </trkpt>
      <trkpt lat="45.19986" lon="5.71684">
        <ele>164.25</ele>
        <time>2017-02-25T12:46:20Z</time>
      </trkpt>
      <trkpt lat="45.19995" lon="5.71678">
        <ele>164.25</ele>
        <time>2017-02-25T12:46:21Z</time>
      </trkpt>
      <trkpt lat="45.20004" lon="5.71672">
        <ele>164.17</ele>
        <time>2017-02-25T12:46:22Z</time>
      </trkpt>
      <trkpt lat="45.20014" lon="5.71665">
        <ele>164.15</ele>
        <time>2017-02-25T12:46:23Z</time>
      </trkpt>
      <trkpt lat="45.20024" lon="5.71658">
        <ele>164.07</ele>
        <time>2017-02-25T12:46:24Z</time>
      </trkpt>
      <trkpt lat="45.20035" lon="5.7165">
        <ele>164.13</ele>
        <time>2017-02-25T12:46:25Z</time>
      </trkpt>
      <trkpt lat="45.20046" lon="5.71643">
        <ele>164.23</ele>
        <time>2017-02-25T12:46:26Z</time>
      </trkpt>
      <trkpt lat="45.20058" lon="5.71635">
        <ele>164.24</ele>
        <time>2017-02-25T12:46:27Z</time>
      </trkpt>
      <trkpt lat="45.2007" lon="5.71626">
        <ele>164.33</ele>
        <time>2017-02-25T12:46:28Z</time>
      </trkpt>
      <trkpt lat="45.20084" lon="5.71617">
        <ele>164.26</ele>
        <time>2017-02-25T12:46:29Z</time>
      </trkpt>
      <trkpt lat="45.20097" lon="5.71608">
        <ele>164.17</ele>
        <time>2017-02-25T12:46:30Z</time>
      </trkpt>
      <trkpt lat="45.20111" lon="5.716">
        <ele>163.99</ele>
        <time>2017-02-25T12:46:31Z</time>
      </trkpt>
      <trkpt lat="45.20125" lon="5.7159">
        <ele>163.72</ele>
        <time>2017-02-25T12:46:32Z</time>
      </trkpt>
      <trkpt lat="45.20139" lon="5.71579">
        <ele>163.42</ele>
        <time>2017-02-25T12:46:33Z</time>
      </trkpt>
      <trkpt lat="45.20152" lon="5.71566">
        <ele>163.2</ele>
        <time>2017-02-25T12:46:34Z</time>
      </trkpt>
      <trkpt lat="45.20166" lon="5.71554">
        <ele>162.84</ele>
        <time>2017-02-25T12:46:35Z</time>
      </trkpt>
      <trkpt lat="45.20179" lon="5.71541">
        <ele>162.61</ele>
        <time>2017-02-25T12:46:36Z</time>
      </trkpt>
      <trkpt lat="45.20193" lon="5.71527">
        <ele>162.48</ele>
        <time>2017-02-25T12:46:37Z</time>
      </trkpt>
      <trkpt lat="45.20206" lon="5.71513">
        <ele>162.22</ele>
        <time>2017-02-25T12:46:38Z</time>
      </trkpt>
      <trkpt lat="45.20219" lon="5.71497">
        <ele>162</ele>
        <time>2017-02-25T12:46:39Z</time>
      </trkpt>
      <trkpt lat="45.20232" lon="5.71481">
        <ele>161.72</ele>
        <time>2017-02-25T12:46:40Z</time>
      </trkpt>
      <trkpt lat="45.20246" lon="5.71464">
        <ele>161.5</ele>
        <time>2017-02-25T12:46:41Z</time>
      </trkpt>
      <trkpt lat="45.20259" lon="5.71446">
        <ele>161.46</ele>
        <time>2017-02-25T12:46:42Z</time>
      </trkpt>
      <trkpt lat="45.20273" lon="5.71428">
        <ele>161.29</ele>
        <time>2017-02-25T12:46:43Z</time>
      </trkpt>
      <trkpt lat="45.20287" lon="5.71411">
        <ele>161.1</ele>
        <time>2017-02-25T12:46:44Z</time>
      </trkpt>
      <trkpt lat="45.20302" lon="5.71393">
        <ele>160.9</ele>
        <time>2017-02-25T12:46:45Z</time>
      </trkpt>
      <trkpt lat="45.20316" lon="5.71374">
        <ele>160.7</ele>
        <time>2017-02-25T12:46:46Z</time>
      </trkpt>
      <trkpt lat="45.20331" lon="5.71356">
        <ele>160.58</ele>
        <time>2017-02-25T12:46:47Z</time>
      </trkpt>
      <trkpt lat="45.20345" lon="5.71337">
        <ele>160.55</ele>
        <time>2017-02-25T12:46:48Z</time>
      </trkpt>
      <trkpt lat="45.20359" lon="5.71319">
        <ele>160.39</ele>
        <time>2017-02-25T12:46:49Z</time>
      </trkpt>
      <trkpt lat="45.20374" lon="5.713">
        <ele>160.36</ele>
        <time>2017-02-25T12:46:50Z</time>
      </trkpt>
      <trkpt lat="45.20388" lon="5.71282">
        <ele>160.27</ele>
        <time>2017-02-25T12:46:51Z</time>
      </trkpt>
      <trkpt lat="45.20402" lon="5.71264">
        <ele>160.17</ele>
        <time>2017-02-25T12:46:52Z</time>
      </trkpt>
      <trkpt lat="45.20417" lon="5.71245">
        <ele>159.99</ele>
        <time>2017-02-25T12:46:53Z</time>
      </trkpt>
      <trkpt lat="45.20431" lon="5.71227">
        <ele>159.96</ele>
        <time>2017-02-25T12:46:54Z</time>
      </trkpt>
      <trkpt lat="45.20445" lon="5.71208">
        <ele>159.95</ele>
        <time>2017-02-25T12:46:55Z</time>
      </trkpt>
      <trkpt lat="45.20459" lon="5.71189">
        <ele>159.79</ele>
        <time>2017-02-25T12:46:56Z</time>
      </trkpt>
      <trkpt lat="45.20473" lon="5.71169">
        <ele>159.6</ele>
        <time>2017-02-25T12:46:57Z</time>
      </trkpt>
      <trkpt lat="45.20487" lon="5.71149">
        <ele>159.56</ele>
        <time>2017-02-25T12:46:58Z</time>
      </trkpt>
      <trkpt lat="45.20499" lon="5.71128">
        <ele>159.47</ele>
        <time>2017-02-25T12:46:59Z</time>
      </trkpt>
      <trkpt lat="45.20512" lon="5.71106">
        <ele>159.37</ele>
        <time>2017-02-25T12:47:00Z</time>
      </trkpt>
      <trkpt lat="45.20523" lon="5.71084">
        <ele>159.19</ele>
        <time>2017-02-25T12:47:01Z</time>
      </trkpt>
      <trkpt lat="45.20534" lon="5.7106">
        <ele>159.32</ele>
        <time>2017-02-25T12:47:02Z</time>
      </trkpt>
      <trkpt lat="45.20544" lon="5.71035">
        <ele>159.26</ele>
        <time>2017-02-25T12:47:03Z</time>
      </trkpt>
      <trkpt lat="45.20553" lon="5.7101">
        <ele>159.41</ele>
        <time>2017-02-25T12:47:04Z</time>
      </trkpt>
      <trkpt lat="45.20562" lon="5.70985">
        <ele>159.36</ele>
        <time>2017-02-25T12:47:05Z</time>
      </trkpt>
      <trkpt lat="45.20571" lon="5.70959">
        <ele>159.75</ele>
        <time>2017-02-25T12:47:06Z</time>
      </trkpt>
      <trkpt lat="45.20579" lon="5.70933">
        <ele>159.99</ele>
        <time>2017-02-25T12:47:07Z</time>
      </trkpt>
      <trkpt lat="45.20587" lon="5.70907">
        <ele>160.36</ele>
        <time>2017-02-25T12:47:08Z</time>
      </trkpt>
      <trkpt lat="45.20596" lon="5.70881">
        <ele>161.39</ele>
        <time>2017-02-25T12:47:09Z</time>
      </trkpt>
      <trkpt lat="45.20605" lon="5.70856">
        <ele>162.16</ele>
        <time>2017-02-25T12:47:10Z</time>
      </trkpt>
      <trkpt lat="45.20614" lon="5.70831">
        <ele>162.79</ele>
        <time>2017-02-25T12:47:11Z</time>
      </trkpt>
      <trkpt lat="45.20623" lon="5.70806">
        <ele>163.48</ele>
        <time>2017-02-25T12:47:12Z</time>
      </trkpt>
      <trkpt lat="45.20632" lon="5.70781">
        <ele>163.61</ele>
        <time>2017-02-25T12:47:13Z</time>
      </trkpt>
      <trkpt lat="45.20642" lon="5.70757">
        <ele>164.12</ele>
        <time>2017-02-25T12:47:14Z</time>
      </trkpt>
      <trkpt lat="45.20652" lon="5.70732">
        <ele>164.54</ele>
        <time>2017-02-25T12:47:15Z</time>
      </trkpt>
      <trkpt lat="45.20662" lon="5.70706">
        <ele>164.79</ele>
        <time>2017-02-25T12:47:16Z</time>
      </trkpt>
      <trkpt lat="45.20672" lon="5.70679">
        <ele>165.16</ele>
        <time>2017-02-25T12:47:17Z</time>
      </trkpt>
      <trkpt lat="45.20683" lon="5.70652">
        <ele>165.47</ele>
        <time>2017-02-25T12:47:18Z</time>
      </trkpt>
      <trkpt lat="45.20694" lon="5.70624">
        <ele>165.93</ele>
        <time>2017-02-25T12:47:19Z</time>
      </trkpt>
      <trkpt lat="45.20706" lon="5.70595">
        <ele>166.27</ele>
        <time>2017-02-25T12:47:20Z</time>
      </trkpt>
      <trkpt lat="45.20717" lon="5.70567">
        <ele>166.65</ele>
        <time>2017-02-25T12:47:21Z</time>
      </trkpt>
      <trkpt lat="45.20729" lon="5.70537">
        <ele>166.97</ele>
        <time>2017-02-25T12:47:22Z</time>
      </trkpt>
      <trkpt lat="45.2074" lon="5.70508">
        <ele>166.71</ele>
        <time>2017-02-25T12:47:23Z</time>
      </trkpt>
      <trkpt lat="45.20752" lon="5.70478">
        <ele>166.66</ele>
        <time>2017-02-25T12:47:24Z</time>
      </trkpt>
      <trkpt lat="45.20764" lon="5.70449">
        <ele>166.49</ele>
        <time>2017-02-25T12:47:25Z</time>
      </trkpt>
      <trkpt lat="45.20776" lon="5.70419">
        <ele>166.54</ele>
        <time>2017-02-25T12:47:26Z</time>
      </trkpt>
      <trkpt lat="45.20788" lon="5.70389">
        <ele>166.31</ele>
        <time>2017-02-25T12:47:27Z</time>
      </trkpt>
      <trkpt lat="45.20801" lon="5.7036">
        <ele>165.94</ele>
        <time>2017-02-25T12:47:28Z</time>
      </trkpt>
      <trkpt lat="45.20812" lon="5.70331">
        <ele>165.15</ele>
        <time>2017-02-25T12:47:29Z</time>
      </trkpt>
      <trkpt lat="45.20824" lon="5.70302">
        <ele>164.11</ele>
        <time>2017-02-25T12:47:30Z</time>
      </trkpt>
      <trkpt lat="45.20836" lon="5.70273">
        <ele>163.02</ele>
        <time>2017-02-25T12:47:31Z</time>
      </trkpt>
      <trkpt lat="45.20847" lon="5.70245">
        <ele>161.92</ele>
        <time>2017-02-25T12:47:32Z</time>
      </trkpt>
      <trkpt lat="45.20859" lon="5.70216">
        <ele>160.9</ele>
        <time>2017-02-25T12:47:33Z</time>
      </trkpt>
      <trkpt lat="45.2087" lon="5.70187">
        <ele>160.62</ele>
        <time>2017-02-25T12:47:34Z</time>
      </trkpt>
      <trkpt lat="45.20882" lon="5.70158">
        <ele>160.24</ele>
        <time>2017-02-25T12:47:35Z</time>
      </trkpt>
      <trkpt lat="45.20894" lon="5.70129">
        <ele>160.17</ele>
        <time>2017-02-25T12:47:36Z</time>
      </trkpt>
      <trkpt lat="45.20905" lon="5.701">
        <ele>159.91</ele>
        <time>2017-02-25T12:47:37Z</time>
      </trkpt>
      <trkpt lat="45.20917" lon="5.7007">
        <ele>159.46</ele>
        <time>2017-02-25T12:47:38Z</time>
      </trkpt>
      <trkpt lat="45.20929" lon="5.7004">
        <ele>158.81</ele>
        <time>2017-02-25T12:47:39Z</time>
      </trkpt>
      <trkpt lat="45.2094" lon="5.7001">
        <ele>157.88</ele>
        <time>2017-02-25T12:47:40Z</time>
      </trkpt>
      <trkpt lat="45.20951" lon="5.6998">
        <ele>157.06</ele>
        <time>2017-02-25T12:47:41Z</time>
      </trkpt>
      <trkpt lat="45.20962" lon="5.6995">
        <ele>156.41</ele>
        <time>2017-02-25T12:47:42Z</time>
      </trkpt>
      <trkpt lat="45.20973" lon="5.6992">
        <ele>155.8</ele>
        <time>2017-02-25T12:47:43Z</time>
      </trkpt>
      <trkpt lat="45.20985" lon="5.6989">
        <ele>154.96</ele>
        <time>2017-02-25T12:47:44Z</time>
      </trkpt>
      <trkpt lat="45.20996" lon="5.6986">
        <ele>154.47</ele>
        <time>2017-02-25T12:47:45Z</time>
      </trkpt>
      <trkpt lat="45.21006" lon="5.6983">
        <ele>153.81</ele>
        <time>2017-02-25T12:47:46Z</time>
      </trkpt>
      <trkpt lat="45.21016" lon="5.69799">
        <ele>153.12</ele>
        <time>2017-02-25T12:47:47Z</time>
      </trkpt>
      <trkpt lat="45.21027" lon="5.69769">
        <ele>152.74</ele>
        <time>2017-02-25T12:47:48Z</time>
      </trkpt>
      <trkpt lat="45.21037" lon="5.69738">
        <ele>152.35</ele>
        <time>2017-02-25T12:47:49Z</time>
      </trkpt>
      <trkpt lat="45.21047" lon="5.69707">
        <ele>152.11</ele>
        <time>2017-02-25T12:47:50Z</time>
      </trkpt>
      <trkpt lat="45.21056" lon="5.69675">
        <ele>151.82</ele>
        <time>2017-02-25T12:47:51Z</time>
      </trkpt>
      <trkpt lat="45.21066" lon="5.69644">
        <ele>151.44</ele>
        <time>2017-02-25T12:47:52Z</time>
      </trkpt>
      <trkpt lat="45.21075" lon="5.69612">
        <ele>151.05</ele>
        <time>2017-02-25T12:47:53Z</time>
      </trkpt>
      <trkpt lat="45.21083" lon="5.69581">
        <ele>150.89</ele>
        <time>2017-02-25T12:47:54Z</time>
      </trkpt>
      <trkpt lat="45.21092" lon="5.69548">
        <ele>150.54</ele>
        <time>2017-02-25T12:47:55Z</time>
      </trkpt>
      <trkpt lat="45.211" lon="5.69516">
        <ele>150.39</ele>
        <time>2017-02-25T12:47:56Z</time>
      </trkpt>
      <trkpt lat="45.21108" lon="5.69483">
        <ele>150.68</ele>
        <time>2017-02-25T12:47:57Z</time>
      </trkpt>
      <trkpt lat="45.21116" lon="5.6945">
        <ele>150.73</ele>
        <time>2017-02-25T12:47:58Z</time>
      </trkpt>
      <trkpt lat="45.21123" lon="5.69417">
        <ele>150.75</ele>
        <time>2017-02-25T12:47:59Z</time>
      </trkpt>
      <trkpt lat="45.2113" lon="5.69383">
        <ele>150.67</ele>
        <time>2017-02-25T12:48:00Z</time>
      </trkpt>
      <trkpt lat="45.21138" lon="5.69349">
        <ele>150.73</ele>
        <time>2017-02-25T12:48:01Z</time>
      </trkpt>
      <trkpt lat="45.21145" lon="5.69315">
        <ele>150.75</ele>
        <time>2017-02-25T12:48:02Z</time>
      </trkpt>
      <trkpt lat="45.21152" lon="5.69281">
        <ele>150.75</ele>
        <time>2017-02-25T12:48:03Z</time>
      </trkpt>
      <trkpt lat="45.21159" lon="5.69247">
        <ele>150.59</ele>
        <time>2017-02-25T12:48:04Z</time>
      </trkpt>
      <trkpt lat="45.21165" lon="5.69214">
        <ele>150.4</ele>
        <time>2017-02-25T12:48:05Z</time>
      </trkpt>
      <trkpt lat="45.21172" lon="5.69181">
        <ele>150.12</ele>
        <time>2017-02-25T12:48:06Z</time>
      </trkpt>
      <trkpt lat="45.21178" lon="5.69148">
        <ele>149.66</ele>
        <time>2017-02-25T12:48:07Z</time>
      </trkpt>
      <trkpt lat="45.21185" lon="5.69116">
        <ele>149.01</ele>
        <time>2017-02-25T12:48:08Z</time>
      </trkpt>
      <trkpt lat="45.21192" lon="5.69084">
        <ele>148.72</ele>
        <time>2017-02-25T12:48:09Z</time>
      </trkpt>
      <trkpt lat="45.21198" lon="5.69051">
        <ele>148.42</ele>
        <time>2017-02-25T12:48:10Z</time>
      </trkpt>
      <trkpt lat="45.21205" lon="5.69019">
        <ele>148.68</ele>
        <time>2017-02-25T12:48:11Z</time>
      </trkpt>
      <trkpt lat="45.21212" lon="5.68987">
        <ele>148.82</ele>
        <time>2017-02-25T12:48:12Z</time>
      </trkpt>
      <trkpt lat="45.21219" lon="5.68956">
        <ele>149</ele>
        <time>2017-02-25T12:48:13Z</time>
      </trkpt>
      <trkpt lat="45.21226" lon="5.68924">
        <ele>149.2</ele>
        <time>2017-02-25T12:48:14Z</time>
      </trkpt>
      <trkpt lat="45.21234" lon="5.68892">
        <ele>149.16</ele>
        <time>2017-02-25T12:48:15Z</time>
      </trkpt>
      <trkpt lat="45.21241" lon="5.6886">
        <ele>149.23</ele>
        <time>2017-02-25T12:48:16Z</time>
      </trkpt>
      <trkpt lat="45.2125" lon="5.68829">
        <ele>149.17</ele>
        <time>2017-02-25T12:48:17Z</time>
      </trkpt>
      <trkpt lat="45.21259" lon="5.68798">
        <ele>149.07</ele>
        <time>2017-02-25T12:48:18Z</time>
      </trkpt>
      <trkpt lat="45.21268" lon="5.68767">
        <ele>148.81</ele>
        <time>2017-02-25T12:48:19Z</time>
      </trkpt>
      <trkpt lat="45.21277" lon="5.68737">
        <ele>148.68</ele>
        <time>2017-02-25T12:48:20Z</time>
      </trkpt>
      <trkpt lat="45.21287" lon="5.68706">
        <ele>148.74</ele>
        <time>2017-02-25T12:48:21Z</time>
      </trkpt>
      <trkpt lat="45.21297" lon="5.68676">
        <ele>149.23</ele>
        <time>2017-02-25T12:48:22Z</time>
      </trkpt>
      <trkpt lat="45.21307" lon="5.68647">
        <ele>149.48</ele>
        <time>2017-02-25T12:48:23Z</time>
      </trkpt>
      <trkpt lat="45.21318" lon="5.68617">
        <ele>149.54</ele>
        <time>2017-02-25T12:48:24Z</time>
      </trkpt>
      <trkpt lat="45.21329" lon="5.68589">
        <ele>149.63</ele>
        <time>2017-02-25T12:48:25Z</time>
      </trkpt>
      <trkpt lat="45.21341" lon="5.68561">
        <ele>150.04</ele>
        <time>2017-02-25T12:48:26Z</time>
      </trkpt>
      <trkpt lat="45.21353" lon="5.68533">
        <ele>150.21</ele>
        <time>2017-02-25T12:48:27Z</time>
      </trkpt>
      <trkpt lat="45.21366" lon="5.68505">
        <ele>150.4</ele>
        <time>2017-02-25T12:48:28Z</time>
      </trkpt>
      <trkpt lat="45.21378" lon="5.68477">
        <ele>150.52</ele>
        <time>2017-02-25T12:48:29Z</time>
      </trkpt>
      <trkpt lat="45.21391" lon="5.6845">
        <ele>150.7</ele>
        <time>2017-02-25T12:48:30Z</time>
      </trkpt>
      <trkpt lat="45.21403" lon="5.68423">
        <ele>150.82</ele>
        <time>2017-02-25T12:48:31Z</time>
      </trkpt>
      <trkpt lat="45.21416" lon="5.68395">
        <ele>151</ele>
        <time>2017-02-25T12:48:32Z</time>
      </trkpt>
      <trkpt lat="45.21428" lon="5.68368">
        <ele>151.12</ele>
        <time>2017-02-25T12:48:33Z</time>
      </trkpt>
      <trkpt lat="45.21441" lon="5.6834">
        <ele>151.3</ele>
        <time>2017-02-25T12:48:34Z</time>
      </trkpt>
      <trkpt lat="45.21454" lon="5.68313">
        <ele>151.18</ele>
        <time>2017-02-25T12:48:35Z</time>
      </trkpt>
      <trkpt lat="45.21466" lon="5.68285">
        <ele>151.08</ele>
        <time>2017-02-25T12:48:36Z</time>
      </trkpt>
      <trkpt lat="45.21479" lon="5.68258">
        <ele>151.13</ele>
        <time>2017-02-25T12:48:37Z</time>
      </trkpt>
      <trkpt lat="45.21492" lon="5.68231">
        <ele>150.99</ele>
        <time>2017-02-25T12:48:38Z</time>
      </trkpt>
      <trkpt lat="45.21505" lon="5.68203">
        <ele>151.12</ele>
        <time>2017-02-25T12:48:39Z</time>
      </trkpt>
      <trkpt lat="45.21518" lon="5.68176">
        <ele>150.74</ele>
        <time>2017-02-25T12:48:40Z</time>
      </trkpt>
      <trkpt lat="45.2153" lon="5.68149">
        <ele>150.43</ele>
        <time>2017-02-25T12:48:41Z</time>
      </trkpt>
      <trkpt lat="45.21543" lon="5.68122">
        <ele>150.28</ele>
        <time>2017-02-25T12:48:42Z</time>
      </trkpt>
      <trkpt lat="45.21556" lon="5.68095">
        <ele>150.18</ele>
        <time>2017-02-25T12:48:43Z</time>
      </trkpt>
      <trkpt lat="45.21569" lon="5.68067">
        <ele>150.23</ele>
        <time>2017-02-25T12:48:44Z</time>
      </trkpt>
      <trkpt lat="45.21582" lon="5.6804">
        <ele>150.25</ele>
        <time>2017-02-25T12:48:45Z</time>
      </trkpt>
      <trkpt lat="45.21595" lon="5.68013">
        <ele>150.17</ele>
        <time>2017-02-25T12:48:46Z</time>
      </trkpt>
      <trkpt lat="45.21608" lon="5.67985">
        <ele>149.99</ele>
        <time>2017-02-25T12:48:47Z</time>
      </trkpt>
      <trkpt lat="45.21621" lon="5.67958">
        <ele>150.04</ele>
        <time>2017-02-25T12:48:48Z</time>
      </trkpt>
      <trkpt lat="45.21634" lon="5.67931">
        <ele>149.97</ele>
        <time>2017-02-25T12:48:49Z</time>
      </trkpt>
      <trkpt lat="45.21648" lon="5.67904">
        <ele>149.95</ele>
        <time>2017-02-25T12:48:50Z</time>
      </trkpt>
      <trkpt lat="45.21662" lon="5.67877">
        <ele>149.79</ele>
        <time>2017-02-25T12:48:51Z</time>
      </trkpt>
      <trkpt lat="45.21675" lon="5.6785">
        <ele>149.68</ele>
        <time>2017-02-25T12:48:52Z</time>
      </trkpt>
      <trkpt lat="45.21689" lon="5.67823">
        <ele>149.33</ele>
        <time>2017-02-25T12:48:53Z</time>
      </trkpt>
      <trkpt lat="45.21703" lon="5.67795">
        <ele>149.19</ele>
        <time>2017-02-25T12:48:54Z</time>
      </trkpt>
      <trkpt lat="45.21717" lon="5.67768">
        <ele>149.16</ele>
        <time>2017-02-25T12:48:55Z</time>
      </trkpt>
      <trkpt lat="45.21732" lon="5.6774">
        <ele>148.99</ele>
        <time>2017-02-25T12:48:56Z</time>
      </trkpt>
      <trkpt lat="45.21747" lon="5.67713">
        <ele>148.96</ele>
        <time>2017-02-25T12:48:57Z</time>
      </trkpt>
      <trkpt lat="45.21763" lon="5.67686">
        <ele>148.95</ele>
        <time>2017-02-25T12:48:58Z</time>
      </trkpt>
      <trkpt lat="45.21779" lon="5.6766">
        <ele>148.95</ele>
        <time>2017-02-25T12:48:59Z</time>
      </trkpt>
      <trkpt lat="45.21795" lon="5.67634">
        <ele>148.95</ele>
        <time>2017-02-25T12:49:00Z</time>
      </trkpt>
      <trkpt lat="45.21812" lon="5.67609">
        <ele>149.11</ele>
        <time>2017-02-25T12:49:01Z</time>
      </trkpt>
      <trkpt lat="45.21829" lon="5.67584">
        <ele>149.22</ele>
        <time>2017-02-25T12:49:02Z</time>
      </trkpt>
      <trkpt lat="45.21847" lon="5.67558">
        <ele>149.4</ele>
        <time>2017-02-25T12:49:03Z</time>
      </trkpt>
      <trkpt lat="45.21865" lon="5.67532">
        <ele>149.44</ele>
        <time>2017-02-25T12:49:04Z</time>
      </trkpt>
      <trkpt lat="45.21884" lon="5.67504">
        <ele>149.37</ele>
        <time>2017-02-25T12:49:05Z</time>
      </trkpt>
      <trkpt lat="45.21904" lon="5.67477">
        <ele>149.19</ele>
        <time>2017-02-25T12:49:06Z</time>
      </trkpt>
      <trkpt lat="45.21923" lon="5.67452">
        <ele>149</ele>
        <time>2017-02-25T12:49:07Z</time>
      </trkpt>
      <trkpt lat="45.21943" lon="5.67428">
        <ele>148.56</ele>
        <time>2017-02-25T12:49:08Z</time>
      </trkpt>
      <trkpt lat="45.21964" lon="5.67406">
        <ele>148.23</ele>
        <time>2017-02-25T12:49:09Z</time>
      </trkpt>
      <trkpt lat="45.21984" lon="5.67385">
        <ele>148.01</ele>
        <time>2017-02-25T12:49:10Z</time>
      </trkpt>
      <trkpt lat="45.22004" lon="5.67364">
        <ele>148.04</ele>
        <time>2017-02-25T12:49:11Z</time>
      </trkpt>
      <trkpt lat="45.22024" lon="5.67344">
        <ele>148.05</ele>
        <time>2017-02-25T12:49:12Z</time>
      </trkpt>
      <trkpt lat="45.22044" lon="5.67325">
        <ele>148.13</ele>
        <time>2017-02-25T12:49:13Z</time>
      </trkpt>
      <trkpt lat="45.22065" lon="5.67307">
        <ele>148.22</ele>
        <time>2017-02-25T12:49:14Z</time>
      </trkpt>
      <trkpt lat="45.22085" lon="5.6729">
        <ele>147.92</ele>
        <time>2017-02-25T12:49:15Z</time>
      </trkpt>
      <trkpt lat="45.22106" lon="5.67273">
        <ele>147.78</ele>
        <time>2017-02-25T12:49:16Z</time>
      </trkpt>
      <trkpt lat="45.22127" lon="5.67256">
        <ele>147.6</ele>
        <time>2017-02-25T12:49:17Z</time>
      </trkpt>
      <trkpt lat="45.22147" lon="5.67239">
        <ele>147.48</ele>
        <time>2017-02-25T12:49:18Z</time>
      </trkpt>
      <trkpt lat="45.22169" lon="5.67222">
        <ele>147.53</ele>
        <time>2017-02-25T12:49:19Z</time>
      </trkpt>
      <trkpt lat="45.2219" lon="5.67205">
        <ele>147.63</ele>
        <time>2017-02-25T12:49:20Z</time>
      </trkpt>
      <trkpt lat="45.22212" lon="5.67189">
        <ele>147.88</ele>
        <time>2017-02-25T12:49:21Z</time>
      </trkpt>
      <trkpt lat="45.22234" lon="5.67172">
        <ele>148.42</ele>
        <time>2017-02-25T12:49:22Z</time>
      </trkpt>
      <trkpt lat="45.22256" lon="5.67156">
        <ele>148.92</ele>
        <time>2017-02-25T12:49:23Z</time>
      </trkpt>
      <trkpt lat="45.22277" lon="5.6714">
        <ele>149.5</ele>
        <time>2017-02-25T12:49:24Z</time>
      </trkpt>
      <trkpt lat="45.22299" lon="5.67124">
        <ele>150.1</ele>
        <time>2017-02-25T12:49:25Z</time>
      </trkpt>
      <trkpt lat="45.22321" lon="5.67108">
        <ele>150.7</ele>
        <time>2017-02-25T12:49:26Z</time>
      </trkpt>
      <trkpt lat="45.22342" lon="5.67092">
        <ele>151.3</ele>
        <time>2017-02-25T12:49:27Z</time>
      </trkpt>
      <trkpt lat="45.22364" lon="5.67076">
        <ele>151.82</ele>
        <time>2017-02-25T12:49:28Z</time>
      </trkpt>
      <trkpt lat="45.22386" lon="5.67059">
        <ele>152.4</ele>
        <time>2017-02-25T12:49:29Z</time>
      </trkpt>
      <trkpt lat="45.22408" lon="5.67043">
        <ele>152.6</ele>
        <time>2017-02-25T12:49:30Z</time>
      </trkpt>
      <trkpt lat="45.2243" lon="5.67027">
        <ele>152.88</ele>
        <time>2017-02-25T12:49:31Z</time>
      </trkpt>
      <trkpt lat="45.22452" lon="5.67011">
        <ele>153.26</ele>
        <time>2017-02-25T12:49:32Z</time>
      </trkpt>
      <trkpt lat="45.22474" lon="5.66994">
        <ele>153.57</ele>
        <time>2017-02-25T12:49:33Z</time>
      </trkpt>
      <trkpt lat="45.22496" lon="5.66978">
        <ele>153.63</ele>
        <time>2017-02-25T12:49:34Z</time>
      </trkpt>
      <trkpt lat="45.22519" lon="5.66961">
        <ele>153.73</ele>
        <time>2017-02-25T12:49:35Z</time>
      </trkpt>
      <trkpt lat="45.22541" lon="5.66945">
        <ele>153.98</ele>
        <time>2017-02-25T12:49:36Z</time>
      </trkpt>
      <trkpt lat="45.22563" lon="5.66928">
        <ele>153.72</ele>
        <time>2017-02-25T12:49:37Z</time>
      </trkpt>
      <trkpt lat="45.22585" lon="5.66911">
        <ele>153.1</ele>
        <time>2017-02-25T12:49:38Z</time>
      </trkpt>
      <trkpt lat="45.22607" lon="5.66895">
        <ele>152.58</ele>
        <time>2017-02-25T12:49:39Z</time>
      </trkpt>
      <trkpt lat="45.22628" lon="5.66879">
        <ele>152.24</ele>
        <time>2017-02-25T12:49:40Z</time>
      </trkpt>
      <trkpt lat="45.2265" lon="5.66863">
        <ele>151.93</ele>
        <time>2017-02-25T12:49:41Z</time>
      </trkpt>
      <trkpt lat="45.22671" lon="5.66847">
        <ele>151.7</ele>
        <time>2017-02-25T12:49:42Z</time>
      </trkpt>
      <trkpt lat="45.22693" lon="5.66831">
        <ele>151.1</ele>
        <time>2017-02-25T12:49:43Z</time>
      </trkpt>
      <trkpt lat="45.22714" lon="5.66815">
        <ele>150.42</ele>
        <time>2017-02-25T12:49:44Z</time>
      </trkpt>
      <trkpt lat="45.22736" lon="5.668">
        <ele>149.8</ele>
        <time>2017-02-25T12:49:45Z</time>
      </trkpt>
      <trkpt lat="45.22757" lon="5.66784">
        <ele>149.6</ele>
        <time>2017-02-25T12:49:46Z</time>
      </trkpt>
      <trkpt lat="45.22778" lon="5.66768">
        <ele>149.56</ele>
        <time>2017-02-25T12:49:47Z</time>
      </trkpt>
      <trkpt lat="45.228" lon="5.66753">
        <ele>149.71</ele>
        <time>2017-02-25T12:49:48Z</time>
      </trkpt>
      <trkpt lat="45.22821" lon="5.66737">
        <ele>149.74</ele>
        <time>2017-02-25T12:49:49Z</time>
      </trkpt>
      <trkpt lat="45.22843" lon="5.66721">
        <ele>149.83</ele>
        <time>2017-02-25T12:49:50Z</time>
      </trkpt>
      <trkpt lat="45.22865" lon="5.66704">
        <ele>150</ele>
        <time>2017-02-25T12:49:51Z</time>
      </trkpt>
      <trkpt lat="45.22887" lon="5.66688">
        <ele>150.12</ele>
        <time>2017-02-25T12:49:52Z</time>
      </trkpt>
      <trkpt lat="45.22909" lon="5.66673">
        <ele>150.06</ele>
        <time>2017-02-25T12:49:53Z</time>
      </trkpt>
      <trkpt lat="45.22931" lon="5.66657">
        <ele>150.05</ele>
        <time>2017-02-25T12:49:54Z</time>
      </trkpt>
      <trkpt lat="45.22952" lon="5.66642">
        <ele>149.73</ele>
        <time>2017-02-25T12:49:55Z</time>
      </trkpt>
      <trkpt lat="45.22974" lon="5.66627">
        <ele>149.83</ele>
        <time>2017-02-25T12:49:56Z</time>
      </trkpt>
      <trkpt lat="45.22996" lon="5.66612">
        <ele>149.6</ele>
        <time>2017-02-25T12:49:57Z</time>
      </trkpt>
      <trkpt lat="45.23018" lon="5.66598">
        <ele>149.8</ele>
        <time>2017-02-25T12:49:58Z</time>
      </trkpt>
      <trkpt lat="45.2304" lon="5.66583">
        <ele>150.08</ele>
        <time>2017-02-25T12:49:59Z</time>
      </trkpt>
      <trkpt lat="45.23061" lon="5.66569">
        <ele>150.3</ele>
        <time>2017-02-25T12:50:00Z</time>
      </trkpt>
      <trkpt lat="45.23083" lon="5.66554">
        <ele>150.5</ele>
        <time>2017-02-25T12:50:01Z</time>
      </trkpt>
      <trkpt lat="45.23106" lon="5.6654">
        <ele>150.7</ele>
        <time>2017-02-25T12:50:02Z</time>
      </trkpt>
      <trkpt lat="45.23128" lon="5.66526">
        <ele>151.06</ele>
        <time>2017-02-25T12:50:03Z</time>
      </trkpt>
      <trkpt lat="45.2315" lon="5.66513">
        <ele>151.29</ele>
        <time>2017-02-25T12:50:04Z</time>
      </trkpt>
      <trkpt lat="45.23172" lon="5.66499">
        <ele>151.58</ele>
        <time>2017-02-25T12:50:05Z</time>
      </trkpt>
      <trkpt lat="45.23194" lon="5.66486">
        <ele>151.79</ele>
        <time>2017-02-25T12:50:06Z</time>
      </trkpt>
      <trkpt lat="45.23216" lon="5.66473">
        <ele>151.92</ele>
        <time>2017-02-25T12:50:07Z</time>
      </trkpt>
      <trkpt lat="45.23239" lon="5.6646">
        <ele>152.18</ele>
        <time>2017-02-25T12:50:08Z</time>
      </trkpt>
      <trkpt lat="45.23261" lon="5.66446">
        <ele>152</ele>
        <time>2017-02-25T12:50:09Z</time>
      </trkpt>
      <trkpt lat="45.23282" lon="5.66434">
        <ele>151.8</ele>
        <time>2017-02-25T12:50:10Z</time>
      </trkpt>
      <trkpt lat="45.23304" lon="5.66421">
        <ele>151.84</ele>
        <time>2017-02-25T12:50:11Z</time>
      </trkpt>
      <trkpt lat="45.23326" lon="5.66409">
        <ele>152.17</ele>
        <time>2017-02-25T12:50:12Z</time>
      </trkpt>
      <trkpt lat="45.23347" lon="5.66397">
        <ele>152.15</ele>
        <time>2017-02-25T12:50:13Z</time>
      </trkpt>
      <trkpt lat="45.23369" lon="5.66385">
        <ele>152.23</ele>
        <time>2017-02-25T12:50:14Z</time>
      </trkpt>
      <trkpt lat="45.23391" lon="5.66373">
        <ele>152.09</ele>
        <time>2017-02-25T12:50:15Z</time>
      </trkpt>
      <trkpt lat="45.23412" lon="5.66362">
        <ele>151.9</ele>
        <time>2017-02-25T12:50:16Z</time>
      </trkpt>
      <trkpt lat="45.23434" lon="5.66351">
        <ele>151.54</ele>
        <time>2017-02-25T12:50:17Z</time>
      </trkpt>
      <trkpt lat="45.23455" lon="5.6634">
        <ele>151.47</ele>
        <time>2017-02-25T12:50:18Z</time>
      </trkpt>
      <trkpt lat="45.23476" lon="5.66329">
        <ele>151.13</ele>
        <time>2017-02-25T12:50:19Z</time>
      </trkpt>
      <trkpt lat="45.23498" lon="5.66319">
        <ele>150.83</ele>
        <time>2017-02-25T12:50:20Z</time>
      </trkpt>
      <trkpt lat="45.23519" lon="5.66309">
        <ele>150.76</ele>
        <time>2017-02-25T12:50:21Z</time>
      </trkpt>
      <trkpt lat="45.2354" lon="5.66299">
        <ele>150.51</ele>
        <time>2017-02-25T12:50:22Z</time>
      </trkpt>
      <trkpt lat="45.23561" lon="5.66289">
        <ele>150.38</ele>
        <time>2017-02-25T12:50:23Z</time>
      </trkpt>
      <trkpt lat="45.23582" lon="5.66279">
        <ele>150.12</ele>
        <time>2017-02-25T12:50:24Z</time>
      </trkpt>
      <trkpt lat="45.23603" lon="5.66268">
        <ele>149.82</ele>
        <time>2017-02-25T12:50:25Z</time>
      </trkpt>
      <trkpt lat="45.23624" lon="5.66258">
        <ele>149.44</ele>
        <time>2017-02-25T12:50:26Z</time>
      </trkpt>
      <trkpt lat="45.23646" lon="5.66247">
        <ele>149.21</ele>
        <time>2017-02-25T12:50:27Z</time>
      </trkpt>
      <trkpt lat="45.23668" lon="5.66236">
        <ele>149.24</ele>
        <time>2017-02-25T12:50:28Z</time>
      </trkpt>
      <trkpt lat="45.23692" lon="5.66224">
        <ele>149.17</ele>
        <time>2017-02-25T12:50:29Z</time>
      </trkpt>
      <trkpt lat="45.23717" lon="5.66211">
        <ele>148.99</ele>
        <time>2017-02-25T12:50:30Z</time>
      </trkpt>
      <trkpt lat="45.23742" lon="5.66198">
        <ele>149.44</ele>
        <time>2017-02-25T12:50:31Z</time>
      </trkpt>
      <trkpt lat="45.23767" lon="5.66183">
        <ele>149.77</ele>
        <time>2017-02-25T12:50:32Z</time>
      </trkpt>
      <trkpt lat="45.23792" lon="5.66168">
        <ele>149.75</ele>
        <time>2017-02-25T12:50:33Z</time>
      </trkpt>
      <trkpt lat="45.23818" lon="5.66153">
        <ele>149.67</ele>
        <time>2017-02-25T12:50:34Z</time>
      </trkpt>
      <trkpt lat="45.23843" lon="5.66138">
        <ele>149.09</ele>
        <time>2017-02-25T12:50:35Z</time>
      </trkpt>
      <trkpt lat="45.23869" lon="5.66123">
        <ele>148.9</ele>
        <time>2017-02-25T12:50:36Z</time>
      </trkpt>
      <trkpt lat="45.23894" lon="5.66107">
        <ele>148.62</ele>
        <time>2017-02-25T12:50:37Z</time>
      </trkpt>
      <trkpt lat="45.23919" lon="5.66091">
        <ele>148.24</ele>
        <time>2017-02-25T12:50:38Z</time>
      </trkpt>
      <trkpt lat="45.23945" lon="5.66076">
        <ele>148.01</ele>
        <time>2017-02-25T12:50:39Z</time>
      </trkpt>
      <trkpt lat="45.2397" lon="5.66059">
        <ele>147.88</ele>
        <time>2017-02-25T12:50:40Z</time>
      </trkpt>
      <trkpt lat="45.23994" lon="5.66042">
        <ele>147.86</ele>
        <time>2017-02-25T12:50:41Z</time>
      </trkpt>
      <trkpt lat="45.24019" lon="5.66025">
        <ele>147.53</ele>
        <time>2017-02-25T12:50:42Z</time>
      </trkpt>
      <trkpt lat="45.24043" lon="5.66007">
        <ele>147.47</ele>
        <time>2017-02-25T12:50:43Z</time>
      </trkpt>
      <trkpt lat="45.24068" lon="5.65989">
        <ele>147.61</ele>
        <time>2017-02-25T12:50:44Z</time>
      </trkpt>
      <trkpt lat="45.24093" lon="5.65972">
        <ele>147.72</ele>
        <time>2017-02-25T12:50:45Z</time>
      </trkpt>
      <trkpt lat="45.24118" lon="5.65955">
        <ele>147.9</ele>
        <time>2017-02-25T12:50:46Z</time>
      </trkpt>
      <trkpt lat="45.24143" lon="5.65938">
        <ele>148.1</ele>
        <time>2017-02-25T12:50:47Z</time>
      </trkpt>
      <trkpt lat="45.24168" lon="5.65921">
        <ele>148.22</ele>
        <time>2017-02-25T12:50:48Z</time>
      </trkpt>
      <trkpt lat="45.24193" lon="5.65904">
        <ele>148.4</ele>
        <time>2017-02-25T12:50:49Z</time>
      </trkpt>
      <trkpt lat="45.24217" lon="5.65886">
        <ele>148.44</ele>
        <time>2017-02-25T12:50:50Z</time>
      </trkpt>
      <trkpt lat="45.24242" lon="5.65869">
        <ele>148.37</ele>
        <time>2017-02-25T12:50:51Z</time>
      </trkpt>
      <trkpt lat="45.24267" lon="5.65851">
        <ele>148.19</ele>
        <time>2017-02-25T12:50:52Z</time>
      </trkpt>
      <trkpt lat="45.24291" lon="5.65833">
        <ele>148.24</ele>
        <time>2017-02-25T12:50:53Z</time>
      </trkpt>
      <trkpt lat="45.24316" lon="5.65816">
        <ele>148.17</ele>
        <time>2017-02-25T12:50:54Z</time>
      </trkpt>
      <trkpt lat="45.2434" lon="5.65798">
        <ele>148.39</ele>
        <time>2017-02-25T12:50:55Z</time>
      </trkpt>
      <trkpt lat="45.24365" lon="5.6578">
        <ele>148.52</ele>
        <time>2017-02-25T12:50:56Z</time>
      </trkpt>
      <trkpt lat="45.24389" lon="5.65762">
        <ele>148.94</ele>
        <time>2017-02-25T12:50:57Z</time>
      </trkpt>
      <trkpt lat="45.24414" lon="5.65744">
        <ele>149.03</ele>
        <time>2017-02-25T12:50:58Z</time>
      </trkpt>
      <trkpt lat="45.24438" lon="5.65726">
        <ele>149.04</ele>
        <time>2017-02-25T12:50:59Z</time>
      </trkpt>
      <trkpt lat="45.24463" lon="5.65709">
        <ele>149.05</ele>
        <time>2017-02-25T12:51:00Z</time>
      </trkpt>
      <trkpt lat="45.24487" lon="5.65691">
        <ele>149.13</ele>
        <time>2017-02-25T12:51:01Z</time>
      </trkpt>
      <trkpt lat="45.24512" lon="5.65674">
        <ele>148.98</ele>
        <time>2017-02-25T12:51:02Z</time>
      </trkpt>
      <trkpt lat="45.24536" lon="5.65656">
        <ele>148.8</ele>
        <time>2017-02-25T12:51:03Z</time>
      </trkpt>
      <trkpt lat="45.2456" lon="5.65639">
        <ele>148.92</ele>
        <time>2017-02-25T12:51:04Z</time>
      </trkpt>
      <trkpt lat="45.24585" lon="5.65621">
        <ele>149.02</ele>
        <time>2017-02-25T12:51:05Z</time>
      </trkpt>
      <trkpt lat="45.24609" lon="5.65603">
        <ele>149.04</ele>
        <time>2017-02-25T12:51:06Z</time>
      </trkpt>
      <trkpt lat="45.24633" lon="5.65585">
        <ele>149.13</ele>
        <time>2017-02-25T12:51:07Z</time>
      </trkpt>
      <trkpt lat="45.24657" lon="5.65567">
        <ele>149.3</ele>
        <time>2017-02-25T12:51:08Z</time>
      </trkpt>
      <trkpt lat="45.24682" lon="5.65549">
        <ele>149.26</ele>
        <time>2017-02-25T12:51:09Z</time>
      </trkpt>
      <trkpt lat="45.24706" lon="5.65531">
        <ele>149.57</ele>
        <time>2017-02-25T12:51:10Z</time>
      </trkpt>
      <trkpt lat="45.2473" lon="5.65513">
        <ele>149.63</ele>
        <time>2017-02-25T12:51:11Z</time>
      </trkpt>
      <trkpt lat="45.24755" lon="5.65495">
        <ele>149.65</ele>
        <time>2017-02-25T12:51:12Z</time>
      </trkpt>
      <trkpt lat="45.2478" lon="5.65476">
        <ele>149.89</ele>
        <time>2017-02-25T12:51:13Z</time>
      </trkpt>
      <trkpt lat="45.24804" lon="5.65458">
        <ele>149.94</ele>
        <time>2017-02-25T12:51:14Z</time>
      </trkpt>
      <trkpt lat="45.24828" lon="5.65438">
        <ele>150.27</ele>
        <time>2017-02-25T12:51:15Z</time>
      </trkpt>
      <trkpt lat="45.24851" lon="5.65418">
        <ele>150.17</ele>
        <time>2017-02-25T12:51:16Z</time>
      </trkpt>
      <trkpt lat="45.24875" lon="5.65397">
        <ele>149.91</ele>
        <time>2017-02-25T12:51:17Z</time>
      </trkpt>
      <trkpt lat="45.24898" lon="5.65374">
        <ele>149.7</ele>
        <time>2017-02-25T12:51:18Z</time>
      </trkpt>
      <trkpt lat="45.24921" lon="5.65351">
        <ele>149.74</ele>
        <time>2017-02-25T12:51:19Z</time>
      </trkpt>
      <trkpt lat="45.24944" lon="5.65328">
        <ele>149.75</ele>
        <time>2017-02-25T12:51:20Z</time>
      </trkpt>
      <trkpt lat="45.24966" lon="5.65304">
        <ele>149.67</ele>
        <time>2017-02-25T12:51:21Z</time>
      </trkpt>
      <trkpt lat="45.24988" lon="5.65279">
        <ele>149.41</ele>
        <time>2017-02-25T12:51:22Z</time>
      </trkpt>
      <trkpt lat="45.2501" lon="5.65253">
        <ele>149.12</ele>
        <time>2017-02-25T12:51:23Z</time>
      </trkpt>
      <trkpt lat="45.25032" lon="5.65226">
        <ele>148.74</ele>
        <time>2017-02-25T12:51:24Z</time>
      </trkpt>
      <trkpt lat="45.25053" lon="5.65199">
        <ele>148.67</ele>
        <time>2017-02-25T12:51:25Z</time>
      </trkpt>
      <trkpt lat="45.25075" lon="5.65172">
        <ele>148.97</ele>
        <time>2017-02-25T12:51:26Z</time>
      </trkpt>
      <trkpt lat="45.25096" lon="5.65144">
        <ele>148.95</ele>
        <time>2017-02-25T12:51:27Z</time>
      </trkpt>
      <trkpt lat="45.25116" lon="5.65116">
        <ele>148.79</ele>
        <time>2017-02-25T12:51:28Z</time>
      </trkpt>
      <trkpt lat="45.25137" lon="5.65087">
        <ele>148.76</ele>
        <time>2017-02-25T12:51:29Z</time>
      </trkpt>
      <trkpt lat="45.25158" lon="5.65059">
        <ele>148.59</ele>
        <time>2017-02-25T12:51:30Z</time>
      </trkpt>
      <trkpt lat="45.25178" lon="5.6503">
        <ele>148.56</ele>
        <time>2017-02-25T12:51:31Z</time>
      </trkpt>
      <trkpt lat="45.25199" lon="5.65002">
        <ele>148.55</ele>
        <time>2017-02-25T12:51:32Z</time>
      </trkpt>
      <trkpt lat="45.2522" lon="5.64974">
        <ele>148.23</ele>
        <time>2017-02-25T12:51:33Z</time>
      </trkpt>
      <trkpt lat="45.25241" lon="5.64946">
        <ele>147.77</ele>
        <time>2017-02-25T12:51:34Z</time>
      </trkpt>
      <trkpt lat="45.25262" lon="5.64918">
        <ele>147.35</ele>
        <time>2017-02-25T12:51:35Z</time>
      </trkpt>
      <trkpt lat="45.25282" lon="5.64889">
        <ele>147.11</ele>
        <time>2017-02-25T12:51:36Z</time>
      </trkpt>
      <trkpt lat="45.25303" lon="5.64861">
        <ele>147.3</ele>
        <time>2017-02-25T12:51:37Z</time>
      </trkpt>
      <trkpt lat="45.25324" lon="5.64833">
        <ele>147.5</ele>
        <time>2017-02-25T12:51:38Z</time>
      </trkpt>
      <trkpt lat="45.25344" lon="5.64805">
        <ele>147.62</ele>
        <time>2017-02-25T12:51:39Z</time>
      </trkpt>
      <trkpt lat="45.25364" lon="5.64777">
        <ele>147.4</ele>
        <time>2017-02-25T12:51:40Z</time>
      </trkpt>
      <trkpt lat="45.25384" lon="5.64749">
        <ele>147.28</ele>
        <time>2017-02-25T12:51:41Z</time>
      </trkpt>
      <trkpt lat="45.25404" lon="5.6472">
        <ele>147.82</ele>
        <time>2017-02-25T12:51:42Z</time>
      </trkpt>
      <trkpt lat="45.25424" lon="5.64692">
        <ele>147.84</ele>
        <time>2017-02-25T12:51:43Z</time>
      </trkpt>
      <trkpt lat="45.25443" lon="5.64664">
        <ele>147.93</ele>
        <time>2017-02-25T12:51:44Z</time>
      </trkpt>
      <trkpt lat="45.25463" lon="5.64636">
        <ele>148.1</ele>
        <time>2017-02-25T12:51:45Z</time>
      </trkpt>
      <trkpt lat="45.25481" lon="5.64608">
        <ele>147.82</ele>
        <time>2017-02-25T12:51:46Z</time>
      </trkpt>
      <trkpt lat="45.25499" lon="5.6458">
        <ele>147.28</ele>
        <time>2017-02-25T12:51:47Z</time>
      </trkpt>
      <trkpt lat="45.25516" lon="5.64551">
        <ele>146.86</ele>
        <time>2017-02-25T12:51:48Z</time>
      </trkpt>
      <trkpt lat="45.25534" lon="5.64521">
        <ele>145.81</ele>
        <time>2017-02-25T12:51:49Z</time>
      </trkpt>
      <trkpt lat="45.25551" lon="5.64492">
        <ele>145.52</ele>
        <time>2017-02-25T12:51:50Z</time>
      </trkpt>
      <trkpt lat="45.25568" lon="5.64463">
        <ele>145.78</ele>
        <time>2017-02-25T12:51:51Z</time>
      </trkpt>
      <trkpt lat="45.25585" lon="5.64433">
        <ele>145.84</ele>
        <time>2017-02-25T12:51:52Z</time>
      </trkpt>
      <trkpt lat="45.25602" lon="5.64403">
        <ele>146.09</ele>
        <time>2017-02-25T12:51:53Z</time>
      </trkpt>
      <trkpt lat="45.2562" lon="5.64372">
        <ele>146.06</ele>
        <time>2017-02-25T12:51:54Z</time>
      </trkpt>
      <trkpt lat="45.25637" lon="5.64341">
        <ele>146.05</ele>
        <time>2017-02-25T12:51:55Z</time>
      </trkpt>
      <trkpt lat="45.25654" lon="5.6431">
        <ele>145.97</ele>
        <time>2017-02-25T12:51:56Z</time>
      </trkpt>
      <trkpt lat="45.25671" lon="5.64278">
        <ele>145.87</ele>
        <time>2017-02-25T12:51:57Z</time>
      </trkpt>
      <trkpt lat="45.25688" lon="5.64246">
        <ele>145.61</ele>
        <time>2017-02-25T12:51:58Z</time>
      </trkpt>
      <trkpt lat="45.25704" lon="5.64214">
        <ele>145.48</ele>
        <time>2017-02-25T12:51:59Z</time>
      </trkpt>
      <trkpt lat="45.25721" lon="5.64182">
        <ele>145.86</ele>
        <time>2017-02-25T12:52:00Z</time>
      </trkpt>
      <trkpt lat="45.25737" lon="5.64151">
        <ele>145.77</ele>
        <time>2017-02-25T12:52:01Z</time>
      </trkpt>
      <trkpt lat="45.25753" lon="5.64119">
        <ele>146.39</ele>
        <time>2017-02-25T12:52:02Z</time>
      </trkpt>
      <trkpt lat="45.2577" lon="5.64088">
        <ele>146.52</ele>
        <time>2017-02-25T12:52:03Z</time>
      </trkpt>
      <trkpt lat="45.25787" lon="5.64057">
        <ele>146.7</ele>
        <time>2017-02-25T12:52:04Z</time>
      </trkpt>
      <trkpt lat="45.25804" lon="5.64026">
        <ele>146.58</ele>
        <time>2017-02-25T12:52:05Z</time>
      </trkpt>
      <trkpt lat="45.25821" lon="5.63995">
        <ele>146.32</ele>
        <time>2017-02-25T12:52:06Z</time>
      </trkpt>
      <trkpt lat="45.25839" lon="5.63965">
        <ele>146.18</ele>
        <time>2017-02-25T12:52:07Z</time>
      </trkpt>
      <trkpt lat="45.25856" lon="5.63934">
        <ele>145.92</ele>
        <time>2017-02-25T12:52:08Z</time>
      </trkpt>
      <trkpt lat="45.25875" lon="5.63905">
        <ele>145.7</ele>
        <time>2017-02-25T12:52:09Z</time>
      </trkpt>
      <trkpt lat="45.25893" lon="5.63875">
        <ele>145.98</ele>
        <time>2017-02-25T12:52:10Z</time>
      </trkpt>
      <trkpt lat="45.25912" lon="5.63846">
        <ele>146.12</ele>
        <time>2017-02-25T12:52:11Z</time>
      </trkpt>
      <trkpt lat="45.25932" lon="5.63817">
        <ele>146.14</ele>
        <time>2017-02-25T12:52:12Z</time>
      </trkpt>
      <trkpt lat="45.25951" lon="5.63789">
        <ele>146.15</ele>
        <time>2017-02-25T12:52:13Z</time>
      </trkpt>
      <trkpt lat="45.25971" lon="5.63761">
        <ele>146.07</ele>
        <time>2017-02-25T12:52:14Z</time>
      </trkpt>
      <trkpt lat="45.25991" lon="5.63734">
        <ele>145.89</ele>
        <time>2017-02-25T12:52:15Z</time>
      </trkpt>
      <trkpt lat="45.26011" lon="5.63706">
        <ele>145.78</ele>
        <time>2017-02-25T12:52:16Z</time>
      </trkpt>
      <trkpt lat="45.26032" lon="5.63679">
        <ele>145.83</ele>
        <time>2017-02-25T12:52:17Z</time>
      </trkpt>
      <trkpt lat="45.26052" lon="5.63653">
        <ele>145.77</ele>
        <time>2017-02-25T12:52:18Z</time>
      </trkpt>
      <trkpt lat="45.26073" lon="5.63626">
        <ele>145.67</ele>
        <time>2017-02-25T12:52:19Z</time>
      </trkpt>
      <trkpt lat="45.26094" lon="5.636">
        <ele>145.57</ele>
        <time>2017-02-25T12:52:20Z</time>
      </trkpt>
      <trkpt lat="45.26114" lon="5.63575">
        <ele>145.55</ele>
        <time>2017-02-25T12:52:21Z</time>
      </trkpt>
      <trkpt lat="45.26136" lon="5.63549">
        <ele>145.31</ele>
        <time>2017-02-25T12:52:22Z</time>
      </trkpt>
      <trkpt lat="45.26157" lon="5.63523">
        <ele>145.26</ele>
        <time>2017-02-25T12:52:23Z</time>
      </trkpt>
      <trkpt lat="45.26178" lon="5.63498">
        <ele>144.69</ele>
        <time>2017-02-25T12:52:24Z</time>
      </trkpt>
      <trkpt lat="45.26198" lon="5.63473">
        <ele>144.34</ele>
        <time>2017-02-25T12:52:25Z</time>
      </trkpt>
      <trkpt lat="45.26219" lon="5.63448">
        <ele>144.19</ele>
        <time>2017-02-25T12:52:26Z</time>
      </trkpt>
      <trkpt lat="45.2624" lon="5.63423">
        <ele>144.16</ele>
        <time>2017-02-25T12:52:27Z</time>
      </trkpt>
      <trkpt lat="45.26261" lon="5.63398">
        <ele>144.15</ele>
        <time>2017-02-25T12:52:28Z</time>
      </trkpt>
      <trkpt lat="45.26281" lon="5.63373">
        <ele>143.99</ele>
        <time>2017-02-25T12:52:29Z</time>
      </trkpt>
      <trkpt lat="45.26302" lon="5.63348">
        <ele>143.64</ele>
        <time>2017-02-25T12:52:30Z</time>
      </trkpt>
      <trkpt lat="45.26323" lon="5.63323">
        <ele>143.33</ele>
        <time>2017-02-25T12:52:31Z</time>
      </trkpt>
      <trkpt lat="45.26343" lon="5.63298">
        <ele>143.18</ele>
        <time>2017-02-25T12:52:32Z</time>
      </trkpt>
      <trkpt lat="45.26364" lon="5.63273">
        <ele>143.16</ele>
        <time>2017-02-25T12:52:33Z</time>
      </trkpt>
      <trkpt lat="45.26385" lon="5.63247">
        <ele>143.31</ele>
        <time>2017-02-25T12:52:34Z</time>
      </trkpt>
      <trkpt lat="45.26406" lon="5.63222">
        <ele>143.66</ele>
        <time>2017-02-25T12:52:35Z</time>
      </trkpt>
      <trkpt lat="45.26427" lon="5.63196">
        <ele>143.89</ele>
        <time>2017-02-25T12:52:36Z</time>
      </trkpt>
      <trkpt lat="45.26448" lon="5.6317">
        <ele>144.02</ele>
        <time>2017-02-25T12:52:37Z</time>
      </trkpt>
      <trkpt lat="45.26469" lon="5.63144">
        <ele>144.04</ele>
        <time>2017-02-25T12:52:38Z</time>
      </trkpt>
      <trkpt lat="45.26491" lon="5.63118">
        <ele>144.13</ele>
        <time>2017-02-25T12:52:39Z</time>
      </trkpt>
      <trkpt lat="45.26513" lon="5.63093">
        <ele>144.06</ele>
        <time>2017-02-25T12:52:40Z</time>
      </trkpt>
      <trkpt lat="45.26535" lon="5.63068">
        <ele>143.73</ele>
        <time>2017-02-25T12:52:41Z</time>
      </trkpt>
      <trkpt lat="45.26557" lon="5.63043">
        <ele>143.83</ele>
        <time>2017-02-25T12:52:42Z</time>
      </trkpt>
      <trkpt lat="45.26581" lon="5.6302">
        <ele>144</ele>
        <time>2017-02-25T12:52:43Z</time>
      </trkpt>
      <trkpt lat="45.26604" lon="5.62996">
        <ele>144.2</ele>
        <time>2017-02-25T12:52:44Z</time>
      </trkpt>
      <trkpt lat="45.26627" lon="5.62974">
        <ele>144.24</ele>
        <time>2017-02-25T12:52:45Z</time>
      </trkpt>
      <trkpt lat="45.26651" lon="5.62953">
        <ele>144.25</ele>
        <time>2017-02-25T12:52:46Z</time>
      </trkpt>
      <trkpt lat="45.26675" lon="5.62932">
        <ele>144.41</ele>
        <time>2017-02-25T12:52:47Z</time>
      </trkpt>
      <trkpt lat="45.26699" lon="5.62912">
        <ele>144.52</ele>
        <time>2017-02-25T12:52:48Z</time>
      </trkpt>
      <trkpt lat="45.26723" lon="5.62892">
        <ele>144.54</ele>
        <time>2017-02-25T12:52:49Z</time>
      </trkpt>
      <trkpt lat="45.26748" lon="5.62873">
        <ele>144.47</ele>
        <time>2017-02-25T12:52:50Z</time>
      </trkpt>
      <trkpt lat="45.26773" lon="5.62855">
        <ele>144.53</ele>
        <time>2017-02-25T12:52:51Z</time>
      </trkpt>
      <trkpt lat="45.26799" lon="5.62837">
        <ele>144.79</ele>
        <time>2017-02-25T12:52:52Z</time>
      </trkpt>
      <trkpt lat="45.26824" lon="5.62821">
        <ele>145.16</ele>
        <time>2017-02-25T12:52:53Z</time>
      </trkpt>
      <trkpt lat="45.2685" lon="5.62804">
        <ele>145.39</ele>
        <time>2017-02-25T12:52:54Z</time>
      </trkpt>
      <trkpt lat="45.26876" lon="5.62788">
        <ele>146.08</ele>
        <time>2017-02-25T12:52:55Z</time>
      </trkpt>
      <trkpt lat="45.26903" lon="5.62774">
        <ele>146.21</ele>
        <time>2017-02-25T12:52:56Z</time>
      </trkpt>
      <trkpt lat="45.26929" lon="5.6276">
        <ele>146.4</ele>
        <time>2017-02-25T12:52:57Z</time>
      </trkpt>
      <trkpt lat="45.26956" lon="5.62747">
        <ele>146.52</ele>
        <time>2017-02-25T12:52:58Z</time>
      </trkpt>
      <trkpt lat="45.26983" lon="5.62733">
        <ele>146.78</ele>
        <time>2017-02-25T12:52:59Z</time>
      </trkpt>
      <trkpt lat="45.27009" lon="5.62721">
        <ele>146.76</ele>
        <time>2017-02-25T12:53:00Z</time>
      </trkpt>
      <trkpt lat="45.27036" lon="5.62708">
        <ele>146.75</ele>
        <time>2017-02-25T12:53:01Z</time>
      </trkpt>
      <trkpt lat="45.27062" lon="5.62695">
        <ele>146.43</ele>
        <time>2017-02-25T12:53:02Z</time>
      </trkpt>
      <trkpt lat="45.27089" lon="5.62682">
        <ele>146.29</ele>
        <time>2017-02-25T12:53:03Z</time>
      </trkpt>
      <trkpt lat="45.27115" lon="5.62669">
        <ele>146.18</ele>
        <time>2017-02-25T12:53:04Z</time>
      </trkpt>
      <trkpt lat="45.27141" lon="5.62656">
        <ele>146.39</ele>
        <time>2017-02-25T12:53:05Z</time>
      </trkpt>
      <trkpt lat="45.27168" lon="5.62642">
        <ele>146.6</ele>
        <time>2017-02-25T12:53:06Z</time>
      </trkpt>
      <trkpt lat="45.27194" lon="5.6263">
        <ele>146.48</ele>
        <time>2017-02-25T12:53:07Z</time>
      </trkpt>
      <trkpt lat="45.27221" lon="5.62617">
        <ele>146.05</ele>
        <time>2017-02-25T12:53:08Z</time>
      </trkpt>
      <trkpt lat="45.27247" lon="5.62604">
        <ele>145.57</ele>
        <time>2017-02-25T12:53:09Z</time>
      </trkpt>
      <trkpt lat="45.27273" lon="5.62592">
        <ele>145.15</ele>
        <time>2017-02-25T12:53:10Z</time>
      </trkpt>
      <trkpt lat="45.273" lon="5.62579">
        <ele>144.83</ele>
        <time>2017-02-25T12:53:11Z</time>
      </trkpt>
      <trkpt lat="45.27326" lon="5.62565">
        <ele>144.53</ele>
        <time>2017-02-25T12:53:12Z</time>
      </trkpt>
      <trkpt lat="45.27353" lon="5.62552">
        <ele>144.38</ele>
        <time>2017-02-25T12:53:13Z</time>
      </trkpt>
      <trkpt lat="45.27379" lon="5.62539">
        <ele>144.12</ele>
        <time>2017-02-25T12:53:14Z</time>
      </trkpt>
      <trkpt lat="45.27406" lon="5.62526">
        <ele>144.3</ele>
        <time>2017-02-25T12:53:15Z</time>
      </trkpt>
      <trkpt lat="45.27432" lon="5.62513">
        <ele>144.5</ele>
        <time>2017-02-25T12:53:16Z</time>
      </trkpt>
      <trkpt lat="45.27458" lon="5.625">
        <ele>144.54</ele>
        <time>2017-02-25T12:53:17Z</time>
      </trkpt>
      <trkpt lat="45.27485" lon="5.62487">
        <ele>144.55</ele>
        <time>2017-02-25T12:53:18Z</time>
      </trkpt>
      <trkpt lat="45.27511" lon="5.62474">
        <ele>144.71</ele>
        <time>2017-02-25T12:53:19Z</time>
      </trkpt>
      <trkpt lat="45.27537" lon="5.62461">
        <ele>144.42</ele>
        <time>2017-02-25T12:53:20Z</time>
      </trkpt>
      <trkpt lat="45.27562" lon="5.62447">
        <ele>144.12</ele>
        <time>2017-02-25T12:53:21Z</time>
      </trkpt>
      <trkpt lat="45.27588" lon="5.62435">
        <ele>143.9</ele>
        <time>2017-02-25T12:53:22Z</time>
      </trkpt>
      <trkpt lat="45.27614" lon="5.62422">
        <ele>143.78</ele>
        <time>2017-02-25T12:53:23Z</time>
      </trkpt>
      <trkpt lat="45.2764" lon="5.6241">
        <ele>144.16</ele>
        <time>2017-02-25T12:53:24Z</time>
      </trkpt>
      <trkpt lat="45.27665" lon="5.62399">
        <ele>143.51</ele>
        <time>2017-02-25T12:53:25Z</time>
      </trkpt>
      <trkpt lat="45.27691" lon="5.62388">
        <ele>143.3</ele>
        <time>2017-02-25T12:53:26Z</time>
      </trkpt>
      <trkpt lat="45.27716" lon="5.62377">
        <ele>142.86</ele>
        <time>2017-02-25T12:53:27Z</time>
      </trkpt>
      <trkpt lat="45.27742" lon="5.62366">
        <ele>142.85</ele>
        <time>2017-02-25T12:53:28Z</time>
      </trkpt>
      <trkpt lat="45.27767" lon="5.62355">
        <ele>143.25</ele>
        <time>2017-02-25T12:53:29Z</time>
      </trkpt>
      <trkpt lat="45.27791" lon="5.62344">
        <ele>143.57</ele>
        <time>2017-02-25T12:53:30Z</time>
      </trkpt>
      <trkpt lat="45.27814" lon="5.62334">
        <ele>143.63</ele>
        <time>2017-02-25T12:53:31Z</time>
      </trkpt>
      <trkpt lat="45.27837" lon="5.62325">
        <ele>143.65</ele>
        <time>2017-02-25T12:53:32Z</time>
      </trkpt>
      <trkpt lat="45.27858" lon="5.62316">
        <ele>143.33</ele>
        <time>2017-02-25T12:53:33Z</time>
      </trkpt>
      <trkpt lat="45.2788" lon="5.62307">
        <ele>143.18</ele>
        <time>2017-02-25T12:53:34Z</time>
      </trkpt>
      <trkpt lat="45.27902" lon="5.62299">
        <ele>142.92</ele>
        <time>2017-02-25T12:53:35Z</time>
      </trkpt>
      <trkpt lat="45.27923" lon="5.6229">
        <ele>143.02</ele>
        <time>2017-02-25T12:53:36Z</time>
      </trkpt>
      <trkpt lat="45.27945" lon="5.62281">
        <ele>143.28</ele>
        <time>2017-02-25T12:53:37Z</time>
      </trkpt>
      <trkpt lat="45.27966" lon="5.62273">
        <ele>143.34</ele>
        <time>2017-02-25T12:53:38Z</time>
      </trkpt>
      <trkpt lat="45.27987" lon="5.62264">
        <ele>143.35</ele>
        <time>2017-02-25T12:53:39Z</time>
      </trkpt>
      <trkpt lat="45.28008" lon="5.62257">
        <ele>143.35</ele>
        <time>2017-02-25T12:53:40Z</time>
      </trkpt>
      <trkpt lat="45.28028" lon="5.62249">
        <ele>143.11</ele>
        <time>2017-02-25T12:53:41Z</time>
      </trkpt>
      <trkpt lat="45.28048" lon="5.62242">
        <ele>142.18</ele>
        <time>2017-02-25T12:53:42Z</time>
      </trkpt>
      <trkpt lat="45.28068" lon="5.62235">
        <ele>141.52</ele>
        <time>2017-02-25T12:53:43Z</time>
      </trkpt>
      <trkpt lat="45.28088" lon="5.62229">
        <ele>140.98</ele>
        <time>2017-02-25T12:53:44Z</time>
      </trkpt>
      <trkpt lat="45.28107" lon="5.62224">
        <ele>140.64</ele>
        <time>2017-02-25T12:53:45Z</time>
      </trkpt>
      <trkpt lat="45.28127" lon="5.62219">
        <ele>140.25</ele>
        <time>2017-02-25T12:53:46Z</time>
      </trkpt>
      <trkpt lat="45.28145" lon="5.62216">
        <ele>139.45</ele>
        <time>2017-02-25T12:53:47Z</time>
      </trkpt>
      <trkpt lat="45.28164" lon="5.62214">
        <ele>138.49</ele>
        <time>2017-02-25T12:53:48Z</time>
      </trkpt>
      <trkpt lat="45.28181" lon="5.62212">
        <ele>137.9</ele>
        <time>2017-02-25T12:53:49Z</time>
      </trkpt>
      <trkpt lat="45.28198" lon="5.6221">
        <ele>137.22</ele>
        <time>2017-02-25T12:53:50Z</time>
      </trkpt>
      <trkpt lat="45.28214" lon="5.62208">
        <ele>136.6</ele>
        <time>2017-02-25T12:53:51Z</time>
      </trkpt>
      <trkpt lat="45.28229" lon="5.62205">
        <ele>136</ele>
        <time>2017-02-25T12:53:52Z</time>
      </trkpt>
      <trkpt lat="45.28243" lon="5.62203">
        <ele>135.08</ele>
        <time>2017-02-25T12:53:53Z</time>
      </trkpt>
      <trkpt lat="45.28256" lon="5.622">
        <ele>134.1</ele>
        <time>2017-02-25T12:53:54Z</time>
      </trkpt>
      <trkpt lat="45.28269" lon="5.62197">
        <ele>133.1</ele>
        <time>2017-02-25T12:53:55Z</time>
      </trkpt>
      <trkpt lat="45.28281" lon="5.62195">
        <ele>132.34</ele>
        <time>2017-02-25T12:53:56Z</time>
      </trkpt>
      <trkpt lat="45.28291" lon="5.62194">
        <ele>131.95</ele>
        <time>2017-02-25T12:53:57Z</time>
      </trkpt>
      <trkpt lat="45.283" lon="5.62194">
        <ele>131.15</ele>
        <time>2017-02-25T12:53:58Z</time>
      </trkpt>
      <trkpt lat="45.28307" lon="5.62195">
        <ele>130.43</ele>
        <time>2017-02-25T12:53:59Z</time>
      </trkpt>
      <trkpt lat="45.28313" lon="5.62195">
        <ele>129.96</ele>
        <time>2017-02-25T12:54:00Z</time>
      </trkpt>
      <trkpt lat="45.28319" lon="5.62195">
        <ele>129.47</ele>
        <time>2017-02-25T12:54:01Z</time>
      </trkpt>
      <trkpt lat="45.28323" lon="5.62195">
        <ele>129.05</ele>
        <time>2017-02-25T12:54:02Z</time>
      </trkpt>
      <trkpt lat="45.28326" lon="5.62194">
        <ele>128.73</ele>
        <time>2017-02-25T12:54:03Z</time>
      </trkpt>
      <trkpt lat="45.28328" lon="5.62193">
        <ele>128.83</ele>
        <time>2017-02-25T12:54:04Z</time>
      </trkpt>
      <trkpt lat="45.28329" lon="5.62193">
        <ele>130.52</ele>
        <time>2017-02-25T12:54:05Z</time>
      </trkpt>
      <trkpt lat="45.28328" lon="5.62194">
        <ele>131.1</ele>
        <time>2017-02-25T12:54:06Z</time>
      </trkpt>
      <trkpt lat="45.28328" lon="5.62194">
        <ele>131.22</ele>
        <time>2017-02-25T12:54:07Z</time>
      </trkpt>
      <trkpt lat="45.28324" lon="5.62196">
        <ele>135.08</ele>
        <time>2017-02-25T12:54:08Z</time>
      </trkpt>
      <trkpt lat="45.28324" lon="5.62196">
        <ele>135.86</ele>
        <time>2017-02-25T12:54:09Z</time>
      </trkpt>
      <trkpt lat="45.28324" lon="5.62196">
        <ele>136.01</ele>
        <time>2017-02-25T12:54:10Z</time>
      </trkpt>
      <trkpt lat="45.28324" lon="5.62196">
        <ele>136.04</ele>
        <time>2017-02-25T12:54:11Z</time>
      </trkpt>
      <trkpt lat="45.28325" lon="5.62196">
        <ele>140.21</ele>
        <time>2017-02-25T12:54:12Z</time>
      </trkpt>
      <trkpt lat="45.28326" lon="5.62196">
        <ele>141.04</ele>
        <time>2017-02-25T12:54:13Z</time>
      </trkpt>
      <trkpt lat="45.28328" lon="5.62195">
        <ele>141.37</ele>
        <time>2017-02-25T12:54:14Z</time>
      </trkpt>
      <trkpt lat="45.28328" lon="5.62194">
        <ele>141.51</ele>
        <time>2017-02-25T12:54:15Z</time>
      </trkpt>
      <trkpt lat="45.28329" lon="5.62193">
        <ele>141.62</ele>
        <time>2017-02-25T12:54:16Z</time>
      </trkpt>
      <trkpt lat="45.28331" lon="5.62193">
        <ele>141.56</ele>
        <time>2017-02-25T12:54:17Z</time>
      </trkpt>
      <trkpt lat="45.28332" lon="5.62193">
        <ele>141.39</ele>
        <time>2017-02-25T12:54:18Z</time>
      </trkpt>
      <trkpt lat="45.28335" lon="5.62193">
        <ele>141.12</ele>
        <time>2017-02-25T12:54:19Z</time>
      </trkpt>
      <trkpt lat="45.28341" lon="5.62192">
        <ele>140.42</ele>
        <time>2017-02-25T12:54:20Z</time>
      </trkpt>
      <trkpt lat="45.28348" lon="5.6219">
        <ele>139.4</ele>
        <time>2017-02-25T12:54:21Z</time>
      </trkpt>
      <trkpt lat="45.28365" lon="5.62184">
        <ele>139.36</ele>
        <time>2017-02-25T12:54:22Z</time>
      </trkpt>
      <trkpt lat="45.2838" lon="5.62178">
        <ele>138.95</ele>
        <time>2017-02-25T12:54:23Z</time>
      </trkpt>
      <trkpt lat="45.28395" lon="5.62173">
        <ele>138.39</ele>
        <time>2017-02-25T12:54:24Z</time>
      </trkpt>
      <trkpt lat="45.2841" lon="5.62168">
        <ele>137.88</ele>
        <time>2017-02-25T12:54:25Z</time>
      </trkpt>
      <trkpt lat="45.28425" lon="5.62163">
        <ele>137.61</ele>
        <time>2017-02-25T12:54:26Z</time>
      </trkpt>
      <trkpt lat="45.2844" lon="5.62156">
        <ele>137.4</ele>
        <time>2017-02-25T12:54:27Z</time>
      </trkpt>
      <trkpt lat="45.28458" lon="5.62148">
        <ele>137.04</ele>
        <time>2017-02-25T12:54:28Z</time>
      </trkpt>
      <trkpt lat="45.28476" lon="5.6214">
        <ele>136.81</ele>
        <time>2017-02-25T12:54:29Z</time>
      </trkpt>
      <trkpt lat="45.28496" lon="5.6213">
        <ele>136.68</ele>
        <time>2017-02-25T12:54:30Z</time>
      </trkpt>
      <trkpt lat="45.28516" lon="5.6212">
        <ele>136.58</ele>
        <time>2017-02-25T12:54:31Z</time>
      </trkpt>
      <trkpt lat="45.28538" lon="5.6211">
        <ele>136.55</ele>
        <time>2017-02-25T12:54:32Z</time>
      </trkpt>
      <trkpt lat="45.28561" lon="5.62101">
        <ele>136.71</ele>
        <time>2017-02-25T12:54:33Z</time>
      </trkpt>
      <trkpt lat="45.28583" lon="5.62093">
        <ele>136.74</ele>
        <time>2017-02-25T12:54:34Z</time>
      </trkpt>
      <trkpt lat="45.28606" lon="5.62085">
        <ele>136.91</ele>
        <time>2017-02-25T12:54:35Z</time>
      </trkpt>
      <trkpt lat="45.2863" lon="5.62079">
        <ele>137.1</ele>
        <time>2017-02-25T12:54:36Z</time>
      </trkpt>
      <trkpt lat="45.28654" lon="5.62073">
        <ele>137.22</ele>
        <time>2017-02-25T12:54:37Z</time>
      </trkpt>
      <trkpt lat="45.28681" lon="5.62066">
        <ele>137.4</ele>
        <time>2017-02-25T12:54:38Z</time>
      </trkpt>
      <trkpt lat="45.28709" lon="5.62061">
        <ele>137.76</ele>
        <time>2017-02-25T12:54:39Z</time>
      </trkpt>
      <trkpt lat="45.28738" lon="5.62055">
        <ele>137.99</ele>
        <time>2017-02-25T12:54:40Z</time>
      </trkpt>
      <trkpt lat="45.28768" lon="5.62049">
        <ele>138.36</ele>
        <time>2017-02-25T12:54:41Z</time>
      </trkpt>
      <trkpt lat="45.28798" lon="5.62044">
        <ele>138.59</ele>
        <time>2017-02-25T12:54:42Z</time>
      </trkpt>
      <trkpt lat="45.28829" lon="5.62039">
        <ele>138.8</ele>
        <time>2017-02-25T12:54:43Z</time>
      </trkpt>
      <trkpt lat="45.2886" lon="5.62034">
        <ele>139</ele>
        <time>2017-02-25T12:54:44Z</time>
      </trkpt>
      <trkpt lat="45.28892" lon="5.6203">
        <ele>139.28</ele>
        <time>2017-02-25T12:54:45Z</time>
      </trkpt>
      <trkpt lat="45.28925" lon="5.62025">
        <ele>139.57</ele>
        <time>2017-02-25T12:54:46Z</time>
      </trkpt>
      <trkpt lat="45.28959" lon="5.62021">
        <ele>139.71</ele>
        <time>2017-02-25T12:54:47Z</time>
      </trkpt>
      <trkpt lat="45.28994" lon="5.62017">
        <ele>139.98</ele>
        <time>2017-02-25T12:54:48Z</time>
      </trkpt>
      <trkpt lat="45.29029" lon="5.62014">
        <ele>140.2</ele>
        <time>2017-02-25T12:54:49Z</time>
      </trkpt>
      <trkpt lat="45.29064" lon="5.62012">
        <ele>140.4</ele>
        <time>2017-02-25T12:54:50Z</time>
      </trkpt>
      <trkpt lat="45.291" lon="5.62011">
        <ele>140.44</ele>
        <time>2017-02-25T12:54:51Z</time>
      </trkpt>
      <trkpt lat="45.29135" lon="5.62011">
        <ele>140.53</ele>
        <time>2017-02-25T12:54:52Z</time>
      </trkpt>
      <trkpt lat="45.2917" lon="5.62012">
        <ele>140.54</ele>
        <time>2017-02-25T12:54:53Z</time>
      </trkpt>
      <trkpt lat="45.29205" lon="5.62013">
        <ele>140.71</ele>
        <time>2017-02-25T12:54:54Z</time>
      </trkpt>
      <trkpt lat="45.2924" lon="5.62015">
        <ele>140.74</ele>
        <time>2017-02-25T12:54:55Z</time>
      </trkpt>
      <trkpt lat="45.29275" lon="5.62018">
        <ele>140.67</ele>
        <time>2017-02-25T12:54:56Z</time>
      </trkpt>
      <trkpt lat="45.2931" lon="5.62021">
        <ele>140.57</ele>
        <time>2017-02-25T12:54:57Z</time>
      </trkpt>
      <trkpt lat="45.29344" lon="5.62025">
        <ele>140.47</ele>
        <time>2017-02-25T12:54:58Z</time>
      </trkpt>
      <trkpt lat="45.29379" lon="5.62029">
        <ele>140.29</ele>
        <time>2017-02-25T12:54:59Z</time>
      </trkpt>
      <trkpt lat="45.29413" lon="5.62034">
        <ele>140.34</ele>
        <time>2017-02-25T12:55:00Z</time>
      </trkpt>
      <trkpt lat="45.29447" lon="5.6204">
        <ele>140.35</ele>
        <time>2017-02-25T12:55:01Z</time>
      </trkpt>
      <trkpt lat="45.29481" lon="5.62047">
        <ele>140.35</ele>
        <time>2017-02-25T12:55:02Z</time>
      </trkpt>
      <trkpt lat="45.29515" lon="5.62055">
        <ele>140.35</ele>
        <time>2017-02-25T12:55:03Z</time>
      </trkpt>
      <trkpt lat="45.29549" lon="5.62063">
        <ele>140.27</ele>
        <time>2017-02-25T12:55:04Z</time>
      </trkpt>
      <trkpt lat="45.29582" lon="5.62071">
        <ele>140.33</ele>
        <time>2017-02-25T12:55:05Z</time>
      </trkpt>
      <trkpt lat="45.29615" lon="5.6208">
        <ele>140.43</ele>
        <time>2017-02-25T12:55:06Z</time>
      </trkpt>
      <trkpt lat="45.29648" lon="5.62089">
        <ele>140.52</ele>
        <time>2017-02-25T12:55:07Z</time>
      </trkpt>
      <trkpt lat="45.29681" lon="5.62098">
        <ele>140.7</ele>
        <time>2017-02-25T12:55:08Z</time>
      </trkpt>
      <trkpt lat="45.29714" lon="5.62107">
        <ele>140.74</ele>
        <time>2017-02-25T12:55:09Z</time>
      </trkpt>
      <trkpt lat="45.29746" lon="5.62116">
        <ele>140.67</ele>
        <time>2017-02-25T12:55:10Z</time>
      </trkpt>
      <trkpt lat="45.29779" lon="5.62126">
        <ele>140.73</ele>
        <time>2017-02-25T12:55:11Z</time>
      </trkpt>
      <trkpt lat="45.29811" lon="5.62134">
        <ele>140.75</ele>
        <time>2017-02-25T12:55:12Z</time>
      </trkpt>
      <trkpt lat="45.29843" lon="5.62142">
        <ele>140.91</ele>
        <time>2017-02-25T12:55:13Z</time>
      </trkpt>
      <trkpt lat="45.29875" lon="5.6215">
        <ele>141.18</ele>
        <time>2017-02-25T12:55:14Z</time>
      </trkpt>
      <trkpt lat="45.29908" lon="5.62156">
        <ele>141.64</ele>
        <time>2017-02-25T12:55:15Z</time>
      </trkpt>
      <trkpt lat="45.2994" lon="5.62162">
        <ele>141.97</ele>
        <time>2017-02-25T12:55:16Z</time>
      </trkpt>
      <trkpt lat="45.29973" lon="5.62168">
        <ele>142.11</ele>
        <time>2017-02-25T12:55:17Z</time>
      </trkpt>
      <trkpt lat="45.30005" lon="5.62171">
        <ele>142.46</ele>
        <time>2017-02-25T12:55:18Z</time>
      </trkpt>
      <trkpt lat="45.30038" lon="5.62173">
        <ele>142.93</ele>
        <time>2017-02-25T12:55:19Z</time>
      </trkpt>
      <trkpt lat="45.30071" lon="5.62174">
        <ele>143.27</ele>
        <time>2017-02-25T12:55:20Z</time>
      </trkpt>
      <trkpt lat="45.30105" lon="5.62174">
        <ele>143.49</ele>
        <time>2017-02-25T12:55:21Z</time>
      </trkpt>
      <trkpt lat="45.30138" lon="5.62173">
        <ele>143.7</ele>
        <time>2017-02-25T12:55:22Z</time>
      </trkpt>
      <trkpt lat="45.30172" lon="5.6217">
        <ele>143.9</ele>
        <time>2017-02-25T12:55:23Z</time>
      </trkpt>
      <trkpt lat="45.30205" lon="5.62166">
        <ele>144.1</ele>
        <time>2017-02-25T12:55:24Z</time>
      </trkpt>
      <trkpt lat="45.30238" lon="5.62161">
        <ele>144.3</ele>
        <time>2017-02-25T12:55:25Z</time>
      </trkpt>
      <trkpt lat="45.30271" lon="5.62156">
        <ele>144.42</ele>
        <time>2017-02-25T12:55:26Z</time>
      </trkpt>
      <trkpt lat="45.30304" lon="5.62149">
        <ele>144.36</ele>
        <time>2017-02-25T12:55:27Z</time>
      </trkpt>
      <trkpt lat="45.30338" lon="5.6214">
        <ele>143.95</ele>
        <time>2017-02-25T12:55:28Z</time>
      </trkpt>
      <trkpt lat="45.30371" lon="5.62131">
        <ele>143.79</ele>
        <time>2017-02-25T12:55:29Z</time>
      </trkpt>
      <trkpt lat="45.30404" lon="5.6212">
        <ele>143.52</ele>
        <time>2017-02-25T12:55:30Z</time>
      </trkpt>
      <trkpt lat="45.30437" lon="5.62108">
        <ele>143.38</ele>
        <time>2017-02-25T12:55:31Z</time>
      </trkpt>
      <trkpt lat="45.3047" lon="5.62094">
        <ele>142.96</ele>
        <time>2017-02-25T12:55:32Z</time>
      </trkpt>
      <trkpt lat="45.30503" lon="5.62079">
        <ele>142.07</ele>
        <time>2017-02-25T12:55:33Z</time>
      </trkpt>
      <trkpt lat="45.30535" lon="5.62063">
        <ele>141.81</ele>
        <time>2017-02-25T12:55:34Z</time>
      </trkpt>
      <trkpt lat="45.30568" lon="5.62047">
        <ele>141.28</ele>
        <time>2017-02-25T12:55:35Z</time>
      </trkpt>
      <trkpt lat="45.30601" lon="5.62029">
        <ele>140.86</ele>
        <time>2017-02-25T12:55:36Z</time>
      </trkpt>
      <trkpt lat="45.30633" lon="5.62011">
        <ele>140.37</ele>
        <time>2017-02-25T12:55:37Z</time>
      </trkpt>
      <trkpt lat="45.30664" lon="5.61993">
        <ele>139.87</ele>
        <time>2017-02-25T12:55:38Z</time>
      </trkpt>
      <trkpt lat="45.30696" lon="5.61973">
        <ele>139.53</ele>
        <time>2017-02-25T12:55:39Z</time>
      </trkpt>
      <trkpt lat="45.30727" lon="5.61954">
        <ele>139.23</ele>
        <time>2017-02-25T12:55:40Z</time>
      </trkpt>
      <trkpt lat="45.30757" lon="5.61935">
        <ele>139.08</ele>
        <time>2017-02-25T12:55:41Z</time>
      </trkpt>
      <trkpt lat="45.30788" lon="5.61914">
        <ele>138.98</ele>
        <time>2017-02-25T12:55:42Z</time>
      </trkpt>
      <trkpt lat="45.30818" lon="5.61893">
        <ele>138.95</ele>
        <time>2017-02-25T12:55:43Z</time>
      </trkpt>
      <trkpt lat="45.30848" lon="5.61871">
        <ele>138.95</ele>
        <time>2017-02-25T12:55:44Z</time>
      </trkpt>
      <trkpt lat="45.30878" lon="5.61849">
        <ele>138.87</ele>
        <time>2017-02-25T12:55:45Z</time>
      </trkpt>
      <trkpt lat="45.30909" lon="5.61828">
        <ele>138.69</ele>
        <time>2017-02-25T12:55:46Z</time>
      </trkpt>
      <trkpt lat="45.30938" lon="5.61806">
        <ele>138.74</ele>
        <time>2017-02-25T12:55:47Z</time>
      </trkpt>
      <trkpt lat="45.30968" lon="5.61785">
        <ele>138.67</ele>
        <time>2017-02-25T12:55:48Z</time>
      </trkpt>
      <trkpt lat="45.30998" lon="5.61764">
        <ele>138.65</ele>
        <time>2017-02-25T12:55:49Z</time>
      </trkpt>
      <trkpt lat="45.31029" lon="5.61741">
        <ele>138.73</ele>
        <time>2017-02-25T12:55:50Z</time>
      </trkpt>
      <trkpt lat="45.31058" lon="5.61718">
        <ele>138.59</ele>
        <time>2017-02-25T12:55:51Z</time>
      </trkpt>
      <trkpt lat="45.31088" lon="5.61695">
        <ele>138.48</ele>
        <time>2017-02-25T12:55:52Z</time>
      </trkpt>
      <trkpt lat="45.31117" lon="5.61671">
        <ele>138.45</ele>
        <time>2017-02-25T12:55:53Z</time>
      </trkpt>
      <trkpt lat="45.31146" lon="5.61647">
        <ele>138.45</ele>
        <time>2017-02-25T12:55:54Z</time>
      </trkpt>
      <trkpt lat="45.31175" lon="5.61624">
        <ele>138.53</ele>
        <time>2017-02-25T12:55:55Z</time>
      </trkpt>
      <trkpt lat="45.31204" lon="5.61599">
        <ele>138.79</ele>
        <time>2017-02-25T12:55:56Z</time>
      </trkpt>
      <trkpt lat="45.31232" lon="5.61575">
        <ele>139</ele>
        <time>2017-02-25T12:55:57Z</time>
      </trkpt>
      <trkpt lat="45.31261" lon="5.6155">
        <ele>139.28</ele>
        <time>2017-02-25T12:55:58Z</time>
      </trkpt>
      <trkpt lat="45.3129" lon="5.61525">
        <ele>139.49</ele>
        <time>2017-02-25T12:55:59Z</time>
      </trkpt>
      <trkpt lat="45.31318" lon="5.61501">
        <ele>139.86</ele>
        <time>2017-02-25T12:56:00Z</time>
      </trkpt>
      <trkpt lat="45.31347" lon="5.61475">
        <ele>140.01</ele>
        <time>2017-02-25T12:56:01Z</time>
      </trkpt>
      <trkpt lat="45.31375" lon="5.61449">
        <ele>140.04</ele>
        <time>2017-02-25T12:56:02Z</time>
      </trkpt>
      <trkpt lat="45.31404" lon="5.61423">
        <ele>140.13</ele>
        <time>2017-02-25T12:56:03Z</time>
      </trkpt>
      <trkpt lat="45.31432" lon="5.61397">
        <ele>140.06</ele>
        <time>2017-02-25T12:56:04Z</time>
      </trkpt>
      <trkpt lat="45.3146" lon="5.61371">
        <ele>140.21</ele>
        <time>2017-02-25T12:56:05Z</time>
      </trkpt>
      <trkpt lat="45.31488" lon="5.61344">
        <ele>140.16</ele>
        <time>2017-02-25T12:56:06Z</time>
      </trkpt>
      <trkpt lat="45.31516" lon="5.61317">
        <ele>140.31</ele>
        <time>2017-02-25T12:56:07Z</time>
      </trkpt>
      <trkpt lat="45.31544" lon="5.6129">
        <ele>140.34</ele>
        <time>2017-02-25T12:56:08Z</time>
      </trkpt>
      <trkpt lat="45.31572" lon="5.61262">
        <ele>140.51</ele>
        <time>2017-02-25T12:56:09Z</time>
      </trkpt>
      <trkpt lat="45.31599" lon="5.61234">
        <ele>140.78</ele>
        <time>2017-02-25T12:56:10Z</time>
      </trkpt>
      <trkpt lat="45.31626" lon="5.61206">
        <ele>141.08</ele>
        <time>2017-02-25T12:56:11Z</time>
      </trkpt>
      <trkpt lat="45.31652" lon="5.61177">
        <ele>141.53</ele>
        <time>2017-02-25T12:56:12Z</time>
      </trkpt>
      <trkpt lat="45.31679" lon="5.61149">
        <ele>141.95</ele>
        <time>2017-02-25T12:56:13Z</time>
      </trkpt>
      <trkpt lat="45.31705" lon="5.61121">
        <ele>142.11</ele>
        <time>2017-02-25T12:56:14Z</time>
      </trkpt>
      <trkpt lat="45.31731" lon="5.61092">
        <ele>142.06</ele>
        <time>2017-02-25T12:56:15Z</time>
      </trkpt>
      <trkpt lat="45.31758" lon="5.61064">
        <ele>142.05</ele>
        <time>2017-02-25T12:56:16Z</time>
      </trkpt>
      <trkpt lat="45.31784" lon="5.61036">
        <ele>142.05</ele>
        <time>2017-02-25T12:56:17Z</time>
      </trkpt>
      <trkpt lat="45.3181" lon="5.61007">
        <ele>141.97</ele>
        <time>2017-02-25T12:56:18Z</time>
      </trkpt>
      <trkpt lat="45.31835" lon="5.60977">
        <ele>141.87</ele>
        <time>2017-02-25T12:56:19Z</time>
      </trkpt>
      <trkpt lat="45.31861" lon="5.60948">
        <ele>141.85</ele>
        <time>2017-02-25T12:56:20Z</time>
      </trkpt>
      <trkpt lat="45.31887" lon="5.60918">
        <ele>141.85</ele>
        <time>2017-02-25T12:56:21Z</time>
      </trkpt>
      <trkpt lat="45.31912" lon="5.60889">
        <ele>141.77</ele>
        <time>2017-02-25T12:56:22Z</time>
      </trkpt>
      <trkpt lat="45.31937" lon="5.60859">
        <ele>141.75</ele>
        <time>2017-02-25T12:56:23Z</time>
      </trkpt>
      <trkpt lat="45.31963" lon="5.60828">
        <ele>141.59</ele>
        <time>2017-02-25T12:56:24Z</time>
      </trkpt>
      <trkpt lat="45.31987" lon="5.60798">
        <ele>141.56</ele>
        <time>2017-02-25T12:56:25Z</time>
      </trkpt>
      <trkpt lat="45.32012" lon="5.60767">
        <ele>141.47</ele>
        <time>2017-02-25T12:56:26Z</time>
      </trkpt>
      <trkpt lat="45.32036" lon="5.60736">
        <ele>141.29</ele>
        <time>2017-02-25T12:56:27Z</time>
      </trkpt>
      <trkpt lat="45.3206" lon="5.60704">
        <ele>140.94</ele>
        <time>2017-02-25T12:56:28Z</time>
      </trkpt>
      <trkpt lat="45.32084" lon="5.60673">
        <ele>140.87</ele>
        <time>2017-02-25T12:56:29Z</time>
      </trkpt>
      <trkpt lat="45.32108" lon="5.60641">
        <ele>140.77</ele>
        <time>2017-02-25T12:56:30Z</time>
      </trkpt>
      <trkpt lat="45.32131" lon="5.60609">
        <ele>140.99</ele>
        <time>2017-02-25T12:56:31Z</time>
      </trkpt>
      <trkpt lat="45.32154" lon="5.60577">
        <ele>140.88</ele>
        <time>2017-02-25T12:56:32Z</time>
      </trkpt>
      <trkpt lat="45.32177" lon="5.60544">
        <ele>140.77</ele>
        <time>2017-02-25T12:56:33Z</time>
      </trkpt>
      <trkpt lat="45.322" lon="5.60512">
        <ele>140.67</ele>
        <time>2017-02-25T12:56:34Z</time>
      </trkpt>
      <trkpt lat="45.32223" lon="5.6048">
        <ele>140.73</ele>
        <time>2017-02-25T12:56:35Z</time>
      </trkpt>
      <trkpt lat="45.32246" lon="5.60447">
        <ele>140.75</ele>
        <time>2017-02-25T12:56:36Z</time>
      </trkpt>
      <trkpt lat="45.32268" lon="5.60415">
        <ele>140.59</ele>
        <time>2017-02-25T12:56:37Z</time>
      </trkpt>
      <trkpt lat="45.32291" lon="5.60381">
        <ele>140.32</ele>
        <time>2017-02-25T12:56:38Z</time>
      </trkpt>
      <trkpt lat="45.32313" lon="5.60347">
        <ele>140.18</ele>
        <time>2017-02-25T12:56:39Z</time>
      </trkpt>
      <trkpt lat="45.32335" lon="5.60313">
        <ele>139.92</ele>
        <time>2017-02-25T12:56:40Z</time>
      </trkpt>
      <trkpt lat="45.32357" lon="5.60279">
        <ele>139.22</ele>
        <time>2017-02-25T12:56:41Z</time>
      </trkpt>
      <trkpt lat="45.32379" lon="5.60244">
        <ele>138.76</ele>
        <time>2017-02-25T12:56:42Z</time>
      </trkpt>
      <trkpt lat="45.324" lon="5.60209">
        <ele>139.15</ele>
        <time>2017-02-25T12:56:43Z</time>
      </trkpt>
      <trkpt lat="45.32422" lon="5.60173">
        <ele>139.87</ele>
        <time>2017-02-25T12:56:44Z</time>
      </trkpt>
      <trkpt lat="45.32444" lon="5.60136">
        <ele>140.25</ele>
        <time>2017-02-25T12:56:45Z</time>
      </trkpt>
      <trkpt lat="45.32466" lon="5.60098">
        <ele>140.41</ele>
        <time>2017-02-25T12:56:46Z</time>
      </trkpt>
      <trkpt lat="45.32489" lon="5.60058">
        <ele>140.12</ele>
        <time>2017-02-25T12:56:47Z</time>
      </trkpt>
      <trkpt lat="45.32511" lon="5.60017">
        <ele>139.74</ele>
        <time>2017-02-25T12:56:48Z</time>
      </trkpt>
      <trkpt lat="45.32533" lon="5.59978">
        <ele>139.59</ele>
        <time>2017-02-25T12:56:49Z</time>
      </trkpt>
      <trkpt lat="45.32554" lon="5.59939">
        <ele>139.32</ele>
        <time>2017-02-25T12:56:50Z</time>
      </trkpt>
      <trkpt lat="45.32575" lon="5.59901">
        <ele>139.18</ele>
        <time>2017-02-25T12:56:51Z</time>
      </trkpt>
      <trkpt lat="45.32595" lon="5.59864">
        <ele>139.32</ele>
        <time>2017-02-25T12:56:52Z</time>
      </trkpt>
      <trkpt lat="45.32616" lon="5.59828">
        <ele>139.58</ele>
        <time>2017-02-25T12:56:53Z</time>
      </trkpt>
      <trkpt lat="45.32636" lon="5.59791">
        <ele>139.64</ele>
        <time>2017-02-25T12:56:54Z</time>
      </trkpt>
      <trkpt lat="45.32656" lon="5.59755">
        <ele>139.81</ele>
        <time>2017-02-25T12:56:55Z</time>
      </trkpt>
      <trkpt lat="45.32677" lon="5.59719">
        <ele>139.92</ele>
        <time>2017-02-25T12:56:56Z</time>
      </trkpt>
      <trkpt lat="45.32698" lon="5.59682">
        <ele>139.86</ele>
        <time>2017-02-25T12:56:57Z</time>
      </trkpt>
      <trkpt lat="45.32719" lon="5.59646">
        <ele>139.85</ele>
        <time>2017-02-25T12:56:58Z</time>
      </trkpt>
      <trkpt lat="45.3274" lon="5.5961">
        <ele>140.01</ele>
        <time>2017-02-25T12:56:59Z</time>
      </trkpt>
      <trkpt lat="45.32761" lon="5.59573">
        <ele>140.2</ele>
        <time>2017-02-25T12:57:00Z</time>
      </trkpt>
      <trkpt lat="45.32783" lon="5.59536">
        <ele>140.48</ele>
        <time>2017-02-25T12:57:01Z</time>
      </trkpt>
      <trkpt lat="45.32805" lon="5.59499">
        <ele>140.46</ele>
        <time>2017-02-25T12:57:02Z</time>
      </trkpt>
      <trkpt lat="45.32828" lon="5.59462">
        <ele>140.93</ele>
        <time>2017-02-25T12:57:03Z</time>
      </trkpt>
      <trkpt lat="45.3285" lon="5.59426">
        <ele>141.19</ele>
        <time>2017-02-25T12:57:04Z</time>
      </trkpt>
      <trkpt lat="45.32873" lon="5.5939">
        <ele>141.24</ele>
        <time>2017-02-25T12:57:05Z</time>
      </trkpt>
      <trkpt lat="45.32897" lon="5.59353">
        <ele>141.09</ele>
        <time>2017-02-25T12:57:06Z</time>
      </trkpt>
      <trkpt lat="45.3292" lon="5.59318">
        <ele>140.98</ele>
        <time>2017-02-25T12:57:07Z</time>
      </trkpt>
      <trkpt lat="45.32943" lon="5.59282">
        <ele>141.27</ele>
        <time>2017-02-25T12:57:08Z</time>
      </trkpt>
      <trkpt lat="45.32967" lon="5.59247">
        <ele>141.49</ele>
        <time>2017-02-25T12:57:09Z</time>
      </trkpt>
      <trkpt lat="45.32991" lon="5.59212">
        <ele>141.78</ele>
        <time>2017-02-25T12:57:10Z</time>
      </trkpt>
      <trkpt lat="45.33015" lon="5.59177">
        <ele>141.99</ele>
        <time>2017-02-25T12:57:11Z</time>
      </trkpt>
      <trkpt lat="45.33038" lon="5.59142">
        <ele>142.36</ele>
        <time>2017-02-25T12:57:12Z</time>
      </trkpt>
      <trkpt lat="45.33062" lon="5.59108">
        <ele>142.43</ele>
        <time>2017-02-25T12:57:13Z</time>
      </trkpt>
      <trkpt lat="45.33086" lon="5.59075">
        <ele>142.69</ele>
        <time>2017-02-25T12:57:14Z</time>
      </trkpt>
      <trkpt lat="45.33109" lon="5.59041">
        <ele>142.66</ele>
        <time>2017-02-25T12:57:15Z</time>
      </trkpt>
      <trkpt lat="45.33132" lon="5.59008">
        <ele>142.73</ele>
        <time>2017-02-25T12:57:16Z</time>
      </trkpt>
      <trkpt lat="45.33155" lon="5.58975">
        <ele>142.75</ele>
        <time>2017-02-25T12:57:17Z</time>
      </trkpt>
      <trkpt lat="45.33178" lon="5.58941">
        <ele>142.67</ele>
        <time>2017-02-25T12:57:18Z</time>
      </trkpt>
      <trkpt lat="45.33201" lon="5.58907">
        <ele>143.13</ele>
        <time>2017-02-25T12:57:19Z</time>
      </trkpt>
      <trkpt lat="45.33225" lon="5.58873">
        <ele>143.71</ele>
        <time>2017-02-25T12:57:20Z</time>
      </trkpt>
      <trkpt lat="45.33248" lon="5.58839">
        <ele>143.82</ele>
        <time>2017-02-25T12:57:21Z</time>
      </trkpt>
      <trkpt lat="45.3327" lon="5.58805">
        <ele>143.36</ele>
        <time>2017-02-25T12:57:22Z</time>
      </trkpt>
      <trkpt lat="45.33293" lon="5.58771">
        <ele>143.35</ele>
        <time>2017-02-25T12:57:23Z</time>
      </trkpt>
      <trkpt lat="45.33315" lon="5.58736">
        <ele>143.35</ele>
        <time>2017-02-25T12:57:24Z</time>
      </trkpt>
      <trkpt lat="45.33337" lon="5.58701">
        <ele>143.59</ele>
        <time>2017-02-25T12:57:25Z</time>
      </trkpt>
      <trkpt lat="45.3336" lon="5.58666">
        <ele>144.12</ele>
        <time>2017-02-25T12:57:26Z</time>
      </trkpt>
      <trkpt lat="45.33381" lon="5.5863">
        <ele>144.78</ele>
        <time>2017-02-25T12:57:27Z</time>
      </trkpt>
      <trkpt lat="45.33402" lon="5.58594">
        <ele>145.16</ele>
        <time>2017-02-25T12:57:28Z</time>
      </trkpt>
      <trkpt lat="45.33422" lon="5.58558">
        <ele>145.63</ele>
        <time>2017-02-25T12:57:29Z</time>
      </trkpt>
      <trkpt lat="45.33442" lon="5.58521">
        <ele>146.13</ele>
        <time>2017-02-25T12:57:30Z</time>
      </trkpt>
      <trkpt lat="45.33462" lon="5.58484">
        <ele>146.94</ele>
        <time>2017-02-25T12:57:31Z</time>
      </trkpt>
      <trkpt lat="45.33481" lon="5.58447">
        <ele>147.35</ele>
        <time>2017-02-25T12:57:32Z</time>
      </trkpt>
      <trkpt lat="45.335" lon="5.5841">
        <ele>147.91</ele>
        <time>2017-02-25T12:57:33Z</time>
      </trkpt>
      <trkpt lat="45.33518" lon="5.58372">
        <ele>147.78</ele>
        <time>2017-02-25T12:57:34Z</time>
      </trkpt>
      <trkpt lat="45.33536" lon="5.58335">
        <ele>147.76</ele>
        <time>2017-02-25T12:57:35Z</time>
      </trkpt>
      <trkpt lat="45.33554" lon="5.58297">
        <ele>148.39</ele>
        <time>2017-02-25T12:57:36Z</time>
      </trkpt>
      <trkpt lat="45.33571" lon="5.58259">
        <ele>149.64</ele>
        <time>2017-02-25T12:57:37Z</time>
      </trkpt>
      <trkpt lat="45.33588" lon="5.5822">
        <ele>150.29</ele>
        <time>2017-02-25T12:57:38Z</time>
      </trkpt>
      <trkpt lat="45.33606" lon="5.58181">
        <ele>151.3</ele>
        <time>2017-02-25T12:57:39Z</time>
      </trkpt>
      <trkpt lat="45.33623" lon="5.58142">
        <ele>152.06</ele>
        <time>2017-02-25T12:57:40Z</time>
      </trkpt>
      <trkpt lat="45.3364" lon="5.58103">
        <ele>152.77</ele>
        <time>2017-02-25T12:57:41Z</time>
      </trkpt>
      <trkpt lat="45.33657" lon="5.58064">
        <ele>153.63</ele>
        <time>2017-02-25T12:57:42Z</time>
      </trkpt>
      <trkpt lat="45.33674" lon="5.58025">
        <ele>155.17</ele>
        <time>2017-02-25T12:57:43Z</time>
      </trkpt>
      <trkpt lat="45.33691" lon="5.57986">
        <ele>156.83</ele>
        <time>2017-02-25T12:57:44Z</time>
      </trkpt>
      <trkpt lat="45.33709" lon="5.57947">
        <ele>158.45</ele>
        <time>2017-02-25T12:57:45Z</time>
      </trkpt>
      <trkpt lat="45.33728" lon="5.57909">
        <ele>160.21</ele>
        <time>2017-02-25T12:57:46Z</time>
      </trkpt>
      <trkpt lat="45.33747" lon="5.57872">
        <ele>161.76</ele>
        <time>2017-02-25T12:57:47Z</time>
      </trkpt>
      <trkpt lat="45.33767" lon="5.57836">
        <ele>163.51</ele>
        <time>2017-02-25T12:57:48Z</time>
      </trkpt>
      <trkpt lat="45.33788" lon="5.57802">
        <ele>165.3</ele>
        <time>2017-02-25T12:57:49Z</time>
      </trkpt>
      <trkpt lat="45.3381" lon="5.57769">
        <ele>167.18</ele>
        <time>2017-02-25T12:57:50Z</time>
      </trkpt>
      <trkpt lat="45.33833" lon="5.57736">
        <ele>169.08</ele>
        <time>2017-02-25T12:57:51Z</time>
      </trkpt>
      <trkpt lat="45.33857" lon="5.57704">
        <ele>170.81</ele>
        <time>2017-02-25T12:57:52Z</time>
      </trkpt>
      <trkpt lat="45.33882" lon="5.57672">
        <ele>172.6</ele>
        <time>2017-02-25T12:57:53Z</time>
      </trkpt>
      <trkpt lat="45.33908" lon="5.5764">
        <ele>174.32</ele>
        <time>2017-02-25T12:57:54Z</time>
      </trkpt>
      <trkpt lat="45.33935" lon="5.57608">
        <ele>176.18</ele>
        <time>2017-02-25T12:57:55Z</time>
      </trkpt>
      <trkpt lat="45.33961" lon="5.57575">
        <ele>178.08</ele>
        <time>2017-02-25T12:57:56Z</time>
      </trkpt>
      <trkpt lat="45.33987" lon="5.57543">
        <ele>179.97</ele>
        <time>2017-02-25T12:57:57Z</time>
      </trkpt>
      <trkpt lat="45.34012" lon="5.57511">
        <ele>182.03</ele>
        <time>2017-02-25T12:57:58Z</time>
      </trkpt>
      <trkpt lat="45.34037" lon="5.57478">
        <ele>184.13</ele>
        <time>2017-02-25T12:57:59Z</time>
      </trkpt>
      <trkpt lat="45.3406" lon="5.57445">
        <ele>186.06</ele>
        <time>2017-02-25T12:58:00Z</time>
      </trkpt>
      <trkpt lat="45.34082" lon="5.57411">
        <ele>187.89</ele>
        <time>2017-02-25T12:58:01Z</time>
      </trkpt>
      <trkpt lat="45.34103" lon="5.57376">
        <ele>189.7</ele>
        <time>2017-02-25T12:58:02Z</time>
      </trkpt>
      <trkpt lat="45.34123" lon="5.57339">
        <ele>191.58</ele>
        <time>2017-02-25T12:58:03Z</time>
      </trkpt>
      <trkpt lat="45.34142" lon="5.57302">
        <ele>193.47</ele>
        <time>2017-02-25T12:58:04Z</time>
      </trkpt>
      <trkpt lat="45.3416" lon="5.57264">
        <ele>195.29</ele>
        <time>2017-02-25T12:58:05Z</time>
      </trkpt>
      <trkpt lat="45.34177" lon="5.57226">
        <ele>197.02</ele>
        <time>2017-02-25T12:58:06Z</time>
      </trkpt>
      <trkpt lat="45.34195" lon="5.57187">
        <ele>198.96</ele>
        <time>2017-02-25T12:58:07Z</time>
      </trkpt>
      <trkpt lat="45.34212" lon="5.57149">
        <ele>200.71</ele>
        <time>2017-02-25T12:58:08Z</time>
      </trkpt>
      <trkpt lat="45.34229" lon="5.5711">
        <ele>202.5</ele>
        <time>2017-02-25T12:58:09Z</time>
      </trkpt>
      <trkpt lat="45.34245" lon="5.57071">
        <ele>204.22</ele>
        <time>2017-02-25T12:58:10Z</time>
      </trkpt>
      <trkpt lat="45.34262" lon="5.57033">
        <ele>206.08</ele>
        <time>2017-02-25T12:58:11Z</time>
      </trkpt>
      <trkpt lat="45.34278" lon="5.56996">
        <ele>207.82</ele>
        <time>2017-02-25T12:58:12Z</time>
      </trkpt>
      <trkpt lat="45.34295" lon="5.56958">
        <ele>209.6</ele>
        <time>2017-02-25T12:58:13Z</time>
      </trkpt>
      <trkpt lat="45.34312" lon="5.5692">
        <ele>211.4</ele>
        <time>2017-02-25T12:58:14Z</time>
      </trkpt>
      <trkpt lat="45.34328" lon="5.56883">
        <ele>213.28</ele>
        <time>2017-02-25T12:58:15Z</time>
      </trkpt>
      <trkpt lat="45.34345" lon="5.56846">
        <ele>215.18</ele>
        <time>2017-02-25T12:58:16Z</time>
      </trkpt>
      <trkpt lat="45.34361" lon="5.56808">
        <ele>216.75</ele>
        <time>2017-02-25T12:58:17Z</time>
      </trkpt>
      <trkpt lat="45.34378" lon="5.56771">
        <ele>218.35</ele>
        <time>2017-02-25T12:58:18Z</time>
      </trkpt>
      <trkpt lat="45.34394" lon="5.56734">
        <ele>219.87</ele>
        <time>2017-02-25T12:58:19Z</time>
      </trkpt>
      <trkpt lat="45.3441" lon="5.56697">
        <ele>221.61</ele>
        <time>2017-02-25T12:58:20Z</time>
      </trkpt>
      <trkpt lat="45.34427" lon="5.56661">
        <ele>223.24</ele>
        <time>2017-02-25T12:58:21Z</time>
      </trkpt>
      <trkpt lat="45.34443" lon="5.56624">
        <ele>225.17</ele>
        <time>2017-02-25T12:58:22Z</time>
      </trkpt>
      <trkpt lat="45.34458" lon="5.56586">
        <ele>226.67</ele>
        <time>2017-02-25T12:58:23Z</time>
      </trkpt>
      <trkpt lat="45.34472" lon="5.56547">
        <ele>228.33</ele>
        <time>2017-02-25T12:58:24Z</time>
      </trkpt>
      <trkpt lat="45.34487" lon="5.56507">
        <ele>229.23</ele>
        <time>2017-02-25T12:58:25Z</time>
      </trkpt>
      <trkpt lat="45.345" lon="5.56464">
        <ele>230.36</ele>
        <time>2017-02-25T12:58:26Z</time>
      </trkpt>
      <trkpt lat="45.34513" lon="5.5642">
        <ele>231.95</ele>
        <time>2017-02-25T12:58:27Z</time>
      </trkpt>
      <trkpt lat="45.34525" lon="5.56375">
        <ele>233.71</ele>
        <time>2017-02-25T12:58:28Z</time>
      </trkpt>
      <trkpt lat="45.34537" lon="5.56329">
        <ele>235.5</ele>
        <time>2017-02-25T12:58:29Z</time>
      </trkpt>
      <trkpt lat="45.34548" lon="5.56283">
        <ele>237.54</ele>
        <time>2017-02-25T12:58:30Z</time>
      </trkpt>
      <trkpt lat="45.34557" lon="5.56236">
        <ele>239.79</ele>
        <time>2017-02-25T12:58:31Z</time>
      </trkpt>
      <trkpt lat="45.34565" lon="5.5619">
        <ele>242.24</ele>
        <time>2017-02-25T12:58:32Z</time>
      </trkpt>
      <trkpt lat="45.34572" lon="5.56143">
        <ele>244.41</ele>
        <time>2017-02-25T12:58:33Z</time>
      </trkpt>
      <trkpt lat="45.34579" lon="5.56095">
        <ele>246.6</ele>
        <time>2017-02-25T12:58:34Z</time>
      </trkpt>
      <trkpt lat="45.34585" lon="5.56046">
        <ele>248.96</ele>
        <time>2017-02-25T12:58:35Z</time>
      </trkpt>
      <trkpt lat="45.3459" lon="5.55998">
        <ele>251.35</ele>
        <time>2017-02-25T12:58:36Z</time>
      </trkpt>
      <trkpt lat="45.34596" lon="5.55949">
        <ele>253.75</ele>
        <time>2017-02-25T12:58:37Z</time>
      </trkpt>
      <trkpt lat="45.34602" lon="5.55901">
        <ele>255.91</ele>
        <time>2017-02-25T12:58:38Z</time>
      </trkpt>
      <trkpt lat="45.34608" lon="5.55853">
        <ele>257.7</ele>
        <time>2017-02-25T12:58:39Z</time>
      </trkpt>
      <trkpt lat="45.34613" lon="5.55805">
        <ele>259.42</ele>
        <time>2017-02-25T12:58:40Z</time>
      </trkpt>
      <trkpt lat="45.34619" lon="5.55758">
        <ele>261.2</ele>
        <time>2017-02-25T12:58:41Z</time>
      </trkpt>
      <trkpt lat="45.34625" lon="5.55711">
        <ele>263.08</ele>
        <time>2017-02-25T12:58:42Z</time>
      </trkpt>
      <trkpt lat="45.34632" lon="5.55664">
        <ele>264.9</ele>
        <time>2017-02-25T12:58:43Z</time>
      </trkpt>
      <trkpt lat="45.34638" lon="5.55617">
        <ele>266.78</ele>
        <time>2017-02-25T12:58:44Z</time>
      </trkpt>
      <trkpt lat="45.34645" lon="5.55571">
        <ele>268.67</ele>
        <time>2017-02-25T12:58:45Z</time>
      </trkpt>
      <trkpt lat="45.34653" lon="5.55525">
        <ele>270.81</ele>
        <time>2017-02-25T12:58:46Z</time>
      </trkpt>
      <trkpt lat="45.3466" lon="5.55478">
        <ele>272.84</ele>
        <time>2017-02-25T12:58:47Z</time>
      </trkpt>
      <trkpt lat="45.34669" lon="5.55432">
        <ele>274.93</ele>
        <time>2017-02-25T12:58:48Z</time>
      </trkpt>
      <trkpt lat="45.34678" lon="5.55386">
        <ele>276.86</ele>
        <time>2017-02-25T12:58:49Z</time>
      </trkpt>
      <trkpt lat="45.34687" lon="5.5534">
        <ele>278.69</ele>
        <time>2017-02-25T12:58:50Z</time>
      </trkpt>
      <trkpt lat="45.34696" lon="5.55295">
        <ele>280.9</ele>
        <time>2017-02-25T12:58:51Z</time>
      </trkpt>
      <trkpt lat="45.34706" lon="5.55249">
        <ele>283.1</ele>
        <time>2017-02-25T12:58:52Z</time>
      </trkpt>
      <trkpt lat="45.34716" lon="5.55203">
        <ele>285.3</ele>
        <time>2017-02-25T12:58:53Z</time>
      </trkpt>
      <trkpt lat="45.34727" lon="5.55158">
        <ele>287.5</ele>
        <time>2017-02-25T12:58:54Z</time>
      </trkpt>
      <trkpt lat="45.34737" lon="5.55113">
        <ele>289.46</ele>
        <time>2017-02-25T12:58:55Z</time>
      </trkpt>
      <trkpt lat="45.34749" lon="5.55068">
        <ele>291.21</ele>
        <time>2017-02-25T12:58:56Z</time>
      </trkpt>
      <trkpt lat="45.3476" lon="5.55024">
        <ele>292.76</ele>
        <time>2017-02-25T12:58:57Z</time>
      </trkpt>
      <trkpt lat="45.34772" lon="5.5498">
        <ele>294.35</ele>
        <time>2017-02-25T12:58:58Z</time>
      </trkpt>
      <trkpt lat="45.34785" lon="5.54936">
        <ele>295.55</ele>
        <time>2017-02-25T12:58:59Z</time>
      </trkpt>
      <trkpt lat="45.34798" lon="5.54892">
        <ele>296.67</ele>
        <time>2017-02-25T12:59:00Z</time>
      </trkpt>
      <trkpt lat="45.34811" lon="5.54848">
        <ele>298.01</ele>
        <time>2017-02-25T12:59:01Z</time>
      </trkpt>
      <trkpt lat="45.34824" lon="5.54805">
        <ele>299.4</ele>
        <time>2017-02-25T12:59:02Z</time>
      </trkpt>
      <trkpt lat="45.34839" lon="5.54762">
        <ele>300.64</ele>
        <time>2017-02-25T12:59:03Z</time>
      </trkpt>
      <trkpt lat="45.34853" lon="5.54719">
        <ele>302.01</ele>
        <time>2017-02-25T12:59:04Z</time>
      </trkpt>
      <trkpt lat="45.34868" lon="5.54677">
        <ele>303.4</ele>
        <time>2017-02-25T12:59:05Z</time>
      </trkpt>
      <trkpt lat="45.34883" lon="5.54634">
        <ele>304.4</ele>
        <time>2017-02-25T12:59:06Z</time>
      </trkpt>
      <trkpt lat="45.34899" lon="5.54592">
        <ele>305.16</ele>
        <time>2017-02-25T12:59:07Z</time>
      </trkpt>
      <trkpt lat="45.34915" lon="5.5455">
        <ele>305.95</ele>
        <time>2017-02-25T12:59:08Z</time>
      </trkpt>
      <trkpt lat="45.34932" lon="5.54508">
        <ele>307.07</ele>
        <time>2017-02-25T12:59:09Z</time>
      </trkpt>
      <trkpt lat="45.34949" lon="5.54467">
        <ele>308.09</ele>
        <time>2017-02-25T12:59:10Z</time>
      </trkpt>
      <trkpt lat="45.34966" lon="5.54425">
        <ele>309.02</ele>
        <time>2017-02-25T12:59:11Z</time>
      </trkpt>
      <trkpt lat="45.34984" lon="5.54383">
        <ele>309.36</ele>
        <time>2017-02-25T12:59:12Z</time>
      </trkpt>
      <trkpt lat="45.35003" lon="5.54342">
        <ele>309.59</ele>
        <time>2017-02-25T12:59:13Z</time>
      </trkpt>
      <trkpt lat="45.35022" lon="5.54301">
        <ele>310.04</ele>
        <time>2017-02-25T12:59:14Z</time>
      </trkpt>
      <trkpt lat="45.35041" lon="5.5426">
        <ele>310.53</ele>
        <time>2017-02-25T12:59:15Z</time>
      </trkpt>
      <trkpt lat="45.3506" lon="5.5422">
        <ele>311.1</ele>
        <time>2017-02-25T12:59:16Z</time>
      </trkpt>
      <trkpt lat="45.3508" lon="5.5418">
        <ele>312.02</ele>
        <time>2017-02-25T12:59:17Z</time>
      </trkpt>
      <trkpt lat="45.351" lon="5.5414">
        <ele>313</ele>
        <time>2017-02-25T12:59:18Z</time>
      </trkpt>
      <trkpt lat="45.3512" lon="5.54101">
        <ele>314</ele>
        <time>2017-02-25T12:59:19Z</time>
      </trkpt>
      <trkpt lat="45.3514" lon="5.54062">
        <ele>315</ele>
        <time>2017-02-25T12:59:20Z</time>
      </trkpt>
      <trkpt lat="45.3516" lon="5.54022">
        <ele>316</ele>
        <time>2017-02-25T12:59:21Z</time>
      </trkpt>
      <trkpt lat="45.3518" lon="5.53982">
        <ele>316.76</ele>
        <time>2017-02-25T12:59:22Z</time>
      </trkpt>
      <trkpt lat="45.352" lon="5.53942">
        <ele>317.71</ele>
        <time>2017-02-25T12:59:23Z</time>
      </trkpt>
      <trkpt lat="45.3522" lon="5.53902">
        <ele>318.78</ele>
        <time>2017-02-25T12:59:24Z</time>
      </trkpt>
      <trkpt lat="45.3524" lon="5.53862">
        <ele>320.04</ele>
        <time>2017-02-25T12:59:25Z</time>
      </trkpt>
      <trkpt lat="45.3526" lon="5.53822">
        <ele>321.41</ele>
        <time>2017-02-25T12:59:26Z</time>
      </trkpt>
      <trkpt lat="45.35279" lon="5.53783">
        <ele>322.72</ele>
        <time>2017-02-25T12:59:27Z</time>
      </trkpt>
      <trkpt lat="45.35298" lon="5.53742">
        <ele>323.78</ele>
        <time>2017-02-25T12:59:28Z</time>
      </trkpt>
      <trkpt lat="45.35315" lon="5.537">
        <ele>324.96</ele>
        <time>2017-02-25T12:59:29Z</time>
      </trkpt>
      <trkpt lat="45.3533" lon="5.53657">
        <ele>326.15</ele>
        <time>2017-02-25T12:59:30Z</time>
      </trkpt>
      <trkpt lat="45.35344" lon="5.53614">
        <ele>327.27</ele>
        <time>2017-02-25T12:59:31Z</time>
      </trkpt>
      <trkpt lat="45.35357" lon="5.5357">
        <ele>328.21</ele>
        <time>2017-02-25T12:59:32Z</time>
      </trkpt>
      <trkpt lat="45.35368" lon="5.53525">
        <ele>328.88</ele>
        <time>2017-02-25T12:59:33Z</time>
      </trkpt>
      <trkpt lat="45.35378" lon="5.5348">
        <ele>328.62</ele>
        <time>2017-02-25T12:59:34Z</time>
      </trkpt>
      <trkpt lat="45.35388" lon="5.53435">
        <ele>328.64</ele>
        <time>2017-02-25T12:59:35Z</time>
      </trkpt>
      <trkpt lat="45.35396" lon="5.53389">
        <ele>328.89</ele>
        <time>2017-02-25T12:59:36Z</time>
      </trkpt>
      <trkpt lat="45.35402" lon="5.53343">
        <ele>328.7</ele>
        <time>2017-02-25T12:59:37Z</time>
      </trkpt>
      <trkpt lat="45.35409" lon="5.53297">
        <ele>328.42</ele>
        <time>2017-02-25T12:59:38Z</time>
      </trkpt>
      <trkpt lat="45.35415" lon="5.5325">
        <ele>327.48</ele>
        <time>2017-02-25T12:59:39Z</time>
      </trkpt>
      <trkpt lat="45.3542" lon="5.53203">
        <ele>326.66</ele>
        <time>2017-02-25T12:59:40Z</time>
      </trkpt>
      <trkpt lat="45.35425" lon="5.53156">
        <ele>326.01</ele>
        <time>2017-02-25T12:59:41Z</time>
      </trkpt>
      <trkpt lat="45.3543" lon="5.53109">
        <ele>325.4</ele>
        <time>2017-02-25T12:59:42Z</time>
      </trkpt>
      <trkpt lat="45.35435" lon="5.53062">
        <ele>324.48</ele>
        <time>2017-02-25T12:59:43Z</time>
      </trkpt>
      <trkpt lat="45.35441" lon="5.53016">
        <ele>322.86</ele>
        <time>2017-02-25T12:59:44Z</time>
      </trkpt>
      <trkpt lat="45.35446" lon="5.5297">
        <ele>321.73</ele>
        <time>2017-02-25T12:59:45Z</time>
      </trkpt>
      <trkpt lat="45.35452" lon="5.52923">
        <ele>320.23</ele>
        <time>2017-02-25T12:59:46Z</time>
      </trkpt>
      <trkpt lat="45.35458" lon="5.52877">
        <ele>318.88</ele>
        <time>2017-02-25T12:59:47Z</time>
      </trkpt>
      <trkpt lat="45.35465" lon="5.5283">
        <ele>317.66</ele>
        <time>2017-02-25T12:59:48Z</time>
      </trkpt>
      <trkpt lat="45.35473" lon="5.52784">
        <ele>316.53</ele>
        <time>2017-02-25T12:59:49Z</time>
      </trkpt>
      <trkpt lat="45.35481" lon="5.52738">
        <ele>315.19</ele>
        <time>2017-02-25T12:59:50Z</time>
      </trkpt>
      <trkpt lat="45.35491" lon="5.52691">
        <ele>314.04</ele>
        <time>2017-02-25T12:59:51Z</time>
      </trkpt>
      <trkpt lat="45.35501" lon="5.52646">
        <ele>312.85</ele>
        <time>2017-02-25T12:59:52Z</time>
      </trkpt>
      <trkpt lat="45.35511" lon="5.526">
        <ele>311.97</ele>
        <time>2017-02-25T12:59:53Z</time>
      </trkpt>
      <trkpt lat="45.35522" lon="5.52555">
        <ele>310.91</ele>
        <time>2017-02-25T12:59:54Z</time>
      </trkpt>
      <trkpt lat="45.35533" lon="5.52511">
        <ele>309.58</ele>
        <time>2017-02-25T12:59:55Z</time>
      </trkpt>
      <trkpt lat="45.35545" lon="5.52467">
        <ele>308.44</ele>
        <time>2017-02-25T12:59:56Z</time>
      </trkpt>
      <trkpt lat="45.35558" lon="5.52424">
        <ele>307.33</ele>
        <time>2017-02-25T12:59:57Z</time>
      </trkpt>
      <trkpt lat="45.35572" lon="5.52381">
        <ele>306.38</ele>
        <time>2017-02-25T12:59:58Z</time>
      </trkpt>
      <trkpt lat="45.35586" lon="5.52339">
        <ele>305.32</ele>
        <time>2017-02-25T12:59:59Z</time>
      </trkpt>
      <trkpt lat="45.35601" lon="5.52298">
        <ele>304.06</ele>
        <time>2017-02-25T13:00:00Z</time>
      </trkpt>
      <trkpt lat="45.35617" lon="5.52257">
        <ele>302.85</ele>
        <time>2017-02-25T13:00:01Z</time>
      </trkpt>
      <trkpt lat="45.35633" lon="5.52218">
        <ele>301.41</ele>
        <time>2017-02-25T13:00:02Z</time>
      </trkpt>
      <trkpt lat="45.35651" lon="5.52179">
        <ele>299.92</ele>
        <time>2017-02-25T13:00:03Z</time>
      </trkpt>
      <trkpt lat="45.35669" lon="5.52141">
        <ele>298.58</ele>
        <time>2017-02-25T13:00:04Z</time>
      </trkpt>
      <trkpt lat="45.35688" lon="5.52103">
        <ele>296.8</ele>
        <time>2017-02-25T13:00:05Z</time>
      </trkpt>
      <trkpt lat="45.35708" lon="5.52065">
        <ele>295.48</ele>
        <time>2017-02-25T13:00:06Z</time>
      </trkpt>
      <trkpt lat="45.35729" lon="5.52027">
        <ele>294.41</ele>
        <time>2017-02-25T13:00:07Z</time>
      </trkpt>
      <trkpt lat="45.3575" lon="5.51991">
        <ele>293.88</ele>
        <time>2017-02-25T13:00:08Z</time>
      </trkpt>
      <trkpt lat="45.35771" lon="5.51955">
        <ele>293.46</ele>
        <time>2017-02-25T13:00:09Z</time>
      </trkpt>
      <trkpt lat="45.35793" lon="5.51921">
        <ele>293.05</ele>
        <time>2017-02-25T13:00:10Z</time>
      </trkpt>
      <trkpt lat="45.35815" lon="5.51886">
        <ele>292.73</ele>
        <time>2017-02-25T13:00:11Z</time>
      </trkpt>
      <trkpt lat="45.35839" lon="5.51852">
        <ele>292.91</ele>
        <time>2017-02-25T13:00:12Z</time>
      </trkpt>
      <trkpt lat="45.35863" lon="5.51818">
        <ele>293.58</ele>
        <time>2017-02-25T13:00:13Z</time>
      </trkpt>
      <trkpt lat="45.35887" lon="5.51785">
        <ele>294.44</ele>
        <time>2017-02-25T13:00:14Z</time>
      </trkpt>
      <trkpt lat="45.35911" lon="5.51753">
        <ele>295.73</ele>
        <time>2017-02-25T13:00:15Z</time>
      </trkpt>
      <trkpt lat="45.35936" lon="5.51721">
        <ele>297.1</ele>
        <time>2017-02-25T13:00:16Z</time>
      </trkpt>
      <trkpt lat="45.35961" lon="5.5169">
        <ele>298.74</ele>
        <time>2017-02-25T13:00:17Z</time>
      </trkpt>
      <trkpt lat="45.35986" lon="5.51659">
        <ele>300.35</ele>
        <time>2017-02-25T13:00:18Z</time>
      </trkpt>
      <trkpt lat="45.36011" lon="5.51629">
        <ele>301.87</ele>
        <time>2017-02-25T13:00:19Z</time>
      </trkpt>
      <trkpt lat="45.36036" lon="5.51599">
        <ele>303.45</ele>
        <time>2017-02-25T13:00:20Z</time>
      </trkpt>
      <trkpt lat="45.36061" lon="5.51569">
        <ele>305.21</ele>
        <time>2017-02-25T13:00:21Z</time>
      </trkpt>
      <trkpt lat="45.36086" lon="5.5154">
        <ele>306.84</ele>
        <time>2017-02-25T13:00:22Z</time>
      </trkpt>
      <trkpt lat="45.36112" lon="5.51511">
        <ele>308.53</ele>
        <time>2017-02-25T13:00:23Z</time>
      </trkpt>
      <trkpt lat="45.36137" lon="5.51483">
        <ele>310.14</ele>
        <time>2017-02-25T13:00:24Z</time>
      </trkpt>
      <trkpt lat="45.36163" lon="5.51454">
        <ele>311.83</ele>
        <time>2017-02-25T13:00:25Z</time>
      </trkpt>
      <trkpt lat="45.36188" lon="5.51426">
        <ele>313.52</ele>
        <time>2017-02-25T13:00:26Z</time>
      </trkpt>
      <trkpt lat="45.36213" lon="5.51397">
        <ele>315.38</ele>
        <time>2017-02-25T13:00:27Z</time>
      </trkpt>
      <trkpt lat="45.36238" lon="5.51367">
        <ele>317.2</ele>
        <time>2017-02-25T13:00:28Z</time>
      </trkpt>
      <trkpt lat="45.36263" lon="5.51338">
        <ele>318.84</ele>
        <time>2017-02-25T13:00:29Z</time>
      </trkpt>
      <trkpt lat="45.36287" lon="5.51308">
        <ele>320.45</ele>
        <time>2017-02-25T13:00:30Z</time>
      </trkpt>
      <trkpt lat="45.3631" lon="5.51277">
        <ele>321.97</ele>
        <time>2017-02-25T13:00:31Z</time>
      </trkpt>
      <trkpt lat="45.36332" lon="5.51245">
        <ele>323.55</ele>
        <time>2017-02-25T13:00:32Z</time>
      </trkpt>
      <trkpt lat="45.36353" lon="5.51212">
        <ele>325.15</ele>
        <time>2017-02-25T13:00:33Z</time>
      </trkpt>
      <trkpt lat="45.36374" lon="5.51178">
        <ele>326.51</ele>
        <time>2017-02-25T13:00:34Z</time>
      </trkpt>
      <trkpt lat="45.36395" lon="5.51143">
        <ele>328.06</ele>
        <time>2017-02-25T13:00:35Z</time>
      </trkpt>
      <trkpt lat="45.36415" lon="5.51108">
        <ele>330.13</ele>
        <time>2017-02-25T13:00:36Z</time>
      </trkpt>
      <trkpt lat="45.36435" lon="5.51072">
        <ele>332.39</ele>
        <time>2017-02-25T13:00:37Z</time>
      </trkpt>
      <trkpt lat="45.36454" lon="5.51036">
        <ele>334.36</ele>
        <time>2017-02-25T13:00:38Z</time>
      </trkpt>
      <trkpt lat="45.36472" lon="5.50999">
        <ele>335.95</ele>
        <time>2017-02-25T13:00:39Z</time>
      </trkpt>
      <trkpt lat="45.3649" lon="5.50961">
        <ele>337.55</ele>
        <time>2017-02-25T13:00:40Z</time>
      </trkpt>
      <trkpt lat="45.36507" lon="5.50923">
        <ele>338.75</ele>
        <time>2017-02-25T13:00:41Z</time>
      </trkpt>
      <trkpt lat="45.36525" lon="5.50885">
        <ele>340.19</ele>
        <time>2017-02-25T13:00:42Z</time>
      </trkpt>
      <trkpt lat="45.36541" lon="5.50845">
        <ele>341.44</ele>
        <time>2017-02-25T13:00:43Z</time>
      </trkpt>
      <trkpt lat="45.36557" lon="5.50804">
        <ele>342.89</ele>
        <time>2017-02-25T13:00:44Z</time>
      </trkpt>
      <trkpt lat="45.36573" lon="5.50762">
        <ele>344.14</ele>
        <time>2017-02-25T13:00:45Z</time>
      </trkpt>
      <trkpt lat="45.36588" lon="5.50719">
        <ele>344.95</ele>
        <time>2017-02-25T13:00:46Z</time>
      </trkpt>
      <trkpt lat="45.36602" lon="5.50676">
        <ele>345.99</ele>
        <time>2017-02-25T13:00:47Z</time>
      </trkpt>
      <trkpt lat="45.36616" lon="5.50632">
        <ele>346.2</ele>
        <time>2017-02-25T13:00:48Z</time>
      </trkpt>
      <trkpt lat="45.3663" lon="5.50588">
        <ele>346.72</ele>
        <time>2017-02-25T13:00:49Z</time>
      </trkpt>
      <trkpt lat="45.36643" lon="5.50544">
        <ele>347.38</ele>
        <time>2017-02-25T13:00:50Z</time>
      </trkpt>
      <trkpt lat="45.36657" lon="5.50501">
        <ele>347.68</ele>
        <time>2017-02-25T13:00:51Z</time>
      </trkpt>
      <trkpt lat="45.3667" lon="5.50458">
        <ele>347.97</ele>
        <time>2017-02-25T13:00:52Z</time>
      </trkpt>
      <trkpt lat="45.36683" lon="5.50414">
        <ele>348.19</ele>
        <time>2017-02-25T13:00:53Z</time>
      </trkpt>
      <trkpt lat="45.36697" lon="5.50371">
        <ele>348.48</ele>
        <time>2017-02-25T13:00:54Z</time>
      </trkpt>
      <trkpt lat="45.36712" lon="5.50329">
        <ele>348.93</ele>
        <time>2017-02-25T13:00:55Z</time>
      </trkpt>
      <trkpt lat="45.36728" lon="5.50288">
        <ele>349.59</ele>
        <time>2017-02-25T13:00:56Z</time>
      </trkpt>
      <trkpt lat="45.36746" lon="5.50249">
        <ele>350.28</ele>
        <time>2017-02-25T13:00:57Z</time>
      </trkpt>
      <trkpt lat="45.36766" lon="5.50212">
        <ele>350.89</ele>
        <time>2017-02-25T13:00:58Z</time>
      </trkpt>
      <trkpt lat="45.36786" lon="5.50176">
        <ele>351.9</ele>
        <time>2017-02-25T13:00:59Z</time>
      </trkpt>
      <trkpt lat="45.36808" lon="5.50141">
        <ele>352.74</ele>
        <time>2017-02-25T13:01:00Z</time>
      </trkpt>
      <trkpt lat="45.3683" lon="5.50108">
        <ele>353.55</ele>
        <time>2017-02-25T13:01:01Z</time>
      </trkpt>
      <trkpt lat="45.36852" lon="5.50074">
        <ele>354.35</ele>
        <time>2017-02-25T13:01:02Z</time>
      </trkpt>
      <trkpt lat="45.36874" lon="5.5004">
        <ele>354.83</ele>
        <time>2017-02-25T13:01:03Z</time>
      </trkpt>
      <trkpt lat="45.36895" lon="5.50005">
        <ele>354.92</ele>
        <time>2017-02-25T13:01:04Z</time>
      </trkpt>
      <trkpt lat="45.36916" lon="5.4997">
        <ele>354.94</ele>
        <time>2017-02-25T13:01:05Z</time>
      </trkpt>
      <trkpt lat="45.36936" lon="5.49933">
        <ele>355.19</ele>
        <time>2017-02-25T13:01:06Z</time>
      </trkpt>
      <trkpt lat="45.36954" lon="5.49897">
        <ele>354.84</ele>
        <time>2017-02-25T13:01:07Z</time>
      </trkpt>
      <trkpt lat="45.36971" lon="5.4986">
        <ele>354.05</ele>
        <time>2017-02-25T13:01:08Z</time>
      </trkpt>
      <trkpt lat="45.36986" lon="5.49823">
        <ele>353.25</ele>
        <time>2017-02-25T13:01:09Z</time>
      </trkpt>
      <trkpt lat="45.36999" lon="5.49784">
        <ele>352.61</ele>
        <time>2017-02-25T13:01:10Z</time>
      </trkpt>
      <trkpt lat="45.3701" lon="5.49744">
        <ele>352.24</ele>
        <time>2017-02-25T13:01:11Z</time>
      </trkpt>
      <trkpt lat="45.3702" lon="5.49703">
        <ele>351.85</ele>
        <time>2017-02-25T13:01:12Z</time>
      </trkpt>
      <trkpt lat="45.37029" lon="5.49661">
        <ele>351.45</ele>
        <time>2017-02-25T13:01:13Z</time>
      </trkpt>
      <trkpt lat="45.37037" lon="5.49618">
        <ele>351.05</ele>
        <time>2017-02-25T13:01:14Z</time>
      </trkpt>
      <trkpt lat="45.37045" lon="5.49574">
        <ele>350.73</ele>
        <time>2017-02-25T13:01:15Z</time>
      </trkpt>
      <trkpt lat="45.37053" lon="5.49531">
        <ele>350.26</ele>
        <time>2017-02-25T13:01:16Z</time>
      </trkpt>
      <trkpt lat="45.37061" lon="5.49487">
        <ele>349.77</ele>
        <time>2017-02-25T13:01:17Z</time>
      </trkpt>
      <trkpt lat="45.37069" lon="5.49444">
        <ele>349.11</ele>
        <time>2017-02-25T13:01:18Z</time>
      </trkpt>
      <trkpt lat="45.37078" lon="5.49401">
        <ele>348.58</ele>
        <time>2017-02-25T13:01:19Z</time>
      </trkpt>
      <trkpt lat="45.37087" lon="5.49357">
        <ele>348.24</ele>
        <time>2017-02-25T13:01:20Z</time>
      </trkpt>
      <trkpt lat="45.37095" lon="5.49314">
        <ele>347.93</ele>
        <time>2017-02-25T13:01:21Z</time>
      </trkpt>
      <trkpt lat="45.37104" lon="5.4927">
        <ele>347.78</ele>
        <time>2017-02-25T13:01:22Z</time>
      </trkpt>
      <trkpt lat="45.37113" lon="5.49227">
        <ele>347.6</ele>
        <time>2017-02-25T13:01:23Z</time>
      </trkpt>
      <trkpt lat="45.37122" lon="5.49183">
        <ele>347.64</ele>
        <time>2017-02-25T13:01:24Z</time>
      </trkpt>
      <trkpt lat="45.37132" lon="5.49139">
        <ele>347.81</ele>
        <time>2017-02-25T13:01:25Z</time>
      </trkpt>
      <trkpt lat="45.3714" lon="5.49095">
        <ele>348.4</ele>
        <time>2017-02-25T13:01:26Z</time>
      </trkpt>
      <trkpt lat="45.37149" lon="5.49051">
        <ele>349.4</ele>
        <time>2017-02-25T13:01:27Z</time>
      </trkpt>
      <trkpt lat="45.37159" lon="5.49008">
        <ele>350.64</ele>
        <time>2017-02-25T13:01:28Z</time>
      </trkpt>
      <trkpt lat="45.37168" lon="5.48965">
        <ele>352.09</ele>
        <time>2017-02-25T13:01:29Z</time>
      </trkpt>
      <trkpt lat="45.37179" lon="5.48922">
        <ele>353.5</ele>
        <time>2017-02-25T13:01:30Z</time>
      </trkpt>
      <trkpt lat="45.37191" lon="5.4888">
        <ele>354.74</ele>
        <time>2017-02-25T13:01:31Z</time>
      </trkpt>
      <trkpt lat="45.37204" lon="5.48839">
        <ele>356.27</ele>
        <time>2017-02-25T13:01:32Z</time>
      </trkpt>
      <trkpt lat="45.37219" lon="5.48798">
        <ele>358.01</ele>
        <time>2017-02-25T13:01:33Z</time>
      </trkpt>
      <trkpt lat="45.37235" lon="5.48757">
        <ele>359.88</ele>
        <time>2017-02-25T13:01:34Z</time>
      </trkpt>
      <trkpt lat="45.37252" lon="5.48718">
        <ele>361.94</ele>
        <time>2017-02-25T13:01:35Z</time>
      </trkpt>
      <trkpt lat="45.3727" lon="5.48679">
        <ele>363.95</ele>
        <time>2017-02-25T13:01:36Z</time>
      </trkpt>
      <trkpt lat="45.37288" lon="5.48641">
        <ele>365.71</ele>
        <time>2017-02-25T13:01:37Z</time>
      </trkpt>
      <trkpt lat="45.37307" lon="5.48605">
        <ele>367.66</ele>
        <time>2017-02-25T13:01:38Z</time>
      </trkpt>
      <trkpt lat="45.37327" lon="5.48569">
        <ele>369.81</ele>
        <time>2017-02-25T13:01:39Z</time>
      </trkpt>
      <trkpt lat="45.37349" lon="5.48535">
        <ele>372.08</ele>
        <time>2017-02-25T13:01:40Z</time>
      </trkpt>
      <trkpt lat="45.37371" lon="5.48502">
        <ele>374.3</ele>
        <time>2017-02-25T13:01:41Z</time>
      </trkpt>
      <trkpt lat="45.37394" lon="5.48469">
        <ele>376.74</ele>
        <time>2017-02-25T13:01:42Z</time>
      </trkpt>
      <trkpt lat="45.37418" lon="5.48438">
        <ele>378.99</ele>
        <time>2017-02-25T13:01:43Z</time>
      </trkpt>
      <trkpt lat="45.37443" lon="5.48408">
        <ele>381.12</ele>
        <time>2017-02-25T13:01:44Z</time>
      </trkpt>
      <trkpt lat="45.37469" lon="5.48379">
        <ele>383.14</ele>
        <time>2017-02-25T13:01:45Z</time>
      </trkpt>
      <trkpt lat="45.37496" lon="5.48351">
        <ele>385.07</ele>
        <time>2017-02-25T13:01:46Z</time>
      </trkpt>
      <trkpt lat="45.37523" lon="5.48325">
        <ele>386.97</ele>
        <time>2017-02-25T13:01:47Z</time>
      </trkpt>
      <trkpt lat="45.37551" lon="5.48299">
        <ele>388.95</ele>
        <time>2017-02-25T13:01:48Z</time>
      </trkpt>
      <trkpt lat="45.37579" lon="5.48274">
        <ele>391.03</ele>
        <time>2017-02-25T13:01:49Z</time>
      </trkpt>
      <trkpt lat="45.37607" lon="5.48252">
        <ele>393.05</ele>
        <time>2017-02-25T13:01:50Z</time>
      </trkpt>
      <trkpt lat="45.37635" lon="5.4823">
        <ele>395.21</ele>
        <time>2017-02-25T13:01:51Z</time>
      </trkpt>
      <trkpt lat="45.37664" lon="5.48209">
        <ele>397.16</ele>
        <time>2017-02-25T13:01:52Z</time>
      </trkpt>
      <trkpt lat="45.37693" lon="5.48188">
        <ele>398.83</ele>
        <time>2017-02-25T13:01:53Z</time>
      </trkpt>
      <trkpt lat="45.37722" lon="5.48169">
        <ele>400.13</ele>
        <time>2017-02-25T13:01:54Z</time>
      </trkpt>
      <trkpt lat="45.37752" lon="5.4815">
        <ele>401.58</ele>
        <time>2017-02-25T13:01:55Z</time>
      </trkpt>
      <trkpt lat="45.37782" lon="5.4813">
        <ele>402.76</ele>
        <time>2017-02-25T13:01:56Z</time>
      </trkpt>
      <trkpt lat="45.37812" lon="5.48111">
        <ele>404.11</ele>
        <time>2017-02-25T13:01:57Z</time>
      </trkpt>
      <trkpt lat="45.37842" lon="5.48092">
        <ele>405.34</ele>
        <time>2017-02-25T13:01:58Z</time>
      </trkpt>
      <trkpt lat="45.37872" lon="5.48071">
        <ele>406.55</ele>
        <time>2017-02-25T13:01:59Z</time>
      </trkpt>
      <trkpt lat="45.37902" lon="5.48051">
        <ele>406.95</ele>
        <time>2017-02-25T13:02:00Z</time>
      </trkpt>
      <trkpt lat="45.37931" lon="5.4803">
        <ele>407.67</ele>
        <time>2017-02-25T13:02:01Z</time>
      </trkpt>
      <trkpt lat="45.37961" lon="5.48008">
        <ele>408.45</ele>
        <time>2017-02-25T13:02:02Z</time>
      </trkpt>
      <trkpt lat="45.3799" lon="5.47986">
        <ele>409.17</ele>
        <time>2017-02-25T13:02:03Z</time>
      </trkpt>
      <trkpt lat="45.38018" lon="5.47964">
        <ele>409.95</ele>
        <time>2017-02-25T13:02:04Z</time>
      </trkpt>
      <trkpt lat="45.38046" lon="5.47941">
        <ele>410.35</ele>
        <time>2017-02-25T13:02:05Z</time>
      </trkpt>
      <trkpt lat="45.38073" lon="5.47917">
        <ele>410.91</ele>
        <time>2017-02-25T13:02:06Z</time>
      </trkpt>
      <trkpt lat="45.381" lon="5.47893">
        <ele>411.5</ele>
        <time>2017-02-25T13:02:07Z</time>
      </trkpt>
      <trkpt lat="45.38126" lon="5.47869">
        <ele>411.94</ele>
        <time>2017-02-25T13:02:08Z</time>
      </trkpt>
      <trkpt lat="45.38152" lon="5.47845">
        <ele>412.51</ele>
        <time>2017-02-25T13:02:09Z</time>
      </trkpt>
      <trkpt lat="45.38178" lon="5.4782">
        <ele>412.94</ele>
        <time>2017-02-25T13:02:10Z</time>
      </trkpt>
      <trkpt lat="45.38203" lon="5.47794">
        <ele>413.59</ele>
        <time>2017-02-25T13:02:11Z</time>
      </trkpt>
      <trkpt lat="45.38228" lon="5.47768">
        <ele>414.12</ele>
        <time>2017-02-25T13:02:12Z</time>
      </trkpt>
      <trkpt lat="45.38253" lon="5.47742">
        <ele>414.7</ele>
        <time>2017-02-25T13:02:13Z</time>
      </trkpt>
      <trkpt lat="45.38277" lon="5.47716">
        <ele>415.14</ele>
        <time>2017-02-25T13:02:14Z</time>
      </trkpt>
      <trkpt lat="45.38302" lon="5.4769">
        <ele>415.63</ele>
        <time>2017-02-25T13:02:15Z</time>
      </trkpt>
      <trkpt lat="45.38326" lon="5.47663">
        <ele>416.12</ele>
        <time>2017-02-25T13:02:16Z</time>
      </trkpt>
      <trkpt lat="45.38351" lon="5.47637">
        <ele>416.54</ele>
        <time>2017-02-25T13:02:17Z</time>
      </trkpt>
      <trkpt lat="45.38375" lon="5.47611">
        <ele>416.87</ele>
        <time>2017-02-25T13:02:18Z</time>
      </trkpt>
      <trkpt lat="45.38399" lon="5.47585">
        <ele>417.09</ele>
        <time>2017-02-25T13:02:19Z</time>
      </trkpt>
      <trkpt lat="45.38424" lon="5.47559">
        <ele>417.46</ele>
        <time>2017-02-25T13:02:20Z</time>
      </trkpt>
      <trkpt lat="45.38448" lon="5.47533">
        <ele>418.01</ele>
        <time>2017-02-25T13:02:21Z</time>
      </trkpt>
      <trkpt lat="45.38472" lon="5.47508">
        <ele>418.44</ele>
        <time>2017-02-25T13:02:22Z</time>
      </trkpt>
      <trkpt lat="45.38496" lon="5.47483">
        <ele>418.93</ele>
        <time>2017-02-25T13:02:23Z</time>
      </trkpt>
      <trkpt lat="45.38519" lon="5.4746">
        <ele>419.42</ele>
        <time>2017-02-25T13:02:24Z</time>
      </trkpt>
      <trkpt lat="45.3854" lon="5.47438">
        <ele>420.08</ele>
        <time>2017-02-25T13:02:25Z</time>
      </trkpt>
      <trkpt lat="45.3856" lon="5.47419">
        <ele>420.78</ele>
        <time>2017-02-25T13:02:26Z</time>
      </trkpt>
      <trkpt lat="45.38578" lon="5.47401">
        <ele>421.55</ele>
        <time>2017-02-25T13:02:27Z</time>
      </trkpt>
      <trkpt lat="45.38594" lon="5.47385">
        <ele>422.35</ele>
        <time>2017-02-25T13:02:28Z</time>
      </trkpt>
      <trkpt lat="45.3861" lon="5.47372">
        <ele>423.47</ele>
        <time>2017-02-25T13:02:29Z</time>
      </trkpt>
      <trkpt lat="45.38626" lon="5.47362">
        <ele>424.25</ele>
        <time>2017-02-25T13:02:30Z</time>
      </trkpt>
      <trkpt lat="45.38643" lon="5.47357">
        <ele>424.65</ele>
        <time>2017-02-25T13:02:31Z</time>
      </trkpt>
      <trkpt lat="45.3866" lon="5.47356">
        <ele>424.97</ele>
        <time>2017-02-25T13:02:32Z</time>
      </trkpt>
      <trkpt lat="45.38677" lon="5.47359">
        <ele>424.95</ele>
        <time>2017-02-25T13:02:33Z</time>
      </trkpt>
      <trkpt lat="45.38692" lon="5.47365">
        <ele>424.95</ele>
        <time>2017-02-25T13:02:34Z</time>
      </trkpt>
      <trkpt lat="45.38708" lon="5.47372">
        <ele>424.55</ele>
        <time>2017-02-25T13:02:35Z</time>
      </trkpt>
      <trkpt lat="45.38723" lon="5.47378">
        <ele>424.39</ele>
        <time>2017-02-25T13:02:36Z</time>
      </trkpt>
      <trkpt lat="45.38738" lon="5.47384">
        <ele>425.32</ele>
        <time>2017-02-25T13:02:37Z</time>
      </trkpt>
      <trkpt lat="45.38752" lon="5.47385">
        <ele>426.78</ele>
        <time>2017-02-25T13:02:38Z</time>
      </trkpt>
      <trkpt lat="45.38766" lon="5.47382">
        <ele>428.04</ele>
        <time>2017-02-25T13:02:39Z</time>
      </trkpt>
      <trkpt lat="45.38777" lon="5.47375">
        <ele>429.25</ele>
        <time>2017-02-25T13:02:40Z</time>
      </trkpt>
      <trkpt lat="45.38787" lon="5.47366">
        <ele>430.37</ele>
        <time>2017-02-25T13:02:41Z</time>
      </trkpt>
      <trkpt lat="45.38794" lon="5.47355">
        <ele>431.15</ele>
        <time>2017-02-25T13:02:42Z</time>
      </trkpt>
      <trkpt lat="45.38796" lon="5.47339">
        <ele>431.87</ele>
        <time>2017-02-25T13:02:43Z</time>
      </trkpt>
      <trkpt lat="45.38797" lon="5.47324">
        <ele>432.65</ele>
        <time>2017-02-25T13:02:44Z</time>
      </trkpt>
      <trkpt lat="45.38797" lon="5.47308">
        <ele>433.37</ele>
        <time>2017-02-25T13:02:45Z</time>
      </trkpt>
      <trkpt lat="45.3879" lon="5.4729">
        <ele>433.83</ele>
        <time>2017-02-25T13:02:46Z</time>
      </trkpt>
      <trkpt lat="45.38783" lon="5.47273">
        <ele>434.09</ele>
        <time>2017-02-25T13:02:47Z</time>
      </trkpt>
      <trkpt lat="45.38775" lon="5.47256">
        <ele>434.14</ele>
        <time>2017-02-25T13:02:48Z</time>
      </trkpt>
      <trkpt lat="45.38766" lon="5.47237">
        <ele>433.91</ele>
        <time>2017-02-25T13:02:49Z</time>
      </trkpt>
      <trkpt lat="45.38757" lon="5.47217">
        <ele>433.46</ele>
        <time>2017-02-25T13:02:50Z</time>
      </trkpt>
      <trkpt lat="45.38747" lon="5.47198">
        <ele>433.29</ele>
        <time>2017-02-25T13:02:51Z</time>
      </trkpt>
      <trkpt lat="45.38738" lon="5.47178">
        <ele>432.94</ele>
        <time>2017-02-25T13:02:52Z</time>
      </trkpt>
      <trkpt lat="45.38728" lon="5.47159">
        <ele>432.31</ele>
        <time>2017-02-25T13:02:53Z</time>
      </trkpt>
      <trkpt lat="45.38717" lon="5.47142">
        <ele>431.78</ele>
        <time>2017-02-25T13:02:54Z</time>
      </trkpt>
      <trkpt lat="45.38705" lon="5.47127">
        <ele>431.36</ele>
        <time>2017-02-25T13:02:55Z</time>
      </trkpt>
      <trkpt lat="45.38691" lon="5.47117">
        <ele>430.79</ele>
        <time>2017-02-25T13:02:56Z</time>
      </trkpt>
      <trkpt lat="45.38677" lon="5.47108">
        <ele>430.52</ele>
        <time>2017-02-25T13:02:57Z</time>
      </trkpt>
      <trkpt lat="45.38661" lon="5.47104">
        <ele>429.5</ele>
        <time>2017-02-25T13:02:58Z</time>
      </trkpt>
      <trkpt lat="45.38646" lon="5.47102">
        <ele>428.74</ele>
        <time>2017-02-25T13:02:59Z</time>
      </trkpt>
      <trkpt lat="45.38631" lon="5.47104">
        <ele>427.95</ele>
        <time>2017-02-25T13:03:00Z</time>
      </trkpt>
      <trkpt lat="45.38616" lon="5.4711">
        <ele>427.39</ele>
        <time>2017-02-25T13:03:01Z</time>
      </trkpt>
      <trkpt lat="45.38601" lon="5.47121">
        <ele>426.24</ele>
        <time>2017-02-25T13:03:02Z</time>
      </trkpt>
      <trkpt lat="45.38586" lon="5.47133">
        <ele>424.97</ele>
        <time>2017-02-25T13:03:03Z</time>
      </trkpt>
      <trkpt lat="45.38572" lon="5.47146">
        <ele>423.75</ele>
        <time>2017-02-25T13:03:04Z</time>
      </trkpt>
      <trkpt lat="45.38558" lon="5.4716">
        <ele>422.31</ele>
        <time>2017-02-25T13:03:05Z</time>
      </trkpt>
      <trkpt lat="45.38542" lon="5.47174">
        <ele>421.14</ele>
        <time>2017-02-25T13:03:06Z</time>
      </trkpt>
      <trkpt lat="45.38525" lon="5.47189">
        <ele>420.11</ele>
        <time>2017-02-25T13:03:07Z</time>
      </trkpt>
      <trkpt lat="45.38505" lon="5.47205">
        <ele>418.7</ele>
        <time>2017-02-25T13:03:08Z</time>
      </trkpt>
      <trkpt lat="45.38486" lon="5.4722">
        <ele>417.54</ele>
        <time>2017-02-25T13:03:09Z</time>
      </trkpt>
      <trkpt lat="45.38468" lon="5.47234">
        <ele>416.91</ele>
        <time>2017-02-25T13:03:10Z</time>
      </trkpt>
      <trkpt lat="45.38451" lon="5.47247">
        <ele>416.06</ele>
        <time>2017-02-25T13:03:11Z</time>
      </trkpt>
      <trkpt lat="45.38435" lon="5.47258">
        <ele>415.33</ele>
        <time>2017-02-25T13:03:12Z</time>
      </trkpt>
      <trkpt lat="45.38421" lon="5.47268">
        <ele>414.71</ele>
        <time>2017-02-25T13:03:13Z</time>
      </trkpt>
      <trkpt lat="45.38409" lon="5.47277">
        <ele>414.1</ele>
        <time>2017-02-25T13:03:14Z</time>
      </trkpt>
      <trkpt lat="45.38398" lon="5.47285">
        <ele>413.98</ele>
        <time>2017-02-25T13:03:15Z</time>
      </trkpt>
      <trkpt lat="45.38396" lon="5.47289">
        <ele>413.8</ele>
        <time>2017-02-25T13:03:16Z</time>
      </trkpt>
      <trkpt lat="45.38393" lon="5.47291">
        <ele>413.28</ele>
        <time>2017-02-25T13:03:17Z</time>
      </trkpt>
      <trkpt lat="45.38391" lon="5.47293">
        <ele>412.93</ele>
        <time>2017-02-25T13:03:18Z</time>
      </trkpt>
      <trkpt lat="45.3839" lon="5.47294">
        <ele>412.63</ele>
        <time>2017-02-25T13:03:19Z</time>
      </trkpt>
      <trkpt lat="45.3839" lon="5.47294">
        <ele>412.32</ele>
        <time>2017-02-25T13:03:20Z</time>
      </trkpt>
      <trkpt lat="45.38389" lon="5.47295">
        <ele>411.94</ele>
        <time>2017-02-25T13:03:21Z</time>
      </trkpt>
      <trkpt lat="45.38388" lon="5.47297">
        <ele>411.63</ele>
        <time>2017-02-25T13:03:22Z</time>
      </trkpt>
      <trkpt lat="45.38385" lon="5.473">
        <ele>411.24</ele>
        <time>2017-02-25T13:03:23Z</time>
      </trkpt>
      <trkpt lat="45.38382" lon="5.47306">
        <ele>410.85</ele>
        <time>2017-02-25T13:03:24Z</time>
      </trkpt>
      <trkpt lat="45.3837" lon="5.47317">
        <ele>410.53</ele>
        <time>2017-02-25T13:03:25Z</time>
      </trkpt>
      <trkpt lat="45.38362" lon="5.47327">
        <ele>410.3</ele>
        <time>2017-02-25T13:03:26Z</time>
      </trkpt>
      <trkpt lat="45.38352" lon="5.47337">
        <ele>410.18</ele>
        <time>2017-02-25T13:03:27Z</time>
      </trkpt>
      <trkpt lat="45.38342" lon="5.47348">
        <ele>410</ele>
        <time>2017-02-25T13:03:28Z</time>
      </trkpt>
      <trkpt lat="45.38332" lon="5.47358">
        <ele>409.8</ele>
        <time>2017-02-25T13:03:29Z</time>
      </trkpt>
      <trkpt lat="45.38321" lon="5.47368">
        <ele>409.6</ele>
        <time>2017-02-25T13:03:30Z</time>
      </trkpt>
      <trkpt lat="45.38311" lon="5.47378">
        <ele>409.56</ele>
        <time>2017-02-25T13:03:31Z</time>
      </trkpt>
      <trkpt lat="45.38301" lon="5.47387">
        <ele>409.63</ele>
        <time>2017-02-25T13:03:32Z</time>
      </trkpt>
      <trkpt lat="45.38292" lon="5.47394">
        <ele>410.13</ele>
        <time>2017-02-25T13:03:33Z</time>
      </trkpt>
      <trkpt lat="45.38283" lon="5.47401">
        <ele>410.3</ele>
        <time>2017-02-25T13:03:34Z</time>
      </trkpt>
      <trkpt lat="45.38275" lon="5.47405">
        <ele>410.18</ele>
        <time>2017-02-25T13:03:35Z</time>
      </trkpt>
      <trkpt lat="45.38265" lon="5.47407">
        <ele>410.16</ele>
        <time>2017-02-25T13:03:36Z</time>
      </trkpt>
      <trkpt lat="45.38254" lon="5.47404">
        <ele>410.23</ele>
        <time>2017-02-25T13:03:37Z</time>
      </trkpt>
      <trkpt lat="45.38243" lon="5.47394">
        <ele>410.17</ele>
        <time>2017-02-25T13:03:38Z</time>
      </trkpt>
      <trkpt lat="45.38234" lon="5.47379">
        <ele>410.07</ele>
        <time>2017-02-25T13:03:39Z</time>
      </trkpt>
      <trkpt lat="45.38225" lon="5.47357">
        <ele>410.37</ele>
        <time>2017-02-25T13:03:40Z</time>
      </trkpt>
      <trkpt lat="45.38215" lon="5.47333">
        <ele>410.43</ele>
        <time>2017-02-25T13:03:41Z</time>
      </trkpt>
      <trkpt lat="45.38204" lon="5.47307">
        <ele>410.37</ele>
        <time>2017-02-25T13:03:42Z</time>
      </trkpt>
      <trkpt lat="45.38192" lon="5.47275">
        <ele>410.27</ele>
        <time>2017-02-25T13:03:43Z</time>
      </trkpt>
      <trkpt lat="45.38181" lon="5.47241">
        <ele>410.01</ele>
        <time>2017-02-25T13:03:44Z</time>
      </trkpt>
      <trkpt lat="45.38174" lon="5.47201">
        <ele>409.96</ele>
        <time>2017-02-25T13:03:45Z</time>
      </trkpt>
      <trkpt lat="45.38169" lon="5.47159">
        <ele>409.71</ele>
        <time>2017-02-25T13:03:46Z</time>
      </trkpt>
      <trkpt lat="45.38166" lon="5.47116">
        <ele>409.74</ele>
        <time>2017-02-25T13:03:47Z</time>
      </trkpt>
      <trkpt lat="45.38164" lon="5.47074">
        <ele>409.91</ele>
        <time>2017-02-25T13:03:48Z</time>
      </trkpt>
      <trkpt lat="45.38162" lon="5.47031">
        <ele>410.34</ele>
        <time>2017-02-25T13:03:49Z</time>
      </trkpt>
      <trkpt lat="45.38159" lon="5.4699">
        <ele>410.59</ele>
        <time>2017-02-25T13:03:50Z</time>
      </trkpt>
      <trkpt lat="45.38154" lon="5.4695">
        <ele>410.8</ele>
        <time>2017-02-25T13:03:51Z</time>
      </trkpt>
      <trkpt lat="45.38147" lon="5.4691">
        <ele>410.92</ele>
        <time>2017-02-25T13:03:52Z</time>
      </trkpt>
      <trkpt lat="45.38138" lon="5.4687">
        <ele>411.02</ele>
        <time>2017-02-25T13:03:53Z</time>
      </trkpt>
      <trkpt lat="45.38128" lon="5.46832">
        <ele>411.12</ele>
        <time>2017-02-25T13:03:54Z</time>
      </trkpt>
      <trkpt lat="45.38116" lon="5.46793">
        <ele>411.14</ele>
        <time>2017-02-25T13:03:55Z</time>
      </trkpt>
      <trkpt lat="45.381" lon="5.46757">
        <ele>411.75</ele>
        <time>2017-02-25T13:03:56Z</time>
      </trkpt>
      <trkpt lat="45.38083" lon="5.46722">
        <ele>411.72</ele>
        <time>2017-02-25T13:03:57Z</time>
      </trkpt>
      <trkpt lat="45.38064" lon="5.46688">
        <ele>411.31</ele>
        <time>2017-02-25T13:03:58Z</time>
      </trkpt>
      <trkpt lat="45.38044" lon="5.46656">
        <ele>410.67</ele>
        <time>2017-02-25T13:03:59Z</time>
      </trkpt>
      <trkpt lat="45.38024" lon="5.46625">
        <ele>410.14</ele>
        <time>2017-02-25T13:04:00Z</time>
      </trkpt>
      <trkpt lat="45.38004" lon="5.46594">
        <ele>409.71</ele>
        <time>2017-02-25T13:04:01Z</time>
      </trkpt>
      <trkpt lat="45.37983" lon="5.46563">
        <ele>409.39</ele>
        <time>2017-02-25T13:04:02Z</time>
      </trkpt>
      <trkpt lat="45.37962" lon="5.46531">
        <ele>408.84</ele>
        <time>2017-02-25T13:04:03Z</time>
      </trkpt>
      <trkpt lat="45.3794" lon="5.465">
        <ele>408.65</ele>
        <time>2017-02-25T13:04:04Z</time>
      </trkpt>
      <trkpt lat="45.3792" lon="5.46468">
        <ele>408.62</ele>
        <time>2017-02-25T13:04:05Z</time>
      </trkpt>
      <trkpt lat="45.37899" lon="5.46436">
        <ele>408.85</ele>
        <time>2017-02-25T13:04:06Z</time>
      </trkpt>
      <trkpt lat="45.37878" lon="5.46404">
        <ele>409.37</ele>
        <time>2017-02-25T13:04:07Z</time>
      </trkpt>
      <trkpt lat="45.37857" lon="5.46371">
        <ele>409.56</ele>
        <time>2017-02-25T13:04:08Z</time>
      </trkpt>
      <trkpt lat="45.37837" lon="5.46338">
        <ele>409.68</ele>
        <time>2017-02-25T13:04:09Z</time>
      </trkpt>
      <trkpt lat="45.37817" lon="5.46305">
        <ele>409.54</ele>
        <time>2017-02-25T13:04:10Z</time>
      </trkpt>
      <trkpt lat="45.37798" lon="5.46272">
        <ele>409.35</ele>
        <time>2017-02-25T13:04:11Z</time>
      </trkpt>
      <trkpt lat="45.37778" lon="5.4624">
        <ele>409.08</ele>
        <time>2017-02-25T13:04:12Z</time>
      </trkpt>
      <trkpt lat="45.37758" lon="5.46207">
        <ele>408.86</ele>
        <time>2017-02-25T13:04:13Z</time>
      </trkpt>
      <trkpt lat="45.37739" lon="5.46175">
        <ele>408.5</ele>
        <time>2017-02-25T13:04:14Z</time>
      </trkpt>
      <trkpt lat="45.37719" lon="5.46142">
        <ele>408.18</ele>
        <time>2017-02-25T13:04:15Z</time>
      </trkpt>
      <trkpt lat="45.37699" lon="5.46109">
        <ele>407.72</ele>
        <time>2017-02-25T13:04:16Z</time>
      </trkpt>
      <trkpt lat="45.3768" lon="5.46076">
        <ele>407.15</ele>
        <time>2017-02-25T13:04:17Z</time>
      </trkpt>
      <trkpt lat="45.3766" lon="5.46043">
        <ele>406.55</ele>
        <time>2017-02-25T13:04:18Z</time>
      </trkpt>
      <trkpt lat="45.3764" lon="5.4601">
        <ele>406.04</ele>
        <time>2017-02-25T13:04:19Z</time>
      </trkpt>
      <trkpt lat="45.3762" lon="5.45977">
        <ele>405.53</ele>
        <time>2017-02-25T13:04:20Z</time>
      </trkpt>
      <trkpt lat="45.376" lon="5.45944">
        <ele>405.43</ele>
        <time>2017-02-25T13:04:21Z</time>
      </trkpt>
      <trkpt lat="45.3758" lon="5.45911">
        <ele>405.33</ele>
        <time>2017-02-25T13:04:22Z</time>
      </trkpt>
      <trkpt lat="45.3756" lon="5.45877">
        <ele>404.99</ele>
        <time>2017-02-25T13:04:23Z</time>
      </trkpt>
      <trkpt lat="45.37541" lon="5.45843">
        <ele>404.84</ele>
        <time>2017-02-25T13:04:24Z</time>
      </trkpt>
      <trkpt lat="45.37522" lon="5.4581">
        <ele>403.93</ele>
        <time>2017-02-25T13:04:25Z</time>
      </trkpt>
      <trkpt lat="45.37502" lon="5.45776">
        <ele>403.19</ele>
        <time>2017-02-25T13:04:26Z</time>
      </trkpt>
      <trkpt lat="45.37483" lon="5.45743">
        <ele>403.04</ele>
        <time>2017-02-25T13:04:27Z</time>
      </trkpt>
      <trkpt lat="45.37463" lon="5.4571">
        <ele>402.77</ele>
        <time>2017-02-25T13:04:28Z</time>
      </trkpt>
      <trkpt lat="45.37445" lon="5.45677">
        <ele>402.16</ele>
        <time>2017-02-25T13:04:29Z</time>
      </trkpt>
      <trkpt lat="45.37426" lon="5.45643">
        <ele>401.8</ele>
        <time>2017-02-25T13:04:30Z</time>
      </trkpt>
      <trkpt lat="45.37407" lon="5.4561">
        <ele>401.48</ele>
        <time>2017-02-25T13:04:31Z</time>
      </trkpt>
      <trkpt lat="45.37388" lon="5.45576">
        <ele>401.42</ele>
        <time>2017-02-25T13:04:32Z</time>
      </trkpt>
      <trkpt lat="45.3737" lon="5.45542">
        <ele>401.73</ele>
        <time>2017-02-25T13:04:33Z</time>
      </trkpt>
      <trkpt lat="45.37352" lon="5.45508">
        <ele>401.63</ele>
        <time>2017-02-25T13:04:34Z</time>
      </trkpt>
      <trkpt lat="45.37334" lon="5.45474">
        <ele>401.45</ele>
        <time>2017-02-25T13:04:35Z</time>
      </trkpt>
      <trkpt lat="45.37316" lon="5.45439">
        <ele>401.41</ele>
        <time>2017-02-25T13:04:36Z</time>
      </trkpt>
      <trkpt lat="45.37299" lon="5.45405">
        <ele>401.01</ele>
        <time>2017-02-25T13:04:37Z</time>
      </trkpt>
      <trkpt lat="45.37281" lon="5.4537">
        <ele>400.85</ele>
        <time>2017-02-25T13:04:38Z</time>
      </trkpt>
      <trkpt lat="45.37264" lon="5.45335">
        <ele>400.57</ele>
        <time>2017-02-25T13:04:39Z</time>
      </trkpt>
      <trkpt lat="45.37247" lon="5.453">
        <ele>399.96</ele>
        <time>2017-02-25T13:04:40Z</time>
      </trkpt>
      <trkpt lat="45.37231" lon="5.45265">
        <ele>399.68</ele>
        <time>2017-02-25T13:04:41Z</time>
      </trkpt>
      <trkpt lat="45.37215" lon="5.4523">
        <ele>399.7</ele>
        <time>2017-02-25T13:04:42Z</time>
      </trkpt>
      <trkpt lat="45.372" lon="5.45195">
        <ele>399.62</ele>
        <time>2017-02-25T13:04:43Z</time>
      </trkpt>
      <trkpt lat="45.37185" lon="5.45159">
        <ele>399.45</ele>
        <time>2017-02-25T13:04:44Z</time>
      </trkpt>
      <trkpt lat="45.3717" lon="5.45123">
        <ele>399.73</ele>
        <time>2017-02-25T13:04:45Z</time>
      </trkpt>
      <trkpt lat="45.37156" lon="5.45087">
        <ele>400.11</ele>
        <time>2017-02-25T13:04:46Z</time>
      </trkpt>
      <trkpt lat="45.37142" lon="5.45051">
        <ele>400.27</ele>
        <time>2017-02-25T13:04:47Z</time>
      </trkpt>
      <trkpt lat="45.37129" lon="5.45014">
        <ele>400.62</ele>
        <time>2017-02-25T13:04:48Z</time>
      </trkpt>
      <trkpt lat="45.37116" lon="5.44977">
        <ele>400.93</ele>
        <time>2017-02-25T13:04:49Z</time>
      </trkpt>
      <trkpt lat="45.37103" lon="5.44941">
        <ele>400.99</ele>
        <time>2017-02-25T13:04:50Z</time>
      </trkpt>
      <trkpt lat="45.37091" lon="5.44904">
        <ele>401.16</ele>
        <time>2017-02-25T13:04:51Z</time>
      </trkpt>
      <trkpt lat="45.3708" lon="5.44867">
        <ele>400.8</ele>
        <time>2017-02-25T13:04:52Z</time>
      </trkpt>
      <trkpt lat="45.37068" lon="5.44829">
        <ele>400.56</ele>
        <time>2017-02-25T13:04:53Z</time>
      </trkpt>
      <trkpt lat="45.37057" lon="5.44791">
        <ele>400.44</ele>
        <time>2017-02-25T13:04:54Z</time>
      </trkpt>
      <trkpt lat="45.37047" lon="5.44753">
        <ele>400.09</ele>
        <time>2017-02-25T13:04:55Z</time>
      </trkpt>
      <trkpt lat="45.37037" lon="5.44715">
        <ele>399.86</ele>
        <time>2017-02-25T13:04:56Z</time>
      </trkpt>
      <trkpt lat="45.37028" lon="5.44676">
        <ele>399.66</ele>
        <time>2017-02-25T13:04:57Z</time>
      </trkpt>
      <trkpt lat="45.37019" lon="5.44637">
        <ele>399.54</ele>
        <time>2017-02-25T13:04:58Z</time>
      </trkpt>
      <trkpt lat="45.3701" lon="5.44599">
        <ele>399.99</ele>
        <time>2017-02-25T13:04:59Z</time>
      </trkpt>
      <trkpt lat="45.37001" lon="5.4456">
        <ele>400.32</ele>
        <time>2017-02-25T13:05:00Z</time>
      </trkpt>
      <trkpt lat="45.36992" lon="5.44521">
        <ele>400.47</ele>
        <time>2017-02-25T13:05:01Z</time>
      </trkpt>
      <trkpt lat="45.36983" lon="5.44482">
        <ele>400.66</ele>
        <time>2017-02-25T13:05:02Z</time>
      </trkpt>
      <trkpt lat="45.36974" lon="5.44442">
        <ele>401.02</ele>
        <time>2017-02-25T13:05:03Z</time>
      </trkpt>
      <trkpt lat="45.36966" lon="5.44403">
        <ele>401.73</ele>
        <time>2017-02-25T13:05:04Z</time>
      </trkpt>
      <trkpt lat="45.36958" lon="5.44363">
        <ele>402.35</ele>
        <time>2017-02-25T13:05:05Z</time>
      </trkpt>
      <trkpt lat="45.3695" lon="5.44323">
        <ele>402.87</ele>
        <time>2017-02-25T13:05:06Z</time>
      </trkpt>
      <trkpt lat="45.36942" lon="5.44283">
        <ele>403.38</ele>
        <time>2017-02-25T13:05:07Z</time>
      </trkpt>
      <trkpt lat="45.36934" lon="5.44243">
        <ele>403.72</ele>
        <time>2017-02-25T13:05:08Z</time>
      </trkpt>
      <trkpt lat="45.36926" lon="5.44204">
        <ele>404.03</ele>
        <time>2017-02-25T13:05:09Z</time>
      </trkpt>
      <trkpt lat="45.36918" lon="5.44164">
        <ele>404.17</ele>
        <time>2017-02-25T13:05:10Z</time>
      </trkpt>
      <trkpt lat="45.3691" lon="5.44124">
        <ele>404.84</ele>
        <time>2017-02-25T13:05:11Z</time>
      </trkpt>
      <trkpt lat="45.36903" lon="5.44085">
        <ele>405.69</ele>
        <time>2017-02-25T13:05:12Z</time>
      </trkpt>
      <trkpt lat="45.36895" lon="5.44046">
        <ele>406.1</ele>
        <time>2017-02-25T13:05:13Z</time>
      </trkpt>
      <trkpt lat="45.36888" lon="5.44007">
        <ele>406.27</ele>
        <time>2017-02-25T13:05:14Z</time>
      </trkpt>
      <trkpt lat="45.3688" lon="5.43968">
        <ele>406.38</ele>
        <time>2017-02-25T13:05:15Z</time>
      </trkpt>
      <trkpt lat="45.36873" lon="5.43929">
        <ele>406.24</ele>
        <time>2017-02-25T13:05:16Z</time>
      </trkpt>
      <trkpt lat="45.36865" lon="5.4389">
        <ele>406.61</ele>
        <time>2017-02-25T13:05:17Z</time>
      </trkpt>
      <trkpt lat="45.36858" lon="5.43851">
        <ele>406.69</ele>
        <time>2017-02-25T13:05:18Z</time>
      </trkpt>
      <trkpt lat="45.3685" lon="5.43812">
        <ele>406.94</ele>
        <time>2017-02-25T13:05:19Z</time>
      </trkpt>
      <trkpt lat="45.36843" lon="5.43773">
        <ele>406.75</ele>
        <time>2017-02-25T13:05:20Z</time>
      </trkpt>
      <trkpt lat="45.36835" lon="5.43734">
        <ele>406.56</ele>
        <time>2017-02-25T13:05:21Z</time>
      </trkpt>
      <trkpt lat="45.36828" lon="5.43695">
        <ele>406.36</ele>
        <time>2017-02-25T13:05:22Z</time>
      </trkpt>
      <trkpt lat="45.3682" lon="5.43656">
        <ele>405.84</ele>
        <time>2017-02-25T13:05:23Z</time>
      </trkpt>
      <trkpt lat="45.36813" lon="5.43617">
        <ele>405.17</ele>
        <time>2017-02-25T13:05:24Z</time>
      </trkpt>
      <trkpt lat="45.36806" lon="5.43578">
        <ele>404.72</ele>
        <time>2017-02-25T13:05:25Z</time>
      </trkpt>
      <trkpt lat="45.36798" lon="5.43539">
        <ele>403.99</ele>
        <time>2017-02-25T13:05:26Z</time>
      </trkpt>
      <trkpt lat="45.3679" lon="5.435">
        <ele>403.44</ele>
        <time>2017-02-25T13:05:27Z</time>
      </trkpt>
      <trkpt lat="45.36782" lon="5.43461">
        <ele>402.61</ele>
        <time>2017-02-25T13:05:28Z</time>
      </trkpt>
      <trkpt lat="45.36774" lon="5.43421">
        <ele>401.57</ele>
        <time>2017-02-25T13:05:29Z</time>
      </trkpt>
      <trkpt lat="45.36766" lon="5.43382">
        <ele>400.48</ele>
        <time>2017-02-25T13:05:30Z</time>
      </trkpt>
      <trkpt lat="45.36759" lon="5.43342">
        <ele>399.22</ele>
        <time>2017-02-25T13:05:31Z</time>
      </trkpt>
      <trkpt lat="45.36751" lon="5.43303">
        <ele>398.25</ele>
        <time>2017-02-25T13:05:32Z</time>
      </trkpt>
      <trkpt lat="45.36743" lon="5.43264">
        <ele>397.41</ele>
        <time>2017-02-25T13:05:33Z</time>
      </trkpt>
      <trkpt lat="45.36736" lon="5.43225">
        <ele>396.85</ele>
        <time>2017-02-25T13:05:34Z</time>
      </trkpt>
      <trkpt lat="45.36728" lon="5.43187">
        <ele>396.49</ele>
        <time>2017-02-25T13:05:35Z</time>
      </trkpt>
      <trkpt lat="45.3672" lon="5.43148">
        <ele>396.02</ele>
        <time>2017-02-25T13:05:36Z</time>
      </trkpt>
      <trkpt lat="45.36712" lon="5.43109">
        <ele>395.77</ele>
        <time>2017-02-25T13:05:37Z</time>
      </trkpt>
      <trkpt lat="45.36705" lon="5.4307">
        <ele>395.48</ele>
        <time>2017-02-25T13:05:38Z</time>
      </trkpt>
      <trkpt lat="45.36697" lon="5.4303">
        <ele>395.34</ele>
        <time>2017-02-25T13:05:39Z</time>
      </trkpt>
      <trkpt lat="45.36689" lon="5.42991">
        <ele>395.15</ele>
        <time>2017-02-25T13:05:40Z</time>
      </trkpt>
      <trkpt lat="45.36682" lon="5.42952">
        <ele>395.04</ele>
        <time>2017-02-25T13:05:41Z</time>
      </trkpt>
      <trkpt lat="45.36674" lon="5.42912">
        <ele>394.85</ele>
        <time>2017-02-25T13:05:42Z</time>
      </trkpt>
      <trkpt lat="45.36666" lon="5.42873">
        <ele>394.74</ele>
        <time>2017-02-25T13:05:43Z</time>
      </trkpt>
      <trkpt lat="45.36658" lon="5.42834">
        <ele>394.55</ele>
        <time>2017-02-25T13:05:44Z</time>
      </trkpt>
      <trkpt lat="45.3665" lon="5.42795">
        <ele>394.76</ele>
        <time>2017-02-25T13:05:45Z</time>
      </trkpt>
      <trkpt lat="45.36642" lon="5.42755">
        <ele>394.4</ele>
        <time>2017-02-25T13:05:46Z</time>
      </trkpt>
      <trkpt lat="45.36635" lon="5.42716">
        <ele>393.84</ele>
        <time>2017-02-25T13:05:47Z</time>
      </trkpt>
      <trkpt lat="45.36627" lon="5.42677">
        <ele>393.49</ele>
        <time>2017-02-25T13:05:48Z</time>
      </trkpt>
      <trkpt lat="45.3662" lon="5.42638">
        <ele>392.7</ele>
        <time>2017-02-25T13:05:49Z</time>
      </trkpt>
      <trkpt lat="45.36612" lon="5.42599">
        <ele>392.31</ele>
        <time>2017-02-25T13:05:50Z</time>
      </trkpt>
      <trkpt lat="45.36605" lon="5.4256">
        <ele>391.83</ele>
        <time>2017-02-25T13:05:51Z</time>
      </trkpt>
      <trkpt lat="45.36597" lon="5.42521">
        <ele>391.33</ele>
        <time>2017-02-25T13:05:52Z</time>
      </trkpt>
      <trkpt lat="45.3659" lon="5.42482">
        <ele>390.51</ele>
        <time>2017-02-25T13:05:53Z</time>
      </trkpt>
      <trkpt lat="45.36582" lon="5.42443">
        <ele>390.19</ele>
        <time>2017-02-25T13:05:54Z</time>
      </trkpt>
      <trkpt lat="45.36575" lon="5.42404">
        <ele>390.12</ele>
        <time>2017-02-25T13:05:55Z</time>
      </trkpt>
      <trkpt lat="45.36568" lon="5.42366">
        <ele>389.55</ele>
        <time>2017-02-25T13:05:56Z</time>
      </trkpt>
      <trkpt lat="45.36561" lon="5.42327">
        <ele>388.47</ele>
        <time>2017-02-25T13:05:57Z</time>
      </trkpt>
      <trkpt lat="45.36553" lon="5.42288">
        <ele>387.78</ele>
        <time>2017-02-25T13:05:58Z</time>
      </trkpt>
      <trkpt lat="45.36545" lon="5.42249">
        <ele>387.48</ele>
        <time>2017-02-25T13:05:59Z</time>
      </trkpt>
      <trkpt lat="45.36537" lon="5.4221">
        <ele>387.34</ele>
        <time>2017-02-25T13:06:00Z</time>
      </trkpt>
      <trkpt lat="45.3653" lon="5.42171">
        <ele>387.15</ele>
        <time>2017-02-25T13:06:01Z</time>
      </trkpt>
      <trkpt lat="45.36522" lon="5.42132">
        <ele>386.72</ele>
        <time>2017-02-25T13:06:02Z</time>
      </trkpt>
      <trkpt lat="45.36515" lon="5.42093">
        <ele>385.91</ele>
        <time>2017-02-25T13:06:03Z</time>
      </trkpt>
      <trkpt lat="45.36508" lon="5.42054">
        <ele>385.43</ele>
        <time>2017-02-25T13:06:04Z</time>
      </trkpt>
      <trkpt lat="45.365" lon="5.42016">
        <ele>384.85</ele>
        <time>2017-02-25T13:06:05Z</time>
      </trkpt>
      <trkpt lat="45.36493" lon="5.41977">
        <ele>384.49</ele>
        <time>2017-02-25T13:06:06Z</time>
      </trkpt>
      <trkpt lat="45.36486" lon="5.41938">
        <ele>383.86</ele>
        <time>2017-02-25T13:06:07Z</time>
      </trkpt>
      <trkpt lat="45.36478" lon="5.419">
        <ele>383.58</ele>
        <time>2017-02-25T13:06:08Z</time>
      </trkpt>
      <trkpt lat="45.36471" lon="5.41863">
        <ele>383.2</ele>
        <time>2017-02-25T13:06:09Z</time>
      </trkpt>
      <trkpt lat="45.36464" lon="5.41825">
        <ele>382.56</ele>
        <time>2017-02-25T13:06:10Z</time>
      </trkpt>
      <trkpt lat="45.36456" lon="5.41788">
        <ele>382.44</ele>
        <time>2017-02-25T13:06:11Z</time>
      </trkpt>
      <trkpt lat="45.36449" lon="5.41752">
        <ele>382.25</ele>
        <time>2017-02-25T13:06:12Z</time>
      </trkpt>
      <trkpt lat="45.36441" lon="5.41715">
        <ele>382.06</ele>
        <time>2017-02-25T13:06:13Z</time>
      </trkpt>
      <trkpt lat="45.36433" lon="5.41678">
        <ele>381.62</ele>
        <time>2017-02-25T13:06:14Z</time>
      </trkpt>
      <trkpt lat="45.36425" lon="5.41641">
        <ele>381.77</ele>
        <time>2017-02-25T13:06:15Z</time>
      </trkpt>
      <trkpt lat="45.36417" lon="5.41603">
        <ele>381.8</ele>
        <time>2017-02-25T13:06:16Z</time>
      </trkpt>
      <trkpt lat="45.36409" lon="5.41565">
        <ele>381.56</ele>
        <time>2017-02-25T13:06:17Z</time>
      </trkpt>
      <trkpt lat="45.36401" lon="5.41527">
        <ele>381.12</ele>
        <time>2017-02-25T13:06:18Z</time>
      </trkpt>
      <trkpt lat="45.36393" lon="5.41489">
        <ele>380.71</ele>
        <time>2017-02-25T13:06:19Z</time>
      </trkpt>
      <trkpt lat="45.36385" lon="5.41451">
        <ele>380.55</ele>
        <time>2017-02-25T13:06:20Z</time>
      </trkpt>
      <trkpt lat="45.36378" lon="5.41413">
        <ele>380.43</ele>
        <time>2017-02-25T13:06:21Z</time>
      </trkpt>
      <trkpt lat="45.3637" lon="5.41375">
        <ele>380.65</ele>
        <time>2017-02-25T13:06:22Z</time>
      </trkpt>
      <trkpt lat="45.36362" lon="5.41337">
        <ele>380.46</ele>
        <time>2017-02-25T13:06:23Z</time>
      </trkpt>
      <trkpt lat="45.36354" lon="5.41299">
        <ele>380.58</ele>
        <time>2017-02-25T13:06:24Z</time>
      </trkpt>
      <trkpt lat="45.36347" lon="5.41262">
        <ele>380.36</ele>
        <time>2017-02-25T13:06:25Z</time>
      </trkpt>
      <trkpt lat="45.3634" lon="5.41224">
        <ele>380.08</ele>
        <time>2017-02-25T13:06:26Z</time>
      </trkpt>
      <trkpt lat="45.36332" lon="5.41186">
        <ele>379.62</ele>
        <time>2017-02-25T13:06:27Z</time>
      </trkpt>
      <trkpt lat="45.36325" lon="5.41148">
        <ele>379.29</ele>
        <time>2017-02-25T13:06:28Z</time>
      </trkpt>
      <trkpt lat="45.36318" lon="5.4111">
        <ele>379.06</ele>
        <time>2017-02-25T13:06:29Z</time>
      </trkpt>
      <trkpt lat="45.36311" lon="5.41072">
        <ele>378.94</ele>
        <time>2017-02-25T13:06:30Z</time>
      </trkpt>
      <trkpt lat="45.36304" lon="5.41035">
        <ele>378.75</ele>
        <time>2017-02-25T13:06:31Z</time>
      </trkpt>
      <trkpt lat="45.36297" lon="5.40997">
        <ele>378.88</ele>
        <time>2017-02-25T13:06:32Z</time>
      </trkpt>
      <trkpt lat="45.3629" lon="5.40959">
        <ele>379.14</ele>
        <time>2017-02-25T13:06:33Z</time>
      </trkpt>
      <trkpt lat="45.36284" lon="5.40921">
        <ele>379.19</ele>
        <time>2017-02-25T13:06:34Z</time>
      </trkpt>
      <trkpt lat="45.36278" lon="5.40883">
        <ele>379.36</ele>
        <time>2017-02-25T13:06:35Z</time>
      </trkpt>
      <trkpt lat="45.36273" lon="5.40844">
        <ele>379.24</ele>
        <time>2017-02-25T13:06:36Z</time>
      </trkpt>
      <trkpt lat="45.36269" lon="5.40805">
        <ele>379.21</ele>
        <time>2017-02-25T13:06:37Z</time>
      </trkpt>
      <trkpt lat="45.36264" lon="5.40765">
        <ele>379.45</ele>
        <time>2017-02-25T13:06:38Z</time>
      </trkpt>
      <trkpt lat="45.3626" lon="5.40725">
        <ele>379.49</ele>
        <time>2017-02-25T13:06:39Z</time>
      </trkpt>
      <trkpt lat="45.36256" lon="5.40685">
        <ele>379.66</ele>
        <time>2017-02-25T13:06:40Z</time>
      </trkpt>
      <trkpt lat="45.36253" lon="5.40645">
        <ele>379.86</ele>
        <time>2017-02-25T13:06:41Z</time>
      </trkpt>
      <trkpt lat="45.36251" lon="5.40605">
        <ele>379.74</ele>
        <time>2017-02-25T13:06:42Z</time>
      </trkpt>
      <trkpt lat="45.36249" lon="5.40565">
        <ele>379.47</ele>
        <time>2017-02-25T13:06:43Z</time>
      </trkpt>
      <trkpt lat="45.36247" lon="5.40524">
        <ele>379.1</ele>
        <time>2017-02-25T13:06:44Z</time>
      </trkpt>
      <trkpt lat="45.36246" lon="5.40484">
        <ele>378.7</ele>
        <time>2017-02-25T13:06:45Z</time>
      </trkpt>
      <trkpt lat="45.36245" lon="5.40442">
        <ele>378.71</ele>
        <time>2017-02-25T13:06:46Z</time>
      </trkpt>
      <trkpt lat="45.36245" lon="5.40401">
        <ele>378.71</ele>
        <time>2017-02-25T13:06:47Z</time>
      </trkpt>
      <trkpt lat="45.36244" lon="5.4036">
        <ele>378.39</ele>
        <time>2017-02-25T13:06:48Z</time>
      </trkpt>
      <trkpt lat="45.36243" lon="5.40319">
        <ele>377.92</ele>
        <time>2017-02-25T13:06:49Z</time>
      </trkpt>
      <trkpt lat="45.36242" lon="5.40278">
        <ele>377.67</ele>
        <time>2017-02-25T13:06:50Z</time>
      </trkpt>
      <trkpt lat="45.36241" lon="5.40237">
        <ele>377.94</ele>
        <time>2017-02-25T13:06:51Z</time>
      </trkpt>
      <trkpt lat="45.3624" lon="5.40196">
        <ele>378.15</ele>
        <time>2017-02-25T13:06:52Z</time>
      </trkpt>
      <trkpt lat="45.36239" lon="5.40155">
        <ele>377.96</ele>
        <time>2017-02-25T13:06:53Z</time>
      </trkpt>
      <trkpt lat="45.36238" lon="5.40114">
        <ele>377.84</ele>
        <time>2017-02-25T13:06:54Z</time>
      </trkpt>
      <trkpt lat="45.36239" lon="5.40073">
        <ele>376.85</ele>
        <time>2017-02-25T13:06:55Z</time>
      </trkpt>
      <trkpt lat="45.36238" lon="5.40032">
        <ele>375.62</ele>
        <time>2017-02-25T13:06:56Z</time>
      </trkpt>
      <trkpt lat="45.36237" lon="5.39991">
        <ele>374.73</ele>
        <time>2017-02-25T13:06:57Z</time>
      </trkpt>
      <trkpt lat="45.36236" lon="5.3995">
        <ele>374.39</ele>
        <time>2017-02-25T13:06:58Z</time>
      </trkpt>
      <trkpt lat="45.36235" lon="5.39909">
        <ele>373.84</ele>
        <time>2017-02-25T13:06:59Z</time>
      </trkpt>
      <trkpt lat="45.36234" lon="5.39867">
        <ele>373.65</ele>
        <time>2017-02-25T13:07:00Z</time>
      </trkpt>
      <trkpt lat="45.36233" lon="5.39826">
        <ele>373.62</ele>
        <time>2017-02-25T13:07:01Z</time>
      </trkpt>
      <trkpt lat="45.36231" lon="5.39784">
        <ele>373.45</ele>
        <time>2017-02-25T13:07:02Z</time>
      </trkpt>
      <trkpt lat="45.36229" lon="5.39743">
        <ele>373.33</ele>
        <time>2017-02-25T13:07:03Z</time>
      </trkpt>
      <trkpt lat="45.36228" lon="5.39702">
        <ele>373.23</ele>
        <time>2017-02-25T13:07:04Z</time>
      </trkpt>
      <trkpt lat="45.36226" lon="5.39661">
        <ele>373.13</ele>
        <time>2017-02-25T13:07:05Z</time>
      </trkpt>
      <trkpt lat="45.36224" lon="5.3962">
        <ele>373.27</ele>
        <time>2017-02-25T13:07:06Z</time>
      </trkpt>
      <trkpt lat="45.36223" lon="5.39579">
        <ele>373.14</ele>
        <time>2017-02-25T13:07:07Z</time>
      </trkpt>
      <trkpt lat="45.36221" lon="5.39538">
        <ele>372.87</ele>
        <time>2017-02-25T13:07:08Z</time>
      </trkpt>
      <trkpt lat="45.36219" lon="5.39498">
        <ele>372.66</ele>
        <time>2017-02-25T13:07:09Z</time>
      </trkpt>
      <trkpt lat="45.36217" lon="5.39457">
        <ele>372.38</ele>
        <time>2017-02-25T13:07:10Z</time>
      </trkpt>
      <trkpt lat="45.36214" lon="5.39417">
        <ele>372.24</ele>
        <time>2017-02-25T13:07:11Z</time>
      </trkpt>
      <trkpt lat="45.36212" lon="5.39376">
        <ele>372.21</ele>
        <time>2017-02-25T13:07:12Z</time>
      </trkpt>
      <trkpt lat="45.36209" lon="5.39335">
        <ele>372.21</ele>
        <time>2017-02-25T13:07:13Z</time>
      </trkpt>
      <trkpt lat="45.36207" lon="5.39294">
        <ele>372.37</ele>
        <time>2017-02-25T13:07:14Z</time>
      </trkpt>
      <trkpt lat="45.36204" lon="5.39253">
        <ele>372.08</ele>
        <time>2017-02-25T13:07:15Z</time>
      </trkpt>
      <trkpt lat="45.36201" lon="5.39212">
        <ele>371.94</ele>
        <time>2017-02-25T13:07:16Z</time>
      </trkpt>
      <trkpt lat="45.36198" lon="5.39171">
        <ele>372.07</ele>
        <time>2017-02-25T13:07:17Z</time>
      </trkpt>
      <trkpt lat="45.36195" lon="5.3913">
        <ele>371.94</ele>
        <time>2017-02-25T13:07:18Z</time>
      </trkpt>
      <trkpt lat="45.36191" lon="5.39089">
        <ele>371.51</ele>
        <time>2017-02-25T13:07:19Z</time>
      </trkpt>
      <trkpt lat="45.36188" lon="5.39047">
        <ele>371.03</ele>
        <time>2017-02-25T13:07:20Z</time>
      </trkpt>
      <trkpt lat="45.36185" lon="5.39006">
        <ele>370.53</ele>
        <time>2017-02-25T13:07:21Z</time>
      </trkpt>
      <trkpt lat="45.36181" lon="5.38965">
        <ele>370.03</ele>
        <time>2017-02-25T13:07:22Z</time>
      </trkpt>
      <trkpt lat="45.36178" lon="5.38925">
        <ele>369.45</ele>
        <time>2017-02-25T13:07:23Z</time>
      </trkpt>
      <trkpt lat="45.36174" lon="5.38884">
        <ele>369.01</ele>
        <time>2017-02-25T13:07:24Z</time>
      </trkpt>
      <trkpt lat="45.3617" lon="5.38844">
        <ele>368.53</ele>
        <time>2017-02-25T13:07:25Z</time>
      </trkpt>
      <trkpt lat="45.36166" lon="5.38803">
        <ele>368.11</ele>
        <time>2017-02-25T13:07:26Z</time>
      </trkpt>
      <trkpt lat="45.36162" lon="5.38763">
        <ele>367.63</ele>
        <time>2017-02-25T13:07:27Z</time>
      </trkpt>
      <trkpt lat="45.36157" lon="5.38723">
        <ele>367.21</ele>
        <time>2017-02-25T13:07:28Z</time>
      </trkpt>
      <trkpt lat="45.36153" lon="5.38683">
        <ele>366.97</ele>
        <time>2017-02-25T13:07:29Z</time>
      </trkpt>
      <trkpt lat="45.36149" lon="5.38643">
        <ele>366.6</ele>
        <time>2017-02-25T13:07:30Z</time>
      </trkpt>
      <trkpt lat="45.36145" lon="5.38604">
        <ele>366.36</ele>
        <time>2017-02-25T13:07:31Z</time>
      </trkpt>
      <trkpt lat="45.36141" lon="5.38564">
        <ele>366.08</ele>
        <time>2017-02-25T13:07:32Z</time>
      </trkpt>
      <trkpt lat="45.36137" lon="5.38524">
        <ele>365.86</ele>
        <time>2017-02-25T13:07:33Z</time>
      </trkpt>
      <trkpt lat="45.36133" lon="5.38485">
        <ele>365.58</ele>
        <time>2017-02-25T13:07:34Z</time>
      </trkpt>
      <trkpt lat="45.36128" lon="5.38445">
        <ele>365.12</ele>
        <time>2017-02-25T13:07:35Z</time>
      </trkpt>
      <trkpt lat="45.36123" lon="5.38405">
        <ele>364.79</ele>
        <time>2017-02-25T13:07:36Z</time>
      </trkpt>
      <trkpt lat="45.36118" lon="5.38365">
        <ele>364.48</ele>
        <time>2017-02-25T13:07:37Z</time>
      </trkpt>
      <trkpt lat="45.36114" lon="5.38325">
        <ele>364.02</ele>
        <time>2017-02-25T13:07:38Z</time>
      </trkpt>
      <trkpt lat="45.36109" lon="5.38285">
        <ele>363.85</ele>
        <time>2017-02-25T13:07:39Z</time>
      </trkpt>
      <trkpt lat="45.36104" lon="5.38244">
        <ele>363.81</ele>
        <time>2017-02-25T13:07:40Z</time>
      </trkpt>
      <trkpt lat="45.36098" lon="5.38204">
        <ele>363.89</ele>
        <time>2017-02-25T13:07:41Z</time>
      </trkpt>
      <trkpt lat="45.36093" lon="5.38164">
        <ele>363.82</ele>
        <time>2017-02-25T13:07:42Z</time>
      </trkpt>
      <trkpt lat="45.36088" lon="5.38123">
        <ele>363.33</ele>
        <time>2017-02-25T13:07:43Z</time>
      </trkpt>
      <trkpt lat="45.36083" lon="5.38083">
        <ele>362.91</ele>
        <time>2017-02-25T13:07:44Z</time>
      </trkpt>
      <trkpt lat="45.36078" lon="5.38043">
        <ele>362.83</ele>
        <time>2017-02-25T13:07:45Z</time>
      </trkpt>
      <trkpt lat="45.36072" lon="5.38003">
        <ele>362.73</ele>
        <time>2017-02-25T13:07:46Z</time>
      </trkpt>
      <trkpt lat="45.36067" lon="5.37962">
        <ele>362.55</ele>
        <time>2017-02-25T13:07:47Z</time>
      </trkpt>
      <trkpt lat="45.36062" lon="5.37922">
        <ele>362.35</ele>
        <time>2017-02-25T13:07:48Z</time>
      </trkpt>
      <trkpt lat="45.36056" lon="5.37882">
        <ele>362.16</ele>
        <time>2017-02-25T13:07:49Z</time>
      </trkpt>
      <trkpt lat="45.3605" lon="5.37842">
        <ele>362.04</ele>
        <time>2017-02-25T13:07:50Z</time>
      </trkpt>
      <trkpt lat="45.36044" lon="5.37802">
        <ele>361.93</ele>
        <time>2017-02-25T13:07:51Z</time>
      </trkpt>
      <trkpt lat="45.36038" lon="5.37763">
        <ele>361.67</ele>
        <time>2017-02-25T13:07:52Z</time>
      </trkpt>
      <trkpt lat="45.36032" lon="5.37723">
        <ele>361.54</ele>
        <time>2017-02-25T13:07:53Z</time>
      </trkpt>
      <trkpt lat="45.36026" lon="5.37684">
        <ele>361.51</ele>
        <time>2017-02-25T13:07:54Z</time>
      </trkpt>
      <trkpt lat="45.3602" lon="5.37645">
        <ele>361.35</ele>
        <time>2017-02-25T13:07:55Z</time>
      </trkpt>
      <trkpt lat="45.36013" lon="5.37606">
        <ele>361.07</ele>
        <time>2017-02-25T13:07:56Z</time>
      </trkpt>
      <trkpt lat="45.36007" lon="5.37566">
        <ele>360.86</ele>
        <time>2017-02-25T13:07:57Z</time>
      </trkpt>
      <trkpt lat="45.36" lon="5.37527">
        <ele>360.42</ele>
        <time>2017-02-25T13:07:58Z</time>
      </trkpt>
      <trkpt lat="45.35993" lon="5.37488">
        <ele>360.17</ele>
        <time>2017-02-25T13:07:59Z</time>
      </trkpt>
      <trkpt lat="45.35987" lon="5.37449">
        <ele>359.88</ele>
        <time>2017-02-25T13:08:00Z</time>
      </trkpt>
      <trkpt lat="45.3598" lon="5.37411">
        <ele>359.58</ele>
        <time>2017-02-25T13:08:01Z</time>
      </trkpt>
      <trkpt lat="45.35973" lon="5.37372">
        <ele>359.04</ele>
        <time>2017-02-25T13:08:02Z</time>
      </trkpt>
      <trkpt lat="45.35967" lon="5.37333">
        <ele>358.61</ele>
        <time>2017-02-25T13:08:03Z</time>
      </trkpt>
      <trkpt lat="45.3596" lon="5.37295">
        <ele>358.37</ele>
        <time>2017-02-25T13:08:04Z</time>
      </trkpt>
      <trkpt lat="45.35954" lon="5.37256">
        <ele>358</ele>
        <time>2017-02-25T13:08:05Z</time>
      </trkpt>
      <trkpt lat="45.35946" lon="5.37218">
        <ele>357.68</ele>
        <time>2017-02-25T13:08:06Z</time>
      </trkpt>
      <trkpt lat="45.35939" lon="5.37179">
        <ele>357.7</ele>
        <time>2017-02-25T13:08:07Z</time>
      </trkpt>
      <trkpt lat="45.35931" lon="5.37141">
        <ele>357.47</ele>
        <time>2017-02-25T13:08:08Z</time>
      </trkpt>
      <trkpt lat="45.35924" lon="5.37103">
        <ele>357.1</ele>
        <time>2017-02-25T13:08:09Z</time>
      </trkpt>
      <trkpt lat="45.35916" lon="5.37064">
        <ele>356.62</ele>
        <time>2017-02-25T13:08:10Z</time>
      </trkpt>
      <trkpt lat="45.35909" lon="5.37026">
        <ele>356.53</ele>
        <time>2017-02-25T13:08:11Z</time>
      </trkpt>
      <trkpt lat="45.35902" lon="5.36988">
        <ele>356.35</ele>
        <time>2017-02-25T13:08:12Z</time>
      </trkpt>
      <trkpt lat="45.35894" lon="5.3695">
        <ele>356.07</ele>
        <time>2017-02-25T13:08:13Z</time>
      </trkpt>
      <trkpt lat="45.35887" lon="5.36912">
        <ele>355.94</ele>
        <time>2017-02-25T13:08:14Z</time>
      </trkpt>
      <trkpt lat="45.35879" lon="5.36874">
        <ele>355.75</ele>
        <time>2017-02-25T13:08:15Z</time>
      </trkpt>
      <trkpt lat="45.35871" lon="5.36837">
        <ele>355.48</ele>
        <time>2017-02-25T13:08:16Z</time>
      </trkpt>
      <trkpt lat="45.35863" lon="5.36799">
        <ele>355.26</ele>
        <time>2017-02-25T13:08:17Z</time>
      </trkpt>
      <trkpt lat="45.35855" lon="5.36761">
        <ele>354.9</ele>
        <time>2017-02-25T13:08:18Z</time>
      </trkpt>
      <trkpt lat="45.35847" lon="5.36723">
        <ele>354.82</ele>
        <time>2017-02-25T13:08:19Z</time>
      </trkpt>
      <trkpt lat="45.3584" lon="5.36685">
        <ele>354.57</ele>
        <time>2017-02-25T13:08:20Z</time>
      </trkpt>
      <trkpt lat="45.35832" lon="5.36648">
        <ele>354.52</ele>
        <time>2017-02-25T13:08:21Z</time>
      </trkpt>
      <trkpt lat="45.35824" lon="5.3661">
        <ele>353.95</ele>
        <time>2017-02-25T13:08:22Z</time>
      </trkpt>
      <trkpt lat="45.35816" lon="5.36573">
        <ele>353.75</ele>
        <time>2017-02-25T13:08:23Z</time>
      </trkpt>
      <trkpt lat="45.35809" lon="5.36535">
        <ele>353.72</ele>
        <time>2017-02-25T13:08:24Z</time>
      </trkpt>
      <trkpt lat="45.35801" lon="5.36498">
        <ele>354.03</ele>
        <time>2017-02-25T13:08:25Z</time>
      </trkpt>
      <trkpt lat="45.35793" lon="5.3646">
        <ele>353.85</ele>
        <time>2017-02-25T13:08:26Z</time>
      </trkpt>
      <trkpt lat="45.35785" lon="5.36422">
        <ele>353.73</ele>
        <time>2017-02-25T13:08:27Z</time>
      </trkpt>
      <trkpt lat="45.35777" lon="5.36384">
        <ele>352.75</ele>
        <time>2017-02-25T13:08:28Z</time>
      </trkpt>
      <trkpt lat="45.35769" lon="5.36346">
        <ele>352.4</ele>
        <time>2017-02-25T13:08:29Z</time>
      </trkpt>
      <trkpt lat="45.35761" lon="5.36308">
        <ele>352.4</ele>
        <time>2017-02-25T13:08:30Z</time>
      </trkpt>
      <trkpt lat="45.35752" lon="5.3627">
        <ele>352.81</ele>
        <time>2017-02-25T13:08:31Z</time>
      </trkpt>
      <trkpt lat="45.35744" lon="5.36233">
        <ele>352.81</ele>
        <time>2017-02-25T13:08:32Z</time>
      </trkpt>
      <trkpt lat="45.35735" lon="5.36195">
        <ele>352.73</ele>
        <time>2017-02-25T13:08:33Z</time>
      </trkpt>
      <trkpt lat="45.35726" lon="5.36158">
        <ele>352.23</ele>
        <time>2017-02-25T13:08:34Z</time>
      </trkpt>
      <trkpt lat="45.35717" lon="5.3612">
        <ele>352.05</ele>
        <time>2017-02-25T13:08:35Z</time>
      </trkpt>
      <trkpt lat="45.35709" lon="5.36082">
        <ele>351.61</ele>
        <time>2017-02-25T13:08:36Z</time>
      </trkpt>
      <trkpt lat="45.35701" lon="5.36045">
        <ele>350.65</ele>
        <time>2017-02-25T13:08:37Z</time>
      </trkpt>
      <trkpt lat="45.35693" lon="5.36007">
        <ele>350.13</ele>
        <time>2017-02-25T13:08:38Z</time>
      </trkpt>
      <trkpt lat="45.35686" lon="5.3597">
        <ele>349.95</ele>
        <time>2017-02-25T13:08:39Z</time>
      </trkpt>
      <trkpt lat="45.35678" lon="5.35932">
        <ele>349.6</ele>
        <time>2017-02-25T13:08:40Z</time>
      </trkpt>
      <trkpt lat="45.3567" lon="5.35893">
        <ele>349.36</ele>
        <time>2017-02-25T13:08:41Z</time>
      </trkpt>
      <trkpt lat="45.35663" lon="5.35855">
        <ele>348.76</ele>
        <time>2017-02-25T13:08:42Z</time>
      </trkpt>
      <trkpt lat="45.35655" lon="5.35816">
        <ele>348.48</ele>
        <time>2017-02-25T13:08:43Z</time>
      </trkpt>
      <trkpt lat="45.35647" lon="5.35778">
        <ele>348.02</ele>
        <time>2017-02-25T13:08:44Z</time>
      </trkpt>
      <trkpt lat="45.35639" lon="5.3574">
        <ele>347.53</ele>
        <time>2017-02-25T13:08:45Z</time>
      </trkpt>
      <trkpt lat="45.35631" lon="5.35702">
        <ele>347.35</ele>
        <time>2017-02-25T13:08:46Z</time>
      </trkpt>
      <trkpt lat="45.35623" lon="5.35664">
        <ele>347.23</ele>
        <time>2017-02-25T13:08:47Z</time>
      </trkpt>
      <trkpt lat="45.35615" lon="5.35626">
        <ele>347.13</ele>
        <time>2017-02-25T13:08:48Z</time>
      </trkpt>
      <trkpt lat="45.35607" lon="5.35588">
        <ele>347.11</ele>
        <time>2017-02-25T13:08:49Z</time>
      </trkpt>
      <trkpt lat="45.35599" lon="5.3555">
        <ele>347.27</ele>
        <time>2017-02-25T13:08:50Z</time>
      </trkpt>
      <trkpt lat="45.35591" lon="5.35512">
        <ele>347.86</ele>
        <time>2017-02-25T13:08:51Z</time>
      </trkpt>
      <trkpt lat="45.35583" lon="5.35474">
        <ele>347.98</ele>
        <time>2017-02-25T13:08:52Z</time>
      </trkpt>
      <trkpt lat="45.35575" lon="5.35436">
        <ele>348.08</ele>
        <time>2017-02-25T13:08:53Z</time>
      </trkpt>
      <trkpt lat="45.35567" lon="5.35398">
        <ele>348.5</ele>
        <time>2017-02-25T13:08:54Z</time>
      </trkpt>
      <trkpt lat="45.35558" lon="5.3536">
        <ele>348.82</ele>
        <time>2017-02-25T13:08:55Z</time>
      </trkpt>
      <trkpt lat="45.3555" lon="5.35322">
        <ele>349.05</ele>
        <time>2017-02-25T13:08:56Z</time>
      </trkpt>
      <trkpt lat="45.35542" lon="5.35284">
        <ele>348.85</ele>
        <time>2017-02-25T13:08:57Z</time>
      </trkpt>
      <trkpt lat="45.35535" lon="5.35247">
        <ele>348.66</ele>
        <time>2017-02-25T13:08:58Z</time>
      </trkpt>
      <trkpt lat="45.35527" lon="5.35209">
        <ele>348.14</ele>
        <time>2017-02-25T13:08:59Z</time>
      </trkpt>
      <trkpt lat="45.35519" lon="5.35171">
        <ele>347.63</ele>
        <time>2017-02-25T13:09:00Z</time>
      </trkpt>
      <trkpt lat="45.35511" lon="5.35134">
        <ele>347.61</ele>
        <time>2017-02-25T13:09:01Z</time>
      </trkpt>
      <trkpt lat="45.35503" lon="5.35096">
        <ele>347.69</ele>
        <time>2017-02-25T13:09:02Z</time>
      </trkpt>
      <trkpt lat="45.35495" lon="5.35058">
        <ele>347.94</ele>
        <time>2017-02-25T13:09:03Z</time>
      </trkpt>
      <trkpt lat="45.35488" lon="5.3502">
        <ele>348.47</ele>
        <time>2017-02-25T13:09:04Z</time>
      </trkpt>
      <trkpt lat="45.35481" lon="5.34981">
        <ele>348.74</ele>
        <time>2017-02-25T13:09:05Z</time>
      </trkpt>
      <trkpt lat="45.35475" lon="5.34943">
        <ele>348.95</ele>
        <time>2017-02-25T13:09:06Z</time>
      </trkpt>
      <trkpt lat="45.35469" lon="5.34904">
        <ele>348.92</ele>
        <time>2017-02-25T13:09:07Z</time>
      </trkpt>
      <trkpt lat="45.35464" lon="5.34865">
        <ele>349.31</ele>
        <time>2017-02-25T13:09:08Z</time>
      </trkpt>
      <trkpt lat="45.35459" lon="5.34826">
        <ele>349.63</ele>
        <time>2017-02-25T13:09:09Z</time>
      </trkpt>
      <trkpt lat="45.35454" lon="5.34787">
        <ele>350.09</ele>
        <time>2017-02-25T13:09:10Z</time>
      </trkpt>
      <trkpt lat="45.3545" lon="5.34747">
        <ele>350.26</ele>
        <time>2017-02-25T13:09:11Z</time>
      </trkpt>
      <trkpt lat="45.35446" lon="5.34708">
        <ele>350.38</ele>
        <time>2017-02-25T13:09:12Z</time>
      </trkpt>
      <trkpt lat="45.35442" lon="5.34668">
        <ele>350.4</ele>
        <time>2017-02-25T13:09:13Z</time>
      </trkpt>
      <trkpt lat="45.35439" lon="5.34628">
        <ele>350.56</ele>
        <time>2017-02-25T13:09:14Z</time>
      </trkpt>
      <trkpt lat="45.35436" lon="5.34589">
        <ele>350.76</ele>
        <time>2017-02-25T13:09:15Z</time>
      </trkpt>
      <trkpt lat="45.35434" lon="5.34549">
        <ele>350.8</ele>
        <time>2017-02-25T13:09:16Z</time>
      </trkpt>
      <trkpt lat="45.35433" lon="5.34508">
        <ele>350.72</ele>
        <time>2017-02-25T13:09:17Z</time>
      </trkpt>
      <trkpt lat="45.35431" lon="5.34468">
        <ele>350.71</ele>
        <time>2017-02-25T13:09:18Z</time>
      </trkpt>
      <trkpt lat="45.3543" lon="5.34428">
        <ele>350.71</ele>
        <time>2017-02-25T13:09:19Z</time>
      </trkpt>
      <trkpt lat="45.35431" lon="5.34388">
        <ele>349.99</ele>
        <time>2017-02-25T13:09:20Z</time>
      </trkpt>
      <trkpt lat="45.35431" lon="5.34348">
        <ele>349.92</ele>
        <time>2017-02-25T13:09:21Z</time>
      </trkpt>
      <trkpt lat="45.35432" lon="5.34307">
        <ele>349.59</ele>
        <time>2017-02-25T13:09:22Z</time>
      </trkpt>
      <trkpt lat="45.35433" lon="5.34268">
        <ele>348.96</ele>
        <time>2017-02-25T13:09:23Z</time>
      </trkpt>
      <trkpt lat="45.35436" lon="5.34228">
        <ele>348.12</ele>
        <time>2017-02-25T13:09:24Z</time>
      </trkpt>
      <trkpt lat="45.35438" lon="5.34189">
        <ele>347.55</ele>
        <time>2017-02-25T13:09:25Z</time>
      </trkpt>
      <trkpt lat="45.3544" lon="5.34149">
        <ele>346.87</ele>
        <time>2017-02-25T13:09:26Z</time>
      </trkpt>
      <trkpt lat="45.35443" lon="5.3411">
        <ele>346.02</ele>
        <time>2017-02-25T13:09:27Z</time>
      </trkpt>
      <trkpt lat="45.35447" lon="5.34071">
        <ele>344.81</ele>
        <time>2017-02-25T13:09:28Z</time>
      </trkpt>
      <trkpt lat="45.35452" lon="5.34032">
        <ele>344.33</ele>
        <time>2017-02-25T13:09:29Z</time>
      </trkpt>
      <trkpt lat="45.35457" lon="5.33994">
        <ele>343.11</ele>
        <time>2017-02-25T13:09:30Z</time>
      </trkpt>
      <trkpt lat="45.35463" lon="5.33955">
        <ele>341.75</ele>
        <time>2017-02-25T13:09:31Z</time>
      </trkpt>
      <trkpt lat="45.35468" lon="5.33917">
        <ele>340.75</ele>
        <time>2017-02-25T13:09:32Z</time>
      </trkpt>
      <trkpt lat="45.35474" lon="5.3388">
        <ele>340.08</ele>
        <time>2017-02-25T13:09:33Z</time>
      </trkpt>
      <trkpt lat="45.35479" lon="5.33842">
        <ele>339.7</ele>
        <time>2017-02-25T13:09:34Z</time>
      </trkpt>
      <trkpt lat="45.35484" lon="5.33805">
        <ele>339.46</ele>
        <time>2017-02-25T13:09:35Z</time>
      </trkpt>
      <trkpt lat="45.35489" lon="5.33768">
        <ele>339.18</ele>
        <time>2017-02-25T13:09:36Z</time>
      </trkpt>
      <trkpt lat="45.35494" lon="5.33731">
        <ele>338.88</ele>
        <time>2017-02-25T13:09:37Z</time>
      </trkpt>
      <trkpt lat="45.35499" lon="5.33694">
        <ele>338.74</ele>
        <time>2017-02-25T13:09:38Z</time>
      </trkpt>
      <trkpt lat="45.35504" lon="5.33658">
        <ele>338.55</ele>
        <time>2017-02-25T13:09:39Z</time>
      </trkpt>
      <trkpt lat="45.35509" lon="5.33621">
        <ele>338.44</ele>
        <time>2017-02-25T13:09:40Z</time>
      </trkpt>
      <trkpt lat="45.35514" lon="5.33585">
        <ele>338.25</ele>
        <time>2017-02-25T13:09:41Z</time>
      </trkpt>
      <trkpt lat="45.35519" lon="5.33549">
        <ele>337.9</ele>
        <time>2017-02-25T13:09:42Z</time>
      </trkpt>
      <trkpt lat="45.35524" lon="5.33513">
        <ele>337.58</ele>
        <time>2017-02-25T13:09:43Z</time>
      </trkpt>
      <trkpt lat="45.35529" lon="5.33477">
        <ele>337.28</ele>
        <time>2017-02-25T13:09:44Z</time>
      </trkpt>
      <trkpt lat="45.35533" lon="5.33441">
        <ele>336.98</ele>
        <time>2017-02-25T13:09:45Z</time>
      </trkpt>
      <trkpt lat="45.35537" lon="5.33404">
        <ele>336.6</ele>
        <time>2017-02-25T13:09:46Z</time>
      </trkpt>
      <trkpt lat="45.3554" lon="5.33367">
        <ele>336.12</ele>
        <time>2017-02-25T13:09:47Z</time>
      </trkpt>
      <trkpt lat="45.35542" lon="5.3333">
        <ele>335.63</ele>
        <time>2017-02-25T13:09:48Z</time>
      </trkpt>
      <trkpt lat="45.35545" lon="5.33292">
        <ele>335.21</ele>
        <time>2017-02-25T13:09:49Z</time>
      </trkpt>
      <trkpt lat="45.35548" lon="5.33254">
        <ele>334.33</ele>
        <time>2017-02-25T13:09:50Z</time>
      </trkpt>
      <trkpt lat="45.35551" lon="5.33216">
        <ele>333.59</ele>
        <time>2017-02-25T13:09:51Z</time>
      </trkpt>
      <trkpt lat="45.35553" lon="5.33179">
        <ele>333.12</ele>
        <time>2017-02-25T13:09:52Z</time>
      </trkpt>
      <trkpt lat="45.35556" lon="5.33141">
        <ele>332.31</ele>
        <time>2017-02-25T13:09:53Z</time>
      </trkpt>
      <trkpt lat="45.35559" lon="5.33103">
        <ele>331.51</ele>
        <time>2017-02-25T13:09:54Z</time>
      </trkpt>
      <trkpt lat="45.35562" lon="5.33066">
        <ele>330.79</ele>
        <time>2017-02-25T13:09:55Z</time>
      </trkpt>
      <trkpt lat="45.35565" lon="5.33028">
        <ele>330.4</ele>
        <time>2017-02-25T13:09:56Z</time>
      </trkpt>
      <trkpt lat="45.35568" lon="5.32991">
        <ele>329.45</ele>
        <time>2017-02-25T13:09:57Z</time>
      </trkpt>
      <trkpt lat="45.35572" lon="5.32953">
        <ele>328.53</ele>
        <time>2017-02-25T13:09:58Z</time>
      </trkpt>
      <trkpt lat="45.35575" lon="5.32916">
        <ele>327.63</ele>
        <time>2017-02-25T13:09:59Z</time>
      </trkpt>
      <trkpt lat="45.35577" lon="5.32878">
        <ele>327.13</ele>
        <time>2017-02-25T13:10:00Z</time>
      </trkpt>
      <trkpt lat="45.3558" lon="5.3284">
        <ele>326.47</ele>
        <time>2017-02-25T13:10:01Z</time>
      </trkpt>
      <trkpt lat="45.35583" lon="5.32801">
        <ele>325.86</ele>
        <time>2017-02-25T13:10:02Z</time>
      </trkpt>
      <trkpt lat="45.35586" lon="5.32762">
        <ele>325.66</ele>
        <time>2017-02-25T13:10:03Z</time>
      </trkpt>
      <trkpt lat="45.35589" lon="5.32723">
        <ele>325.54</ele>
        <time>2017-02-25T13:10:04Z</time>
      </trkpt>
      <trkpt lat="45.35591" lon="5.32684">
        <ele>325.67</ele>
        <time>2017-02-25T13:10:05Z</time>
      </trkpt>
      <trkpt lat="45.35594" lon="5.32646">
        <ele>325.7</ele>
        <time>2017-02-25T13:10:06Z</time>
      </trkpt>
      <trkpt lat="45.35598" lon="5.32607">
        <ele>325.38</ele>
        <time>2017-02-25T13:10:07Z</time>
      </trkpt>
      <trkpt lat="45.35601" lon="5.32569">
        <ele>325.16</ele>
        <time>2017-02-25T13:10:08Z</time>
      </trkpt>
      <trkpt lat="45.35606" lon="5.3253">
        <ele>324.48</ele>
        <time>2017-02-25T13:10:09Z</time>
      </trkpt>
      <trkpt lat="45.3561" lon="5.32492">
        <ele>323.78</ele>
        <time>2017-02-25T13:10:10Z</time>
      </trkpt>
      <trkpt lat="45.35616" lon="5.32454">
        <ele>323</ele>
        <time>2017-02-25T13:10:11Z</time>
      </trkpt>
      <trkpt lat="45.35622" lon="5.32415">
        <ele>322.28</ele>
        <time>2017-02-25T13:10:12Z</time>
      </trkpt>
      <trkpt lat="45.35629" lon="5.32376">
        <ele>321.42</ele>
        <time>2017-02-25T13:10:13Z</time>
      </trkpt>
      <trkpt lat="45.35636" lon="5.32337">
        <ele>321.17</ele>
        <time>2017-02-25T13:10:14Z</time>
      </trkpt>
      <trkpt lat="45.35643" lon="5.32298">
        <ele>321.2</ele>
        <time>2017-02-25T13:10:15Z</time>
      </trkpt>
      <trkpt lat="45.35651" lon="5.32259">
        <ele>320.96</ele>
        <time>2017-02-25T13:10:16Z</time>
      </trkpt>
      <trkpt lat="45.35659" lon="5.3222">
        <ele>320.84</ele>
        <time>2017-02-25T13:10:17Z</time>
      </trkpt>
      <trkpt lat="45.35668" lon="5.32182">
        <ele>320.33</ele>
        <time>2017-02-25T13:10:18Z</time>
      </trkpt>
      <trkpt lat="45.35677" lon="5.32143">
        <ele>319.83</ele>
        <time>2017-02-25T13:10:19Z</time>
      </trkpt>
      <trkpt lat="45.35687" lon="5.32105">
        <ele>319.33</ele>
        <time>2017-02-25T13:10:20Z</time>
      </trkpt>
      <trkpt lat="45.35698" lon="5.32067">
        <ele>319.07</ele>
        <time>2017-02-25T13:10:21Z</time>
      </trkpt>
      <trkpt lat="45.35709" lon="5.3203">
        <ele>318.94</ele>
        <time>2017-02-25T13:10:22Z</time>
      </trkpt>
      <trkpt lat="45.35721" lon="5.31994">
        <ele>318.91</ele>
        <time>2017-02-25T13:10:23Z</time>
      </trkpt>
      <trkpt lat="45.35732" lon="5.31958">
        <ele>318.91</ele>
        <time>2017-02-25T13:10:24Z</time>
      </trkpt>
      <trkpt lat="45.35744" lon="5.31922">
        <ele>319.15</ele>
        <time>2017-02-25T13:10:25Z</time>
      </trkpt>
      <trkpt lat="45.35757" lon="5.31886">
        <ele>319.59</ele>
        <time>2017-02-25T13:10:26Z</time>
      </trkpt>
      <trkpt lat="45.3577" lon="5.31851">
        <ele>319.84</ele>
        <time>2017-02-25T13:10:27Z</time>
      </trkpt>
      <trkpt lat="45.35783" lon="5.31816">
        <ele>320.05</ele>
        <time>2017-02-25T13:10:28Z</time>
      </trkpt>
      <trkpt lat="45.35796" lon="5.31782">
        <ele>320.1</ele>
        <time>2017-02-25T13:10:29Z</time>
      </trkpt>
      <trkpt lat="45.35809" lon="5.31747">
        <ele>320.34</ele>
        <time>2017-02-25T13:10:30Z</time>
      </trkpt>
      <trkpt lat="45.35822" lon="5.31712">
        <ele>320.55</ele>
        <time>2017-02-25T13:10:31Z</time>
      </trkpt>
      <trkpt lat="45.35835" lon="5.31678">
        <ele>320.68</ele>
        <time>2017-02-25T13:10:32Z</time>
      </trkpt>
      <trkpt lat="45.35847" lon="5.31642">
        <ele>320.78</ele>
        <time>2017-02-25T13:10:33Z</time>
      </trkpt>
      <trkpt lat="45.3586" lon="5.31607">
        <ele>320.8</ele>
        <time>2017-02-25T13:10:34Z</time>
      </trkpt>
      <trkpt lat="45.35872" lon="5.31572">
        <ele>320.64</ele>
        <time>2017-02-25T13:10:35Z</time>
      </trkpt>
      <trkpt lat="45.35885" lon="5.31537">
        <ele>320.37</ele>
        <time>2017-02-25T13:10:36Z</time>
      </trkpt>
      <trkpt lat="45.35898" lon="5.31502">
        <ele>320.32</ele>
        <time>2017-02-25T13:10:37Z</time>
      </trkpt>
      <trkpt lat="45.35911" lon="5.31467">
        <ele>320.23</ele>
        <time>2017-02-25T13:10:38Z</time>
      </trkpt>
      <trkpt lat="45.35924" lon="5.31431">
        <ele>320.37</ele>
        <time>2017-02-25T13:10:39Z</time>
      </trkpt>
      <trkpt lat="45.35937" lon="5.31396">
        <ele>320</ele>
        <time>2017-02-25T13:10:40Z</time>
      </trkpt>
      <trkpt lat="45.35949" lon="5.3136">
        <ele>319.52</ele>
        <time>2017-02-25T13:10:41Z</time>
      </trkpt>
      <trkpt lat="45.35961" lon="5.31324">
        <ele>319.35</ele>
        <time>2017-02-25T13:10:42Z</time>
      </trkpt>
      <trkpt lat="45.35972" lon="5.31287">
        <ele>319.23</ele>
        <time>2017-02-25T13:10:43Z</time>
      </trkpt>
      <trkpt lat="45.35982" lon="5.31251">
        <ele>319.37</ele>
        <time>2017-02-25T13:10:44Z</time>
      </trkpt>
      <trkpt lat="45.35991" lon="5.31214">
        <ele>319.24</ele>
        <time>2017-02-25T13:10:45Z</time>
      </trkpt>
      <trkpt lat="45.36001" lon="5.31177">
        <ele>319.29</ele>
        <time>2017-02-25T13:10:46Z</time>
      </trkpt>
      <trkpt lat="45.3601" lon="5.31141">
        <ele>319.46</ele>
        <time>2017-02-25T13:10:47Z</time>
      </trkpt>
      <trkpt lat="45.36018" lon="5.31103">
        <ele>319.5</ele>
        <time>2017-02-25T13:10:48Z</time>
      </trkpt>
      <trkpt lat="45.36027" lon="5.31066">
        <ele>319.42</ele>
        <time>2017-02-25T13:10:49Z</time>
      </trkpt>
      <trkpt lat="45.36034" lon="5.31029">
        <ele>319.65</ele>
        <time>2017-02-25T13:10:50Z</time>
      </trkpt>
      <trkpt lat="45.36041" lon="5.30992">
        <ele>319.77</ele>
        <time>2017-02-25T13:10:51Z</time>
      </trkpt>
      <trkpt lat="45.36047" lon="5.30955">
        <ele>319.72</ele>
        <time>2017-02-25T13:10:52Z</time>
      </trkpt>
      <trkpt lat="45.36053" lon="5.30918">
        <ele>319.55</ele>
        <time>2017-02-25T13:10:53Z</time>
      </trkpt>
      <trkpt lat="45.36058" lon="5.3088">
        <ele>319.35</ele>
        <time>2017-02-25T13:10:54Z</time>
      </trkpt>
      <trkpt lat="45.36063" lon="5.30842">
        <ele>319.24</ele>
        <time>2017-02-25T13:10:55Z</time>
      </trkpt>
      <trkpt lat="45.36067" lon="5.30805">
        <ele>319.05</ele>
        <time>2017-02-25T13:10:56Z</time>
      </trkpt>
      <trkpt lat="45.3607" lon="5.30768">
        <ele>318.86</ele>
        <time>2017-02-25T13:10:57Z</time>
      </trkpt>
      <trkpt lat="45.36072" lon="5.30733">
        <ele>318.58</ele>
        <time>2017-02-25T13:10:58Z</time>
      </trkpt>
      <trkpt lat="45.36075" lon="5.30698">
        <ele>318.04</ele>
        <time>2017-02-25T13:10:59Z</time>
      </trkpt>
      <trkpt lat="45.36076" lon="5.30664">
        <ele>317.53</ele>
        <time>2017-02-25T13:11:00Z</time>
      </trkpt>
      <trkpt lat="45.36078" lon="5.3063">
        <ele>317.11</ele>
        <time>2017-02-25T13:11:01Z</time>
      </trkpt>
      <trkpt lat="45.36079" lon="5.30597">
        <ele>316.79</ele>
        <time>2017-02-25T13:11:02Z</time>
      </trkpt>
      <trkpt lat="45.3608" lon="5.30564">
        <ele>316.4</ele>
        <time>2017-02-25T13:11:03Z</time>
      </trkpt>
      <trkpt lat="45.36081" lon="5.30531">
        <ele>316.25</ele>
        <time>2017-02-25T13:11:04Z</time>
      </trkpt>
      <trkpt lat="45.36081" lon="5.30499">
        <ele>316.29</ele>
        <time>2017-02-25T13:11:05Z</time>
      </trkpt>
      <trkpt lat="45.36081" lon="5.30466">
        <ele>316.14</ele>
        <time>2017-02-25T13:11:06Z</time>
      </trkpt>
      <trkpt lat="45.36081" lon="5.30434">
        <ele>316.11</ele>
        <time>2017-02-25T13:11:07Z</time>
      </trkpt>
      <trkpt lat="45.3608" lon="5.30403">
        <ele>315.87</ele>
        <time>2017-02-25T13:11:08Z</time>
      </trkpt>
      <trkpt lat="45.36079" lon="5.30372">
        <ele>315.66</ele>
        <time>2017-02-25T13:11:09Z</time>
      </trkpt>
      <trkpt lat="45.36077" lon="5.30342">
        <ele>315.62</ele>
        <time>2017-02-25T13:11:10Z</time>
      </trkpt>
      <trkpt lat="45.36076" lon="5.30312">
        <ele>315.61</ele>
        <time>2017-02-25T13:11:11Z</time>
      </trkpt>
      <trkpt lat="45.36074" lon="5.30283">
        <ele>315.21</ele>
        <time>2017-02-25T13:11:12Z</time>
      </trkpt>
      <trkpt lat="45.36071" lon="5.30254">
        <ele>315.29</ele>
        <time>2017-02-25T13:11:13Z</time>
      </trkpt>
      <trkpt lat="45.36069" lon="5.30226">
        <ele>315.3</ele>
        <time>2017-02-25T13:11:14Z</time>
      </trkpt>
      <trkpt lat="45.36066" lon="5.30199">
        <ele>315.39</ele>
        <time>2017-02-25T13:11:15Z</time>
      </trkpt>
      <trkpt lat="45.36063" lon="5.30174">
        <ele>315.56</ele>
        <time>2017-02-25T13:11:16Z</time>
      </trkpt>
      <trkpt lat="45.36061" lon="5.3015">
        <ele>315.36</ele>
        <time>2017-02-25T13:11:17Z</time>
      </trkpt>
      <trkpt lat="45.36058" lon="5.30127">
        <ele>315.16</ele>
        <time>2017-02-25T13:11:18Z</time>
      </trkpt>
      <trkpt lat="45.36055" lon="5.30103">
        <ele>315.28</ele>
        <time>2017-02-25T13:11:19Z</time>
      </trkpt>
      <trkpt lat="45.36053" lon="5.30081">
        <ele>315.22</ele>
        <time>2017-02-25T13:11:20Z</time>
      </trkpt>
      <trkpt lat="45.3605" lon="5.30059">
        <ele>315.13</ele>
        <time>2017-02-25T13:11:21Z</time>
      </trkpt>
      <trkpt lat="45.36047" lon="5.30038">
        <ele>315.03</ele>
        <time>2017-02-25T13:11:22Z</time>
      </trkpt>
      <trkpt lat="45.36045" lon="5.30019">
        <ele>314.93</ele>
        <time>2017-02-25T13:11:23Z</time>
      </trkpt>
      <trkpt lat="45.36043" lon="5.3">
        <ele>314.91</ele>
        <time>2017-02-25T13:11:24Z</time>
      </trkpt>
      <trkpt lat="45.36041" lon="5.29982">
        <ele>314.75</ele>
        <time>2017-02-25T13:11:25Z</time>
      </trkpt>
      <trkpt lat="45.36039" lon="5.29964">
        <ele>314.47</ele>
        <time>2017-02-25T13:11:26Z</time>
      </trkpt>
      <trkpt lat="45.36037" lon="5.29946">
        <ele>314.34</ele>
        <time>2017-02-25T13:11:27Z</time>
      </trkpt>
      <trkpt lat="45.36034" lon="5.29928">
        <ele>314.31</ele>
        <time>2017-02-25T13:11:28Z</time>
      </trkpt>
      <trkpt lat="45.36032" lon="5.29911">
        <ele>313.99</ele>
        <time>2017-02-25T13:11:29Z</time>
      </trkpt>
      <trkpt lat="45.3603" lon="5.29893">
        <ele>313.84</ele>
        <time>2017-02-25T13:11:30Z</time>
      </trkpt>
      <trkpt lat="45.36027" lon="5.29874">
        <ele>313.65</ele>
        <time>2017-02-25T13:11:31Z</time>
      </trkpt>
      <trkpt lat="45.36024" lon="5.29853">
        <ele>313.62</ele>
        <time>2017-02-25T13:11:32Z</time>
      </trkpt>
      <trkpt lat="45.36021" lon="5.29832">
        <ele>313.53</ele>
        <time>2017-02-25T13:11:33Z</time>
      </trkpt>
      <trkpt lat="45.36021" lon="5.29813">
        <ele>313.67</ele>
        <time>2017-02-25T13:11:34Z</time>
      </trkpt>
      <trkpt lat="45.36023" lon="5.29796">
        <ele>313.62</ele>
        <time>2017-02-25T13:11:35Z</time>
      </trkpt>
      <trkpt lat="45.36027" lon="5.29781">
        <ele>313.61</ele>
        <time>2017-02-25T13:11:36Z</time>
      </trkpt>
      <trkpt lat="45.3603" lon="5.29767">
        <ele>313.45</ele>
        <time>2017-02-25T13:11:37Z</time>
      </trkpt>
      <trkpt lat="45.3603" lon="5.29753">
        <ele>313.49</ele>
        <time>2017-02-25T13:11:38Z</time>
      </trkpt>
      <trkpt lat="45.36027" lon="5.29741">
        <ele>313.26</ele>
        <time>2017-02-25T13:11:39Z</time>
      </trkpt>
      <trkpt lat="45.36022" lon="5.29728">
        <ele>313.3</ele>
        <time>2017-02-25T13:11:40Z</time>
      </trkpt>
      <trkpt lat="45.36013" lon="5.2972">
        <ele>313.22</ele>
        <time>2017-02-25T13:11:41Z</time>
      </trkpt>
      <trkpt lat="45.36002" lon="5.29716">
        <ele>312.89</ele>
        <time>2017-02-25T13:11:42Z</time>
      </trkpt>
      <trkpt lat="45.35992" lon="5.29713">
        <ele>312.42</ele>
        <time>2017-02-25T13:11:43Z</time>
      </trkpt>
      <trkpt lat="45.35981" lon="5.2971">
        <ele>311.85</ele>
        <time>2017-02-25T13:11:44Z</time>
      </trkpt>
      <trkpt lat="45.35971" lon="5.29701">
        <ele>311.25</ele>
        <time>2017-02-25T13:11:45Z</time>
      </trkpt>
      <trkpt lat="45.35961" lon="5.29687">
        <ele>310.82</ele>
        <time>2017-02-25T13:11:46Z</time>
      </trkpt>
      <trkpt lat="45.35952" lon="5.29669">
        <ele>310.57</ele>
        <time>2017-02-25T13:11:47Z</time>
      </trkpt>
      <trkpt lat="45.35943" lon="5.2965">
        <ele>310.44</ele>
        <time>2017-02-25T13:11:48Z</time>
      </trkpt>
      <trkpt lat="45.35933" lon="5.2963">
        <ele>310.17</ele>
        <time>2017-02-25T13:11:49Z</time>
      </trkpt>
      <trkpt lat="45.35923" lon="5.29611">
        <ele>309.96</ele>
        <time>2017-02-25T13:11:50Z</time>
      </trkpt>
      <trkpt lat="45.35911" lon="5.29591">
        <ele>309.6</ele>
        <time>2017-02-25T13:11:51Z</time>
      </trkpt>
      <trkpt lat="45.35899" lon="5.29569">
        <ele>309.2</ele>
        <time>2017-02-25T13:11:52Z</time>
      </trkpt>
      <trkpt lat="45.35885" lon="5.29545">
        <ele>309.21</ele>
        <time>2017-02-25T13:11:53Z</time>
      </trkpt>
      <trkpt lat="45.35871" lon="5.29519">
        <ele>308.97</ele>
        <time>2017-02-25T13:11:54Z</time>
      </trkpt>
      <trkpt lat="45.35857" lon="5.29491">
        <ele>308.68</ele>
        <time>2017-02-25T13:11:55Z</time>
      </trkpt>
      <trkpt lat="45.35842" lon="5.29463">
        <ele>308.46</ele>
        <time>2017-02-25T13:11:56Z</time>
      </trkpt>
      <trkpt lat="45.35827" lon="5.29436">
        <ele>308.5</ele>
        <time>2017-02-25T13:11:57Z</time>
      </trkpt>
      <trkpt lat="45.35811" lon="5.2941">
        <ele>308.26</ele>
        <time>2017-02-25T13:11:58Z</time>
      </trkpt>
      <trkpt lat="45.35796" lon="5.29384">
        <ele>307.9</ele>
        <time>2017-02-25T13:11:59Z</time>
      </trkpt>
      <trkpt lat="45.35781" lon="5.29358">
        <ele>307.74</ele>
        <time>2017-02-25T13:12:00Z</time>
      </trkpt>
      <trkpt lat="45.35766" lon="5.29333">
        <ele>307.39</ele>
        <time>2017-02-25T13:12:01Z</time>
      </trkpt>
      <trkpt lat="45.35751" lon="5.29307">
        <ele>307.32</ele>
        <time>2017-02-25T13:12:02Z</time>
      </trkpt>
      <trkpt lat="45.35736" lon="5.29282">
        <ele>307.39</ele>
        <time>2017-02-25T13:12:03Z</time>
      </trkpt>
      <trkpt lat="45.35721" lon="5.29258">
        <ele>307.48</ele>
        <time>2017-02-25T13:12:04Z</time>
      </trkpt>
      <trkpt lat="45.35706" lon="5.29233">
        <ele>307.58</ele>
        <time>2017-02-25T13:12:05Z</time>
      </trkpt>
      <trkpt lat="45.35691" lon="5.29208">
        <ele>307.28</ele>
        <time>2017-02-25T13:12:06Z</time>
      </trkpt>
      <trkpt lat="45.35675" lon="5.29183">
        <ele>307.14</ele>
        <time>2017-02-25T13:12:07Z</time>
      </trkpt>
      <trkpt lat="45.3566" lon="5.29158">
        <ele>306.95</ele>
        <time>2017-02-25T13:12:08Z</time>
      </trkpt>
      <trkpt lat="45.35644" lon="5.29133">
        <ele>306.68</ele>
        <time>2017-02-25T13:12:09Z</time>
      </trkpt>
      <trkpt lat="45.35628" lon="5.29108">
        <ele>306.7</ele>
        <time>2017-02-25T13:12:10Z</time>
      </trkpt>
      <trkpt lat="45.35612" lon="5.29084">
        <ele>306.62</ele>
        <time>2017-02-25T13:12:11Z</time>
      </trkpt>
      <trkpt lat="45.35597" lon="5.29059">
        <ele>306.61</ele>
        <time>2017-02-25T13:12:12Z</time>
      </trkpt>
      <trkpt lat="45.35581" lon="5.29035">
        <ele>306.69</ele>
        <time>2017-02-25T13:12:13Z</time>
      </trkpt>
      <trkpt lat="45.35564" lon="5.2901">
        <ele>306.54</ele>
        <time>2017-02-25T13:12:14Z</time>
      </trkpt>
      <trkpt lat="45.35548" lon="5.28987">
        <ele>305.95</ele>
        <time>2017-02-25T13:12:15Z</time>
      </trkpt>
      <trkpt lat="45.35532" lon="5.28963">
        <ele>305.52</ele>
        <time>2017-02-25T13:12:16Z</time>
      </trkpt>
      <trkpt lat="45.35515" lon="5.28939">
        <ele>305.27</ele>
        <time>2017-02-25T13:12:17Z</time>
      </trkpt>
      <trkpt lat="45.35499" lon="5.28915">
        <ele>305.06</ele>
        <time>2017-02-25T13:12:18Z</time>
      </trkpt>
      <trkpt lat="45.35482" lon="5.28891">
        <ele>304.7</ele>
        <time>2017-02-25T13:12:19Z</time>
      </trkpt>
      <trkpt lat="45.35465" lon="5.28867">
        <ele>304.46</ele>
        <time>2017-02-25T13:12:20Z</time>
      </trkpt>
      <trkpt lat="45.35447" lon="5.28844">
        <ele>304.42</ele>
        <time>2017-02-25T13:12:21Z</time>
      </trkpt>
      <trkpt lat="45.3543" lon="5.2882">
        <ele>304.41</ele>
        <time>2017-02-25T13:12:22Z</time>
      </trkpt>
      <trkpt lat="45.35413" lon="5.28796">
        <ele>304.25</ele>
        <time>2017-02-25T13:12:23Z</time>
      </trkpt>
      <trkpt lat="45.35396" lon="5.28773">
        <ele>304.05</ele>
        <time>2017-02-25T13:12:24Z</time>
      </trkpt>
      <trkpt lat="45.35379" lon="5.28749">
        <ele>303.94</ele>
        <time>2017-02-25T13:12:25Z</time>
      </trkpt>
      <trkpt lat="45.35362" lon="5.28725">
        <ele>303.83</ele>
        <time>2017-02-25T13:12:26Z</time>
      </trkpt>
      <trkpt lat="45.35345" lon="5.28702">
        <ele>303.41</ele>
        <time>2017-02-25T13:12:27Z</time>
      </trkpt>
      <trkpt lat="45.35329" lon="5.28678">
        <ele>303.09</ele>
        <time>2017-02-25T13:12:28Z</time>
      </trkpt>
      <trkpt lat="45.35312" lon="5.28655">
        <ele>302.62</ele>
        <time>2017-02-25T13:12:29Z</time>
      </trkpt>
      <trkpt lat="45.35295" lon="5.28631">
        <ele>302.37</ele>
        <time>2017-02-25T13:12:30Z</time>
      </trkpt>
      <trkpt lat="45.35278" lon="5.28608">
        <ele>302.16</ele>
        <time>2017-02-25T13:12:31Z</time>
      </trkpt>
      <trkpt lat="45.35262" lon="5.28585">
        <ele>301.88</ele>
        <time>2017-02-25T13:12:32Z</time>
      </trkpt>
      <trkpt lat="45.35245" lon="5.28561">
        <ele>301.82</ele>
        <time>2017-02-25T13:12:33Z</time>
      </trkpt>
      <trkpt lat="45.35229" lon="5.28538">
        <ele>301.65</ele>
        <time>2017-02-25T13:12:34Z</time>
      </trkpt>
      <trkpt lat="45.35212" lon="5.28514">
        <ele>301.53</ele>
        <time>2017-02-25T13:12:35Z</time>
      </trkpt>
      <trkpt lat="45.35196" lon="5.28491">
        <ele>301.59</ele>
        <time>2017-02-25T13:12:36Z</time>
      </trkpt>
      <trkpt lat="45.3518" lon="5.28468">
        <ele>302</ele>
        <time>2017-02-25T13:12:37Z</time>
      </trkpt>
      <trkpt lat="45.35163" lon="5.28444">
        <ele>302.81</ele>
        <time>2017-02-25T13:12:38Z</time>
      </trkpt>
      <trkpt lat="45.35148" lon="5.28421">
        <ele>303.29</ele>
        <time>2017-02-25T13:12:39Z</time>
      </trkpt>
      <trkpt lat="45.35132" lon="5.28397">
        <ele>303.86</ele>
        <time>2017-02-25T13:12:40Z</time>
      </trkpt>
      <trkpt lat="45.35117" lon="5.28373">
        <ele>304.14</ele>
        <time>2017-02-25T13:12:41Z</time>
      </trkpt>
      <trkpt lat="45.35103" lon="5.2835">
        <ele>304.11</ele>
        <time>2017-02-25T13:12:42Z</time>
      </trkpt>
      <trkpt lat="45.35089" lon="5.28328">
        <ele>304.03</ele>
        <time>2017-02-25T13:12:43Z</time>
      </trkpt>
      <trkpt lat="45.35076" lon="5.28307">
        <ele>304.09</ele>
        <time>2017-02-25T13:12:44Z</time>
      </trkpt>
      <trkpt lat="45.35064" lon="5.28287">
        <ele>304.18</ele>
        <time>2017-02-25T13:12:45Z</time>
      </trkpt>
      <trkpt lat="45.35053" lon="5.2827">
        <ele>304.44</ele>
        <time>2017-02-25T13:12:46Z</time>
      </trkpt>
      <trkpt lat="45.35044" lon="5.28254">
        <ele>304.73</ele>
        <time>2017-02-25T13:12:47Z</time>
      </trkpt>
      <trkpt lat="45.35038" lon="5.28238">
        <ele>304.15</ele>
        <time>2017-02-25T13:12:48Z</time>
      </trkpt>
      <trkpt lat="45.35034" lon="5.28224">
        <ele>304.04</ele>
        <time>2017-02-25T13:12:49Z</time>
      </trkpt>
      <trkpt lat="45.35031" lon="5.28209">
        <ele>304.17</ele>
        <time>2017-02-25T13:12:50Z</time>
      </trkpt>
      <trkpt lat="45.35029" lon="5.28194">
        <ele>304.12</ele>
        <time>2017-02-25T13:12:51Z</time>
      </trkpt>
      <trkpt lat="45.35027" lon="5.28178">
        <ele>304.03</ele>
        <time>2017-02-25T13:12:52Z</time>
      </trkpt>
      <trkpt lat="45.35024" lon="5.28163">
        <ele>304.09</ele>
        <time>2017-02-25T13:12:53Z</time>
      </trkpt>
      <trkpt lat="45.35019" lon="5.28149">
        <ele>304.1</ele>
        <time>2017-02-25T13:12:54Z</time>
      </trkpt>
      <trkpt lat="45.35014" lon="5.28132">
        <ele>303.47</ele>
        <time>2017-02-25T13:12:55Z</time>
      </trkpt>
      <trkpt lat="45.3501" lon="5.28114">
        <ele>303.1</ele>
        <time>2017-02-25T13:12:56Z</time>
      </trkpt>
      <trkpt lat="45.35009" lon="5.28095">
        <ele>302.54</ele>
        <time>2017-02-25T13:12:57Z</time>
      </trkpt>
      <trkpt lat="45.35009" lon="5.28074">
        <ele>302.35</ele>
        <time>2017-02-25T13:12:58Z</time>
      </trkpt>
      <trkpt lat="45.35009" lon="5.28052">
        <ele>302.24</ele>
        <time>2017-02-25T13:12:59Z</time>
      </trkpt>
      <trkpt lat="45.35009" lon="5.2803">
        <ele>302.13</ele>
        <time>2017-02-25T13:13:00Z</time>
      </trkpt>
      <trkpt lat="45.35008" lon="5.28007">
        <ele>301.95</ele>
        <time>2017-02-25T13:13:01Z</time>
      </trkpt>
      <trkpt lat="45.35007" lon="5.27984">
        <ele>301.84</ele>
        <time>2017-02-25T13:13:02Z</time>
      </trkpt>
      <trkpt lat="45.35005" lon="5.27961">
        <ele>301.81</ele>
        <time>2017-02-25T13:13:03Z</time>
      </trkpt>
      <trkpt lat="45.35004" lon="5.27938">
        <ele>301.81</ele>
        <time>2017-02-25T13:13:04Z</time>
      </trkpt>
      <trkpt lat="45.35002" lon="5.27915">
        <ele>301.73</ele>
        <time>2017-02-25T13:13:05Z</time>
      </trkpt>
      <trkpt lat="45.35" lon="5.27892">
        <ele>301.55</ele>
        <time>2017-02-25T13:13:06Z</time>
      </trkpt>
      <trkpt lat="45.34999" lon="5.27869">
        <ele>301.35</ele>
        <time>2017-02-25T13:13:07Z</time>
      </trkpt>
      <trkpt lat="45.34997" lon="5.27846">
        <ele>301.24</ele>
        <time>2017-02-25T13:13:08Z</time>
      </trkpt>
      <trkpt lat="45.34996" lon="5.27823">
        <ele>301.37</ele>
        <time>2017-02-25T13:13:09Z</time>
      </trkpt>
      <trkpt lat="45.34994" lon="5.278">
        <ele>301.24</ele>
        <time>2017-02-25T13:13:10Z</time>
      </trkpt>
      <trkpt lat="45.34993" lon="5.27777">
        <ele>301.13</ele>
        <time>2017-02-25T13:13:11Z</time>
      </trkpt>
      <trkpt lat="45.34991" lon="5.27755">
        <ele>300.95</ele>
        <time>2017-02-25T13:13:12Z</time>
      </trkpt>
      <trkpt lat="45.34989" lon="5.27731">
        <ele>300.76</ele>
        <time>2017-02-25T13:13:13Z</time>
      </trkpt>
      <trkpt lat="45.34988" lon="5.27708">
        <ele>300.8</ele>
        <time>2017-02-25T13:13:14Z</time>
      </trkpt>
      <trkpt lat="45.34986" lon="5.27684">
        <ele>300.72</ele>
        <time>2017-02-25T13:13:15Z</time>
      </trkpt>
      <trkpt lat="45.34984" lon="5.2766">
        <ele>301.03</ele>
        <time>2017-02-25T13:13:16Z</time>
      </trkpt>
      <trkpt lat="45.34982" lon="5.27635">
        <ele>301.57</ele>
        <time>2017-02-25T13:13:17Z</time>
      </trkpt>
      <trkpt lat="45.3498" lon="5.27611">
        <ele>301.76</ele>
        <time>2017-02-25T13:13:18Z</time>
      </trkpt>
      <trkpt lat="45.34979" lon="5.27587">
        <ele>301.64</ele>
        <time>2017-02-25T13:13:19Z</time>
      </trkpt>
      <trkpt lat="45.34977" lon="5.27562">
        <ele>301.45</ele>
        <time>2017-02-25T13:13:20Z</time>
      </trkpt>
      <trkpt lat="45.34976" lon="5.27538">
        <ele>301.58</ele>
        <time>2017-02-25T13:13:21Z</time>
      </trkpt>
      <trkpt lat="45.34974" lon="5.27514">
        <ele>301.92</ele>
        <time>2017-02-25T13:13:22Z</time>
      </trkpt>
      <trkpt lat="45.34974" lon="5.27489">
        <ele>301.83</ele>
        <time>2017-02-25T13:13:23Z</time>
      </trkpt>
      <trkpt lat="45.34973" lon="5.27463">
        <ele>301.89</ele>
        <time>2017-02-25T13:13:24Z</time>
      </trkpt>
      <trkpt lat="45.34971" lon="5.27436">
        <ele>302.14</ele>
        <time>2017-02-25T13:13:25Z</time>
      </trkpt>
      <trkpt lat="45.34969" lon="5.27409">
        <ele>302.11</ele>
        <time>2017-02-25T13:13:26Z</time>
      </trkpt>
      <trkpt lat="45.34967" lon="5.27381">
        <ele>301.95</ele>
        <time>2017-02-25T13:13:27Z</time>
      </trkpt>
      <trkpt lat="45.34965" lon="5.27353">
        <ele>301.67</ele>
        <time>2017-02-25T13:13:28Z</time>
      </trkpt>
      <trkpt lat="45.34963" lon="5.27325">
        <ele>300.98</ele>
        <time>2017-02-25T13:13:29Z</time>
      </trkpt>
      <trkpt lat="45.34961" lon="5.27297">
        <ele>300.52</ele>
        <time>2017-02-25T13:13:30Z</time>
      </trkpt>
      <trkpt lat="45.34959" lon="5.27269">
        <ele>300.19</ele>
        <time>2017-02-25T13:13:31Z</time>
      </trkpt>
      <trkpt lat="45.34956" lon="5.27241">
        <ele>300.12</ele>
        <time>2017-02-25T13:13:32Z</time>
      </trkpt>
      <trkpt lat="45.34954" lon="5.27213">
        <ele>299.79</ele>
        <time>2017-02-25T13:13:33Z</time>
      </trkpt>
      <trkpt lat="45.34951" lon="5.27186">
        <ele>299.64</ele>
        <time>2017-02-25T13:13:34Z</time>
      </trkpt>
      <trkpt lat="45.34948" lon="5.27159">
        <ele>299.45</ele>
        <time>2017-02-25T13:13:35Z</time>
      </trkpt>
      <trkpt lat="45.34945" lon="5.27131">
        <ele>299.26</ele>
        <time>2017-02-25T13:13:36Z</time>
      </trkpt>
      <trkpt lat="45.34941" lon="5.27104">
        <ele>299.06</ele>
        <time>2017-02-25T13:13:37Z</time>
      </trkpt>
      <trkpt lat="45.34938" lon="5.27077">
        <ele>298.94</ele>
        <time>2017-02-25T13:13:38Z</time>
      </trkpt>
      <trkpt lat="45.34936" lon="5.2705">
        <ele>298.67</ele>
        <time>2017-02-25T13:13:39Z</time>
      </trkpt>
      <trkpt lat="45.34933" lon="5.27023">
        <ele>298.46</ele>
        <time>2017-02-25T13:13:40Z</time>
      </trkpt>
      <trkpt lat="45.3493" lon="5.26996">
        <ele>298.26</ele>
        <time>2017-02-25T13:13:41Z</time>
      </trkpt>
      <trkpt lat="45.34927" lon="5.26969">
        <ele>297.98</ele>
        <time>2017-02-25T13:13:42Z</time>
      </trkpt>
      <trkpt lat="45.34924" lon="5.26941">
        <ele>297.84</ele>
        <time>2017-02-25T13:13:43Z</time>
      </trkpt>
      <trkpt lat="45.34921" lon="5.26913">
        <ele>297.73</ele>
        <time>2017-02-25T13:13:44Z</time>
      </trkpt>
      <trkpt lat="45.34917" lon="5.26885">
        <ele>297.71</ele>
        <time>2017-02-25T13:13:45Z</time>
      </trkpt>
      <trkpt lat="45.34914" lon="5.26857">
        <ele>297.63</ele>
        <time>2017-02-25T13:13:46Z</time>
      </trkpt>
      <trkpt lat="45.34911" lon="5.2683">
        <ele>297.61</ele>
        <time>2017-02-25T13:13:47Z</time>
      </trkpt>
      <trkpt lat="45.34907" lon="5.26802">
        <ele>297.61</ele>
        <time>2017-02-25T13:13:48Z</time>
      </trkpt>
      <trkpt lat="45.34904" lon="5.26775">
        <ele>297.53</ele>
        <time>2017-02-25T13:13:49Z</time>
      </trkpt>
      <trkpt lat="45.34901" lon="5.26749">
        <ele>297.43</ele>
        <time>2017-02-25T13:13:50Z</time>
      </trkpt>
      <trkpt lat="45.34899" lon="5.26723">
        <ele>297.41</ele>
        <time>2017-02-25T13:13:51Z</time>
      </trkpt>
      <trkpt lat="45.34896" lon="5.26697">
        <ele>297.33</ele>
        <time>2017-02-25T13:13:52Z</time>
      </trkpt>
      <trkpt lat="45.34895" lon="5.26673">
        <ele>297.15</ele>
        <time>2017-02-25T13:13:53Z</time>
      </trkpt>
      <trkpt lat="45.34893" lon="5.2665">
        <ele>296.87</ele>
        <time>2017-02-25T13:13:54Z</time>
      </trkpt>
      <trkpt lat="45.34891" lon="5.26628">
        <ele>296.66</ele>
        <time>2017-02-25T13:13:55Z</time>
      </trkpt>
      <trkpt lat="45.34889" lon="5.26608">
        <ele>296.94</ele>
        <time>2017-02-25T13:13:56Z</time>
      </trkpt>
      <trkpt lat="45.34887" lon="5.26589">
        <ele>297.07</ele>
        <time>2017-02-25T13:13:57Z</time>
      </trkpt>
      <trkpt lat="45.34886" lon="5.26574">
        <ele>296.86</ele>
        <time>2017-02-25T13:13:58Z</time>
      </trkpt>
      <trkpt lat="45.34885" lon="5.2656">
        <ele>297.38</ele>
        <time>2017-02-25T13:13:59Z</time>
      </trkpt>
      <trkpt lat="45.34885" lon="5.26546">
        <ele>297.64</ele>
        <time>2017-02-25T13:14:00Z</time>
      </trkpt>
      <trkpt lat="45.34885" lon="5.26532">
        <ele>297.93</ele>
        <time>2017-02-25T13:14:01Z</time>
      </trkpt>
      <trkpt lat="45.34884" lon="5.26518">
        <ele>297.67</ele>
        <time>2017-02-25T13:14:02Z</time>
      </trkpt>
      <trkpt lat="45.34882" lon="5.26505">
        <ele>297.7</ele>
        <time>2017-02-25T13:14:03Z</time>
      </trkpt>
      <trkpt lat="45.34877" lon="5.26492">
        <ele>297.38</ele>
        <time>2017-02-25T13:14:04Z</time>
      </trkpt>
      <trkpt lat="45.34873" lon="5.26476">
        <ele>297.24</ele>
        <time>2017-02-25T13:14:05Z</time>
      </trkpt>
      <trkpt lat="45.3487" lon="5.26458">
        <ele>297.29</ele>
        <time>2017-02-25T13:14:06Z</time>
      </trkpt>
      <trkpt lat="45.34868" lon="5.26435">
        <ele>297.3</ele>
        <time>2017-02-25T13:14:07Z</time>
      </trkpt>
      <trkpt lat="45.34866" lon="5.26408">
        <ele>297.31</ele>
        <time>2017-02-25T13:14:08Z</time>
      </trkpt>
      <trkpt lat="45.34863" lon="5.26379">
        <ele>297.23</ele>
        <time>2017-02-25T13:14:09Z</time>
      </trkpt>
      <trkpt lat="45.3486" lon="5.2635">
        <ele>297.13</ele>
        <time>2017-02-25T13:14:10Z</time>
      </trkpt>
      <trkpt lat="45.34855" lon="5.26319">
        <ele>296.95</ele>
        <time>2017-02-25T13:14:11Z</time>
      </trkpt>
      <trkpt lat="45.34851" lon="5.2629">
        <ele>296.75</ele>
        <time>2017-02-25T13:14:12Z</time>
      </trkpt>
      <trkpt lat="45.34846" lon="5.2626">
        <ele>296.48</ele>
        <time>2017-02-25T13:14:13Z</time>
      </trkpt>
      <trkpt lat="45.34841" lon="5.2623">
        <ele>296.26</ele>
        <time>2017-02-25T13:14:14Z</time>
      </trkpt>
      <trkpt lat="45.34837" lon="5.262">
        <ele>295.74</ele>
        <time>2017-02-25T13:14:15Z</time>
      </trkpt>
      <trkpt lat="45.34832" lon="5.26169">
        <ele>295.47</ele>
        <time>2017-02-25T13:14:16Z</time>
      </trkpt>
      <trkpt lat="45.34828" lon="5.26138">
        <ele>295.18</ele>
        <time>2017-02-25T13:14:17Z</time>
      </trkpt>
      <trkpt lat="45.34823" lon="5.26108">
        <ele>295.04</ele>
        <time>2017-02-25T13:14:18Z</time>
      </trkpt>
      <trkpt lat="45.34818" lon="5.26076">
        <ele>295.09</ele>
        <time>2017-02-25T13:14:19Z</time>
      </trkpt>
      <trkpt lat="45.34813" lon="5.26045">
        <ele>295.1</ele>
        <time>2017-02-25T13:14:20Z</time>
      </trkpt>
      <trkpt lat="45.34808" lon="5.26013">
        <ele>295.03</ele>
        <time>2017-02-25T13:14:21Z</time>
      </trkpt>
      <trkpt lat="45.34803" lon="5.25981">
        <ele>295.01</ele>
        <time>2017-02-25T13:14:22Z</time>
      </trkpt>
      <trkpt lat="45.34799" lon="5.25948">
        <ele>294.69</ele>
        <time>2017-02-25T13:14:23Z</time>
      </trkpt>
      <trkpt lat="45.34794" lon="5.25916">
        <ele>294.46</ele>
        <time>2017-02-25T13:14:24Z</time>
      </trkpt>
      <trkpt lat="45.34789" lon="5.25884">
        <ele>294.42</ele>
        <time>2017-02-25T13:14:25Z</time>
      </trkpt>
      <trkpt lat="45.34784" lon="5.25852">
        <ele>294.49</ele>
        <time>2017-02-25T13:14:26Z</time>
      </trkpt>
      <trkpt lat="45.3478" lon="5.2582">
        <ele>294.26</ele>
        <time>2017-02-25T13:14:27Z</time>
      </trkpt>
      <trkpt lat="45.34775" lon="5.25788">
        <ele>293.98</ele>
        <time>2017-02-25T13:14:28Z</time>
      </trkpt>
      <trkpt lat="45.3477" lon="5.25756">
        <ele>293.92</ele>
        <time>2017-02-25T13:14:29Z</time>
      </trkpt>
      <trkpt lat="45.34765" lon="5.25724">
        <ele>293.59</ele>
        <time>2017-02-25T13:14:30Z</time>
      </trkpt>
      <trkpt lat="45.3476" lon="5.25693">
        <ele>293.44</ele>
        <time>2017-02-25T13:14:31Z</time>
      </trkpt>
      <trkpt lat="45.34756" lon="5.25661">
        <ele>293.33</ele>
        <time>2017-02-25T13:14:32Z</time>
      </trkpt>
      <trkpt lat="45.34751" lon="5.25631">
        <ele>293.39</ele>
        <time>2017-02-25T13:14:33Z</time>
      </trkpt>
      <trkpt lat="45.34747" lon="5.256">
        <ele>293.4</ele>
        <time>2017-02-25T13:14:34Z</time>
      </trkpt>
      <trkpt lat="45.34742" lon="5.25569">
        <ele>293.33</ele>
        <time>2017-02-25T13:14:35Z</time>
      </trkpt>
      <trkpt lat="45.34738" lon="5.25539">
        <ele>292.99</ele>
        <time>2017-02-25T13:14:36Z</time>
      </trkpt>
      <trkpt lat="45.34733" lon="5.2551">
        <ele>292.76</ele>
        <time>2017-02-25T13:14:37Z</time>
      </trkpt>
      <trkpt lat="45.34729" lon="5.2548">
        <ele>292.32</ele>
        <time>2017-02-25T13:14:38Z</time>
      </trkpt>
      <trkpt lat="45.34725" lon="5.25451">
        <ele>292.15</ele>
        <time>2017-02-25T13:14:39Z</time>
      </trkpt>
      <trkpt lat="45.3472" lon="5.25421">
        <ele>292.19</ele>
        <time>2017-02-25T13:14:40Z</time>
      </trkpt>
      <trkpt lat="45.34716" lon="5.25392">
        <ele>292.28</ele>
        <time>2017-02-25T13:14:41Z</time>
      </trkpt>
      <trkpt lat="45.34711" lon="5.25363">
        <ele>292.3</ele>
        <time>2017-02-25T13:14:42Z</time>
      </trkpt>
      <trkpt lat="45.34706" lon="5.25334">
        <ele>292.47</ele>
        <time>2017-02-25T13:14:43Z</time>
      </trkpt>
      <trkpt lat="45.34702" lon="5.25305">
        <ele>292.74</ele>
        <time>2017-02-25T13:14:44Z</time>
      </trkpt>
      <trkpt lat="45.34698" lon="5.25276">
        <ele>292.39</ele>
        <time>2017-02-25T13:14:45Z</time>
      </trkpt>
      <trkpt lat="45.34693" lon="5.25247">
        <ele>292.24</ele>
        <time>2017-02-25T13:14:46Z</time>
      </trkpt>
      <trkpt lat="45.34689" lon="5.25218">
        <ele>292.13</ele>
        <time>2017-02-25T13:14:47Z</time>
      </trkpt>
      <trkpt lat="45.34684" lon="5.25189">
        <ele>292.19</ele>
        <time>2017-02-25T13:14:48Z</time>
      </trkpt>
      <trkpt lat="45.3468" lon="5.2516">
        <ele>292.2</ele>
        <time>2017-02-25T13:14:49Z</time>
      </trkpt>
      <trkpt lat="45.34675" lon="5.25131">
        <ele>292.13</ele>
        <time>2017-02-25T13:14:50Z</time>
      </trkpt>
      <trkpt lat="45.34671" lon="5.25101">
        <ele>292.19</ele>
        <time>2017-02-25T13:14:51Z</time>
      </trkpt>
      <trkpt lat="45.34666" lon="5.25071">
        <ele>292.2</ele>
        <time>2017-02-25T13:14:52Z</time>
      </trkpt>
      <trkpt lat="45.34662" lon="5.25041">
        <ele>292.21</ele>
        <time>2017-02-25T13:14:53Z</time>
      </trkpt>
      <trkpt lat="45.34658" lon="5.25011">
        <ele>292.21</ele>
        <time>2017-02-25T13:14:54Z</time>
      </trkpt>
      <trkpt lat="45.34655" lon="5.24981">
        <ele>291.65</ele>
        <time>2017-02-25T13:14:55Z</time>
      </trkpt>
      <trkpt lat="45.34653" lon="5.2495">
        <ele>290.89</ele>
        <time>2017-02-25T13:14:56Z</time>
      </trkpt>
      <trkpt lat="45.34652" lon="5.24919">
        <ele>290.42</ele>
        <time>2017-02-25T13:14:57Z</time>
      </trkpt>
      <trkpt lat="45.3465" lon="5.24888">
        <ele>289.61</ele>
        <time>2017-02-25T13:14:58Z</time>
      </trkpt>
      <trkpt lat="45.3465" lon="5.24857">
        <ele>289.37</ele>
        <time>2017-02-25T13:14:59Z</time>
      </trkpt>
      <trkpt lat="45.34649" lon="5.24827">
        <ele>289.16</ele>
        <time>2017-02-25T13:15:00Z</time>
      </trkpt>
      <trkpt lat="45.34649" lon="5.24797">
        <ele>288.8</ele>
        <time>2017-02-25T13:15:01Z</time>
      </trkpt>
      <trkpt lat="45.3465" lon="5.24767">
        <ele>288.56</ele>
        <time>2017-02-25T13:15:02Z</time>
      </trkpt>
      <trkpt lat="45.34652" lon="5.24738">
        <ele>288.44</ele>
        <time>2017-02-25T13:15:03Z</time>
      </trkpt>
      <trkpt lat="45.34654" lon="5.24711">
        <ele>288.17</ele>
        <time>2017-02-25T13:15:04Z</time>
      </trkpt>
      <trkpt lat="45.34657" lon="5.24683">
        <ele>288.04</ele>
        <time>2017-02-25T13:15:05Z</time>
      </trkpt>
      <trkpt lat="45.3466" lon="5.24656">
        <ele>288.17</ele>
        <time>2017-02-25T13:15:06Z</time>
      </trkpt>
      <trkpt lat="45.34662" lon="5.24629">
        <ele>288.6</ele>
        <time>2017-02-25T13:15:07Z</time>
      </trkpt>
      <trkpt lat="45.34664" lon="5.24601">
        <ele>288.76</ele>
        <time>2017-02-25T13:15:08Z</time>
      </trkpt>
      <trkpt lat="45.34665" lon="5.24573">
        <ele>288.8</ele>
        <time>2017-02-25T13:15:09Z</time>
      </trkpt>
      <trkpt lat="45.34666" lon="5.24545">
        <ele>288.64</ele>
        <time>2017-02-25T13:15:10Z</time>
      </trkpt>
      <trkpt lat="45.34666" lon="5.24516">
        <ele>288.13</ele>
        <time>2017-02-25T13:15:11Z</time>
      </trkpt>
      <trkpt lat="45.34664" lon="5.24488">
        <ele>287.95</ele>
        <time>2017-02-25T13:15:12Z</time>
      </trkpt>
      <trkpt lat="45.34662" lon="5.24459">
        <ele>287.36</ele>
        <time>2017-02-25T13:15:13Z</time>
      </trkpt>
      <trkpt lat="45.34659" lon="5.2443">
        <ele>286.76</ele>
        <time>2017-02-25T13:15:14Z</time>
      </trkpt>
      <trkpt lat="45.34657" lon="5.24401">
        <ele>286.08</ele>
        <time>2017-02-25T13:15:15Z</time>
      </trkpt>
      <trkpt lat="45.34654" lon="5.24371">
        <ele>285.46</ele>
        <time>2017-02-25T13:15:16Z</time>
      </trkpt>
      <trkpt lat="45.3465" lon="5.24341">
        <ele>285.02</ele>
        <time>2017-02-25T13:15:17Z</time>
      </trkpt>
      <trkpt lat="45.34646" lon="5.2431">
        <ele>284.69</ele>
        <time>2017-02-25T13:15:18Z</time>
      </trkpt>
      <trkpt lat="45.34641" lon="5.24279">
        <ele>284.38</ele>
        <time>2017-02-25T13:15:19Z</time>
      </trkpt>
      <trkpt lat="45.34636" lon="5.24248">
        <ele>284.24</ele>
        <time>2017-02-25T13:15:20Z</time>
      </trkpt>
      <trkpt lat="45.34631" lon="5.24217">
        <ele>284.13</ele>
        <time>2017-02-25T13:15:21Z</time>
      </trkpt>
      <trkpt lat="45.34626" lon="5.24186">
        <ele>284.27</ele>
        <time>2017-02-25T13:15:22Z</time>
      </trkpt>
      <trkpt lat="45.3462" lon="5.24156">
        <ele>284.22</ele>
        <time>2017-02-25T13:15:23Z</time>
      </trkpt>
      <trkpt lat="45.34615" lon="5.24125">
        <ele>284.05</ele>
        <time>2017-02-25T13:15:24Z</time>
      </trkpt>
      <trkpt lat="45.34609" lon="5.24094">
        <ele>284.33</ele>
        <time>2017-02-25T13:15:25Z</time>
      </trkpt>
      <trkpt lat="45.34603" lon="5.24064">
        <ele>284.23</ele>
        <time>2017-02-25T13:15:26Z</time>
      </trkpt>
      <trkpt lat="45.34597" lon="5.24033">
        <ele>284.45</ele>
        <time>2017-02-25T13:15:27Z</time>
      </trkpt>
      <trkpt lat="45.34591" lon="5.24003">
        <ele>284.74</ele>
        <time>2017-02-25T13:15:28Z</time>
      </trkpt>
      <trkpt lat="45.34585" lon="5.23972">
        <ele>284.95</ele>
        <time>2017-02-25T13:15:29Z</time>
      </trkpt>
      <trkpt lat="45.34579" lon="5.23941">
        <ele>284.84</ele>
        <time>2017-02-25T13:15:30Z</time>
      </trkpt>
      <trkpt lat="45.34574" lon="5.2391">
        <ele>284.57</ele>
        <time>2017-02-25T13:15:31Z</time>
      </trkpt>
      <trkpt lat="45.34569" lon="5.23879">
        <ele>284.68</ele>
        <time>2017-02-25T13:15:32Z</time>
      </trkpt>
      <trkpt lat="45.34565" lon="5.23847">
        <ele>284.38</ele>
        <time>2017-02-25T13:15:33Z</time>
      </trkpt>
      <trkpt lat="45.34561" lon="5.23815">
        <ele>284.32</ele>
        <time>2017-02-25T13:15:34Z</time>
      </trkpt>
      <trkpt lat="45.34557" lon="5.23783">
        <ele>284.71</ele>
        <time>2017-02-25T13:15:35Z</time>
      </trkpt>
      <trkpt lat="45.34553" lon="5.23751">
        <ele>284.71</ele>
        <time>2017-02-25T13:15:36Z</time>
      </trkpt>
      <trkpt lat="45.34549" lon="5.23718">
        <ele>284.95</ele>
        <time>2017-02-25T13:15:37Z</time>
      </trkpt>
      <trkpt lat="45.34545" lon="5.23686">
        <ele>284.99</ele>
        <time>2017-02-25T13:15:38Z</time>
      </trkpt>
      <trkpt lat="45.34541" lon="5.23653">
        <ele>284.84</ele>
        <time>2017-02-25T13:15:39Z</time>
      </trkpt>
      <trkpt lat="45.34538" lon="5.23621">
        <ele>284.65</ele>
        <time>2017-02-25T13:15:40Z</time>
      </trkpt>
      <trkpt lat="45.34534" lon="5.23588">
        <ele>284.86</ele>
        <time>2017-02-25T13:15:41Z</time>
      </trkpt>
      <trkpt lat="45.3453" lon="5.23555">
        <ele>284.74</ele>
        <time>2017-02-25T13:15:42Z</time>
      </trkpt>
      <trkpt lat="45.34526" lon="5.23523">
        <ele>284.55</ele>
        <time>2017-02-25T13:15:43Z</time>
      </trkpt>
      <trkpt lat="45.34523" lon="5.2349">
        <ele>284.44</ele>
        <time>2017-02-25T13:15:44Z</time>
      </trkpt>
      <trkpt lat="45.3452" lon="5.23457">
        <ele>284.33</ele>
        <time>2017-02-25T13:15:45Z</time>
      </trkpt>
      <trkpt lat="45.34518" lon="5.23425">
        <ele>284.07</ele>
        <time>2017-02-25T13:15:46Z</time>
      </trkpt>
      <trkpt lat="45.34515" lon="5.23392">
        <ele>283.94</ele>
        <time>2017-02-25T13:15:47Z</time>
      </trkpt>
      <trkpt lat="45.34512" lon="5.2336">
        <ele>283.59</ele>
        <time>2017-02-25T13:15:48Z</time>
      </trkpt>
      <trkpt lat="45.34509" lon="5.23327">
        <ele>283.12</ele>
        <time>2017-02-25T13:15:49Z</time>
      </trkpt>
      <trkpt lat="45.34506" lon="5.23295">
        <ele>282.71</ele>
        <time>2017-02-25T13:15:50Z</time>
      </trkpt>
      <trkpt lat="45.34503" lon="5.23264">
        <ele>282.47</ele>
        <time>2017-02-25T13:15:51Z</time>
      </trkpt>
      <trkpt lat="45.34501" lon="5.23233">
        <ele>282.42</ele>
        <time>2017-02-25T13:15:52Z</time>
      </trkpt>
      <trkpt lat="45.34498" lon="5.23202">
        <ele>282.25</ele>
        <time>2017-02-25T13:15:53Z</time>
      </trkpt>
      <trkpt lat="45.34496" lon="5.2317">
        <ele>281.97</ele>
        <time>2017-02-25T13:15:54Z</time>
      </trkpt>
      <trkpt lat="45.34493" lon="5.23139">
        <ele>281.84</ele>
        <time>2017-02-25T13:15:55Z</time>
      </trkpt>
      <trkpt lat="45.3449" lon="5.23107">
        <ele>281.65</ele>
        <time>2017-02-25T13:15:56Z</time>
      </trkpt>
      <trkpt lat="45.34487" lon="5.23074">
        <ele>281.3</ele>
        <time>2017-02-25T13:15:57Z</time>
      </trkpt>
      <trkpt lat="45.34483" lon="5.23041">
        <ele>280.98</ele>
        <time>2017-02-25T13:15:58Z</time>
      </trkpt>
      <trkpt lat="45.3448" lon="5.23008">
        <ele>280.92</ele>
        <time>2017-02-25T13:15:59Z</time>
      </trkpt>
      <trkpt lat="45.34476" lon="5.22974">
        <ele>280.91</ele>
        <time>2017-02-25T13:16:00Z</time>
      </trkpt>
      <trkpt lat="45.34473" lon="5.2294">
        <ele>280.67</ele>
        <time>2017-02-25T13:16:01Z</time>
      </trkpt>
      <trkpt lat="45.34469" lon="5.22906">
        <ele>280.46</ele>
        <time>2017-02-25T13:16:02Z</time>
      </trkpt>
      <trkpt lat="45.34465" lon="5.22872">
        <ele>280.66</ele>
        <time>2017-02-25T13:16:03Z</time>
      </trkpt>
      <trkpt lat="45.34461" lon="5.22837">
        <ele>280.86</ele>
        <time>2017-02-25T13:16:04Z</time>
      </trkpt>
      <trkpt lat="45.34457" lon="5.22803">
        <ele>281.06</ele>
        <time>2017-02-25T13:16:05Z</time>
      </trkpt>
      <trkpt lat="45.34453" lon="5.22769">
        <ele>280.94</ele>
        <time>2017-02-25T13:16:06Z</time>
      </trkpt>
      <trkpt lat="45.34449" lon="5.22735">
        <ele>280.67</ele>
        <time>2017-02-25T13:16:07Z</time>
      </trkpt>
      <trkpt lat="45.34445" lon="5.22701">
        <ele>280.7</ele>
        <time>2017-02-25T13:16:08Z</time>
      </trkpt>
      <trkpt lat="45.34441" lon="5.22666">
        <ele>280.7</ele>
        <time>2017-02-25T13:16:09Z</time>
      </trkpt>
      <trkpt lat="45.34437" lon="5.22632">
        <ele>280.79</ele>
        <time>2017-02-25T13:16:10Z</time>
      </trkpt>
      <trkpt lat="45.34433" lon="5.22598">
        <ele>280.72</ele>
        <time>2017-02-25T13:16:11Z</time>
      </trkpt>
      <trkpt lat="45.3443" lon="5.22565">
        <ele>280.39</ele>
        <time>2017-02-25T13:16:12Z</time>
      </trkpt>
      <trkpt lat="45.34426" lon="5.22531">
        <ele>279.76</ele>
        <time>2017-02-25T13:16:13Z</time>
      </trkpt>
      <trkpt lat="45.34422" lon="5.22497">
        <ele>279.08</ele>
        <time>2017-02-25T13:16:14Z</time>
      </trkpt>
      <trkpt lat="45.34418" lon="5.22464">
        <ele>278.46</ele>
        <time>2017-02-25T13:16:15Z</time>
      </trkpt>
      <trkpt lat="45.34414" lon="5.22431">
        <ele>278.02</ele>
        <time>2017-02-25T13:16:16Z</time>
      </trkpt>
      <trkpt lat="45.3441" lon="5.22398">
        <ele>277.69</ele>
        <time>2017-02-25T13:16:17Z</time>
      </trkpt>
      <trkpt lat="45.34406" lon="5.22366">
        <ele>277.54</ele>
        <time>2017-02-25T13:16:18Z</time>
      </trkpt>
      <trkpt lat="45.34402" lon="5.22333">
        <ele>277.35</ele>
        <time>2017-02-25T13:16:19Z</time>
      </trkpt>
      <trkpt lat="45.34398" lon="5.22301">
        <ele>277.16</ele>
        <time>2017-02-25T13:16:20Z</time>
      </trkpt>
      <trkpt lat="45.34393" lon="5.22269">
        <ele>276.56</ele>
        <time>2017-02-25T13:16:21Z</time>
      </trkpt>
      <trkpt lat="45.34389" lon="5.22237">
        <ele>276.2</ele>
        <time>2017-02-25T13:16:22Z</time>
      </trkpt>
      <trkpt lat="45.34385" lon="5.22206">
        <ele>275.88</ele>
        <time>2017-02-25T13:16:23Z</time>
      </trkpt>
      <trkpt lat="45.34381" lon="5.22174">
        <ele>275.66</ele>
        <time>2017-02-25T13:16:24Z</time>
      </trkpt>
      <trkpt lat="45.34377" lon="5.22142">
        <ele>275.62</ele>
        <time>2017-02-25T13:16:25Z</time>
      </trkpt>
      <trkpt lat="45.34373" lon="5.2211">
        <ele>275.61</ele>
        <time>2017-02-25T13:16:26Z</time>
      </trkpt>
      <trkpt lat="45.34369" lon="5.22078">
        <ele>275.77</ele>
        <time>2017-02-25T13:16:27Z</time>
      </trkpt>
      <trkpt lat="45.34365" lon="5.22046">
        <ele>275.88</ele>
        <time>2017-02-25T13:16:28Z</time>
      </trkpt>
      <trkpt lat="45.34361" lon="5.22013">
        <ele>275.9</ele>
        <time>2017-02-25T13:16:29Z</time>
      </trkpt>
      <trkpt lat="45.34356" lon="5.21981">
        <ele>275.82</ele>
        <time>2017-02-25T13:16:30Z</time>
      </trkpt>
      <trkpt lat="45.34352" lon="5.21948">
        <ele>275.65</ele>
        <time>2017-02-25T13:16:31Z</time>
      </trkpt>
      <trkpt lat="45.34348" lon="5.21916">
        <ele>275.45</ele>
        <time>2017-02-25T13:16:32Z</time>
      </trkpt>
      <trkpt lat="45.34344" lon="5.21884">
        <ele>275.42</ele>
        <time>2017-02-25T13:16:33Z</time>
      </trkpt>
      <trkpt lat="45.3434" lon="5.21852">
        <ele>275.25</ele>
        <time>2017-02-25T13:16:34Z</time>
      </trkpt>
      <trkpt lat="45.34337" lon="5.2182">
        <ele>275.21</ele>
        <time>2017-02-25T13:16:35Z</time>
      </trkpt>
      <trkpt lat="45.34333" lon="5.21787">
        <ele>275.13</ele>
        <time>2017-02-25T13:16:36Z</time>
      </trkpt>
      <trkpt lat="45.34329" lon="5.21755">
        <ele>275.32</ele>
        <time>2017-02-25T13:16:37Z</time>
      </trkpt>
      <trkpt lat="45.34325" lon="5.21723">
        <ele>275.68</ele>
        <time>2017-02-25T13:16:38Z</time>
      </trkpt>
      <trkpt lat="45.3432" lon="5.21691">
        <ele>275.91</ele>
        <time>2017-02-25T13:16:39Z</time>
      </trkpt>
      <trkpt lat="45.34316" lon="5.21658">
        <ele>275.8</ele>
        <time>2017-02-25T13:16:40Z</time>
      </trkpt>
      <trkpt lat="45.34312" lon="5.21625">
        <ele>275.77</ele>
        <time>2017-02-25T13:16:41Z</time>
      </trkpt>
      <trkpt lat="45.34309" lon="5.21592">
        <ele>275.85</ele>
        <time>2017-02-25T13:16:42Z</time>
      </trkpt>
      <trkpt lat="45.34305" lon="5.21559">
        <ele>276.02</ele>
        <time>2017-02-25T13:16:43Z</time>
      </trkpt>
      <trkpt lat="45.34301" lon="5.21527">
        <ele>276.06</ele>
        <time>2017-02-25T13:16:44Z</time>
      </trkpt>
      <trkpt lat="45.34298" lon="5.21494">
        <ele>276.07</ele>
        <time>2017-02-25T13:16:45Z</time>
      </trkpt>
      <trkpt lat="45.34294" lon="5.21461">
        <ele>276.23</ele>
        <time>2017-02-25T13:16:46Z</time>
      </trkpt>
      <trkpt lat="45.34291" lon="5.21428">
        <ele>276.26</ele>
        <time>2017-02-25T13:16:47Z</time>
      </trkpt>
      <trkpt lat="45.34287" lon="5.21395">
        <ele>276.27</ele>
        <time>2017-02-25T13:16:48Z</time>
      </trkpt>
      <trkpt lat="45.34284" lon="5.21362">
        <ele>276.03</ele>
        <time>2017-02-25T13:16:49Z</time>
      </trkpt>
      <trkpt lat="45.3428" lon="5.21329">
        <ele>275.82</ele>
        <time>2017-02-25T13:16:50Z</time>
      </trkpt>
      <trkpt lat="45.34276" lon="5.21296">
        <ele>275.46</ele>
        <time>2017-02-25T13:16:51Z</time>
      </trkpt>
      <trkpt lat="45.34273" lon="5.21263">
        <ele>274.99</ele>
        <time>2017-02-25T13:16:52Z</time>
      </trkpt>
      <trkpt lat="45.34269" lon="5.2123">
        <ele>274.73</ele>
        <time>2017-02-25T13:16:53Z</time>
      </trkpt>
      <trkpt lat="45.34266" lon="5.21197">
        <ele>274.36</ele>
        <time>2017-02-25T13:16:54Z</time>
      </trkpt>
      <trkpt lat="45.34262" lon="5.21165">
        <ele>274.05</ele>
        <time>2017-02-25T13:16:55Z</time>
      </trkpt>
      <trkpt lat="45.34258" lon="5.21132">
        <ele>273.9</ele>
        <time>2017-02-25T13:16:56Z</time>
      </trkpt>
      <trkpt lat="45.34255" lon="5.211">
        <ele>273.79</ele>
        <time>2017-02-25T13:16:57Z</time>
      </trkpt>
      <trkpt lat="45.34251" lon="5.21068">
        <ele>273.69</ele>
        <time>2017-02-25T13:16:58Z</time>
      </trkpt>
      <trkpt lat="45.34248" lon="5.21037">
        <ele>273.59</ele>
        <time>2017-02-25T13:16:59Z</time>
      </trkpt>
      <trkpt lat="45.34244" lon="5.21005">
        <ele>273.41</ele>
        <time>2017-02-25T13:17:00Z</time>
      </trkpt>
      <trkpt lat="45.34241" lon="5.20973">
        <ele>273.14</ele>
        <time>2017-02-25T13:17:01Z</time>
      </trkpt>
      <trkpt lat="45.34237" lon="5.20942">
        <ele>273</ele>
        <time>2017-02-25T13:17:02Z</time>
      </trkpt>
      <trkpt lat="45.34234" lon="5.20911">
        <ele>272.65</ele>
        <time>2017-02-25T13:17:03Z</time>
      </trkpt>
      <trkpt lat="45.34231" lon="5.20881">
        <ele>272.42</ele>
        <time>2017-02-25T13:17:04Z</time>
      </trkpt>
      <trkpt lat="45.34228" lon="5.20854">
        <ele>272.14</ele>
        <time>2017-02-25T13:17:05Z</time>
      </trkpt>
      <trkpt lat="45.34225" lon="5.20827">
        <ele>271.76</ele>
        <time>2017-02-25T13:17:06Z</time>
      </trkpt>
      <trkpt lat="45.34222" lon="5.20802">
        <ele>271.61</ele>
        <time>2017-02-25T13:17:07Z</time>
      </trkpt>
      <trkpt lat="45.34219" lon="5.20778">
        <ele>271.33</ele>
        <time>2017-02-25T13:17:08Z</time>
      </trkpt>
      <trkpt lat="45.34217" lon="5.20755">
        <ele>271.2</ele>
        <time>2017-02-25T13:17:09Z</time>
      </trkpt>
      <trkpt lat="45.34215" lon="5.20734">
        <ele>271.01</ele>
        <time>2017-02-25T13:17:10Z</time>
      </trkpt>
      <trkpt lat="45.34214" lon="5.20715">
        <ele>270.74</ele>
        <time>2017-02-25T13:17:11Z</time>
      </trkpt>
      <trkpt lat="45.34213" lon="5.20699">
        <ele>270.76</ele>
        <time>2017-02-25T13:17:12Z</time>
      </trkpt>
      <trkpt lat="45.34213" lon="5.20686">
        <ele>270.69</ele>
        <time>2017-02-25T13:17:13Z</time>
      </trkpt>
      <trkpt lat="45.34215" lon="5.20677">
        <ele>271.55</ele>
        <time>2017-02-25T13:17:14Z</time>
      </trkpt>
      <trkpt lat="45.34217" lon="5.20667">
        <ele>271.96</ele>
        <time>2017-02-25T13:17:15Z</time>
      </trkpt>
      <trkpt lat="45.34219" lon="5.20656">
        <ele>271.41</ele>
        <time>2017-02-25T13:17:16Z</time>
      </trkpt>
      <trkpt lat="45.3422" lon="5.20644">
        <ele>270.97</ele>
        <time>2017-02-25T13:17:17Z</time>
      </trkpt>
      <trkpt lat="45.34216" lon="5.20631">
        <ele>270.57</ele>
        <time>2017-02-25T13:17:18Z</time>
      </trkpt>
      <trkpt lat="45.34211" lon="5.20619">
        <ele>270.17</ele>
        <time>2017-02-25T13:17:19Z</time>
      </trkpt>
      <trkpt lat="45.34205" lon="5.20606">
        <ele>269.53</ele>
        <time>2017-02-25T13:17:20Z</time>
      </trkpt>
      <trkpt lat="45.342" lon="5.20591">
        <ele>269.48</ele>
        <time>2017-02-25T13:17:21Z</time>
      </trkpt>
      <trkpt lat="45.34197" lon="5.20573">
        <ele>269.23</ele>
        <time>2017-02-25T13:17:22Z</time>
      </trkpt>
      <trkpt lat="45.34194" lon="5.20551">
        <ele>269.42</ele>
        <time>2017-02-25T13:17:23Z</time>
      </trkpt>
      <trkpt lat="45.34191" lon="5.20526">
        <ele>269.62</ele>
        <time>2017-02-25T13:17:24Z</time>
      </trkpt>
      <trkpt lat="45.34188" lon="5.20498">
        <ele>269.66</ele>
        <time>2017-02-25T13:17:25Z</time>
      </trkpt>
      <trkpt lat="45.34185" lon="5.20468">
        <ele>269.75</ele>
        <time>2017-02-25T13:17:26Z</time>
      </trkpt>
      <trkpt lat="45.34181" lon="5.20435">
        <ele>269.84</ele>
        <time>2017-02-25T13:17:27Z</time>
      </trkpt>
      <trkpt lat="45.34178" lon="5.20403">
        <ele>269.86</ele>
        <time>2017-02-25T13:17:28Z</time>
      </trkpt>
      <trkpt lat="45.34176" lon="5.20371">
        <ele>269.87</ele>
        <time>2017-02-25T13:17:29Z</time>
      </trkpt>
      <trkpt lat="45.34173" lon="5.20338">
        <ele>269.79</ele>
        <time>2017-02-25T13:17:30Z</time>
      </trkpt>
      <trkpt lat="45.34171" lon="5.20306">
        <ele>269.61</ele>
        <time>2017-02-25T13:17:31Z</time>
      </trkpt>
      <trkpt lat="45.34169" lon="5.20275">
        <ele>269.5</ele>
        <time>2017-02-25T13:17:32Z</time>
      </trkpt>
      <trkpt lat="45.34167" lon="5.20244">
        <ele>269.31</ele>
        <time>2017-02-25T13:17:33Z</time>
      </trkpt>
      <trkpt lat="45.34164" lon="5.20213">
        <ele>269.2</ele>
        <time>2017-02-25T13:17:34Z</time>
      </trkpt>
      <trkpt lat="45.34162" lon="5.20184">
        <ele>269.09</ele>
        <time>2017-02-25T13:17:35Z</time>
      </trkpt>
      <trkpt lat="45.34159" lon="5.20154">
        <ele>268.91</ele>
        <time>2017-02-25T13:17:36Z</time>
      </trkpt>
      <trkpt lat="45.34157" lon="5.20125">
        <ele>268.96</ele>
        <time>2017-02-25T13:17:37Z</time>
      </trkpt>
      <trkpt lat="45.34155" lon="5.20096">
        <ele>268.8</ele>
        <time>2017-02-25T13:17:38Z</time>
      </trkpt>
      <trkpt lat="45.34152" lon="5.20068">
        <ele>268.53</ele>
        <time>2017-02-25T13:17:39Z</time>
      </trkpt>
      <trkpt lat="45.3415" lon="5.20039">
        <ele>268.32</ele>
        <time>2017-02-25T13:17:40Z</time>
      </trkpt>
      <trkpt lat="45.34148" lon="5.20011">
        <ele>267.96</ele>
        <time>2017-02-25T13:17:41Z</time>
      </trkpt>
      <trkpt lat="45.34145" lon="5.19984">
        <ele>267.73</ele>
        <time>2017-02-25T13:17:42Z</time>
      </trkpt>
      <trkpt lat="45.34141" lon="5.19957">
        <ele>267.52</ele>
        <time>2017-02-25T13:17:43Z</time>
      </trkpt>
      <trkpt lat="45.34138" lon="5.19931">
        <ele>267.4</ele>
        <time>2017-02-25T13:17:44Z</time>
      </trkpt>
      <trkpt lat="45.34134" lon="5.19905">
        <ele>267.37</ele>
        <time>2017-02-25T13:17:45Z</time>
      </trkpt>
      <trkpt lat="45.3413" lon="5.1988">
        <ele>267.53</ele>
        <time>2017-02-25T13:17:46Z</time>
      </trkpt>
      <trkpt lat="45.34127" lon="5.19856">
        <ele>267.64</ele>
        <time>2017-02-25T13:17:47Z</time>
      </trkpt>
      <trkpt lat="45.34123" lon="5.19832">
        <ele>267.66</ele>
        <time>2017-02-25T13:17:48Z</time>
      </trkpt>
      <trkpt lat="45.34118" lon="5.19809">
        <ele>267.75</ele>
        <time>2017-02-25T13:17:49Z</time>
      </trkpt>
      <trkpt lat="45.34112" lon="5.19788">
        <ele>267.68</ele>
        <time>2017-02-25T13:17:50Z</time>
      </trkpt>
      <trkpt lat="45.34105" lon="5.19766">
        <ele>267.67</ele>
        <time>2017-02-25T13:17:51Z</time>
      </trkpt>
      <trkpt lat="45.34098" lon="5.19746">
        <ele>267.67</ele>
        <time>2017-02-25T13:17:52Z</time>
      </trkpt>
      <trkpt lat="45.34092" lon="5.19727">
        <ele>267.43</ele>
        <time>2017-02-25T13:17:53Z</time>
      </trkpt>
      <trkpt lat="45.34089" lon="5.1971">
        <ele>267.78</ele>
        <time>2017-02-25T13:17:54Z</time>
      </trkpt>
      <trkpt lat="45.34089" lon="5.19694">
        <ele>268.33</ele>
        <time>2017-02-25T13:17:55Z</time>
      </trkpt>
      <trkpt lat="45.3409" lon="5.19679">
        <ele>268.68</ele>
        <time>2017-02-25T13:17:56Z</time>
      </trkpt>
      <trkpt lat="45.34092" lon="5.19665">
        <ele>269.07</ele>
        <time>2017-02-25T13:17:57Z</time>
      </trkpt>
      <trkpt lat="45.34092" lon="5.19653">
        <ele>269.39</ele>
        <time>2017-02-25T13:17:58Z</time>
      </trkpt>
      <trkpt lat="45.3409" lon="5.19642">
        <ele>269.61</ele>
        <time>2017-02-25T13:17:59Z</time>
      </trkpt>
      <trkpt lat="45.34078" lon="5.19639">
        <ele>269.42</ele>
        <time>2017-02-25T13:18:00Z</time>
      </trkpt>
      <trkpt lat="45.34069" lon="5.19637">
        <ele>269.22</ele>
        <time>2017-02-25T13:18:01Z</time>
      </trkpt>
      <trkpt lat="45.34056" lon="5.19633">
        <ele>269.1</ele>
        <time>2017-02-25T13:18:02Z</time>
      </trkpt>
      <trkpt lat="45.34042" lon="5.19625">
        <ele>268.91</ele>
        <time>2017-02-25T13:18:03Z</time>
      </trkpt>
      <trkpt lat="45.34029" lon="5.19612">
        <ele>268.8</ele>
        <time>2017-02-25T13:18:04Z</time>
      </trkpt>
      <trkpt lat="45.34015" lon="5.19595">
        <ele>268.77</ele>
        <time>2017-02-25T13:18:05Z</time>
      </trkpt>
      <trkpt lat="45.34002" lon="5.19576">
        <ele>268.85</ele>
        <time>2017-02-25T13:18:06Z</time>
      </trkpt>
      <trkpt lat="45.33988" lon="5.19555">
        <ele>268.86</ele>
        <time>2017-02-25T13:18:07Z</time>
      </trkpt>
      <trkpt lat="45.33975" lon="5.19534">
        <ele>269.03</ele>
        <time>2017-02-25T13:18:08Z</time>
      </trkpt>
      <trkpt lat="45.3396" lon="5.19513">
        <ele>269.06</ele>
        <time>2017-02-25T13:18:09Z</time>
      </trkpt>
      <trkpt lat="45.33945" lon="5.19491">
        <ele>269.23</ele>
        <time>2017-02-25T13:18:10Z</time>
      </trkpt>
      <trkpt lat="45.3393" lon="5.19469">
        <ele>269.5</ele>
        <time>2017-02-25T13:18:11Z</time>
      </trkpt>
      <trkpt lat="45.33914" lon="5.19447">
        <ele>269.79</ele>
        <time>2017-02-25T13:18:12Z</time>
      </trkpt>
      <trkpt lat="45.33898" lon="5.19423">
        <ele>270.17</ele>
        <time>2017-02-25T13:18:13Z</time>
      </trkpt>
      <trkpt lat="45.33882" lon="5.194">
        <ele>270.49</ele>
        <time>2017-02-25T13:18:14Z</time>
      </trkpt>
      <trkpt lat="45.33866" lon="5.19376">
        <ele>270.71</ele>
        <time>2017-02-25T13:18:15Z</time>
      </trkpt>
      <trkpt lat="45.3385" lon="5.19352">
        <ele>270.6</ele>
        <time>2017-02-25T13:18:16Z</time>
      </trkpt>
      <trkpt lat="45.33833" lon="5.19329">
        <ele>270.17</ele>
        <time>2017-02-25T13:18:17Z</time>
      </trkpt>
      <trkpt lat="45.33817" lon="5.19305">
        <ele>269.77</ele>
        <time>2017-02-25T13:18:18Z</time>
      </trkpt>
      <trkpt lat="45.33802" lon="5.1928">
        <ele>269.37</ele>
        <time>2017-02-25T13:18:19Z</time>
      </trkpt>
      <trkpt lat="45.33787" lon="5.19254">
        <ele>269.29</ele>
        <time>2017-02-25T13:18:20Z</time>
      </trkpt>
      <trkpt lat="45.33773" lon="5.19228">
        <ele>268.95</ele>
        <time>2017-02-25T13:18:21Z</time>
      </trkpt>
      <trkpt lat="45.33761" lon="5.19201">
        <ele>268.96</ele>
        <time>2017-02-25T13:18:22Z</time>
      </trkpt>
      <trkpt lat="45.33749" lon="5.19173">
        <ele>268.65</ele>
        <time>2017-02-25T13:18:23Z</time>
      </trkpt>
      <trkpt lat="45.33738" lon="5.19144">
        <ele>268.1</ele>
        <time>2017-02-25T13:18:24Z</time>
      </trkpt>
      <trkpt lat="45.33728" lon="5.19115">
        <ele>267.91</ele>
        <time>2017-02-25T13:18:25Z</time>
      </trkpt>
      <trkpt lat="45.3372" lon="5.19085">
        <ele>267.24</ele>
        <time>2017-02-25T13:18:26Z</time>
      </trkpt>
      <trkpt lat="45.33712" lon="5.19054">
        <ele>266.86</ele>
        <time>2017-02-25T13:18:27Z</time>
      </trkpt>
      <trkpt lat="45.33705" lon="5.19023">
        <ele>266.63</ele>
        <time>2017-02-25T13:18:28Z</time>
      </trkpt>
      <trkpt lat="45.33699" lon="5.18992">
        <ele>266.66</ele>
        <time>2017-02-25T13:18:29Z</time>
      </trkpt>
      <trkpt lat="45.33694" lon="5.18961">
        <ele>266.35</ele>
        <time>2017-02-25T13:18:30Z</time>
      </trkpt>
      <trkpt lat="45.3369" lon="5.18931">
        <ele>266.04</ele>
        <time>2017-02-25T13:18:31Z</time>
      </trkpt>
      <trkpt lat="45.33687" lon="5.189">
        <ele>265.82</ele>
        <time>2017-02-25T13:18:32Z</time>
      </trkpt>
      <trkpt lat="45.33684" lon="5.18869">
        <ele>265.62</ele>
        <time>2017-02-25T13:18:33Z</time>
      </trkpt>
      <trkpt lat="45.33681" lon="5.1884">
        <ele>265.26</ele>
        <time>2017-02-25T13:18:34Z</time>
      </trkpt>
      <trkpt lat="45.33679" lon="5.18813">
        <ele>264.79</ele>
        <time>2017-02-25T13:18:35Z</time>
      </trkpt>
      <trkpt lat="45.33678" lon="5.18787">
        <ele>264.45</ele>
        <time>2017-02-25T13:18:36Z</time>
      </trkpt>
      <trkpt lat="45.33678" lon="5.18765">
        <ele>263.82</ele>
        <time>2017-02-25T13:18:37Z</time>
      </trkpt>
      <trkpt lat="45.33679" lon="5.18747">
        <ele>263.78</ele>
        <time>2017-02-25T13:18:38Z</time>
      </trkpt>
      <trkpt lat="45.3368" lon="5.18731">
        <ele>263.77</ele>
        <time>2017-02-25T13:18:39Z</time>
      </trkpt>
      <trkpt lat="45.33682" lon="5.18716">
        <ele>263.53</ele>
        <time>2017-02-25T13:18:40Z</time>
      </trkpt>
      <trkpt lat="45.33682" lon="5.18702">
        <ele>263.4</ele>
        <time>2017-02-25T13:18:41Z</time>
      </trkpt>
      <trkpt lat="45.33677" lon="5.18688">
        <ele>263.93</ele>
        <time>2017-02-25T13:18:42Z</time>
      </trkpt>
      <trkpt lat="45.33673" lon="5.18674">
        <ele>263</ele>
        <time>2017-02-25T13:18:43Z</time>
      </trkpt>
      <trkpt lat="45.33667" lon="5.18658">
        <ele>262.57</ele>
        <time>2017-02-25T13:18:44Z</time>
      </trkpt>
      <trkpt lat="45.33663" lon="5.18638">
        <ele>262.25</ele>
        <time>2017-02-25T13:18:45Z</time>
      </trkpt>
      <trkpt lat="45.3366" lon="5.18615">
        <ele>262.1</ele>
        <time>2017-02-25T13:18:46Z</time>
      </trkpt>
      <trkpt lat="45.33657" lon="5.1859">
        <ele>262.07</ele>
        <time>2017-02-25T13:18:47Z</time>
      </trkpt>
      <trkpt lat="45.33654" lon="5.18564">
        <ele>262.07</ele>
        <time>2017-02-25T13:18:48Z</time>
      </trkpt>
      <trkpt lat="45.33651" lon="5.18537">
        <ele>262.15</ele>
        <time>2017-02-25T13:18:49Z</time>
      </trkpt>
      <trkpt lat="45.33649" lon="5.18508">
        <ele>262.16</ele>
        <time>2017-02-25T13:18:50Z</time>
      </trkpt>
      <trkpt lat="45.33646" lon="5.18478">
        <ele>262.09</ele>
        <time>2017-02-25T13:18:51Z</time>
      </trkpt>
      <trkpt lat="45.33642" lon="5.18448">
        <ele>261.75</ele>
        <time>2017-02-25T13:18:52Z</time>
      </trkpt>
      <trkpt lat="45.33639" lon="5.18417">
        <ele>261.44</ele>
        <time>2017-02-25T13:18:53Z</time>
      </trkpt>
      <trkpt lat="45.33636" lon="5.18385">
        <ele>260.98</ele>
        <time>2017-02-25T13:18:54Z</time>
      </trkpt>
      <trkpt lat="45.33633" lon="5.18353">
        <ele>260.65</ele>
        <time>2017-02-25T13:18:55Z</time>
      </trkpt>
      <trkpt lat="45.33629" lon="5.18321">
        <ele>260.02</ele>
        <time>2017-02-25T13:18:56Z</time>
      </trkpt>
      <trkpt lat="45.33626" lon="5.18289">
        <ele>259.42</ele>
        <time>2017-02-25T13:18:57Z</time>
      </trkpt>
      <trkpt lat="45.33622" lon="5.18257">
        <ele>258.98</ele>
        <time>2017-02-25T13:18:58Z</time>
      </trkpt>
      <trkpt lat="45.33619" lon="5.18226">
        <ele>258.33</ele>
        <time>2017-02-25T13:18:59Z</time>
      </trkpt>
      <trkpt lat="45.33615" lon="5.18196">
        <ele>257.88</ele>
        <time>2017-02-25T13:19:00Z</time>
      </trkpt>
      <trkpt lat="45.33611" lon="5.18167">
        <ele>257.71</ele>
        <time>2017-02-25T13:19:01Z</time>
      </trkpt>
      <trkpt lat="45.33607" lon="5.1814">
        <ele>257.52</ele>
        <time>2017-02-25T13:19:02Z</time>
      </trkpt>
      <trkpt lat="45.33604" lon="5.18116">
        <ele>257.4</ele>
        <time>2017-02-25T13:19:03Z</time>
      </trkpt>
      <trkpt lat="45.33603" lon="5.18096">
        <ele>257.13</ele>
        <time>2017-02-25T13:19:04Z</time>
      </trkpt>
      <trkpt lat="45.33602" lon="5.18079">
        <ele>256.36</ele>
        <time>2017-02-25T13:19:05Z</time>
      </trkpt>
      <trkpt lat="45.33604" lon="5.18067">
        <ele>256.77</ele>
        <time>2017-02-25T13:19:06Z</time>
      </trkpt>
      <trkpt lat="45.33607" lon="5.18055">
        <ele>256.61</ele>
        <time>2017-02-25T13:19:07Z</time>
      </trkpt>
      <trkpt lat="45.33608" lon="5.18042">
        <ele>256.41</ele>
        <time>2017-02-25T13:19:08Z</time>
      </trkpt>
      <trkpt lat="45.33609" lon="5.1803">
        <ele>256.06</ele>
        <time>2017-02-25T13:19:09Z</time>
      </trkpt>
      <trkpt lat="45.33604" lon="5.18019">
        <ele>255.9</ele>
        <time>2017-02-25T13:19:10Z</time>
      </trkpt>
      <trkpt lat="45.33599" lon="5.18013">
        <ele>255.79</ele>
        <time>2017-02-25T13:19:11Z</time>
      </trkpt>
      <trkpt lat="45.33591" lon="5.1801">
        <ele>255.53</ele>
        <time>2017-02-25T13:19:12Z</time>
      </trkpt>
      <trkpt lat="45.33582" lon="5.18011">
        <ele>255</ele>
        <time>2017-02-25T13:19:13Z</time>
      </trkpt>
      <trkpt lat="45.33573" lon="5.18013">
        <ele>254.33</ele>
        <time>2017-02-25T13:19:14Z</time>
      </trkpt>
      <trkpt lat="45.33561" lon="5.18012">
        <ele>253.8</ele>
        <time>2017-02-25T13:19:15Z</time>
      </trkpt>
      <trkpt lat="45.33547" lon="5.18007">
        <ele>253.29</ele>
        <time>2017-02-25T13:19:16Z</time>
      </trkpt>
      <trkpt lat="45.33531" lon="5.18">
        <ele>252.79</ele>
        <time>2017-02-25T13:19:17Z</time>
      </trkpt>
      <trkpt lat="45.33514" lon="5.17991">
        <ele>252.53</ele>
        <time>2017-02-25T13:19:18Z</time>
      </trkpt>
      <trkpt lat="45.33494" lon="5.17979">
        <ele>252.4</ele>
        <time>2017-02-25T13:19:19Z</time>
      </trkpt>
      <trkpt lat="45.33474" lon="5.17967">
        <ele>252.37</ele>
        <time>2017-02-25T13:19:20Z</time>
      </trkpt>
      <trkpt lat="45.33452" lon="5.17954">
        <ele>252.45</ele>
        <time>2017-02-25T13:19:21Z</time>
      </trkpt>
      <trkpt lat="45.33431" lon="5.17941">
        <ele>252.54</ele>
        <time>2017-02-25T13:19:22Z</time>
      </trkpt>
      <trkpt lat="45.33409" lon="5.17928">
        <ele>252.48</ele>
        <time>2017-02-25T13:19:23Z</time>
      </trkpt>
      <trkpt lat="45.33387" lon="5.17914">
        <ele>252.39</ele>
        <time>2017-02-25T13:19:24Z</time>
      </trkpt>
      <trkpt lat="45.33364" lon="5.179">
        <ele>252.45</ele>
        <time>2017-02-25T13:19:25Z</time>
      </trkpt>
      <trkpt lat="45.33341" lon="5.17886">
        <ele>252.54</ele>
        <time>2017-02-25T13:19:26Z</time>
      </trkpt>
      <trkpt lat="45.33317" lon="5.17872">
        <ele>252.48</ele>
        <time>2017-02-25T13:19:27Z</time>
      </trkpt>
      <trkpt lat="45.33293" lon="5.17857">
        <ele>252.55</ele>
        <time>2017-02-25T13:19:28Z</time>
      </trkpt>
      <trkpt lat="45.33269" lon="5.17843">
        <ele>252.8</ele>
        <time>2017-02-25T13:19:29Z</time>
      </trkpt>
      <trkpt lat="45.33245" lon="5.17828">
        <ele>252.85</ele>
        <time>2017-02-25T13:19:30Z</time>
      </trkpt>
      <trkpt lat="45.33221" lon="5.17813">
        <ele>252.62</ele>
        <time>2017-02-25T13:19:31Z</time>
      </trkpt>
      <trkpt lat="45.33196" lon="5.17799">
        <ele>252.66</ele>
        <time>2017-02-25T13:19:32Z</time>
      </trkpt>
      <trkpt lat="45.33172" lon="5.17784">
        <ele>252.91</ele>
        <time>2017-02-25T13:19:33Z</time>
      </trkpt>
      <trkpt lat="45.33149" lon="5.1777">
        <ele>252.87</ele>
        <time>2017-02-25T13:19:34Z</time>
      </trkpt>
      <trkpt lat="45.33125" lon="5.17755">
        <ele>252.63</ele>
        <time>2017-02-25T13:19:35Z</time>
      </trkpt>
      <trkpt lat="45.33103" lon="5.17742">
        <ele>252.42</ele>
        <time>2017-02-25T13:19:36Z</time>
      </trkpt>
      <trkpt lat="45.33081" lon="5.17729">
        <ele>252.22</ele>
        <time>2017-02-25T13:19:37Z</time>
      </trkpt>
      <trkpt lat="45.33059" lon="5.17715">
        <ele>252.42</ele>
        <time>2017-02-25T13:19:38Z</time>
      </trkpt>
      <trkpt lat="45.33037" lon="5.17702">
        <ele>252.22</ele>
        <time>2017-02-25T13:19:39Z</time>
      </trkpt>
      <trkpt lat="45.33015" lon="5.17688">
        <ele>251.94</ele>
        <time>2017-02-25T13:19:40Z</time>
      </trkpt>
      <trkpt lat="45.32994" lon="5.17675">
        <ele>251.72</ele>
        <time>2017-02-25T13:19:41Z</time>
      </trkpt>
      <trkpt lat="45.32972" lon="5.17662">
        <ele>251.68</ele>
        <time>2017-02-25T13:19:42Z</time>
      </trkpt>
      <trkpt lat="45.3295" lon="5.17649">
        <ele>251.83</ele>
        <time>2017-02-25T13:19:43Z</time>
      </trkpt>
      <trkpt lat="45.32928" lon="5.17636">
        <ele>252.02</ele>
        <time>2017-02-25T13:19:44Z</time>
      </trkpt>
      <trkpt lat="45.32907" lon="5.17622">
        <ele>251.98</ele>
        <time>2017-02-25T13:19:45Z</time>
      </trkpt>
      <trkpt lat="45.32885" lon="5.17609">
        <ele>252.29</ele>
        <time>2017-02-25T13:19:46Z</time>
      </trkpt>
      <trkpt lat="45.32864" lon="5.17596">
        <ele>252.35</ele>
        <time>2017-02-25T13:19:47Z</time>
      </trkpt>
      <trkpt lat="45.32843" lon="5.17583">
        <ele>252.44</ele>
        <time>2017-02-25T13:19:48Z</time>
      </trkpt>
      <trkpt lat="45.32821" lon="5.17569">
        <ele>252.38</ele>
        <time>2017-02-25T13:19:49Z</time>
      </trkpt>
      <trkpt lat="45.328" lon="5.17556">
        <ele>252.13</ele>
        <time>2017-02-25T13:19:50Z</time>
      </trkpt>
      <trkpt lat="45.32779" lon="5.17543">
        <ele>252.16</ele>
        <time>2017-02-25T13:19:51Z</time>
      </trkpt>
      <trkpt lat="45.32758" lon="5.1753">
        <ele>252.33</ele>
        <time>2017-02-25T13:19:52Z</time>
      </trkpt>
      <trkpt lat="45.32737" lon="5.17517">
        <ele>252.44</ele>
        <time>2017-02-25T13:19:53Z</time>
      </trkpt>
      <trkpt lat="45.32716" lon="5.17504">
        <ele>252.7</ele>
        <time>2017-02-25T13:19:54Z</time>
      </trkpt>
      <trkpt lat="45.32695" lon="5.17491">
        <ele>252.99</ele>
        <time>2017-02-25T13:19:55Z</time>
      </trkpt>
      <trkpt lat="45.32673" lon="5.17478">
        <ele>253.13</ele>
        <time>2017-02-25T13:19:56Z</time>
      </trkpt>
      <trkpt lat="45.32652" lon="5.17465">
        <ele>253.16</ele>
        <time>2017-02-25T13:19:57Z</time>
      </trkpt>
      <trkpt lat="45.32631" lon="5.17452">
        <ele>253.49</ele>
        <time>2017-02-25T13:19:58Z</time>
      </trkpt>
      <trkpt lat="45.3261" lon="5.17439">
        <ele>253.55</ele>
        <time>2017-02-25T13:19:59Z</time>
      </trkpt>
      <trkpt lat="45.32589" lon="5.17426">
        <ele>253.32</ele>
        <time>2017-02-25T13:20:00Z</time>
      </trkpt>
      <trkpt lat="45.32568" lon="5.17413">
        <ele>253.36</ele>
        <time>2017-02-25T13:20:01Z</time>
      </trkpt>
      <trkpt lat="45.32547" lon="5.174">
        <ele>253.29</ele>
        <time>2017-02-25T13:20:02Z</time>
      </trkpt>
      <trkpt lat="45.32526" lon="5.17387">
        <ele>253.35</ele>
        <time>2017-02-25T13:20:03Z</time>
      </trkpt>
      <trkpt lat="45.32505" lon="5.17374">
        <ele>253.6</ele>
        <time>2017-02-25T13:20:04Z</time>
      </trkpt>
      <trkpt lat="45.32485" lon="5.17361">
        <ele>253.65</ele>
        <time>2017-02-25T13:20:05Z</time>
      </trkpt>
      <trkpt lat="45.32464" lon="5.17348">
        <ele>253.42</ele>
        <time>2017-02-25T13:20:06Z</time>
      </trkpt>
      <trkpt lat="45.32443" lon="5.17335">
        <ele>253.22</ele>
        <time>2017-02-25T13:20:07Z</time>
      </trkpt>
      <trkpt lat="45.32423" lon="5.17323">
        <ele>253.26</ele>
        <time>2017-02-25T13:20:08Z</time>
      </trkpt>
      <trkpt lat="45.32403" lon="5.17311">
        <ele>253.59</ele>
        <time>2017-02-25T13:20:09Z</time>
      </trkpt>
      <trkpt lat="45.32383" lon="5.17298">
        <ele>253.65</ele>
        <time>2017-02-25T13:20:10Z</time>
      </trkpt>
      <trkpt lat="45.32362" lon="5.17285">
        <ele>253.82</ele>
        <time>2017-02-25T13:20:11Z</time>
      </trkpt>
      <trkpt lat="45.32342" lon="5.17273">
        <ele>254.1</ele>
        <time>2017-02-25T13:20:12Z</time>
      </trkpt>
      <trkpt lat="45.32322" lon="5.17261">
        <ele>253.99</ele>
        <time>2017-02-25T13:20:13Z</time>
      </trkpt>
      <trkpt lat="45.32303" lon="5.17249">
        <ele>253.89</ele>
        <time>2017-02-25T13:20:14Z</time>
      </trkpt>
      <trkpt lat="45.32283" lon="5.17237">
        <ele>254.03</ele>
        <time>2017-02-25T13:20:15Z</time>
      </trkpt>
      <trkpt lat="45.32263" lon="5.17225">
        <ele>253.9</ele>
        <time>2017-02-25T13:20:16Z</time>
      </trkpt>
      <trkpt lat="45.32243" lon="5.17213">
        <ele>253.87</ele>
        <time>2017-02-25T13:20:17Z</time>
      </trkpt>
      <trkpt lat="45.32223" lon="5.17201">
        <ele>254.11</ele>
        <time>2017-02-25T13:20:18Z</time>
      </trkpt>
      <trkpt lat="45.32204" lon="5.1719">
        <ele>254.24</ele>
        <time>2017-02-25T13:20:19Z</time>
      </trkpt>
      <trkpt lat="45.32186" lon="5.17178">
        <ele>254.18</ele>
        <time>2017-02-25T13:20:20Z</time>
      </trkpt>
      <trkpt lat="45.32168" lon="5.17167">
        <ele>254.01</ele>
        <time>2017-02-25T13:20:21Z</time>
      </trkpt>
      <trkpt lat="45.3215" lon="5.17156">
        <ele>254.06</ele>
        <time>2017-02-25T13:20:22Z</time>
      </trkpt>
      <trkpt lat="45.32134" lon="5.17146">
        <ele>254.54</ele>
        <time>2017-02-25T13:20:23Z</time>
      </trkpt>
      <trkpt lat="45.32119" lon="5.17137">
        <ele>255.2</ele>
        <time>2017-02-25T13:20:24Z</time>
      </trkpt>
      <trkpt lat="45.32105" lon="5.17128">
        <ele>255.65</ele>
        <time>2017-02-25T13:20:25Z</time>
      </trkpt>
      <trkpt lat="45.32091" lon="5.1712">
        <ele>256.22</ele>
        <time>2017-02-25T13:20:26Z</time>
      </trkpt>
      <trkpt lat="45.32077" lon="5.17112">
        <ele>256.58</ele>
        <time>2017-02-25T13:20:27Z</time>
      </trkpt>
      <trkpt lat="45.32064" lon="5.17104">
        <ele>257.37</ele>
        <time>2017-02-25T13:20:28Z</time>
      </trkpt>
      <trkpt lat="45.32051" lon="5.17096">
        <ele>258.65</ele>
        <time>2017-02-25T13:20:29Z</time>
      </trkpt>
      <trkpt lat="45.32038" lon="5.17089">
        <ele>259.78</ele>
        <time>2017-02-25T13:20:30Z</time>
      </trkpt>
      <trkpt lat="45.32025" lon="5.17082">
        <ele>260.89</ele>
        <time>2017-02-25T13:20:31Z</time>
      </trkpt>
      <trkpt lat="45.32012" lon="5.17074">
        <ele>261.91</ele>
        <time>2017-02-25T13:20:32Z</time>
      </trkpt>
      <trkpt lat="45.32" lon="5.17067">
        <ele>262.6</ele>
        <time>2017-02-25T13:20:33Z</time>
      </trkpt>
      <trkpt lat="45.31987" lon="5.17059">
        <ele>263.21</ele>
        <time>2017-02-25T13:20:34Z</time>
      </trkpt>
      <trkpt lat="45.31975" lon="5.17053">
        <ele>263.66</ele>
        <time>2017-02-25T13:20:35Z</time>
      </trkpt>
      <trkpt lat="45.31962" lon="5.17046">
        <ele>264.38</ele>
        <time>2017-02-25T13:20:36Z</time>
      </trkpt>
      <trkpt lat="45.3195" lon="5.17041">
        <ele>265.25</ele>
        <time>2017-02-25T13:20:37Z</time>
      </trkpt>
      <trkpt lat="45.31938" lon="5.17035">
        <ele>266.38</ele>
        <time>2017-02-25T13:20:38Z</time>
      </trkpt>
      <trkpt lat="45.31926" lon="5.1703">
        <ele>267.41</ele>
        <time>2017-02-25T13:20:39Z</time>
      </trkpt>
      <trkpt lat="45.31913" lon="5.17025">
        <ele>268.98</ele>
        <time>2017-02-25T13:20:40Z</time>
      </trkpt>
      <trkpt lat="45.319" lon="5.1702">
        <ele>269.85</ele>
        <time>2017-02-25T13:20:41Z</time>
      </trkpt>
      <trkpt lat="45.31888" lon="5.17015">
        <ele>270.02</ele>
        <time>2017-02-25T13:20:42Z</time>
      </trkpt>
      <trkpt lat="45.31876" lon="5.17009">
        <ele>270.22</ele>
        <time>2017-02-25T13:20:43Z</time>
      </trkpt>
      <trkpt lat="45.31864" lon="5.17004">
        <ele>271.22</ele>
        <time>2017-02-25T13:20:44Z</time>
      </trkpt>
      <trkpt lat="45.31852" lon="5.16999">
        <ele>272.22</ele>
        <time>2017-02-25T13:20:45Z</time>
      </trkpt>
      <trkpt lat="45.3184" lon="5.16993">
        <ele>272.66</ele>
        <time>2017-02-25T13:20:46Z</time>
      </trkpt>
      <trkpt lat="45.31829" lon="5.16988">
        <ele>272.83</ele>
        <time>2017-02-25T13:20:47Z</time>
      </trkpt>
      <trkpt lat="45.31817" lon="5.16984">
        <ele>272.94</ele>
        <time>2017-02-25T13:20:48Z</time>
      </trkpt>
      <trkpt lat="45.31805" lon="5.1698">
        <ele>273.12</ele>
        <time>2017-02-25T13:20:49Z</time>
      </trkpt>
      <trkpt lat="45.31793" lon="5.16976">
        <ele>273.24</ele>
        <time>2017-02-25T13:20:50Z</time>
      </trkpt>
      <trkpt lat="45.31781" lon="5.16972">
        <ele>273.5</ele>
        <time>2017-02-25T13:20:51Z</time>
      </trkpt>
      <trkpt lat="45.3177" lon="5.16966">
        <ele>273.79</ele>
        <time>2017-02-25T13:20:52Z</time>
      </trkpt>
      <trkpt lat="45.31758" lon="5.16961">
        <ele>273.93</ele>
        <time>2017-02-25T13:20:53Z</time>
      </trkpt>
      <trkpt lat="45.31746" lon="5.16955">
        <ele>273.96</ele>
        <time>2017-02-25T13:20:54Z</time>
      </trkpt>
      <trkpt lat="45.31735" lon="5.1695">
        <ele>273.89</ele>
        <time>2017-02-25T13:20:55Z</time>
      </trkpt>
      <trkpt lat="45.31723" lon="5.16943">
        <ele>274.35</ele>
        <time>2017-02-25T13:20:56Z</time>
      </trkpt>
      <trkpt lat="45.31713" lon="5.16934">
        <ele>274.28</ele>
        <time>2017-02-25T13:20:57Z</time>
      </trkpt>
      <trkpt lat="45.31703" lon="5.16924">
        <ele>273.79</ele>
        <time>2017-02-25T13:20:58Z</time>
      </trkpt>
      <trkpt lat="45.31692" lon="5.16914">
        <ele>273.45</ele>
        <time>2017-02-25T13:20:59Z</time>
      </trkpt>
      <trkpt lat="45.31681" lon="5.16905">
        <ele>273.86</ele>
        <time>2017-02-25T13:21:00Z</time>
      </trkpt>
      <trkpt lat="45.31669" lon="5.16897">
        <ele>274.27</ele>
        <time>2017-02-25T13:21:01Z</time>
      </trkpt>
      <trkpt lat="45.31658" lon="5.16892">
        <ele>274.75</ele>
        <time>2017-02-25T13:21:02Z</time>
      </trkpt>
      <trkpt lat="45.31646" lon="5.16888">
        <ele>275.32</ele>
        <time>2017-02-25T13:21:03Z</time>
      </trkpt>
      <trkpt lat="45.31635" lon="5.16885">
        <ele>275.6</ele>
        <time>2017-02-25T13:21:04Z</time>
      </trkpt>
      <trkpt lat="45.31624" lon="5.16882">
        <ele>276.05</ele>
        <time>2017-02-25T13:21:05Z</time>
      </trkpt>
      <trkpt lat="45.31613" lon="5.1688">
        <ele>276.54</ele>
        <time>2017-02-25T13:21:06Z</time>
      </trkpt>
      <trkpt lat="45.31601" lon="5.16881">
        <ele>277.12</ele>
        <time>2017-02-25T13:21:07Z</time>
      </trkpt>
      <trkpt lat="45.31589" lon="5.16882">
        <ele>277.24</ele>
        <time>2017-02-25T13:21:08Z</time>
      </trkpt>
      <trkpt lat="45.31577" lon="5.16884">
        <ele>277.66</ele>
        <time>2017-02-25T13:21:09Z</time>
      </trkpt>
      <trkpt lat="45.31565" lon="5.16885">
        <ele>278.15</ele>
        <time>2017-02-25T13:21:10Z</time>
      </trkpt>
      <trkpt lat="45.31551" lon="5.16887">
        <ele>278.88</ele>
        <time>2017-02-25T13:21:11Z</time>
      </trkpt>
      <trkpt lat="45.31538" lon="5.16889">
        <ele>279.27</ele>
        <time>2017-02-25T13:21:12Z</time>
      </trkpt>
      <trkpt lat="45.31523" lon="5.16892">
        <ele>279.75</ele>
        <time>2017-02-25T13:21:13Z</time>
      </trkpt>
      <trkpt lat="45.31508" lon="5.16895">
        <ele>280.48</ele>
        <time>2017-02-25T13:21:14Z</time>
      </trkpt>
      <trkpt lat="45.31493" lon="5.16898">
        <ele>281.27</ele>
        <time>2017-02-25T13:21:15Z</time>
      </trkpt>
      <trkpt lat="45.31478" lon="5.16902">
        <ele>282.07</ele>
        <time>2017-02-25T13:21:16Z</time>
      </trkpt>
      <trkpt lat="45.31461" lon="5.16907">
        <ele>283.11</ele>
        <time>2017-02-25T13:21:17Z</time>
      </trkpt>
      <trkpt lat="45.31444" lon="5.16912">
        <ele>284.6</ele>
        <time>2017-02-25T13:21:18Z</time>
      </trkpt>
      <trkpt lat="45.31427" lon="5.16916">
        <ele>286.25</ele>
        <time>2017-02-25T13:21:19Z</time>
      </trkpt>
      <trkpt lat="45.31409" lon="5.1692">
        <ele>288.34</ele>
        <time>2017-02-25T13:21:20Z</time>
      </trkpt>
      <trkpt lat="45.31391" lon="5.16924">
        <ele>290.28</ele>
        <time>2017-02-25T13:21:21Z</time>
      </trkpt>
      <trkpt lat="45.31373" lon="5.16927">
        <ele>292.11</ele>
        <time>2017-02-25T13:21:22Z</time>
      </trkpt>
      <trkpt lat="45.31357" lon="5.16932">
        <ele>293.76</ele>
        <time>2017-02-25T13:21:23Z</time>
      </trkpt>
      <trkpt lat="45.31343" lon="5.16934">
        <ele>295.28</ele>
        <time>2017-02-25T13:21:24Z</time>
      </trkpt>
      <trkpt lat="45.31331" lon="5.16935">
        <ele>297.83</ele>
        <time>2017-02-25T13:21:25Z</time>
      </trkpt>
      <trkpt lat="45.31327" lon="5.16931">
        <ele>299.46</ele>
        <time>2017-02-25T13:21:26Z</time>
      </trkpt>
      <trkpt lat="45.31322" lon="5.16927">
        <ele>301.55</ele>
        <time>2017-02-25T13:21:27Z</time>
      </trkpt>
      <trkpt lat="45.31321" lon="5.16922">
        <ele>303.4</ele>
        <time>2017-02-25T13:21:28Z</time>
      </trkpt>
      <trkpt lat="45.31323" lon="5.16918">
        <ele>305.05</ele>
        <time>2017-02-25T13:21:29Z</time>
      </trkpt>
      <trkpt lat="45.31327" lon="5.16914">
        <ele>306.42</ele>
        <time>2017-02-25T13:21:30Z</time>
      </trkpt>
      <trkpt lat="45.31331" lon="5.1691">
        <ele>307.9</ele>
        <time>2017-02-25T13:21:31Z</time>
      </trkpt>
      <trkpt lat="45.3134" lon="5.16903">
        <ele>308.67</ele>
        <time>2017-02-25T13:21:32Z</time>
      </trkpt>
      <trkpt lat="45.31347" lon="5.16897">
        <ele>310.27</ele>
        <time>2017-02-25T13:21:33Z</time>
      </trkpt>
      <trkpt lat="45.31354" lon="5.16887">
        <ele>311.07</ele>
        <time>2017-02-25T13:21:34Z</time>
      </trkpt>
      <trkpt lat="45.31364" lon="5.16875">
        <ele>311.55</ele>
        <time>2017-02-25T13:21:35Z</time>
      </trkpt>
      <trkpt lat="45.31373" lon="5.16863">
        <ele>312.28</ele>
        <time>2017-02-25T13:21:36Z</time>
      </trkpt>
      <trkpt lat="45.31382" lon="5.16849">
        <ele>313.47</ele>
        <time>2017-02-25T13:21:37Z</time>
      </trkpt>
      <trkpt lat="45.31392" lon="5.16832">
        <ele>311.63</ele>
        <time>2017-02-25T13:21:38Z</time>
      </trkpt>
      <trkpt lat="45.31399" lon="5.16816">
        <ele>311.42</ele>
        <time>2017-02-25T13:21:39Z</time>
      </trkpt>
      <trkpt lat="45.31406" lon="5.16795">
        <ele>312.42</ele>
        <time>2017-02-25T13:21:40Z</time>
      </trkpt>
      <trkpt lat="45.31412" lon="5.16776">
        <ele>313.34</ele>
        <time>2017-02-25T13:21:41Z</time>
      </trkpt>
      <trkpt lat="45.31419" lon="5.16756">
        <ele>314.32</ele>
        <time>2017-02-25T13:21:42Z</time>
      </trkpt>
      <trkpt lat="45.31424" lon="5.16737">
        <ele>315.32</ele>
        <time>2017-02-25T13:21:43Z</time>
      </trkpt>
      <trkpt lat="45.3143" lon="5.1672">
        <ele>316.24</ele>
        <time>2017-02-25T13:21:44Z</time>
      </trkpt>
      <trkpt lat="45.31436" lon="5.16704">
        <ele>316.98</ele>
        <time>2017-02-25T13:21:45Z</time>
      </trkpt>
      <trkpt lat="45.31441" lon="5.16689">
        <ele>317.53</ele>
        <time>2017-02-25T13:21:46Z</time>
      </trkpt>
      <trkpt lat="45.31454" lon="5.16674">
        <ele>318.04</ele>
        <time>2017-02-25T13:21:47Z</time>
      </trkpt>
      <trkpt lat="45.31459" lon="5.1666">
        <ele>317.82</ele>
        <time>2017-02-25T13:21:48Z</time>
      </trkpt>
      <trkpt lat="45.31465" lon="5.16644">
        <ele>318.02</ele>
        <time>2017-02-25T13:21:49Z</time>
      </trkpt>
      <trkpt lat="45.3147" lon="5.16627">
        <ele>318.62</ele>
        <time>2017-02-25T13:21:50Z</time>
      </trkpt>
      <trkpt lat="45.31473" lon="5.16609">
        <ele>319.06</ele>
        <time>2017-02-25T13:21:51Z</time>
      </trkpt>
      <trkpt lat="45.31475" lon="5.16591">
        <ele>319.95</ele>
        <time>2017-02-25T13:21:52Z</time>
      </trkpt>
      <trkpt lat="45.31474" lon="5.16572">
        <ele>320.76</ele>
        <time>2017-02-25T13:21:53Z</time>
      </trkpt>
      <trkpt lat="45.31472" lon="5.16554">
        <ele>321.81</ele>
        <time>2017-02-25T13:21:54Z</time>
      </trkpt>
      <trkpt lat="45.31468" lon="5.16538">
        <ele>322.81</ele>
        <time>2017-02-25T13:21:55Z</time>
      </trkpt>
      <trkpt lat="45.31463" lon="5.16522">
        <ele>323.98</ele>
        <time>2017-02-25T13:21:56Z</time>
      </trkpt>
      <trkpt lat="45.31456" lon="5.16508">
        <ele>324.77</ele>
        <time>2017-02-25T13:21:57Z</time>
      </trkpt>
      <trkpt lat="45.31448" lon="5.16495">
        <ele>325.81</ele>
        <time>2017-02-25T13:21:58Z</time>
      </trkpt>
      <trkpt lat="45.31438" lon="5.16483">
        <ele>326.9</ele>
        <time>2017-02-25T13:21:59Z</time>
      </trkpt>
      <trkpt lat="45.31428" lon="5.16473">
        <ele>327.67</ele>
        <time>2017-02-25T13:22:00Z</time>
      </trkpt>
      <trkpt lat="45.31418" lon="5.16463">
        <ele>328.47</ele>
        <time>2017-02-25T13:22:01Z</time>
      </trkpt>
      <trkpt lat="45.31406" lon="5.16454">
        <ele>328.87</ele>
        <time>2017-02-25T13:22:02Z</time>
      </trkpt>
      <trkpt lat="45.31393" lon="5.16444">
        <ele>329.35</ele>
        <time>2017-02-25T13:22:03Z</time>
      </trkpt>
      <trkpt lat="45.31379" lon="5.16434">
        <ele>329.84</ele>
        <time>2017-02-25T13:22:04Z</time>
      </trkpt>
      <trkpt lat="45.31366" lon="5.16423">
        <ele>330.18</ele>
        <time>2017-02-25T13:22:05Z</time>
      </trkpt>
      <trkpt lat="45.31352" lon="5.16412">
        <ele>330.41</ele>
        <time>2017-02-25T13:22:06Z</time>
      </trkpt>
      <trkpt lat="45.31338" lon="5.164">
        <ele>330.78</ele>
        <time>2017-02-25T13:22:07Z</time>
      </trkpt>
      <trkpt lat="45.31325" lon="5.16389">
        <ele>331.49</ele>
        <time>2017-02-25T13:22:08Z</time>
      </trkpt>
      <trkpt lat="45.31312" lon="5.16378">
        <ele>332.11</ele>
        <time>2017-02-25T13:22:09Z</time>
      </trkpt>
      <trkpt lat="45.31299" lon="5.16369">
        <ele>332.64</ele>
        <time>2017-02-25T13:22:10Z</time>
      </trkpt>
      <trkpt lat="45.31287" lon="5.16359">
        <ele>333.06</ele>
        <time>2017-02-25T13:22:11Z</time>
      </trkpt>
      <trkpt lat="45.31276" lon="5.1635">
        <ele>333.31</ele>
        <time>2017-02-25T13:22:12Z</time>
      </trkpt>
      <trkpt lat="45.31264" lon="5.16341">
        <ele>333.43</ele>
        <time>2017-02-25T13:22:13Z</time>
      </trkpt>
      <trkpt lat="45.31253" lon="5.16332">
        <ele>332.98</ele>
        <time>2017-02-25T13:22:14Z</time>
      </trkpt>
      <trkpt lat="45.31242" lon="5.16324">
        <ele>332.49</ele>
        <time>2017-02-25T13:22:15Z</time>
      </trkpt>
      <trkpt lat="45.31232" lon="5.16315">
        <ele>332.39</ele>
        <time>2017-02-25T13:22:16Z</time>
      </trkpt>
      <trkpt lat="45.31221" lon="5.16306">
        <ele>332.45</ele>
        <time>2017-02-25T13:22:17Z</time>
      </trkpt>
      <trkpt lat="45.3121" lon="5.16296">
        <ele>332.62</ele>
        <time>2017-02-25T13:22:18Z</time>
      </trkpt>
      <trkpt lat="45.31197" lon="5.16287">
        <ele>333.06</ele>
        <time>2017-02-25T13:22:19Z</time>
      </trkpt>
      <trkpt lat="45.31184" lon="5.16276">
        <ele>333.39</ele>
        <time>2017-02-25T13:22:20Z</time>
      </trkpt>
      <trkpt lat="45.31167" lon="5.16264">
        <ele>333.93</ele>
        <time>2017-02-25T13:22:21Z</time>
      </trkpt>
      <trkpt lat="45.31149" lon="5.1625">
        <ele>334.12</ele>
        <time>2017-02-25T13:22:22Z</time>
      </trkpt>
      <trkpt lat="45.3113" lon="5.16234">
        <ele>334.48</ele>
        <time>2017-02-25T13:22:23Z</time>
      </trkpt>
      <trkpt lat="45.3111" lon="5.16218">
        <ele>335.11</ele>
        <time>2017-02-25T13:22:24Z</time>
      </trkpt>
      <trkpt lat="45.31089" lon="5.16201">
        <ele>335.16</ele>
        <time>2017-02-25T13:22:25Z</time>
      </trkpt>
      <trkpt lat="45.31066" lon="5.16183">
        <ele>335.24</ele>
        <time>2017-02-25T13:22:26Z</time>
      </trkpt>
      <trkpt lat="45.31043" lon="5.16164">
        <ele>335.5</ele>
        <time>2017-02-25T13:22:27Z</time>
      </trkpt>
      <trkpt lat="45.31019" lon="5.16145">
        <ele>335.71</ele>
        <time>2017-02-25T13:22:28Z</time>
      </trkpt>
      <trkpt lat="45.30996" lon="5.16126">
        <ele>336</ele>
        <time>2017-02-25T13:22:29Z</time>
      </trkpt>
      <trkpt lat="45.30972" lon="5.16106">
        <ele>336.37</ele>
        <time>2017-02-25T13:22:30Z</time>
      </trkpt>
      <trkpt lat="45.30947" lon="5.16087">
        <ele>336.61</ele>
        <time>2017-02-25T13:22:31Z</time>
      </trkpt>
      <trkpt lat="45.30923" lon="5.16067">
        <ele>336.9</ele>
        <time>2017-02-25T13:22:32Z</time>
      </trkpt>
      <trkpt lat="45.30899" lon="5.16047">
        <ele>337.03</ele>
        <time>2017-02-25T13:22:33Z</time>
      </trkpt>
      <trkpt lat="45.30876" lon="5.16028">
        <ele>337.22</ele>
        <time>2017-02-25T13:22:34Z</time>
      </trkpt>
      <trkpt lat="45.30852" lon="5.16009">
        <ele>337.5</ele>
        <time>2017-02-25T13:22:35Z</time>
      </trkpt>
      <trkpt lat="45.3083" lon="5.15991">
        <ele>337.71</ele>
        <time>2017-02-25T13:22:36Z</time>
      </trkpt>
      <trkpt lat="45.30809" lon="5.15974">
        <ele>337.6</ele>
        <time>2017-02-25T13:22:37Z</time>
      </trkpt>
      <trkpt lat="45.30789" lon="5.15957">
        <ele>337.01</ele>
        <time>2017-02-25T13:22:38Z</time>
      </trkpt>
      <trkpt lat="45.30769" lon="5.15941">
        <ele>337.14</ele>
        <time>2017-02-25T13:22:39Z</time>
      </trkpt>
      <trkpt lat="45.3075" lon="5.15925">
        <ele>337</ele>
        <time>2017-02-25T13:22:40Z</time>
      </trkpt>
      <trkpt lat="45.30731" lon="5.1591">
        <ele>336.73</ele>
        <time>2017-02-25T13:22:41Z</time>
      </trkpt>
      <trkpt lat="45.30713" lon="5.15895">
        <ele>336.44</ele>
        <time>2017-02-25T13:22:42Z</time>
      </trkpt>
      <trkpt lat="45.30695" lon="5.15881">
        <ele>336.06</ele>
        <time>2017-02-25T13:22:43Z</time>
      </trkpt>
      <trkpt lat="45.30677" lon="5.15866">
        <ele>335.19</ele>
        <time>2017-02-25T13:22:44Z</time>
      </trkpt>
      <trkpt lat="45.30659" lon="5.15851">
        <ele>334.61</ele>
        <time>2017-02-25T13:22:45Z</time>
      </trkpt>
      <trkpt lat="45.30642" lon="5.15837">
        <ele>333.94</ele>
        <time>2017-02-25T13:22:46Z</time>
      </trkpt>
      <trkpt lat="45.30626" lon="5.15822">
        <ele>333.72</ele>
        <time>2017-02-25T13:22:47Z</time>
      </trkpt>
      <trkpt lat="45.30611" lon="5.15806">
        <ele>333.6</ele>
        <time>2017-02-25T13:22:48Z</time>
      </trkpt>
      <trkpt lat="45.30595" lon="5.1579">
        <ele>332.93</ele>
        <time>2017-02-25T13:22:49Z</time>
      </trkpt>
      <trkpt lat="45.30579" lon="5.15775">
        <ele>332.4</ele>
        <time>2017-02-25T13:22:50Z</time>
      </trkpt>
      <trkpt lat="45.30563" lon="5.15761">
        <ele>331.65</ele>
        <time>2017-02-25T13:22:51Z</time>
      </trkpt>
      <trkpt lat="45.30546" lon="5.15748">
        <ele>331.42</ele>
        <time>2017-02-25T13:22:52Z</time>
      </trkpt>
      <trkpt lat="45.30529" lon="5.15736">
        <ele>331.22</ele>
        <time>2017-02-25T13:22:53Z</time>
      </trkpt>
      <trkpt lat="45.30511" lon="5.15726">
        <ele>331.1</ele>
        <time>2017-02-25T13:22:54Z</time>
      </trkpt>
      <trkpt lat="45.30493" lon="5.15718">
        <ele>330.67</ele>
        <time>2017-02-25T13:22:55Z</time>
      </trkpt>
      <trkpt lat="45.30472" lon="5.15714">
        <ele>330.59</ele>
        <time>2017-02-25T13:22:56Z</time>
      </trkpt>
      <trkpt lat="45.30451" lon="5.15711">
        <ele>330.57</ele>
        <time>2017-02-25T13:22:57Z</time>
      </trkpt>
      <trkpt lat="45.30428" lon="5.15709">
        <ele>331.13</ele>
        <time>2017-02-25T13:22:58Z</time>
      </trkpt>
      <trkpt lat="45.30406" lon="5.15707">
        <ele>331.32</ele>
        <time>2017-02-25T13:22:59Z</time>
      </trkpt>
      <trkpt lat="45.30385" lon="5.15705">
        <ele>331.12</ele>
        <time>2017-02-25T13:23:00Z</time>
      </trkpt>
      <trkpt lat="45.30364" lon="5.15703">
        <ele>331.16</ele>
        <time>2017-02-25T13:23:01Z</time>
      </trkpt>
      <trkpt lat="45.30343" lon="5.15703">
        <ele>331.57</ele>
        <time>2017-02-25T13:23:02Z</time>
      </trkpt>
      <trkpt lat="45.30321" lon="5.15705">
        <ele>331.81</ele>
        <time>2017-02-25T13:23:03Z</time>
      </trkpt>
      <trkpt lat="45.30299" lon="5.15709">
        <ele>331.77</ele>
        <time>2017-02-25T13:23:04Z</time>
      </trkpt>
      <trkpt lat="45.30278" lon="5.15716">
        <ele>332.57</ele>
        <time>2017-02-25T13:23:05Z</time>
      </trkpt>
      <trkpt lat="45.30258" lon="5.15725">
        <ele>334.01</ele>
        <time>2017-02-25T13:23:06Z</time>
      </trkpt>
      <trkpt lat="45.30239" lon="5.15736">
        <ele>335.66</ele>
        <time>2017-02-25T13:23:07Z</time>
      </trkpt>
      <trkpt lat="45.30221" lon="5.15748">
        <ele>336.94</ele>
        <time>2017-02-25T13:23:08Z</time>
      </trkpt>
      <trkpt lat="45.30204" lon="5.15759">
        <ele>338.08</ele>
        <time>2017-02-25T13:23:09Z</time>
      </trkpt>
      <trkpt lat="45.30191" lon="5.15768">
        <ele>339.03</ele>
        <time>2017-02-25T13:23:10Z</time>
      </trkpt>
      <trkpt lat="45.30177" lon="5.15775">
        <ele>340.26</ele>
        <time>2017-02-25T13:23:11Z</time>
      </trkpt>
      <trkpt lat="45.30167" lon="5.15772">
        <ele>340.99</ele>
        <time>2017-02-25T13:23:12Z</time>
      </trkpt>
      <trkpt lat="45.30157" lon="5.15762">
        <ele>342.01</ele>
        <time>2017-02-25T13:23:13Z</time>
      </trkpt>
      <trkpt lat="45.30149" lon="5.15744">
        <ele>343.1</ele>
        <time>2017-02-25T13:23:14Z</time>
      </trkpt>
      <trkpt lat="45.30145" lon="5.15721">
        <ele>344.19</ele>
        <time>2017-02-25T13:23:15Z</time>
      </trkpt>
      <trkpt lat="45.30142" lon="5.15696">
        <ele>345.29</ele>
        <time>2017-02-25T13:23:16Z</time>
      </trkpt>
      <trkpt lat="45.3014" lon="5.15669">
        <ele>346.39</ele>
        <time>2017-02-25T13:23:17Z</time>
      </trkpt>
      <trkpt lat="45.30138" lon="5.15641">
        <ele>347.41</ele>
        <time>2017-02-25T13:23:18Z</time>
      </trkpt>
      <trkpt lat="45.30135" lon="5.15611">
        <ele>348.34</ele>
        <time>2017-02-25T13:23:19Z</time>
      </trkpt>
      <trkpt lat="45.30129" lon="5.15581">
        <ele>349.4</ele>
        <time>2017-02-25T13:23:20Z</time>
      </trkpt>
      <trkpt lat="45.30122" lon="5.1555">
        <ele>350.49</ele>
        <time>2017-02-25T13:23:21Z</time>
      </trkpt>
      <trkpt lat="45.30113" lon="5.1552">
        <ele>351.75</ele>
        <time>2017-02-25T13:23:22Z</time>
      </trkpt>
      <trkpt lat="45.30106" lon="5.15489">
        <ele>352.96</ele>
        <time>2017-02-25T13:23:23Z</time>
      </trkpt>
      <trkpt lat="45.30097" lon="5.15458">
        <ele>354.09</ele>
        <time>2017-02-25T13:23:24Z</time>
      </trkpt>
      <trkpt lat="45.30089" lon="5.15428">
        <ele>355.35</ele>
        <time>2017-02-25T13:23:25Z</time>
      </trkpt>
      <trkpt lat="45.3008" lon="5.15397">
        <ele>356.56</ele>
        <time>2017-02-25T13:23:26Z</time>
      </trkpt>
      <trkpt lat="45.30073" lon="5.15367">
        <ele>357.85</ele>
        <time>2017-02-25T13:23:27Z</time>
      </trkpt>
      <trkpt lat="45.30067" lon="5.15336">
        <ele>359.06</ele>
        <time>2017-02-25T13:23:28Z</time>
      </trkpt>
      <trkpt lat="45.30061" lon="5.15305">
        <ele>360.19</ele>
        <time>2017-02-25T13:23:29Z</time>
      </trkpt>
      <trkpt lat="45.30056" lon="5.15274">
        <ele>361.29</ele>
        <time>2017-02-25T13:23:30Z</time>
      </trkpt>
      <trkpt lat="45.3005" lon="5.15244">
        <ele>362.31</ele>
        <time>2017-02-25T13:23:31Z</time>
      </trkpt>
      <trkpt lat="45.30046" lon="5.15215">
        <ele>363.32</ele>
        <time>2017-02-25T13:23:32Z</time>
      </trkpt>
      <trkpt lat="45.30043" lon="5.15186">
        <ele>364.56</ele>
        <time>2017-02-25T13:23:33Z</time>
      </trkpt>
      <trkpt lat="45.30039" lon="5.15159">
        <ele>365.6</ele>
        <time>2017-02-25T13:23:34Z</time>
      </trkpt>
      <trkpt lat="45.30036" lon="5.15132">
        <ele>366.61</ele>
        <time>2017-02-25T13:23:35Z</time>
      </trkpt>
      <trkpt lat="45.30031" lon="5.15106">
        <ele>367.54</ele>
        <time>2017-02-25T13:23:36Z</time>
      </trkpt>
      <trkpt lat="45.30024" lon="5.1508">
        <ele>368.52</ele>
        <time>2017-02-25T13:23:37Z</time>
      </trkpt>
      <trkpt lat="45.30018" lon="5.15054">
        <ele>369.84</ele>
        <time>2017-02-25T13:23:38Z</time>
      </trkpt>
      <trkpt lat="45.30012" lon="5.15028">
        <ele>371.3</ele>
        <time>2017-02-25T13:23:39Z</time>
      </trkpt>
      <trkpt lat="45.3001" lon="5.15002">
        <ele>372.79</ele>
        <time>2017-02-25T13:23:40Z</time>
      </trkpt>
      <trkpt lat="45.30009" lon="5.14976">
        <ele>373.57</ele>
        <time>2017-02-25T13:23:41Z</time>
      </trkpt>
      <trkpt lat="45.30009" lon="5.14952">
        <ele>374.53</ele>
        <time>2017-02-25T13:23:42Z</time>
      </trkpt>
      <trkpt lat="45.30008" lon="5.14928">
        <ele>375.6</ele>
        <time>2017-02-25T13:23:43Z</time>
      </trkpt>
      <trkpt lat="45.30006" lon="5.14904">
        <ele>376.77</ele>
        <time>2017-02-25T13:23:44Z</time>
      </trkpt>
      <trkpt lat="45.3" lon="5.14879">
        <ele>377.97</ele>
        <time>2017-02-25T13:23:45Z</time>
      </trkpt>
      <trkpt lat="45.29993" lon="5.14853">
        <ele>379.25</ele>
        <time>2017-02-25T13:23:46Z</time>
      </trkpt>
      <trkpt lat="45.29984" lon="5.14825">
        <ele>380.62</ele>
        <time>2017-02-25T13:23:47Z</time>
      </trkpt>
      <trkpt lat="45.29977" lon="5.14795">
        <ele>382.1</ele>
        <time>2017-02-25T13:23:48Z</time>
      </trkpt>
      <trkpt lat="45.29969" lon="5.14766">
        <ele>383.51</ele>
        <time>2017-02-25T13:23:49Z</time>
      </trkpt>
      <trkpt lat="45.29962" lon="5.14739">
        <ele>385.08</ele>
        <time>2017-02-25T13:23:50Z</time>
      </trkpt>
      <trkpt lat="45.29954" lon="5.14714">
        <ele>386.59</ele>
        <time>2017-02-25T13:23:51Z</time>
      </trkpt>
      <trkpt lat="45.29947" lon="5.14693">
        <ele>388.41</ele>
        <time>2017-02-25T13:23:52Z</time>
      </trkpt>
      <trkpt lat="45.29939" lon="5.14676">
        <ele>390.14</ele>
        <time>2017-02-25T13:23:53Z</time>
      </trkpt>
      <trkpt lat="45.29929" lon="5.14664">
        <ele>391.6</ele>
        <time>2017-02-25T13:23:54Z</time>
      </trkpt>
      <trkpt lat="45.29918" lon="5.14656">
        <ele>393.01</ele>
        <time>2017-02-25T13:23:55Z</time>
      </trkpt>
      <trkpt lat="45.29906" lon="5.1465">
        <ele>394.18</ele>
        <time>2017-02-25T13:23:56Z</time>
      </trkpt>
      <trkpt lat="45.29892" lon="5.14643">
        <ele>394.97</ele>
        <time>2017-02-25T13:23:57Z</time>
      </trkpt>
      <trkpt lat="45.29879" lon="5.14634">
        <ele>395.69</ele>
        <time>2017-02-25T13:23:58Z</time>
      </trkpt>
      <trkpt lat="45.29864" lon="5.14622">
        <ele>396.31</ele>
        <time>2017-02-25T13:23:59Z</time>
      </trkpt>
      <trkpt lat="45.29851" lon="5.14606">
        <ele>397</ele>
        <time>2017-02-25T13:24:00Z</time>
      </trkpt>
      <trkpt lat="45.29837" lon="5.14589">
        <ele>397.77</ele>
        <time>2017-02-25T13:24:01Z</time>
      </trkpt>
      <trkpt lat="45.29824" lon="5.14569">
        <ele>398.57</ele>
        <time>2017-02-25T13:24:02Z</time>
      </trkpt>
      <trkpt lat="45.29811" lon="5.14548">
        <ele>399.29</ele>
        <time>2017-02-25T13:24:03Z</time>
      </trkpt>
      <trkpt lat="45.29799" lon="5.14525">
        <ele>400.15</ele>
        <time>2017-02-25T13:24:04Z</time>
      </trkpt>
      <trkpt lat="45.29788" lon="5.14502">
        <ele>401.12</ele>
        <time>2017-02-25T13:24:05Z</time>
      </trkpt>
      <trkpt lat="45.29779" lon="5.14477">
        <ele>402.04</ele>
        <time>2017-02-25T13:24:06Z</time>
      </trkpt>
      <trkpt lat="45.29771" lon="5.14451">
        <ele>403.1</ele>
        <time>2017-02-25T13:24:07Z</time>
      </trkpt>
      <trkpt lat="45.29763" lon="5.14425">
        <ele>403.79</ele>
        <time>2017-02-25T13:24:08Z</time>
      </trkpt>
      <trkpt lat="45.29756" lon="5.144">
        <ele>404.25</ele>
        <time>2017-02-25T13:24:09Z</time>
      </trkpt>
      <trkpt lat="45.2975" lon="5.14375">
        <ele>404.66</ele>
        <time>2017-02-25T13:24:10Z</time>
      </trkpt>
      <trkpt lat="45.29745" lon="5.14349">
        <ele>405.31</ele>
        <time>2017-02-25T13:24:11Z</time>
      </trkpt>
      <trkpt lat="45.29744" lon="5.14322">
        <ele>405.43</ele>
        <time>2017-02-25T13:24:12Z</time>
      </trkpt>
      <trkpt lat="45.29744" lon="5.14292">
        <ele>403.94</ele>
        <time>2017-02-25T13:24:13Z</time>
      </trkpt>
      <trkpt lat="45.29743" lon="5.14262">
        <ele>402.36</ele>
        <time>2017-02-25T13:24:14Z</time>
      </trkpt>
      <trkpt lat="45.29742" lon="5.14232">
        <ele>400.77</ele>
        <time>2017-02-25T13:24:15Z</time>
      </trkpt>
      <trkpt lat="45.29739" lon="5.14201">
        <ele>399.49</ele>
        <time>2017-02-25T13:24:16Z</time>
      </trkpt>
      <trkpt lat="45.29736" lon="5.1417">
        <ele>398.35</ele>
        <time>2017-02-25T13:24:17Z</time>
      </trkpt>
      <trkpt lat="45.29733" lon="5.14139">
        <ele>397.32</ele>
        <time>2017-02-25T13:24:18Z</time>
      </trkpt>
      <trkpt lat="45.29728" lon="5.14108">
        <ele>396.56</ele>
        <time>2017-02-25T13:24:19Z</time>
      </trkpt>
      <trkpt lat="45.29722" lon="5.14078">
        <ele>395.85</ele>
        <time>2017-02-25T13:24:20Z</time>
      </trkpt>
      <trkpt lat="45.29716" lon="5.14048">
        <ele>395.06</ele>
        <time>2017-02-25T13:24:21Z</time>
      </trkpt>
      <trkpt lat="45.29709" lon="5.14019">
        <ele>394.27</ele>
        <time>2017-02-25T13:24:22Z</time>
      </trkpt>
      <trkpt lat="45.29702" lon="5.1399">
        <ele>393.63</ele>
        <time>2017-02-25T13:24:23Z</time>
      </trkpt>
      <trkpt lat="45.29695" lon="5.13963">
        <ele>392.54</ele>
        <time>2017-02-25T13:24:24Z</time>
      </trkpt>
      <trkpt lat="45.29688" lon="5.13936">
        <ele>391.52</ele>
        <time>2017-02-25T13:24:25Z</time>
      </trkpt>
      <trkpt lat="45.29679" lon="5.13911">
        <ele>390.52</ele>
        <time>2017-02-25T13:24:26Z</time>
      </trkpt>
      <trkpt lat="45.2967" lon="5.13887">
        <ele>389.76</ele>
        <time>2017-02-25T13:24:27Z</time>
      </trkpt>
      <trkpt lat="45.2966" lon="5.13867">
        <ele>388.97</ele>
        <time>2017-02-25T13:24:28Z</time>
      </trkpt>
      <trkpt lat="45.2965" lon="5.13848">
        <ele>388.09</ele>
        <time>2017-02-25T13:24:29Z</time>
      </trkpt>
      <trkpt lat="45.29628" lon="5.13837">
        <ele>386.87</ele>
        <time>2017-02-25T13:24:30Z</time>
      </trkpt>
      <trkpt lat="45.2961" lon="5.13827">
        <ele>385.75</ele>
        <time>2017-02-25T13:24:31Z</time>
      </trkpt>
      <trkpt lat="45.2959" lon="5.13822">
        <ele>384.48</ele>
        <time>2017-02-25T13:24:32Z</time>
      </trkpt>
      <trkpt lat="45.29569" lon="5.13819">
        <ele>383.19</ele>
        <time>2017-02-25T13:24:33Z</time>
      </trkpt>
      <trkpt lat="45.29547" lon="5.13817">
        <ele>382.21</ele>
        <time>2017-02-25T13:24:34Z</time>
      </trkpt>
      <trkpt lat="45.29524" lon="5.13814">
        <ele>381.3</ele>
        <time>2017-02-25T13:24:35Z</time>
      </trkpt>
      <trkpt lat="45.29501" lon="5.13813">
        <ele>380.23</ele>
        <time>2017-02-25T13:24:36Z</time>
      </trkpt>
      <trkpt lat="45.29478" lon="5.13811">
        <ele>379.62</ele>
        <time>2017-02-25T13:24:37Z</time>
      </trkpt>
      <trkpt lat="45.29455" lon="5.1381">
        <ele>379.26</ele>
        <time>2017-02-25T13:24:38Z</time>
      </trkpt>
      <trkpt lat="45.29431" lon="5.13809">
        <ele>378.79</ele>
        <time>2017-02-25T13:24:39Z</time>
      </trkpt>
      <trkpt lat="45.29409" lon="5.13807">
        <ele>378.61</ele>
        <time>2017-02-25T13:24:40Z</time>
      </trkpt>
      <trkpt lat="45.29387" lon="5.13804">
        <ele>378.74</ele>
        <time>2017-02-25T13:24:41Z</time>
      </trkpt>
      <trkpt lat="45.29368" lon="5.13802">
        <ele>379.08</ele>
        <time>2017-02-25T13:24:42Z</time>
      </trkpt>
      <trkpt lat="45.29349" lon="5.138">
        <ele>379.07</ele>
        <time>2017-02-25T13:24:43Z</time>
      </trkpt>
      <trkpt lat="45.29332" lon="5.13797">
        <ele>378.83</ele>
        <time>2017-02-25T13:24:44Z</time>
      </trkpt>
      <trkpt lat="45.29319" lon="5.13792">
        <ele>379.02</ele>
        <time>2017-02-25T13:24:45Z</time>
      </trkpt>
      <trkpt lat="45.29313" lon="5.13783">
        <ele>379.14</ele>
        <time>2017-02-25T13:24:46Z</time>
      </trkpt>
      <trkpt lat="45.29306" lon="5.13773">
        <ele>379.4</ele>
        <time>2017-02-25T13:24:47Z</time>
      </trkpt>
      <trkpt lat="45.29302" lon="5.13762">
        <ele>379.69</ele>
        <time>2017-02-25T13:24:48Z</time>
      </trkpt>
      <trkpt lat="45.29303" lon="5.13747">
        <ele>380.31</ele>
        <time>2017-02-25T13:24:49Z</time>
      </trkpt>
      <trkpt lat="45.29305" lon="5.13732">
        <ele>380.92</ele>
        <time>2017-02-25T13:24:50Z</time>
      </trkpt>
      <trkpt lat="45.29305" lon="5.13715">
        <ele>381.2</ele>
        <time>2017-02-25T13:24:51Z</time>
      </trkpt>
      <trkpt lat="45.29301" lon="5.13699">
        <ele>381.73</ele>
        <time>2017-02-25T13:24:52Z</time>
      </trkpt>
      <trkpt lat="45.29295" lon="5.13686">
        <ele>382.24</ele>
        <time>2017-02-25T13:24:53Z</time>
      </trkpt>
      <trkpt lat="45.29288" lon="5.13674">
        <ele>382.66</ele>
        <time>2017-02-25T13:24:54Z</time>
      </trkpt>
      <trkpt lat="45.29276" lon="5.13665">
        <ele>382.83</ele>
        <time>2017-02-25T13:24:55Z</time>
      </trkpt>
      <trkpt lat="45.29265" lon="5.13656">
        <ele>382.78</ele>
        <time>2017-02-25T13:24:56Z</time>
      </trkpt>
      <trkpt lat="45.29253" lon="5.13646">
        <ele>382.77</ele>
        <time>2017-02-25T13:24:57Z</time>
      </trkpt>
      <trkpt lat="45.29241" lon="5.13632">
        <ele>382.77</ele>
        <time>2017-02-25T13:24:58Z</time>
      </trkpt>
      <trkpt lat="45.2923" lon="5.13615">
        <ele>382.85</ele>
        <time>2017-02-25T13:24:59Z</time>
      </trkpt>
      <trkpt lat="45.2922" lon="5.13598">
        <ele>382.78</ele>
        <time>2017-02-25T13:25:00Z</time>
      </trkpt>
      <trkpt lat="45.2921" lon="5.1358">
        <ele>382.85</ele>
        <time>2017-02-25T13:25:01Z</time>
      </trkpt>
      <trkpt lat="45.292" lon="5.13561">
        <ele>382.86</ele>
        <time>2017-02-25T13:25:02Z</time>
      </trkpt>
      <trkpt lat="45.29192" lon="5.13539">
        <ele>382.79</ele>
        <time>2017-02-25T13:25:03Z</time>
      </trkpt>
      <trkpt lat="45.29186" lon="5.13516">
        <ele>382.93</ele>
        <time>2017-02-25T13:25:04Z</time>
      </trkpt>
      <trkpt lat="45.29177" lon="5.13494">
        <ele>383.04</ele>
        <time>2017-02-25T13:25:05Z</time>
      </trkpt>
      <trkpt lat="45.29166" lon="5.13474">
        <ele>383.46</ele>
        <time>2017-02-25T13:25:06Z</time>
      </trkpt>
      <trkpt lat="45.29153" lon="5.13455">
        <ele>383.71</ele>
        <time>2017-02-25T13:25:07Z</time>
      </trkpt>
      <trkpt lat="45.29139" lon="5.13438">
        <ele>383.51</ele>
        <time>2017-02-25T13:25:08Z</time>
      </trkpt>
      <trkpt lat="45.29124" lon="5.13421">
        <ele>383.64</ele>
        <time>2017-02-25T13:25:09Z</time>
      </trkpt>
      <trkpt lat="45.29111" lon="5.13406">
        <ele>384.62</ele>
        <time>2017-02-25T13:25:10Z</time>
      </trkpt>
      <trkpt lat="45.29094" lon="5.13393">
        <ele>385.38</ele>
        <time>2017-02-25T13:25:11Z</time>
      </trkpt>
      <trkpt lat="45.29075" lon="5.13382">
        <ele>386.17</ele>
        <time>2017-02-25T13:25:12Z</time>
      </trkpt>
      <trkpt lat="45.29056" lon="5.13372">
        <ele>387.13</ele>
        <time>2017-02-25T13:25:13Z</time>
      </trkpt>
      <trkpt lat="45.29036" lon="5.13364">
        <ele>388.76</ele>
        <time>2017-02-25T13:25:14Z</time>
      </trkpt>
      <trkpt lat="45.29015" lon="5.13357">
        <ele>390.85</ele>
        <time>2017-02-25T13:25:15Z</time>
      </trkpt>
      <trkpt lat="45.28995" lon="5.1335">
        <ele>392.38</ele>
        <time>2017-02-25T13:25:16Z</time>
      </trkpt>
      <trkpt lat="45.28976" lon="5.13343">
        <ele>393.65</ele>
        <time>2017-02-25T13:25:17Z</time>
      </trkpt>
      <trkpt lat="45.28958" lon="5.13334">
        <ele>395.34</ele>
        <time>2017-02-25T13:25:18Z</time>
      </trkpt>
      <trkpt lat="45.28944" lon="5.13319">
        <ele>396.08</ele>
        <time>2017-02-25T13:25:19Z</time>
      </trkpt>
      <trkpt lat="45.28932" lon="5.13299">
        <ele>397.35</ele>
        <time>2017-02-25T13:25:20Z</time>
      </trkpt>
      <trkpt lat="45.28923" lon="5.13274">
        <ele>397.92</ele>
        <time>2017-02-25T13:25:21Z</time>
      </trkpt>
      <trkpt lat="45.28914" lon="5.13247">
        <ele>398.6</ele>
        <time>2017-02-25T13:25:22Z</time>
      </trkpt>
      <trkpt lat="45.28906" lon="5.13219">
        <ele>399.53</ele>
        <time>2017-02-25T13:25:23Z</time>
      </trkpt>
      <trkpt lat="45.28897" lon="5.13191">
        <ele>400.68</ele>
        <time>2017-02-25T13:25:24Z</time>
      </trkpt>
      <trkpt lat="45.28886" lon="5.13165">
        <ele>401.79</ele>
        <time>2017-02-25T13:25:25Z</time>
      </trkpt>
      <trkpt lat="45.28874" lon="5.13139">
        <ele>402.73</ele>
        <time>2017-02-25T13:25:26Z</time>
      </trkpt>
      <trkpt lat="45.28859" lon="5.13114">
        <ele>404.44</ele>
        <time>2017-02-25T13:25:27Z</time>
      </trkpt>
      <trkpt lat="45.28843" lon="5.1309">
        <ele>405.9</ele>
        <time>2017-02-25T13:25:28Z</time>
      </trkpt>
      <trkpt lat="45.28827" lon="5.13066">
        <ele>407.23</ele>
        <time>2017-02-25T13:25:29Z</time>
      </trkpt>
      <trkpt lat="45.2881" lon="5.13043">
        <ele>408.54</ele>
        <time>2017-02-25T13:25:30Z</time>
      </trkpt>
      <trkpt lat="45.28794" lon="5.13022">
        <ele>410.08</ele>
        <time>2017-02-25T13:25:31Z</time>
      </trkpt>
      <trkpt lat="45.28777" lon="5.13003">
        <ele>411.19</ele>
        <time>2017-02-25T13:25:32Z</time>
      </trkpt>
      <trkpt lat="45.28758" lon="5.12988">
        <ele>412.61</ele>
        <time>2017-02-25T13:25:33Z</time>
      </trkpt>
      <trkpt lat="45.28739" lon="5.12974">
        <ele>413.62</ele>
        <time>2017-02-25T13:25:34Z</time>
      </trkpt>
      <trkpt lat="45.28718" lon="5.1296">
        <ele>414.38</ele>
        <time>2017-02-25T13:25:35Z</time>
      </trkpt>
      <trkpt lat="45.28697" lon="5.12947">
        <ele>415.25</ele>
        <time>2017-02-25T13:25:36Z</time>
      </trkpt>
      <trkpt lat="45.28676" lon="5.12934">
        <ele>416.14</ele>
        <time>2017-02-25T13:25:37Z</time>
      </trkpt>
      <trkpt lat="45.28655" lon="5.12921">
        <ele>416.72</ele>
        <time>2017-02-25T13:25:38Z</time>
      </trkpt>
      <trkpt lat="45.28634" lon="5.12907">
        <ele>417.16</ele>
        <time>2017-02-25T13:25:39Z</time>
      </trkpt>
      <trkpt lat="45.28613" lon="5.12894">
        <ele>417.49</ele>
        <time>2017-02-25T13:25:40Z</time>
      </trkpt>
      <trkpt lat="45.28592" lon="5.12881">
        <ele>418.11</ele>
        <time>2017-02-25T13:25:41Z</time>
      </trkpt>
      <trkpt lat="45.28572" lon="5.12868">
        <ele>418.4</ele>
        <time>2017-02-25T13:25:42Z</time>
      </trkpt>
      <trkpt lat="45.28552" lon="5.12855">
        <ele>418.53</ele>
        <time>2017-02-25T13:25:43Z</time>
      </trkpt>
      <trkpt lat="45.28531" lon="5.12841">
        <ele>418.64</ele>
        <time>2017-02-25T13:25:44Z</time>
      </trkpt>
      <trkpt lat="45.28511" lon="5.12828">
        <ele>418.74</ele>
        <time>2017-02-25T13:25:45Z</time>
      </trkpt>
      <trkpt lat="45.28492" lon="5.12815">
        <ele>418.76</ele>
        <time>2017-02-25T13:25:46Z</time>
      </trkpt>
      <trkpt lat="45.28473" lon="5.12803">
        <ele>419.09</ele>
        <time>2017-02-25T13:25:47Z</time>
      </trkpt>
      <trkpt lat="45.28454" lon="5.12791">
        <ele>419.15</ele>
        <time>2017-02-25T13:25:48Z</time>
      </trkpt>
      <trkpt lat="45.28437" lon="5.1278">
        <ele>419.08</ele>
        <time>2017-02-25T13:25:49Z</time>
      </trkpt>
      <trkpt lat="45.28419" lon="5.12768">
        <ele>418.91</ele>
        <time>2017-02-25T13:25:50Z</time>
      </trkpt>
      <trkpt lat="45.28401" lon="5.12756">
        <ele>418.88</ele>
        <time>2017-02-25T13:25:51Z</time>
      </trkpt>
      <trkpt lat="45.28383" lon="5.12744">
        <ele>418.55</ele>
        <time>2017-02-25T13:25:52Z</time>
      </trkpt>
      <trkpt lat="45.28364" lon="5.12731">
        <ele>418.24</ele>
        <time>2017-02-25T13:25:53Z</time>
      </trkpt>
      <trkpt lat="45.28345" lon="5.12719">
        <ele>417.94</ele>
        <time>2017-02-25T13:25:54Z</time>
      </trkpt>
      <trkpt lat="45.28327" lon="5.12705">
        <ele>417.56</ele>
        <time>2017-02-25T13:25:55Z</time>
      </trkpt>
      <trkpt lat="45.28309" lon="5.1269">
        <ele>417.25</ele>
        <time>2017-02-25T13:25:56Z</time>
      </trkpt>
      <trkpt lat="45.28293" lon="5.12672">
        <ele>416.54</ele>
        <time>2017-02-25T13:25:57Z</time>
      </trkpt>
      <trkpt lat="45.28277" lon="5.12654">
        <ele>416.16</ele>
        <time>2017-02-25T13:25:58Z</time>
      </trkpt>
      <trkpt lat="45.2826" lon="5.12636">
        <ele>415.77</ele>
        <time>2017-02-25T13:25:59Z</time>
      </trkpt>
      <trkpt lat="45.28242" lon="5.12619">
        <ele>415.29</ele>
        <time>2017-02-25T13:26:00Z</time>
      </trkpt>
      <trkpt lat="45.28225" lon="5.12601">
        <ele>414.71</ele>
        <time>2017-02-25T13:26:01Z</time>
      </trkpt>
      <trkpt lat="45.2821" lon="5.12583">
        <ele>413.16</ele>
        <time>2017-02-25T13:26:02Z</time>
      </trkpt>
      <trkpt lat="45.28194" lon="5.12565">
        <ele>412.04</ele>
        <time>2017-02-25T13:26:03Z</time>
      </trkpt>
      <trkpt lat="45.28177" lon="5.12548">
        <ele>411.34</ele>
        <time>2017-02-25T13:26:04Z</time>
      </trkpt>
      <trkpt lat="45.2816" lon="5.12532">
        <ele>410.56</ele>
        <time>2017-02-25T13:26:05Z</time>
      </trkpt>
      <trkpt lat="45.28142" lon="5.12516">
        <ele>409.77</ele>
        <time>2017-02-25T13:26:06Z</time>
      </trkpt>
      <trkpt lat="45.28124" lon="5.12502">
        <ele>409.13</ele>
        <time>2017-02-25T13:26:07Z</time>
      </trkpt>
      <trkpt lat="45.28106" lon="5.12487">
        <ele>408.6</ele>
        <time>2017-02-25T13:26:08Z</time>
      </trkpt>
      <trkpt lat="45.28088" lon="5.12473">
        <ele>407.93</ele>
        <time>2017-02-25T13:26:09Z</time>
      </trkpt>
      <trkpt lat="45.28071" lon="5.12458">
        <ele>407.24</ele>
        <time>2017-02-25T13:26:10Z</time>
      </trkpt>
      <trkpt lat="45.28054" lon="5.12443">
        <ele>406.54</ele>
        <time>2017-02-25T13:26:11Z</time>
      </trkpt>
      <trkpt lat="45.28036" lon="5.12426">
        <ele>406</ele>
        <time>2017-02-25T13:26:12Z</time>
      </trkpt>
      <trkpt lat="45.2802" lon="5.12407">
        <ele>405.41</ele>
        <time>2017-02-25T13:26:13Z</time>
      </trkpt>
      <trkpt lat="45.28003" lon="5.12388">
        <ele>404.9</ele>
        <time>2017-02-25T13:26:14Z</time>
      </trkpt>
      <trkpt lat="45.27986" lon="5.12368">
        <ele>404.07</ele>
        <time>2017-02-25T13:26:15Z</time>
      </trkpt>
      <trkpt lat="45.27972" lon="5.12346">
        <ele>402.71</ele>
        <time>2017-02-25T13:26:16Z</time>
      </trkpt>
      <trkpt lat="45.27955" lon="5.12327">
        <ele>401.56</ele>
        <time>2017-02-25T13:26:17Z</time>
      </trkpt>
      <trkpt lat="45.27939" lon="5.12308">
        <ele>400.76</ele>
        <time>2017-02-25T13:26:18Z</time>
      </trkpt>
      <trkpt lat="45.27921" lon="5.1229">
        <ele>400.05</ele>
        <time>2017-02-25T13:26:19Z</time>
      </trkpt>
      <trkpt lat="45.27904" lon="5.12273">
        <ele>399.34</ele>
        <time>2017-02-25T13:26:20Z</time>
      </trkpt>
      <trkpt lat="45.27887" lon="5.12257">
        <ele>398.72</ele>
        <time>2017-02-25T13:26:21Z</time>
      </trkpt>
      <trkpt lat="45.2787" lon="5.12242">
        <ele>398.12</ele>
        <time>2017-02-25T13:26:22Z</time>
      </trkpt>
      <trkpt lat="45.27855" lon="5.12225">
        <ele>397.52</ele>
        <time>2017-02-25T13:26:23Z</time>
      </trkpt>
      <trkpt lat="45.2784" lon="5.12209">
        <ele>396.92</ele>
        <time>2017-02-25T13:26:24Z</time>
      </trkpt>
      <trkpt lat="45.27825" lon="5.12192">
        <ele>396.16</ele>
        <time>2017-02-25T13:26:25Z</time>
      </trkpt>
      <trkpt lat="45.27811" lon="5.12174">
        <ele>395.45</ele>
        <time>2017-02-25T13:26:26Z</time>
      </trkpt>
      <trkpt lat="45.27797" lon="5.12152">
        <ele>394.82</ele>
        <time>2017-02-25T13:26:27Z</time>
      </trkpt>
      <trkpt lat="45.27784" lon="5.12127">
        <ele>393.74</ele>
        <time>2017-02-25T13:26:28Z</time>
      </trkpt>
      <trkpt lat="45.27771" lon="5.12104">
        <ele>392.48</ele>
        <time>2017-02-25T13:26:29Z</time>
      </trkpt>
      <trkpt lat="45.27759" lon="5.12081">
        <ele>391.11</ele>
        <time>2017-02-25T13:26:30Z</time>
      </trkpt>
      <trkpt lat="45.27745" lon="5.12061">
        <ele>390.04</ele>
        <time>2017-02-25T13:26:31Z</time>
      </trkpt>
      <trkpt lat="45.2773" lon="5.12045">
        <ele>389.42</ele>
        <time>2017-02-25T13:26:32Z</time>
      </trkpt>
      <trkpt lat="45.27715" lon="5.12032">
        <ele>388.42</ele>
        <time>2017-02-25T13:26:33Z</time>
      </trkpt>
      <trkpt lat="45.27698" lon="5.12022">
        <ele>387.5</ele>
        <time>2017-02-25T13:26:34Z</time>
      </trkpt>
      <trkpt lat="45.27683" lon="5.12013">
        <ele>386.83</ele>
        <time>2017-02-25T13:26:35Z</time>
      </trkpt>
      <trkpt lat="45.27668" lon="5.12006">
        <ele>385.98</ele>
        <time>2017-02-25T13:26:36Z</time>
      </trkpt>
      <trkpt lat="45.27654" lon="5.11999">
        <ele>385.17</ele>
        <time>2017-02-25T13:26:37Z</time>
      </trkpt>
      <trkpt lat="45.27643" lon="5.11994">
        <ele>384.61</ele>
        <time>2017-02-25T13:26:38Z</time>
      </trkpt>
      <trkpt lat="45.27631" lon="5.11991">
        <ele>384.02</ele>
        <time>2017-02-25T13:26:39Z</time>
      </trkpt>
      <trkpt lat="45.27619" lon="5.11991">
        <ele>383.42</ele>
        <time>2017-02-25T13:26:40Z</time>
      </trkpt>
      <trkpt lat="45.27607" lon="5.11995">
        <ele>382.34</ele>
        <time>2017-02-25T13:26:41Z</time>
      </trkpt>
      <trkpt lat="45.27595" lon="5.12">
        <ele>381.4</ele>
        <time>2017-02-25T13:26:42Z</time>
      </trkpt>
      <trkpt lat="45.27583" lon="5.12005">
        <ele>380.65</ele>
        <time>2017-02-25T13:26:43Z</time>
      </trkpt>
      <trkpt lat="45.27572" lon="5.1201">
        <ele>379.86</ele>
        <time>2017-02-25T13:26:44Z</time>
      </trkpt>
      <trkpt lat="45.27559" lon="5.12013">
        <ele>379.15</ele>
        <time>2017-02-25T13:26:45Z</time>
      </trkpt>
      <trkpt lat="45.27544" lon="5.12012">
        <ele>377.64</ele>
        <time>2017-02-25T13:26:46Z</time>
      </trkpt>
      <trkpt lat="45.27527" lon="5.12009">
        <ele>376.94</ele>
        <time>2017-02-25T13:26:47Z</time>
      </trkpt>
      <trkpt lat="45.27509" lon="5.12004">
        <ele>376.32</ele>
        <time>2017-02-25T13:26:48Z</time>
      </trkpt>
      <trkpt lat="45.2749" lon="5.11998">
        <ele>375.8</ele>
        <time>2017-02-25T13:26:49Z</time>
      </trkpt>
      <trkpt lat="45.27471" lon="5.11992">
        <ele>375.13</ele>
        <time>2017-02-25T13:26:50Z</time>
      </trkpt>
      <trkpt lat="45.27451" lon="5.11984">
        <ele>374.36</ele>
        <time>2017-02-25T13:26:51Z</time>
      </trkpt>
      <trkpt lat="45.27431" lon="5.11975">
        <ele>373.57</ele>
        <time>2017-02-25T13:26:52Z</time>
      </trkpt>
      <trkpt lat="45.27412" lon="5.11965">
        <ele>372.53</ele>
        <time>2017-02-25T13:26:53Z</time>
      </trkpt>
      <trkpt lat="45.27393" lon="5.11956">
        <ele>372.08</ele>
        <time>2017-02-25T13:26:54Z</time>
      </trkpt>
      <trkpt lat="45.27375" lon="5.11946">
        <ele>371.83</ele>
        <time>2017-02-25T13:26:55Z</time>
      </trkpt>
      <trkpt lat="45.27358" lon="5.11933">
        <ele>371.54</ele>
        <time>2017-02-25T13:26:56Z</time>
      </trkpt>
      <trkpt lat="45.27343" lon="5.11917">
        <ele>371.4</ele>
        <time>2017-02-25T13:26:57Z</time>
      </trkpt>
      <trkpt lat="45.27331" lon="5.11896">
        <ele>370.81</ele>
        <time>2017-02-25T13:26:58Z</time>
      </trkpt>
      <trkpt lat="45.27321" lon="5.11869">
        <ele>370.62</ele>
        <time>2017-02-25T13:26:59Z</time>
      </trkpt>
      <trkpt lat="45.27312" lon="5.11841">
        <ele>369.94</ele>
        <time>2017-02-25T13:27:00Z</time>
      </trkpt>
      <trkpt lat="45.27303" lon="5.11812">
        <ele>369.72</ele>
        <time>2017-02-25T13:27:01Z</time>
      </trkpt>
      <trkpt lat="45.27296" lon="5.11781">
        <ele>369.2</ele>
        <time>2017-02-25T13:27:02Z</time>
      </trkpt>
      <trkpt lat="45.27288" lon="5.11749">
        <ele>369.25</ele>
        <time>2017-02-25T13:27:03Z</time>
      </trkpt>
      <trkpt lat="45.2728" lon="5.11717">
        <ele>369.58</ele>
        <time>2017-02-25T13:27:04Z</time>
      </trkpt>
      <trkpt lat="45.27271" lon="5.11686">
        <ele>370.13</ele>
        <time>2017-02-25T13:27:05Z</time>
      </trkpt>
      <trkpt lat="45.27263" lon="5.11655">
        <ele>370.8</ele>
        <time>2017-02-25T13:27:06Z</time>
      </trkpt>
      <trkpt lat="45.27255" lon="5.11624">
        <ele>371.49</ele>
        <time>2017-02-25T13:27:07Z</time>
      </trkpt>
      <trkpt lat="45.27246" lon="5.11594">
        <ele>372.51</ele>
        <time>2017-02-25T13:27:08Z</time>
      </trkpt>
      <trkpt lat="45.27237" lon="5.11564">
        <ele>373.68</ele>
        <time>2017-02-25T13:27:09Z</time>
      </trkpt>
      <trkpt lat="45.27228" lon="5.11535">
        <ele>374.87</ele>
        <time>2017-02-25T13:27:10Z</time>
      </trkpt>
      <trkpt lat="45.2722" lon="5.11507">
        <ele>375.99</ele>
        <time>2017-02-25T13:27:11Z</time>
      </trkpt>
      <trkpt lat="45.27212" lon="5.11479">
        <ele>377.01</ele>
        <time>2017-02-25T13:27:12Z</time>
      </trkpt>
      <trkpt lat="45.27204" lon="5.11451">
        <ele>377.7</ele>
        <time>2017-02-25T13:27:13Z</time>
      </trkpt>
      <trkpt lat="45.27196" lon="5.11423">
        <ele>378.39</ele>
        <time>2017-02-25T13:27:14Z</time>
      </trkpt>
      <trkpt lat="45.27188" lon="5.11396">
        <ele>378.93</ele>
        <time>2017-02-25T13:27:15Z</time>
      </trkpt>
      <trkpt lat="45.2718" lon="5.11367">
        <ele>379.68</ele>
        <time>2017-02-25T13:27:16Z</time>
      </trkpt>
      <trkpt lat="45.27172" lon="5.11339">
        <ele>380.55</ele>
        <time>2017-02-25T13:27:17Z</time>
      </trkpt>
      <trkpt lat="45.27163" lon="5.11311">
        <ele>381.12</ele>
        <time>2017-02-25T13:27:18Z</time>
      </trkpt>
      <trkpt lat="45.27155" lon="5.11282">
        <ele>382.04</ele>
        <time>2017-02-25T13:27:19Z</time>
      </trkpt>
      <trkpt lat="45.27146" lon="5.11254">
        <ele>382.46</ele>
        <time>2017-02-25T13:27:20Z</time>
      </trkpt>
      <trkpt lat="45.27138" lon="5.11227">
        <ele>383.11</ele>
        <time>2017-02-25T13:27:21Z</time>
      </trkpt>
      <trkpt lat="45.2713" lon="5.11199">
        <ele>383.79</ele>
        <time>2017-02-25T13:27:22Z</time>
      </trkpt>
      <trkpt lat="45.27122" lon="5.11171">
        <ele>384.41</ele>
        <time>2017-02-25T13:27:23Z</time>
      </trkpt>
      <trkpt lat="45.27114" lon="5.11143">
        <ele>385.42</ele>
        <time>2017-02-25T13:27:24Z</time>
      </trkpt>
      <trkpt lat="45.27107" lon="5.11114">
        <ele>386.5</ele>
        <time>2017-02-25T13:27:25Z</time>
      </trkpt>
      <trkpt lat="45.27102" lon="5.11086">
        <ele>387.51</ele>
        <time>2017-02-25T13:27:26Z</time>
      </trkpt>
      <trkpt lat="45.27099" lon="5.11058">
        <ele>388.2</ele>
        <time>2017-02-25T13:27:27Z</time>
      </trkpt>
      <trkpt lat="45.27097" lon="5.1103">
        <ele>389.29</ele>
        <time>2017-02-25T13:27:28Z</time>
      </trkpt>
      <trkpt lat="45.27095" lon="5.11002">
        <ele>390.15</ele>
        <time>2017-02-25T13:27:29Z</time>
      </trkpt>
      <trkpt lat="45.27094" lon="5.10976">
        <ele>391.44</ele>
        <time>2017-02-25T13:27:30Z</time>
      </trkpt>
      <trkpt lat="45.27092" lon="5.10951">
        <ele>392.26</ele>
        <time>2017-02-25T13:27:31Z</time>
      </trkpt>
      <trkpt lat="45.27089" lon="5.10926">
        <ele>393.23</ele>
        <time>2017-02-25T13:27:32Z</time>
      </trkpt>
      <trkpt lat="45.27084" lon="5.10902">
        <ele>394.22</ele>
        <time>2017-02-25T13:27:33Z</time>
      </trkpt>
      <trkpt lat="45.27079" lon="5.10879">
        <ele>395.38</ele>
        <time>2017-02-25T13:27:34Z</time>
      </trkpt>
      <trkpt lat="45.27073" lon="5.10857">
        <ele>396.57</ele>
        <time>2017-02-25T13:27:35Z</time>
      </trkpt>
      <trkpt lat="45.27066" lon="5.10837">
        <ele>397.69</ele>
        <time>2017-02-25T13:27:36Z</time>
      </trkpt>
      <trkpt lat="45.27059" lon="5.10818">
        <ele>398.71</ele>
        <time>2017-02-25T13:27:37Z</time>
      </trkpt>
      <trkpt lat="45.27053" lon="5.108">
        <ele>399.72</ele>
        <time>2017-02-25T13:27:38Z</time>
      </trkpt>
      <trkpt lat="45.27045" lon="5.10783">
        <ele>400.72</ele>
        <time>2017-02-25T13:27:39Z</time>
      </trkpt>
      <trkpt lat="45.27038" lon="5.10766">
        <ele>401.72</ele>
        <time>2017-02-25T13:27:40Z</time>
      </trkpt>
      <trkpt lat="45.27032" lon="5.10749">
        <ele>402.88</ele>
        <time>2017-02-25T13:27:41Z</time>
      </trkpt>
      <trkpt lat="45.27026" lon="5.10731">
        <ele>403.99</ele>
        <time>2017-02-25T13:27:42Z</time>
      </trkpt>
      <trkpt lat="45.2702" lon="5.10714">
        <ele>404.93</ele>
        <time>2017-02-25T13:27:43Z</time>
      </trkpt>
      <trkpt lat="45.27014" lon="5.10698">
        <ele>405.76</ele>
        <time>2017-02-25T13:27:44Z</time>
      </trkpt>
      <trkpt lat="45.27009" lon="5.10682">
        <ele>406.49</ele>
        <time>2017-02-25T13:27:45Z</time>
      </trkpt>
      <trkpt lat="45.27003" lon="5.10665">
        <ele>407.35</ele>
        <time>2017-02-25T13:27:46Z</time>
      </trkpt>
      <trkpt lat="45.26998" lon="5.1065">
        <ele>408</ele>
        <time>2017-02-25T13:27:47Z</time>
      </trkpt>
      <trkpt lat="45.26993" lon="5.10635">
        <ele>408.53</ele>
        <time>2017-02-25T13:27:48Z</time>
      </trkpt>
      <trkpt lat="45.26988" lon="5.10622">
        <ele>409.04</ele>
        <time>2017-02-25T13:27:49Z</time>
      </trkpt>
      <trkpt lat="45.26984" lon="5.1061">
        <ele>409.3</ele>
        <time>2017-02-25T13:27:50Z</time>
      </trkpt>
      <trkpt lat="45.2698" lon="5.10598">
        <ele>409.67</ele>
        <time>2017-02-25T13:27:51Z</time>
      </trkpt>
      <trkpt lat="45.26977" lon="5.10588">
        <ele>409.91</ele>
        <time>2017-02-25T13:27:52Z</time>
      </trkpt>
      <trkpt lat="45.26978" lon="5.10583">
        <ele>410.28</ele>
        <time>2017-02-25T13:27:53Z</time>
      </trkpt>
      <trkpt lat="45.26978" lon="5.1058">
        <ele>410.75</ele>
        <time>2017-02-25T13:27:54Z</time>
      </trkpt>
      <trkpt lat="45.26981" lon="5.10579">
        <ele>411.24</ele>
        <time>2017-02-25T13:27:55Z</time>
      </trkpt>
      <trkpt lat="45.26983" lon="5.10578">
        <ele>411.82</ele>
        <time>2017-02-25T13:27:56Z</time>
      </trkpt>
      <trkpt lat="45.26988" lon="5.10578">
        <ele>412.5</ele>
        <time>2017-02-25T13:27:57Z</time>
      </trkpt>
      <trkpt lat="45.26998" lon="5.10578">
        <ele>413.19</ele>
        <time>2017-02-25T13:27:58Z</time>
      </trkpt>
      <trkpt lat="45.27007" lon="5.10579">
        <ele>413.81</ele>
        <time>2017-02-25T13:27:59Z</time>
      </trkpt>
      <trkpt lat="45.27014" lon="5.10578">
        <ele>414.1</ele>
        <time>2017-02-25T13:28:00Z</time>
      </trkpt>
      <trkpt lat="45.27021" lon="5.10575">
        <ele>414.23</ele>
        <time>2017-02-25T13:28:01Z</time>
      </trkpt>
      <trkpt lat="45.27027" lon="5.1057">
        <ele>414.34</ele>
        <time>2017-02-25T13:28:02Z</time>
      </trkpt>
      <trkpt lat="45.27033" lon="5.10564">
        <ele>414.36</ele>
        <time>2017-02-25T13:28:03Z</time>
      </trkpt>
      <trkpt lat="45.27038" lon="5.10556">
        <ele>414.29</ele>
        <time>2017-02-25T13:28:04Z</time>
      </trkpt>
      <trkpt lat="45.27042" lon="5.10546">
        <ele>414.43</ele>
        <time>2017-02-25T13:28:05Z</time>
      </trkpt>
      <trkpt lat="45.27043" lon="5.10535">
        <ele>414.86</ele>
        <time>2017-02-25T13:28:06Z</time>
      </trkpt>
      <trkpt lat="45.27046" lon="5.10523">
        <ele>415.03</ele>
        <time>2017-02-25T13:28:07Z</time>
      </trkpt>
      <trkpt lat="45.27047" lon="5.10508">
        <ele>415.14</ele>
        <time>2017-02-25T13:28:08Z</time>
      </trkpt>
      <trkpt lat="45.27049" lon="5.10492">
        <ele>415.32</ele>
        <time>2017-02-25T13:28:09Z</time>
      </trkpt>
      <trkpt lat="45.2705" lon="5.10475">
        <ele>415.2</ele>
        <time>2017-02-25T13:28:10Z</time>
      </trkpt>
      <trkpt lat="45.27051" lon="5.10459">
        <ele>414.77</ele>
        <time>2017-02-25T13:28:11Z</time>
      </trkpt>
      <trkpt lat="45.27053" lon="5.10442">
        <ele>414.53</ele>
        <time>2017-02-25T13:28:12Z</time>
      </trkpt>
      <trkpt lat="45.27054" lon="5.10426">
        <ele>414.4</ele>
        <time>2017-02-25T13:28:13Z</time>
      </trkpt>
      <trkpt lat="45.27055" lon="5.10409">
        <ele>414.29</ele>
        <time>2017-02-25T13:28:14Z</time>
      </trkpt>
      <trkpt lat="45.27056" lon="5.10392">
        <ele>414.03</ele>
        <time>2017-02-25T13:28:15Z</time>
      </trkpt>
      <trkpt lat="45.27057" lon="5.10374">
        <ele>413.18</ele>
        <time>2017-02-25T13:28:16Z</time>
      </trkpt>
      <trkpt lat="45.27058" lon="5.10356">
        <ele>412.53</ele>
        <time>2017-02-25T13:28:17Z</time>
      </trkpt>
      <trkpt lat="45.27059" lon="5.10339">
        <ele>412.08</ele>
        <time>2017-02-25T13:28:18Z</time>
      </trkpt>
      <trkpt lat="45.2706" lon="5.10321">
        <ele>411.43</ele>
        <time>2017-02-25T13:28:19Z</time>
      </trkpt>
      <trkpt lat="45.27061" lon="5.10303">
        <ele>410.66</ele>
        <time>2017-02-25T13:28:20Z</time>
      </trkpt>
      <trkpt lat="45.27061" lon="5.10285">
        <ele>410.19</ele>
        <time>2017-02-25T13:28:21Z</time>
      </trkpt>
      <trkpt lat="45.27061" lon="5.10268">
        <ele>409.53</ele>
        <time>2017-02-25T13:28:22Z</time>
      </trkpt>
      <trkpt lat="45.27062" lon="5.10252">
        <ele>408.92</ele>
        <time>2017-02-25T13:28:23Z</time>
      </trkpt>
      <trkpt lat="45.27063" lon="5.10236">
        <ele>408</ele>
        <time>2017-02-25T13:28:24Z</time>
      </trkpt>
      <trkpt lat="45.27063" lon="5.10222">
        <ele>407.33</ele>
        <time>2017-02-25T13:28:25Z</time>
      </trkpt>
      <trkpt lat="45.27064" lon="5.10209">
        <ele>406.88</ele>
        <time>2017-02-25T13:28:26Z</time>
      </trkpt>
      <trkpt lat="45.27061" lon="5.10198">
        <ele>406.23</ele>
        <time>2017-02-25T13:28:27Z</time>
      </trkpt>
      <trkpt lat="45.27055" lon="5.10191">
        <ele>405.22</ele>
        <time>2017-02-25T13:28:28Z</time>
      </trkpt>
      <trkpt lat="45.27048" lon="5.10186">
        <ele>404.38</ele>
        <time>2017-02-25T13:28:29Z</time>
      </trkpt>
      <trkpt lat="45.27041" lon="5.10183">
        <ele>403.65</ele>
        <time>2017-02-25T13:28:30Z</time>
      </trkpt>
      <trkpt lat="45.27033" lon="5.1018">
        <ele>403.1</ele>
        <time>2017-02-25T13:28:31Z</time>
      </trkpt>
      <trkpt lat="45.27026" lon="5.10176">
        <ele>402.75</ele>
        <time>2017-02-25T13:28:32Z</time>
      </trkpt>
      <trkpt lat="45.27019" lon="5.10171">
        <ele>402.52</ele>
        <time>2017-02-25T13:28:33Z</time>
      </trkpt>
      <trkpt lat="45.27013" lon="5.10164">
        <ele>402.64</ele>
        <time>2017-02-25T13:28:34Z</time>
      </trkpt>
      <trkpt lat="45.27006" lon="5.10157">
        <ele>402.58</ele>
        <time>2017-02-25T13:28:35Z</time>
      </trkpt>
      <trkpt lat="45.27" lon="5.1015">
        <ele>402.57</ele>
        <time>2017-02-25T13:28:36Z</time>
      </trkpt>
      <trkpt lat="45.26995" lon="5.10142">
        <ele>402.73</ele>
        <time>2017-02-25T13:28:37Z</time>
      </trkpt>
      <trkpt lat="45.2699" lon="5.10135">
        <ele>402.68</ele>
        <time>2017-02-25T13:28:38Z</time>
      </trkpt>
      <trkpt lat="45.26987" lon="5.10129">
        <ele>402.35</ele>
        <time>2017-02-25T13:28:39Z</time>
      </trkpt>
      <trkpt lat="45.26985" lon="5.10125">
        <ele>402.52</ele>
        <time>2017-02-25T13:28:40Z</time>
      </trkpt>
      <trkpt lat="45.26982" lon="5.10123">
        <ele>402.32</ele>
        <time>2017-02-25T13:28:41Z</time>
      </trkpt>
      <trkpt lat="45.26978" lon="5.10123">
        <ele>402.2</ele>
        <time>2017-02-25T13:28:42Z</time>
      </trkpt>
      <trkpt lat="45.26972" lon="5.10122">
        <ele>401.53</ele>
        <time>2017-02-25T13:28:43Z</time>
      </trkpt>
      <trkpt lat="45.26965" lon="5.10122">
        <ele>400.28</ele>
        <time>2017-02-25T13:28:44Z</time>
      </trkpt>
      <trkpt lat="45.26959" lon="5.10121">
        <ele>399.31</ele>
        <time>2017-02-25T13:28:45Z</time>
      </trkpt>
      <trkpt lat="45.26953" lon="5.1012">
        <ele>398.72</ele>
        <time>2017-02-25T13:28:46Z</time>
      </trkpt>
      <trkpt lat="45.26947" lon="5.10119">
        <ele>398.36</ele>
        <time>2017-02-25T13:28:47Z</time>
      </trkpt>
      <trkpt lat="45.26943" lon="5.10118">
        <ele>398.04</ele>
        <time>2017-02-25T13:28:48Z</time>
      </trkpt>
      <trkpt lat="45.2694" lon="5.10114">
        <ele>398.06</ele>
        <time>2017-02-25T13:28:49Z</time>
      </trkpt>
      <trkpt lat="45.26937" lon="5.10109">
        <ele>397.51</ele>
        <time>2017-02-25T13:28:50Z</time>
      </trkpt>
      <trkpt lat="45.26936" lon="5.10099">
        <ele>397.07</ele>
        <time>2017-02-25T13:28:51Z</time>
      </trkpt>
      <trkpt lat="45.26934" lon="5.10087">
        <ele>396.75</ele>
        <time>2017-02-25T13:28:52Z</time>
      </trkpt>
      <trkpt lat="45.26932" lon="5.10074">
        <ele>396.36</ele>
        <time>2017-02-25T13:28:53Z</time>
      </trkpt>
      <trkpt lat="45.26931" lon="5.10058">
        <ele>396.05</ele>
        <time>2017-02-25T13:28:54Z</time>
      </trkpt>
      <trkpt lat="45.26929" lon="5.10041">
        <ele>395.18</ele>
        <time>2017-02-25T13:28:55Z</time>
      </trkpt>
      <trkpt lat="45.26928" lon="5.10022">
        <ele>394.45</ele>
        <time>2017-02-25T13:28:56Z</time>
      </trkpt>
      <trkpt lat="45.26926" lon="5.10003">
        <ele>393.9</ele>
        <time>2017-02-25T13:28:57Z</time>
      </trkpt>
      <trkpt lat="45.26925" lon="5.09983">
        <ele>393.55</ele>
        <time>2017-02-25T13:28:58Z</time>
      </trkpt>
      <trkpt lat="45.26923" lon="5.09963">
        <ele>393.32</ele>
        <time>2017-02-25T13:28:59Z</time>
      </trkpt>
      <trkpt lat="45.26921" lon="5.0994">
        <ele>392.96</ele>
        <time>2017-02-25T13:29:00Z</time>
      </trkpt>
      <trkpt lat="45.2692" lon="5.09918">
        <ele>392.33</ele>
        <time>2017-02-25T13:29:01Z</time>
      </trkpt>
      <trkpt lat="45.26918" lon="5.09895">
        <ele>391.64</ele>
        <time>2017-02-25T13:29:02Z</time>
      </trkpt>
      <trkpt lat="45.26916" lon="5.09872">
        <ele>391.18</ele>
        <time>2017-02-25T13:29:03Z</time>
      </trkpt>
      <trkpt lat="45.26914" lon="5.09849">
        <ele>390.69</ele>
        <time>2017-02-25T13:29:04Z</time>
      </trkpt>
      <trkpt lat="45.26912" lon="5.09825">
        <ele>389.31</ele>
        <time>2017-02-25T13:29:05Z</time>
      </trkpt>
      <trkpt lat="45.2691" lon="5.098">
        <ele>387.68</ele>
        <time>2017-02-25T13:29:06Z</time>
      </trkpt>
      <trkpt lat="45.26906" lon="5.09776">
        <ele>385.83</ele>
        <time>2017-02-25T13:29:07Z</time>
      </trkpt>
      <trkpt lat="45.26901" lon="5.09753">
        <ele>384.42</ele>
        <time>2017-02-25T13:29:08Z</time>
      </trkpt>
      <trkpt lat="45.26895" lon="5.09729">
        <ele>383.18</ele>
        <time>2017-02-25T13:29:09Z</time>
      </trkpt>
      <trkpt lat="45.26889" lon="5.09705">
        <ele>382.13</ele>
        <time>2017-02-25T13:29:10Z</time>
      </trkpt>
      <trkpt lat="45.26883" lon="5.0968">
        <ele>381.12</ele>
        <time>2017-02-25T13:29:11Z</time>
      </trkpt>
      <trkpt lat="45.26878" lon="5.09654">
        <ele>380.36</ele>
        <time>2017-02-25T13:29:12Z</time>
      </trkpt>
      <trkpt lat="45.26874" lon="5.09627">
        <ele>379.49</ele>
        <time>2017-02-25T13:29:13Z</time>
      </trkpt>
      <trkpt lat="45.26871" lon="5.09598">
        <ele>378.19</ele>
        <time>2017-02-25T13:29:14Z</time>
      </trkpt>
      <trkpt lat="45.26868" lon="5.09569">
        <ele>377.13</ele>
        <time>2017-02-25T13:29:15Z</time>
      </trkpt>
      <trkpt lat="45.26865" lon="5.0954">
        <ele>375.88</ele>
        <time>2017-02-25T13:29:16Z</time>
      </trkpt>
      <trkpt lat="45.26863" lon="5.09511">
        <ele>374.75</ele>
        <time>2017-02-25T13:29:17Z</time>
      </trkpt>
      <trkpt lat="45.2686" lon="5.09483">
        <ele>373.24</ele>
        <time>2017-02-25T13:29:18Z</time>
      </trkpt>
      <trkpt lat="45.26856" lon="5.09454">
        <ele>371.74</ele>
        <time>2017-02-25T13:29:19Z</time>
      </trkpt>
      <trkpt lat="45.26851" lon="5.09425">
        <ele>370.08</ele>
        <time>2017-02-25T13:29:20Z</time>
      </trkpt>
      <trkpt lat="45.26842" lon="5.09396">
        <ele>368.71</ele>
        <time>2017-02-25T13:29:21Z</time>
      </trkpt>
      <trkpt lat="45.26833" lon="5.09368">
        <ele>367.24</ele>
        <time>2017-02-25T13:29:22Z</time>
      </trkpt>
      <trkpt lat="45.26824" lon="5.0934">
        <ele>365.82</ele>
        <time>2017-02-25T13:29:23Z</time>
      </trkpt>
      <trkpt lat="45.26816" lon="5.09311">
        <ele>364.5</ele>
        <time>2017-02-25T13:29:24Z</time>
      </trkpt>
      <trkpt lat="45.26809" lon="5.09282">
        <ele>363.11</ele>
        <time>2017-02-25T13:29:25Z</time>
      </trkpt>
      <trkpt lat="45.26804" lon="5.09253">
        <ele>361.32</ele>
        <time>2017-02-25T13:29:26Z</time>
      </trkpt>
      <trkpt lat="45.26797" lon="5.09226">
        <ele>359.92</ele>
        <time>2017-02-25T13:29:27Z</time>
      </trkpt>
      <trkpt lat="45.2679" lon="5.09199">
        <ele>358.12</ele>
        <time>2017-02-25T13:29:28Z</time>
      </trkpt>
      <trkpt lat="45.26784" lon="5.09172">
        <ele>356.32</ele>
        <time>2017-02-25T13:29:29Z</time>
      </trkpt>
      <trkpt lat="45.26777" lon="5.09145">
        <ele>354.92</ele>
        <time>2017-02-25T13:29:30Z</time>
      </trkpt>
      <trkpt lat="45.2677" lon="5.09118">
        <ele>353.28</ele>
        <time>2017-02-25T13:29:31Z</time>
      </trkpt>
      <trkpt lat="45.26762" lon="5.09092">
        <ele>351.91</ele>
        <time>2017-02-25T13:29:32Z</time>
      </trkpt>
      <trkpt lat="45.26754" lon="5.09067">
        <ele>350.36</ele>
        <time>2017-02-25T13:29:33Z</time>
      </trkpt>
      <trkpt lat="45.26745" lon="5.09043">
        <ele>348.76</ele>
        <time>2017-02-25T13:29:34Z</time>
      </trkpt>
      <trkpt lat="45.26738" lon="5.09019">
        <ele>347.17</ele>
        <time>2017-02-25T13:29:35Z</time>
      </trkpt>
      <trkpt lat="45.26734" lon="5.08993">
        <ele>345.81</ele>
        <time>2017-02-25T13:29:36Z</time>
      </trkpt>
      <trkpt lat="45.26731" lon="5.08968">
        <ele>344.33</ele>
        <time>2017-02-25T13:29:37Z</time>
      </trkpt>
      <trkpt lat="45.26729" lon="5.08943">
        <ele>342.68</ele>
        <time>2017-02-25T13:29:38Z</time>
      </trkpt>
      <trkpt lat="45.26727" lon="5.08921">
        <ele>341.07</ele>
        <time>2017-02-25T13:29:39Z</time>
      </trkpt>
      <trkpt lat="45.26725" lon="5.08902">
        <ele>339.63</ele>
        <time>2017-02-25T13:29:40Z</time>
      </trkpt>
      <trkpt lat="45.26724" lon="5.08886">
        <ele>338.3</ele>
        <time>2017-02-25T13:29:41Z</time>
      </trkpt>
      <trkpt lat="45.26722" lon="5.08871">
        <ele>337.07</ele>
        <time>2017-02-25T13:29:42Z</time>
      </trkpt>
      <trkpt lat="45.26721" lon="5.08859">
        <ele>336.03</ele>
        <time>2017-02-25T13:29:43Z</time>
      </trkpt>
      <trkpt lat="45.2672" lon="5.08849">
        <ele>335.1</ele>
        <time>2017-02-25T13:29:44Z</time>
      </trkpt>
      <trkpt lat="45.2672" lon="5.08842">
        <ele>334.35</ele>
        <time>2017-02-25T13:29:45Z</time>
      </trkpt>
      <trkpt lat="45.26719" lon="5.08837">
        <ele>333.72</ele>
        <time>2017-02-25T13:29:46Z</time>
      </trkpt>
      <trkpt lat="45.26719" lon="5.08835">
        <ele>333.12</ele>
        <time>2017-02-25T13:29:47Z</time>
      </trkpt>
      <trkpt lat="45.26718" lon="5.08834">
        <ele>332.68</ele>
        <time>2017-02-25T13:29:48Z</time>
      </trkpt>
      <trkpt lat="45.26719" lon="5.08834">
        <ele>332.67</ele>
        <time>2017-02-25T13:29:49Z</time>
      </trkpt>
      <trkpt lat="45.26719" lon="5.08835">
        <ele>332.51</ele>
        <time>2017-02-25T13:29:50Z</time>
      </trkpt>
      <trkpt lat="45.26721" lon="5.08836">
        <ele>332.4</ele>
        <time>2017-02-25T13:29:51Z</time>
      </trkpt>
      <trkpt lat="45.26721" lon="5.08836">
        <ele>332.37</ele>
        <time>2017-02-25T13:29:52Z</time>
      </trkpt>
      <trkpt lat="45.26723" lon="5.08831">
        <ele>333.17</ele>
        <time>2017-02-25T13:29:53Z</time>
      </trkpt>
      <trkpt lat="45.26723" lon="5.08824">
        <ele>332.93</ele>
        <time>2017-02-25T13:29:54Z</time>
      </trkpt>
      <trkpt lat="45.26722" lon="5.08813">
        <ele>332.4</ele>
        <time>2017-02-25T13:29:55Z</time>
      </trkpt>
      <trkpt lat="45.26721" lon="5.08798">
        <ele>331.73</ele>
        <time>2017-02-25T13:29:56Z</time>
      </trkpt>
      <trkpt lat="45.26719" lon="5.08781">
        <ele>331.04</ele>
        <time>2017-02-25T13:29:57Z</time>
      </trkpt>
      <trkpt lat="45.26718" lon="5.08763">
        <ele>330.26</ele>
        <time>2017-02-25T13:29:58Z</time>
      </trkpt>
      <trkpt lat="45.26716" lon="5.08744">
        <ele>329.31</ele>
        <time>2017-02-25T13:29:59Z</time>
      </trkpt>
      <trkpt lat="45.26714" lon="5.08724">
        <ele>328.47</ele>
        <time>2017-02-25T13:30:00Z</time>
      </trkpt>
      <trkpt lat="45.26711" lon="5.08703">
        <ele>327.67</ele>
        <time>2017-02-25T13:30:01Z</time>
      </trkpt>
      <trkpt lat="45.26709" lon="5.08679">
        <ele>326.95</ele>
        <time>2017-02-25T13:30:02Z</time>
      </trkpt>
      <trkpt lat="45.26706" lon="5.08655">
        <ele>326</ele>
        <time>2017-02-25T13:30:03Z</time>
      </trkpt>
      <trkpt lat="45.26704" lon="5.0863">
        <ele>324.53</ele>
        <time>2017-02-25T13:30:04Z</time>
      </trkpt>
      <trkpt lat="45.26701" lon="5.08606">
        <ele>323.36</ele>
        <time>2017-02-25T13:30:05Z</time>
      </trkpt>
      <trkpt lat="45.26698" lon="5.08583">
        <ele>322.17</ele>
        <time>2017-02-25T13:30:06Z</time>
      </trkpt>
      <trkpt lat="45.26694" lon="5.08563">
        <ele>320.89</ele>
        <time>2017-02-25T13:30:07Z</time>
      </trkpt>
      <trkpt lat="45.26687" lon="5.08544">
        <ele>319.59</ele>
        <time>2017-02-25T13:30:08Z</time>
      </trkpt>
      <trkpt lat="45.2668" lon="5.08527">
        <ele>318.45</ele>
        <time>2017-02-25T13:30:09Z</time>
      </trkpt>
      <trkpt lat="45.26671" lon="5.08515">
        <ele>317.66</ele>
        <time>2017-02-25T13:30:10Z</time>
      </trkpt>
      <trkpt lat="45.26663" lon="5.08504">
        <ele>316.63</ele>
        <time>2017-02-25T13:30:11Z</time>
      </trkpt>
      <trkpt lat="45.26655" lon="5.08498">
        <ele>315.54</ele>
        <time>2017-02-25T13:30:12Z</time>
      </trkpt>
      <trkpt lat="45.26649" lon="5.08494">
        <ele>314.6</ele>
        <time>2017-02-25T13:30:13Z</time>
      </trkpt>
      <trkpt lat="45.26645" lon="5.08493">
        <ele>313.53</ele>
        <time>2017-02-25T13:30:14Z</time>
      </trkpt>
      <trkpt lat="45.26643" lon="5.08492">
        <ele>312.6</ele>
        <time>2017-02-25T13:30:15Z</time>
      </trkpt>
      <trkpt lat="45.26643" lon="5.08493">
        <ele>311.77</ele>
        <time>2017-02-25T13:30:16Z</time>
      </trkpt>
      <trkpt lat="45.26644" lon="5.08494">
        <ele>311.21</ele>
        <time>2017-02-25T13:30:17Z</time>
      </trkpt>
      <trkpt lat="45.26644" lon="5.08494">
        <ele>312.06</ele>
        <time>2017-02-25T13:30:18Z</time>
      </trkpt>
      <trkpt lat="45.26644" lon="5.08494">
        <ele>312.22</ele>
        <time>2017-02-25T13:30:19Z</time>
      </trkpt>
      <trkpt lat="45.26644" lon="5.08494">
        <ele>312.26</ele>
        <time>2017-02-25T13:30:20Z</time>
      </trkpt>
      <trkpt lat="45.26644" lon="5.08494">
        <ele>312.27</ele>
        <time>2017-02-25T13:30:21Z</time>
      </trkpt>
      <trkpt lat="45.26644" lon="5.08494">
        <ele>312.27</ele>
        <time>2017-02-25T13:30:22Z</time>
      </trkpt>
      <trkpt lat="45.26644" lon="5.08494">
        <ele>312.27</ele>
        <time>2017-02-25T13:30:23Z</time>
      </trkpt>
      <trkpt lat="45.26644" lon="5.08494">
        <ele>312.27</ele>
        <time>2017-02-25T13:30:24Z</time>
      </trkpt>
      <trkpt lat="45.26644" lon="5.08494">
        <ele>312.27</ele>
        <time>2017-02-25T13:30:25Z</time>
      </trkpt>
      <trkpt lat="45.26644" lon="5.08494">
        <ele>312.27</ele>
        <time>2017-02-25T13:30:26Z</time>
      </trkpt>
      <trkpt lat="45.26644" lon="5.08494">
        <ele>312.27</ele>
        <time>2017-02-25T13:30:27Z</time>
      </trkpt>
      <trkpt lat="45.26644" lon="5.08494">
        <ele>312.27</ele>
        <time>2017-02-25T13:30:28Z</time>
      </trkpt>
      <trkpt lat="45.26644" lon="5.08494">
        <ele>312.27</ele>
        <time>2017-02-25T13:30:29Z</time>
      </trkpt>
      <trkpt lat="45.26644" lon="5.08494">
        <ele>312.27</ele>
        <time>2017-02-25T13:30:30Z</time>
      </trkpt>
      <trkpt lat="45.26644" lon="5.08494">
        <ele>312.27</ele>
        <time>2017-02-25T13:30:31Z</time>
      </trkpt>
      <trkpt lat="45.26644" lon="5.08494">
        <ele>312.27</ele>
        <time>2017-02-25T13:30:32Z</time>
      </trkpt>
      <trkpt lat="45.26644" lon="5.08494">
        <ele>312.27</ele>
        <time>2017-02-25T13:30:33Z</time>
      </trkpt>
      <trkpt lat="45.26644" lon="5.08494">
        <ele>312.27</ele>
        <time>2017-02-25T13:30:34Z</time>
      </trkpt>
      <trkpt lat="45.26644" lon="5.08494">
        <ele>312.27</ele>
        <time>2017-02-25T13:30:35Z</time>
      </trkpt>
      <trkpt lat="45.26644" lon="5.08494">
        <ele>312.27</ele>
        <time>2017-02-25T13:30:36Z</time>
      </trkpt>
      <trkpt lat="45.26644" lon="5.08494">
        <ele>312.27</ele>
        <time>2017-02-25T13:30:37Z</time>
      </trkpt>
      <trkpt lat="45.26644" lon="5.08494">
        <ele>312.27</ele>
        <time>2017-02-25T13:30:38Z</time>
      </trkpt>
      <trkpt lat="45.26644" lon="5.08494">
        <ele>312.27</ele>
        <time>2017-02-25T13:30:39Z</time>
      </trkpt>
      <trkpt lat="45.26644" lon="5.08494">
        <ele>312.27</ele>
        <time>2017-02-25T13:30:40Z</time>
      </trkpt>
      <trkpt lat="45.26644" lon="5.08494">
        <ele>312.27</ele>
        <time>2017-02-25T13:30:41Z</time>
      </trkpt>
      <trkpt lat="45.26644" lon="5.08494">
        <ele>312.27</ele>
        <time>2017-02-25T13:30:42Z</time>
      </trkpt>
      <trkpt lat="45.26644" lon="5.08494">
        <ele>312.27</ele>
        <time>2017-02-25T13:30:43Z</time>
      </trkpt>
      <trkpt lat="45.26644" lon="5.08494">
        <ele>312.27</ele>
        <time>2017-02-25T13:30:44Z</time>
      </trkpt>
      <trkpt lat="45.26644" lon="5.08494">
        <ele>312.27</ele>
        <time>2017-02-25T13:30:45Z</time>
      </trkpt>
      <trkpt lat="45.26644" lon="5.08494">
        <ele>312.27</ele>
        <time>2017-02-25T13:30:46Z</time>
      </trkpt>
      <trkpt lat="45.26644" lon="5.08494">
        <ele>312.27</ele>
        <time>2017-02-25T13:30:47Z</time>
      </trkpt>
      <trkpt lat="45.26644" lon="5.08494">
        <ele>312.27</ele>
        <time>2017-02-25T13:30:48Z</time>
      </trkpt>
      <trkpt lat="45.26644" lon="5.08494">
        <ele>312.27</ele>
        <time>2017-02-25T13:30:49Z</time>
      </trkpt>
      <trkpt lat="45.26644" lon="5.08494">
        <ele>312.27</ele>
        <time>2017-02-25T13:30:50Z</time>
      </trkpt>
      <trkpt lat="45.26644" lon="5.08494">
        <ele>312.27</ele>
        <time>2017-02-25T13:30:51Z</time>
      </trkpt>
      <trkpt lat="45.26644" lon="5.08494">
        <ele>312.27</ele>
        <time>2017-02-25T13:30:52Z</time>
      </trkpt>
      <trkpt lat="45.26644" lon="5.08494">
        <ele>312.27</ele>
        <time>2017-02-25T13:30:53Z</time>
      </trkpt>
      <trkpt lat="45.26644" lon="5.08494">
        <ele>312.27</ele>
        <time>2017-02-25T13:30:54Z</time>
      </trkpt>
      <trkpt lat="45.26644" lon="5.08494">
        <ele>312.27</ele>
        <time>2017-02-25T13:30:55Z</time>
      </trkpt>
      <trkpt lat="45.26644" lon="5.08494">
        <ele>312.27</ele>
        <time>2017-02-25T13:30:56Z</time>
      </trkpt>
      <trkpt lat="45.26644" lon="5.08494">
        <ele>312.27</ele>
        <time>2017-02-25T13:30:57Z</time>
      </trkpt>
      <trkpt lat="45.26644" lon="5.08494">
        <ele>312.27</ele>
        <time>2017-02-25T13:30:58Z</time>
      </trkpt>
      <trkpt lat="45.26644" lon="5.08494">
        <ele>312.27</ele>
        <time>2017-02-25T13:30:59Z</time>
      </trkpt>
      <trkpt lat="45.26644" lon="5.08494">
        <ele>312.27</ele>
        <time>2017-02-25T13:31:00Z</time>
      </trkpt>
      <trkpt lat="45.26644" lon="5.08494">
        <ele>312.27</ele>
        <time>2017-02-25T13:31:01Z</time>
      </trkpt>
      <trkpt lat="45.26644" lon="5.08494">
        <ele>312.27</ele>
        <time>2017-02-25T13:31:02Z</time>
      </trkpt>
      <trkpt lat="45.26644" lon="5.08494">
        <ele>312.27</ele>
        <time>2017-02-25T13:31:03Z</time>
      </trkpt>
      <trkpt lat="45.26644" lon="5.08494">
        <ele>312.27</ele>
        <time>2017-02-25T13:31:04Z</time>
      </trkpt>
      <trkpt lat="45.26644" lon="5.08494">
        <ele>312.27</ele>
        <time>2017-02-25T13:31:05Z</time>
      </trkpt>
      <trkpt lat="45.26644" lon="5.08494">
        <ele>312.27</ele>
        <time>2017-02-25T13:31:06Z</time>
      </trkpt>
      <trkpt lat="45.26644" lon="5.08494">
        <ele>312.27</ele>
        <time>2017-02-25T13:31:07Z</time>
      </trkpt>
      <trkpt lat="45.26644" lon="5.08494">
        <ele>312.27</ele>
        <time>2017-02-25T13:31:08Z</time>
      </trkpt>
      <trkpt lat="45.26644" lon="5.08494">
        <ele>312.27</ele>
        <time>2017-02-25T13:31:09Z</time>
      </trkpt>
      <trkpt lat="45.26644" lon="5.08494">
        <ele>312.27</ele>
        <time>2017-02-25T13:31:10Z</time>
      </trkpt>
      <trkpt lat="45.26644" lon="5.08494">
        <ele>312.27</ele>
        <time>2017-02-25T13:31:11Z</time>
      </trkpt>
      <trkpt lat="45.26644" lon="5.08494">
        <ele>312.27</ele>
        <time>2017-02-25T13:31:12Z</time>
      </trkpt>
      <trkpt lat="45.26644" lon="5.08494">
        <ele>312.27</ele>
        <time>2017-02-25T13:31:13Z</time>
      </trkpt>
      <trkpt lat="45.26644" lon="5.08494">
        <ele>312.27</ele>
        <time>2017-02-25T13:31:14Z</time>
      </trkpt>
      <trkpt lat="45.26644" lon="5.08494">
        <ele>312.27</ele>
        <time>2017-02-25T13:31:15Z</time>
      </trkpt>
      <trkpt lat="45.26644" lon="5.08494">
        <ele>312.27</ele>
        <time>2017-02-25T13:31:16Z</time>
      </trkpt>
      <trkpt lat="45.26644" lon="5.08494">
        <ele>312.27</ele>
        <time>2017-02-25T13:31:17Z</time>
      </trkpt>
      <trkpt lat="45.26644" lon="5.08494">
        <ele>312.27</ele>
        <time>2017-02-25T13:31:18Z</time>
      </trkpt>
      <trkpt lat="45.26644" lon="5.08494">
        <ele>312.27</ele>
        <time>2017-02-25T13:31:19Z</time>
      </trkpt>
      <trkpt lat="45.26644" lon="5.08494">
        <ele>312.27</ele>
        <time>2017-02-25T13:31:20Z</time>
      </trkpt>
      <trkpt lat="45.26644" lon="5.08494">
        <ele>312.27</ele>
        <time>2017-02-25T13:31:21Z</time>
      </trkpt>
      <trkpt lat="45.26644" lon="5.08494">
        <ele>312.27</ele>
        <time>2017-02-25T13:31:22Z</time>
      </trkpt>
      <trkpt lat="45.26644" lon="5.08494">
        <ele>312.27</ele>
        <time>2017-02-25T13:31:23Z</time>
      </trkpt>
      <trkpt lat="45.26644" lon="5.08494">
        <ele>312.27</ele>
        <time>2017-02-25T13:31:24Z</time>
      </trkpt>
      <trkpt lat="45.26644" lon="5.08494">
        <ele>312.27</ele>
        <time>2017-02-25T13:31:25Z</time>
      </trkpt>
      <trkpt lat="45.26644" lon="5.08494">
        <ele>312.27</ele>
        <time>2017-02-25T13:31:26Z</time>
      </trkpt>
      <trkpt lat="45.26643" lon="5.08495">
        <ele>312.59</ele>
        <time>2017-02-25T13:31:27Z</time>
      </trkpt>
      <trkpt lat="45.2664" lon="5.08493">
        <ele>312.49</ele>
        <time>2017-02-25T13:31:28Z</time>
      </trkpt>
      <trkpt lat="45.26633" lon="5.0849">
        <ele>311.67</ele>
        <time>2017-02-25T13:31:29Z</time>
      </trkpt>
      <trkpt lat="45.26624" lon="5.08486">
        <ele>310.79</ele>
        <time>2017-02-25T13:31:30Z</time>
      </trkpt>
      <trkpt lat="45.26612" lon="5.0848">
        <ele>309.97</ele>
        <time>2017-02-25T13:31:31Z</time>
      </trkpt>
      <trkpt lat="45.26598" lon="5.08474">
        <ele>309.01</ele>
        <time>2017-02-25T13:31:32Z</time>
      </trkpt>
      <trkpt lat="45.26569" lon="5.08459">
        <ele>307.22</ele>
        <time>2017-02-25T13:31:34Z</time>
      </trkpt>
      <trkpt lat="45.26554" lon="5.08452">
        <ele>306.14</ele>
        <time>2017-02-25T13:31:35Z</time>
      </trkpt>
      <trkpt lat="45.2654" lon="5.08444">
        <ele>305.2</ele>
        <time>2017-02-25T13:31:36Z</time>
      </trkpt>
      <trkpt lat="45.26526" lon="5.08438">
        <ele>304.37</ele>
        <time>2017-02-25T13:31:37Z</time>
      </trkpt>
      <trkpt lat="45.26515" lon="5.08432">
        <ele>303.57</ele>
        <time>2017-02-25T13:31:38Z</time>
      </trkpt>
      <trkpt lat="45.26505" lon="5.08427">
        <ele>302.93</ele>
        <time>2017-02-25T13:31:39Z</time>
      </trkpt>
      <trkpt lat="45.26497" lon="5.08422">
        <ele>302.16</ele>
        <time>2017-02-25T13:31:40Z</time>
      </trkpt>
      <trkpt lat="45.26492" lon="5.08416">
        <ele>301.37</ele>
        <time>2017-02-25T13:31:41Z</time>
      </trkpt>
      <trkpt lat="45.2649" lon="5.08409">
        <ele>300.81</ele>
        <time>2017-02-25T13:31:42Z</time>
      </trkpt>
      <trkpt lat="45.26487" lon="5.084">
        <ele>300.13</ele>
        <time>2017-02-25T13:31:43Z</time>
      </trkpt>
      <trkpt lat="45.26486" lon="5.08381">
        <ele>299.44</ele>
        <time>2017-02-25T13:31:44Z</time>
      </trkpt>
      <trkpt lat="45.26485" lon="5.08362">
        <ele>298.74</ele>
        <time>2017-02-25T13:31:45Z</time>
      </trkpt>
      <trkpt lat="45.26484" lon="5.08339">
        <ele>298.04</ele>
        <time>2017-02-25T13:31:46Z</time>
      </trkpt>
      <trkpt lat="45.26483" lon="5.08315">
        <ele>297.34</ele>
        <time>2017-02-25T13:31:47Z</time>
      </trkpt>
      <trkpt lat="45.26481" lon="5.0829">
        <ele>296.72</ele>
        <time>2017-02-25T13:31:48Z</time>
      </trkpt>
      <trkpt lat="45.2648" lon="5.08265">
        <ele>296.12</ele>
        <time>2017-02-25T13:31:49Z</time>
      </trkpt>
      <trkpt lat="45.26479" lon="5.08238">
        <ele>295.68</ele>
        <time>2017-02-25T13:31:50Z</time>
      </trkpt>
      <trkpt lat="45.26477" lon="5.08212">
        <ele>295.43</ele>
        <time>2017-02-25T13:31:51Z</time>
      </trkpt>
      <trkpt lat="45.26476" lon="5.08184">
        <ele>294.98</ele>
        <time>2017-02-25T13:31:52Z</time>
      </trkpt>
      <trkpt lat="45.26476" lon="5.08157">
        <ele>294.49</ele>
        <time>2017-02-25T13:31:53Z</time>
      </trkpt>
      <trkpt lat="45.26475" lon="5.08129">
        <ele>294.23</ele>
        <time>2017-02-25T13:31:54Z</time>
      </trkpt>
      <trkpt lat="45.26476" lon="5.08101">
        <ele>293.94</ele>
        <time>2017-02-25T13:31:55Z</time>
      </trkpt>
      <trkpt lat="45.26477" lon="5.08073">
        <ele>294.2</ele>
        <time>2017-02-25T13:31:56Z</time>
      </trkpt>
      <trkpt lat="45.26481" lon="5.08045">
        <ele>294.33</ele>
        <time>2017-02-25T13:31:57Z</time>
      </trkpt>
      <trkpt lat="45.26486" lon="5.08017">
        <ele>294.04</ele>
        <time>2017-02-25T13:31:58Z</time>
      </trkpt>
      <trkpt lat="45.26491" lon="5.0799">
        <ele>294.14</ele>
        <time>2017-02-25T13:31:59Z</time>
      </trkpt>
      <trkpt lat="45.26495" lon="5.07962">
        <ele>294.24</ele>
        <time>2017-02-25T13:32:00Z</time>
      </trkpt>
      <trkpt lat="45.265" lon="5.07935">
        <ele>294.42</ele>
        <time>2017-02-25T13:32:01Z</time>
      </trkpt>
      <trkpt lat="45.26505" lon="5.07907">
        <ele>294.7</ele>
        <time>2017-02-25T13:32:02Z</time>
      </trkpt>
      <trkpt lat="45.2651" lon="5.0788">
        <ele>294.99</ele>
        <time>2017-02-25T13:32:03Z</time>
      </trkpt>
      <trkpt lat="45.26514" lon="5.07852">
        <ele>295.21</ele>
        <time>2017-02-25T13:32:04Z</time>
      </trkpt>
      <trkpt lat="45.26519" lon="5.07824">
        <ele>295.34</ele>
        <time>2017-02-25T13:32:05Z</time>
      </trkpt>
      <trkpt lat="45.26524" lon="5.07795">
        <ele>295.2</ele>
        <time>2017-02-25T13:32:06Z</time>
      </trkpt>
      <trkpt lat="45.26528" lon="5.07766">
        <ele>295.57</ele>
        <time>2017-02-25T13:32:07Z</time>
      </trkpt>
      <trkpt lat="45.26533" lon="5.07736">
        <ele>295.81</ele>
        <time>2017-02-25T13:32:08Z</time>
      </trkpt>
      <trkpt lat="45.26538" lon="5.07705">
        <ele>295.62</ele>
        <time>2017-02-25T13:32:09Z</time>
      </trkpt>
      <trkpt lat="45.26543" lon="5.07673">
        <ele>295.74</ele>
        <time>2017-02-25T13:32:10Z</time>
      </trkpt>
      <trkpt lat="45.26548" lon="5.07642">
        <ele>296</ele>
        <time>2017-02-25T13:32:11Z</time>
      </trkpt>
      <trkpt lat="45.26553" lon="5.0761">
        <ele>295.97</ele>
        <time>2017-02-25T13:32:12Z</time>
      </trkpt>
      <trkpt lat="45.26555" lon="5.07579">
        <ele>295.65</ele>
        <time>2017-02-25T13:32:13Z</time>
      </trkpt>
      <trkpt lat="45.26556" lon="5.07547">
        <ele>295.66</ele>
        <time>2017-02-25T13:32:14Z</time>
      </trkpt>
      <trkpt lat="45.26555" lon="5.07514">
        <ele>295.51</ele>
        <time>2017-02-25T13:32:15Z</time>
      </trkpt>
      <trkpt lat="45.26554" lon="5.07482">
        <ele>295.23</ele>
        <time>2017-02-25T13:32:16Z</time>
      </trkpt>
      <trkpt lat="45.26553" lon="5.07449">
        <ele>294.94</ele>
        <time>2017-02-25T13:32:17Z</time>
      </trkpt>
      <trkpt lat="45.26551" lon="5.07417">
        <ele>294.64</ele>
        <time>2017-02-25T13:32:18Z</time>
      </trkpt>
      <trkpt lat="45.2655" lon="5.07385">
        <ele>294.42</ele>
        <time>2017-02-25T13:32:19Z</time>
      </trkpt>
      <trkpt lat="45.26549" lon="5.07353">
        <ele>294.22</ele>
        <time>2017-02-25T13:32:20Z</time>
      </trkpt>
      <trkpt lat="45.26548" lon="5.07321">
        <ele>293.94</ele>
        <time>2017-02-25T13:32:21Z</time>
      </trkpt>
      <trkpt lat="45.26547" lon="5.07289">
        <ele>293.72</ele>
        <time>2017-02-25T13:32:22Z</time>
      </trkpt>
      <trkpt lat="45.26546" lon="5.07258">
        <ele>293.52</ele>
        <time>2017-02-25T13:32:23Z</time>
      </trkpt>
      <trkpt lat="45.26545" lon="5.07226">
        <ele>293.24</ele>
        <time>2017-02-25T13:32:24Z</time>
      </trkpt>
      <trkpt lat="45.26544" lon="5.07195">
        <ele>292.78</ele>
        <time>2017-02-25T13:32:25Z</time>
      </trkpt>
      <trkpt lat="45.26544" lon="5.07163">
        <ele>292.37</ele>
        <time>2017-02-25T13:32:26Z</time>
      </trkpt>
      <trkpt lat="45.26543" lon="5.07131">
        <ele>291.81</ele>
        <time>2017-02-25T13:32:27Z</time>
      </trkpt>
      <trkpt lat="45.26541" lon="5.07099">
        <ele>291.54</ele>
        <time>2017-02-25T13:32:28Z</time>
      </trkpt>
      <trkpt lat="45.2654" lon="5.07068">
        <ele>291</ele>
        <time>2017-02-25T13:32:29Z</time>
      </trkpt>
      <trkpt lat="45.26539" lon="5.07037">
        <ele>290.73</ele>
        <time>2017-02-25T13:32:30Z</time>
      </trkpt>
      <trkpt lat="45.26538" lon="5.07006">
        <ele>290.12</ele>
        <time>2017-02-25T13:32:31Z</time>
      </trkpt>
      <trkpt lat="45.26537" lon="5.06975">
        <ele>289.52</ele>
        <time>2017-02-25T13:32:32Z</time>
      </trkpt>
      <trkpt lat="45.26536" lon="5.06944">
        <ele>288.92</ele>
        <time>2017-02-25T13:32:33Z</time>
      </trkpt>
      <trkpt lat="45.26534" lon="5.0691">
        <ele>288.24</ele>
        <time>2017-02-25T13:32:34Z</time>
      </trkpt>
      <trkpt lat="45.26532" lon="5.06874">
        <ele>287.14</ele>
        <time>2017-02-25T13:32:35Z</time>
      </trkpt>
      <trkpt lat="45.26531" lon="5.06837">
        <ele>286.28</ele>
        <time>2017-02-25T13:32:36Z</time>
      </trkpt>
      <trkpt lat="45.2653" lon="5.06799">
        <ele>285.95</ele>
        <time>2017-02-25T13:32:37Z</time>
      </trkpt>
      <trkpt lat="45.26531" lon="5.06763">
        <ele>285.8</ele>
        <time>2017-02-25T13:32:38Z</time>
      </trkpt>
      <trkpt lat="45.26531" lon="5.06728">
        <ele>285.77</ele>
        <time>2017-02-25T13:32:39Z</time>
      </trkpt>
      <trkpt lat="45.26529" lon="5.06694">
        <ele>285.61</ele>
        <time>2017-02-25T13:32:40Z</time>
      </trkpt>
      <trkpt lat="45.26528" lon="5.06662">
        <ele>285.66</ele>
        <time>2017-02-25T13:32:41Z</time>
      </trkpt>
      <trkpt lat="45.26527" lon="5.06631">
        <ele>285.5</ele>
        <time>2017-02-25T13:32:42Z</time>
      </trkpt>
      <trkpt lat="45.26527" lon="5.06601">
        <ele>285.39</ele>
        <time>2017-02-25T13:32:43Z</time>
      </trkpt>
      <trkpt lat="45.26527" lon="5.06571">
        <ele>285.37</ele>
        <time>2017-02-25T13:32:44Z</time>
      </trkpt>
      <trkpt lat="45.26529" lon="5.06542">
        <ele>285.53</ele>
        <time>2017-02-25T13:32:45Z</time>
      </trkpt>
      <trkpt lat="45.26533" lon="5.06512">
        <ele>286.2</ele>
        <time>2017-02-25T13:32:46Z</time>
      </trkpt>
      <trkpt lat="45.26538" lon="5.06484">
        <ele>287.13</ele>
        <time>2017-02-25T13:32:47Z</time>
      </trkpt>
      <trkpt lat="45.26543" lon="5.06455">
        <ele>287.64</ele>
        <time>2017-02-25T13:32:48Z</time>
      </trkpt>
      <trkpt lat="45.26549" lon="5.06428">
        <ele>287.9</ele>
        <time>2017-02-25T13:32:49Z</time>
      </trkpt>
      <trkpt lat="45.26554" lon="5.06401">
        <ele>288.19</ele>
        <time>2017-02-25T13:32:50Z</time>
      </trkpt>
      <trkpt lat="45.2656" lon="5.06376">
        <ele>288.41</ele>
        <time>2017-02-25T13:32:51Z</time>
      </trkpt>
      <trkpt lat="45.26566" lon="5.0635">
        <ele>288.94</ele>
        <time>2017-02-25T13:32:52Z</time>
      </trkpt>
      <trkpt lat="45.26572" lon="5.06325">
        <ele>289.76</ele>
        <time>2017-02-25T13:32:53Z</time>
      </trkpt>
      <trkpt lat="45.26576" lon="5.063">
        <ele>290.57</ele>
        <time>2017-02-25T13:32:54Z</time>
      </trkpt>
      <trkpt lat="45.26579" lon="5.06273">
        <ele>290.97</ele>
        <time>2017-02-25T13:32:55Z</time>
      </trkpt>
      <trkpt lat="45.26577" lon="5.06245">
        <ele>291.13</ele>
        <time>2017-02-25T13:32:56Z</time>
      </trkpt>
      <trkpt lat="45.26575" lon="5.06217">
        <ele>291.24</ele>
        <time>2017-02-25T13:32:57Z</time>
      </trkpt>
      <trkpt lat="45.2657" lon="5.06188">
        <ele>291.42</ele>
        <time>2017-02-25T13:32:58Z</time>
      </trkpt>
      <trkpt lat="45.26564" lon="5.06159">
        <ele>291.14</ele>
        <time>2017-02-25T13:32:59Z</time>
      </trkpt>
      <trkpt lat="45.26558" lon="5.06129">
        <ele>290.84</ele>
        <time>2017-02-25T13:33:00Z</time>
      </trkpt>
      <trkpt lat="45.26554" lon="5.06098">
        <ele>290.54</ele>
        <time>2017-02-25T13:33:01Z</time>
      </trkpt>
      <trkpt lat="45.26549" lon="5.06067">
        <ele>290.24</ele>
        <time>2017-02-25T13:33:02Z</time>
      </trkpt>
      <trkpt lat="45.26545" lon="5.06035">
        <ele>289.7</ele>
        <time>2017-02-25T13:33:03Z</time>
      </trkpt>
      <trkpt lat="45.2654" lon="5.06004">
        <ele>289.03</ele>
        <time>2017-02-25T13:33:04Z</time>
      </trkpt>
      <trkpt lat="45.26536" lon="5.05974">
        <ele>288.58</ele>
        <time>2017-02-25T13:33:05Z</time>
      </trkpt>
      <trkpt lat="45.26531" lon="5.05943">
        <ele>288.25</ele>
        <time>2017-02-25T13:33:06Z</time>
      </trkpt>
      <trkpt lat="45.26527" lon="5.05913">
        <ele>287.94</ele>
        <time>2017-02-25T13:33:07Z</time>
      </trkpt>
      <trkpt lat="45.26522" lon="5.05882">
        <ele>287.96</ele>
        <time>2017-02-25T13:33:08Z</time>
      </trkpt>
      <trkpt lat="45.26517" lon="5.05851">
        <ele>287.65</ele>
        <time>2017-02-25T13:33:09Z</time>
      </trkpt>
      <trkpt lat="45.26512" lon="5.0582">
        <ele>286.94</ele>
        <time>2017-02-25T13:33:10Z</time>
      </trkpt>
      <trkpt lat="45.26507" lon="5.05788">
        <ele>286</ele>
        <time>2017-02-25T13:33:11Z</time>
      </trkpt>
      <trkpt lat="45.26503" lon="5.05756">
        <ele>285.41</ele>
        <time>2017-02-25T13:33:12Z</time>
      </trkpt>
      <trkpt lat="45.26499" lon="5.05724">
        <ele>285.14</ele>
        <time>2017-02-25T13:33:13Z</time>
      </trkpt>
      <trkpt lat="45.26496" lon="5.05693">
        <ele>284.84</ele>
        <time>2017-02-25T13:33:14Z</time>
      </trkpt>
      <trkpt lat="45.26495" lon="5.05661">
        <ele>284.3</ele>
        <time>2017-02-25T13:33:15Z</time>
      </trkpt>
      <trkpt lat="45.26494" lon="5.0563">
        <ele>284.03</ele>
        <time>2017-02-25T13:33:16Z</time>
      </trkpt>
      <trkpt lat="45.26493" lon="5.05601">
        <ele>283.98</ele>
        <time>2017-02-25T13:33:17Z</time>
      </trkpt>
      <trkpt lat="45.26494" lon="5.05572">
        <ele>283.81</ele>
        <time>2017-02-25T13:33:18Z</time>
      </trkpt>
      <trkpt lat="45.26494" lon="5.05543">
        <ele>283.38</ele>
        <time>2017-02-25T13:33:19Z</time>
      </trkpt>
      <trkpt lat="45.26494" lon="5.05514">
        <ele>282.97</ele>
        <time>2017-02-25T13:33:20Z</time>
      </trkpt>
      <trkpt lat="45.26493" lon="5.05485">
        <ele>282.33</ele>
        <time>2017-02-25T13:33:21Z</time>
      </trkpt>
      <trkpt lat="45.26492" lon="5.05456">
        <ele>281.72</ele>
        <time>2017-02-25T13:33:22Z</time>
      </trkpt>
      <trkpt lat="45.26489" lon="5.05427">
        <ele>281.2</ele>
        <time>2017-02-25T13:33:23Z</time>
      </trkpt>
      <trkpt lat="45.26485" lon="5.05397">
        <ele>280.45</ele>
        <time>2017-02-25T13:33:24Z</time>
      </trkpt>
      <trkpt lat="45.2648" lon="5.05368">
        <ele>279.9</ele>
        <time>2017-02-25T13:33:25Z</time>
      </trkpt>
      <trkpt lat="45.26476" lon="5.05337">
        <ele>279.15</ele>
        <time>2017-02-25T13:33:26Z</time>
      </trkpt>
      <trkpt lat="45.26472" lon="5.05307">
        <ele>278.28</ele>
        <time>2017-02-25T13:33:27Z</time>
      </trkpt>
      <trkpt lat="45.26467" lon="5.05276">
        <ele>277.55</ele>
        <time>2017-02-25T13:33:28Z</time>
      </trkpt>
      <trkpt lat="45.26463" lon="5.05246">
        <ele>276.92</ele>
        <time>2017-02-25T13:33:29Z</time>
      </trkpt>
      <trkpt lat="45.26458" lon="5.05216">
        <ele>276.24</ele>
        <time>2017-02-25T13:33:30Z</time>
      </trkpt>
      <trkpt lat="45.26453" lon="5.05185">
        <ele>275.7</ele>
        <time>2017-02-25T13:33:31Z</time>
      </trkpt>
      <trkpt lat="45.26449" lon="5.05155">
        <ele>275.27</ele>
        <time>2017-02-25T13:33:32Z</time>
      </trkpt>
      <trkpt lat="45.26445" lon="5.05126">
        <ele>274.95</ele>
        <time>2017-02-25T13:33:33Z</time>
      </trkpt>
      <trkpt lat="45.2644" lon="5.05096">
        <ele>274.88</ele>
        <time>2017-02-25T13:33:34Z</time>
      </trkpt>
      <trkpt lat="45.26436" lon="5.05067">
        <ele>274.63</ele>
        <time>2017-02-25T13:33:35Z</time>
      </trkpt>
      <trkpt lat="45.26431" lon="5.05037">
        <ele>274.26</ele>
        <time>2017-02-25T13:33:36Z</time>
      </trkpt>
      <trkpt lat="45.26425" lon="5.05009">
        <ele>273.95</ele>
        <time>2017-02-25T13:33:37Z</time>
      </trkpt>
      <trkpt lat="45.26418" lon="5.04982">
        <ele>273.72</ele>
        <time>2017-02-25T13:33:38Z</time>
      </trkpt>
      <trkpt lat="45.26411" lon="5.04954">
        <ele>273.68</ele>
        <time>2017-02-25T13:33:39Z</time>
      </trkpt>
      <trkpt lat="45.26403" lon="5.04926">
        <ele>273.27</ele>
        <time>2017-02-25T13:33:40Z</time>
      </trkpt>
      <trkpt lat="45.26396" lon="5.04898">
        <ele>272.71</ele>
        <time>2017-02-25T13:33:41Z</time>
      </trkpt>
      <trkpt lat="45.26388" lon="5.0487">
        <ele>272.04</ele>
        <time>2017-02-25T13:33:42Z</time>
      </trkpt>
      <trkpt lat="45.26381" lon="5.04841">
        <ele>271.18</ele>
        <time>2017-02-25T13:33:43Z</time>
      </trkpt>
      <trkpt lat="45.26373" lon="5.04813">
        <ele>270.61</ele>
        <time>2017-02-25T13:33:44Z</time>
      </trkpt>
      <trkpt lat="45.26366" lon="5.04783">
        <ele>269.86</ele>
        <time>2017-02-25T13:33:45Z</time>
      </trkpt>
      <trkpt lat="45.26359" lon="5.04753">
        <ele>269.38</ele>
        <time>2017-02-25T13:33:46Z</time>
      </trkpt>
      <trkpt lat="45.26352" lon="5.04722">
        <ele>269.13</ele>
        <time>2017-02-25T13:33:47Z</time>
      </trkpt>
      <trkpt lat="45.26346" lon="5.04688">
        <ele>268.76</ele>
        <time>2017-02-25T13:33:48Z</time>
      </trkpt>
      <trkpt lat="45.26339" lon="5.04653">
        <ele>268.37</ele>
        <time>2017-02-25T13:33:49Z</time>
      </trkpt>
      <trkpt lat="45.26333" lon="5.04618">
        <ele>268.05</ele>
        <time>2017-02-25T13:33:50Z</time>
      </trkpt>
      <trkpt lat="45.26326" lon="5.04582">
        <ele>267.74</ele>
        <time>2017-02-25T13:33:51Z</time>
      </trkpt>
      <trkpt lat="45.26319" lon="5.04547">
        <ele>267.28</ele>
        <time>2017-02-25T13:33:52Z</time>
      </trkpt>
      <trkpt lat="45.26311" lon="5.04512">
        <ele>267.19</ele>
        <time>2017-02-25T13:33:53Z</time>
      </trkpt>
      <trkpt lat="45.26302" lon="5.04477">
        <ele>267.01</ele>
        <time>2017-02-25T13:33:54Z</time>
      </trkpt>
      <trkpt lat="45.26293" lon="5.04442">
        <ele>266.5</ele>
        <time>2017-02-25T13:33:55Z</time>
      </trkpt>
      <trkpt lat="45.26284" lon="5.04408">
        <ele>265.99</ele>
        <time>2017-02-25T13:33:56Z</time>
      </trkpt>
      <trkpt lat="45.26275" lon="5.04374">
        <ele>265.73</ele>
        <time>2017-02-25T13:33:57Z</time>
      </trkpt>
      <trkpt lat="45.26267" lon="5.04342">
        <ele>265.68</ele>
        <time>2017-02-25T13:33:58Z</time>
      </trkpt>
      <trkpt lat="45.2626" lon="5.0431">
        <ele>265.43</ele>
        <time>2017-02-25T13:33:59Z</time>
      </trkpt>
      <trkpt lat="45.26252" lon="5.04279">
        <ele>265.46</ele>
        <time>2017-02-25T13:34:00Z</time>
      </trkpt>
      <trkpt lat="45.26245" lon="5.04248">
        <ele>265.15</ele>
        <time>2017-02-25T13:34:01Z</time>
      </trkpt>
      <trkpt lat="45.26238" lon="5.04217">
        <ele>265</ele>
        <time>2017-02-25T13:34:02Z</time>
      </trkpt>
      <trkpt lat="45.26231" lon="5.04187">
        <ele>265.05</ele>
        <time>2017-02-25T13:34:03Z</time>
      </trkpt>
      <trkpt lat="45.26223" lon="5.04156">
        <ele>264.98</ele>
        <time>2017-02-25T13:34:04Z</time>
      </trkpt>
      <trkpt lat="45.26216" lon="5.04127">
        <ele>264.73</ele>
        <time>2017-02-25T13:34:05Z</time>
      </trkpt>
      <trkpt lat="45.26209" lon="5.04098">
        <ele>264.68</ele>
        <time>2017-02-25T13:34:06Z</time>
      </trkpt>
      <trkpt lat="45.26201" lon="5.0407">
        <ele>264.51</ele>
        <time>2017-02-25T13:34:07Z</time>
      </trkpt>
      <trkpt lat="45.26194" lon="5.04044">
        <ele>264.64</ele>
        <time>2017-02-25T13:34:08Z</time>
      </trkpt>
      <trkpt lat="45.26185" lon="5.04018">
        <ele>264.74</ele>
        <time>2017-02-25T13:34:09Z</time>
      </trkpt>
      <trkpt lat="45.26175" lon="5.03992">
        <ele>264.52</ele>
        <time>2017-02-25T13:34:10Z</time>
      </trkpt>
      <trkpt lat="45.26165" lon="5.03965">
        <ele>264.24</ele>
        <time>2017-02-25T13:34:11Z</time>
      </trkpt>
      <trkpt lat="45.26157" lon="5.03936">
        <ele>263.94</ele>
        <time>2017-02-25T13:34:12Z</time>
      </trkpt>
      <trkpt lat="45.26149" lon="5.03905">
        <ele>263.8</ele>
        <time>2017-02-25T13:34:13Z</time>
      </trkpt>
      <trkpt lat="45.26142" lon="5.03873">
        <ele>263.53</ele>
        <time>2017-02-25T13:34:14Z</time>
      </trkpt>
      <trkpt lat="45.26136" lon="5.0384">
        <ele>263.24</ele>
        <time>2017-02-25T13:34:15Z</time>
      </trkpt>
      <trkpt lat="45.26128" lon="5.03807">
        <ele>262.94</ele>
        <time>2017-02-25T13:34:16Z</time>
      </trkpt>
      <trkpt lat="45.2612" lon="5.03775">
        <ele>262.8</ele>
        <time>2017-02-25T13:34:17Z</time>
      </trkpt>
      <trkpt lat="45.2611" lon="5.03744">
        <ele>262.61</ele>
        <time>2017-02-25T13:34:18Z</time>
      </trkpt>
      <trkpt lat="45.26099" lon="5.03713">
        <ele>262.58</ele>
        <time>2017-02-25T13:34:19Z</time>
      </trkpt>
      <trkpt lat="45.26089" lon="5.03682">
        <ele>262.49</ele>
        <time>2017-02-25T13:34:20Z</time>
      </trkpt>
      <trkpt lat="45.26078" lon="5.03652">
        <ele>262.39</ele>
        <time>2017-02-25T13:34:21Z</time>
      </trkpt>
      <trkpt lat="45.26068" lon="5.03623">
        <ele>261.89</ele>
        <time>2017-02-25T13:34:22Z</time>
      </trkpt>
      <trkpt lat="45.26058" lon="5.03595">
        <ele>261.47</ele>
        <time>2017-02-25T13:34:23Z</time>
      </trkpt>
      <trkpt lat="45.26049" lon="5.0357">
        <ele>261.23</ele>
        <time>2017-02-25T13:34:24Z</time>
      </trkpt>
      <trkpt lat="45.26041" lon="5.03548">
        <ele>260.62</ele>
        <time>2017-02-25T13:34:25Z</time>
      </trkpt>
      <trkpt lat="45.26034" lon="5.03528">
        <ele>260.1</ele>
        <time>2017-02-25T13:34:26Z</time>
      </trkpt>
      <trkpt lat="45.26028" lon="5.03511">
        <ele>259.59</ele>
        <time>2017-02-25T13:34:27Z</time>
      </trkpt>
      <trkpt lat="45.26022" lon="5.03495">
        <ele>259.09</ele>
        <time>2017-02-25T13:34:28Z</time>
      </trkpt>
      <trkpt lat="45.26017" lon="5.03479">
        <ele>258.67</ele>
        <time>2017-02-25T13:34:29Z</time>
      </trkpt>
      <trkpt lat="45.26012" lon="5.03464">
        <ele>258.51</ele>
        <time>2017-02-25T13:34:30Z</time>
      </trkpt>
      <trkpt lat="45.26007" lon="5.03451">
        <ele>258.64</ele>
        <time>2017-02-25T13:34:31Z</time>
      </trkpt>
      <trkpt lat="45.26002" lon="5.03437">
        <ele>258.5</ele>
        <time>2017-02-25T13:34:32Z</time>
      </trkpt>
      <trkpt lat="45.25997" lon="5.03424">
        <ele>258.39</ele>
        <time>2017-02-25T13:34:33Z</time>
      </trkpt>
      <trkpt lat="45.25992" lon="5.03409">
        <ele>258.13</ele>
        <time>2017-02-25T13:34:34Z</time>
      </trkpt>
      <trkpt lat="45.25986" lon="5.03393">
        <ele>258</ele>
        <time>2017-02-25T13:34:35Z</time>
      </trkpt>
      <trkpt lat="45.2598" lon="5.03376">
        <ele>257.97</ele>
        <time>2017-02-25T13:34:36Z</time>
      </trkpt>
      <trkpt lat="45.25973" lon="5.03359">
        <ele>258.13</ele>
        <time>2017-02-25T13:34:37Z</time>
      </trkpt>
      <trkpt lat="45.25966" lon="5.03342">
        <ele>258.32</ele>
        <time>2017-02-25T13:34:38Z</time>
      </trkpt>
      <trkpt lat="45.25959" lon="5.03325">
        <ele>258.44</ele>
        <time>2017-02-25T13:34:39Z</time>
      </trkpt>
      <trkpt lat="45.25952" lon="5.03309">
        <ele>258.62</ele>
        <time>2017-02-25T13:34:40Z</time>
      </trkpt>
      <trkpt lat="45.25945" lon="5.03292">
        <ele>258.9</ele>
        <time>2017-02-25T13:34:41Z</time>
      </trkpt>
      <trkpt lat="45.25937" lon="5.03275">
        <ele>259.27</ele>
        <time>2017-02-25T13:34:42Z</time>
      </trkpt>
      <trkpt lat="45.2593" lon="5.03257">
        <ele>259.75</ele>
        <time>2017-02-25T13:34:43Z</time>
      </trkpt>
      <trkpt lat="45.25923" lon="5.03239">
        <ele>259.92</ele>
        <time>2017-02-25T13:34:44Z</time>
      </trkpt>
      <trkpt lat="45.25915" lon="5.03221">
        <ele>259.96</ele>
        <time>2017-02-25T13:34:45Z</time>
      </trkpt>
      <trkpt lat="45.25908" lon="5.03203">
        <ele>259.89</ele>
        <time>2017-02-25T13:34:46Z</time>
      </trkpt>
      <trkpt lat="45.25901" lon="5.03186">
        <ele>260.27</ele>
        <time>2017-02-25T13:34:47Z</time>
      </trkpt>
      <trkpt lat="45.25893" lon="5.03169">
        <ele>260.83</ele>
        <time>2017-02-25T13:34:48Z</time>
      </trkpt>
      <trkpt lat="45.25886" lon="5.03152">
        <ele>260.86</ele>
        <time>2017-02-25T13:34:49Z</time>
      </trkpt>
      <trkpt lat="45.25878" lon="5.03135">
        <ele>261.19</ele>
        <time>2017-02-25T13:34:50Z</time>
      </trkpt>
      <trkpt lat="45.25871" lon="5.03118">
        <ele>261.25</ele>
        <time>2017-02-25T13:34:51Z</time>
      </trkpt>
      <trkpt lat="45.25863" lon="5.03102">
        <ele>261.34</ele>
        <time>2017-02-25T13:34:52Z</time>
      </trkpt>
      <trkpt lat="45.25855" lon="5.03085">
        <ele>260.88</ele>
        <time>2017-02-25T13:34:53Z</time>
      </trkpt>
      <trkpt lat="45.25847" lon="5.03068">
        <ele>260.39</ele>
        <time>2017-02-25T13:34:54Z</time>
      </trkpt>
      <trkpt lat="45.25839" lon="5.03052">
        <ele>259.65</ele>
        <time>2017-02-25T13:34:55Z</time>
      </trkpt>
      <trkpt lat="45.2583" lon="5.03036">
        <ele>259.02</ele>
        <time>2017-02-25T13:34:56Z</time>
      </trkpt>
      <trkpt lat="45.25822" lon="5.03021">
        <ele>258.18</ele>
        <time>2017-02-25T13:34:57Z</time>
      </trkpt>
      <trkpt lat="45.25815" lon="5.03008">
        <ele>257.45</ele>
        <time>2017-02-25T13:34:58Z</time>
      </trkpt>
      <trkpt lat="45.2581" lon="5.03">
        <ele>256.9</ele>
        <time>2017-02-25T13:34:59Z</time>
      </trkpt>
      <trkpt lat="45.25804" lon="5.02995">
        <ele>257.11</ele>
        <time>2017-02-25T13:35:00Z</time>
      </trkpt>
      <trkpt lat="45.25799" lon="5.02994">
        <ele>257</ele>
        <time>2017-02-25T13:35:01Z</time>
      </trkpt>
      <trkpt lat="45.25793" lon="5.02995">
        <ele>256.57</ele>
        <time>2017-02-25T13:35:02Z</time>
      </trkpt>
      <trkpt lat="45.25787" lon="5.02997">
        <ele>256.41</ele>
        <time>2017-02-25T13:35:03Z</time>
      </trkpt>
      <trkpt lat="45.25783" lon="5.02998">
        <ele>256.14</ele>
        <time>2017-02-25T13:35:04Z</time>
      </trkpt>
      <trkpt lat="45.25778" lon="5.02998">
        <ele>256.08</ele>
        <time>2017-02-25T13:35:05Z</time>
      </trkpt>
      <trkpt lat="45.25772" lon="5.02996">
        <ele>255.83</ele>
        <time>2017-02-25T13:35:06Z</time>
      </trkpt>
      <trkpt lat="45.25765" lon="5.02992">
        <ele>255.3</ele>
        <time>2017-02-25T13:35:07Z</time>
      </trkpt>
      <trkpt lat="45.25757" lon="5.02987">
        <ele>254.87</ele>
        <time>2017-02-25T13:35:08Z</time>
      </trkpt>
      <trkpt lat="45.25748" lon="5.02982">
        <ele>253.99</ele>
        <time>2017-02-25T13:35:09Z</time>
      </trkpt>
      <trkpt lat="45.25739" lon="5.02976">
        <ele>253.49</ele>
        <time>2017-02-25T13:35:10Z</time>
      </trkpt>
      <trkpt lat="45.25729" lon="5.0297">
        <ele>252.75</ele>
        <time>2017-02-25T13:35:11Z</time>
      </trkpt>
      <trkpt lat="45.2572" lon="5.02964">
        <ele>252.04</ele>
        <time>2017-02-25T13:35:12Z</time>
      </trkpt>
      <trkpt lat="45.25712" lon="5.02958">
        <ele>251.34</ele>
        <time>2017-02-25T13:35:13Z</time>
      </trkpt>
      <trkpt lat="45.25704" lon="5.02952">
        <ele>250.88</ele>
        <time>2017-02-25T13:35:14Z</time>
      </trkpt>
      <trkpt lat="45.25697" lon="5.02946">
        <ele>250.63</ele>
        <time>2017-02-25T13:35:15Z</time>
      </trkpt>
      <trkpt lat="45.25691" lon="5.02941">
        <ele>250.42</ele>
        <time>2017-02-25T13:35:16Z</time>
      </trkpt>
      <trkpt lat="45.25684" lon="5.02936">
        <ele>250.22</ele>
        <time>2017-02-25T13:35:17Z</time>
      </trkpt>
      <trkpt lat="45.25677" lon="5.02931">
        <ele>250.1</ele>
        <time>2017-02-25T13:35:18Z</time>
      </trkpt>
      <trkpt lat="45.2567" lon="5.02927">
        <ele>249.99</ele>
        <time>2017-02-25T13:35:19Z</time>
      </trkpt>
      <trkpt lat="45.25663" lon="5.02922">
        <ele>249.81</ele>
        <time>2017-02-25T13:35:20Z</time>
      </trkpt>
      <trkpt lat="45.25655" lon="5.02918">
        <ele>249.62</ele>
        <time>2017-02-25T13:35:21Z</time>
      </trkpt>
      <trkpt lat="45.25648" lon="5.02913">
        <ele>249.5</ele>
        <time>2017-02-25T13:35:22Z</time>
      </trkpt>
      <trkpt lat="45.25641" lon="5.02909">
        <ele>249.31</ele>
        <time>2017-02-25T13:35:23Z</time>
      </trkpt>
      <trkpt lat="45.25635" lon="5.02905">
        <ele>249.04</ele>
        <time>2017-02-25T13:35:24Z</time>
      </trkpt>
      <trkpt lat="45.25629" lon="5.02902">
        <ele>248.66</ele>
        <time>2017-02-25T13:35:25Z</time>
      </trkpt>
      <trkpt lat="45.25624" lon="5.02899">
        <ele>248.67</ele>
        <time>2017-02-25T13:35:26Z</time>
      </trkpt>
      <trkpt lat="45.25621" lon="5.02899">
        <ele>248.51</ele>
        <time>2017-02-25T13:35:27Z</time>
      </trkpt>
      <trkpt lat="45.25619" lon="5.02899">
        <ele>248.39</ele>
        <time>2017-02-25T13:35:28Z</time>
      </trkpt>
      <trkpt lat="45.25618" lon="5.02901">
        <ele>248.29</ele>
        <time>2017-02-25T13:35:29Z</time>
      </trkpt>
      <trkpt lat="45.25618" lon="5.02903">
        <ele>248.03</ele>
        <time>2017-02-25T13:35:30Z</time>
      </trkpt>
      <trkpt lat="45.25618" lon="5.02905">
        <ele>247.9</ele>
        <time>2017-02-25T13:35:31Z</time>
      </trkpt>
      <trkpt lat="45.25618" lon="5.02908">
        <ele>247.79</ele>
        <time>2017-02-25T13:35:32Z</time>
      </trkpt>
      <trkpt lat="45.25619" lon="5.02912">
        <ele>247.61</ele>
        <time>2017-02-25T13:35:33Z</time>
      </trkpt>
      <trkpt lat="45.25621" lon="5.02917">
        <ele>247.26</ele>
        <time>2017-02-25T13:35:34Z</time>
      </trkpt>
      <trkpt lat="45.25622" lon="5.02922">
        <ele>247.02</ele>
        <time>2017-02-25T13:35:35Z</time>
      </trkpt>
      <trkpt lat="45.25624" lon="5.02928">
        <ele>246.74</ele>
        <time>2017-02-25T13:35:36Z</time>
      </trkpt>
      <trkpt lat="45.25626" lon="5.02934">
        <ele>246.6</ele>
        <time>2017-02-25T13:35:37Z</time>
      </trkpt>
      <trkpt lat="45.25628" lon="5.0294">
        <ele>246.41</ele>
        <time>2017-02-25T13:35:38Z</time>
      </trkpt>
      <trkpt lat="45.2563" lon="5.02946">
        <ele>246.3</ele>
        <time>2017-02-25T13:35:39Z</time>
      </trkpt>
      <trkpt lat="45.25631" lon="5.02952">
        <ele>246.19</ele>
        <time>2017-02-25T13:35:40Z</time>
      </trkpt>
      <trkpt lat="45.25632" lon="5.02956">
        <ele>246.17</ele>
        <time>2017-02-25T13:35:41Z</time>
      </trkpt>
      <trkpt lat="45.25631" lon="5.02958">
        <ele>246.01</ele>
        <time>2017-02-25T13:35:42Z</time>
      </trkpt>
      <trkpt lat="45.2563" lon="5.02959">
        <ele>246.06</ele>
        <time>2017-02-25T13:35:43Z</time>
      </trkpt>
      <trkpt lat="45.25628" lon="5.02959">
        <ele>246.14</ele>
        <time>2017-02-25T13:35:44Z</time>
      </trkpt>
      <trkpt lat="45.25626" lon="5.0296">
        <ele>246.08</ele>
        <time>2017-02-25T13:35:45Z</time>
      </trkpt>
      <trkpt lat="45.25622" lon="5.0296">
        <ele>246.23</ele>
        <time>2017-02-25T13:35:46Z</time>
      </trkpt>
      <trkpt lat="45.25618" lon="5.0296">
        <ele>246.18</ele>
        <time>2017-02-25T13:35:47Z</time>
      </trkpt>
      <trkpt lat="45.25614" lon="5.02958">
        <ele>246.09</ele>
        <time>2017-02-25T13:35:48Z</time>
      </trkpt>
      <trkpt lat="45.2561" lon="5.02954">
        <ele>245.99</ele>
        <time>2017-02-25T13:35:49Z</time>
      </trkpt>
      <trkpt lat="45.25605" lon="5.02948">
        <ele>246.13</ele>
        <time>2017-02-25T13:35:50Z</time>
      </trkpt>
      <trkpt lat="45.25599" lon="5.02941">
        <ele>246.24</ele>
        <time>2017-02-25T13:35:51Z</time>
      </trkpt>
      <trkpt lat="45.25594" lon="5.02934">
        <ele>246.58</ele>
        <time>2017-02-25T13:35:52Z</time>
      </trkpt>
      <trkpt lat="45.25588" lon="5.02926">
        <ele>246.73</ele>
        <time>2017-02-25T13:35:53Z</time>
      </trkpt>
      <trkpt lat="45.25583" lon="5.0292">
        <ele>246.92</ele>
        <time>2017-02-25T13:35:54Z</time>
      </trkpt>
      <trkpt lat="45.25579" lon="5.02914">
        <ele>247.04</ele>
        <time>2017-02-25T13:35:55Z</time>
      </trkpt>
      <trkpt lat="45.25576" lon="5.02908">
        <ele>247.14</ele>
        <time>2017-02-25T13:35:56Z</time>
      </trkpt>
      <trkpt lat="45.25573" lon="5.02901">
        <ele>247.16</ele>
        <time>2017-02-25T13:35:57Z</time>
      </trkpt>
      <trkpt lat="45.2557" lon="5.02894">
        <ele>247.09</ele>
        <time>2017-02-25T13:35:58Z</time>
      </trkpt>
      <trkpt lat="45.25567" lon="5.02886">
        <ele>247.07</ele>
        <time>2017-02-25T13:35:59Z</time>
      </trkpt>
      <trkpt lat="45.25563" lon="5.02879">
        <ele>247.07</ele>
        <time>2017-02-25T13:36:00Z</time>
      </trkpt>
      <trkpt lat="45.25559" lon="5.02873">
        <ele>247.07</ele>
        <time>2017-02-25T13:36:01Z</time>
      </trkpt>
      <trkpt lat="45.25556" lon="5.02868">
        <ele>247.07</ele>
        <time>2017-02-25T13:36:02Z</time>
      </trkpt>
      <trkpt lat="45.25554" lon="5.02864">
        <ele>246.91</ele>
        <time>2017-02-25T13:36:03Z</time>
      </trkpt>
      <trkpt lat="45.25553" lon="5.02861">
        <ele>246.56</ele>
        <time>2017-02-25T13:36:04Z</time>
      </trkpt>
      <trkpt lat="45.25551" lon="5.0286">
        <ele>246.32</ele>
        <time>2017-02-25T13:36:05Z</time>
      </trkpt>
      <trkpt lat="45.25551" lon="5.0286">
        <ele>246.2</ele>
        <time>2017-02-25T13:36:06Z</time>
      </trkpt>
      <trkpt lat="45.25552" lon="5.02861">
        <ele>245.93</ele>
        <time>2017-02-25T13:36:07Z</time>
      </trkpt>
      <trkpt lat="45.25552" lon="5.02862">
        <ele>245.72</ele>
        <time>2017-02-25T13:36:08Z</time>
      </trkpt>
      <trkpt lat="45.25552" lon="5.02862">
        <ele>245.68</ele>
        <time>2017-02-25T13:36:09Z</time>
      </trkpt>
      <trkpt lat="45.25552" lon="5.02862">
        <ele>245.67</ele>
        <time>2017-02-25T13:36:10Z</time>
      </trkpt>
      <trkpt lat="45.25552" lon="5.02862">
        <ele>245.67</ele>
        <time>2017-02-25T13:36:11Z</time>
      </trkpt>
      <trkpt lat="45.25552" lon="5.02862">
        <ele>245.67</ele>
        <time>2017-02-25T13:36:12Z</time>
      </trkpt>
      <trkpt lat="45.25552" lon="5.02862">
        <ele>245.67</ele>
        <time>2017-02-25T13:36:13Z</time>
      </trkpt>
      <trkpt lat="45.25552" lon="5.02862">
        <ele>245.67</ele>
        <time>2017-02-25T13:36:14Z</time>
      </trkpt>
      <trkpt lat="45.25552" lon="5.02862">
        <ele>245.67</ele>
        <time>2017-02-25T13:36:15Z</time>
      </trkpt>
      <trkpt lat="45.25553" lon="5.02858">
        <ele>245.51</ele>
        <time>2017-02-25T13:36:16Z</time>
      </trkpt>
      <trkpt lat="45.25555" lon="5.02854">
        <ele>245.4</ele>
        <time>2017-02-25T13:36:17Z</time>
      </trkpt>
      <trkpt lat="45.25557" lon="5.02852">
        <ele>245.29</ele>
        <time>2017-02-25T13:36:18Z</time>
      </trkpt>
      <trkpt lat="45.25558" lon="5.02849">
        <ele>245.19</ele>
        <time>2017-02-25T13:36:19Z</time>
      </trkpt>
      <trkpt lat="45.2556" lon="5.02846">
        <ele>245.09</ele>
        <time>2017-02-25T13:36:20Z</time>
      </trkpt>
      <trkpt lat="45.25562" lon="5.02842">
        <ele>244.99</ele>
        <time>2017-02-25T13:36:21Z</time>
      </trkpt>
      <trkpt lat="45.25565" lon="5.02837">
        <ele>244.81</ele>
        <time>2017-02-25T13:36:22Z</time>
      </trkpt>
      <trkpt lat="45.25567" lon="5.02831">
        <ele>244.78</ele>
        <time>2017-02-25T13:36:23Z</time>
      </trkpt>
      <trkpt lat="45.2557" lon="5.02825">
        <ele>244.69</ele>
        <time>2017-02-25T13:36:24Z</time>
      </trkpt>
      <trkpt lat="45.25573" lon="5.02818">
        <ele>244.67</ele>
        <time>2017-02-25T13:36:25Z</time>
      </trkpt>
      <trkpt lat="45.25576" lon="5.02812">
        <ele>244.67</ele>
        <time>2017-02-25T13:36:26Z</time>
      </trkpt>
      <trkpt lat="45.25579" lon="5.02806">
        <ele>244.67</ele>
        <time>2017-02-25T13:36:27Z</time>
      </trkpt>
      <trkpt lat="45.25581" lon="5.02801">
        <ele>244.59</ele>
        <time>2017-02-25T13:36:28Z</time>
      </trkpt>
      <trkpt lat="45.25584" lon="5.02795">
        <ele>244.49</ele>
        <time>2017-02-25T13:36:29Z</time>
      </trkpt>
      <trkpt lat="45.25587" lon="5.0279">
        <ele>244.47</ele>
        <time>2017-02-25T13:36:30Z</time>
      </trkpt>
      <trkpt lat="45.2559" lon="5.02785">
        <ele>244.71</ele>
        <time>2017-02-25T13:36:31Z</time>
      </trkpt>
      <trkpt lat="45.25592" lon="5.02781">
        <ele>244.84</ele>
        <time>2017-02-25T13:36:32Z</time>
      </trkpt>
      <trkpt lat="45.25595" lon="5.02777">
        <ele>245.02</ele>
        <time>2017-02-25T13:36:33Z</time>
      </trkpt>
      <trkpt lat="45.25597" lon="5.02773">
        <ele>245.22</ele>
        <time>2017-02-25T13:36:34Z</time>
      </trkpt>
      <trkpt lat="45.25599" lon="5.02769">
        <ele>245.42</ele>
        <time>2017-02-25T13:36:35Z</time>
      </trkpt>
      <trkpt lat="45.25601" lon="5.02765">
        <ele>245.46</ele>
        <time>2017-02-25T13:36:36Z</time>
      </trkpt>
      <trkpt lat="45.25603" lon="5.02762">
        <ele>245.55</ele>
        <time>2017-02-25T13:36:37Z</time>
      </trkpt>
      <trkpt lat="45.25605" lon="5.02759">
        <ele>245.56</ele>
        <time>2017-02-25T13:36:38Z</time>
      </trkpt>
      <trkpt lat="45.25605" lon="5.02757">
        <ele>245.57</ele>
        <time>2017-02-25T13:36:39Z</time>
      </trkpt>
      <trkpt lat="45.25606" lon="5.02755">
        <ele>245.49</ele>
        <time>2017-02-25T13:36:40Z</time>
      </trkpt>
      <trkpt lat="45.25606" lon="5.02754">
        <ele>245.47</ele>
        <time>2017-02-25T13:36:41Z</time>
      </trkpt>
      <trkpt lat="45.25606" lon="5.02754">
        <ele>245.63</ele>
        <time>2017-02-25T13:36:42Z</time>
      </trkpt>
      <trkpt lat="45.25606" lon="5.02754">
        <ele>245.74</ele>
        <time>2017-02-25T13:36:43Z</time>
      </trkpt>
      <trkpt lat="45.25606" lon="5.02754">
        <ele>245.76</ele>
        <time>2017-02-25T13:36:44Z</time>
      </trkpt>
      <trkpt lat="45.25606" lon="5.02754">
        <ele>245.77</ele>
        <time>2017-02-25T13:36:45Z</time>
      </trkpt>
      <trkpt lat="45.25606" lon="5.02754">
        <ele>245.77</ele>
        <time>2017-02-25T13:36:46Z</time>
      </trkpt>
      <trkpt lat="45.25606" lon="5.02754">
        <ele>245.77</ele>
        <time>2017-02-25T13:36:47Z</time>
      </trkpt>
      <trkpt lat="45.25606" lon="5.02754">
        <ele>245.77</ele>
        <time>2017-02-25T13:36:48Z</time>
      </trkpt>
      <trkpt lat="45.25611" lon="5.02753">
        <ele>246.97</ele>
        <time>2017-02-25T13:36:49Z</time>
      </trkpt>
      <trkpt lat="45.25612" lon="5.02755">
        <ele>247.29</ele>
        <time>2017-02-25T13:36:50Z</time>
      </trkpt>
      <trkpt lat="45.25613" lon="5.02757">
        <ele>247.43</ele>
        <time>2017-02-25T13:36:51Z</time>
      </trkpt>
      <trkpt lat="45.25614" lon="5.02759">
        <ele>247.54</ele>
        <time>2017-02-25T13:36:52Z</time>
      </trkpt>
      <trkpt lat="45.25616" lon="5.02761">
        <ele>247.64</ele>
        <time>2017-02-25T13:36:53Z</time>
      </trkpt>
      <trkpt lat="45.25618" lon="5.02763">
        <ele>247.9</ele>
        <time>2017-02-25T13:36:54Z</time>
      </trkpt>
      <trkpt lat="45.2562" lon="5.02765">
        <ele>248.03</ele>
        <time>2017-02-25T13:36:55Z</time>
      </trkpt>
      <trkpt lat="45.25622" lon="5.02767">
        <ele>248.14</ele>
        <time>2017-02-25T13:36:56Z</time>
      </trkpt>
      <trkpt lat="45.25623" lon="5.02769">
        <ele>248.24</ele>
        <time>2017-02-25T13:36:57Z</time>
      </trkpt>
      <trkpt lat="45.25624" lon="5.02772">
        <ele>248.42</ele>
        <time>2017-02-25T13:36:58Z</time>
      </trkpt>
      <trkpt lat="45.25626" lon="5.02774">
        <ele>248.7</ele>
        <time>2017-02-25T13:36:59Z</time>
      </trkpt>
      <trkpt lat="45.25628" lon="5.02777">
        <ele>248.83</ele>
        <time>2017-02-25T13:37:00Z</time>
      </trkpt>
      <trkpt lat="45.25631" lon="5.02779">
        <ele>249.02</ele>
        <time>2017-02-25T13:37:01Z</time>
      </trkpt>
      <trkpt lat="45.25634" lon="5.02782">
        <ele>249.06</ele>
        <time>2017-02-25T13:37:02Z</time>
      </trkpt>
      <trkpt lat="45.25637" lon="5.02784">
        <ele>249.07</ele>
        <time>2017-02-25T13:37:03Z</time>
      </trkpt>
      <trkpt lat="45.25639" lon="5.02787">
        <ele>249.07</ele>
        <time>2017-02-25T13:37:04Z</time>
      </trkpt>
      <trkpt lat="45.25641" lon="5.02789">
        <ele>249.07</ele>
        <time>2017-02-25T13:37:05Z</time>
      </trkpt>
      <trkpt lat="45.25643" lon="5.02793">
        <ele>249.07</ele>
        <time>2017-02-25T13:37:06Z</time>
      </trkpt>
      <trkpt lat="45.25646" lon="5.02798">
        <ele>249.15</ele>
        <time>2017-02-25T13:37:07Z</time>
      </trkpt>
      <trkpt lat="45.25648" lon="5.02803">
        <ele>249.32</ele>
        <time>2017-02-25T13:37:08Z</time>
      </trkpt>
      <trkpt lat="45.2565" lon="5.02808">
        <ele>249.36</ele>
        <time>2017-02-25T13:37:09Z</time>
      </trkpt>
      <trkpt lat="45.25653" lon="5.02814">
        <ele>249.37</ele>
        <time>2017-02-25T13:37:10Z</time>
      </trkpt>
      <trkpt lat="45.25655" lon="5.0282">
        <ele>249.45</ele>
        <time>2017-02-25T13:37:11Z</time>
      </trkpt>
      <trkpt lat="45.25657" lon="5.02826">
        <ele>249.54</ele>
        <time>2017-02-25T13:37:12Z</time>
      </trkpt>
      <trkpt lat="45.25659" lon="5.02831">
        <ele>249.56</ele>
        <time>2017-02-25T13:37:13Z</time>
      </trkpt>
      <trkpt lat="45.2566" lon="5.02835">
        <ele>249.65</ele>
        <time>2017-02-25T13:37:14Z</time>
      </trkpt>
      <trkpt lat="45.25661" lon="5.02838">
        <ele>249.66</ele>
        <time>2017-02-25T13:37:15Z</time>
      </trkpt>
      <trkpt lat="45.25662" lon="5.02841">
        <ele>249.67</ele>
        <time>2017-02-25T13:37:16Z</time>
      </trkpt>
      <trkpt lat="45.25663" lon="5.02842">
        <ele>249.67</ele>
        <time>2017-02-25T13:37:17Z</time>
      </trkpt>
      <trkpt lat="45.25664" lon="5.02843">
        <ele>249.67</ele>
        <time>2017-02-25T13:37:18Z</time>
      </trkpt>
      <trkpt lat="45.25664" lon="5.02843">
        <ele>249.67</ele>
        <time>2017-02-25T13:37:19Z</time>
      </trkpt>
      <trkpt lat="45.25664" lon="5.02843">
        <ele>249.67</ele>
        <time>2017-02-25T13:37:20Z</time>
      </trkpt>
      <trkpt lat="45.25664" lon="5.02843">
        <ele>249.67</ele>
        <time>2017-02-25T13:37:21Z</time>
      </trkpt>
      <trkpt lat="45.25664" lon="5.02843">
        <ele>249.67</ele>
        <time>2017-02-25T13:37:22Z</time>
      </trkpt>
      <trkpt lat="45.25664" lon="5.02843">
        <ele>249.67</ele>
        <time>2017-02-25T13:37:23Z</time>
      </trkpt>
      <trkpt lat="45.25664" lon="5.02843">
        <ele>249.67</ele>
        <time>2017-02-25T13:37:24Z</time>
      </trkpt>
      <trkpt lat="45.25664" lon="5.02843">
        <ele>249.67</ele>
        <time>2017-02-25T13:37:25Z</time>
      </trkpt>
      <trkpt lat="45.25664" lon="5.02843">
        <ele>249.67</ele>
        <time>2017-02-25T13:37:26Z</time>
      </trkpt>
      <trkpt lat="45.25664" lon="5.02843">
        <ele>249.67</ele>
        <time>2017-02-25T13:37:27Z</time>
      </trkpt>
      <trkpt lat="45.25664" lon="5.02843">
        <ele>249.67</ele>
        <time>2017-02-25T13:37:28Z</time>
      </trkpt>
      <trkpt lat="45.25664" lon="5.02843">
        <ele>249.67</ele>
        <time>2017-02-25T13:37:29Z</time>
      </trkpt>
      <trkpt lat="45.25664" lon="5.02843">
        <ele>249.67</ele>
        <time>2017-02-25T13:37:30Z</time>
      </trkpt>
      <trkpt lat="45.25664" lon="5.02843">
        <ele>249.67</ele>
        <time>2017-02-25T13:37:31Z</time>
      </trkpt>
      <trkpt lat="45.25664" lon="5.02843">
        <ele>249.67</ele>
        <time>2017-02-25T13:37:32Z</time>
      </trkpt>
      <trkpt lat="45.25664" lon="5.02843">
        <ele>249.67</ele>
        <time>2017-02-25T13:37:33Z</time>
      </trkpt>
      <trkpt lat="45.25664" lon="5.02843">
        <ele>249.67</ele>
        <time>2017-02-25T13:37:34Z</time>
      </trkpt>
      <trkpt lat="45.25664" lon="5.02843">
        <ele>249.67</ele>
        <time>2017-02-25T13:37:35Z</time>
      </trkpt>
      <trkpt lat="45.25664" lon="5.02843">
        <ele>249.67</ele>
        <time>2017-02-25T13:37:36Z</time>
      </trkpt>
      <trkpt lat="45.25664" lon="5.02843">
        <ele>249.67</ele>
        <time>2017-02-25T13:37:37Z</time>
      </trkpt>
      <trkpt lat="45.25664" lon="5.02843">
        <ele>249.67</ele>
        <time>2017-02-25T13:37:38Z</time>
      </trkpt>
      <trkpt lat="45.25664" lon="5.02843">
        <ele>249.67</ele>
        <time>2017-02-25T13:37:39Z</time>
      </trkpt>
      <trkpt lat="45.25664" lon="5.02843">
        <ele>249.67</ele>
        <time>2017-02-25T13:37:40Z</time>
      </trkpt>
      <trkpt lat="45.25664" lon="5.02843">
        <ele>249.67</ele>
        <time>2017-02-25T13:37:41Z</time>
      </trkpt>
      <trkpt lat="45.25664" lon="5.02843">
        <ele>249.67</ele>
        <time>2017-02-25T13:37:42Z</time>
      </trkpt>
      <trkpt lat="45.25664" lon="5.02843">
        <ele>249.67</ele>
        <time>2017-02-25T13:37:43Z</time>
      </trkpt>
      <trkpt lat="45.25664" lon="5.02843">
        <ele>249.67</ele>
        <time>2017-02-25T13:37:44Z</time>
      </trkpt>
      <trkpt lat="45.25664" lon="5.02843">
        <ele>249.67</ele>
        <time>2017-02-25T13:37:45Z</time>
      </trkpt>
      <trkpt lat="45.25664" lon="5.02843">
        <ele>249.67</ele>
        <time>2017-02-25T13:37:46Z</time>
      </trkpt>
      <trkpt lat="45.25664" lon="5.02843">
        <ele>249.67</ele>
        <time>2017-02-25T13:37:47Z</time>
      </trkpt>
      <trkpt lat="45.25664" lon="5.02843">
        <ele>249.67</ele>
        <time>2017-02-25T13:37:48Z</time>
      </trkpt>
      <trkpt lat="45.25664" lon="5.02843">
        <ele>249.67</ele>
        <time>2017-02-25T13:37:49Z</time>
      </trkpt>
      <trkpt lat="45.25664" lon="5.02843">
        <ele>249.67</ele>
        <time>2017-02-25T13:37:50Z</time>
      </trkpt>
      <trkpt lat="45.25664" lon="5.02843">
        <ele>249.67</ele>
        <time>2017-02-25T13:37:51Z</time>
      </trkpt>
      <trkpt lat="45.25664" lon="5.02843">
        <ele>249.67</ele>
        <time>2017-02-25T13:37:52Z</time>
      </trkpt>
      <trkpt lat="45.25664" lon="5.02843">
        <ele>249.67</ele>
        <time>2017-02-25T13:37:53Z</time>
      </trkpt>
      <trkpt lat="45.25664" lon="5.02843">
        <ele>249.67</ele>
        <time>2017-02-25T13:37:54Z</time>
      </trkpt>
      <trkpt lat="45.25664" lon="5.02843">
        <ele>249.67</ele>
        <time>2017-02-25T13:37:55Z</time>
      </trkpt>
      <trkpt lat="45.25664" lon="5.02843">
        <ele>249.67</ele>
        <time>2017-02-25T13:37:56Z</time>
      </trkpt>
      <trkpt lat="45.25664" lon="5.02843">
        <ele>249.67</ele>
        <time>2017-02-25T13:37:57Z</time>
      </trkpt>
      <trkpt lat="45.25664" lon="5.02843">
        <ele>249.67</ele>
        <time>2017-02-25T13:37:58Z</time>
      </trkpt>
      <trkpt lat="45.25664" lon="5.02843">
        <ele>249.67</ele>
        <time>2017-02-25T13:37:59Z</time>
      </trkpt>
      <trkpt lat="45.25664" lon="5.02843">
        <ele>249.67</ele>
        <time>2017-02-25T13:38:00Z</time>
      </trkpt>
      <trkpt lat="45.25664" lon="5.02843">
        <ele>249.67</ele>
        <time>2017-02-25T13:38:01Z</time>
      </trkpt>
      <trkpt lat="45.25664" lon="5.02843">
        <ele>249.67</ele>
        <time>2017-02-25T13:38:02Z</time>
      </trkpt>
      <trkpt lat="45.25664" lon="5.02843">
        <ele>249.67</ele>
        <time>2017-02-25T13:38:03Z</time>
      </trkpt>
      <trkpt lat="45.25664" lon="5.02843">
        <ele>249.67</ele>
        <time>2017-02-25T13:38:04Z</time>
      </trkpt>
      <trkpt lat="45.25664" lon="5.02843">
        <ele>249.67</ele>
        <time>2017-02-25T13:38:05Z</time>
      </trkpt>
      <trkpt lat="45.25664" lon="5.02843">
        <ele>249.67</ele>
        <time>2017-02-25T13:38:06Z</time>
      </trkpt>
      <trkpt lat="45.25664" lon="5.02843">
        <ele>249.67</ele>
        <time>2017-02-25T13:38:07Z</time>
      </trkpt>
      <trkpt lat="45.25664" lon="5.02843">
        <ele>249.67</ele>
        <time>2017-02-25T13:38:08Z</time>
      </trkpt>
      <trkpt lat="45.25664" lon="5.02843">
        <ele>249.67</ele>
        <time>2017-02-25T13:38:09Z</time>
      </trkpt>
      <trkpt lat="45.25664" lon="5.02843">
        <ele>249.67</ele>
        <time>2017-02-25T13:38:10Z</time>
      </trkpt>
      <trkpt lat="45.25664" lon="5.02843">
        <ele>249.67</ele>
        <time>2017-02-25T13:38:11Z</time>
      </trkpt>
      <trkpt lat="45.25664" lon="5.02843">
        <ele>249.67</ele>
        <time>2017-02-25T13:38:12Z</time>
      </trkpt>
      <trkpt lat="45.25664" lon="5.02843">
        <ele>249.67</ele>
        <time>2017-02-25T13:38:13Z</time>
      </trkpt>
      <trkpt lat="45.25664" lon="5.02843">
        <ele>249.67</ele>
        <time>2017-02-25T13:38:14Z</time>
      </trkpt>
      <trkpt lat="45.25664" lon="5.02843">
        <ele>249.67</ele>
        <time>2017-02-25T13:38:15Z</time>
      </trkpt>
      <trkpt lat="45.25664" lon="5.02843">
        <ele>249.67</ele>
        <time>2017-02-25T13:38:16Z</time>
      </trkpt>
      <trkpt lat="45.25664" lon="5.02843">
        <ele>249.67</ele>
        <time>2017-02-25T13:38:17Z</time>
      </trkpt>
      <trkpt lat="45.25664" lon="5.02843">
        <ele>249.67</ele>
        <time>2017-02-25T13:38:18Z</time>
      </trkpt>
      <trkpt lat="45.25664" lon="5.02843">
        <ele>249.67</ele>
        <time>2017-02-25T13:38:19Z</time>
      </trkpt>
      <trkpt lat="45.25664" lon="5.02843">
        <ele>249.67</ele>
        <time>2017-02-25T13:38:20Z</time>
      </trkpt>
      <trkpt lat="45.25664" lon="5.02843">
        <ele>249.67</ele>
        <time>2017-02-25T13:38:21Z</time>
      </trkpt>
      <trkpt lat="45.25664" lon="5.02843">
        <ele>249.67</ele>
        <time>2017-02-25T13:38:22Z</time>
      </trkpt>
      <trkpt lat="45.25664" lon="5.02843">
        <ele>249.67</ele>
        <time>2017-02-25T13:38:23Z</time>
      </trkpt>
      <trkpt lat="45.25664" lon="5.02843">
        <ele>249.67</ele>
        <time>2017-02-25T13:38:24Z</time>
      </trkpt>
      <trkpt lat="45.25664" lon="5.02843">
        <ele>249.67</ele>
        <time>2017-02-25T13:38:25Z</time>
      </trkpt>
      <trkpt lat="45.25664" lon="5.02843">
        <ele>249.67</ele>
        <time>2017-02-25T13:38:26Z</time>
      </trkpt>
      <trkpt lat="45.25664" lon="5.02843">
        <ele>249.67</ele>
        <time>2017-02-25T13:38:27Z</time>
      </trkpt>
      <trkpt lat="45.25664" lon="5.02843">
        <ele>249.67</ele>
        <time>2017-02-25T13:38:28Z</time>
      </trkpt>
      <trkpt lat="45.25664" lon="5.02843">
        <ele>249.67</ele>
        <time>2017-02-25T13:38:29Z</time>
      </trkpt>
      <trkpt lat="45.25664" lon="5.02843">
        <ele>249.67</ele>
        <time>2017-02-25T13:38:30Z</time>
      </trkpt>
      <trkpt lat="45.25664" lon="5.02843">
        <ele>249.67</ele>
        <time>2017-02-25T13:38:31Z</time>
      </trkpt>
      <trkpt lat="45.25664" lon="5.02843">
        <ele>249.67</ele>
        <time>2017-02-25T13:38:32Z</time>
      </trkpt>
      <trkpt lat="45.25664" lon="5.02843">
        <ele>249.67</ele>
        <time>2017-02-25T13:38:33Z</time>
      </trkpt>
      <trkpt lat="45.25664" lon="5.02843">
        <ele>249.67</ele>
        <time>2017-02-25T13:38:34Z</time>
      </trkpt>
      <trkpt lat="45.25664" lon="5.02843">
        <ele>249.67</ele>
        <time>2017-02-25T13:38:35Z</time>
      </trkpt>
      <trkpt lat="45.25664" lon="5.02843">
        <ele>249.67</ele>
        <time>2017-02-25T13:38:36Z</time>
      </trkpt>
      <trkpt lat="45.25664" lon="5.02843">
        <ele>249.67</ele>
        <time>2017-02-25T13:38:37Z</time>
      </trkpt>
      <trkpt lat="45.25664" lon="5.02843">
        <ele>249.67</ele>
        <time>2017-02-25T13:38:38Z</time>
      </trkpt>
      <trkpt lat="45.25664" lon="5.02843">
        <ele>249.67</ele>
        <time>2017-02-25T13:38:39Z</time>
      </trkpt>
      <trkpt lat="45.25664" lon="5.02843">
        <ele>249.67</ele>
        <time>2017-02-25T13:38:40Z</time>
      </trkpt>
      <trkpt lat="45.25664" lon="5.02843">
        <ele>249.67</ele>
        <time>2017-02-25T13:38:41Z</time>
      </trkpt>
      <trkpt lat="45.25664" lon="5.02843">
        <ele>249.67</ele>
        <time>2017-02-25T13:38:42Z</time>
      </trkpt>
      <trkpt lat="45.25664" lon="5.02843">
        <ele>249.67</ele>
        <time>2017-02-25T13:38:43Z</time>
      </trkpt>
      <trkpt lat="45.25664" lon="5.02843">
        <ele>249.67</ele>
        <time>2017-02-25T13:38:44Z</time>
      </trkpt>
      <trkpt lat="45.25664" lon="5.02843">
        <ele>249.67</ele>
        <time>2017-02-25T13:38:45Z</time>
      </trkpt>
      <trkpt lat="45.25664" lon="5.02843">
        <ele>249.67</ele>
        <time>2017-02-25T13:38:46Z</time>
      </trkpt>
      <trkpt lat="45.25664" lon="5.02843">
        <ele>249.67</ele>
        <time>2017-02-25T13:38:47Z</time>
      </trkpt>
      <trkpt lat="45.25664" lon="5.02843">
        <ele>249.67</ele>
        <time>2017-02-25T13:38:48Z</time>
      </trkpt>
      <trkpt lat="45.25664" lon="5.02843">
        <ele>249.67</ele>
        <time>2017-02-25T13:38:49Z</time>
      </trkpt>
      <trkpt lat="45.25664" lon="5.02843">
        <ele>249.67</ele>
        <time>2017-02-25T13:38:50Z</time>
      </trkpt>
      <trkpt lat="45.25664" lon="5.02843">
        <ele>249.67</ele>
        <time>2017-02-25T13:38:51Z</time>
      </trkpt>
      <trkpt lat="45.25664" lon="5.02843">
        <ele>249.67</ele>
        <time>2017-02-25T13:38:52Z</time>
      </trkpt>
      <trkpt lat="45.25664" lon="5.02843">
        <ele>249.67</ele>
        <time>2017-02-25T13:38:53Z</time>
      </trkpt>
      <trkpt lat="45.25664" lon="5.02843">
        <ele>249.67</ele>
        <time>2017-02-25T13:38:54Z</time>
      </trkpt>
      <trkpt lat="45.25664" lon="5.02843">
        <ele>249.67</ele>
        <time>2017-02-25T13:38:55Z</time>
      </trkpt>
      <trkpt lat="45.25664" lon="5.02843">
        <ele>249.67</ele>
        <time>2017-02-25T13:38:56Z</time>
      </trkpt>
      <trkpt lat="45.25664" lon="5.02843">
        <ele>249.67</ele>
        <time>2017-02-25T13:38:57Z</time>
      </trkpt>
      <trkpt lat="45.25664" lon="5.02843">
        <ele>249.67</ele>
        <time>2017-02-25T13:38:58Z</time>
      </trkpt>
      <trkpt lat="45.25664" lon="5.02843">
        <ele>249.67</ele>
        <time>2017-02-25T13:38:59Z</time>
      </trkpt>
      <trkpt lat="45.25664" lon="5.02843">
        <ele>249.67</ele>
        <time>2017-02-25T13:39:00Z</time>
      </trkpt>
      <trkpt lat="45.25664" lon="5.02843">
        <ele>249.67</ele>
        <time>2017-02-25T13:39:01Z</time>
      </trkpt>
      <trkpt lat="45.25664" lon="5.02843">
        <ele>249.67</ele>
        <time>2017-02-25T13:39:02Z</time>
      </trkpt>
      <trkpt lat="45.25664" lon="5.02843">
        <ele>249.67</ele>
        <time>2017-02-25T13:39:03Z</time>
      </trkpt>
      <trkpt lat="45.25664" lon="5.02843">
        <ele>249.67</ele>
        <time>2017-02-25T13:39:04Z</time>
      </trkpt>
      <trkpt lat="45.25664" lon="5.02843">
        <ele>249.67</ele>
        <time>2017-02-25T13:39:05Z</time>
      </trkpt>
      <trkpt lat="45.25664" lon="5.02843">
        <ele>249.67</ele>
        <time>2017-02-25T13:39:06Z</time>
      </trkpt>
      <trkpt lat="45.25664" lon="5.02843">
        <ele>249.67</ele>
        <time>2017-02-25T13:39:07Z</time>
      </trkpt>
      <trkpt lat="45.25664" lon="5.02843">
        <ele>249.67</ele>
        <time>2017-02-25T13:39:08Z</time>
      </trkpt>
      <trkpt lat="45.25664" lon="5.02843">
        <ele>249.67</ele>
        <time>2017-02-25T13:39:09Z</time>
      </trkpt>
      <trkpt lat="45.25664" lon="5.02843">
        <ele>249.67</ele>
        <time>2017-02-25T13:39:10Z</time>
      </trkpt>
      <trkpt lat="45.25664" lon="5.02843">
        <ele>249.67</ele>
        <time>2017-02-25T13:39:11Z</time>
      </trkpt>
      <trkpt lat="45.25664" lon="5.02843">
        <ele>249.67</ele>
        <time>2017-02-25T13:39:12Z</time>
      </trkpt>
      <trkpt lat="45.25664" lon="5.02843">
        <ele>249.67</ele>
        <time>2017-02-25T13:39:13Z</time>
      </trkpt>
      <trkpt lat="45.25664" lon="5.02843">
        <ele>249.67</ele>
        <time>2017-02-25T13:39:14Z</time>
      </trkpt>
      <trkpt lat="45.25664" lon="5.02843">
        <ele>249.67</ele>
        <time>2017-02-25T13:39:15Z</time>
      </trkpt>
      <trkpt lat="45.25664" lon="5.02843">
        <ele>249.67</ele>
        <time>2017-02-25T13:39:16Z</time>
      </trkpt>
      <trkpt lat="45.25664" lon="5.02843">
        <ele>249.67</ele>
        <time>2017-02-25T13:39:17Z</time>
      </trkpt>
      <trkpt lat="45.25664" lon="5.02843">
        <ele>249.67</ele>
        <time>2017-02-25T13:39:18Z</time>
      </trkpt>
      <trkpt lat="45.25664" lon="5.02843">
        <ele>249.67</ele>
        <time>2017-02-25T13:39:19Z</time>
      </trkpt>
      <trkpt lat="45.25664" lon="5.02843">
        <ele>249.67</ele>
        <time>2017-02-25T13:39:20Z</time>
      </trkpt>
      <trkpt lat="45.25664" lon="5.02843">
        <ele>249.67</ele>
        <time>2017-02-25T13:39:21Z</time>
      </trkpt>
      <trkpt lat="45.25664" lon="5.02843">
        <ele>249.67</ele>
        <time>2017-02-25T13:39:22Z</time>
      </trkpt>
      <trkpt lat="45.25664" lon="5.02843">
        <ele>249.67</ele>
        <time>2017-02-25T13:39:23Z</time>
      </trkpt>
      <trkpt lat="45.25664" lon="5.02843">
        <ele>249.67</ele>
        <time>2017-02-25T13:39:24Z</time>
      </trkpt>
      <trkpt lat="45.25664" lon="5.02843">
        <ele>249.67</ele>
        <time>2017-02-25T13:39:25Z</time>
      </trkpt>
      <trkpt lat="45.25664" lon="5.02843">
        <ele>249.67</ele>
        <time>2017-02-25T13:39:26Z</time>
      </trkpt>
      <trkpt lat="45.25664" lon="5.02843">
        <ele>249.67</ele>
        <time>2017-02-25T13:39:27Z</time>
      </trkpt>
      <trkpt lat="45.25664" lon="5.02843">
        <ele>249.67</ele>
        <time>2017-02-25T13:39:28Z</time>
      </trkpt>
      <trkpt lat="45.25664" lon="5.02843">
        <ele>249.67</ele>
        <time>2017-02-25T13:39:29Z</time>
      </trkpt>
      <trkpt lat="45.25664" lon="5.02843">
        <ele>249.67</ele>
        <time>2017-02-25T13:39:30Z</time>
      </trkpt>
      <trkpt lat="45.25664" lon="5.02843">
        <ele>249.67</ele>
        <time>2017-02-25T13:39:31Z</time>
      </trkpt>
      <trkpt lat="45.25664" lon="5.02843">
        <ele>249.67</ele>
        <time>2017-02-25T13:39:32Z</time>
      </trkpt>
      <trkpt lat="45.25664" lon="5.02843">
        <ele>249.67</ele>
        <time>2017-02-25T13:39:33Z</time>
      </trkpt>
      <trkpt lat="45.25664" lon="5.02843">
        <ele>249.67</ele>
        <time>2017-02-25T13:39:34Z</time>
      </trkpt>
      <trkpt lat="45.25664" lon="5.02843">
        <ele>249.67</ele>
        <time>2017-02-25T13:39:35Z</time>
      </trkpt>
      <trkpt lat="45.25664" lon="5.02843">
        <ele>249.67</ele>
        <time>2017-02-25T13:39:36Z</time>
      </trkpt>
      <trkpt lat="45.25664" lon="5.02843">
        <ele>249.67</ele>
        <time>2017-02-25T13:39:37Z</time>
      </trkpt>
      <trkpt lat="45.25664" lon="5.02843">
        <ele>249.67</ele>
        <time>2017-02-25T13:39:38Z</time>
      </trkpt>
      <trkpt lat="45.25664" lon="5.02843">
        <ele>249.67</ele>
        <time>2017-02-25T13:39:39Z</time>
      </trkpt>
      <trkpt lat="45.25664" lon="5.02843">
        <ele>249.67</ele>
        <time>2017-02-25T13:39:40Z</time>
      </trkpt>
      <trkpt lat="45.25664" lon="5.02843">
        <ele>249.67</ele>
        <time>2017-02-25T13:39:41Z</time>
      </trkpt>
      <trkpt lat="45.25664" lon="5.02843">
        <ele>249.67</ele>
        <time>2017-02-25T13:39:42Z</time>
      </trkpt>
      <trkpt lat="45.25664" lon="5.02843">
        <ele>249.67</ele>
        <time>2017-02-25T13:39:43Z</time>
      </trkpt>
      <trkpt lat="45.25664" lon="5.02843">
        <ele>249.67</ele>
        <time>2017-02-25T13:39:44Z</time>
      </trkpt>
      <trkpt lat="45.25664" lon="5.02843">
        <ele>249.67</ele>
        <time>2017-02-25T13:39:45Z</time>
      </trkpt>
      <trkpt lat="45.25664" lon="5.02843">
        <ele>249.67</ele>
        <time>2017-02-25T13:39:46Z</time>
      </trkpt>
      <trkpt lat="45.25664" lon="5.02843">
        <ele>249.67</ele>
        <time>2017-02-25T13:39:47Z</time>
      </trkpt>
      <trkpt lat="45.25664" lon="5.02843">
        <ele>249.67</ele>
        <time>2017-02-25T13:39:48Z</time>
      </trkpt>
      <trkpt lat="45.25664" lon="5.02843">
        <ele>249.67</ele>
        <time>2017-02-25T13:39:49Z</time>
      </trkpt>
      <trkpt lat="45.25664" lon="5.02843">
        <ele>249.67</ele>
        <time>2017-02-25T13:39:50Z</time>
      </trkpt>
      <trkpt lat="45.25664" lon="5.02843">
        <ele>249.67</ele>
        <time>2017-02-25T13:39:51Z</time>
      </trkpt>
      <trkpt lat="45.25664" lon="5.02843">
        <ele>249.67</ele>
        <time>2017-02-25T13:39:52Z</time>
      </trkpt>
      <trkpt lat="45.25664" lon="5.02843">
        <ele>249.67</ele>
        <time>2017-02-25T13:39:53Z</time>
      </trkpt>
      <trkpt lat="45.25664" lon="5.02843">
        <ele>249.67</ele>
        <time>2017-02-25T13:39:54Z</time>
      </trkpt>
      <trkpt lat="45.25664" lon="5.02843">
        <ele>249.67</ele>
        <time>2017-02-25T13:39:55Z</time>
      </trkpt>
      <trkpt lat="45.25664" lon="5.02843">
        <ele>249.67</ele>
        <time>2017-02-25T13:39:56Z</time>
      </trkpt>
      <trkpt lat="45.25664" lon="5.02843">
        <ele>249.67</ele>
        <time>2017-02-25T13:39:57Z</time>
      </trkpt>
      <trkpt lat="45.25664" lon="5.02843">
        <ele>249.67</ele>
        <time>2017-02-25T13:39:58Z</time>
      </trkpt>
      <trkpt lat="45.25664" lon="5.02843">
        <ele>249.67</ele>
        <time>2017-02-25T13:39:59Z</time>
      </trkpt>
      <trkpt lat="45.25664" lon="5.02843">
        <ele>249.67</ele>
        <time>2017-02-25T13:40:00Z</time>
      </trkpt>
      <trkpt lat="45.25664" lon="5.02843">
        <ele>249.67</ele>
        <time>2017-02-25T13:40:01Z</time>
      </trkpt>
      <trkpt lat="45.25664" lon="5.02843">
        <ele>249.67</ele>
        <time>2017-02-25T13:40:02Z</time>
      </trkpt>
      <trkpt lat="45.25664" lon="5.02843">
        <ele>249.67</ele>
        <time>2017-02-25T13:40:03Z</time>
      </trkpt>
      <trkpt lat="45.25664" lon="5.02843">
        <ele>249.67</ele>
        <time>2017-02-25T13:40:04Z</time>
      </trkpt>
      <trkpt lat="45.25664" lon="5.02843">
        <ele>249.67</ele>
        <time>2017-02-25T13:40:05Z</time>
      </trkpt>
      <trkpt lat="45.25664" lon="5.02843">
        <ele>249.67</ele>
        <time>2017-02-25T13:40:06Z</time>
      </trkpt>
      <trkpt lat="45.25664" lon="5.02843">
        <ele>249.67</ele>
        <time>2017-02-25T13:40:07Z</time>
      </trkpt>
      <trkpt lat="45.25664" lon="5.02843">
        <ele>249.67</ele>
        <time>2017-02-25T13:40:08Z</time>
      </trkpt>
      <trkpt lat="45.25664" lon="5.02843">
        <ele>249.67</ele>
        <time>2017-02-25T13:40:09Z</time>
      </trkpt>
      <trkpt lat="45.25664" lon="5.02843">
        <ele>249.67</ele>
        <time>2017-02-25T13:40:10Z</time>
      </trkpt>
      <trkpt lat="45.25664" lon="5.02843">
        <ele>249.67</ele>
        <time>2017-02-25T13:40:11Z</time>
      </trkpt>
      <trkpt lat="45.25664" lon="5.02843">
        <ele>249.67</ele>
        <time>2017-02-25T13:40:12Z</time>
      </trkpt>
      <trkpt lat="45.25664" lon="5.02843">
        <ele>249.67</ele>
        <time>2017-02-25T13:40:13Z</time>
      </trkpt>
      <trkpt lat="45.25664" lon="5.02843">
        <ele>249.67</ele>
        <time>2017-02-25T13:40:14Z</time>
      </trkpt>
      <trkpt lat="45.25664" lon="5.02843">
        <ele>249.67</ele>
        <time>2017-02-25T13:40:15Z</time>
      </trkpt>
      <trkpt lat="45.25664" lon="5.02843">
        <ele>249.67</ele>
        <time>2017-02-25T13:40:16Z</time>
      </trkpt>
      <trkpt lat="45.25664" lon="5.02843">
        <ele>249.67</ele>
        <time>2017-02-25T13:40:17Z</time>
      </trkpt>
      <trkpt lat="45.25664" lon="5.02843">
        <ele>249.67</ele>
        <time>2017-02-25T13:40:18Z</time>
      </trkpt>
      <trkpt lat="45.25664" lon="5.02843">
        <ele>249.67</ele>
        <time>2017-02-25T13:40:19Z</time>
      </trkpt>
      <trkpt lat="45.25664" lon="5.02843">
        <ele>249.67</ele>
        <time>2017-02-25T13:40:20Z</time>
      </trkpt>
      <trkpt lat="45.25664" lon="5.02843">
        <ele>249.67</ele>
        <time>2017-02-25T13:40:21Z</time>
      </trkpt>
      <trkpt lat="45.25664" lon="5.02843">
        <ele>249.67</ele>
        <time>2017-02-25T13:40:22Z</time>
      </trkpt>
      <trkpt lat="45.25664" lon="5.02843">
        <ele>249.67</ele>
        <time>2017-02-25T13:40:23Z</time>
      </trkpt>
      <trkpt lat="45.25664" lon="5.02843">
        <ele>249.67</ele>
        <time>2017-02-25T13:40:24Z</time>
      </trkpt>
      <trkpt lat="45.25664" lon="5.02843">
        <ele>249.67</ele>
        <time>2017-02-25T13:40:25Z</time>
      </trkpt>
      <trkpt lat="45.25664" lon="5.02843">
        <ele>249.67</ele>
        <time>2017-02-25T13:40:26Z</time>
      </trkpt>
      <trkpt lat="45.25664" lon="5.02843">
        <ele>249.67</ele>
        <time>2017-02-25T13:40:27Z</time>
      </trkpt>
      <trkpt lat="45.25664" lon="5.02843">
        <ele>249.67</ele>
        <time>2017-02-25T13:40:28Z</time>
      </trkpt>
      <trkpt lat="45.25664" lon="5.02843">
        <ele>249.67</ele>
        <time>2017-02-25T13:40:29Z</time>
      </trkpt>
      <trkpt lat="45.25664" lon="5.02843">
        <ele>249.67</ele>
        <time>2017-02-25T13:40:30Z</time>
      </trkpt>
      <trkpt lat="45.25664" lon="5.02843">
        <ele>249.67</ele>
        <time>2017-02-25T13:40:31Z</time>
      </trkpt>
      <trkpt lat="45.25664" lon="5.02843">
        <ele>249.67</ele>
        <time>2017-02-25T13:40:32Z</time>
      </trkpt>
      <trkpt lat="45.25664" lon="5.02843">
        <ele>249.67</ele>
        <time>2017-02-25T13:40:33Z</time>
      </trkpt>
      <trkpt lat="45.25664" lon="5.02843">
        <ele>249.67</ele>
        <time>2017-02-25T13:40:34Z</time>
      </trkpt>
      <trkpt lat="45.25664" lon="5.02843">
        <ele>249.67</ele>
        <time>2017-02-25T13:40:35Z</time>
      </trkpt>
      <trkpt lat="45.25664" lon="5.02843">
        <ele>249.67</ele>
        <time>2017-02-25T13:40:36Z</time>
      </trkpt>
      <trkpt lat="45.25664" lon="5.02843">
        <ele>249.67</ele>
        <time>2017-02-25T13:40:37Z</time>
      </trkpt>
      <trkpt lat="45.25664" lon="5.02843">
        <ele>249.67</ele>
        <time>2017-02-25T13:40:38Z</time>
      </trkpt>
      <trkpt lat="45.25664" lon="5.02843">
        <ele>249.67</ele>
        <time>2017-02-25T13:40:39Z</time>
      </trkpt>
      <trkpt lat="45.25664" lon="5.02843">
        <ele>249.67</ele>
        <time>2017-02-25T13:40:40Z</time>
      </trkpt>
      <trkpt lat="45.25664" lon="5.02843">
        <ele>249.67</ele>
        <time>2017-02-25T13:40:41Z</time>
      </trkpt>
      <trkpt lat="45.25664" lon="5.02843">
        <ele>249.67</ele>
        <time>2017-02-25T13:40:42Z</time>
      </trkpt>
      <trkpt lat="45.25664" lon="5.02843">
        <ele>249.67</ele>
        <time>2017-02-25T13:40:43Z</time>
      </trkpt>
      <trkpt lat="45.25664" lon="5.02843">
        <ele>249.67</ele>
        <time>2017-02-25T13:40:44Z</time>
      </trkpt>
      <trkpt lat="45.25664" lon="5.02843">
        <ele>249.67</ele>
        <time>2017-02-25T13:40:45Z</time>
      </trkpt>
      <trkpt lat="45.25664" lon="5.02843">
        <ele>249.67</ele>
        <time>2017-02-25T13:40:46Z</time>
      </trkpt>
      <trkpt lat="45.25664" lon="5.02843">
        <ele>249.67</ele>
        <time>2017-02-25T13:40:47Z</time>
      </trkpt>
      <trkpt lat="45.25664" lon="5.02843">
        <ele>249.67</ele>
        <time>2017-02-25T13:40:48Z</time>
      </trkpt>
      <trkpt lat="45.25664" lon="5.02843">
        <ele>249.67</ele>
        <time>2017-02-25T13:40:49Z</time>
      </trkpt>
      <trkpt lat="45.25664" lon="5.02843">
        <ele>249.67</ele>
        <time>2017-02-25T13:40:50Z</time>
      </trkpt>
      <trkpt lat="45.25664" lon="5.02843">
        <ele>249.67</ele>
        <time>2017-02-25T13:40:51Z</time>
      </trkpt>
      <trkpt lat="45.25664" lon="5.02843">
        <ele>249.67</ele>
        <time>2017-02-25T13:40:52Z</time>
      </trkpt>
      <trkpt lat="45.25664" lon="5.02843">
        <ele>249.67</ele>
        <time>2017-02-25T13:40:53Z</time>
      </trkpt>
      <trkpt lat="45.25664" lon="5.02843">
        <ele>249.67</ele>
        <time>2017-02-25T13:40:54Z</time>
      </trkpt>
      <trkpt lat="45.25664" lon="5.02843">
        <ele>249.67</ele>
        <time>2017-02-25T13:40:55Z</time>
      </trkpt>
      <trkpt lat="45.25664" lon="5.02843">
        <ele>249.67</ele>
        <time>2017-02-25T13:40:56Z</time>
      </trkpt>
      <trkpt lat="45.25664" lon="5.02843">
        <ele>249.67</ele>
        <time>2017-02-25T13:40:57Z</time>
      </trkpt>
      <trkpt lat="45.25664" lon="5.02843">
        <ele>249.67</ele>
        <time>2017-02-25T13:40:58Z</time>
      </trkpt>
      <trkpt lat="45.25664" lon="5.02843">
        <ele>249.67</ele>
        <time>2017-02-25T13:40:59Z</time>
      </trkpt>
      <trkpt lat="45.25664" lon="5.02843">
        <ele>249.67</ele>
        <time>2017-02-25T13:41:00Z</time>
      </trkpt>
      <trkpt lat="45.25664" lon="5.02843">
        <ele>249.67</ele>
        <time>2017-02-25T13:41:01Z</time>
      </trkpt>
      <trkpt lat="45.25664" lon="5.02843">
        <ele>249.67</ele>
        <time>2017-02-25T13:41:02Z</time>
      </trkpt>
      <trkpt lat="45.25664" lon="5.02843">
        <ele>249.67</ele>
        <time>2017-02-25T13:41:03Z</time>
      </trkpt>
      <trkpt lat="45.25664" lon="5.02843">
        <ele>249.67</ele>
        <time>2017-02-25T13:41:04Z</time>
      </trkpt>
      <trkpt lat="45.25664" lon="5.02843">
        <ele>249.67</ele>
        <time>2017-02-25T13:41:05Z</time>
      </trkpt>
      <trkpt lat="45.25664" lon="5.02843">
        <ele>249.67</ele>
        <time>2017-02-25T13:41:06Z</time>
      </trkpt>
      <trkpt lat="45.25664" lon="5.02843">
        <ele>249.67</ele>
        <time>2017-02-25T13:41:07Z</time>
      </trkpt>
      <trkpt lat="45.25664" lon="5.02843">
        <ele>249.67</ele>
        <time>2017-02-25T13:41:08Z</time>
      </trkpt>
      <trkpt lat="45.25664" lon="5.02843">
        <ele>249.67</ele>
        <time>2017-02-25T13:41:09Z</time>
      </trkpt>
      <trkpt lat="45.25664" lon="5.02843">
        <ele>249.67</ele>
        <time>2017-02-25T13:41:10Z</time>
      </trkpt>
      <trkpt lat="45.25664" lon="5.02843">
        <ele>249.67</ele>
        <time>2017-02-25T13:41:11Z</time>
      </trkpt>
      <trkpt lat="45.25664" lon="5.02843">
        <ele>249.67</ele>
        <time>2017-02-25T13:41:12Z</time>
      </trkpt>
      <trkpt lat="45.25664" lon="5.02843">
        <ele>249.67</ele>
        <time>2017-02-25T13:41:13Z</time>
      </trkpt>
      <trkpt lat="45.25664" lon="5.02843">
        <ele>249.67</ele>
        <time>2017-02-25T13:41:14Z</time>
      </trkpt>
      <trkpt lat="45.25664" lon="5.02843">
        <ele>249.67</ele>
        <time>2017-02-25T13:41:15Z</time>
      </trkpt>
      <trkpt lat="45.25664" lon="5.02843">
        <ele>249.67</ele>
        <time>2017-02-25T13:41:16Z</time>
      </trkpt>
      <trkpt lat="45.25664" lon="5.02843">
        <ele>249.67</ele>
        <time>2017-02-25T13:41:17Z</time>
      </trkpt>
      <trkpt lat="45.25664" lon="5.02843">
        <ele>249.67</ele>
        <time>2017-02-25T13:41:18Z</time>
      </trkpt>
      <trkpt lat="45.25664" lon="5.02843">
        <ele>249.67</ele>
        <time>2017-02-25T13:41:19Z</time>
      </trkpt>
      <trkpt lat="45.25664" lon="5.02843">
        <ele>249.67</ele>
        <time>2017-02-25T13:41:20Z</time>
      </trkpt>
      <trkpt lat="45.25664" lon="5.02843">
        <ele>249.67</ele>
        <time>2017-02-25T13:41:21Z</time>
      </trkpt>
      <trkpt lat="45.25664" lon="5.02843">
        <ele>249.67</ele>
        <time>2017-02-25T13:41:22Z</time>
      </trkpt>
      <trkpt lat="45.25664" lon="5.02843">
        <ele>249.67</ele>
        <time>2017-02-25T13:41:23Z</time>
      </trkpt>
      <trkpt lat="45.25664" lon="5.02843">
        <ele>249.67</ele>
        <time>2017-02-25T13:41:24Z</time>
      </trkpt>
      <trkpt lat="45.25664" lon="5.02843">
        <ele>249.67</ele>
        <time>2017-02-25T13:41:25Z</time>
      </trkpt>
      <trkpt lat="45.25664" lon="5.02843">
        <ele>249.67</ele>
        <time>2017-02-25T13:41:26Z</time>
      </trkpt>
      <trkpt lat="45.25664" lon="5.02843">
        <ele>249.67</ele>
        <time>2017-02-25T13:41:27Z</time>
      </trkpt>
      <trkpt lat="45.25664" lon="5.02843">
        <ele>249.67</ele>
        <time>2017-02-25T13:41:28Z</time>
      </trkpt>
      <trkpt lat="45.25664" lon="5.02843">
        <ele>249.67</ele>
        <time>2017-02-25T13:41:29Z</time>
      </trkpt>
      <trkpt lat="45.25664" lon="5.02843">
        <ele>249.67</ele>
        <time>2017-02-25T13:41:30Z</time>
      </trkpt>
      <trkpt lat="45.25664" lon="5.02843">
        <ele>249.67</ele>
        <time>2017-02-25T13:41:31Z</time>
      </trkpt>
      <trkpt lat="45.25664" lon="5.02843">
        <ele>249.67</ele>
        <time>2017-02-25T13:41:32Z</time>
      </trkpt>
      <trkpt lat="45.25664" lon="5.02843">
        <ele>249.67</ele>
        <time>2017-02-25T13:41:33Z</time>
      </trkpt>
      <trkpt lat="45.25664" lon="5.02843">
        <ele>249.67</ele>
        <time>2017-02-25T13:41:34Z</time>
      </trkpt>
      <trkpt lat="45.25664" lon="5.02843">
        <ele>249.67</ele>
        <time>2017-02-25T13:41:35Z</time>
      </trkpt>
      <trkpt lat="45.25664" lon="5.02843">
        <ele>249.67</ele>
        <time>2017-02-25T13:41:36Z</time>
      </trkpt>
      <trkpt lat="45.25664" lon="5.02843">
        <ele>249.67</ele>
        <time>2017-02-25T13:41:37Z</time>
      </trkpt>
      <trkpt lat="45.25664" lon="5.02843">
        <ele>249.67</ele>
        <time>2017-02-25T13:41:38Z</time>
      </trkpt>
      <trkpt lat="45.25664" lon="5.02843">
        <ele>249.67</ele>
        <time>2017-02-25T13:41:39Z</time>
      </trkpt>
      <trkpt lat="45.25664" lon="5.02843">
        <ele>249.67</ele>
        <time>2017-02-25T13:41:40Z</time>
      </trkpt>
      <trkpt lat="45.25664" lon="5.02843">
        <ele>249.67</ele>
        <time>2017-02-25T13:41:41Z</time>
      </trkpt>
      <trkpt lat="45.25664" lon="5.02843">
        <ele>249.67</ele>
        <time>2017-02-25T13:41:42Z</time>
      </trkpt>
      <trkpt lat="45.25664" lon="5.02843">
        <ele>249.67</ele>
        <time>2017-02-25T13:41:43Z</time>
      </trkpt>
      <trkpt lat="45.25664" lon="5.02843">
        <ele>249.67</ele>
        <time>2017-02-25T13:41:44Z</time>
      </trkpt>
      <trkpt lat="45.25664" lon="5.02843">
        <ele>249.67</ele>
        <time>2017-02-25T13:41:45Z</time>
      </trkpt>
      <trkpt lat="45.25664" lon="5.02843">
        <ele>249.67</ele>
        <time>2017-02-25T13:41:46Z</time>
      </trkpt>
      <trkpt lat="45.25664" lon="5.02843">
        <ele>249.67</ele>
        <time>2017-02-25T13:41:47Z</time>
      </trkpt>
      <trkpt lat="45.25664" lon="5.02843">
        <ele>249.67</ele>
        <time>2017-02-25T13:41:48Z</time>
      </trkpt>
      <trkpt lat="45.25664" lon="5.02843">
        <ele>249.67</ele>
        <time>2017-02-25T13:41:49Z</time>
      </trkpt>
      <trkpt lat="45.25664" lon="5.02843">
        <ele>249.67</ele>
        <time>2017-02-25T13:41:50Z</time>
      </trkpt>
      <trkpt lat="45.25664" lon="5.02843">
        <ele>249.67</ele>
        <time>2017-02-25T13:41:51Z</time>
      </trkpt>
      <trkpt lat="45.25664" lon="5.02843">
        <ele>249.67</ele>
        <time>2017-02-25T13:41:52Z</time>
      </trkpt>
      <trkpt lat="45.25664" lon="5.02843">
        <ele>249.67</ele>
        <time>2017-02-25T13:41:53Z</time>
      </trkpt>
      <trkpt lat="45.25664" lon="5.02843">
        <ele>249.67</ele>
        <time>2017-02-25T13:41:54Z</time>
      </trkpt>
      <trkpt lat="45.25664" lon="5.02843">
        <ele>249.67</ele>
        <time>2017-02-25T13:41:55Z</time>
      </trkpt>
      <trkpt lat="45.25664" lon="5.02843">
        <ele>249.67</ele>
        <time>2017-02-25T13:41:56Z</time>
      </trkpt>
      <trkpt lat="45.25664" lon="5.02843">
        <ele>249.67</ele>
        <time>2017-02-25T13:41:57Z</time>
      </trkpt>
      <trkpt lat="45.25664" lon="5.02843">
        <ele>249.67</ele>
        <time>2017-02-25T13:41:58Z</time>
      </trkpt>
      <trkpt lat="45.25664" lon="5.02843">
        <ele>249.67</ele>
        <time>2017-02-25T13:41:59Z</time>
      </trkpt>
      <trkpt lat="45.25664" lon="5.02843">
        <ele>249.67</ele>
        <time>2017-02-25T13:42:00Z</time>
      </trkpt>
      <trkpt lat="45.25664" lon="5.02843">
        <ele>249.67</ele>
        <time>2017-02-25T13:42:01Z</time>
      </trkpt>
      <trkpt lat="45.25664" lon="5.02843">
        <ele>249.67</ele>
        <time>2017-02-25T13:42:02Z</time>
      </trkpt>
      <trkpt lat="45.25664" lon="5.02843">
        <ele>249.67</ele>
        <time>2017-02-25T13:42:03Z</time>
      </trkpt>
      <trkpt lat="45.25664" lon="5.02843">
        <ele>249.67</ele>
        <time>2017-02-25T13:42:04Z</time>
      </trkpt>
      <trkpt lat="45.25664" lon="5.02843">
        <ele>249.67</ele>
        <time>2017-02-25T13:42:05Z</time>
      </trkpt>
      <trkpt lat="45.25664" lon="5.02843">
        <ele>249.67</ele>
        <time>2017-02-25T13:42:06Z</time>
      </trkpt>
      <trkpt lat="45.25664" lon="5.02843">
        <ele>249.67</ele>
        <time>2017-02-25T13:42:07Z</time>
      </trkpt>
      <trkpt lat="45.25664" lon="5.02843">
        <ele>249.67</ele>
        <time>2017-02-25T13:42:08Z</time>
      </trkpt>
      <trkpt lat="45.25664" lon="5.02843">
        <ele>249.67</ele>
        <time>2017-02-25T13:42:09Z</time>
      </trkpt>
      <trkpt lat="45.25664" lon="5.02843">
        <ele>249.67</ele>
        <time>2017-02-25T13:42:10Z</time>
      </trkpt>
      <trkpt lat="45.25664" lon="5.02843">
        <ele>249.67</ele>
        <time>2017-02-25T13:42:11Z</time>
      </trkpt>
      <trkpt lat="45.25664" lon="5.02843">
        <ele>249.67</ele>
        <time>2017-02-25T13:42:12Z</time>
      </trkpt>
      <trkpt lat="45.25664" lon="5.02843">
        <ele>249.67</ele>
        <time>2017-02-25T13:42:13Z</time>
      </trkpt>
      <trkpt lat="45.25664" lon="5.02843">
        <ele>249.67</ele>
        <time>2017-02-25T13:42:14Z</time>
      </trkpt>
      <trkpt lat="45.25664" lon="5.02843">
        <ele>249.67</ele>
        <time>2017-02-25T13:42:15Z</time>
      </trkpt>
      <trkpt lat="45.25664" lon="5.02843">
        <ele>249.67</ele>
        <time>2017-02-25T13:42:16Z</time>
      </trkpt>
      <trkpt lat="45.25664" lon="5.02843">
        <ele>249.67</ele>
        <time>2017-02-25T13:42:17Z</time>
      </trkpt>
      <trkpt lat="45.25664" lon="5.02843">
        <ele>249.67</ele>
        <time>2017-02-25T13:42:18Z</time>
      </trkpt>
      <trkpt lat="45.25664" lon="5.02843">
        <ele>249.67</ele>
        <time>2017-02-25T13:42:19Z</time>
      </trkpt>
      <trkpt lat="45.25664" lon="5.02843">
        <ele>249.67</ele>
        <time>2017-02-25T13:42:20Z</time>
      </trkpt>
      <trkpt lat="45.25664" lon="5.02843">
        <ele>249.67</ele>
        <time>2017-02-25T13:42:21Z</time>
      </trkpt>
      <trkpt lat="45.25664" lon="5.02843">
        <ele>249.67</ele>
        <time>2017-02-25T13:42:22Z</time>
      </trkpt>
      <trkpt lat="45.25664" lon="5.02843">
        <ele>249.67</ele>
        <time>2017-02-25T13:42:23Z</time>
      </trkpt>
      <trkpt lat="45.25664" lon="5.02843">
        <ele>249.67</ele>
        <time>2017-02-25T13:42:24Z</time>
      </trkpt>
      <trkpt lat="45.25664" lon="5.02843">
        <ele>249.67</ele>
        <time>2017-02-25T13:42:25Z</time>
      </trkpt>
      <trkpt lat="45.25664" lon="5.02843">
        <ele>249.67</ele>
        <time>2017-02-25T13:42:26Z</time>
      </trkpt>
      <trkpt lat="45.25664" lon="5.02843">
        <ele>249.67</ele>
        <time>2017-02-25T13:42:27Z</time>
      </trkpt>
      <trkpt lat="45.25664" lon="5.02843">
        <ele>249.67</ele>
        <time>2017-02-25T13:42:28Z</time>
      </trkpt>
      <trkpt lat="45.25664" lon="5.02843">
        <ele>249.67</ele>
        <time>2017-02-25T13:42:29Z</time>
      </trkpt>
      <trkpt lat="45.25664" lon="5.02843">
        <ele>249.67</ele>
        <time>2017-02-25T13:42:30Z</time>
      </trkpt>
      <trkpt lat="45.25664" lon="5.02843">
        <ele>249.67</ele>
        <time>2017-02-25T13:42:31Z</time>
      </trkpt>
      <trkpt lat="45.25664" lon="5.02843">
        <ele>249.67</ele>
        <time>2017-02-25T13:42:32Z</time>
      </trkpt>
      <trkpt lat="45.25664" lon="5.02843">
        <ele>249.67</ele>
        <time>2017-02-25T13:42:33Z</time>
      </trkpt>
      <trkpt lat="45.25664" lon="5.02843">
        <ele>249.67</ele>
        <time>2017-02-25T13:42:34Z</time>
      </trkpt>
      <trkpt lat="45.25664" lon="5.02843">
        <ele>249.67</ele>
        <time>2017-02-25T13:42:35Z</time>
      </trkpt>
      <trkpt lat="45.25664" lon="5.02843">
        <ele>249.67</ele>
        <time>2017-02-25T13:42:36Z</time>
      </trkpt>
      <trkpt lat="45.25664" lon="5.02843">
        <ele>249.67</ele>
        <time>2017-02-25T13:42:37Z</time>
      </trkpt>
      <trkpt lat="45.25664" lon="5.02843">
        <ele>249.67</ele>
        <time>2017-02-25T13:42:38Z</time>
      </trkpt>
      <trkpt lat="45.25664" lon="5.02843">
        <ele>249.67</ele>
        <time>2017-02-25T13:42:39Z</time>
      </trkpt>
      <trkpt lat="45.25664" lon="5.02843">
        <ele>249.67</ele>
        <time>2017-02-25T13:42:40Z</time>
      </trkpt>
      <trkpt lat="45.25664" lon="5.02843">
        <ele>249.67</ele>
        <time>2017-02-25T13:42:41Z</time>
      </trkpt>
      <trkpt lat="45.25664" lon="5.02843">
        <ele>249.67</ele>
        <time>2017-02-25T13:42:42Z</time>
      </trkpt>
      <trkpt lat="45.25664" lon="5.02843">
        <ele>249.67</ele>
        <time>2017-02-25T13:42:43Z</time>
      </trkpt>
      <trkpt lat="45.25664" lon="5.02843">
        <ele>249.67</ele>
        <time>2017-02-25T13:42:44Z</time>
      </trkpt>
      <trkpt lat="45.25664" lon="5.02843">
        <ele>249.67</ele>
        <time>2017-02-25T13:42:45Z</time>
      </trkpt>
      <trkpt lat="45.25664" lon="5.02843">
        <ele>249.67</ele>
        <time>2017-02-25T13:42:46Z</time>
      </trkpt>
      <trkpt lat="45.25664" lon="5.02843">
        <ele>249.67</ele>
        <time>2017-02-25T13:42:47Z</time>
      </trkpt>
      <trkpt lat="45.25664" lon="5.02843">
        <ele>249.67</ele>
        <time>2017-02-25T13:42:48Z</time>
      </trkpt>
      <trkpt lat="45.25664" lon="5.02843">
        <ele>249.67</ele>
        <time>2017-02-25T13:42:49Z</time>
      </trkpt>
      <trkpt lat="45.25664" lon="5.02843">
        <ele>249.67</ele>
        <time>2017-02-25T13:42:50Z</time>
      </trkpt>
      <trkpt lat="45.25664" lon="5.02843">
        <ele>249.67</ele>
        <time>2017-02-25T13:42:51Z</time>
      </trkpt>
      <trkpt lat="45.25664" lon="5.02843">
        <ele>249.67</ele>
        <time>2017-02-25T13:42:52Z</time>
      </trkpt>
      <trkpt lat="45.25664" lon="5.02843">
        <ele>249.67</ele>
        <time>2017-02-25T13:42:53Z</time>
      </trkpt>
      <trkpt lat="45.25664" lon="5.02843">
        <ele>249.67</ele>
        <time>2017-02-25T13:42:54Z</time>
      </trkpt>
      <trkpt lat="45.25664" lon="5.02843">
        <ele>249.67</ele>
        <time>2017-02-25T13:42:55Z</time>
      </trkpt>
      <trkpt lat="45.25664" lon="5.02843">
        <ele>249.67</ele>
        <time>2017-02-25T13:42:56Z</time>
      </trkpt>
      <trkpt lat="45.25664" lon="5.02843">
        <ele>249.67</ele>
        <time>2017-02-25T13:42:57Z</time>
      </trkpt>
      <trkpt lat="45.25664" lon="5.02843">
        <ele>249.67</ele>
        <time>2017-02-25T13:42:58Z</time>
      </trkpt>
      <trkpt lat="45.25664" lon="5.02843">
        <ele>249.67</ele>
        <time>2017-02-25T13:42:59Z</time>
      </trkpt>
      <trkpt lat="45.25664" lon="5.02843">
        <ele>249.67</ele>
        <time>2017-02-25T13:43:00Z</time>
      </trkpt>
      <trkpt lat="45.25664" lon="5.02843">
        <ele>249.67</ele>
        <time>2017-02-25T13:43:01Z</time>
      </trkpt>
      <trkpt lat="45.25664" lon="5.02843">
        <ele>249.67</ele>
        <time>2017-02-25T13:43:02Z</time>
      </trkpt>
      <trkpt lat="45.25664" lon="5.02843">
        <ele>249.67</ele>
        <time>2017-02-25T13:43:03Z</time>
      </trkpt>
      <trkpt lat="45.25664" lon="5.02843">
        <ele>249.67</ele>
        <time>2017-02-25T13:43:04Z</time>
      </trkpt>
      <trkpt lat="45.25664" lon="5.02843">
        <ele>249.67</ele>
        <time>2017-02-25T13:43:05Z</time>
      </trkpt>
      <trkpt lat="45.25664" lon="5.02843">
        <ele>249.67</ele>
        <time>2017-02-25T13:43:06Z</time>
      </trkpt>
      <trkpt lat="45.25664" lon="5.02843">
        <ele>249.67</ele>
        <time>2017-02-25T13:43:07Z</time>
      </trkpt>
      <trkpt lat="45.25664" lon="5.02843">
        <ele>249.67</ele>
        <time>2017-02-25T13:43:08Z</time>
      </trkpt>
      <trkpt lat="45.25664" lon="5.02843">
        <ele>249.67</ele>
        <time>2017-02-25T13:43:09Z</time>
      </trkpt>
      <trkpt lat="45.25664" lon="5.02843">
        <ele>249.67</ele>
        <time>2017-02-25T13:43:10Z</time>
      </trkpt>
      <trkpt lat="45.25664" lon="5.02843">
        <ele>249.67</ele>
        <time>2017-02-25T13:43:11Z</time>
      </trkpt>
      <trkpt lat="45.25664" lon="5.02843">
        <ele>249.67</ele>
        <time>2017-02-25T13:43:12Z</time>
      </trkpt>
      <trkpt lat="45.25664" lon="5.02843">
        <ele>249.67</ele>
        <time>2017-02-25T13:43:13Z</time>
      </trkpt>
      <trkpt lat="45.25664" lon="5.02843">
        <ele>249.67</ele>
        <time>2017-02-25T13:43:14Z</time>
      </trkpt>
      <trkpt lat="45.25664" lon="5.02843">
        <ele>249.67</ele>
        <time>2017-02-25T13:43:15Z</time>
      </trkpt>
      <trkpt lat="45.25664" lon="5.02843">
        <ele>249.67</ele>
        <time>2017-02-25T13:43:16Z</time>
      </trkpt>
      <trkpt lat="45.25664" lon="5.02843">
        <ele>249.67</ele>
        <time>2017-02-25T13:43:17Z</time>
      </trkpt>
      <trkpt lat="45.25664" lon="5.02843">
        <ele>249.67</ele>
        <time>2017-02-25T13:43:18Z</time>
      </trkpt>
      <trkpt lat="45.25664" lon="5.02843">
        <ele>249.67</ele>
        <time>2017-02-25T13:43:19Z</time>
      </trkpt>
      <trkpt lat="45.25664" lon="5.02843">
        <ele>249.67</ele>
        <time>2017-02-25T13:43:20Z</time>
      </trkpt>
      <trkpt lat="45.25664" lon="5.02843">
        <ele>249.67</ele>
        <time>2017-02-25T13:43:21Z</time>
      </trkpt>
      <trkpt lat="45.25664" lon="5.02843">
        <ele>249.67</ele>
        <time>2017-02-25T13:43:22Z</time>
      </trkpt>
      <trkpt lat="45.25664" lon="5.02843">
        <ele>249.67</ele>
        <time>2017-02-25T13:43:23Z</time>
      </trkpt>
      <trkpt lat="45.25664" lon="5.02843">
        <ele>249.67</ele>
        <time>2017-02-25T13:43:24Z</time>
      </trkpt>
      <trkpt lat="45.25664" lon="5.02843">
        <ele>249.67</ele>
        <time>2017-02-25T13:43:25Z</time>
      </trkpt>
      <trkpt lat="45.25664" lon="5.02843">
        <ele>249.67</ele>
        <time>2017-02-25T13:43:26Z</time>
      </trkpt>
      <trkpt lat="45.25664" lon="5.02843">
        <ele>249.67</ele>
        <time>2017-02-25T13:43:27Z</time>
      </trkpt>
      <trkpt lat="45.25664" lon="5.02843">
        <ele>249.67</ele>
        <time>2017-02-25T13:43:28Z</time>
      </trkpt>
      <trkpt lat="45.25664" lon="5.02843">
        <ele>249.67</ele>
        <time>2017-02-25T13:43:29Z</time>
      </trkpt>
      <trkpt lat="45.25664" lon="5.02843">
        <ele>249.67</ele>
        <time>2017-02-25T13:43:30Z</time>
      </trkpt>
      <trkpt lat="45.25664" lon="5.02843">
        <ele>249.67</ele>
        <time>2017-02-25T13:43:31Z</time>
      </trkpt>
      <trkpt lat="45.25664" lon="5.02843">
        <ele>249.67</ele>
        <time>2017-02-25T13:43:32Z</time>
      </trkpt>
      <trkpt lat="45.25664" lon="5.02843">
        <ele>249.67</ele>
        <time>2017-02-25T13:43:33Z</time>
      </trkpt>
      <trkpt lat="45.25664" lon="5.02843">
        <ele>249.67</ele>
        <time>2017-02-25T13:43:34Z</time>
      </trkpt>
      <trkpt lat="45.25664" lon="5.02843">
        <ele>249.67</ele>
        <time>2017-02-25T13:43:35Z</time>
      </trkpt>
      <trkpt lat="45.25664" lon="5.02843">
        <ele>249.67</ele>
        <time>2017-02-25T13:43:36Z</time>
      </trkpt>
      <trkpt lat="45.25664" lon="5.02843">
        <ele>249.67</ele>
        <time>2017-02-25T13:43:37Z</time>
      </trkpt>
      <trkpt lat="45.25664" lon="5.02843">
        <ele>249.67</ele>
        <time>2017-02-25T13:43:38Z</time>
      </trkpt>
      <trkpt lat="45.25664" lon="5.02843">
        <ele>249.67</ele>
        <time>2017-02-25T13:43:39Z</time>
      </trkpt>
      <trkpt lat="45.25664" lon="5.02843">
        <ele>249.67</ele>
        <time>2017-02-25T13:43:40Z</time>
      </trkpt>
      <trkpt lat="45.25664" lon="5.02843">
        <ele>249.67</ele>
        <time>2017-02-25T13:43:41Z</time>
      </trkpt>
      <trkpt lat="45.25664" lon="5.02843">
        <ele>249.67</ele>
        <time>2017-02-25T13:43:42Z</time>
      </trkpt>
      <trkpt lat="45.25664" lon="5.02843">
        <ele>249.67</ele>
        <time>2017-02-25T13:43:43Z</time>
      </trkpt>
      <trkpt lat="45.25664" lon="5.02843">
        <ele>249.67</ele>
        <time>2017-02-25T13:43:44Z</time>
      </trkpt>
      <trkpt lat="45.25664" lon="5.02843">
        <ele>249.67</ele>
        <time>2017-02-25T13:43:45Z</time>
      </trkpt>
      <trkpt lat="45.25664" lon="5.02843">
        <ele>249.67</ele>
        <time>2017-02-25T13:43:46Z</time>
      </trkpt>
      <trkpt lat="45.25664" lon="5.02843">
        <ele>249.67</ele>
        <time>2017-02-25T13:43:47Z</time>
      </trkpt>
      <trkpt lat="45.25664" lon="5.02843">
        <ele>249.67</ele>
        <time>2017-02-25T13:43:48Z</time>
      </trkpt>
      <trkpt lat="45.25664" lon="5.02843">
        <ele>249.67</ele>
        <time>2017-02-25T13:43:49Z</time>
      </trkpt>
      <trkpt lat="45.25664" lon="5.02843">
        <ele>249.67</ele>
        <time>2017-02-25T13:43:50Z</time>
      </trkpt>
      <trkpt lat="45.25664" lon="5.02843">
        <ele>249.67</ele>
        <time>2017-02-25T13:43:51Z</time>
      </trkpt>
      <trkpt lat="45.25664" lon="5.02843">
        <ele>249.67</ele>
        <time>2017-02-25T13:43:52Z</time>
      </trkpt>
      <trkpt lat="45.25664" lon="5.02843">
        <ele>249.67</ele>
        <time>2017-02-25T13:43:53Z</time>
      </trkpt>
      <trkpt lat="45.25664" lon="5.02843">
        <ele>249.67</ele>
        <time>2017-02-25T13:43:54Z</time>
      </trkpt>
      <trkpt lat="45.25664" lon="5.02843">
        <ele>249.67</ele>
        <time>2017-02-25T13:43:55Z</time>
      </trkpt>
      <trkpt lat="45.25664" lon="5.02843">
        <ele>249.67</ele>
        <time>2017-02-25T13:43:56Z</time>
      </trkpt>
      <trkpt lat="45.25664" lon="5.02843">
        <ele>249.67</ele>
        <time>2017-02-25T13:43:57Z</time>
      </trkpt>
      <trkpt lat="45.25664" lon="5.02843">
        <ele>249.67</ele>
        <time>2017-02-25T13:43:58Z</time>
      </trkpt>
      <trkpt lat="45.25664" lon="5.02843">
        <ele>249.67</ele>
        <time>2017-02-25T13:43:59Z</time>
      </trkpt>
      <trkpt lat="45.25658" lon="5.02832">
        <ele>249.91</ele>
        <time>2017-02-25T13:44:00Z</time>
      </trkpt>
      <trkpt lat="45.25658" lon="5.02831">
        <ele>249.96</ele>
        <time>2017-02-25T13:44:01Z</time>
      </trkpt>
      <trkpt lat="45.25658" lon="5.0283">
        <ele>249.96</ele>
        <time>2017-02-25T13:44:02Z</time>
      </trkpt>
      <trkpt lat="45.25658" lon="5.02829">
        <ele>249.97</ele>
        <time>2017-02-25T13:44:03Z</time>
      </trkpt>
      <trkpt lat="45.25658" lon="5.02829">
        <ele>249.97</ele>
        <time>2017-02-25T13:44:04Z</time>
      </trkpt>
      <trkpt lat="45.25658" lon="5.02829">
        <ele>249.97</ele>
        <time>2017-02-25T13:44:05Z</time>
      </trkpt>
      <trkpt lat="45.25658" lon="5.02829">
        <ele>249.97</ele>
        <time>2017-02-25T13:44:06Z</time>
      </trkpt>
      <trkpt lat="45.25658" lon="5.02829">
        <ele>249.97</ele>
        <time>2017-02-25T13:44:07Z</time>
      </trkpt>
      <trkpt lat="45.25658" lon="5.02829">
        <ele>249.97</ele>
        <time>2017-02-25T13:44:08Z</time>
      </trkpt>
      <trkpt lat="45.25658" lon="5.02829">
        <ele>249.97</ele>
        <time>2017-02-25T13:44:09Z</time>
      </trkpt>
      <trkpt lat="45.25658" lon="5.02829">
        <ele>249.97</ele>
        <time>2017-02-25T13:44:10Z</time>
      </trkpt>
      <trkpt lat="45.25658" lon="5.02816">
        <ele>249.97</ele>
        <time>2017-02-25T13:44:11Z</time>
      </trkpt>
      <trkpt lat="45.25657" lon="5.02815">
        <ele>249.97</ele>
        <time>2017-02-25T13:44:12Z</time>
      </trkpt>
      <trkpt lat="45.25657" lon="5.02815">
        <ele>249.89</ele>
        <time>2017-02-25T13:44:13Z</time>
      </trkpt>
      <trkpt lat="45.25656" lon="5.02814">
        <ele>249.87</ele>
        <time>2017-02-25T13:44:14Z</time>
      </trkpt>
      <trkpt lat="45.25656" lon="5.02814">
        <ele>249.87</ele>
        <time>2017-02-25T13:44:15Z</time>
      </trkpt>
      <trkpt lat="45.25656" lon="5.02814">
        <ele>249.87</ele>
        <time>2017-02-25T13:44:16Z</time>
      </trkpt>
      <trkpt lat="45.25653" lon="5.02813">
        <ele>249.79</ele>
        <time>2017-02-25T13:44:17Z</time>
      </trkpt>
      <trkpt lat="45.25652" lon="5.02812">
        <ele>249.77</ele>
        <time>2017-02-25T13:44:18Z</time>
      </trkpt>
      <trkpt lat="45.25651" lon="5.02812">
        <ele>249.77</ele>
        <time>2017-02-25T13:44:19Z</time>
      </trkpt>
      <trkpt lat="45.25651" lon="5.02812">
        <ele>249.69</ele>
        <time>2017-02-25T13:44:20Z</time>
      </trkpt>
      <trkpt lat="45.25651" lon="5.02812">
        <ele>249.67</ele>
        <time>2017-02-25T13:44:21Z</time>
      </trkpt>
      <trkpt lat="45.25651" lon="5.02812">
        <ele>249.67</ele>
        <time>2017-02-25T13:44:22Z</time>
      </trkpt>
      <trkpt lat="45.25651" lon="5.02812">
        <ele>249.67</ele>
        <time>2017-02-25T13:44:23Z</time>
      </trkpt>
      <trkpt lat="45.25651" lon="5.02812">
        <ele>249.67</ele>
        <time>2017-02-25T13:44:24Z</time>
      </trkpt>
      <trkpt lat="45.25651" lon="5.02812">
        <ele>249.67</ele>
        <time>2017-02-25T13:44:25Z</time>
      </trkpt>
      <trkpt lat="45.25651" lon="5.02812">
        <ele>249.67</ele>
        <time>2017-02-25T13:44:26Z</time>
      </trkpt>
      <trkpt lat="45.25651" lon="5.02812">
        <ele>249.67</ele>
        <time>2017-02-25T13:44:27Z</time>
      </trkpt>
      <trkpt lat="45.25651" lon="5.02812">
        <ele>249.67</ele>
        <time>2017-02-25T13:44:28Z</time>
      </trkpt>
      <trkpt lat="45.25651" lon="5.02812">
        <ele>249.67</ele>
        <time>2017-02-25T13:44:29Z</time>
      </trkpt>
      <trkpt lat="45.25651" lon="5.02812">
        <ele>249.67</ele>
        <time>2017-02-25T13:44:30Z</time>
      </trkpt>
      <trkpt lat="45.25651" lon="5.02812">
        <ele>249.67</ele>
        <time>2017-02-25T13:44:31Z</time>
      </trkpt>
      <trkpt lat="45.25651" lon="5.02812">
        <ele>249.67</ele>
        <time>2017-02-25T13:44:32Z</time>
      </trkpt>
      <trkpt lat="45.25651" lon="5.02812">
        <ele>249.67</ele>
        <time>2017-02-25T13:44:33Z</time>
      </trkpt>
      <trkpt lat="45.25651" lon="5.02812">
        <ele>249.67</ele>
        <time>2017-02-25T13:44:34Z</time>
      </trkpt>
      <trkpt lat="45.25651" lon="5.02812">
        <ele>249.67</ele>
        <time>2017-02-25T13:44:35Z</time>
      </trkpt>
      <trkpt lat="45.25651" lon="5.02812">
        <ele>249.67</ele>
        <time>2017-02-25T13:44:36Z</time>
      </trkpt>
      <trkpt lat="45.25651" lon="5.02812">
        <ele>249.67</ele>
        <time>2017-02-25T13:44:37Z</time>
      </trkpt>
      <trkpt lat="45.25651" lon="5.02812">
        <ele>249.67</ele>
        <time>2017-02-25T13:44:38Z</time>
      </trkpt>
      <trkpt lat="45.25651" lon="5.02812">
        <ele>249.67</ele>
        <time>2017-02-25T13:44:39Z</time>
      </trkpt>
      <trkpt lat="45.25651" lon="5.02812">
        <ele>249.67</ele>
        <time>2017-02-25T13:44:40Z</time>
      </trkpt>
      <trkpt lat="45.25651" lon="5.02812">
        <ele>249.67</ele>
        <time>2017-02-25T13:44:41Z</time>
      </trkpt>
      <trkpt lat="45.25651" lon="5.02812">
        <ele>249.67</ele>
        <time>2017-02-25T13:44:42Z</time>
      </trkpt>
      <trkpt lat="45.25651" lon="5.02812">
        <ele>249.67</ele>
        <time>2017-02-25T13:44:43Z</time>
      </trkpt>
      <trkpt lat="45.25651" lon="5.02812">
        <ele>249.67</ele>
        <time>2017-02-25T13:44:44Z</time>
      </trkpt>
      <trkpt lat="45.25651" lon="5.02812">
        <ele>249.67</ele>
        <time>2017-02-25T13:44:45Z</time>
      </trkpt>
      <trkpt lat="45.25651" lon="5.02812">
        <ele>249.67</ele>
        <time>2017-02-25T13:44:46Z</time>
      </trkpt>
      <trkpt lat="45.25651" lon="5.02812">
        <ele>249.67</ele>
        <time>2017-02-25T13:44:47Z</time>
      </trkpt>
      <trkpt lat="45.25651" lon="5.02812">
        <ele>249.67</ele>
        <time>2017-02-25T13:44:48Z</time>
      </trkpt>
      <trkpt lat="45.25651" lon="5.02812">
        <ele>249.67</ele>
        <time>2017-02-25T13:44:49Z</time>
      </trkpt>
      <trkpt lat="45.25651" lon="5.02812">
        <ele>249.67</ele>
        <time>2017-02-25T13:44:50Z</time>
      </trkpt>
      <trkpt lat="45.25651" lon="5.02812">
        <ele>249.67</ele>
        <time>2017-02-25T13:44:51Z</time>
      </trkpt>
      <trkpt lat="45.25651" lon="5.02812">
        <ele>249.67</ele>
        <time>2017-02-25T13:44:52Z</time>
      </trkpt>
      <trkpt lat="45.25651" lon="5.02812">
        <ele>249.67</ele>
        <time>2017-02-25T13:44:53Z</time>
      </trkpt>
      <trkpt lat="45.25651" lon="5.02812">
        <ele>249.67</ele>
        <time>2017-02-25T13:44:54Z</time>
      </trkpt>
      <trkpt lat="45.25651" lon="5.02812">
        <ele>249.67</ele>
        <time>2017-02-25T13:44:55Z</time>
      </trkpt>
      <trkpt lat="45.25651" lon="5.02812">
        <ele>249.67</ele>
        <time>2017-02-25T13:44:56Z</time>
      </trkpt>
      <trkpt lat="45.25651" lon="5.02812">
        <ele>249.67</ele>
        <time>2017-02-25T13:44:57Z</time>
      </trkpt>
      <trkpt lat="45.25651" lon="5.02812">
        <ele>249.67</ele>
        <time>2017-02-25T13:44:58Z</time>
      </trkpt>
      <trkpt lat="45.25651" lon="5.02812">
        <ele>249.67</ele>
        <time>2017-02-25T13:44:59Z</time>
      </trkpt>
      <trkpt lat="45.25651" lon="5.02812">
        <ele>249.67</ele>
        <time>2017-02-25T13:45:00Z</time>
      </trkpt>
      <trkpt lat="45.25651" lon="5.02812">
        <ele>249.67</ele>
        <time>2017-02-25T13:45:01Z</time>
      </trkpt>
      <trkpt lat="45.25651" lon="5.02812">
        <ele>249.67</ele>
        <time>2017-02-25T13:45:02Z</time>
      </trkpt>
      <trkpt lat="45.25651" lon="5.02812">
        <ele>249.67</ele>
        <time>2017-02-25T13:45:03Z</time>
      </trkpt>
      <trkpt lat="45.25651" lon="5.02812">
        <ele>249.67</ele>
        <time>2017-02-25T13:45:04Z</time>
      </trkpt>
      <trkpt lat="45.25651" lon="5.02812">
        <ele>249.67</ele>
        <time>2017-02-25T13:45:05Z</time>
      </trkpt>
      <trkpt lat="45.25651" lon="5.02812">
        <ele>249.67</ele>
        <time>2017-02-25T13:45:06Z</time>
      </trkpt>
      <trkpt lat="45.25651" lon="5.02812">
        <ele>249.67</ele>
        <time>2017-02-25T13:45:07Z</time>
      </trkpt>
      <trkpt lat="45.25651" lon="5.02812">
        <ele>249.67</ele>
        <time>2017-02-25T13:45:08Z</time>
      </trkpt>
      <trkpt lat="45.25651" lon="5.02812">
        <ele>249.67</ele>
        <time>2017-02-25T13:45:09Z</time>
      </trkpt>
      <trkpt lat="45.25651" lon="5.02812">
        <ele>249.67</ele>
        <time>2017-02-25T13:45:10Z</time>
      </trkpt>
      <trkpt lat="45.25651" lon="5.02812">
        <ele>249.67</ele>
        <time>2017-02-25T13:45:11Z</time>
      </trkpt>
      <trkpt lat="45.25651" lon="5.02812">
        <ele>249.67</ele>
        <time>2017-02-25T13:45:12Z</time>
      </trkpt>
      <trkpt lat="45.25651" lon="5.02812">
        <ele>249.67</ele>
        <time>2017-02-25T13:45:13Z</time>
      </trkpt>
      <trkpt lat="45.25651" lon="5.02812">
        <ele>249.67</ele>
        <time>2017-02-25T13:45:14Z</time>
      </trkpt>
      <trkpt lat="45.25651" lon="5.02812">
        <ele>249.67</ele>
        <time>2017-02-25T13:45:15Z</time>
      </trkpt>
      <trkpt lat="45.25651" lon="5.02812">
        <ele>249.67</ele>
        <time>2017-02-25T13:45:16Z</time>
      </trkpt>
      <trkpt lat="45.25651" lon="5.02812">
        <ele>249.67</ele>
        <time>2017-02-25T13:45:17Z</time>
      </trkpt>
      <trkpt lat="45.25651" lon="5.02812">
        <ele>249.67</ele>
        <time>2017-02-25T13:45:18Z</time>
      </trkpt>
      <trkpt lat="45.25651" lon="5.02812">
        <ele>249.67</ele>
        <time>2017-02-25T13:45:19Z</time>
      </trkpt>
      <trkpt lat="45.25651" lon="5.02812">
        <ele>249.67</ele>
        <time>2017-02-25T13:45:20Z</time>
      </trkpt>
      <trkpt lat="45.25651" lon="5.02812">
        <ele>249.67</ele>
        <time>2017-02-25T13:45:21Z</time>
      </trkpt>
      <trkpt lat="45.25651" lon="5.02812">
        <ele>249.67</ele>
        <time>2017-02-25T13:45:22Z</time>
      </trkpt>
      <trkpt lat="45.25651" lon="5.02812">
        <ele>249.67</ele>
        <time>2017-02-25T13:45:23Z</time>
      </trkpt>
      <trkpt lat="45.25651" lon="5.02812">
        <ele>249.67</ele>
        <time>2017-02-25T13:45:24Z</time>
      </trkpt>
      <trkpt lat="45.25651" lon="5.02812">
        <ele>249.67</ele>
        <time>2017-02-25T13:45:25Z</time>
      </trkpt>
      <trkpt lat="45.25651" lon="5.02812">
        <ele>249.67</ele>
        <time>2017-02-25T13:45:26Z</time>
      </trkpt>
      <trkpt lat="45.25651" lon="5.02812">
        <ele>249.67</ele>
        <time>2017-02-25T13:45:27Z</time>
      </trkpt>
      <trkpt lat="45.25651" lon="5.02812">
        <ele>249.67</ele>
        <time>2017-02-25T13:45:28Z</time>
      </trkpt>
      <trkpt lat="45.25651" lon="5.02812">
        <ele>249.67</ele>
        <time>2017-02-25T13:45:29Z</time>
      </trkpt>
      <trkpt lat="45.25642" lon="5.02815">
        <ele>249.75</ele>
        <time>2017-02-25T13:45:30Z</time>
      </trkpt>
      <trkpt lat="45.25642" lon="5.02815">
        <ele>249.76</ele>
        <time>2017-02-25T13:45:31Z</time>
      </trkpt>
      <trkpt lat="45.25642" lon="5.02815">
        <ele>249.77</ele>
        <time>2017-02-25T13:45:32Z</time>
      </trkpt>
      <trkpt lat="45.25641" lon="5.02816">
        <ele>249.77</ele>
        <time>2017-02-25T13:45:33Z</time>
      </trkpt>
      <trkpt lat="45.25641" lon="5.02816">
        <ele>249.77</ele>
        <time>2017-02-25T13:45:34Z</time>
      </trkpt>
      <trkpt lat="45.25641" lon="5.02816">
        <ele>249.77</ele>
        <time>2017-02-25T13:45:35Z</time>
      </trkpt>
      <trkpt lat="45.25641" lon="5.02816">
        <ele>249.77</ele>
        <time>2017-02-25T13:45:36Z</time>
      </trkpt>
      <trkpt lat="45.25641" lon="5.02816">
        <ele>249.77</ele>
        <time>2017-02-25T13:45:37Z</time>
      </trkpt>
      <trkpt lat="45.25641" lon="5.02816">
        <ele>249.77</ele>
        <time>2017-02-25T13:45:38Z</time>
      </trkpt>
      <trkpt lat="45.25641" lon="5.02816">
        <ele>249.77</ele>
        <time>2017-02-25T13:45:39Z</time>
      </trkpt>
      <trkpt lat="45.25641" lon="5.02816">
        <ele>249.77</ele>
        <time>2017-02-25T13:45:40Z</time>
      </trkpt>
      <trkpt lat="45.25641" lon="5.02816">
        <ele>249.77</ele>
        <time>2017-02-25T13:45:41Z</time>
      </trkpt>
      <trkpt lat="45.25641" lon="5.02816">
        <ele>249.77</ele>
        <time>2017-02-25T13:45:42Z</time>
      </trkpt>
      <trkpt lat="45.25641" lon="5.02816">
        <ele>249.77</ele>
        <time>2017-02-25T13:45:43Z</time>
      </trkpt>
      <trkpt lat="45.25641" lon="5.02816">
        <ele>249.77</ele>
        <time>2017-02-25T13:45:44Z</time>
      </trkpt>
      <trkpt lat="45.25641" lon="5.02816">
        <ele>249.77</ele>
        <time>2017-02-25T13:45:45Z</time>
      </trkpt>
      <trkpt lat="45.25641" lon="5.02816">
        <ele>249.77</ele>
        <time>2017-02-25T13:45:46Z</time>
      </trkpt>
      <trkpt lat="45.25641" lon="5.02816">
        <ele>249.77</ele>
        <time>2017-02-25T13:45:47Z</time>
      </trkpt>
      <trkpt lat="45.25641" lon="5.02816">
        <ele>249.77</ele>
        <time>2017-02-25T13:45:48Z</time>
      </trkpt>
      <trkpt lat="45.25641" lon="5.02816">
        <ele>249.77</ele>
        <time>2017-02-25T13:45:49Z</time>
      </trkpt>
      <trkpt lat="45.25641" lon="5.02816">
        <ele>249.77</ele>
        <time>2017-02-25T13:45:50Z</time>
      </trkpt>
      <trkpt lat="45.25641" lon="5.02816">
        <ele>249.77</ele>
        <time>2017-02-25T13:45:51Z</time>
      </trkpt>
      <trkpt lat="45.25641" lon="5.02816">
        <ele>249.77</ele>
        <time>2017-02-25T13:45:52Z</time>
      </trkpt>
      <trkpt lat="45.25641" lon="5.02816">
        <ele>249.77</ele>
        <time>2017-02-25T13:45:53Z</time>
      </trkpt>
      <trkpt lat="45.25641" lon="5.02816">
        <ele>249.77</ele>
        <time>2017-02-25T13:45:54Z</time>
      </trkpt>
      <trkpt lat="45.25641" lon="5.02816">
        <ele>249.77</ele>
        <time>2017-02-25T13:45:55Z</time>
      </trkpt>
      <trkpt lat="45.25641" lon="5.02816">
        <ele>249.77</ele>
        <time>2017-02-25T13:45:56Z</time>
      </trkpt>
      <trkpt lat="45.25641" lon="5.02816">
        <ele>249.77</ele>
        <time>2017-02-25T13:45:57Z</time>
      </trkpt>
      <trkpt lat="45.25641" lon="5.02816">
        <ele>249.77</ele>
        <time>2017-02-25T13:45:58Z</time>
      </trkpt>
      <trkpt lat="45.25641" lon="5.02816">
        <ele>249.77</ele>
        <time>2017-02-25T13:45:59Z</time>
      </trkpt>
      <trkpt lat="45.25641" lon="5.02816">
        <ele>249.77</ele>
        <time>2017-02-25T13:46:00Z</time>
      </trkpt>
      <trkpt lat="45.25641" lon="5.02816">
        <ele>249.77</ele>
        <time>2017-02-25T13:46:01Z</time>
      </trkpt>
      <trkpt lat="45.25641" lon="5.02816">
        <ele>249.77</ele>
        <time>2017-02-25T13:46:02Z</time>
      </trkpt>
      <trkpt lat="45.25641" lon="5.02816">
        <ele>249.77</ele>
        <time>2017-02-25T13:46:03Z</time>
      </trkpt>
      <trkpt lat="45.25641" lon="5.02816">
        <ele>249.77</ele>
        <time>2017-02-25T13:46:04Z</time>
      </trkpt>
      <trkpt lat="45.25641" lon="5.02816">
        <ele>249.77</ele>
        <time>2017-02-25T13:46:05Z</time>
      </trkpt>
      <trkpt lat="45.25641" lon="5.02816">
        <ele>249.77</ele>
        <time>2017-02-25T13:46:06Z</time>
      </trkpt>
      <trkpt lat="45.25641" lon="5.02816">
        <ele>249.77</ele>
        <time>2017-02-25T13:46:07Z</time>
      </trkpt>
      <trkpt lat="45.25641" lon="5.02816">
        <ele>249.77</ele>
        <time>2017-02-25T13:46:08Z</time>
      </trkpt>
      <trkpt lat="45.25641" lon="5.02816">
        <ele>249.77</ele>
        <time>2017-02-25T13:46:09Z</time>
      </trkpt>
      <trkpt lat="45.25641" lon="5.02816">
        <ele>249.77</ele>
        <time>2017-02-25T13:46:10Z</time>
      </trkpt>
      <trkpt lat="45.25641" lon="5.02816">
        <ele>249.77</ele>
        <time>2017-02-25T13:46:11Z</time>
      </trkpt>
      <trkpt lat="45.25641" lon="5.02816">
        <ele>249.77</ele>
        <time>2017-02-25T13:46:12Z</time>
      </trkpt>
      <trkpt lat="45.25641" lon="5.02816">
        <ele>249.77</ele>
        <time>2017-02-25T13:46:13Z</time>
      </trkpt>
      <trkpt lat="45.25641" lon="5.02816">
        <ele>249.77</ele>
        <time>2017-02-25T13:46:14Z</time>
      </trkpt>
      <trkpt lat="45.25641" lon="5.02816">
        <ele>249.77</ele>
        <time>2017-02-25T13:46:15Z</time>
      </trkpt>
      <trkpt lat="45.25641" lon="5.02816">
        <ele>249.77</ele>
        <time>2017-02-25T13:46:16Z</time>
      </trkpt>
      <trkpt lat="45.25641" lon="5.02816">
        <ele>249.77</ele>
        <time>2017-02-25T13:46:17Z</time>
      </trkpt>
      <trkpt lat="45.25641" lon="5.02816">
        <ele>249.77</ele>
        <time>2017-02-25T13:46:18Z</time>
      </trkpt>
      <trkpt lat="45.25641" lon="5.02816">
        <ele>249.77</ele>
        <time>2017-02-25T13:46:19Z</time>
      </trkpt>
      <trkpt lat="45.25641" lon="5.02816">
        <ele>249.77</ele>
        <time>2017-02-25T13:46:20Z</time>
      </trkpt>
      <trkpt lat="45.25641" lon="5.02816">
        <ele>249.77</ele>
        <time>2017-02-25T13:46:21Z</time>
      </trkpt>
      <trkpt lat="45.25641" lon="5.02816">
        <ele>249.77</ele>
        <time>2017-02-25T13:46:22Z</time>
      </trkpt>
      <trkpt lat="45.25641" lon="5.02816">
        <ele>249.77</ele>
        <time>2017-02-25T13:46:23Z</time>
      </trkpt>
      <trkpt lat="45.25641" lon="5.02816">
        <ele>249.77</ele>
        <time>2017-02-25T13:46:24Z</time>
      </trkpt>
      <trkpt lat="45.25641" lon="5.02816">
        <ele>249.77</ele>
        <time>2017-02-25T13:46:25Z</time>
      </trkpt>
      <trkpt lat="45.25641" lon="5.02816">
        <ele>249.77</ele>
        <time>2017-02-25T13:46:26Z</time>
      </trkpt>
      <trkpt lat="45.25641" lon="5.02816">
        <ele>249.77</ele>
        <time>2017-02-25T13:46:27Z</time>
      </trkpt>
      <trkpt lat="45.25641" lon="5.02816">
        <ele>249.77</ele>
        <time>2017-02-25T13:46:28Z</time>
      </trkpt>
      <trkpt lat="45.25641" lon="5.02816">
        <ele>249.77</ele>
        <time>2017-02-25T13:46:29Z</time>
      </trkpt>
      <trkpt lat="45.25641" lon="5.02816">
        <ele>249.77</ele>
        <time>2017-02-25T13:46:30Z</time>
      </trkpt>
      <trkpt lat="45.25641" lon="5.02816">
        <ele>249.77</ele>
        <time>2017-02-25T13:46:31Z</time>
      </trkpt>
      <trkpt lat="45.25641" lon="5.02816">
        <ele>249.77</ele>
        <time>2017-02-25T13:46:32Z</time>
      </trkpt>
      <trkpt lat="45.25641" lon="5.02816">
        <ele>249.77</ele>
        <time>2017-02-25T13:46:33Z</time>
      </trkpt>
      <trkpt lat="45.25641" lon="5.02816">
        <ele>249.77</ele>
        <time>2017-02-25T13:46:34Z</time>
      </trkpt>
      <trkpt lat="45.25641" lon="5.02816">
        <ele>249.77</ele>
        <time>2017-02-25T13:46:35Z</time>
      </trkpt>
      <trkpt lat="45.25641" lon="5.02816">
        <ele>249.77</ele>
        <time>2017-02-25T13:46:36Z</time>
      </trkpt>
      <trkpt lat="45.25641" lon="5.02816">
        <ele>249.77</ele>
        <time>2017-02-25T13:46:37Z</time>
      </trkpt>
      <trkpt lat="45.25641" lon="5.02816">
        <ele>249.77</ele>
        <time>2017-02-25T13:46:38Z</time>
      </trkpt>
      <trkpt lat="45.25641" lon="5.02816">
        <ele>249.77</ele>
        <time>2017-02-25T13:46:39Z</time>
      </trkpt>
      <trkpt lat="45.25641" lon="5.02816">
        <ele>249.77</ele>
        <time>2017-02-25T13:46:40Z</time>
      </trkpt>
      <trkpt lat="45.25641" lon="5.02816">
        <ele>249.77</ele>
        <time>2017-02-25T13:46:41Z</time>
      </trkpt>
      <trkpt lat="45.25641" lon="5.02816">
        <ele>249.77</ele>
        <time>2017-02-25T13:46:42Z</time>
      </trkpt>
      <trkpt lat="45.25641" lon="5.02816">
        <ele>249.77</ele>
        <time>2017-02-25T13:46:43Z</time>
      </trkpt>
      <trkpt lat="45.25641" lon="5.02816">
        <ele>249.77</ele>
        <time>2017-02-25T13:46:44Z</time>
      </trkpt>
      <trkpt lat="45.25641" lon="5.02816">
        <ele>249.77</ele>
        <time>2017-02-25T13:46:45Z</time>
      </trkpt>
      <trkpt lat="45.25641" lon="5.02816">
        <ele>249.77</ele>
        <time>2017-02-25T13:46:46Z</time>
      </trkpt>
      <trkpt lat="45.25641" lon="5.02816">
        <ele>249.77</ele>
        <time>2017-02-25T13:46:47Z</time>
      </trkpt>
      <trkpt lat="45.25641" lon="5.02816">
        <ele>249.77</ele>
        <time>2017-02-25T13:46:48Z</time>
      </trkpt>
      <trkpt lat="45.25641" lon="5.02816">
        <ele>249.77</ele>
        <time>2017-02-25T13:46:49Z</time>
      </trkpt>
      <trkpt lat="45.25641" lon="5.02816">
        <ele>249.77</ele>
        <time>2017-02-25T13:46:50Z</time>
      </trkpt>
      <trkpt lat="45.25641" lon="5.02816">
        <ele>249.77</ele>
        <time>2017-02-25T13:46:51Z</time>
      </trkpt>
      <trkpt lat="45.25641" lon="5.02816">
        <ele>249.77</ele>
        <time>2017-02-25T13:46:52Z</time>
      </trkpt>
      <trkpt lat="45.25641" lon="5.02816">
        <ele>249.77</ele>
        <time>2017-02-25T13:46:53Z</time>
      </trkpt>
      <trkpt lat="45.25641" lon="5.02816">
        <ele>249.77</ele>
        <time>2017-02-25T13:46:54Z</time>
      </trkpt>
      <trkpt lat="45.25641" lon="5.02816">
        <ele>249.77</ele>
        <time>2017-02-25T13:46:55Z</time>
      </trkpt>
      <trkpt lat="45.25641" lon="5.02816">
        <ele>249.77</ele>
        <time>2017-02-25T13:46:56Z</time>
      </trkpt>
      <trkpt lat="45.25641" lon="5.02816">
        <ele>249.77</ele>
        <time>2017-02-25T13:46:57Z</time>
      </trkpt>
      <trkpt lat="45.25641" lon="5.02816">
        <ele>249.77</ele>
        <time>2017-02-25T13:46:58Z</time>
      </trkpt>
      <trkpt lat="45.25641" lon="5.02816">
        <ele>249.77</ele>
        <time>2017-02-25T13:46:59Z</time>
      </trkpt>
      <trkpt lat="45.25641" lon="5.02816">
        <ele>249.77</ele>
        <time>2017-02-25T13:47:00Z</time>
      </trkpt>
      <trkpt lat="45.25641" lon="5.02816">
        <ele>249.77</ele>
        <time>2017-02-25T13:47:01Z</time>
      </trkpt>
      <trkpt lat="45.25641" lon="5.02816">
        <ele>249.77</ele>
        <time>2017-02-25T13:47:02Z</time>
      </trkpt>
      <trkpt lat="45.25641" lon="5.02816">
        <ele>249.77</ele>
        <time>2017-02-25T13:47:03Z</time>
      </trkpt>
      <trkpt lat="45.25641" lon="5.02816">
        <ele>249.77</ele>
        <time>2017-02-25T13:47:04Z</time>
      </trkpt>
      <trkpt lat="45.25641" lon="5.02816">
        <ele>249.77</ele>
        <time>2017-02-25T13:47:05Z</time>
      </trkpt>
      <trkpt lat="45.25641" lon="5.02816">
        <ele>249.77</ele>
        <time>2017-02-25T13:47:06Z</time>
      </trkpt>
      <trkpt lat="45.25641" lon="5.02816">
        <ele>249.77</ele>
        <time>2017-02-25T13:47:07Z</time>
      </trkpt>
      <trkpt lat="45.25641" lon="5.02816">
        <ele>249.77</ele>
        <time>2017-02-25T13:47:08Z</time>
      </trkpt>
      <trkpt lat="45.25641" lon="5.02816">
        <ele>249.77</ele>
        <time>2017-02-25T13:47:09Z</time>
      </trkpt>
      <trkpt lat="45.25641" lon="5.02816">
        <ele>249.77</ele>
        <time>2017-02-25T13:47:10Z</time>
      </trkpt>
      <trkpt lat="45.25641" lon="5.02816">
        <ele>249.77</ele>
        <time>2017-02-25T13:47:11Z</time>
      </trkpt>
      <trkpt lat="45.25641" lon="5.02816">
        <ele>249.77</ele>
        <time>2017-02-25T13:47:12Z</time>
      </trkpt>
      <trkpt lat="45.25643" lon="5.02829">
        <ele>249.69</ele>
        <time>2017-02-25T13:47:13Z</time>
      </trkpt>
      <trkpt lat="45.25643" lon="5.0283">
        <ele>249.59</ele>
        <time>2017-02-25T13:47:14Z</time>
      </trkpt>
      <trkpt lat="45.25642" lon="5.02831">
        <ele>249.57</ele>
        <time>2017-02-25T13:47:15Z</time>
      </trkpt>
      <trkpt lat="45.25642" lon="5.02832">
        <ele>249.57</ele>
        <time>2017-02-25T13:47:16Z</time>
      </trkpt>
      <trkpt lat="45.25642" lon="5.02832">
        <ele>249.57</ele>
        <time>2017-02-25T13:47:17Z</time>
      </trkpt>
      <trkpt lat="45.25642" lon="5.02832">
        <ele>249.57</ele>
        <time>2017-02-25T13:47:18Z</time>
      </trkpt>
      <trkpt lat="45.25642" lon="5.02832">
        <ele>249.57</ele>
        <time>2017-02-25T13:47:19Z</time>
      </trkpt>
      <trkpt lat="45.25642" lon="5.02832">
        <ele>249.57</ele>
        <time>2017-02-25T13:47:20Z</time>
      </trkpt>
      <trkpt lat="45.25642" lon="5.02832">
        <ele>249.57</ele>
        <time>2017-02-25T13:47:21Z</time>
      </trkpt>
      <trkpt lat="45.25642" lon="5.02832">
        <ele>249.57</ele>
        <time>2017-02-25T13:47:22Z</time>
      </trkpt>
      <trkpt lat="45.25642" lon="5.02832">
        <ele>249.57</ele>
        <time>2017-02-25T13:47:23Z</time>
      </trkpt>
      <trkpt lat="45.25642" lon="5.02832">
        <ele>249.57</ele>
        <time>2017-02-25T13:47:24Z</time>
      </trkpt>
      <trkpt lat="45.25642" lon="5.02832">
        <ele>249.57</ele>
        <time>2017-02-25T13:47:25Z</time>
      </trkpt>
      <trkpt lat="45.25642" lon="5.02832">
        <ele>249.57</ele>
        <time>2017-02-25T13:47:26Z</time>
      </trkpt>
      <trkpt lat="45.25642" lon="5.02832">
        <ele>249.57</ele>
        <time>2017-02-25T13:47:27Z</time>
      </trkpt>
      <trkpt lat="45.25642" lon="5.02832">
        <ele>249.57</ele>
        <time>2017-02-25T13:47:28Z</time>
      </trkpt>
      <trkpt lat="45.25642" lon="5.02832">
        <ele>249.57</ele>
        <time>2017-02-25T13:47:29Z</time>
      </trkpt>
      <trkpt lat="45.25642" lon="5.02832">
        <ele>249.57</ele>
        <time>2017-02-25T13:47:30Z</time>
      </trkpt>
      <trkpt lat="45.25642" lon="5.02832">
        <ele>249.57</ele>
        <time>2017-02-25T13:47:31Z</time>
      </trkpt>
      <trkpt lat="45.25642" lon="5.02832">
        <ele>249.57</ele>
        <time>2017-02-25T13:47:32Z</time>
      </trkpt>
      <trkpt lat="45.25642" lon="5.02832">
        <ele>249.57</ele>
        <time>2017-02-25T13:47:33Z</time>
      </trkpt>
      <trkpt lat="45.25642" lon="5.02832">
        <ele>249.57</ele>
        <time>2017-02-25T13:47:34Z</time>
      </trkpt>
      <trkpt lat="45.25644" lon="5.02844">
        <ele>249.17</ele>
        <time>2017-02-25T13:47:35Z</time>
      </trkpt>
      <trkpt lat="45.25645" lon="5.02845">
        <ele>249.09</ele>
        <time>2017-02-25T13:47:36Z</time>
      </trkpt>
      <trkpt lat="45.25645" lon="5.02846">
        <ele>249.07</ele>
        <time>2017-02-25T13:47:37Z</time>
      </trkpt>
      <trkpt lat="45.25646" lon="5.02847">
        <ele>249.07</ele>
        <time>2017-02-25T13:47:38Z</time>
      </trkpt>
      <trkpt lat="45.25646" lon="5.02847">
        <ele>249.07</ele>
        <time>2017-02-25T13:47:39Z</time>
      </trkpt>
      <trkpt lat="45.25646" lon="5.02847">
        <ele>249.07</ele>
        <time>2017-02-25T13:47:40Z</time>
      </trkpt>
      <trkpt lat="45.25646" lon="5.02847">
        <ele>249.07</ele>
        <time>2017-02-25T13:47:41Z</time>
      </trkpt>
      <trkpt lat="45.25646" lon="5.02847">
        <ele>249.07</ele>
        <time>2017-02-25T13:47:42Z</time>
      </trkpt>
      <trkpt lat="45.25649" lon="5.02852">
        <ele>249.15</ele>
        <time>2017-02-25T13:47:43Z</time>
      </trkpt>
      <trkpt lat="45.25649" lon="5.02853">
        <ele>249.08</ele>
        <time>2017-02-25T13:47:44Z</time>
      </trkpt>
      <trkpt lat="45.2565" lon="5.02854">
        <ele>249.07</ele>
        <time>2017-02-25T13:47:45Z</time>
      </trkpt>
      <trkpt lat="45.2565" lon="5.02855">
        <ele>249.07</ele>
        <time>2017-02-25T13:47:46Z</time>
      </trkpt>
      <trkpt lat="45.25651" lon="5.02856">
        <ele>248.99</ele>
        <time>2017-02-25T13:47:47Z</time>
      </trkpt>
      <trkpt lat="45.25651" lon="5.02857">
        <ele>248.97</ele>
        <time>2017-02-25T13:47:48Z</time>
      </trkpt>
      <trkpt lat="45.25651" lon="5.02857">
        <ele>248.97</ele>
        <time>2017-02-25T13:47:49Z</time>
      </trkpt>
      <trkpt lat="45.25651" lon="5.02857">
        <ele>248.97</ele>
        <time>2017-02-25T13:47:50Z</time>
      </trkpt>
      <trkpt lat="45.25651" lon="5.02857">
        <ele>248.97</ele>
        <time>2017-02-25T13:47:51Z</time>
      </trkpt>
      <trkpt lat="45.25651" lon="5.02857">
        <ele>248.97</ele>
        <time>2017-02-25T13:47:52Z</time>
      </trkpt>
      <trkpt lat="45.25651" lon="5.02857">
        <ele>248.97</ele>
        <time>2017-02-25T13:47:53Z</time>
      </trkpt>
      <trkpt lat="45.25651" lon="5.02857">
        <ele>248.97</ele>
        <time>2017-02-25T13:47:54Z</time>
      </trkpt>
      <trkpt lat="45.25651" lon="5.02857">
        <ele>248.97</ele>
        <time>2017-02-25T13:47:55Z</time>
      </trkpt>
      <trkpt lat="45.25651" lon="5.02857">
        <ele>248.97</ele>
        <time>2017-02-25T13:47:56Z</time>
      </trkpt>
      <trkpt lat="45.25652" lon="5.02866">
        <ele>248.49</ele>
        <time>2017-02-25T13:47:57Z</time>
      </trkpt>
      <trkpt lat="45.25653" lon="5.02868">
        <ele>248.31</ele>
        <time>2017-02-25T13:47:58Z</time>
      </trkpt>
      <trkpt lat="45.25653" lon="5.02869">
        <ele>248.2</ele>
        <time>2017-02-25T13:47:59Z</time>
      </trkpt>
      <trkpt lat="45.25654" lon="5.02871">
        <ele>248.01</ele>
        <time>2017-02-25T13:48:00Z</time>
      </trkpt>
      <trkpt lat="45.25654" lon="5.02872">
        <ele>247.9</ele>
        <time>2017-02-25T13:48:01Z</time>
      </trkpt>
      <trkpt lat="45.25655" lon="5.02874">
        <ele>247.79</ele>
        <time>2017-02-25T13:48:02Z</time>
      </trkpt>
      <trkpt lat="45.25655" lon="5.02875">
        <ele>247.69</ele>
        <time>2017-02-25T13:48:03Z</time>
      </trkpt>
      <trkpt lat="45.25656" lon="5.02876">
        <ele>247.59</ele>
        <time>2017-02-25T13:48:04Z</time>
      </trkpt>
      <trkpt lat="45.25656" lon="5.02877">
        <ele>247.49</ele>
        <time>2017-02-25T13:48:05Z</time>
      </trkpt>
      <trkpt lat="45.25657" lon="5.02877">
        <ele>247.39</ele>
        <time>2017-02-25T13:48:06Z</time>
      </trkpt>
      <trkpt lat="45.25657" lon="5.02877">
        <ele>247.37</ele>
        <time>2017-02-25T13:48:07Z</time>
      </trkpt>
      <trkpt lat="45.25657" lon="5.02877">
        <ele>247.37</ele>
        <time>2017-02-25T13:48:08Z</time>
      </trkpt>
      <trkpt lat="45.25657" lon="5.02877">
        <ele>247.37</ele>
        <time>2017-02-25T13:48:09Z</time>
      </trkpt>
      <trkpt lat="45.25657" lon="5.02877">
        <ele>247.37</ele>
        <time>2017-02-25T13:48:10Z</time>
      </trkpt>
      <trkpt lat="45.25657" lon="5.02877">
        <ele>247.37</ele>
        <time>2017-02-25T13:48:11Z</time>
      </trkpt>
      <trkpt lat="45.25657" lon="5.02877">
        <ele>247.37</ele>
        <time>2017-02-25T13:48:12Z</time>
      </trkpt>
      <trkpt lat="45.25657" lon="5.02877">
        <ele>247.37</ele>
        <time>2017-02-25T13:48:13Z</time>
      </trkpt>
      <trkpt lat="45.25657" lon="5.02877">
        <ele>247.37</ele>
        <time>2017-02-25T13:48:14Z</time>
      </trkpt>
      <trkpt lat="45.25657" lon="5.02877">
        <ele>247.37</ele>
        <time>2017-02-25T13:48:15Z</time>
      </trkpt>
      <trkpt lat="45.25657" lon="5.02877">
        <ele>247.37</ele>
        <time>2017-02-25T13:48:16Z</time>
      </trkpt>
      <trkpt lat="45.25657" lon="5.02877">
        <ele>247.37</ele>
        <time>2017-02-25T13:48:17Z</time>
      </trkpt>
      <trkpt lat="45.25657" lon="5.02877">
        <ele>247.37</ele>
        <time>2017-02-25T13:48:18Z</time>
      </trkpt>
      <trkpt lat="45.25657" lon="5.02877">
        <ele>247.37</ele>
        <time>2017-02-25T13:48:19Z</time>
      </trkpt>
      <trkpt lat="45.25657" lon="5.02877">
        <ele>247.37</ele>
        <time>2017-02-25T13:48:20Z</time>
      </trkpt>
      <trkpt lat="45.25657" lon="5.02877">
        <ele>247.37</ele>
        <time>2017-02-25T13:48:21Z</time>
      </trkpt>
      <trkpt lat="45.25657" lon="5.02877">
        <ele>247.37</ele>
        <time>2017-02-25T13:48:22Z</time>
      </trkpt>
      <trkpt lat="45.25657" lon="5.02877">
        <ele>247.37</ele>
        <time>2017-02-25T13:48:23Z</time>
      </trkpt>
      <trkpt lat="45.25657" lon="5.02877">
        <ele>247.37</ele>
        <time>2017-02-25T13:48:24Z</time>
      </trkpt>
      <trkpt lat="45.25657" lon="5.02877">
        <ele>247.37</ele>
        <time>2017-02-25T13:48:25Z</time>
      </trkpt>
      <trkpt lat="45.25657" lon="5.02877">
        <ele>247.37</ele>
        <time>2017-02-25T13:48:26Z</time>
      </trkpt>
      <trkpt lat="45.25657" lon="5.02877">
        <ele>247.37</ele>
        <time>2017-02-25T13:48:27Z</time>
      </trkpt>
      <trkpt lat="45.25657" lon="5.02877">
        <ele>247.37</ele>
        <time>2017-02-25T13:48:28Z</time>
      </trkpt>
      <trkpt lat="45.25657" lon="5.02877">
        <ele>247.37</ele>
        <time>2017-02-25T13:48:29Z</time>
      </trkpt>
      <trkpt lat="45.25657" lon="5.02877">
        <ele>247.37</ele>
        <time>2017-02-25T13:48:30Z</time>
      </trkpt>
      <trkpt lat="45.25665" lon="5.02872">
        <ele>247.13</ele>
        <time>2017-02-25T13:48:31Z</time>
      </trkpt>
      <trkpt lat="45.25665" lon="5.02872">
        <ele>247.08</ele>
        <time>2017-02-25T13:48:32Z</time>
      </trkpt>
      <trkpt lat="45.25666" lon="5.02872">
        <ele>247.07</ele>
        <time>2017-02-25T13:48:33Z</time>
      </trkpt>
      <trkpt lat="45.25666" lon="5.02873">
        <ele>247.07</ele>
        <time>2017-02-25T13:48:34Z</time>
      </trkpt>
      <trkpt lat="45.25666" lon="5.02873">
        <ele>247.07</ele>
        <time>2017-02-25T13:48:35Z</time>
      </trkpt>
      <trkpt lat="45.25666" lon="5.02873">
        <ele>247.07</ele>
        <time>2017-02-25T13:48:36Z</time>
      </trkpt>
      <trkpt lat="45.25666" lon="5.02873">
        <ele>247.07</ele>
        <time>2017-02-25T13:48:37Z</time>
      </trkpt>
      <trkpt lat="45.25666" lon="5.02873">
        <ele>247.07</ele>
        <time>2017-02-25T13:48:38Z</time>
      </trkpt>
      <trkpt lat="45.25666" lon="5.02873">
        <ele>247.07</ele>
        <time>2017-02-25T13:48:39Z</time>
      </trkpt>
      <trkpt lat="45.25666" lon="5.02873">
        <ele>247.07</ele>
        <time>2017-02-25T13:48:40Z</time>
      </trkpt>
      <trkpt lat="45.25666" lon="5.02873">
        <ele>247.07</ele>
        <time>2017-02-25T13:48:41Z</time>
      </trkpt>
      <trkpt lat="45.25666" lon="5.02873">
        <ele>247.07</ele>
        <time>2017-02-25T13:48:42Z</time>
      </trkpt>
      <trkpt lat="45.25666" lon="5.02873">
        <ele>247.07</ele>
        <time>2017-02-25T13:48:43Z</time>
      </trkpt>
      <trkpt lat="45.25666" lon="5.02873">
        <ele>247.07</ele>
        <time>2017-02-25T13:48:44Z</time>
      </trkpt>
      <trkpt lat="45.25666" lon="5.02873">
        <ele>247.07</ele>
        <time>2017-02-25T13:48:45Z</time>
      </trkpt>
      <trkpt lat="45.25666" lon="5.02873">
        <ele>247.07</ele>
        <time>2017-02-25T13:48:46Z</time>
      </trkpt>
      <trkpt lat="45.25666" lon="5.02873">
        <ele>247.07</ele>
        <time>2017-02-25T13:48:47Z</time>
      </trkpt>
      <trkpt lat="45.25666" lon="5.02873">
        <ele>247.07</ele>
        <time>2017-02-25T13:48:48Z</time>
      </trkpt>
      <trkpt lat="45.25666" lon="5.02873">
        <ele>247.07</ele>
        <time>2017-02-25T13:48:49Z</time>
      </trkpt>
      <trkpt lat="45.25666" lon="5.02873">
        <ele>247.07</ele>
        <time>2017-02-25T13:48:50Z</time>
      </trkpt>
      <trkpt lat="45.25666" lon="5.02873">
        <ele>247.07</ele>
        <time>2017-02-25T13:48:51Z</time>
      </trkpt>
      <trkpt lat="45.25666" lon="5.02873">
        <ele>247.07</ele>
        <time>2017-02-25T13:48:52Z</time>
      </trkpt>
      <trkpt lat="45.25666" lon="5.02873">
        <ele>247.07</ele>
        <time>2017-02-25T13:48:53Z</time>
      </trkpt>
      <trkpt lat="45.25666" lon="5.02873">
        <ele>247.07</ele>
        <time>2017-02-25T13:48:54Z</time>
      </trkpt>
      <trkpt lat="45.25675" lon="5.02876">
        <ele>246.99</ele>
        <time>2017-02-25T13:48:55Z</time>
      </trkpt>
      <trkpt lat="45.25678" lon="5.02874">
        <ele>246.97</ele>
        <time>2017-02-25T13:48:56Z</time>
      </trkpt>
      <trkpt lat="45.25683" lon="5.02873">
        <ele>246.97</ele>
        <time>2017-02-25T13:48:57Z</time>
      </trkpt>
      <trkpt lat="45.25684" lon="5.02872">
        <ele>246.97</ele>
        <time>2017-02-25T13:48:58Z</time>
      </trkpt>
      <trkpt lat="45.25684" lon="5.02872">
        <ele>246.97</ele>
        <time>2017-02-25T13:48:59Z</time>
      </trkpt>
      <trkpt lat="45.25684" lon="5.02872">
        <ele>246.97</ele>
        <time>2017-02-25T13:49:00Z</time>
      </trkpt>
      <trkpt lat="45.25684" lon="5.02872">
        <ele>246.97</ele>
        <time>2017-02-25T13:49:01Z</time>
      </trkpt>
      <trkpt lat="45.25692" lon="5.02867">
        <ele>246.97</ele>
        <time>2017-02-25T13:49:02Z</time>
      </trkpt>
      <trkpt lat="45.25695" lon="5.02866">
        <ele>246.97</ele>
        <time>2017-02-25T13:49:03Z</time>
      </trkpt>
      <trkpt lat="45.25697" lon="5.02865">
        <ele>246.97</ele>
        <time>2017-02-25T13:49:04Z</time>
      </trkpt>
      <trkpt lat="45.25698" lon="5.02864">
        <ele>246.97</ele>
        <time>2017-02-25T13:49:05Z</time>
      </trkpt>
      <trkpt lat="45.25698" lon="5.02864">
        <ele>246.97</ele>
        <time>2017-02-25T13:49:06Z</time>
      </trkpt>
      <trkpt lat="45.25698" lon="5.02864">
        <ele>246.97</ele>
        <time>2017-02-25T13:49:07Z</time>
      </trkpt>
      <trkpt lat="45.25698" lon="5.02864">
        <ele>246.97</ele>
        <time>2017-02-25T13:49:08Z</time>
      </trkpt>
      <trkpt lat="45.25698" lon="5.02864">
        <ele>246.97</ele>
        <time>2017-02-25T13:49:09Z</time>
      </trkpt>
      <trkpt lat="45.25698" lon="5.02864">
        <ele>246.97</ele>
        <time>2017-02-25T13:49:10Z</time>
      </trkpt>
      <trkpt lat="45.257" lon="5.02864">
        <ele>246.97</ele>
        <time>2017-02-25T13:49:11Z</time>
      </trkpt>
      <trkpt lat="45.25699" lon="5.02865">
        <ele>246.97</ele>
        <time>2017-02-25T13:49:12Z</time>
      </trkpt>
      <trkpt lat="45.25698" lon="5.02865">
        <ele>246.97</ele>
        <time>2017-02-25T13:49:13Z</time>
      </trkpt>
      <trkpt lat="45.2569" lon="5.02875">
        <ele>246.97</ele>
        <time>2017-02-25T13:49:14Z</time>
      </trkpt>
      <trkpt lat="45.25686" lon="5.0288">
        <ele>246.97</ele>
        <time>2017-02-25T13:49:15Z</time>
      </trkpt>
      <trkpt lat="45.25686" lon="5.02881">
        <ele>246.97</ele>
        <time>2017-02-25T13:49:17Z</time>
      </trkpt>
      <trkpt lat="45.25687" lon="5.02881">
        <ele>246.97</ele>
        <time>2017-02-25T13:49:18Z</time>
      </trkpt>
      <trkpt lat="45.25686" lon="5.02885">
        <ele>246.97</ele>
        <time>2017-02-25T13:49:19Z</time>
      </trkpt>
      <trkpt lat="45.25686" lon="5.02886">
        <ele>246.97</ele>
        <time>2017-02-25T13:49:20Z</time>
      </trkpt>
      <trkpt lat="45.25682" lon="5.02885">
        <ele>246.97</ele>
        <time>2017-02-25T13:49:21Z</time>
      </trkpt>
      <trkpt lat="45.25682" lon="5.02885">
        <ele>246.97</ele>
        <time>2017-02-25T13:49:22Z</time>
      </trkpt>
      <trkpt lat="45.25682" lon="5.02885">
        <ele>246.97</ele>
        <time>2017-02-25T13:49:23Z</time>
      </trkpt>
      <trkpt lat="45.25682" lon="5.02885">
        <ele>246.97</ele>
        <time>2017-02-25T13:49:24Z</time>
      </trkpt>
      <trkpt lat="45.25682" lon="5.02885">
        <ele>246.97</ele>
        <time>2017-02-25T13:49:25Z</time>
      </trkpt>
      <trkpt lat="45.25673" lon="5.02892">
        <ele>246.89</ele>
        <time>2017-02-25T13:49:26Z</time>
      </trkpt>
      <trkpt lat="45.25672" lon="5.02892">
        <ele>246.87</ele>
        <time>2017-02-25T13:49:27Z</time>
      </trkpt>
      <trkpt lat="45.2567" lon="5.02892">
        <ele>246.79</ele>
        <time>2017-02-25T13:49:28Z</time>
      </trkpt>
      <trkpt lat="45.25669" lon="5.02891">
        <ele>246.77</ele>
        <time>2017-02-25T13:49:29Z</time>
      </trkpt>
      <trkpt lat="45.25669" lon="5.02891">
        <ele>246.77</ele>
        <time>2017-02-25T13:49:30Z</time>
      </trkpt>
      <trkpt lat="45.25669" lon="5.02891">
        <ele>246.77</ele>
        <time>2017-02-25T13:49:31Z</time>
      </trkpt>
      <trkpt lat="45.25669" lon="5.02891">
        <ele>246.77</ele>
        <time>2017-02-25T13:49:32Z</time>
      </trkpt>
      <trkpt lat="45.25659" lon="5.02887">
        <ele>247.17</ele>
        <time>2017-02-25T13:49:33Z</time>
      </trkpt>
      <trkpt lat="45.25657" lon="5.02887">
        <ele>247.25</ele>
        <time>2017-02-25T13:49:34Z</time>
      </trkpt>
      <trkpt lat="45.25657" lon="5.02887">
        <ele>247.26</ele>
        <time>2017-02-25T13:49:35Z</time>
      </trkpt>
      <trkpt lat="45.25657" lon="5.02887">
        <ele>247.35</ele>
        <time>2017-02-25T13:49:36Z</time>
      </trkpt>
      <trkpt lat="45.25657" lon="5.02887">
        <ele>247.36</ele>
        <time>2017-02-25T13:49:37Z</time>
      </trkpt>
      <trkpt lat="45.25657" lon="5.02887">
        <ele>247.37</ele>
        <time>2017-02-25T13:49:38Z</time>
      </trkpt>
      <trkpt lat="45.25657" lon="5.02887">
        <ele>247.37</ele>
        <time>2017-02-25T13:49:39Z</time>
      </trkpt>
      <trkpt lat="45.25657" lon="5.02887">
        <ele>247.37</ele>
        <time>2017-02-25T13:49:40Z</time>
      </trkpt>
      <trkpt lat="45.25657" lon="5.02887">
        <ele>247.37</ele>
        <time>2017-02-25T13:49:41Z</time>
      </trkpt>
      <trkpt lat="45.25657" lon="5.02887">
        <ele>247.37</ele>
        <time>2017-02-25T13:49:42Z</time>
      </trkpt>
      <trkpt lat="45.25657" lon="5.02887">
        <ele>247.37</ele>
        <time>2017-02-25T13:49:43Z</time>
      </trkpt>
      <trkpt lat="45.25657" lon="5.02887">
        <ele>247.37</ele>
        <time>2017-02-25T13:49:44Z</time>
      </trkpt>
      <trkpt lat="45.25657" lon="5.02887">
        <ele>247.37</ele>
        <time>2017-02-25T13:49:45Z</time>
      </trkpt>
      <trkpt lat="45.25657" lon="5.02887">
        <ele>247.37</ele>
        <time>2017-02-25T13:49:46Z</time>
      </trkpt>
      <trkpt lat="45.25657" lon="5.02887">
        <ele>247.37</ele>
        <time>2017-02-25T13:49:47Z</time>
      </trkpt>
      <trkpt lat="45.25657" lon="5.02887">
        <ele>247.37</ele>
        <time>2017-02-25T13:49:48Z</time>
      </trkpt>
      <trkpt lat="45.25657" lon="5.02887">
        <ele>247.37</ele>
        <time>2017-02-25T13:49:49Z</time>
      </trkpt>
      <trkpt lat="45.25657" lon="5.02887">
        <ele>247.37</ele>
        <time>2017-02-25T13:49:50Z</time>
      </trkpt>
      <trkpt lat="45.25657" lon="5.02887">
        <ele>247.37</ele>
        <time>2017-02-25T13:49:51Z</time>
      </trkpt>
      <trkpt lat="45.25657" lon="5.02887">
        <ele>247.37</ele>
        <time>2017-02-25T13:49:52Z</time>
      </trkpt>
      <trkpt lat="45.25657" lon="5.02887">
        <ele>247.37</ele>
        <time>2017-02-25T13:49:53Z</time>
      </trkpt>
      <trkpt lat="45.25657" lon="5.02887">
        <ele>247.37</ele>
        <time>2017-02-25T13:49:54Z</time>
      </trkpt>
      <trkpt lat="45.25657" lon="5.02887">
        <ele>247.37</ele>
        <time>2017-02-25T13:49:55Z</time>
      </trkpt>
      <trkpt lat="45.25657" lon="5.02887">
        <ele>247.37</ele>
        <time>2017-02-25T13:49:56Z</time>
      </trkpt>
      <trkpt lat="45.25657" lon="5.02887">
        <ele>247.37</ele>
        <time>2017-02-25T13:49:57Z</time>
      </trkpt>
      <trkpt lat="45.25657" lon="5.02887">
        <ele>247.37</ele>
        <time>2017-02-25T13:49:58Z</time>
      </trkpt>
      <trkpt lat="45.25656" lon="5.02882">
        <ele>247.53</ele>
        <time>2017-02-25T13:49:59Z</time>
      </trkpt>
      <trkpt lat="45.25656" lon="5.02881">
        <ele>247.64</ele>
        <time>2017-02-25T13:50:00Z</time>
      </trkpt>
      <trkpt lat="45.25656" lon="5.02879">
        <ele>247.74</ele>
        <time>2017-02-25T13:50:01Z</time>
      </trkpt>
      <trkpt lat="45.25656" lon="5.02878">
        <ele>247.84</ele>
        <time>2017-02-25T13:50:02Z</time>
      </trkpt>
      <trkpt lat="45.25656" lon="5.02877">
        <ele>247.86</ele>
        <time>2017-02-25T13:50:03Z</time>
      </trkpt>
      <trkpt lat="45.25656" lon="5.02875">
        <ele>247.95</ele>
        <time>2017-02-25T13:50:04Z</time>
      </trkpt>
      <trkpt lat="45.25655" lon="5.02873">
        <ele>248.04</ele>
        <time>2017-02-25T13:50:05Z</time>
      </trkpt>
      <trkpt lat="45.25655" lon="5.02872">
        <ele>248.14</ele>
        <time>2017-02-25T13:50:06Z</time>
      </trkpt>
      <trkpt lat="45.25654" lon="5.0287">
        <ele>248.16</ele>
        <time>2017-02-25T13:50:07Z</time>
      </trkpt>
      <trkpt lat="45.25654" lon="5.02869">
        <ele>248.25</ele>
        <time>2017-02-25T13:50:08Z</time>
      </trkpt>
      <trkpt lat="45.25653" lon="5.02867">
        <ele>248.34</ele>
        <time>2017-02-25T13:50:09Z</time>
      </trkpt>
      <trkpt lat="45.25653" lon="5.02866">
        <ele>248.44</ele>
        <time>2017-02-25T13:50:10Z</time>
      </trkpt>
      <trkpt lat="45.25652" lon="5.02864">
        <ele>248.54</ele>
        <time>2017-02-25T13:50:11Z</time>
      </trkpt>
      <trkpt lat="45.25651" lon="5.02862">
        <ele>248.56</ele>
        <time>2017-02-25T13:50:12Z</time>
      </trkpt>
      <trkpt lat="45.2565" lon="5.02861">
        <ele>248.65</ele>
        <time>2017-02-25T13:50:13Z</time>
      </trkpt>
      <trkpt lat="45.2565" lon="5.0286">
        <ele>248.74</ele>
        <time>2017-02-25T13:50:14Z</time>
      </trkpt>
      <trkpt lat="45.25649" lon="5.02859">
        <ele>248.84</ele>
        <time>2017-02-25T13:50:15Z</time>
      </trkpt>
      <trkpt lat="45.25649" lon="5.02859">
        <ele>248.86</ele>
        <time>2017-02-25T13:50:16Z</time>
      </trkpt>
      <trkpt lat="45.25648" lon="5.02859">
        <ele>248.95</ele>
        <time>2017-02-25T13:50:17Z</time>
      </trkpt>
      <trkpt lat="45.25648" lon="5.02859">
        <ele>248.96</ele>
        <time>2017-02-25T13:50:18Z</time>
      </trkpt>
      <trkpt lat="45.25648" lon="5.02859">
        <ele>248.97</ele>
        <time>2017-02-25T13:50:19Z</time>
      </trkpt>
      <trkpt lat="45.25648" lon="5.02859">
        <ele>248.97</ele>
        <time>2017-02-25T13:50:20Z</time>
      </trkpt>
      <trkpt lat="45.25648" lon="5.02859">
        <ele>248.97</ele>
        <time>2017-02-25T13:50:21Z</time>
      </trkpt>
      <trkpt lat="45.25648" lon="5.02859">
        <ele>248.97</ele>
        <time>2017-02-25T13:50:22Z</time>
      </trkpt>
      <trkpt lat="45.25648" lon="5.02859">
        <ele>248.97</ele>
        <time>2017-02-25T13:50:23Z</time>
      </trkpt>
      <trkpt lat="45.25648" lon="5.02859">
        <ele>248.97</ele>
        <time>2017-02-25T13:50:24Z</time>
      </trkpt>
      <trkpt lat="45.25648" lon="5.02859">
        <ele>248.97</ele>
        <time>2017-02-25T13:50:25Z</time>
      </trkpt>
      <trkpt lat="45.25648" lon="5.02859">
        <ele>248.97</ele>
        <time>2017-02-25T13:50:26Z</time>
      </trkpt>
      <trkpt lat="45.25648" lon="5.02859">
        <ele>248.97</ele>
        <time>2017-02-25T13:50:27Z</time>
      </trkpt>
      <trkpt lat="45.25648" lon="5.02859">
        <ele>248.97</ele>
        <time>2017-02-25T13:50:28Z</time>
      </trkpt>
      <trkpt lat="45.25648" lon="5.02859">
        <ele>248.97</ele>
        <time>2017-02-25T13:50:29Z</time>
      </trkpt>
      <trkpt lat="45.25648" lon="5.02859">
        <ele>248.97</ele>
        <time>2017-02-25T13:50:30Z</time>
      </trkpt>
      <trkpt lat="45.25648" lon="5.02859">
        <ele>248.97</ele>
        <time>2017-02-25T13:50:31Z</time>
      </trkpt>
      <trkpt lat="45.25648" lon="5.02859">
        <ele>248.97</ele>
        <time>2017-02-25T13:50:32Z</time>
      </trkpt>
      <trkpt lat="45.25648" lon="5.02859">
        <ele>248.97</ele>
        <time>2017-02-25T13:50:33Z</time>
      </trkpt>
      <trkpt lat="45.25648" lon="5.02859">
        <ele>248.97</ele>
        <time>2017-02-25T13:50:34Z</time>
      </trkpt>
      <trkpt lat="45.25648" lon="5.02859">
        <ele>248.97</ele>
        <time>2017-02-25T13:50:35Z</time>
      </trkpt>
      <trkpt lat="45.25648" lon="5.02859">
        <ele>248.97</ele>
        <time>2017-02-25T13:50:36Z</time>
      </trkpt>
      <trkpt lat="45.25648" lon="5.02859">
        <ele>248.97</ele>
        <time>2017-02-25T13:50:37Z</time>
      </trkpt>
      <trkpt lat="45.25648" lon="5.02859">
        <ele>248.97</ele>
        <time>2017-02-25T13:50:38Z</time>
      </trkpt>
      <trkpt lat="45.25648" lon="5.02859">
        <ele>248.97</ele>
        <time>2017-02-25T13:50:39Z</time>
      </trkpt>
      <trkpt lat="45.25648" lon="5.02859">
        <ele>248.97</ele>
        <time>2017-02-25T13:50:40Z</time>
      </trkpt>
      <trkpt lat="45.25648" lon="5.02859">
        <ele>248.97</ele>
        <time>2017-02-25T13:50:41Z</time>
      </trkpt>
      <trkpt lat="45.25648" lon="5.02859">
        <ele>248.97</ele>
        <time>2017-02-25T13:50:42Z</time>
      </trkpt>
      <trkpt lat="45.25642" lon="5.02859">
        <ele>248.89</ele>
        <time>2017-02-25T13:50:43Z</time>
      </trkpt>
      <trkpt lat="45.25642" lon="5.02858">
        <ele>248.87</ele>
        <time>2017-02-25T13:50:44Z</time>
      </trkpt>
      <trkpt lat="45.25641" lon="5.02858">
        <ele>248.79</ele>
        <time>2017-02-25T13:50:45Z</time>
      </trkpt>
      <trkpt lat="45.2564" lon="5.02857">
        <ele>248.77</ele>
        <time>2017-02-25T13:50:46Z</time>
      </trkpt>
      <trkpt lat="45.2564" lon="5.02856">
        <ele>248.77</ele>
        <time>2017-02-25T13:50:47Z</time>
      </trkpt>
      <trkpt lat="45.2564" lon="5.02855">
        <ele>248.69</ele>
        <time>2017-02-25T13:50:48Z</time>
      </trkpt>
      <trkpt lat="45.25639" lon="5.02854">
        <ele>248.67</ele>
        <time>2017-02-25T13:50:49Z</time>
      </trkpt>
      <trkpt lat="45.25638" lon="5.02853">
        <ele>248.59</ele>
        <time>2017-02-25T13:50:50Z</time>
      </trkpt>
      <trkpt lat="45.25638" lon="5.02851">
        <ele>248.57</ele>
        <time>2017-02-25T13:50:51Z</time>
      </trkpt>
      <trkpt lat="45.25638" lon="5.02851">
        <ele>248.57</ele>
        <time>2017-02-25T13:50:52Z</time>
      </trkpt>
      <trkpt lat="45.25637" lon="5.0285">
        <ele>248.57</ele>
        <time>2017-02-25T13:50:53Z</time>
      </trkpt>
      <trkpt lat="45.25637" lon="5.0285">
        <ele>248.57</ele>
        <time>2017-02-25T13:50:54Z</time>
      </trkpt>
      <trkpt lat="45.25637" lon="5.0285">
        <ele>248.57</ele>
        <time>2017-02-25T13:50:55Z</time>
      </trkpt>
      <trkpt lat="45.25637" lon="5.0285">
        <ele>248.57</ele>
        <time>2017-02-25T13:50:56Z</time>
      </trkpt>
      <trkpt lat="45.25637" lon="5.0285">
        <ele>248.57</ele>
        <time>2017-02-25T13:50:57Z</time>
      </trkpt>
      <trkpt lat="45.25637" lon="5.0285">
        <ele>248.57</ele>
        <time>2017-02-25T13:50:58Z</time>
      </trkpt>
      <trkpt lat="45.25637" lon="5.0285">
        <ele>248.57</ele>
        <time>2017-02-25T13:50:59Z</time>
      </trkpt>
      <trkpt lat="45.25637" lon="5.0285">
        <ele>248.57</ele>
        <time>2017-02-25T13:51:00Z</time>
      </trkpt>
      <trkpt lat="45.25637" lon="5.0285">
        <ele>248.57</ele>
        <time>2017-02-25T13:51:01Z</time>
      </trkpt>
      <trkpt lat="45.25637" lon="5.0285">
        <ele>248.57</ele>
        <time>2017-02-25T13:51:02Z</time>
      </trkpt>
      <trkpt lat="45.25637" lon="5.0285">
        <ele>248.57</ele>
        <time>2017-02-25T13:51:03Z</time>
      </trkpt>
      <trkpt lat="45.25637" lon="5.0285">
        <ele>248.57</ele>
        <time>2017-02-25T13:51:04Z</time>
      </trkpt>
      <trkpt lat="45.25637" lon="5.0285">
        <ele>248.57</ele>
        <time>2017-02-25T13:51:05Z</time>
      </trkpt>
      <trkpt lat="45.25637" lon="5.0285">
        <ele>248.57</ele>
        <time>2017-02-25T13:51:06Z</time>
      </trkpt>
      <trkpt lat="45.25637" lon="5.0285">
        <ele>248.57</ele>
        <time>2017-02-25T13:51:07Z</time>
      </trkpt>
      <trkpt lat="45.25637" lon="5.0285">
        <ele>248.57</ele>
        <time>2017-02-25T13:51:08Z</time>
      </trkpt>
      <trkpt lat="45.25637" lon="5.0285">
        <ele>248.57</ele>
        <time>2017-02-25T13:51:09Z</time>
      </trkpt>
      <trkpt lat="45.25637" lon="5.0285">
        <ele>248.57</ele>
        <time>2017-02-25T13:51:10Z</time>
      </trkpt>
      <trkpt lat="45.25637" lon="5.0285">
        <ele>248.57</ele>
        <time>2017-02-25T13:51:11Z</time>
      </trkpt>
      <trkpt lat="45.25637" lon="5.0285">
        <ele>248.57</ele>
        <time>2017-02-25T13:51:12Z</time>
      </trkpt>
      <trkpt lat="45.25637" lon="5.0285">
        <ele>248.57</ele>
        <time>2017-02-25T13:51:13Z</time>
      </trkpt>
      <trkpt lat="45.25637" lon="5.0285">
        <ele>248.57</ele>
        <time>2017-02-25T13:51:14Z</time>
      </trkpt>
      <trkpt lat="45.25637" lon="5.0285">
        <ele>248.57</ele>
        <time>2017-02-25T13:51:15Z</time>
      </trkpt>
      <trkpt lat="45.25637" lon="5.0285">
        <ele>248.57</ele>
        <time>2017-02-25T13:51:16Z</time>
      </trkpt>
      <trkpt lat="45.25637" lon="5.0285">
        <ele>248.57</ele>
        <time>2017-02-25T13:51:17Z</time>
      </trkpt>
      <trkpt lat="45.25637" lon="5.0285">
        <ele>248.57</ele>
        <time>2017-02-25T13:51:18Z</time>
      </trkpt>
      <trkpt lat="45.25637" lon="5.0285">
        <ele>248.57</ele>
        <time>2017-02-25T13:51:19Z</time>
      </trkpt>
      <trkpt lat="45.25637" lon="5.0285">
        <ele>248.57</ele>
        <time>2017-02-25T13:51:20Z</time>
      </trkpt>
      <trkpt lat="45.25637" lon="5.0285">
        <ele>248.57</ele>
        <time>2017-02-25T13:51:21Z</time>
      </trkpt>
      <trkpt lat="45.25637" lon="5.0285">
        <ele>248.57</ele>
        <time>2017-02-25T13:51:22Z</time>
      </trkpt>
      <trkpt lat="45.25637" lon="5.0285">
        <ele>248.57</ele>
        <time>2017-02-25T13:51:23Z</time>
      </trkpt>
      <trkpt lat="45.25637" lon="5.0285">
        <ele>248.57</ele>
        <time>2017-02-25T13:51:24Z</time>
      </trkpt>
      <trkpt lat="45.25637" lon="5.0285">
        <ele>248.57</ele>
        <time>2017-02-25T13:51:25Z</time>
      </trkpt>
      <trkpt lat="45.25637" lon="5.0285">
        <ele>248.57</ele>
        <time>2017-02-25T13:51:26Z</time>
      </trkpt>
      <trkpt lat="45.25637" lon="5.0285">
        <ele>248.57</ele>
        <time>2017-02-25T13:51:27Z</time>
      </trkpt>
      <trkpt lat="45.25637" lon="5.0285">
        <ele>248.57</ele>
        <time>2017-02-25T13:51:28Z</time>
      </trkpt>
      <trkpt lat="45.25637" lon="5.0285">
        <ele>248.57</ele>
        <time>2017-02-25T13:51:29Z</time>
      </trkpt>
      <trkpt lat="45.25637" lon="5.0285">
        <ele>248.57</ele>
        <time>2017-02-25T13:51:30Z</time>
      </trkpt>
      <trkpt lat="45.25637" lon="5.0285">
        <ele>248.57</ele>
        <time>2017-02-25T13:51:31Z</time>
      </trkpt>
      <trkpt lat="45.25637" lon="5.0285">
        <ele>248.57</ele>
        <time>2017-02-25T13:51:32Z</time>
      </trkpt>
      <trkpt lat="45.25637" lon="5.0285">
        <ele>248.57</ele>
        <time>2017-02-25T13:51:33Z</time>
      </trkpt>
      <trkpt lat="45.25637" lon="5.0285">
        <ele>248.57</ele>
        <time>2017-02-25T13:51:34Z</time>
      </trkpt>
      <trkpt lat="45.25637" lon="5.0285">
        <ele>248.57</ele>
        <time>2017-02-25T13:51:35Z</time>
      </trkpt>
      <trkpt lat="45.25637" lon="5.0285">
        <ele>248.57</ele>
        <time>2017-02-25T13:51:36Z</time>
      </trkpt>
      <trkpt lat="45.25637" lon="5.0285">
        <ele>248.57</ele>
        <time>2017-02-25T13:51:37Z</time>
      </trkpt>
      <trkpt lat="45.25637" lon="5.0285">
        <ele>248.57</ele>
        <time>2017-02-25T13:51:38Z</time>
      </trkpt>
      <trkpt lat="45.25637" lon="5.0285">
        <ele>248.57</ele>
        <time>2017-02-25T13:51:39Z</time>
      </trkpt>
      <trkpt lat="45.25637" lon="5.0285">
        <ele>248.57</ele>
        <time>2017-02-25T13:51:40Z</time>
      </trkpt>
      <trkpt lat="45.25637" lon="5.0285">
        <ele>248.57</ele>
        <time>2017-02-25T13:51:41Z</time>
      </trkpt>
      <trkpt lat="45.25637" lon="5.0285">
        <ele>248.57</ele>
        <time>2017-02-25T13:51:42Z</time>
      </trkpt>
      <trkpt lat="45.25637" lon="5.0285">
        <ele>248.57</ele>
        <time>2017-02-25T13:51:43Z</time>
      </trkpt>
      <trkpt lat="45.25637" lon="5.0285">
        <ele>248.57</ele>
        <time>2017-02-25T13:51:44Z</time>
      </trkpt>
      <trkpt lat="45.25637" lon="5.0285">
        <ele>248.57</ele>
        <time>2017-02-25T13:51:45Z</time>
      </trkpt>
      <trkpt lat="45.25637" lon="5.0285">
        <ele>248.57</ele>
        <time>2017-02-25T13:51:46Z</time>
      </trkpt>
      <trkpt lat="45.25637" lon="5.0285">
        <ele>248.57</ele>
        <time>2017-02-25T13:51:47Z</time>
      </trkpt>
      <trkpt lat="45.25637" lon="5.0285">
        <ele>248.57</ele>
        <time>2017-02-25T13:51:48Z</time>
      </trkpt>
      <trkpt lat="45.25637" lon="5.0285">
        <ele>248.57</ele>
        <time>2017-02-25T13:51:49Z</time>
      </trkpt>
      <trkpt lat="45.25637" lon="5.0285">
        <ele>248.57</ele>
        <time>2017-02-25T13:51:50Z</time>
      </trkpt>
      <trkpt lat="45.25637" lon="5.0285">
        <ele>248.57</ele>
        <time>2017-02-25T13:51:51Z</time>
      </trkpt>
      <trkpt lat="45.25637" lon="5.0285">
        <ele>248.57</ele>
        <time>2017-02-25T13:51:52Z</time>
      </trkpt>
      <trkpt lat="45.25637" lon="5.0285">
        <ele>248.57</ele>
        <time>2017-02-25T13:51:53Z</time>
      </trkpt>
      <trkpt lat="45.25637" lon="5.0285">
        <ele>248.57</ele>
        <time>2017-02-25T13:51:54Z</time>
      </trkpt>
      <trkpt lat="45.25637" lon="5.0285">
        <ele>248.57</ele>
        <time>2017-02-25T13:51:55Z</time>
      </trkpt>
      <trkpt lat="45.25637" lon="5.0285">
        <ele>248.57</ele>
        <time>2017-02-25T13:51:56Z</time>
      </trkpt>
      <trkpt lat="45.25637" lon="5.0285">
        <ele>248.57</ele>
        <time>2017-02-25T13:51:57Z</time>
      </trkpt>
      <trkpt lat="45.25637" lon="5.0285">
        <ele>248.57</ele>
        <time>2017-02-25T13:51:58Z</time>
      </trkpt>
      <trkpt lat="45.25632" lon="5.02853">
        <ele>248.49</ele>
        <time>2017-02-25T13:51:59Z</time>
      </trkpt>
      <trkpt lat="45.25631" lon="5.02854">
        <ele>248.47</ele>
        <time>2017-02-25T13:52:00Z</time>
      </trkpt>
      <trkpt lat="45.2563" lon="5.02855">
        <ele>248.55</ele>
        <time>2017-02-25T13:52:01Z</time>
      </trkpt>
      <trkpt lat="45.25629" lon="5.02856">
        <ele>248.64</ele>
        <time>2017-02-25T13:52:02Z</time>
      </trkpt>
      <trkpt lat="45.25629" lon="5.02857">
        <ele>248.74</ele>
        <time>2017-02-25T13:52:03Z</time>
      </trkpt>
      <trkpt lat="45.25628" lon="5.02857">
        <ele>248.84</ele>
        <time>2017-02-25T13:52:04Z</time>
      </trkpt>
      <trkpt lat="45.25628" lon="5.02859">
        <ele>248.94</ele>
        <time>2017-02-25T13:52:05Z</time>
      </trkpt>
      <trkpt lat="45.25627" lon="5.02861">
        <ele>249.04</ele>
        <time>2017-02-25T13:52:06Z</time>
      </trkpt>
      <trkpt lat="45.25627" lon="5.02861">
        <ele>249.14</ele>
        <time>2017-02-25T13:52:07Z</time>
      </trkpt>
      <trkpt lat="45.25627" lon="5.02864">
        <ele>249.24</ele>
        <time>2017-02-25T13:52:08Z</time>
      </trkpt>
      <trkpt lat="45.25627" lon="5.02865">
        <ele>249.34</ele>
        <time>2017-02-25T13:52:09Z</time>
      </trkpt>
      <trkpt lat="45.25627" lon="5.02867">
        <ele>249.44</ele>
        <time>2017-02-25T13:52:10Z</time>
      </trkpt>
      <trkpt lat="45.25627" lon="5.02867">
        <ele>249.46</ele>
        <time>2017-02-25T13:52:11Z</time>
      </trkpt>
      <trkpt lat="45.25627" lon="5.02867">
        <ele>249.55</ele>
        <time>2017-02-25T13:52:12Z</time>
      </trkpt>
      <trkpt lat="45.25627" lon="5.02867">
        <ele>249.56</ele>
        <time>2017-02-25T13:52:13Z</time>
      </trkpt>
      <trkpt lat="45.25627" lon="5.02867">
        <ele>249.57</ele>
        <time>2017-02-25T13:52:14Z</time>
      </trkpt>
      <trkpt lat="45.25627" lon="5.02867">
        <ele>249.57</ele>
        <time>2017-02-25T13:52:15Z</time>
      </trkpt>
      <trkpt lat="45.25627" lon="5.02867">
        <ele>249.57</ele>
        <time>2017-02-25T13:52:16Z</time>
      </trkpt>
      <trkpt lat="45.25627" lon="5.02867">
        <ele>249.57</ele>
        <time>2017-02-25T13:52:17Z</time>
      </trkpt>
      <trkpt lat="45.25627" lon="5.02867">
        <ele>249.57</ele>
        <time>2017-02-25T13:52:18Z</time>
      </trkpt>
      <trkpt lat="45.25627" lon="5.02867">
        <ele>249.57</ele>
        <time>2017-02-25T13:52:19Z</time>
      </trkpt>
      <trkpt lat="45.25623" lon="5.0287">
        <ele>249.65</ele>
        <time>2017-02-25T13:52:20Z</time>
      </trkpt>
      <trkpt lat="45.25621" lon="5.0287">
        <ele>249.58</ele>
        <time>2017-02-25T13:52:21Z</time>
      </trkpt>
      <trkpt lat="45.2562" lon="5.0287">
        <ele>249.57</ele>
        <time>2017-02-25T13:52:22Z</time>
      </trkpt>
      <trkpt lat="45.25619" lon="5.02869">
        <ele>249.57</ele>
        <time>2017-02-25T13:52:23Z</time>
      </trkpt>
      <trkpt lat="45.25619" lon="5.02869">
        <ele>249.57</ele>
        <time>2017-02-25T13:52:24Z</time>
      </trkpt>
      <trkpt lat="45.25618" lon="5.02868">
        <ele>249.57</ele>
        <time>2017-02-25T13:52:25Z</time>
      </trkpt>
      <trkpt lat="45.25617" lon="5.02868">
        <ele>249.57</ele>
        <time>2017-02-25T13:52:26Z</time>
      </trkpt>
      <trkpt lat="45.25616" lon="5.02867">
        <ele>249.57</ele>
        <time>2017-02-25T13:52:27Z</time>
      </trkpt>
      <trkpt lat="45.25616" lon="5.02866">
        <ele>249.57</ele>
        <time>2017-02-25T13:52:28Z</time>
      </trkpt>
      <trkpt lat="45.25616" lon="5.02866">
        <ele>249.57</ele>
        <time>2017-02-25T13:52:29Z</time>
      </trkpt>
      <trkpt lat="45.25616" lon="5.02866">
        <ele>249.57</ele>
        <time>2017-02-25T13:52:30Z</time>
      </trkpt>
      <trkpt lat="45.25616" lon="5.02866">
        <ele>249.57</ele>
        <time>2017-02-25T13:52:31Z</time>
      </trkpt>
      <trkpt lat="45.25616" lon="5.02866">
        <ele>249.57</ele>
        <time>2017-02-25T13:52:32Z</time>
      </trkpt>
      <trkpt lat="45.25613" lon="5.02862">
        <ele>249.65</ele>
        <time>2017-02-25T13:52:33Z</time>
      </trkpt>
      <trkpt lat="45.25613" lon="5.0286">
        <ele>249.66</ele>
        <time>2017-02-25T13:52:34Z</time>
      </trkpt>
      <trkpt lat="45.25613" lon="5.02859">
        <ele>249.67</ele>
        <time>2017-02-25T13:52:35Z</time>
      </trkpt>
      <trkpt lat="45.25612" lon="5.02857">
        <ele>249.67</ele>
        <time>2017-02-25T13:52:36Z</time>
      </trkpt>
      <trkpt lat="45.25613" lon="5.02856">
        <ele>249.67</ele>
        <time>2017-02-25T13:52:37Z</time>
      </trkpt>
      <trkpt lat="45.25613" lon="5.02855">
        <ele>249.75</ele>
        <time>2017-02-25T13:52:38Z</time>
      </trkpt>
      <trkpt lat="45.25613" lon="5.02853">
        <ele>249.76</ele>
        <time>2017-02-25T13:52:39Z</time>
      </trkpt>
      <trkpt lat="45.25613" lon="5.02852">
        <ele>249.77</ele>
        <time>2017-02-25T13:52:40Z</time>
      </trkpt>
      <trkpt lat="45.25613" lon="5.02851">
        <ele>249.85</ele>
        <time>2017-02-25T13:52:41Z</time>
      </trkpt>
      <trkpt lat="45.25613" lon="5.02851">
        <ele>249.86</ele>
        <time>2017-02-25T13:52:42Z</time>
      </trkpt>
      <trkpt lat="45.25613" lon="5.02851">
        <ele>249.87</ele>
        <time>2017-02-25T13:52:43Z</time>
      </trkpt>
      <trkpt lat="45.25613" lon="5.02851">
        <ele>249.87</ele>
        <time>2017-02-25T13:52:44Z</time>
      </trkpt>
      <trkpt lat="45.25613" lon="5.02851">
        <ele>249.87</ele>
        <time>2017-02-25T13:52:45Z</time>
      </trkpt>
      <trkpt lat="45.25613" lon="5.02851">
        <ele>249.87</ele>
        <time>2017-02-25T13:52:46Z</time>
      </trkpt>
      <trkpt lat="45.25613" lon="5.02851">
        <ele>249.87</ele>
        <time>2017-02-25T13:52:47Z</time>
      </trkpt>
      <trkpt lat="45.25613" lon="5.02851">
        <ele>249.87</ele>
        <time>2017-02-25T13:52:48Z</time>
      </trkpt>
      <trkpt lat="45.25613" lon="5.02851">
        <ele>249.87</ele>
        <time>2017-02-25T13:52:49Z</time>
      </trkpt>
      <trkpt lat="45.25613" lon="5.02851">
        <ele>249.87</ele>
        <time>2017-02-25T13:52:50Z</time>
      </trkpt>
      <trkpt lat="45.25613" lon="5.02851">
        <ele>249.87</ele>
        <time>2017-02-25T13:52:51Z</time>
      </trkpt>
      <trkpt lat="45.25613" lon="5.02851">
        <ele>249.87</ele>
        <time>2017-02-25T13:52:52Z</time>
      </trkpt>
      <trkpt lat="45.25613" lon="5.02851">
        <ele>249.87</ele>
        <time>2017-02-25T13:52:53Z</time>
      </trkpt>
      <trkpt lat="45.25613" lon="5.02851">
        <ele>249.87</ele>
        <time>2017-02-25T13:52:54Z</time>
      </trkpt>
      <trkpt lat="45.25613" lon="5.02851">
        <ele>249.87</ele>
        <time>2017-02-25T13:52:55Z</time>
      </trkpt>
      <trkpt lat="45.25613" lon="5.02851">
        <ele>249.87</ele>
        <time>2017-02-25T13:52:56Z</time>
      </trkpt>
      <trkpt lat="45.25613" lon="5.02851">
        <ele>249.87</ele>
        <time>2017-02-25T13:52:57Z</time>
      </trkpt>
      <trkpt lat="45.25613" lon="5.02851">
        <ele>249.87</ele>
        <time>2017-02-25T13:52:58Z</time>
      </trkpt>
      <trkpt lat="45.25613" lon="5.02851">
        <ele>249.87</ele>
        <time>2017-02-25T13:52:59Z</time>
      </trkpt>
      <trkpt lat="45.25613" lon="5.02851">
        <ele>249.87</ele>
        <time>2017-02-25T13:53:00Z</time>
      </trkpt>
      <trkpt lat="45.25613" lon="5.02851">
        <ele>249.87</ele>
        <time>2017-02-25T13:53:01Z</time>
      </trkpt>
      <trkpt lat="45.25613" lon="5.02851">
        <ele>249.87</ele>
        <time>2017-02-25T13:53:02Z</time>
      </trkpt>
      <trkpt lat="45.25613" lon="5.02851">
        <ele>249.87</ele>
        <time>2017-02-25T13:53:03Z</time>
      </trkpt>
      <trkpt lat="45.25613" lon="5.02851">
        <ele>249.87</ele>
        <time>2017-02-25T13:53:04Z</time>
      </trkpt>
      <trkpt lat="45.25613" lon="5.02851">
        <ele>249.87</ele>
        <time>2017-02-25T13:53:05Z</time>
      </trkpt>
      <trkpt lat="45.25618" lon="5.02842">
        <ele>249.71</ele>
        <time>2017-02-25T13:53:06Z</time>
      </trkpt>
      <trkpt lat="45.25619" lon="5.02842">
        <ele>249.68</ele>
        <time>2017-02-25T13:53:07Z</time>
      </trkpt>
      <trkpt lat="45.25619" lon="5.02841">
        <ele>249.67</ele>
        <time>2017-02-25T13:53:08Z</time>
      </trkpt>
      <trkpt lat="45.25621" lon="5.0284">
        <ele>249.59</ele>
        <time>2017-02-25T13:53:09Z</time>
      </trkpt>
      <trkpt lat="45.25621" lon="5.02839">
        <ele>249.57</ele>
        <time>2017-02-25T13:53:10Z</time>
      </trkpt>
      <trkpt lat="45.25622" lon="5.02838">
        <ele>249.57</ele>
        <time>2017-02-25T13:53:11Z</time>
      </trkpt>
      <trkpt lat="45.25623" lon="5.02837">
        <ele>249.57</ele>
        <time>2017-02-25T13:53:12Z</time>
      </trkpt>
      <trkpt lat="45.25624" lon="5.02836">
        <ele>249.57</ele>
        <time>2017-02-25T13:53:13Z</time>
      </trkpt>
      <trkpt lat="45.25625" lon="5.02834">
        <ele>249.57</ele>
        <time>2017-02-25T13:53:14Z</time>
      </trkpt>
      <trkpt lat="45.25625" lon="5.02833">
        <ele>249.57</ele>
        <time>2017-02-25T13:53:15Z</time>
      </trkpt>
      <trkpt lat="45.25626" lon="5.02833">
        <ele>249.49</ele>
        <time>2017-02-25T13:53:16Z</time>
      </trkpt>
      <trkpt lat="45.25626" lon="5.02833">
        <ele>249.47</ele>
        <time>2017-02-25T13:53:17Z</time>
      </trkpt>
      <trkpt lat="45.25626" lon="5.02833">
        <ele>249.47</ele>
        <time>2017-02-25T13:53:18Z</time>
      </trkpt>
      <trkpt lat="45.25626" lon="5.02833">
        <ele>249.47</ele>
        <time>2017-02-25T13:53:19Z</time>
      </trkpt>
      <trkpt lat="45.25626" lon="5.02833">
        <ele>249.47</ele>
        <time>2017-02-25T13:53:20Z</time>
      </trkpt>
      <trkpt lat="45.25626" lon="5.02833">
        <ele>249.47</ele>
        <time>2017-02-25T13:53:21Z</time>
      </trkpt>
      <trkpt lat="45.25623" lon="5.02837">
        <ele>249.23</ele>
        <time>2017-02-25T13:53:22Z</time>
      </trkpt>
      <trkpt lat="45.25622" lon="5.02839">
        <ele>249.1</ele>
        <time>2017-02-25T13:53:23Z</time>
      </trkpt>
      <trkpt lat="45.25621" lon="5.0284">
        <ele>248.99</ele>
        <time>2017-02-25T13:53:24Z</time>
      </trkpt>
      <trkpt lat="45.25621" lon="5.02842">
        <ele>248.97</ele>
        <time>2017-02-25T13:53:25Z</time>
      </trkpt>
      <trkpt lat="45.25621" lon="5.02843">
        <ele>248.89</ele>
        <time>2017-02-25T13:53:26Z</time>
      </trkpt>
      <trkpt lat="45.25621" lon="5.02844">
        <ele>248.79</ele>
        <time>2017-02-25T13:53:27Z</time>
      </trkpt>
      <trkpt lat="45.2562" lon="5.02846">
        <ele>248.77</ele>
        <time>2017-02-25T13:53:28Z</time>
      </trkpt>
      <trkpt lat="45.2562" lon="5.02847">
        <ele>248.69</ele>
        <time>2017-02-25T13:53:29Z</time>
      </trkpt>
      <trkpt lat="45.25619" lon="5.02849">
        <ele>248.59</ele>
        <time>2017-02-25T13:53:30Z</time>
      </trkpt>
      <trkpt lat="45.25619" lon="5.0285">
        <ele>248.49</ele>
        <time>2017-02-25T13:53:31Z</time>
      </trkpt>
      <trkpt lat="45.25618" lon="5.02851">
        <ele>248.47</ele>
        <time>2017-02-25T13:53:32Z</time>
      </trkpt>
      <trkpt lat="45.25618" lon="5.02852">
        <ele>248.39</ele>
        <time>2017-02-25T13:53:33Z</time>
      </trkpt>
      <trkpt lat="45.25617" lon="5.02853">
        <ele>248.29</ele>
        <time>2017-02-25T13:53:34Z</time>
      </trkpt>
      <trkpt lat="45.25617" lon="5.02854">
        <ele>248.27</ele>
        <time>2017-02-25T13:53:35Z</time>
      </trkpt>
      <trkpt lat="45.25617" lon="5.02854">
        <ele>248.27</ele>
        <time>2017-02-25T13:53:36Z</time>
      </trkpt>
      <trkpt lat="45.25617" lon="5.02854">
        <ele>248.27</ele>
        <time>2017-02-25T13:53:37Z</time>
      </trkpt>
      <trkpt lat="45.25617" lon="5.02854">
        <ele>248.27</ele>
        <time>2017-02-25T13:53:38Z</time>
      </trkpt>
      <trkpt lat="45.25617" lon="5.02854">
        <ele>248.27</ele>
        <time>2017-02-25T13:53:39Z</time>
      </trkpt>
      <trkpt lat="45.25617" lon="5.02854">
        <ele>248.27</ele>
        <time>2017-02-25T13:53:40Z</time>
      </trkpt>
      <trkpt lat="45.25617" lon="5.02854">
        <ele>248.27</ele>
        <time>2017-02-25T13:53:41Z</time>
      </trkpt>
      <trkpt lat="45.25617" lon="5.02854">
        <ele>248.27</ele>
        <time>2017-02-25T13:53:42Z</time>
      </trkpt>
      <trkpt lat="45.25617" lon="5.02854">
        <ele>248.27</ele>
        <time>2017-02-25T13:53:43Z</time>
      </trkpt>
      <trkpt lat="45.25617" lon="5.02854">
        <ele>248.27</ele>
        <time>2017-02-25T13:53:44Z</time>
      </trkpt>
      <trkpt lat="45.25617" lon="5.02854">
        <ele>248.27</ele>
        <time>2017-02-25T13:53:45Z</time>
      </trkpt>
      <trkpt lat="45.25617" lon="5.02854">
        <ele>248.27</ele>
        <time>2017-02-25T13:53:46Z</time>
      </trkpt>
      <trkpt lat="45.25617" lon="5.02854">
        <ele>248.27</ele>
        <time>2017-02-25T13:53:47Z</time>
      </trkpt>
      <trkpt lat="45.25617" lon="5.02854">
        <ele>248.27</ele>
        <time>2017-02-25T13:53:48Z</time>
      </trkpt>
      <trkpt lat="45.25617" lon="5.02854">
        <ele>248.27</ele>
        <time>2017-02-25T13:53:49Z</time>
      </trkpt>
      <trkpt lat="45.25617" lon="5.02854">
        <ele>248.27</ele>
        <time>2017-02-25T13:53:50Z</time>
      </trkpt>
      <trkpt lat="45.25617" lon="5.02854">
        <ele>248.27</ele>
        <time>2017-02-25T13:53:51Z</time>
      </trkpt>
      <trkpt lat="45.25617" lon="5.02854">
        <ele>248.27</ele>
        <time>2017-02-25T13:53:52Z</time>
      </trkpt>
      <trkpt lat="45.25617" lon="5.02854">
        <ele>248.27</ele>
        <time>2017-02-25T13:53:53Z</time>
      </trkpt>
      <trkpt lat="45.25617" lon="5.02854">
        <ele>248.27</ele>
        <time>2017-02-25T13:53:54Z</time>
      </trkpt>
      <trkpt lat="45.25617" lon="5.02854">
        <ele>248.27</ele>
        <time>2017-02-25T13:53:55Z</time>
      </trkpt>
      <trkpt lat="45.25617" lon="5.02854">
        <ele>248.27</ele>
        <time>2017-02-25T13:53:56Z</time>
      </trkpt>
      <trkpt lat="45.25617" lon="5.02854">
        <ele>248.27</ele>
        <time>2017-02-25T13:53:57Z</time>
      </trkpt>
      <trkpt lat="45.25617" lon="5.02854">
        <ele>248.27</ele>
        <time>2017-02-25T13:53:58Z</time>
      </trkpt>
      <trkpt lat="45.25617" lon="5.02854">
        <ele>248.27</ele>
        <time>2017-02-25T13:53:59Z</time>
      </trkpt>
      <trkpt lat="45.25617" lon="5.02854">
        <ele>248.27</ele>
        <time>2017-02-25T13:54:00Z</time>
      </trkpt>
      <trkpt lat="45.25617" lon="5.02854">
        <ele>248.27</ele>
        <time>2017-02-25T13:54:01Z</time>
      </trkpt>
      <trkpt lat="45.25617" lon="5.02854">
        <ele>248.27</ele>
        <time>2017-02-25T13:54:02Z</time>
      </trkpt>
      <trkpt lat="45.25617" lon="5.02854">
        <ele>248.27</ele>
        <time>2017-02-25T13:54:03Z</time>
      </trkpt>
      <trkpt lat="45.25617" lon="5.02854">
        <ele>248.27</ele>
        <time>2017-02-25T13:54:04Z</time>
      </trkpt>
      <trkpt lat="45.25617" lon="5.02854">
        <ele>248.27</ele>
        <time>2017-02-25T13:54:05Z</time>
      </trkpt>
      <trkpt lat="45.25617" lon="5.02854">
        <ele>248.27</ele>
        <time>2017-02-25T13:54:06Z</time>
      </trkpt>
      <trkpt lat="45.25617" lon="5.02854">
        <ele>248.27</ele>
        <time>2017-02-25T13:54:07Z</time>
      </trkpt>
      <trkpt lat="45.25617" lon="5.02854">
        <ele>248.27</ele>
        <time>2017-02-25T13:54:08Z</time>
      </trkpt>
      <trkpt lat="45.25617" lon="5.02854">
        <ele>248.27</ele>
        <time>2017-02-25T13:54:09Z</time>
      </trkpt>
      <trkpt lat="45.25617" lon="5.02854">
        <ele>248.27</ele>
        <time>2017-02-25T13:54:10Z</time>
      </trkpt>
      <trkpt lat="45.25617" lon="5.02854">
        <ele>248.27</ele>
        <time>2017-02-25T13:54:11Z</time>
      </trkpt>
      <trkpt lat="45.25617" lon="5.02854">
        <ele>248.27</ele>
        <time>2017-02-25T13:54:12Z</time>
      </trkpt>
      <trkpt lat="45.25617" lon="5.02854">
        <ele>248.27</ele>
        <time>2017-02-25T13:54:13Z</time>
      </trkpt>
      <trkpt lat="45.25617" lon="5.02854">
        <ele>248.27</ele>
        <time>2017-02-25T13:54:14Z</time>
      </trkpt>
      <trkpt lat="45.25617" lon="5.02854">
        <ele>248.27</ele>
        <time>2017-02-25T13:54:15Z</time>
      </trkpt>
      <trkpt lat="45.25617" lon="5.02854">
        <ele>248.27</ele>
        <time>2017-02-25T13:54:16Z</time>
      </trkpt>
      <trkpt lat="45.25617" lon="5.02854">
        <ele>248.27</ele>
        <time>2017-02-25T13:54:17Z</time>
      </trkpt>
      <trkpt lat="45.25617" lon="5.02854">
        <ele>248.27</ele>
        <time>2017-02-25T13:54:18Z</time>
      </trkpt>
      <trkpt lat="45.25617" lon="5.02854">
        <ele>248.27</ele>
        <time>2017-02-25T13:54:19Z</time>
      </trkpt>
      <trkpt lat="45.25617" lon="5.02854">
        <ele>248.27</ele>
        <time>2017-02-25T13:54:20Z</time>
      </trkpt>
      <trkpt lat="45.25617" lon="5.02854">
        <ele>248.27</ele>
        <time>2017-02-25T13:54:21Z</time>
      </trkpt>
      <trkpt lat="45.25617" lon="5.02854">
        <ele>248.27</ele>
        <time>2017-02-25T13:54:22Z</time>
      </trkpt>
      <trkpt lat="45.25617" lon="5.02854">
        <ele>248.27</ele>
        <time>2017-02-25T13:54:23Z</time>
      </trkpt>
      <trkpt lat="45.25617" lon="5.02854">
        <ele>248.27</ele>
        <time>2017-02-25T13:54:24Z</time>
      </trkpt>
      <trkpt lat="45.25617" lon="5.02854">
        <ele>248.27</ele>
        <time>2017-02-25T13:54:25Z</time>
      </trkpt>
      <trkpt lat="45.25617" lon="5.02854">
        <ele>248.27</ele>
        <time>2017-02-25T13:54:26Z</time>
      </trkpt>
      <trkpt lat="45.25617" lon="5.02854">
        <ele>248.27</ele>
        <time>2017-02-25T13:54:27Z</time>
      </trkpt>
      <trkpt lat="45.25617" lon="5.02854">
        <ele>248.27</ele>
        <time>2017-02-25T13:54:28Z</time>
      </trkpt>
      <trkpt lat="45.25617" lon="5.02854">
        <ele>248.27</ele>
        <time>2017-02-25T13:54:29Z</time>
      </trkpt>
      <trkpt lat="45.25617" lon="5.02854">
        <ele>248.27</ele>
        <time>2017-02-25T13:54:30Z</time>
      </trkpt>
      <trkpt lat="45.25617" lon="5.02854">
        <ele>248.27</ele>
        <time>2017-02-25T13:54:31Z</time>
      </trkpt>
      <trkpt lat="45.25617" lon="5.02854">
        <ele>248.27</ele>
        <time>2017-02-25T13:54:32Z</time>
      </trkpt>
      <trkpt lat="45.25617" lon="5.02854">
        <ele>248.27</ele>
        <time>2017-02-25T13:54:33Z</time>
      </trkpt>
      <trkpt lat="45.25617" lon="5.02854">
        <ele>248.27</ele>
        <time>2017-02-25T13:54:34Z</time>
      </trkpt>
      <trkpt lat="45.25617" lon="5.02854">
        <ele>248.27</ele>
        <time>2017-02-25T13:54:35Z</time>
      </trkpt>
      <trkpt lat="45.25617" lon="5.02854">
        <ele>248.27</ele>
        <time>2017-02-25T13:54:36Z</time>
      </trkpt>
      <trkpt lat="45.25617" lon="5.02854">
        <ele>248.27</ele>
        <time>2017-02-25T13:54:37Z</time>
      </trkpt>
      <trkpt lat="45.25617" lon="5.02854">
        <ele>248.27</ele>
        <time>2017-02-25T13:54:38Z</time>
      </trkpt>
      <trkpt lat="45.25617" lon="5.02854">
        <ele>248.27</ele>
        <time>2017-02-25T13:54:39Z</time>
      </trkpt>
      <trkpt lat="45.25617" lon="5.02854">
        <ele>248.27</ele>
        <time>2017-02-25T13:54:40Z</time>
      </trkpt>
      <trkpt lat="45.25617" lon="5.02854">
        <ele>248.27</ele>
        <time>2017-02-25T13:54:41Z</time>
      </trkpt>
      <trkpt lat="45.25617" lon="5.02854">
        <ele>248.27</ele>
        <time>2017-02-25T13:54:42Z</time>
      </trkpt>
      <trkpt lat="45.25617" lon="5.02854">
        <ele>248.27</ele>
        <time>2017-02-25T13:54:43Z</time>
      </trkpt>
      <trkpt lat="45.25617" lon="5.02854">
        <ele>248.27</ele>
        <time>2017-02-25T13:54:44Z</time>
      </trkpt>
      <trkpt lat="45.25617" lon="5.02854">
        <ele>248.27</ele>
        <time>2017-02-25T13:54:45Z</time>
      </trkpt>
      <trkpt lat="45.25617" lon="5.02854">
        <ele>248.27</ele>
        <time>2017-02-25T13:54:46Z</time>
      </trkpt>
      <trkpt lat="45.25617" lon="5.02854">
        <ele>248.27</ele>
        <time>2017-02-25T13:54:47Z</time>
      </trkpt>
      <trkpt lat="45.25617" lon="5.02854">
        <ele>248.27</ele>
        <time>2017-02-25T13:54:48Z</time>
      </trkpt>
      <trkpt lat="45.25617" lon="5.02854">
        <ele>248.27</ele>
        <time>2017-02-25T13:54:49Z</time>
      </trkpt>
      <trkpt lat="45.25617" lon="5.02854">
        <ele>248.27</ele>
        <time>2017-02-25T13:54:50Z</time>
      </trkpt>
      <trkpt lat="45.25617" lon="5.02854">
        <ele>248.27</ele>
        <time>2017-02-25T13:54:51Z</time>
      </trkpt>
      <trkpt lat="45.25617" lon="5.02854">
        <ele>248.27</ele>
        <time>2017-02-25T13:54:52Z</time>
      </trkpt>
      <trkpt lat="45.25617" lon="5.02854">
        <ele>248.27</ele>
        <time>2017-02-25T13:54:53Z</time>
      </trkpt>
      <trkpt lat="45.25617" lon="5.02854">
        <ele>248.27</ele>
        <time>2017-02-25T13:54:54Z</time>
      </trkpt>
      <trkpt lat="45.25617" lon="5.02854">
        <ele>248.27</ele>
        <time>2017-02-25T13:54:55Z</time>
      </trkpt>
      <trkpt lat="45.25617" lon="5.02854">
        <ele>248.27</ele>
        <time>2017-02-25T13:54:56Z</time>
      </trkpt>
      <trkpt lat="45.25617" lon="5.02854">
        <ele>248.27</ele>
        <time>2017-02-25T13:54:57Z</time>
      </trkpt>
      <trkpt lat="45.25617" lon="5.02854">
        <ele>248.27</ele>
        <time>2017-02-25T13:54:58Z</time>
      </trkpt>
      <trkpt lat="45.25617" lon="5.02854">
        <ele>248.27</ele>
        <time>2017-02-25T13:54:59Z</time>
      </trkpt>
      <trkpt lat="45.25617" lon="5.02854">
        <ele>248.27</ele>
        <time>2017-02-25T13:55:00Z</time>
      </trkpt>
      <trkpt lat="45.25617" lon="5.02854">
        <ele>248.27</ele>
        <time>2017-02-25T13:55:01Z</time>
      </trkpt>
      <trkpt lat="45.25617" lon="5.02854">
        <ele>248.27</ele>
        <time>2017-02-25T13:55:02Z</time>
      </trkpt>
      <trkpt lat="45.25617" lon="5.02854">
        <ele>248.27</ele>
        <time>2017-02-25T13:55:03Z</time>
      </trkpt>
      <trkpt lat="45.25617" lon="5.02854">
        <ele>248.27</ele>
        <time>2017-02-25T13:55:04Z</time>
      </trkpt>
      <trkpt lat="45.25617" lon="5.02854">
        <ele>248.27</ele>
        <time>2017-02-25T13:55:05Z</time>
      </trkpt>
      <trkpt lat="45.25617" lon="5.02854">
        <ele>248.27</ele>
        <time>2017-02-25T13:55:06Z</time>
      </trkpt>
      <trkpt lat="45.25617" lon="5.02854">
        <ele>248.27</ele>
        <time>2017-02-25T13:55:07Z</time>
      </trkpt>
      <trkpt lat="45.25617" lon="5.02854">
        <ele>248.27</ele>
        <time>2017-02-25T13:55:08Z</time>
      </trkpt>
      <trkpt lat="45.25617" lon="5.02854">
        <ele>248.27</ele>
        <time>2017-02-25T13:55:09Z</time>
      </trkpt>
      <trkpt lat="45.25617" lon="5.02854">
        <ele>248.27</ele>
        <time>2017-02-25T13:55:10Z</time>
      </trkpt>
      <trkpt lat="45.25617" lon="5.02854">
        <ele>248.27</ele>
        <time>2017-02-25T13:55:11Z</time>
      </trkpt>
      <trkpt lat="45.25617" lon="5.02854">
        <ele>248.27</ele>
        <time>2017-02-25T13:55:12Z</time>
      </trkpt>
      <trkpt lat="45.25617" lon="5.02854">
        <ele>248.27</ele>
        <time>2017-02-25T13:55:13Z</time>
      </trkpt>
      <trkpt lat="45.25617" lon="5.02854">
        <ele>248.27</ele>
        <time>2017-02-25T13:55:14Z</time>
      </trkpt>
      <trkpt lat="45.25617" lon="5.02854">
        <ele>248.27</ele>
        <time>2017-02-25T13:55:15Z</time>
      </trkpt>
      <trkpt lat="45.25617" lon="5.02854">
        <ele>248.27</ele>
        <time>2017-02-25T13:55:16Z</time>
      </trkpt>
      <trkpt lat="45.25617" lon="5.02854">
        <ele>248.27</ele>
        <time>2017-02-25T13:55:17Z</time>
      </trkpt>
      <trkpt lat="45.25617" lon="5.02854">
        <ele>248.27</ele>
        <time>2017-02-25T13:55:18Z</time>
      </trkpt>
      <trkpt lat="45.25617" lon="5.02854">
        <ele>248.27</ele>
        <time>2017-02-25T13:55:19Z</time>
      </trkpt>
      <trkpt lat="45.25617" lon="5.02854">
        <ele>248.27</ele>
        <time>2017-02-25T13:55:20Z</time>
      </trkpt>
      <trkpt lat="45.25617" lon="5.02854">
        <ele>248.27</ele>
        <time>2017-02-25T13:55:21Z</time>
      </trkpt>
      <trkpt lat="45.25617" lon="5.02854">
        <ele>248.27</ele>
        <time>2017-02-25T13:55:22Z</time>
      </trkpt>
      <trkpt lat="45.25617" lon="5.02854">
        <ele>248.27</ele>
        <time>2017-02-25T13:55:23Z</time>
      </trkpt>
      <trkpt lat="45.25617" lon="5.02854">
        <ele>248.27</ele>
        <time>2017-02-25T13:55:24Z</time>
      </trkpt>
      <trkpt lat="45.25617" lon="5.02854">
        <ele>248.27</ele>
        <time>2017-02-25T13:55:25Z</time>
      </trkpt>
      <trkpt lat="45.25617" lon="5.02854">
        <ele>248.27</ele>
        <time>2017-02-25T13:55:26Z</time>
      </trkpt>
      <trkpt lat="45.25617" lon="5.02854">
        <ele>248.27</ele>
        <time>2017-02-25T13:55:27Z</time>
      </trkpt>
      <trkpt lat="45.25617" lon="5.02854">
        <ele>248.27</ele>
        <time>2017-02-25T13:55:28Z</time>
      </trkpt>
      <trkpt lat="45.25617" lon="5.02854">
        <ele>248.27</ele>
        <time>2017-02-25T13:55:29Z</time>
      </trkpt>
      <trkpt lat="45.25617" lon="5.02854">
        <ele>248.27</ele>
        <time>2017-02-25T13:55:30Z</time>
      </trkpt>
      <trkpt lat="45.25617" lon="5.02854">
        <ele>248.27</ele>
        <time>2017-02-25T13:55:31Z</time>
      </trkpt>
      <trkpt lat="45.25617" lon="5.02854">
        <ele>248.27</ele>
        <time>2017-02-25T13:55:32Z</time>
      </trkpt>
      <trkpt lat="45.25617" lon="5.02854">
        <ele>248.27</ele>
        <time>2017-02-25T13:55:33Z</time>
      </trkpt>
      <trkpt lat="45.25617" lon="5.02854">
        <ele>248.27</ele>
        <time>2017-02-25T13:55:34Z</time>
      </trkpt>
      <trkpt lat="45.25617" lon="5.02854">
        <ele>248.27</ele>
        <time>2017-02-25T13:55:35Z</time>
      </trkpt>
      <trkpt lat="45.25617" lon="5.02854">
        <ele>248.27</ele>
        <time>2017-02-25T13:55:36Z</time>
      </trkpt>
      <trkpt lat="45.25617" lon="5.02854">
        <ele>248.27</ele>
        <time>2017-02-25T13:55:37Z</time>
      </trkpt>
      <trkpt lat="45.25617" lon="5.02854">
        <ele>248.27</ele>
        <time>2017-02-25T13:55:38Z</time>
      </trkpt>
      <trkpt lat="45.25617" lon="5.02854">
        <ele>248.27</ele>
        <time>2017-02-25T13:55:39Z</time>
      </trkpt>
      <trkpt lat="45.25617" lon="5.02854">
        <ele>248.27</ele>
        <time>2017-02-25T13:55:40Z</time>
      </trkpt>
      <trkpt lat="45.25617" lon="5.02854">
        <ele>248.27</ele>
        <time>2017-02-25T13:55:41Z</time>
      </trkpt>
      <trkpt lat="45.25617" lon="5.02854">
        <ele>248.27</ele>
        <time>2017-02-25T13:55:42Z</time>
      </trkpt>
      <trkpt lat="45.25617" lon="5.02854">
        <ele>248.27</ele>
        <time>2017-02-25T13:55:43Z</time>
      </trkpt>
      <trkpt lat="45.25617" lon="5.02854">
        <ele>248.27</ele>
        <time>2017-02-25T13:55:44Z</time>
      </trkpt>
      <trkpt lat="45.25617" lon="5.02854">
        <ele>248.27</ele>
        <time>2017-02-25T13:55:45Z</time>
      </trkpt>
      <trkpt lat="45.25617" lon="5.02854">
        <ele>248.27</ele>
        <time>2017-02-25T13:55:46Z</time>
      </trkpt>
      <trkpt lat="45.25617" lon="5.02854">
        <ele>248.27</ele>
        <time>2017-02-25T13:55:47Z</time>
      </trkpt>
      <trkpt lat="45.25617" lon="5.02854">
        <ele>248.27</ele>
        <time>2017-02-25T13:55:48Z</time>
      </trkpt>
      <trkpt lat="45.25617" lon="5.02854">
        <ele>248.27</ele>
        <time>2017-02-25T13:55:49Z</time>
      </trkpt>
      <trkpt lat="45.25617" lon="5.02854">
        <ele>248.27</ele>
        <time>2017-02-25T13:55:50Z</time>
      </trkpt>
      <trkpt lat="45.25617" lon="5.02854">
        <ele>248.27</ele>
        <time>2017-02-25T13:55:51Z</time>
      </trkpt>
      <trkpt lat="45.25617" lon="5.02854">
        <ele>248.27</ele>
        <time>2017-02-25T13:55:52Z</time>
      </trkpt>
      <trkpt lat="45.25617" lon="5.02854">
        <ele>248.27</ele>
        <time>2017-02-25T13:55:53Z</time>
      </trkpt>
      <trkpt lat="45.25617" lon="5.02854">
        <ele>248.27</ele>
        <time>2017-02-25T13:55:54Z</time>
      </trkpt>
      <trkpt lat="45.25617" lon="5.02854">
        <ele>248.27</ele>
        <time>2017-02-25T13:55:55Z</time>
      </trkpt>
      <trkpt lat="45.25617" lon="5.02854">
        <ele>248.27</ele>
        <time>2017-02-25T13:55:56Z</time>
      </trkpt>
      <trkpt lat="45.25617" lon="5.02854">
        <ele>248.27</ele>
        <time>2017-02-25T13:55:57Z</time>
      </trkpt>
      <trkpt lat="45.25617" lon="5.02854">
        <ele>248.27</ele>
        <time>2017-02-25T13:55:58Z</time>
      </trkpt>
      <trkpt lat="45.25617" lon="5.02854">
        <ele>248.27</ele>
        <time>2017-02-25T13:55:59Z</time>
      </trkpt>
      <trkpt lat="45.25617" lon="5.02854">
        <ele>248.27</ele>
        <time>2017-02-25T13:56:00Z</time>
      </trkpt>
      <trkpt lat="45.25617" lon="5.02854">
        <ele>248.27</ele>
        <time>2017-02-25T13:56:01Z</time>
      </trkpt>
      <trkpt lat="45.25617" lon="5.02854">
        <ele>248.27</ele>
        <time>2017-02-25T13:56:02Z</time>
      </trkpt>
      <trkpt lat="45.25617" lon="5.02854">
        <ele>248.27</ele>
        <time>2017-02-25T13:56:03Z</time>
      </trkpt>
      <trkpt lat="45.25617" lon="5.02854">
        <ele>248.27</ele>
        <time>2017-02-25T13:56:04Z</time>
      </trkpt>
      <trkpt lat="45.25617" lon="5.02854">
        <ele>248.27</ele>
        <time>2017-02-25T13:56:05Z</time>
      </trkpt>
      <trkpt lat="45.25617" lon="5.02854">
        <ele>248.27</ele>
        <time>2017-02-25T13:56:06Z</time>
      </trkpt>
      <trkpt lat="45.25617" lon="5.02854">
        <ele>248.27</ele>
        <time>2017-02-25T13:56:07Z</time>
      </trkpt>
      <trkpt lat="45.25617" lon="5.02854">
        <ele>248.27</ele>
        <time>2017-02-25T13:56:08Z</time>
      </trkpt>
      <trkpt lat="45.25617" lon="5.02854">
        <ele>248.27</ele>
        <time>2017-02-25T13:56:09Z</time>
      </trkpt>
      <trkpt lat="45.25617" lon="5.02854">
        <ele>248.27</ele>
        <time>2017-02-25T13:56:10Z</time>
      </trkpt>
      <trkpt lat="45.25617" lon="5.02854">
        <ele>248.27</ele>
        <time>2017-02-25T13:56:11Z</time>
      </trkpt>
      <trkpt lat="45.25617" lon="5.02854">
        <ele>248.27</ele>
        <time>2017-02-25T13:56:12Z</time>
      </trkpt>
      <trkpt lat="45.25617" lon="5.02854">
        <ele>248.27</ele>
        <time>2017-02-25T13:56:13Z</time>
      </trkpt>
      <trkpt lat="45.25617" lon="5.02854">
        <ele>248.27</ele>
        <time>2017-02-25T13:56:14Z</time>
      </trkpt>
      <trkpt lat="45.25617" lon="5.02854">
        <ele>248.27</ele>
        <time>2017-02-25T13:56:15Z</time>
      </trkpt>
      <trkpt lat="45.25617" lon="5.02854">
        <ele>248.27</ele>
        <time>2017-02-25T13:56:16Z</time>
      </trkpt>
      <trkpt lat="45.25617" lon="5.02854">
        <ele>248.27</ele>
        <time>2017-02-25T13:56:17Z</time>
      </trkpt>
      <trkpt lat="45.25617" lon="5.02854">
        <ele>248.27</ele>
        <time>2017-02-25T13:56:18Z</time>
      </trkpt>
      <trkpt lat="45.25617" lon="5.02854">
        <ele>248.27</ele>
        <time>2017-02-25T13:56:19Z</time>
      </trkpt>
      <trkpt lat="45.25617" lon="5.02854">
        <ele>248.27</ele>
        <time>2017-02-25T13:56:20Z</time>
      </trkpt>
      <trkpt lat="45.25617" lon="5.02854">
        <ele>248.27</ele>
        <time>2017-02-25T13:56:21Z</time>
      </trkpt>
      <trkpt lat="45.25617" lon="5.02854">
        <ele>248.27</ele>
        <time>2017-02-25T13:56:22Z</time>
      </trkpt>
      <trkpt lat="45.25617" lon="5.02854">
        <ele>248.27</ele>
        <time>2017-02-25T13:56:23Z</time>
      </trkpt>
      <trkpt lat="45.25617" lon="5.02854">
        <ele>248.27</ele>
        <time>2017-02-25T13:56:24Z</time>
      </trkpt>
      <trkpt lat="45.25617" lon="5.02854">
        <ele>248.27</ele>
        <time>2017-02-25T13:56:25Z</time>
      </trkpt>
      <trkpt lat="45.25617" lon="5.02854">
        <ele>248.27</ele>
        <time>2017-02-25T13:56:26Z</time>
      </trkpt>
      <trkpt lat="45.25617" lon="5.02854">
        <ele>248.27</ele>
        <time>2017-02-25T13:56:27Z</time>
      </trkpt>
      <trkpt lat="45.25617" lon="5.02854">
        <ele>248.27</ele>
        <time>2017-02-25T13:56:28Z</time>
      </trkpt>
      <trkpt lat="45.25617" lon="5.02854">
        <ele>248.27</ele>
        <time>2017-02-25T13:56:29Z</time>
      </trkpt>
      <trkpt lat="45.25617" lon="5.02854">
        <ele>248.27</ele>
        <time>2017-02-25T13:56:30Z</time>
      </trkpt>
      <trkpt lat="45.25617" lon="5.02854">
        <ele>248.27</ele>
        <time>2017-02-25T13:56:31Z</time>
      </trkpt>
      <trkpt lat="45.25617" lon="5.02854">
        <ele>248.27</ele>
        <time>2017-02-25T13:56:32Z</time>
      </trkpt>
      <trkpt lat="45.25617" lon="5.02854">
        <ele>248.27</ele>
        <time>2017-02-25T13:56:33Z</time>
      </trkpt>
      <trkpt lat="45.25617" lon="5.02854">
        <ele>248.27</ele>
        <time>2017-02-25T13:56:34Z</time>
      </trkpt>
      <trkpt lat="45.25617" lon="5.02854">
        <ele>248.27</ele>
        <time>2017-02-25T13:56:35Z</time>
      </trkpt>
      <trkpt lat="45.25617" lon="5.02854">
        <ele>248.27</ele>
        <time>2017-02-25T13:56:36Z</time>
      </trkpt>
      <trkpt lat="45.25617" lon="5.02854">
        <ele>248.27</ele>
        <time>2017-02-25T13:56:37Z</time>
      </trkpt>
      <trkpt lat="45.25617" lon="5.02854">
        <ele>248.27</ele>
        <time>2017-02-25T13:56:38Z</time>
      </trkpt>
      <trkpt lat="45.25617" lon="5.02854">
        <ele>248.27</ele>
        <time>2017-02-25T13:56:39Z</time>
      </trkpt>
      <trkpt lat="45.25617" lon="5.02854">
        <ele>248.27</ele>
        <time>2017-02-25T13:56:40Z</time>
      </trkpt>
      <trkpt lat="45.25617" lon="5.02854">
        <ele>248.27</ele>
        <time>2017-02-25T13:56:41Z</time>
      </trkpt>
      <trkpt lat="45.25617" lon="5.02854">
        <ele>248.27</ele>
        <time>2017-02-25T13:56:42Z</time>
      </trkpt>
      <trkpt lat="45.25617" lon="5.02854">
        <ele>248.27</ele>
        <time>2017-02-25T13:56:43Z</time>
      </trkpt>
      <trkpt lat="45.25617" lon="5.02854">
        <ele>248.27</ele>
        <time>2017-02-25T13:56:44Z</time>
      </trkpt>
      <trkpt lat="45.25617" lon="5.02854">
        <ele>248.27</ele>
        <time>2017-02-25T13:56:45Z</time>
      </trkpt>
      <trkpt lat="45.25617" lon="5.02854">
        <ele>248.27</ele>
        <time>2017-02-25T13:56:46Z</time>
      </trkpt>
      <trkpt lat="45.25617" lon="5.02854">
        <ele>248.27</ele>
        <time>2017-02-25T13:56:47Z</time>
      </trkpt>
      <trkpt lat="45.25617" lon="5.02854">
        <ele>248.27</ele>
        <time>2017-02-25T13:56:48Z</time>
      </trkpt>
      <trkpt lat="45.25617" lon="5.02854">
        <ele>248.27</ele>
        <time>2017-02-25T13:56:49Z</time>
      </trkpt>
      <trkpt lat="45.25617" lon="5.02854">
        <ele>248.27</ele>
        <time>2017-02-25T13:56:50Z</time>
      </trkpt>
      <trkpt lat="45.25617" lon="5.02854">
        <ele>248.27</ele>
        <time>2017-02-25T13:56:51Z</time>
      </trkpt>
      <trkpt lat="45.25617" lon="5.02854">
        <ele>248.27</ele>
        <time>2017-02-25T13:56:52Z</time>
      </trkpt>
      <trkpt lat="45.25617" lon="5.02854">
        <ele>248.27</ele>
        <time>2017-02-25T13:56:53Z</time>
      </trkpt>
      <trkpt lat="45.25617" lon="5.02854">
        <ele>248.27</ele>
        <time>2017-02-25T13:56:54Z</time>
      </trkpt>
      <trkpt lat="45.25617" lon="5.02854">
        <ele>248.27</ele>
        <time>2017-02-25T13:56:55Z</time>
      </trkpt>
      <trkpt lat="45.25617" lon="5.02854">
        <ele>248.27</ele>
        <time>2017-02-25T13:56:56Z</time>
      </trkpt>
      <trkpt lat="45.25617" lon="5.02854">
        <ele>248.27</ele>
        <time>2017-02-25T13:56:57Z</time>
      </trkpt>
      <trkpt lat="45.25617" lon="5.02854">
        <ele>248.27</ele>
        <time>2017-02-25T13:56:58Z</time>
      </trkpt>
      <trkpt lat="45.25617" lon="5.02854">
        <ele>248.27</ele>
        <time>2017-02-25T13:56:59Z</time>
      </trkpt>
      <trkpt lat="45.25617" lon="5.02854">
        <ele>248.27</ele>
        <time>2017-02-25T13:57:00Z</time>
      </trkpt>
      <trkpt lat="45.25617" lon="5.02854">
        <ele>248.27</ele>
        <time>2017-02-25T13:57:01Z</time>
      </trkpt>
      <trkpt lat="45.25617" lon="5.02854">
        <ele>248.27</ele>
        <time>2017-02-25T13:57:02Z</time>
      </trkpt>
      <trkpt lat="45.25617" lon="5.02854">
        <ele>248.27</ele>
        <time>2017-02-25T13:57:03Z</time>
      </trkpt>
      <trkpt lat="45.25617" lon="5.02854">
        <ele>248.27</ele>
        <time>2017-02-25T13:57:04Z</time>
      </trkpt>
      <trkpt lat="45.25617" lon="5.02854">
        <ele>248.27</ele>
        <time>2017-02-25T13:57:05Z</time>
      </trkpt>
      <trkpt lat="45.25626" lon="5.02851">
        <ele>249.71</ele>
        <time>2017-02-25T13:57:06Z</time>
      </trkpt>
      <trkpt lat="45.25626" lon="5.02851">
        <ele>249.84</ele>
        <time>2017-02-25T13:57:07Z</time>
      </trkpt>
      <trkpt lat="45.25626" lon="5.02851">
        <ele>249.78</ele>
        <time>2017-02-25T13:57:08Z</time>
      </trkpt>
      <trkpt lat="45.25627" lon="5.02851">
        <ele>249.85</ele>
        <time>2017-02-25T13:57:09Z</time>
      </trkpt>
      <trkpt lat="45.25627" lon="5.02851">
        <ele>249.86</ele>
        <time>2017-02-25T13:57:10Z</time>
      </trkpt>
      <trkpt lat="45.25627" lon="5.02851">
        <ele>249.87</ele>
        <time>2017-02-25T13:57:11Z</time>
      </trkpt>
      <trkpt lat="45.25627" lon="5.02851">
        <ele>249.87</ele>
        <time>2017-02-25T13:57:12Z</time>
      </trkpt>
      <trkpt lat="45.25627" lon="5.02851">
        <ele>249.87</ele>
        <time>2017-02-25T13:57:13Z</time>
      </trkpt>
      <trkpt lat="45.25627" lon="5.02851">
        <ele>249.87</ele>
        <time>2017-02-25T13:57:14Z</time>
      </trkpt>
      <trkpt lat="45.25627" lon="5.02851">
        <ele>249.87</ele>
        <time>2017-02-25T13:57:15Z</time>
      </trkpt>
      <trkpt lat="45.25627" lon="5.02851">
        <ele>249.87</ele>
        <time>2017-02-25T13:57:16Z</time>
      </trkpt>
      <trkpt lat="45.25627" lon="5.02851">
        <ele>249.87</ele>
        <time>2017-02-25T13:57:17Z</time>
      </trkpt>
      <trkpt lat="45.25627" lon="5.02851">
        <ele>249.87</ele>
        <time>2017-02-25T13:57:18Z</time>
      </trkpt>
      <trkpt lat="45.25627" lon="5.02851">
        <ele>249.87</ele>
        <time>2017-02-25T13:57:19Z</time>
      </trkpt>
      <trkpt lat="45.25627" lon="5.02851">
        <ele>249.87</ele>
        <time>2017-02-25T13:57:20Z</time>
      </trkpt>
      <trkpt lat="45.25627" lon="5.02851">
        <ele>249.87</ele>
        <time>2017-02-25T13:57:21Z</time>
      </trkpt>
      <trkpt lat="45.25627" lon="5.02851">
        <ele>249.87</ele>
        <time>2017-02-25T13:57:22Z</time>
      </trkpt>
      <trkpt lat="45.25627" lon="5.02851">
        <ele>249.87</ele>
        <time>2017-02-25T13:57:23Z</time>
      </trkpt>
      <trkpt lat="45.25627" lon="5.02851">
        <ele>249.87</ele>
        <time>2017-02-25T13:57:24Z</time>
      </trkpt>
      <trkpt lat="45.25627" lon="5.02851">
        <ele>249.87</ele>
        <time>2017-02-25T13:57:25Z</time>
      </trkpt>
      <trkpt lat="45.25627" lon="5.02851">
        <ele>249.87</ele>
        <time>2017-02-25T13:57:26Z</time>
      </trkpt>
      <trkpt lat="45.25627" lon="5.02851">
        <ele>249.87</ele>
        <time>2017-02-25T13:57:27Z</time>
      </trkpt>
      <trkpt lat="45.25627" lon="5.02851">
        <ele>249.87</ele>
        <time>2017-02-25T13:57:28Z</time>
      </trkpt>
      <trkpt lat="45.25627" lon="5.02851">
        <ele>249.87</ele>
        <time>2017-02-25T13:57:29Z</time>
      </trkpt>
      <trkpt lat="45.25627" lon="5.02851">
        <ele>249.87</ele>
        <time>2017-02-25T13:57:30Z</time>
      </trkpt>
      <trkpt lat="45.25627" lon="5.02851">
        <ele>249.87</ele>
        <time>2017-02-25T13:57:31Z</time>
      </trkpt>
      <trkpt lat="45.25627" lon="5.02851">
        <ele>249.87</ele>
        <time>2017-02-25T13:57:32Z</time>
      </trkpt>
      <trkpt lat="45.25627" lon="5.02851">
        <ele>249.87</ele>
        <time>2017-02-25T13:57:33Z</time>
      </trkpt>
      <trkpt lat="45.25627" lon="5.02851">
        <ele>249.87</ele>
        <time>2017-02-25T13:57:34Z</time>
      </trkpt>
      <trkpt lat="45.25627" lon="5.02851">
        <ele>249.87</ele>
        <time>2017-02-25T13:57:35Z</time>
      </trkpt>
      <trkpt lat="45.25627" lon="5.02851">
        <ele>249.87</ele>
        <time>2017-02-25T13:57:36Z</time>
      </trkpt>
      <trkpt lat="45.25627" lon="5.02851">
        <ele>249.87</ele>
        <time>2017-02-25T13:57:37Z</time>
      </trkpt>
      <trkpt lat="45.25627" lon="5.02851">
        <ele>249.87</ele>
        <time>2017-02-25T13:57:38Z</time>
      </trkpt>
      <trkpt lat="45.25627" lon="5.02851">
        <ele>249.87</ele>
        <time>2017-02-25T13:57:39Z</time>
      </trkpt>
      <trkpt lat="45.25627" lon="5.02851">
        <ele>249.87</ele>
        <time>2017-02-25T13:57:40Z</time>
      </trkpt>
      <trkpt lat="45.25627" lon="5.02851">
        <ele>249.87</ele>
        <time>2017-02-25T13:57:41Z</time>
      </trkpt>
      <trkpt lat="45.25627" lon="5.02851">
        <ele>249.87</ele>
        <time>2017-02-25T13:57:42Z</time>
      </trkpt>
      <trkpt lat="45.25627" lon="5.02851">
        <ele>249.87</ele>
        <time>2017-02-25T13:57:43Z</time>
      </trkpt>
      <trkpt lat="45.25627" lon="5.02851">
        <ele>249.87</ele>
        <time>2017-02-25T13:57:44Z</time>
      </trkpt>
      <trkpt lat="45.25627" lon="5.02851">
        <ele>249.87</ele>
        <time>2017-02-25T13:57:45Z</time>
      </trkpt>
      <trkpt lat="45.25627" lon="5.02851">
        <ele>249.87</ele>
        <time>2017-02-25T13:57:46Z</time>
      </trkpt>
      <trkpt lat="45.25627" lon="5.02851">
        <ele>249.87</ele>
        <time>2017-02-25T13:57:47Z</time>
      </trkpt>
      <trkpt lat="45.25627" lon="5.02851">
        <ele>249.87</ele>
        <time>2017-02-25T13:57:48Z</time>
      </trkpt>
      <trkpt lat="45.25627" lon="5.02851">
        <ele>249.87</ele>
        <time>2017-02-25T13:57:49Z</time>
      </trkpt>
      <trkpt lat="45.25627" lon="5.02851">
        <ele>249.87</ele>
        <time>2017-02-25T13:57:50Z</time>
      </trkpt>
      <trkpt lat="45.25627" lon="5.02851">
        <ele>249.87</ele>
        <time>2017-02-25T13:57:51Z</time>
      </trkpt>
      <trkpt lat="45.25627" lon="5.02851">
        <ele>249.87</ele>
        <time>2017-02-25T13:57:52Z</time>
      </trkpt>
      <trkpt lat="45.25627" lon="5.02851">
        <ele>249.87</ele>
        <time>2017-02-25T13:57:53Z</time>
      </trkpt>
      <trkpt lat="45.25627" lon="5.02851">
        <ele>249.87</ele>
        <time>2017-02-25T13:57:54Z</time>
      </trkpt>
      <trkpt lat="45.25627" lon="5.02851">
        <ele>249.87</ele>
        <time>2017-02-25T13:57:55Z</time>
      </trkpt>
      <trkpt lat="45.25627" lon="5.02851">
        <ele>249.87</ele>
        <time>2017-02-25T13:57:56Z</time>
      </trkpt>
      <trkpt lat="45.25627" lon="5.02851">
        <ele>249.87</ele>
        <time>2017-02-25T13:57:57Z</time>
      </trkpt>
      <trkpt lat="45.25627" lon="5.02851">
        <ele>249.87</ele>
        <time>2017-02-25T13:57:58Z</time>
      </trkpt>
      <trkpt lat="45.25627" lon="5.02851">
        <ele>249.87</ele>
        <time>2017-02-25T13:57:59Z</time>
      </trkpt>
      <trkpt lat="45.25627" lon="5.02851">
        <ele>249.87</ele>
        <time>2017-02-25T13:58:00Z</time>
      </trkpt>
      <trkpt lat="45.25627" lon="5.02851">
        <ele>249.87</ele>
        <time>2017-02-25T13:58:01Z</time>
      </trkpt>
      <trkpt lat="45.25627" lon="5.02851">
        <ele>249.87</ele>
        <time>2017-02-25T13:58:02Z</time>
      </trkpt>
      <trkpt lat="45.25627" lon="5.02851">
        <ele>249.87</ele>
        <time>2017-02-25T13:58:03Z</time>
      </trkpt>
      <trkpt lat="45.25627" lon="5.02851">
        <ele>249.87</ele>
        <time>2017-02-25T13:58:04Z</time>
      </trkpt>
      <trkpt lat="45.25627" lon="5.02851">
        <ele>249.87</ele>
        <time>2017-02-25T13:58:05Z</time>
      </trkpt>
      <trkpt lat="45.25627" lon="5.02851">
        <ele>249.87</ele>
        <time>2017-02-25T13:58:06Z</time>
      </trkpt>
      <trkpt lat="45.25627" lon="5.02851">
        <ele>249.87</ele>
        <time>2017-02-25T13:58:07Z</time>
      </trkpt>
      <trkpt lat="45.25627" lon="5.02851">
        <ele>249.87</ele>
        <time>2017-02-25T13:58:08Z</time>
      </trkpt>
      <trkpt lat="45.25627" lon="5.02851">
        <ele>249.87</ele>
        <time>2017-02-25T13:58:09Z</time>
      </trkpt>
      <trkpt lat="45.25627" lon="5.02851">
        <ele>249.87</ele>
        <time>2017-02-25T13:58:10Z</time>
      </trkpt>
      <trkpt lat="45.25627" lon="5.02851">
        <ele>249.87</ele>
        <time>2017-02-25T13:58:11Z</time>
      </trkpt>
      <trkpt lat="45.25627" lon="5.02851">
        <ele>249.87</ele>
        <time>2017-02-25T13:58:12Z</time>
      </trkpt>
      <trkpt lat="45.25627" lon="5.02851">
        <ele>249.87</ele>
        <time>2017-02-25T13:58:13Z</time>
      </trkpt>
      <trkpt lat="45.25627" lon="5.02851">
        <ele>249.87</ele>
        <time>2017-02-25T13:58:14Z</time>
      </trkpt>
      <trkpt lat="45.25627" lon="5.02851">
        <ele>249.87</ele>
        <time>2017-02-25T13:58:15Z</time>
      </trkpt>
      <trkpt lat="45.25627" lon="5.02851">
        <ele>249.87</ele>
        <time>2017-02-25T13:58:16Z</time>
      </trkpt>
      <trkpt lat="45.25627" lon="5.02851">
        <ele>249.87</ele>
        <time>2017-02-25T13:58:17Z</time>
      </trkpt>
      <trkpt lat="45.25627" lon="5.02851">
        <ele>249.87</ele>
        <time>2017-02-25T13:58:18Z</time>
      </trkpt>
      <trkpt lat="45.25627" lon="5.02851">
        <ele>249.87</ele>
        <time>2017-02-25T13:58:19Z</time>
      </trkpt>
      <trkpt lat="45.25627" lon="5.02851">
        <ele>249.87</ele>
        <time>2017-02-25T13:58:20Z</time>
      </trkpt>
      <trkpt lat="45.25627" lon="5.02851">
        <ele>249.87</ele>
        <time>2017-02-25T13:58:21Z</time>
      </trkpt>
      <trkpt lat="45.25627" lon="5.02851">
        <ele>249.87</ele>
        <time>2017-02-25T13:58:22Z</time>
      </trkpt>
      <trkpt lat="45.25627" lon="5.02851">
        <ele>249.87</ele>
        <time>2017-02-25T13:58:23Z</time>
      </trkpt>
      <trkpt lat="45.25627" lon="5.02851">
        <ele>249.87</ele>
        <time>2017-02-25T13:58:24Z</time>
      </trkpt>
      <trkpt lat="45.25627" lon="5.02851">
        <ele>249.87</ele>
        <time>2017-02-25T13:58:25Z</time>
      </trkpt>
      <trkpt lat="45.25627" lon="5.02851">
        <ele>249.87</ele>
        <time>2017-02-25T13:58:26Z</time>
      </trkpt>
      <trkpt lat="45.25627" lon="5.02851">
        <ele>249.87</ele>
        <time>2017-02-25T13:58:27Z</time>
      </trkpt>
      <trkpt lat="45.25627" lon="5.02851">
        <ele>249.87</ele>
        <time>2017-02-25T13:58:28Z</time>
      </trkpt>
      <trkpt lat="45.25627" lon="5.02851">
        <ele>249.87</ele>
        <time>2017-02-25T13:58:29Z</time>
      </trkpt>
      <trkpt lat="45.25627" lon="5.02851">
        <ele>249.87</ele>
        <time>2017-02-25T13:58:30Z</time>
      </trkpt>
      <trkpt lat="45.25627" lon="5.02851">
        <ele>249.87</ele>
        <time>2017-02-25T13:58:31Z</time>
      </trkpt>
      <trkpt lat="45.25627" lon="5.02851">
        <ele>249.87</ele>
        <time>2017-02-25T13:58:32Z</time>
      </trkpt>
      <trkpt lat="45.25627" lon="5.02851">
        <ele>249.87</ele>
        <time>2017-02-25T13:58:33Z</time>
      </trkpt>
      <trkpt lat="45.25627" lon="5.02851">
        <ele>249.87</ele>
        <time>2017-02-25T13:58:34Z</time>
      </trkpt>
      <trkpt lat="45.25627" lon="5.02851">
        <ele>249.87</ele>
        <time>2017-02-25T13:58:35Z</time>
      </trkpt>
      <trkpt lat="45.25627" lon="5.02851">
        <ele>249.87</ele>
        <time>2017-02-25T13:58:36Z</time>
      </trkpt>
      <trkpt lat="45.25627" lon="5.02851">
        <ele>249.87</ele>
        <time>2017-02-25T13:58:37Z</time>
      </trkpt>
      <trkpt lat="45.25627" lon="5.02851">
        <ele>249.87</ele>
        <time>2017-02-25T13:58:38Z</time>
      </trkpt>
      <trkpt lat="45.25627" lon="5.02851">
        <ele>249.87</ele>
        <time>2017-02-25T13:58:39Z</time>
      </trkpt>
      <trkpt lat="45.25627" lon="5.02851">
        <ele>249.87</ele>
        <time>2017-02-25T13:58:40Z</time>
      </trkpt>
      <trkpt lat="45.25627" lon="5.02851">
        <ele>249.87</ele>
        <time>2017-02-25T13:58:41Z</time>
      </trkpt>
      <trkpt lat="45.25627" lon="5.02851">
        <ele>249.87</ele>
        <time>2017-02-25T13:58:42Z</time>
      </trkpt>
      <trkpt lat="45.25627" lon="5.02851">
        <ele>249.87</ele>
        <time>2017-02-25T13:58:43Z</time>
      </trkpt>
      <trkpt lat="45.25627" lon="5.02851">
        <ele>249.87</ele>
        <time>2017-02-25T13:58:44Z</time>
      </trkpt>
      <trkpt lat="45.25627" lon="5.02851">
        <ele>249.87</ele>
        <time>2017-02-25T13:58:45Z</time>
      </trkpt>
      <trkpt lat="45.25627" lon="5.02851">
        <ele>249.87</ele>
        <time>2017-02-25T13:58:46Z</time>
      </trkpt>
      <trkpt lat="45.25627" lon="5.02851">
        <ele>249.87</ele>
        <time>2017-02-25T13:58:47Z</time>
      </trkpt>
      <trkpt lat="45.25627" lon="5.02851">
        <ele>249.87</ele>
        <time>2017-02-25T13:58:48Z</time>
      </trkpt>
      <trkpt lat="45.25627" lon="5.02851">
        <ele>249.87</ele>
        <time>2017-02-25T13:58:49Z</time>
      </trkpt>
      <trkpt lat="45.25627" lon="5.02851">
        <ele>249.87</ele>
        <time>2017-02-25T13:58:50Z</time>
      </trkpt>
      <trkpt lat="45.25627" lon="5.02851">
        <ele>249.87</ele>
        <time>2017-02-25T13:58:51Z</time>
      </trkpt>
      <trkpt lat="45.25627" lon="5.02851">
        <ele>249.87</ele>
        <time>2017-02-25T13:58:52Z</time>
      </trkpt>
      <trkpt lat="45.25627" lon="5.02851">
        <ele>249.87</ele>
        <time>2017-02-25T13:58:53Z</time>
      </trkpt>
      <trkpt lat="45.25627" lon="5.02851">
        <ele>249.87</ele>
        <time>2017-02-25T13:58:54Z</time>
      </trkpt>
      <trkpt lat="45.25627" lon="5.02851">
        <ele>249.87</ele>
        <time>2017-02-25T13:58:55Z</time>
      </trkpt>
      <trkpt lat="45.25627" lon="5.02851">
        <ele>249.87</ele>
        <time>2017-02-25T13:58:56Z</time>
      </trkpt>
      <trkpt lat="45.25627" lon="5.02851">
        <ele>249.87</ele>
        <time>2017-02-25T13:58:57Z</time>
      </trkpt>
      <trkpt lat="45.25627" lon="5.02851">
        <ele>249.87</ele>
        <time>2017-02-25T13:58:58Z</time>
      </trkpt>
      <trkpt lat="45.25627" lon="5.02851">
        <ele>249.87</ele>
        <time>2017-02-25T13:58:59Z</time>
      </trkpt>
      <trkpt lat="45.25627" lon="5.02851">
        <ele>249.87</ele>
        <time>2017-02-25T13:59:00Z</time>
      </trkpt>
      <trkpt lat="45.25627" lon="5.02851">
        <ele>249.87</ele>
        <time>2017-02-25T13:59:01Z</time>
      </trkpt>
      <trkpt lat="45.25627" lon="5.02851">
        <ele>249.87</ele>
        <time>2017-02-25T13:59:02Z</time>
      </trkpt>
      <trkpt lat="45.25627" lon="5.02851">
        <ele>249.87</ele>
        <time>2017-02-25T13:59:03Z</time>
      </trkpt>
      <trkpt lat="45.25627" lon="5.02851">
        <ele>249.87</ele>
        <time>2017-02-25T13:59:04Z</time>
      </trkpt>
      <trkpt lat="45.25627" lon="5.02851">
        <ele>249.87</ele>
        <time>2017-02-25T13:59:05Z</time>
      </trkpt>
      <trkpt lat="45.25627" lon="5.02851">
        <ele>249.87</ele>
        <time>2017-02-25T13:59:06Z</time>
      </trkpt>
      <trkpt lat="45.25627" lon="5.02851">
        <ele>249.87</ele>
        <time>2017-02-25T13:59:07Z</time>
      </trkpt>
      <trkpt lat="45.25627" lon="5.02851">
        <ele>249.87</ele>
        <time>2017-02-25T13:59:08Z</time>
      </trkpt>
      <trkpt lat="45.25627" lon="5.02851">
        <ele>249.87</ele>
        <time>2017-02-25T13:59:09Z</time>
      </trkpt>
      <trkpt lat="45.25627" lon="5.02851">
        <ele>249.87</ele>
        <time>2017-02-25T13:59:10Z</time>
      </trkpt>
      <trkpt lat="45.25627" lon="5.02851">
        <ele>249.87</ele>
        <time>2017-02-25T13:59:11Z</time>
      </trkpt>
      <trkpt lat="45.25627" lon="5.02851">
        <ele>249.87</ele>
        <time>2017-02-25T13:59:12Z</time>
      </trkpt>
      <trkpt lat="45.25627" lon="5.02851">
        <ele>249.87</ele>
        <time>2017-02-25T13:59:13Z</time>
      </trkpt>
      <trkpt lat="45.25627" lon="5.02851">
        <ele>249.87</ele>
        <time>2017-02-25T13:59:14Z</time>
      </trkpt>
      <trkpt lat="45.25627" lon="5.02851">
        <ele>249.87</ele>
        <time>2017-02-25T13:59:15Z</time>
      </trkpt>
      <trkpt lat="45.25627" lon="5.02851">
        <ele>249.87</ele>
        <time>2017-02-25T13:59:16Z</time>
      </trkpt>
      <trkpt lat="45.25627" lon="5.02851">
        <ele>249.87</ele>
        <time>2017-02-25T13:59:17Z</time>
      </trkpt>
      <trkpt lat="45.25627" lon="5.02851">
        <ele>249.87</ele>
        <time>2017-02-25T13:59:18Z</time>
      </trkpt>
      <trkpt lat="45.25627" lon="5.02851">
        <ele>249.87</ele>
        <time>2017-02-25T13:59:19Z</time>
      </trkpt>
      <trkpt lat="45.25627" lon="5.02851">
        <ele>249.87</ele>
        <time>2017-02-25T13:59:20Z</time>
      </trkpt>
      <trkpt lat="45.25627" lon="5.02851">
        <ele>249.87</ele>
        <time>2017-02-25T13:59:21Z</time>
      </trkpt>
      <trkpt lat="45.25627" lon="5.02851">
        <ele>249.87</ele>
        <time>2017-02-25T13:59:22Z</time>
      </trkpt>
      <trkpt lat="45.25627" lon="5.02851">
        <ele>249.87</ele>
        <time>2017-02-25T13:59:23Z</time>
      </trkpt>
      <trkpt lat="45.25627" lon="5.02851">
        <ele>249.87</ele>
        <time>2017-02-25T13:59:24Z</time>
      </trkpt>
      <trkpt lat="45.25627" lon="5.02851">
        <ele>249.87</ele>
        <time>2017-02-25T13:59:25Z</time>
      </trkpt>
      <trkpt lat="45.25627" lon="5.02851">
        <ele>249.87</ele>
        <time>2017-02-25T13:59:26Z</time>
      </trkpt>
      <trkpt lat="45.25627" lon="5.02851">
        <ele>249.87</ele>
        <time>2017-02-25T13:59:27Z</time>
      </trkpt>
      <trkpt lat="45.25627" lon="5.02851">
        <ele>249.87</ele>
        <time>2017-02-25T13:59:28Z</time>
      </trkpt>
      <trkpt lat="45.25627" lon="5.02851">
        <ele>249.87</ele>
        <time>2017-02-25T13:59:29Z</time>
      </trkpt>
      <trkpt lat="45.25627" lon="5.02851">
        <ele>249.87</ele>
        <time>2017-02-25T13:59:30Z</time>
      </trkpt>
      <trkpt lat="45.25627" lon="5.02851">
        <ele>249.87</ele>
        <time>2017-02-25T13:59:31Z</time>
      </trkpt>
      <trkpt lat="45.25627" lon="5.02851">
        <ele>249.87</ele>
        <time>2017-02-25T13:59:32Z</time>
      </trkpt>
      <trkpt lat="45.25627" lon="5.02851">
        <ele>249.87</ele>
        <time>2017-02-25T13:59:33Z</time>
      </trkpt>
      <trkpt lat="45.25627" lon="5.02851">
        <ele>249.87</ele>
        <time>2017-02-25T13:59:34Z</time>
      </trkpt>
      <trkpt lat="45.25627" lon="5.02851">
        <ele>249.87</ele>
        <time>2017-02-25T13:59:35Z</time>
      </trkpt>
      <trkpt lat="45.25627" lon="5.02851">
        <ele>249.87</ele>
        <time>2017-02-25T13:59:36Z</time>
      </trkpt>
      <trkpt lat="45.25627" lon="5.02851">
        <ele>249.87</ele>
        <time>2017-02-25T13:59:37Z</time>
      </trkpt>
      <trkpt lat="45.25627" lon="5.02851">
        <ele>249.87</ele>
        <time>2017-02-25T13:59:38Z</time>
      </trkpt>
      <trkpt lat="45.25627" lon="5.02851">
        <ele>249.87</ele>
        <time>2017-02-25T13:59:39Z</time>
      </trkpt>
      <trkpt lat="45.25627" lon="5.02851">
        <ele>249.87</ele>
        <time>2017-02-25T13:59:40Z</time>
      </trkpt>
      <trkpt lat="45.25627" lon="5.02851">
        <ele>249.87</ele>
        <time>2017-02-25T13:59:41Z</time>
      </trkpt>
      <trkpt lat="45.25627" lon="5.02851">
        <ele>249.87</ele>
        <time>2017-02-25T13:59:42Z</time>
      </trkpt>
      <trkpt lat="45.25627" lon="5.02851">
        <ele>249.87</ele>
        <time>2017-02-25T13:59:43Z</time>
      </trkpt>
      <trkpt lat="45.25627" lon="5.02851">
        <ele>249.87</ele>
        <time>2017-02-25T13:59:44Z</time>
      </trkpt>
      <trkpt lat="45.25627" lon="5.02851">
        <ele>249.87</ele>
        <time>2017-02-25T13:59:45Z</time>
      </trkpt>
      <trkpt lat="45.25627" lon="5.02851">
        <ele>249.87</ele>
        <time>2017-02-25T13:59:46Z</time>
      </trkpt>
      <trkpt lat="45.25627" lon="5.02851">
        <ele>249.87</ele>
        <time>2017-02-25T13:59:47Z</time>
      </trkpt>
      <trkpt lat="45.25627" lon="5.02851">
        <ele>249.87</ele>
        <time>2017-02-25T13:59:48Z</time>
      </trkpt>
      <trkpt lat="45.25627" lon="5.02851">
        <ele>249.87</ele>
        <time>2017-02-25T13:59:49Z</time>
      </trkpt>
      <trkpt lat="45.25627" lon="5.02851">
        <ele>249.87</ele>
        <time>2017-02-25T13:59:50Z</time>
      </trkpt>
      <trkpt lat="45.25627" lon="5.02851">
        <ele>249.87</ele>
        <time>2017-02-25T13:59:51Z</time>
      </trkpt>
      <trkpt lat="45.25627" lon="5.02851">
        <ele>249.87</ele>
        <time>2017-02-25T13:59:52Z</time>
      </trkpt>
      <trkpt lat="45.25627" lon="5.02851">
        <ele>249.87</ele>
        <time>2017-02-25T13:59:53Z</time>
      </trkpt>
      <trkpt lat="45.25627" lon="5.02851">
        <ele>249.87</ele>
        <time>2017-02-25T13:59:54Z</time>
      </trkpt>
      <trkpt lat="45.25627" lon="5.02851">
        <ele>249.87</ele>
        <time>2017-02-25T13:59:55Z</time>
      </trkpt>
      <trkpt lat="45.25627" lon="5.02851">
        <ele>249.87</ele>
        <time>2017-02-25T13:59:56Z</time>
      </trkpt>
      <trkpt lat="45.25627" lon="5.02851">
        <ele>249.87</ele>
        <time>2017-02-25T13:59:57Z</time>
      </trkpt>
      <trkpt lat="45.25627" lon="5.02851">
        <ele>249.87</ele>
        <time>2017-02-25T13:59:58Z</time>
      </trkpt>
      <trkpt lat="45.25627" lon="5.02851">
        <ele>249.87</ele>
        <time>2017-02-25T13:59:59Z</time>
      </trkpt>
      <trkpt lat="45.25627" lon="5.02851">
        <ele>249.87</ele>
        <time>2017-02-25T14:00:00Z</time>
      </trkpt>
      <trkpt lat="45.25627" lon="5.02851">
        <ele>249.87</ele>
        <time>2017-02-25T14:00:01Z</time>
      </trkpt>
      <trkpt lat="45.25627" lon="5.02851">
        <ele>249.87</ele>
        <time>2017-02-25T14:00:02Z</time>
      </trkpt>
      <trkpt lat="45.25627" lon="5.02851">
        <ele>249.87</ele>
        <time>2017-02-25T14:00:03Z</time>
      </trkpt>
      <trkpt lat="45.25627" lon="5.02851">
        <ele>249.87</ele>
        <time>2017-02-25T14:00:04Z</time>
      </trkpt>
      <trkpt lat="45.25627" lon="5.02851">
        <ele>249.87</ele>
        <time>2017-02-25T14:00:05Z</time>
      </trkpt>
      <trkpt lat="45.25627" lon="5.02851">
        <ele>249.87</ele>
        <time>2017-02-25T14:00:06Z</time>
      </trkpt>
      <trkpt lat="45.25627" lon="5.02851">
        <ele>249.87</ele>
        <time>2017-02-25T14:00:07Z</time>
      </trkpt>
      <trkpt lat="45.25627" lon="5.02851">
        <ele>249.87</ele>
        <time>2017-02-25T14:00:08Z</time>
      </trkpt>
      <trkpt lat="45.25627" lon="5.02851">
        <ele>249.87</ele>
        <time>2017-02-25T14:00:09Z</time>
      </trkpt>
      <trkpt lat="45.25627" lon="5.02851">
        <ele>249.87</ele>
        <time>2017-02-25T14:00:10Z</time>
      </trkpt>
      <trkpt lat="45.25627" lon="5.02851">
        <ele>249.87</ele>
        <time>2017-02-25T14:00:11Z</time>
      </trkpt>
      <trkpt lat="45.25627" lon="5.02851">
        <ele>249.87</ele>
        <time>2017-02-25T14:00:12Z</time>
      </trkpt>
      <trkpt lat="45.25627" lon="5.02851">
        <ele>249.87</ele>
        <time>2017-02-25T14:00:13Z</time>
      </trkpt>
      <trkpt lat="45.25627" lon="5.02851">
        <ele>249.87</ele>
        <time>2017-02-25T14:00:14Z</time>
      </trkpt>
      <trkpt lat="45.25627" lon="5.02851">
        <ele>249.87</ele>
        <time>2017-02-25T14:00:15Z</time>
      </trkpt>
      <trkpt lat="45.25627" lon="5.02851">
        <ele>249.87</ele>
        <time>2017-02-25T14:00:16Z</time>
      </trkpt>
      <trkpt lat="45.25627" lon="5.02851">
        <ele>249.87</ele>
        <time>2017-02-25T14:00:17Z</time>
      </trkpt>
      <trkpt lat="45.25627" lon="5.02851">
        <ele>249.87</ele>
        <time>2017-02-25T14:00:18Z</time>
      </trkpt>
      <trkpt lat="45.25627" lon="5.02851">
        <ele>249.87</ele>
        <time>2017-02-25T14:00:19Z</time>
      </trkpt>
      <trkpt lat="45.25627" lon="5.02851">
        <ele>249.87</ele>
        <time>2017-02-25T14:00:20Z</time>
      </trkpt>
      <trkpt lat="45.25627" lon="5.02851">
        <ele>249.87</ele>
        <time>2017-02-25T14:00:21Z</time>
      </trkpt>
      <trkpt lat="45.25627" lon="5.02851">
        <ele>249.87</ele>
        <time>2017-02-25T14:00:22Z</time>
      </trkpt>
      <trkpt lat="45.25627" lon="5.02851">
        <ele>249.87</ele>
        <time>2017-02-25T14:00:23Z</time>
      </trkpt>
      <trkpt lat="45.25627" lon="5.02851">
        <ele>249.87</ele>
        <time>2017-02-25T14:00:24Z</time>
      </trkpt>
      <trkpt lat="45.25627" lon="5.02851">
        <ele>249.87</ele>
        <time>2017-02-25T14:00:25Z</time>
      </trkpt>
      <trkpt lat="45.25627" lon="5.02851">
        <ele>249.87</ele>
        <time>2017-02-25T14:00:26Z</time>
      </trkpt>
      <trkpt lat="45.25627" lon="5.02851">
        <ele>249.87</ele>
        <time>2017-02-25T14:00:27Z</time>
      </trkpt>
      <trkpt lat="45.25627" lon="5.02851">
        <ele>249.87</ele>
        <time>2017-02-25T14:00:28Z</time>
      </trkpt>
      <trkpt lat="45.25627" lon="5.02851">
        <ele>249.87</ele>
        <time>2017-02-25T14:00:29Z</time>
      </trkpt>
      <trkpt lat="45.25627" lon="5.02851">
        <ele>249.87</ele>
        <time>2017-02-25T14:00:30Z</time>
      </trkpt>
      <trkpt lat="45.25627" lon="5.02851">
        <ele>249.87</ele>
        <time>2017-02-25T14:00:31Z</time>
      </trkpt>
      <trkpt lat="45.25627" lon="5.02851">
        <ele>249.87</ele>
        <time>2017-02-25T14:00:32Z</time>
      </trkpt>
      <trkpt lat="45.25627" lon="5.02851">
        <ele>249.87</ele>
        <time>2017-02-25T14:00:33Z</time>
      </trkpt>
      <trkpt lat="45.25627" lon="5.02851">
        <ele>249.87</ele>
        <time>2017-02-25T14:00:34Z</time>
      </trkpt>
      <trkpt lat="45.25627" lon="5.02851">
        <ele>249.87</ele>
        <time>2017-02-25T14:00:35Z</time>
      </trkpt>
      <trkpt lat="45.25627" lon="5.02851">
        <ele>249.87</ele>
        <time>2017-02-25T14:00:36Z</time>
      </trkpt>
      <trkpt lat="45.25627" lon="5.02851">
        <ele>249.87</ele>
        <time>2017-02-25T14:00:37Z</time>
      </trkpt>
      <trkpt lat="45.25627" lon="5.02851">
        <ele>249.87</ele>
        <time>2017-02-25T14:00:38Z</time>
      </trkpt>
      <trkpt lat="45.25627" lon="5.02851">
        <ele>249.87</ele>
        <time>2017-02-25T14:00:39Z</time>
      </trkpt>
      <trkpt lat="45.25627" lon="5.02851">
        <ele>249.87</ele>
        <time>2017-02-25T14:00:40Z</time>
      </trkpt>
      <trkpt lat="45.25627" lon="5.02851">
        <ele>249.87</ele>
        <time>2017-02-25T14:00:41Z</time>
      </trkpt>
      <trkpt lat="45.25627" lon="5.02851">
        <ele>249.87</ele>
        <time>2017-02-25T14:00:42Z</time>
      </trkpt>
      <trkpt lat="45.25627" lon="5.02851">
        <ele>249.87</ele>
        <time>2017-02-25T14:00:43Z</time>
      </trkpt>
      <trkpt lat="45.25627" lon="5.02851">
        <ele>249.87</ele>
        <time>2017-02-25T14:00:44Z</time>
      </trkpt>
      <trkpt lat="45.25627" lon="5.02851">
        <ele>249.87</ele>
        <time>2017-02-25T14:00:45Z</time>
      </trkpt>
      <trkpt lat="45.25627" lon="5.02851">
        <ele>249.87</ele>
        <time>2017-02-25T14:00:46Z</time>
      </trkpt>
      <trkpt lat="45.25627" lon="5.02851">
        <ele>249.87</ele>
        <time>2017-02-25T14:00:47Z</time>
      </trkpt>
      <trkpt lat="45.25627" lon="5.02851">
        <ele>249.87</ele>
        <time>2017-02-25T14:00:48Z</time>
      </trkpt>
      <trkpt lat="45.25627" lon="5.02851">
        <ele>249.87</ele>
        <time>2017-02-25T14:00:49Z</time>
      </trkpt>
      <trkpt lat="45.25627" lon="5.02851">
        <ele>249.87</ele>
        <time>2017-02-25T14:00:50Z</time>
      </trkpt>
      <trkpt lat="45.25627" lon="5.02851">
        <ele>249.87</ele>
        <time>2017-02-25T14:00:51Z</time>
      </trkpt>
      <trkpt lat="45.25627" lon="5.02851">
        <ele>249.87</ele>
        <time>2017-02-25T14:00:52Z</time>
      </trkpt>
      <trkpt lat="45.25627" lon="5.02851">
        <ele>249.87</ele>
        <time>2017-02-25T14:00:53Z</time>
      </trkpt>
      <trkpt lat="45.25627" lon="5.02851">
        <ele>249.87</ele>
        <time>2017-02-25T14:00:54Z</time>
      </trkpt>
      <trkpt lat="45.25627" lon="5.02851">
        <ele>249.87</ele>
        <time>2017-02-25T14:00:55Z</time>
      </trkpt>
      <trkpt lat="45.25627" lon="5.02851">
        <ele>249.87</ele>
        <time>2017-02-25T14:00:56Z</time>
      </trkpt>
      <trkpt lat="45.25627" lon="5.02851">
        <ele>249.87</ele>
        <time>2017-02-25T14:00:57Z</time>
      </trkpt>
      <trkpt lat="45.25627" lon="5.02851">
        <ele>249.87</ele>
        <time>2017-02-25T14:00:58Z</time>
      </trkpt>
      <trkpt lat="45.25627" lon="5.02851">
        <ele>249.87</ele>
        <time>2017-02-25T14:00:59Z</time>
      </trkpt>
      <trkpt lat="45.25627" lon="5.02851">
        <ele>249.87</ele>
        <time>2017-02-25T14:01:00Z</time>
      </trkpt>
      <trkpt lat="45.25627" lon="5.02851">
        <ele>249.87</ele>
        <time>2017-02-25T14:01:01Z</time>
      </trkpt>
      <trkpt lat="45.25627" lon="5.02851">
        <ele>249.87</ele>
        <time>2017-02-25T14:01:02Z</time>
      </trkpt>
      <trkpt lat="45.25627" lon="5.02851">
        <ele>249.87</ele>
        <time>2017-02-25T14:01:03Z</time>
      </trkpt>
      <trkpt lat="45.25627" lon="5.02851">
        <ele>249.87</ele>
        <time>2017-02-25T14:01:04Z</time>
      </trkpt>
      <trkpt lat="45.25627" lon="5.02851">
        <ele>249.87</ele>
        <time>2017-02-25T14:01:05Z</time>
      </trkpt>
      <trkpt lat="45.25627" lon="5.02851">
        <ele>249.87</ele>
        <time>2017-02-25T14:01:06Z</time>
      </trkpt>
      <trkpt lat="45.25627" lon="5.02851">
        <ele>249.87</ele>
        <time>2017-02-25T14:01:07Z</time>
      </trkpt>
      <trkpt lat="45.25627" lon="5.02851">
        <ele>249.87</ele>
        <time>2017-02-25T14:01:08Z</time>
      </trkpt>
      <trkpt lat="45.25627" lon="5.02851">
        <ele>249.87</ele>
        <time>2017-02-25T14:01:09Z</time>
      </trkpt>
      <trkpt lat="45.25627" lon="5.02851">
        <ele>249.87</ele>
        <time>2017-02-25T14:01:10Z</time>
      </trkpt>
      <trkpt lat="45.25627" lon="5.02851">
        <ele>249.87</ele>
        <time>2017-02-25T14:01:11Z</time>
      </trkpt>
      <trkpt lat="45.25627" lon="5.02851">
        <ele>249.87</ele>
        <time>2017-02-25T14:01:12Z</time>
      </trkpt>
      <trkpt lat="45.25627" lon="5.02851">
        <ele>249.87</ele>
        <time>2017-02-25T14:01:13Z</time>
      </trkpt>
      <trkpt lat="45.25627" lon="5.02851">
        <ele>249.87</ele>
        <time>2017-02-25T14:01:14Z</time>
      </trkpt>
      <trkpt lat="45.25627" lon="5.02851">
        <ele>249.87</ele>
        <time>2017-02-25T14:01:15Z</time>
      </trkpt>
      <trkpt lat="45.25627" lon="5.02851">
        <ele>249.87</ele>
        <time>2017-02-25T14:01:16Z</time>
      </trkpt>
      <trkpt lat="45.25627" lon="5.02851">
        <ele>249.87</ele>
        <time>2017-02-25T14:01:17Z</time>
      </trkpt>
      <trkpt lat="45.25627" lon="5.02851">
        <ele>249.87</ele>
        <time>2017-02-25T14:01:18Z</time>
      </trkpt>
      <trkpt lat="45.25627" lon="5.02851">
        <ele>249.87</ele>
        <time>2017-02-25T14:01:19Z</time>
      </trkpt>
      <trkpt lat="45.25627" lon="5.02851">
        <ele>249.87</ele>
        <time>2017-02-25T14:01:20Z</time>
      </trkpt>
      <trkpt lat="45.25627" lon="5.02851">
        <ele>249.87</ele>
        <time>2017-02-25T14:01:21Z</time>
      </trkpt>
      <trkpt lat="45.25627" lon="5.02851">
        <ele>249.87</ele>
        <time>2017-02-25T14:01:22Z</time>
      </trkpt>
      <trkpt lat="45.25627" lon="5.02851">
        <ele>249.87</ele>
        <time>2017-02-25T14:01:23Z</time>
      </trkpt>
      <trkpt lat="45.25627" lon="5.02851">
        <ele>249.87</ele>
        <time>2017-02-25T14:01:24Z</time>
      </trkpt>
      <trkpt lat="45.25627" lon="5.02851">
        <ele>249.87</ele>
        <time>2017-02-25T14:01:25Z</time>
      </trkpt>
      <trkpt lat="45.25627" lon="5.02851">
        <ele>249.87</ele>
        <time>2017-02-25T14:01:26Z</time>
      </trkpt>
      <trkpt lat="45.25627" lon="5.02851">
        <ele>249.87</ele>
        <time>2017-02-25T14:01:27Z</time>
      </trkpt>
      <trkpt lat="45.25627" lon="5.02851">
        <ele>249.87</ele>
        <time>2017-02-25T14:01:28Z</time>
      </trkpt>
      <trkpt lat="45.25627" lon="5.02851">
        <ele>249.87</ele>
        <time>2017-02-25T14:01:29Z</time>
      </trkpt>
      <trkpt lat="45.25627" lon="5.02851">
        <ele>249.87</ele>
        <time>2017-02-25T14:01:30Z</time>
      </trkpt>
      <trkpt lat="45.25627" lon="5.02851">
        <ele>249.87</ele>
        <time>2017-02-25T14:01:31Z</time>
      </trkpt>
      <trkpt lat="45.25627" lon="5.02851">
        <ele>249.87</ele>
        <time>2017-02-25T14:01:32Z</time>
      </trkpt>
      <trkpt lat="45.25627" lon="5.02851">
        <ele>249.87</ele>
        <time>2017-02-25T14:01:33Z</time>
      </trkpt>
      <trkpt lat="45.25627" lon="5.02851">
        <ele>249.87</ele>
        <time>2017-02-25T14:01:34Z</time>
      </trkpt>
      <trkpt lat="45.25627" lon="5.02851">
        <ele>249.87</ele>
        <time>2017-02-25T14:01:35Z</time>
      </trkpt>
      <trkpt lat="45.25627" lon="5.02851">
        <ele>249.87</ele>
        <time>2017-02-25T14:01:36Z</time>
      </trkpt>
      <trkpt lat="45.25627" lon="5.02851">
        <ele>249.87</ele>
        <time>2017-02-25T14:01:37Z</time>
      </trkpt>
      <trkpt lat="45.25627" lon="5.02851">
        <ele>249.87</ele>
        <time>2017-02-25T14:01:38Z</time>
      </trkpt>
      <trkpt lat="45.25627" lon="5.02851">
        <ele>249.87</ele>
        <time>2017-02-25T14:01:39Z</time>
      </trkpt>
      <trkpt lat="45.25627" lon="5.02851">
        <ele>249.87</ele>
        <time>2017-02-25T14:01:40Z</time>
      </trkpt>
      <trkpt lat="45.25627" lon="5.02851">
        <ele>249.87</ele>
        <time>2017-02-25T14:01:41Z</time>
      </trkpt>
      <trkpt lat="45.25627" lon="5.02851">
        <ele>249.87</ele>
        <time>2017-02-25T14:01:42Z</time>
      </trkpt>
      <trkpt lat="45.25627" lon="5.02851">
        <ele>249.87</ele>
        <time>2017-02-25T14:01:43Z</time>
      </trkpt>
      <trkpt lat="45.25627" lon="5.02851">
        <ele>249.87</ele>
        <time>2017-02-25T14:01:44Z</time>
      </trkpt>
      <trkpt lat="45.25627" lon="5.02851">
        <ele>249.87</ele>
        <time>2017-02-25T14:01:45Z</time>
      </trkpt>
      <trkpt lat="45.25627" lon="5.02851">
        <ele>249.87</ele>
        <time>2017-02-25T14:01:46Z</time>
      </trkpt>
      <trkpt lat="45.25627" lon="5.02851">
        <ele>249.87</ele>
        <time>2017-02-25T14:01:47Z</time>
      </trkpt>
      <trkpt lat="45.25627" lon="5.02851">
        <ele>249.87</ele>
        <time>2017-02-25T14:01:48Z</time>
      </trkpt>
      <trkpt lat="45.25627" lon="5.02851">
        <ele>249.87</ele>
        <time>2017-02-25T14:01:49Z</time>
      </trkpt>
      <trkpt lat="45.25627" lon="5.02851">
        <ele>249.87</ele>
        <time>2017-02-25T14:01:50Z</time>
      </trkpt>
      <trkpt lat="45.25627" lon="5.02851">
        <ele>249.87</ele>
        <time>2017-02-25T14:01:51Z</time>
      </trkpt>
      <trkpt lat="45.25627" lon="5.02851">
        <ele>249.87</ele>
        <time>2017-02-25T14:01:52Z</time>
      </trkpt>
      <trkpt lat="45.25627" lon="5.02851">
        <ele>249.87</ele>
        <time>2017-02-25T14:01:53Z</time>
      </trkpt>
      <trkpt lat="45.25627" lon="5.02851">
        <ele>249.87</ele>
        <time>2017-02-25T14:01:54Z</time>
      </trkpt>
      <trkpt lat="45.25627" lon="5.02851">
        <ele>249.87</ele>
        <time>2017-02-25T14:01:55Z</time>
      </trkpt>
      <trkpt lat="45.25627" lon="5.02851">
        <ele>249.87</ele>
        <time>2017-02-25T14:01:56Z</time>
      </trkpt>
      <trkpt lat="45.25627" lon="5.02851">
        <ele>249.87</ele>
        <time>2017-02-25T14:01:57Z</time>
      </trkpt>
      <trkpt lat="45.25627" lon="5.02851">
        <ele>249.87</ele>
        <time>2017-02-25T14:01:58Z</time>
      </trkpt>
      <trkpt lat="45.25627" lon="5.02851">
        <ele>249.87</ele>
        <time>2017-02-25T14:01:59Z</time>
      </trkpt>
      <trkpt lat="45.25627" lon="5.02851">
        <ele>249.87</ele>
        <time>2017-02-25T14:02:00Z</time>
      </trkpt>
      <trkpt lat="45.25627" lon="5.02851">
        <ele>249.87</ele>
        <time>2017-02-25T14:02:01Z</time>
      </trkpt>
      <trkpt lat="45.25627" lon="5.02851">
        <ele>249.87</ele>
        <time>2017-02-25T14:02:02Z</time>
      </trkpt>
      <trkpt lat="45.25627" lon="5.02851">
        <ele>249.87</ele>
        <time>2017-02-25T14:02:03Z</time>
      </trkpt>
      <trkpt lat="45.25627" lon="5.02851">
        <ele>249.87</ele>
        <time>2017-02-25T14:02:04Z</time>
      </trkpt>
      <trkpt lat="45.25627" lon="5.02851">
        <ele>249.87</ele>
        <time>2017-02-25T14:02:05Z</time>
      </trkpt>
      <trkpt lat="45.25627" lon="5.02851">
        <ele>249.87</ele>
        <time>2017-02-25T14:02:06Z</time>
      </trkpt>
      <trkpt lat="45.25627" lon="5.02851">
        <ele>249.87</ele>
        <time>2017-02-25T14:02:07Z</time>
      </trkpt>
      <trkpt lat="45.25627" lon="5.02851">
        <ele>249.87</ele>
        <time>2017-02-25T14:02:08Z</time>
      </trkpt>
      <trkpt lat="45.25627" lon="5.02851">
        <ele>249.87</ele>
        <time>2017-02-25T14:02:09Z</time>
      </trkpt>
      <trkpt lat="45.25627" lon="5.02851">
        <ele>249.87</ele>
        <time>2017-02-25T14:02:10Z</time>
      </trkpt>
      <trkpt lat="45.25627" lon="5.02851">
        <ele>249.87</ele>
        <time>2017-02-25T14:02:11Z</time>
      </trkpt>
      <trkpt lat="45.25627" lon="5.02851">
        <ele>249.87</ele>
        <time>2017-02-25T14:02:12Z</time>
      </trkpt>
      <trkpt lat="45.25627" lon="5.02851">
        <ele>249.87</ele>
        <time>2017-02-25T14:02:13Z</time>
      </trkpt>
      <trkpt lat="45.25627" lon="5.02851">
        <ele>249.87</ele>
        <time>2017-02-25T14:02:14Z</time>
      </trkpt>
      <trkpt lat="45.25627" lon="5.02851">
        <ele>249.87</ele>
        <time>2017-02-25T14:02:15Z</time>
      </trkpt>
      <trkpt lat="45.25627" lon="5.02851">
        <ele>249.87</ele>
        <time>2017-02-25T14:02:16Z</time>
      </trkpt>
      <trkpt lat="45.25627" lon="5.02851">
        <ele>249.87</ele>
        <time>2017-02-25T14:02:17Z</time>
      </trkpt>
      <trkpt lat="45.25627" lon="5.02851">
        <ele>249.87</ele>
        <time>2017-02-25T14:02:18Z</time>
      </trkpt>
      <trkpt lat="45.25627" lon="5.02851">
        <ele>249.87</ele>
        <time>2017-02-25T14:02:19Z</time>
      </trkpt>
      <trkpt lat="45.25627" lon="5.02851">
        <ele>249.87</ele>
        <time>2017-02-25T14:02:20Z</time>
      </trkpt>
      <trkpt lat="45.25627" lon="5.02851">
        <ele>249.87</ele>
        <time>2017-02-25T14:02:21Z</time>
      </trkpt>
      <trkpt lat="45.25627" lon="5.02851">
        <ele>249.87</ele>
        <time>2017-02-25T14:02:22Z</time>
      </trkpt>
      <trkpt lat="45.25627" lon="5.02851">
        <ele>249.87</ele>
        <time>2017-02-25T14:02:23Z</time>
      </trkpt>
      <trkpt lat="45.25627" lon="5.02851">
        <ele>249.87</ele>
        <time>2017-02-25T14:02:24Z</time>
      </trkpt>
      <trkpt lat="45.25627" lon="5.02851">
        <ele>249.87</ele>
        <time>2017-02-25T14:02:25Z</time>
      </trkpt>
      <trkpt lat="45.25627" lon="5.02851">
        <ele>249.87</ele>
        <time>2017-02-25T14:02:26Z</time>
      </trkpt>
      <trkpt lat="45.25627" lon="5.02851">
        <ele>249.87</ele>
        <time>2017-02-25T14:02:27Z</time>
      </trkpt>
      <trkpt lat="45.25627" lon="5.02851">
        <ele>249.87</ele>
        <time>2017-02-25T14:02:28Z</time>
      </trkpt>
      <trkpt lat="45.25627" lon="5.02851">
        <ele>249.87</ele>
        <time>2017-02-25T14:02:29Z</time>
      </trkpt>
      <trkpt lat="45.25627" lon="5.02851">
        <ele>249.87</ele>
        <time>2017-02-25T14:02:30Z</time>
      </trkpt>
      <trkpt lat="45.25627" lon="5.02851">
        <ele>249.87</ele>
        <time>2017-02-25T14:02:31Z</time>
      </trkpt>
      <trkpt lat="45.25627" lon="5.02851">
        <ele>249.87</ele>
        <time>2017-02-25T14:02:32Z</time>
      </trkpt>
      <trkpt lat="45.25627" lon="5.02851">
        <ele>249.87</ele>
        <time>2017-02-25T14:02:33Z</time>
      </trkpt>
      <trkpt lat="45.25627" lon="5.02851">
        <ele>249.87</ele>
        <time>2017-02-25T14:02:34Z</time>
      </trkpt>
      <trkpt lat="45.25627" lon="5.02851">
        <ele>249.87</ele>
        <time>2017-02-25T14:02:35Z</time>
      </trkpt>
      <trkpt lat="45.25627" lon="5.02851">
        <ele>249.87</ele>
        <time>2017-02-25T14:02:36Z</time>
      </trkpt>
      <trkpt lat="45.25627" lon="5.02851">
        <ele>249.87</ele>
        <time>2017-02-25T14:02:37Z</time>
      </trkpt>
      <trkpt lat="45.25627" lon="5.02851">
        <ele>249.87</ele>
        <time>2017-02-25T14:02:38Z</time>
      </trkpt>
      <trkpt lat="45.25627" lon="5.02851">
        <ele>249.87</ele>
        <time>2017-02-25T14:02:39Z</time>
      </trkpt>
      <trkpt lat="45.25627" lon="5.02851">
        <ele>249.87</ele>
        <time>2017-02-25T14:02:40Z</time>
      </trkpt>
      <trkpt lat="45.25627" lon="5.02851">
        <ele>249.87</ele>
        <time>2017-02-25T14:02:41Z</time>
      </trkpt>
      <trkpt lat="45.25627" lon="5.02851">
        <ele>249.87</ele>
        <time>2017-02-25T14:02:42Z</time>
      </trkpt>
      <trkpt lat="45.25627" lon="5.02851">
        <ele>249.87</ele>
        <time>2017-02-25T14:02:43Z</time>
      </trkpt>
      <trkpt lat="45.25627" lon="5.02851">
        <ele>249.87</ele>
        <time>2017-02-25T14:02:44Z</time>
      </trkpt>
      <trkpt lat="45.25627" lon="5.02851">
        <ele>249.87</ele>
        <time>2017-02-25T14:02:45Z</time>
      </trkpt>
      <trkpt lat="45.25627" lon="5.02851">
        <ele>249.87</ele>
        <time>2017-02-25T14:02:46Z</time>
      </trkpt>
      <trkpt lat="45.25627" lon="5.02851">
        <ele>249.87</ele>
        <time>2017-02-25T14:02:47Z</time>
      </trkpt>
      <trkpt lat="45.25627" lon="5.02851">
        <ele>249.87</ele>
        <time>2017-02-25T14:02:48Z</time>
      </trkpt>
      <trkpt lat="45.25627" lon="5.02851">
        <ele>249.87</ele>
        <time>2017-02-25T14:02:49Z</time>
      </trkpt>
      <trkpt lat="45.25627" lon="5.02851">
        <ele>249.87</ele>
        <time>2017-02-25T14:02:50Z</time>
      </trkpt>
      <trkpt lat="45.25627" lon="5.02851">
        <ele>249.87</ele>
        <time>2017-02-25T14:02:51Z</time>
      </trkpt>
      <trkpt lat="45.25627" lon="5.02851">
        <ele>249.87</ele>
        <time>2017-02-25T14:02:52Z</time>
      </trkpt>
      <trkpt lat="45.25627" lon="5.02851">
        <ele>249.87</ele>
        <time>2017-02-25T14:02:53Z</time>
      </trkpt>
      <trkpt lat="45.25627" lon="5.02851">
        <ele>249.87</ele>
        <time>2017-02-25T14:02:54Z</time>
      </trkpt>
      <trkpt lat="45.25627" lon="5.02851">
        <ele>249.87</ele>
        <time>2017-02-25T14:02:55Z</time>
      </trkpt>
      <trkpt lat="45.25627" lon="5.02851">
        <ele>249.87</ele>
        <time>2017-02-25T14:02:56Z</time>
      </trkpt>
      <trkpt lat="45.25627" lon="5.02851">
        <ele>249.87</ele>
        <time>2017-02-25T14:02:57Z</time>
      </trkpt>
      <trkpt lat="45.25627" lon="5.02851">
        <ele>249.87</ele>
        <time>2017-02-25T14:02:58Z</time>
      </trkpt>
      <trkpt lat="45.25627" lon="5.02851">
        <ele>249.87</ele>
        <time>2017-02-25T14:02:59Z</time>
      </trkpt>
      <trkpt lat="45.25627" lon="5.02851">
        <ele>249.87</ele>
        <time>2017-02-25T14:03:00Z</time>
      </trkpt>
      <trkpt lat="45.25627" lon="5.02851">
        <ele>249.87</ele>
        <time>2017-02-25T14:03:01Z</time>
      </trkpt>
      <trkpt lat="45.25627" lon="5.02851">
        <ele>249.87</ele>
        <time>2017-02-25T14:03:02Z</time>
      </trkpt>
      <trkpt lat="45.25627" lon="5.02851">
        <ele>249.87</ele>
        <time>2017-02-25T14:03:03Z</time>
      </trkpt>
      <trkpt lat="45.25627" lon="5.02851">
        <ele>249.87</ele>
        <time>2017-02-25T14:03:04Z</time>
      </trkpt>
      <trkpt lat="45.25627" lon="5.02851">
        <ele>249.87</ele>
        <time>2017-02-25T14:03:05Z</time>
      </trkpt>
      <trkpt lat="45.25627" lon="5.02851">
        <ele>249.87</ele>
        <time>2017-02-25T14:03:06Z</time>
      </trkpt>
      <trkpt lat="45.25627" lon="5.02851">
        <ele>249.87</ele>
        <time>2017-02-25T14:03:07Z</time>
      </trkpt>
      <trkpt lat="45.25627" lon="5.02851">
        <ele>249.87</ele>
        <time>2017-02-25T14:03:08Z</time>
      </trkpt>
      <trkpt lat="45.25627" lon="5.02851">
        <ele>249.87</ele>
        <time>2017-02-25T14:03:09Z</time>
      </trkpt>
      <trkpt lat="45.25627" lon="5.02851">
        <ele>249.87</ele>
        <time>2017-02-25T14:03:10Z</time>
      </trkpt>
      <trkpt lat="45.25627" lon="5.02851">
        <ele>249.87</ele>
        <time>2017-02-25T14:03:11Z</time>
      </trkpt>
      <trkpt lat="45.25627" lon="5.02851">
        <ele>249.87</ele>
        <time>2017-02-25T14:03:12Z</time>
      </trkpt>
      <trkpt lat="45.25627" lon="5.02851">
        <ele>249.87</ele>
        <time>2017-02-25T14:03:13Z</time>
      </trkpt>
      <trkpt lat="45.25627" lon="5.02851">
        <ele>249.87</ele>
        <time>2017-02-25T14:03:14Z</time>
      </trkpt>
      <trkpt lat="45.25627" lon="5.02851">
        <ele>249.87</ele>
        <time>2017-02-25T14:03:15Z</time>
      </trkpt>
      <trkpt lat="45.25627" lon="5.02851">
        <ele>249.87</ele>
        <time>2017-02-25T14:03:16Z</time>
      </trkpt>
      <trkpt lat="45.25627" lon="5.02851">
        <ele>249.87</ele>
        <time>2017-02-25T14:03:17Z</time>
      </trkpt>
      <trkpt lat="45.25627" lon="5.02851">
        <ele>249.87</ele>
        <time>2017-02-25T14:03:18Z</time>
      </trkpt>
      <trkpt lat="45.25627" lon="5.02851">
        <ele>249.87</ele>
        <time>2017-02-25T14:03:19Z</time>
      </trkpt>
      <trkpt lat="45.25627" lon="5.02851">
        <ele>249.87</ele>
        <time>2017-02-25T14:03:20Z</time>
      </trkpt>
      <trkpt lat="45.25627" lon="5.02851">
        <ele>249.87</ele>
        <time>2017-02-25T14:03:21Z</time>
      </trkpt>
      <trkpt lat="45.25627" lon="5.02851">
        <ele>249.87</ele>
        <time>2017-02-25T14:03:22Z</time>
      </trkpt>
      <trkpt lat="45.25627" lon="5.02851">
        <ele>249.87</ele>
        <time>2017-02-25T14:03:23Z</time>
      </trkpt>
      <trkpt lat="45.25627" lon="5.02851">
        <ele>249.87</ele>
        <time>2017-02-25T14:03:24Z</time>
      </trkpt>
      <trkpt lat="45.25627" lon="5.02851">
        <ele>249.87</ele>
        <time>2017-02-25T14:03:25Z</time>
      </trkpt>
      <trkpt lat="45.25627" lon="5.02851">
        <ele>249.87</ele>
        <time>2017-02-25T14:03:26Z</time>
      </trkpt>
      <trkpt lat="45.25627" lon="5.02851">
        <ele>249.87</ele>
        <time>2017-02-25T14:03:27Z</time>
      </trkpt>
      <trkpt lat="45.25627" lon="5.02851">
        <ele>249.87</ele>
        <time>2017-02-25T14:03:28Z</time>
      </trkpt>
      <trkpt lat="45.25627" lon="5.02851">
        <ele>249.87</ele>
        <time>2017-02-25T14:03:29Z</time>
      </trkpt>
      <trkpt lat="45.25627" lon="5.02851">
        <ele>249.87</ele>
        <time>2017-02-25T14:03:30Z</time>
      </trkpt>
      <trkpt lat="45.25627" lon="5.02851">
        <ele>249.87</ele>
        <time>2017-02-25T14:03:31Z</time>
      </trkpt>
      <trkpt lat="45.25627" lon="5.02851">
        <ele>249.87</ele>
        <time>2017-02-25T14:03:32Z</time>
      </trkpt>
      <trkpt lat="45.25627" lon="5.02851">
        <ele>249.87</ele>
        <time>2017-02-25T14:03:33Z</time>
      </trkpt>
      <trkpt lat="45.25627" lon="5.02851">
        <ele>249.87</ele>
        <time>2017-02-25T14:03:34Z</time>
      </trkpt>
      <trkpt lat="45.25627" lon="5.02851">
        <ele>249.87</ele>
        <time>2017-02-25T14:03:35Z</time>
      </trkpt>
      <trkpt lat="45.25627" lon="5.02851">
        <ele>249.87</ele>
        <time>2017-02-25T14:03:36Z</time>
      </trkpt>
      <trkpt lat="45.25627" lon="5.02851">
        <ele>249.87</ele>
        <time>2017-02-25T14:03:37Z</time>
      </trkpt>
      <trkpt lat="45.25627" lon="5.02851">
        <ele>249.87</ele>
        <time>2017-02-25T14:03:38Z</time>
      </trkpt>
      <trkpt lat="45.25627" lon="5.02851">
        <ele>249.87</ele>
        <time>2017-02-25T14:03:39Z</time>
      </trkpt>
      <trkpt lat="45.25627" lon="5.02851">
        <ele>249.87</ele>
        <time>2017-02-25T14:03:40Z</time>
      </trkpt>
      <trkpt lat="45.25627" lon="5.02851">
        <ele>249.87</ele>
        <time>2017-02-25T14:03:41Z</time>
      </trkpt>
      <trkpt lat="45.25627" lon="5.02851">
        <ele>249.87</ele>
        <time>2017-02-25T14:03:42Z</time>
      </trkpt>
      <trkpt lat="45.25627" lon="5.02851">
        <ele>249.87</ele>
        <time>2017-02-25T14:03:43Z</time>
      </trkpt>
      <trkpt lat="45.25627" lon="5.02851">
        <ele>249.87</ele>
        <time>2017-02-25T14:03:44Z</time>
      </trkpt>
      <trkpt lat="45.25627" lon="5.02851">
        <ele>249.87</ele>
        <time>2017-02-25T14:03:45Z</time>
      </trkpt>
      <trkpt lat="45.25627" lon="5.02851">
        <ele>249.87</ele>
        <time>2017-02-25T14:03:46Z</time>
      </trkpt>
      <trkpt lat="45.25627" lon="5.02851">
        <ele>249.87</ele>
        <time>2017-02-25T14:03:47Z</time>
      </trkpt>
      <trkpt lat="45.25627" lon="5.02851">
        <ele>249.87</ele>
        <time>2017-02-25T14:03:48Z</time>
      </trkpt>
      <trkpt lat="45.25627" lon="5.02851">
        <ele>249.87</ele>
        <time>2017-02-25T14:03:49Z</time>
      </trkpt>
      <trkpt lat="45.25627" lon="5.02851">
        <ele>249.87</ele>
        <time>2017-02-25T14:03:50Z</time>
      </trkpt>
      <trkpt lat="45.25627" lon="5.02851">
        <ele>249.87</ele>
        <time>2017-02-25T14:03:51Z</time>
      </trkpt>
      <trkpt lat="45.25627" lon="5.02851">
        <ele>249.87</ele>
        <time>2017-02-25T14:03:52Z</time>
      </trkpt>
      <trkpt lat="45.25627" lon="5.02851">
        <ele>249.87</ele>
        <time>2017-02-25T14:03:53Z</time>
      </trkpt>
      <trkpt lat="45.25627" lon="5.02851">
        <ele>249.87</ele>
        <time>2017-02-25T14:03:54Z</time>
      </trkpt>
      <trkpt lat="45.25627" lon="5.02851">
        <ele>249.87</ele>
        <time>2017-02-25T14:03:55Z</time>
      </trkpt>
      <trkpt lat="45.25627" lon="5.02851">
        <ele>249.87</ele>
        <time>2017-02-25T14:03:56Z</time>
      </trkpt>
      <trkpt lat="45.25627" lon="5.02851">
        <ele>249.87</ele>
        <time>2017-02-25T14:03:57Z</time>
      </trkpt>
      <trkpt lat="45.25627" lon="5.02851">
        <ele>249.87</ele>
        <time>2017-02-25T14:03:58Z</time>
      </trkpt>
      <trkpt lat="45.25627" lon="5.02851">
        <ele>249.87</ele>
        <time>2017-02-25T14:03:59Z</time>
      </trkpt>
      <trkpt lat="45.25627" lon="5.02851">
        <ele>249.87</ele>
        <time>2017-02-25T14:04:00Z</time>
      </trkpt>
      <trkpt lat="45.25627" lon="5.02851">
        <ele>249.87</ele>
        <time>2017-02-25T14:04:01Z</time>
      </trkpt>
      <trkpt lat="45.25627" lon="5.02851">
        <ele>249.87</ele>
        <time>2017-02-25T14:04:02Z</time>
      </trkpt>
      <trkpt lat="45.25627" lon="5.02851">
        <ele>249.87</ele>
        <time>2017-02-25T14:04:03Z</time>
      </trkpt>
      <trkpt lat="45.25627" lon="5.02851">
        <ele>249.87</ele>
        <time>2017-02-25T14:04:04Z</time>
      </trkpt>
      <trkpt lat="45.25627" lon="5.02851">
        <ele>249.87</ele>
        <time>2017-02-25T14:04:05Z</time>
      </trkpt>
      <trkpt lat="45.25627" lon="5.02851">
        <ele>249.87</ele>
        <time>2017-02-25T14:04:06Z</time>
      </trkpt>
      <trkpt lat="45.25627" lon="5.02851">
        <ele>249.87</ele>
        <time>2017-02-25T14:04:07Z</time>
      </trkpt>
      <trkpt lat="45.25627" lon="5.02851">
        <ele>249.87</ele>
        <time>2017-02-25T14:04:08Z</time>
      </trkpt>
      <trkpt lat="45.25627" lon="5.02851">
        <ele>249.87</ele>
        <time>2017-02-25T14:04:09Z</time>
      </trkpt>
      <trkpt lat="45.25627" lon="5.02851">
        <ele>249.87</ele>
        <time>2017-02-25T14:04:10Z</time>
      </trkpt>
      <trkpt lat="45.25627" lon="5.02851">
        <ele>249.87</ele>
        <time>2017-02-25T14:04:11Z</time>
      </trkpt>
      <trkpt lat="45.25627" lon="5.02851">
        <ele>249.87</ele>
        <time>2017-02-25T14:04:12Z</time>
      </trkpt>
      <trkpt lat="45.25627" lon="5.02851">
        <ele>249.87</ele>
        <time>2017-02-25T14:04:13Z</time>
      </trkpt>
      <trkpt lat="45.25627" lon="5.02851">
        <ele>249.87</ele>
        <time>2017-02-25T14:04:14Z</time>
      </trkpt>
      <trkpt lat="45.25627" lon="5.02851">
        <ele>249.87</ele>
        <time>2017-02-25T14:04:15Z</time>
      </trkpt>
      <trkpt lat="45.25627" lon="5.02851">
        <ele>249.87</ele>
        <time>2017-02-25T14:04:16Z</time>
      </trkpt>
      <trkpt lat="45.25627" lon="5.02851">
        <ele>249.87</ele>
        <time>2017-02-25T14:04:17Z</time>
      </trkpt>
      <trkpt lat="45.25627" lon="5.02851">
        <ele>249.87</ele>
        <time>2017-02-25T14:04:18Z</time>
      </trkpt>
      <trkpt lat="45.25627" lon="5.02851">
        <ele>249.87</ele>
        <time>2017-02-25T14:04:19Z</time>
      </trkpt>
      <trkpt lat="45.25627" lon="5.02851">
        <ele>249.87</ele>
        <time>2017-02-25T14:04:20Z</time>
      </trkpt>
      <trkpt lat="45.25627" lon="5.02851">
        <ele>249.87</ele>
        <time>2017-02-25T14:04:21Z</time>
      </trkpt>
      <trkpt lat="45.25627" lon="5.02851">
        <ele>249.87</ele>
        <time>2017-02-25T14:04:22Z</time>
      </trkpt>
      <trkpt lat="45.25627" lon="5.02851">
        <ele>249.87</ele>
        <time>2017-02-25T14:04:23Z</time>
      </trkpt>
      <trkpt lat="45.25627" lon="5.02851">
        <ele>249.87</ele>
        <time>2017-02-25T14:04:24Z</time>
      </trkpt>
      <trkpt lat="45.25627" lon="5.02851">
        <ele>249.87</ele>
        <time>2017-02-25T14:04:25Z</time>
      </trkpt>
      <trkpt lat="45.25627" lon="5.02851">
        <ele>249.87</ele>
        <time>2017-02-25T14:04:26Z</time>
      </trkpt>
      <trkpt lat="45.25627" lon="5.02851">
        <ele>249.87</ele>
        <time>2017-02-25T14:04:27Z</time>
      </trkpt>
      <trkpt lat="45.25627" lon="5.02851">
        <ele>249.87</ele>
        <time>2017-02-25T14:04:28Z</time>
      </trkpt>
      <trkpt lat="45.25627" lon="5.02851">
        <ele>249.87</ele>
        <time>2017-02-25T14:04:29Z</time>
      </trkpt>
      <trkpt lat="45.25627" lon="5.02851">
        <ele>249.87</ele>
        <time>2017-02-25T14:04:30Z</time>
      </trkpt>
      <trkpt lat="45.25627" lon="5.02851">
        <ele>249.87</ele>
        <time>2017-02-25T14:04:31Z</time>
      </trkpt>
      <trkpt lat="45.25627" lon="5.02851">
        <ele>249.87</ele>
        <time>2017-02-25T14:04:32Z</time>
      </trkpt>
      <trkpt lat="45.25627" lon="5.02851">
        <ele>249.87</ele>
        <time>2017-02-25T14:04:33Z</time>
      </trkpt>
      <trkpt lat="45.25627" lon="5.02851">
        <ele>249.87</ele>
        <time>2017-02-25T14:04:34Z</time>
      </trkpt>
      <trkpt lat="45.25627" lon="5.02851">
        <ele>249.87</ele>
        <time>2017-02-25T14:04:35Z</time>
      </trkpt>
      <trkpt lat="45.25627" lon="5.02851">
        <ele>249.87</ele>
        <time>2017-02-25T14:04:36Z</time>
      </trkpt>
      <trkpt lat="45.25627" lon="5.02851">
        <ele>249.87</ele>
        <time>2017-02-25T14:04:37Z</time>
      </trkpt>
      <trkpt lat="45.25627" lon="5.02851">
        <ele>249.87</ele>
        <time>2017-02-25T14:04:38Z</time>
      </trkpt>
      <trkpt lat="45.25627" lon="5.02851">
        <ele>249.87</ele>
        <time>2017-02-25T14:04:39Z</time>
      </trkpt>
      <trkpt lat="45.25627" lon="5.02851">
        <ele>249.87</ele>
        <time>2017-02-25T14:04:40Z</time>
      </trkpt>
      <trkpt lat="45.25627" lon="5.02851">
        <ele>249.87</ele>
        <time>2017-02-25T14:04:41Z</time>
      </trkpt>
      <trkpt lat="45.25627" lon="5.02851">
        <ele>249.87</ele>
        <time>2017-02-25T14:04:42Z</time>
      </trkpt>
      <trkpt lat="45.25627" lon="5.02851">
        <ele>249.87</ele>
        <time>2017-02-25T14:04:43Z</time>
      </trkpt>
      <trkpt lat="45.25627" lon="5.02851">
        <ele>249.87</ele>
        <time>2017-02-25T14:04:44Z</time>
      </trkpt>
      <trkpt lat="45.25627" lon="5.02851">
        <ele>249.87</ele>
        <time>2017-02-25T14:04:45Z</time>
      </trkpt>
      <trkpt lat="45.25627" lon="5.02851">
        <ele>249.87</ele>
        <time>2017-02-25T14:04:46Z</time>
      </trkpt>
      <trkpt lat="45.25627" lon="5.02851">
        <ele>249.87</ele>
        <time>2017-02-25T14:04:47Z</time>
      </trkpt>
      <trkpt lat="45.25627" lon="5.02851">
        <ele>249.87</ele>
        <time>2017-02-25T14:04:48Z</time>
      </trkpt>
      <trkpt lat="45.25627" lon="5.02851">
        <ele>249.87</ele>
        <time>2017-02-25T14:04:49Z</time>
      </trkpt>
      <trkpt lat="45.25627" lon="5.02851">
        <ele>249.87</ele>
        <time>2017-02-25T14:04:50Z</time>
      </trkpt>
      <trkpt lat="45.25627" lon="5.02851">
        <ele>249.87</ele>
        <time>2017-02-25T14:04:51Z</time>
      </trkpt>
      <trkpt lat="45.25627" lon="5.02851">
        <ele>249.87</ele>
        <time>2017-02-25T14:04:52Z</time>
      </trkpt>
      <trkpt lat="45.25627" lon="5.02851">
        <ele>249.87</ele>
        <time>2017-02-25T14:04:53Z</time>
      </trkpt>
      <trkpt lat="45.25627" lon="5.02851">
        <ele>249.87</ele>
        <time>2017-02-25T14:04:54Z</time>
      </trkpt>
      <trkpt lat="45.25627" lon="5.02851">
        <ele>249.87</ele>
        <time>2017-02-25T14:04:55Z</time>
      </trkpt>
      <trkpt lat="45.25627" lon="5.02851">
        <ele>249.87</ele>
        <time>2017-02-25T14:04:56Z</time>
      </trkpt>
      <trkpt lat="45.25627" lon="5.02851">
        <ele>249.87</ele>
        <time>2017-02-25T14:04:57Z</time>
      </trkpt>
      <trkpt lat="45.25627" lon="5.02851">
        <ele>249.87</ele>
        <time>2017-02-25T14:04:58Z</time>
      </trkpt>
      <trkpt lat="45.25627" lon="5.02851">
        <ele>249.87</ele>
        <time>2017-02-25T14:04:59Z</time>
      </trkpt>
      <trkpt lat="45.25627" lon="5.02851">
        <ele>249.87</ele>
        <time>2017-02-25T14:05:00Z</time>
      </trkpt>
      <trkpt lat="45.25627" lon="5.02851">
        <ele>249.87</ele>
        <time>2017-02-25T14:05:01Z</time>
      </trkpt>
      <trkpt lat="45.25627" lon="5.02851">
        <ele>249.87</ele>
        <time>2017-02-25T14:05:02Z</time>
      </trkpt>
      <trkpt lat="45.25627" lon="5.02851">
        <ele>249.87</ele>
        <time>2017-02-25T14:05:03Z</time>
      </trkpt>
      <trkpt lat="45.25627" lon="5.02851">
        <ele>249.87</ele>
        <time>2017-02-25T14:05:04Z</time>
      </trkpt>
      <trkpt lat="45.25629" lon="5.02859">
        <ele>251.23</ele>
        <time>2017-02-25T14:05:05Z</time>
      </trkpt>
      <trkpt lat="45.25629" lon="5.02861">
        <ele>251.5</ele>
        <time>2017-02-25T14:05:06Z</time>
      </trkpt>
      <trkpt lat="45.25629" lon="5.02862">
        <ele>251.47</ele>
        <time>2017-02-25T14:05:07Z</time>
      </trkpt>
      <trkpt lat="45.25629" lon="5.02862">
        <ele>251.39</ele>
        <time>2017-02-25T14:05:08Z</time>
      </trkpt>
      <trkpt lat="45.25629" lon="5.02862">
        <ele>251.37</ele>
        <time>2017-02-25T14:05:09Z</time>
      </trkpt>
      <trkpt lat="45.25629" lon="5.02862">
        <ele>251.37</ele>
        <time>2017-02-25T14:05:10Z</time>
      </trkpt>
      <trkpt lat="45.25629" lon="5.02862">
        <ele>251.37</ele>
        <time>2017-02-25T14:05:11Z</time>
      </trkpt>
      <trkpt lat="45.25629" lon="5.02862">
        <ele>251.37</ele>
        <time>2017-02-25T14:05:12Z</time>
      </trkpt>
      <trkpt lat="45.25629" lon="5.02862">
        <ele>251.37</ele>
        <time>2017-02-25T14:05:13Z</time>
      </trkpt>
      <trkpt lat="45.25629" lon="5.02862">
        <ele>251.37</ele>
        <time>2017-02-25T14:05:14Z</time>
      </trkpt>
      <trkpt lat="45.25629" lon="5.02862">
        <ele>251.37</ele>
        <time>2017-02-25T14:05:15Z</time>
      </trkpt>
      <trkpt lat="45.25629" lon="5.02862">
        <ele>251.37</ele>
        <time>2017-02-25T14:05:16Z</time>
      </trkpt>
      <trkpt lat="45.25629" lon="5.02862">
        <ele>251.37</ele>
        <time>2017-02-25T14:05:17Z</time>
      </trkpt>
      <trkpt lat="45.25629" lon="5.02862">
        <ele>251.37</ele>
        <time>2017-02-25T14:05:18Z</time>
      </trkpt>
      <trkpt lat="45.25629" lon="5.02862">
        <ele>251.37</ele>
        <time>2017-02-25T14:05:19Z</time>
      </trkpt>
      <trkpt lat="45.25629" lon="5.02862">
        <ele>251.37</ele>
        <time>2017-02-25T14:05:20Z</time>
      </trkpt>
      <trkpt lat="45.25629" lon="5.02862">
        <ele>251.37</ele>
        <time>2017-02-25T14:05:21Z</time>
      </trkpt>
      <trkpt lat="45.25629" lon="5.02862">
        <ele>251.37</ele>
        <time>2017-02-25T14:05:22Z</time>
      </trkpt>
      <trkpt lat="45.25629" lon="5.02862">
        <ele>251.37</ele>
        <time>2017-02-25T14:05:23Z</time>
      </trkpt>
      <trkpt lat="45.25629" lon="5.02862">
        <ele>251.37</ele>
        <time>2017-02-25T14:05:24Z</time>
      </trkpt>
      <trkpt lat="45.25629" lon="5.02862">
        <ele>251.37</ele>
        <time>2017-02-25T14:05:25Z</time>
      </trkpt>
      <trkpt lat="45.25629" lon="5.02862">
        <ele>251.37</ele>
        <time>2017-02-25T14:05:26Z</time>
      </trkpt>
      <trkpt lat="45.25629" lon="5.02862">
        <ele>251.37</ele>
        <time>2017-02-25T14:05:27Z</time>
      </trkpt>
      <trkpt lat="45.25629" lon="5.02862">
        <ele>251.37</ele>
        <time>2017-02-25T14:05:28Z</time>
      </trkpt>
      <trkpt lat="45.25629" lon="5.02862">
        <ele>251.37</ele>
        <time>2017-02-25T14:05:29Z</time>
      </trkpt>
      <trkpt lat="45.25629" lon="5.02862">
        <ele>251.37</ele>
        <time>2017-02-25T14:05:30Z</time>
      </trkpt>
      <trkpt lat="45.25629" lon="5.02862">
        <ele>251.37</ele>
        <time>2017-02-25T14:05:31Z</time>
      </trkpt>
      <trkpt lat="45.25629" lon="5.02862">
        <ele>251.37</ele>
        <time>2017-02-25T14:05:32Z</time>
      </trkpt>
      <trkpt lat="45.25629" lon="5.02862">
        <ele>251.37</ele>
        <time>2017-02-25T14:05:33Z</time>
      </trkpt>
      <trkpt lat="45.25629" lon="5.02862">
        <ele>251.37</ele>
        <time>2017-02-25T14:05:34Z</time>
      </trkpt>
      <trkpt lat="45.25629" lon="5.02862">
        <ele>251.37</ele>
        <time>2017-02-25T14:05:35Z</time>
      </trkpt>
      <trkpt lat="45.25629" lon="5.02862">
        <ele>251.37</ele>
        <time>2017-02-25T14:05:36Z</time>
      </trkpt>
      <trkpt lat="45.25629" lon="5.02862">
        <ele>251.37</ele>
        <time>2017-02-25T14:05:37Z</time>
      </trkpt>
      <trkpt lat="45.25629" lon="5.02862">
        <ele>251.37</ele>
        <time>2017-02-25T14:05:38Z</time>
      </trkpt>
      <trkpt lat="45.25629" lon="5.02862">
        <ele>251.37</ele>
        <time>2017-02-25T14:05:39Z</time>
      </trkpt>
      <trkpt lat="45.25629" lon="5.02862">
        <ele>251.37</ele>
        <time>2017-02-25T14:05:40Z</time>
      </trkpt>
      <trkpt lat="45.25629" lon="5.02862">
        <ele>251.37</ele>
        <time>2017-02-25T14:05:41Z</time>
      </trkpt>
      <trkpt lat="45.25629" lon="5.02862">
        <ele>251.37</ele>
        <time>2017-02-25T14:05:42Z</time>
      </trkpt>
      <trkpt lat="45.25629" lon="5.02862">
        <ele>251.37</ele>
        <time>2017-02-25T14:05:43Z</time>
      </trkpt>
      <trkpt lat="45.25629" lon="5.02862">
        <ele>251.37</ele>
        <time>2017-02-25T14:05:44Z</time>
      </trkpt>
      <trkpt lat="45.25629" lon="5.02862">
        <ele>251.37</ele>
        <time>2017-02-25T14:05:45Z</time>
      </trkpt>
      <trkpt lat="45.25629" lon="5.02862">
        <ele>251.37</ele>
        <time>2017-02-25T14:05:46Z</time>
      </trkpt>
      <trkpt lat="45.25629" lon="5.02862">
        <ele>251.37</ele>
        <time>2017-02-25T14:05:47Z</time>
      </trkpt>
      <trkpt lat="45.25629" lon="5.02862">
        <ele>251.37</ele>
        <time>2017-02-25T14:05:48Z</time>
      </trkpt>
      <trkpt lat="45.25629" lon="5.02862">
        <ele>251.37</ele>
        <time>2017-02-25T14:05:49Z</time>
      </trkpt>
      <trkpt lat="45.25629" lon="5.02862">
        <ele>251.37</ele>
        <time>2017-02-25T14:05:50Z</time>
      </trkpt>
      <trkpt lat="45.25629" lon="5.02862">
        <ele>251.37</ele>
        <time>2017-02-25T14:05:51Z</time>
      </trkpt>
      <trkpt lat="45.25629" lon="5.02862">
        <ele>251.37</ele>
        <time>2017-02-25T14:05:52Z</time>
      </trkpt>
      <trkpt lat="45.25629" lon="5.02862">
        <ele>251.37</ele>
        <time>2017-02-25T14:05:53Z</time>
      </trkpt>
      <trkpt lat="45.25629" lon="5.02862">
        <ele>251.37</ele>
        <time>2017-02-25T14:05:54Z</time>
      </trkpt>
      <trkpt lat="45.25629" lon="5.02862">
        <ele>251.37</ele>
        <time>2017-02-25T14:05:55Z</time>
      </trkpt>
      <trkpt lat="45.25629" lon="5.02862">
        <ele>251.37</ele>
        <time>2017-02-25T14:05:56Z</time>
      </trkpt>
      <trkpt lat="45.25629" lon="5.02862">
        <ele>251.37</ele>
        <time>2017-02-25T14:05:57Z</time>
      </trkpt>
      <trkpt lat="45.25629" lon="5.02862">
        <ele>251.37</ele>
        <time>2017-02-25T14:05:58Z</time>
      </trkpt>
      <trkpt lat="45.25629" lon="5.02862">
        <ele>251.37</ele>
        <time>2017-02-25T14:05:59Z</time>
      </trkpt>
      <trkpt lat="45.25629" lon="5.02862">
        <ele>251.37</ele>
        <time>2017-02-25T14:06:00Z</time>
      </trkpt>
      <trkpt lat="45.25629" lon="5.02862">
        <ele>251.37</ele>
        <time>2017-02-25T14:06:01Z</time>
      </trkpt>
      <trkpt lat="45.25629" lon="5.02862">
        <ele>251.37</ele>
        <time>2017-02-25T14:06:02Z</time>
      </trkpt>
      <trkpt lat="45.25629" lon="5.02862">
        <ele>251.37</ele>
        <time>2017-02-25T14:06:03Z</time>
      </trkpt>
      <trkpt lat="45.25629" lon="5.02862">
        <ele>251.37</ele>
        <time>2017-02-25T14:06:04Z</time>
      </trkpt>
      <trkpt lat="45.25629" lon="5.02862">
        <ele>251.37</ele>
        <time>2017-02-25T14:06:05Z</time>
      </trkpt>
      <trkpt lat="45.25629" lon="5.02862">
        <ele>251.37</ele>
        <time>2017-02-25T14:06:06Z</time>
      </trkpt>
      <trkpt lat="45.25629" lon="5.02862">
        <ele>251.37</ele>
        <time>2017-02-25T14:06:07Z</time>
      </trkpt>
      <trkpt lat="45.25629" lon="5.02862">
        <ele>251.37</ele>
        <time>2017-02-25T14:06:08Z</time>
      </trkpt>
      <trkpt lat="45.25629" lon="5.02862">
        <ele>251.37</ele>
        <time>2017-02-25T14:06:09Z</time>
      </trkpt>
      <trkpt lat="45.25629" lon="5.02862">
        <ele>251.37</ele>
        <time>2017-02-25T14:06:10Z</time>
      </trkpt>
      <trkpt lat="45.25629" lon="5.02862">
        <ele>251.37</ele>
        <time>2017-02-25T14:06:11Z</time>
      </trkpt>
      <trkpt lat="45.25629" lon="5.02862">
        <ele>251.37</ele>
        <time>2017-02-25T14:06:12Z</time>
      </trkpt>
      <trkpt lat="45.25629" lon="5.02862">
        <ele>251.37</ele>
        <time>2017-02-25T14:06:13Z</time>
      </trkpt>
      <trkpt lat="45.25629" lon="5.02862">
        <ele>251.37</ele>
        <time>2017-02-25T14:06:14Z</time>
      </trkpt>
      <trkpt lat="45.25629" lon="5.02862">
        <ele>251.37</ele>
        <time>2017-02-25T14:06:15Z</time>
      </trkpt>
      <trkpt lat="45.25629" lon="5.02862">
        <ele>251.37</ele>
        <time>2017-02-25T14:06:16Z</time>
      </trkpt>
      <trkpt lat="45.25629" lon="5.02862">
        <ele>251.37</ele>
        <time>2017-02-25T14:06:17Z</time>
      </trkpt>
      <trkpt lat="45.25629" lon="5.02862">
        <ele>251.37</ele>
        <time>2017-02-25T14:06:18Z</time>
      </trkpt>
      <trkpt lat="45.25629" lon="5.02862">
        <ele>251.37</ele>
        <time>2017-02-25T14:06:19Z</time>
      </trkpt>
      <trkpt lat="45.25629" lon="5.02862">
        <ele>251.37</ele>
        <time>2017-02-25T14:06:20Z</time>
      </trkpt>
      <trkpt lat="45.25629" lon="5.02862">
        <ele>251.37</ele>
        <time>2017-02-25T14:06:21Z</time>
      </trkpt>
      <trkpt lat="45.25629" lon="5.02862">
        <ele>251.37</ele>
        <time>2017-02-25T14:06:22Z</time>
      </trkpt>
      <trkpt lat="45.25629" lon="5.02862">
        <ele>251.37</ele>
        <time>2017-02-25T14:06:23Z</time>
      </trkpt>
      <trkpt lat="45.25629" lon="5.02862">
        <ele>251.37</ele>
        <time>2017-02-25T14:06:24Z</time>
      </trkpt>
      <trkpt lat="45.25629" lon="5.02862">
        <ele>251.37</ele>
        <time>2017-02-25T14:06:25Z</time>
      </trkpt>
      <trkpt lat="45.25629" lon="5.02862">
        <ele>251.37</ele>
        <time>2017-02-25T14:06:26Z</time>
      </trkpt>
      <trkpt lat="45.25629" lon="5.02862">
        <ele>251.37</ele>
        <time>2017-02-25T14:06:27Z</time>
      </trkpt>
      <trkpt lat="45.25629" lon="5.02862">
        <ele>251.37</ele>
        <time>2017-02-25T14:06:28Z</time>
      </trkpt>
      <trkpt lat="45.25629" lon="5.02862">
        <ele>251.37</ele>
        <time>2017-02-25T14:06:29Z</time>
      </trkpt>
      <trkpt lat="45.25629" lon="5.02862">
        <ele>251.37</ele>
        <time>2017-02-25T14:06:30Z</time>
      </trkpt>
      <trkpt lat="45.25629" lon="5.02862">
        <ele>251.37</ele>
        <time>2017-02-25T14:06:31Z</time>
      </trkpt>
      <trkpt lat="45.25629" lon="5.02862">
        <ele>251.37</ele>
        <time>2017-02-25T14:06:32Z</time>
      </trkpt>
      <trkpt lat="45.25629" lon="5.02862">
        <ele>251.37</ele>
        <time>2017-02-25T14:06:33Z</time>
      </trkpt>
      <trkpt lat="45.25629" lon="5.02862">
        <ele>251.37</ele>
        <time>2017-02-25T14:06:34Z</time>
      </trkpt>
      <trkpt lat="45.25629" lon="5.02862">
        <ele>251.37</ele>
        <time>2017-02-25T14:06:35Z</time>
      </trkpt>
      <trkpt lat="45.25629" lon="5.02862">
        <ele>251.37</ele>
        <time>2017-02-25T14:06:36Z</time>
      </trkpt>
      <trkpt lat="45.25629" lon="5.02862">
        <ele>251.37</ele>
        <time>2017-02-25T14:06:37Z</time>
      </trkpt>
      <trkpt lat="45.25629" lon="5.02862">
        <ele>251.37</ele>
        <time>2017-02-25T14:06:38Z</time>
      </trkpt>
      <trkpt lat="45.25629" lon="5.02862">
        <ele>251.37</ele>
        <time>2017-02-25T14:06:39Z</time>
      </trkpt>
      <trkpt lat="45.25629" lon="5.02862">
        <ele>251.37</ele>
        <time>2017-02-25T14:06:40Z</time>
      </trkpt>
      <trkpt lat="45.25629" lon="5.02862">
        <ele>251.37</ele>
        <time>2017-02-25T14:06:41Z</time>
      </trkpt>
      <trkpt lat="45.25629" lon="5.02862">
        <ele>251.37</ele>
        <time>2017-02-25T14:06:42Z</time>
      </trkpt>
      <trkpt lat="45.25629" lon="5.02862">
        <ele>251.37</ele>
        <time>2017-02-25T14:06:43Z</time>
      </trkpt>
      <trkpt lat="45.25629" lon="5.02862">
        <ele>251.37</ele>
        <time>2017-02-25T14:06:44Z</time>
      </trkpt>
      <trkpt lat="45.25629" lon="5.02862">
        <ele>251.37</ele>
        <time>2017-02-25T14:06:45Z</time>
      </trkpt>
      <trkpt lat="45.25629" lon="5.02862">
        <ele>251.37</ele>
        <time>2017-02-25T14:06:46Z</time>
      </trkpt>
      <trkpt lat="45.25629" lon="5.02862">
        <ele>251.37</ele>
        <time>2017-02-25T14:06:47Z</time>
      </trkpt>
      <trkpt lat="45.25629" lon="5.02862">
        <ele>251.37</ele>
        <time>2017-02-25T14:06:48Z</time>
      </trkpt>
      <trkpt lat="45.25629" lon="5.02862">
        <ele>251.37</ele>
        <time>2017-02-25T14:06:49Z</time>
      </trkpt>
      <trkpt lat="45.25629" lon="5.02862">
        <ele>251.37</ele>
        <time>2017-02-25T14:06:50Z</time>
      </trkpt>
      <trkpt lat="45.25629" lon="5.02862">
        <ele>251.37</ele>
        <time>2017-02-25T14:06:51Z</time>
      </trkpt>
      <trkpt lat="45.25629" lon="5.02862">
        <ele>251.37</ele>
        <time>2017-02-25T14:06:52Z</time>
      </trkpt>
      <trkpt lat="45.25629" lon="5.02862">
        <ele>251.37</ele>
        <time>2017-02-25T14:06:53Z</time>
      </trkpt>
      <trkpt lat="45.25629" lon="5.02862">
        <ele>251.37</ele>
        <time>2017-02-25T14:06:54Z</time>
      </trkpt>
      <trkpt lat="45.25629" lon="5.02862">
        <ele>251.37</ele>
        <time>2017-02-25T14:06:55Z</time>
      </trkpt>
      <trkpt lat="45.25629" lon="5.02862">
        <ele>251.37</ele>
        <time>2017-02-25T14:06:56Z</time>
      </trkpt>
      <trkpt lat="45.25629" lon="5.02862">
        <ele>251.37</ele>
        <time>2017-02-25T14:06:57Z</time>
      </trkpt>
      <trkpt lat="45.25629" lon="5.02862">
        <ele>251.37</ele>
        <time>2017-02-25T14:06:58Z</time>
      </trkpt>
      <trkpt lat="45.25629" lon="5.02862">
        <ele>251.37</ele>
        <time>2017-02-25T14:06:59Z</time>
      </trkpt>
      <trkpt lat="45.25629" lon="5.02862">
        <ele>251.37</ele>
        <time>2017-02-25T14:07:00Z</time>
      </trkpt>
      <trkpt lat="45.25629" lon="5.02862">
        <ele>251.37</ele>
        <time>2017-02-25T14:07:01Z</time>
      </trkpt>
      <trkpt lat="45.25629" lon="5.02862">
        <ele>251.37</ele>
        <time>2017-02-25T14:07:02Z</time>
      </trkpt>
      <trkpt lat="45.25629" lon="5.02862">
        <ele>251.37</ele>
        <time>2017-02-25T14:07:03Z</time>
      </trkpt>
      <trkpt lat="45.25629" lon="5.02862">
        <ele>251.37</ele>
        <time>2017-02-25T14:07:04Z</time>
      </trkpt>
      <trkpt lat="45.25629" lon="5.02862">
        <ele>251.37</ele>
        <time>2017-02-25T14:07:05Z</time>
      </trkpt>
      <trkpt lat="45.25629" lon="5.02862">
        <ele>251.37</ele>
        <time>2017-02-25T14:07:06Z</time>
      </trkpt>
      <trkpt lat="45.25629" lon="5.02862">
        <ele>251.37</ele>
        <time>2017-02-25T14:07:07Z</time>
      </trkpt>
      <trkpt lat="45.25629" lon="5.02862">
        <ele>251.37</ele>
        <time>2017-02-25T14:07:08Z</time>
      </trkpt>
      <trkpt lat="45.25629" lon="5.02862">
        <ele>251.37</ele>
        <time>2017-02-25T14:07:09Z</time>
      </trkpt>
      <trkpt lat="45.25629" lon="5.02862">
        <ele>251.37</ele>
        <time>2017-02-25T14:07:10Z</time>
      </trkpt>
      <trkpt lat="45.25629" lon="5.02862">
        <ele>251.37</ele>
        <time>2017-02-25T14:07:11Z</time>
      </trkpt>
      <trkpt lat="45.25629" lon="5.02862">
        <ele>251.37</ele>
        <time>2017-02-25T14:07:12Z</time>
      </trkpt>
      <trkpt lat="45.25629" lon="5.02862">
        <ele>251.37</ele>
        <time>2017-02-25T14:07:13Z</time>
      </trkpt>
      <trkpt lat="45.25629" lon="5.02862">
        <ele>251.37</ele>
        <time>2017-02-25T14:07:14Z</time>
      </trkpt>
      <trkpt lat="45.25629" lon="5.02862">
        <ele>251.37</ele>
        <time>2017-02-25T14:07:15Z</time>
      </trkpt>
      <trkpt lat="45.25629" lon="5.02862">
        <ele>251.37</ele>
        <time>2017-02-25T14:07:16Z</time>
      </trkpt>
      <trkpt lat="45.25629" lon="5.02862">
        <ele>251.37</ele>
        <time>2017-02-25T14:07:17Z</time>
      </trkpt>
      <trkpt lat="45.25629" lon="5.02862">
        <ele>251.37</ele>
        <time>2017-02-25T14:07:18Z</time>
      </trkpt>
      <trkpt lat="45.25629" lon="5.02862">
        <ele>251.37</ele>
        <time>2017-02-25T14:07:19Z</time>
      </trkpt>
      <trkpt lat="45.25629" lon="5.02862">
        <ele>251.37</ele>
        <time>2017-02-25T14:07:20Z</time>
      </trkpt>
      <trkpt lat="45.25629" lon="5.02862">
        <ele>251.37</ele>
        <time>2017-02-25T14:07:21Z</time>
      </trkpt>
      <trkpt lat="45.25629" lon="5.02862">
        <ele>251.37</ele>
        <time>2017-02-25T14:07:22Z</time>
      </trkpt>
      <trkpt lat="45.25629" lon="5.02862">
        <ele>251.37</ele>
        <time>2017-02-25T14:07:23Z</time>
      </trkpt>
      <trkpt lat="45.25629" lon="5.02862">
        <ele>251.37</ele>
        <time>2017-02-25T14:07:24Z</time>
      </trkpt>
      <trkpt lat="45.25629" lon="5.02862">
        <ele>251.37</ele>
        <time>2017-02-25T14:07:25Z</time>
      </trkpt>
      <trkpt lat="45.25629" lon="5.02862">
        <ele>251.37</ele>
        <time>2017-02-25T14:07:26Z</time>
      </trkpt>
      <trkpt lat="45.25629" lon="5.02862">
        <ele>251.37</ele>
        <time>2017-02-25T14:07:27Z</time>
      </trkpt>
      <trkpt lat="45.25629" lon="5.02862">
        <ele>251.37</ele>
        <time>2017-02-25T14:07:28Z</time>
      </trkpt>
      <trkpt lat="45.25629" lon="5.02862">
        <ele>251.37</ele>
        <time>2017-02-25T14:07:29Z</time>
      </trkpt>
      <trkpt lat="45.25629" lon="5.02862">
        <ele>251.37</ele>
        <time>2017-02-25T14:07:30Z</time>
      </trkpt>
      <trkpt lat="45.25629" lon="5.02862">
        <ele>251.37</ele>
        <time>2017-02-25T14:07:31Z</time>
      </trkpt>
      <trkpt lat="45.25629" lon="5.02862">
        <ele>251.37</ele>
        <time>2017-02-25T14:07:32Z</time>
      </trkpt>
      <trkpt lat="45.25625" lon="5.02857">
        <ele>251.53</ele>
        <time>2017-02-25T14:07:33Z</time>
      </trkpt>
      <trkpt lat="45.25625" lon="5.02858">
        <ele>251.56</ele>
        <time>2017-02-25T14:07:34Z</time>
      </trkpt>
      <trkpt lat="45.25624" lon="5.02859">
        <ele>251.65</ele>
        <time>2017-02-25T14:07:35Z</time>
      </trkpt>
      <trkpt lat="45.25625" lon="5.0286">
        <ele>251.66</ele>
        <time>2017-02-25T14:07:36Z</time>
      </trkpt>
      <trkpt lat="45.25625" lon="5.02861">
        <ele>251.75</ele>
        <time>2017-02-25T14:07:37Z</time>
      </trkpt>
      <trkpt lat="45.25625" lon="5.02862">
        <ele>251.76</ele>
        <time>2017-02-25T14:07:38Z</time>
      </trkpt>
      <trkpt lat="45.25625" lon="5.02862">
        <ele>251.77</ele>
        <time>2017-02-25T14:07:39Z</time>
      </trkpt>
      <trkpt lat="45.25625" lon="5.02862">
        <ele>251.77</ele>
        <time>2017-02-25T14:07:40Z</time>
      </trkpt>
      <trkpt lat="45.25625" lon="5.02862">
        <ele>251.77</ele>
        <time>2017-02-25T14:07:41Z</time>
      </trkpt>
      <trkpt lat="45.25625" lon="5.02862">
        <ele>251.77</ele>
        <time>2017-02-25T14:07:42Z</time>
      </trkpt>
      <trkpt lat="45.25625" lon="5.02862">
        <ele>251.77</ele>
        <time>2017-02-25T14:07:43Z</time>
      </trkpt>
      <trkpt lat="45.25625" lon="5.02862">
        <ele>251.77</ele>
        <time>2017-02-25T14:07:44Z</time>
      </trkpt>
      <trkpt lat="45.25625" lon="5.02862">
        <ele>251.77</ele>
        <time>2017-02-25T14:07:45Z</time>
      </trkpt>
      <trkpt lat="45.25625" lon="5.02862">
        <ele>251.77</ele>
        <time>2017-02-25T14:07:46Z</time>
      </trkpt>
      <trkpt lat="45.25625" lon="5.02862">
        <ele>251.77</ele>
        <time>2017-02-25T14:07:47Z</time>
      </trkpt>
      <trkpt lat="45.25625" lon="5.02862">
        <ele>251.77</ele>
        <time>2017-02-25T14:07:48Z</time>
      </trkpt>
      <trkpt lat="45.25625" lon="5.02862">
        <ele>251.77</ele>
        <time>2017-02-25T14:07:49Z</time>
      </trkpt>
      <trkpt lat="45.25625" lon="5.02862">
        <ele>251.77</ele>
        <time>2017-02-25T14:07:50Z</time>
      </trkpt>
      <trkpt lat="45.25625" lon="5.02862">
        <ele>251.77</ele>
        <time>2017-02-25T14:07:51Z</time>
      </trkpt>
      <trkpt lat="45.25625" lon="5.02862">
        <ele>251.77</ele>
        <time>2017-02-25T14:07:52Z</time>
      </trkpt>
      <trkpt lat="45.25625" lon="5.02862">
        <ele>251.77</ele>
        <time>2017-02-25T14:07:53Z</time>
      </trkpt>
      <trkpt lat="45.25625" lon="5.02862">
        <ele>251.77</ele>
        <time>2017-02-25T14:07:54Z</time>
      </trkpt>
      <trkpt lat="45.25625" lon="5.02862">
        <ele>251.77</ele>
        <time>2017-02-25T14:07:55Z</time>
      </trkpt>
      <trkpt lat="45.25625" lon="5.02862">
        <ele>251.77</ele>
        <time>2017-02-25T14:07:56Z</time>
      </trkpt>
      <trkpt lat="45.25625" lon="5.02862">
        <ele>251.77</ele>
        <time>2017-02-25T14:07:57Z</time>
      </trkpt>
      <trkpt lat="45.25625" lon="5.02862">
        <ele>251.77</ele>
        <time>2017-02-25T14:07:58Z</time>
      </trkpt>
      <trkpt lat="45.25625" lon="5.02862">
        <ele>251.77</ele>
        <time>2017-02-25T14:07:59Z</time>
      </trkpt>
      <trkpt lat="45.25625" lon="5.02862">
        <ele>251.77</ele>
        <time>2017-02-25T14:08:00Z</time>
      </trkpt>
      <trkpt lat="45.25625" lon="5.02862">
        <ele>251.77</ele>
        <time>2017-02-25T14:08:01Z</time>
      </trkpt>
      <trkpt lat="45.25625" lon="5.02862">
        <ele>251.77</ele>
        <time>2017-02-25T14:08:02Z</time>
      </trkpt>
      <trkpt lat="45.25625" lon="5.02862">
        <ele>251.77</ele>
        <time>2017-02-25T14:08:03Z</time>
      </trkpt>
      <trkpt lat="45.25625" lon="5.02862">
        <ele>251.77</ele>
        <time>2017-02-25T14:08:04Z</time>
      </trkpt>
      <trkpt lat="45.25625" lon="5.02862">
        <ele>251.77</ele>
        <time>2017-02-25T14:08:05Z</time>
      </trkpt>
      <trkpt lat="45.25625" lon="5.02862">
        <ele>251.77</ele>
        <time>2017-02-25T14:08:06Z</time>
      </trkpt>
      <trkpt lat="45.25625" lon="5.02862">
        <ele>251.77</ele>
        <time>2017-02-25T14:08:07Z</time>
      </trkpt>
      <trkpt lat="45.25625" lon="5.02862">
        <ele>251.77</ele>
        <time>2017-02-25T14:08:08Z</time>
      </trkpt>
      <trkpt lat="45.25625" lon="5.02862">
        <ele>251.77</ele>
        <time>2017-02-25T14:08:09Z</time>
      </trkpt>
      <trkpt lat="45.25634" lon="5.02855">
        <ele>252.33</ele>
        <time>2017-02-25T14:08:10Z</time>
      </trkpt>
      <trkpt lat="45.25635" lon="5.02854">
        <ele>252.36</ele>
        <time>2017-02-25T14:08:11Z</time>
      </trkpt>
      <trkpt lat="45.25635" lon="5.02854">
        <ele>252.37</ele>
        <time>2017-02-25T14:08:12Z</time>
      </trkpt>
      <trkpt lat="45.25636" lon="5.02853">
        <ele>252.37</ele>
        <time>2017-02-25T14:08:13Z</time>
      </trkpt>
      <trkpt lat="45.25636" lon="5.02853">
        <ele>252.37</ele>
        <time>2017-02-25T14:08:14Z</time>
      </trkpt>
      <trkpt lat="45.25636" lon="5.02853">
        <ele>252.37</ele>
        <time>2017-02-25T14:08:15Z</time>
      </trkpt>
      <trkpt lat="45.25636" lon="5.02853">
        <ele>252.37</ele>
        <time>2017-02-25T14:08:16Z</time>
      </trkpt>
      <trkpt lat="45.25636" lon="5.02853">
        <ele>252.37</ele>
        <time>2017-02-25T14:08:17Z</time>
      </trkpt>
      <trkpt lat="45.25636" lon="5.02853">
        <ele>252.37</ele>
        <time>2017-02-25T14:08:18Z</time>
      </trkpt>
      <trkpt lat="45.25636" lon="5.02853">
        <ele>252.37</ele>
        <time>2017-02-25T14:08:19Z</time>
      </trkpt>
      <trkpt lat="45.25636" lon="5.02853">
        <ele>252.37</ele>
        <time>2017-02-25T14:08:20Z</time>
      </trkpt>
      <trkpt lat="45.25636" lon="5.02853">
        <ele>252.37</ele>
        <time>2017-02-25T14:08:21Z</time>
      </trkpt>
      <trkpt lat="45.25636" lon="5.02853">
        <ele>252.37</ele>
        <time>2017-02-25T14:08:22Z</time>
      </trkpt>
      <trkpt lat="45.25636" lon="5.02853">
        <ele>252.37</ele>
        <time>2017-02-25T14:08:23Z</time>
      </trkpt>
      <trkpt lat="45.25636" lon="5.02853">
        <ele>252.37</ele>
        <time>2017-02-25T14:08:24Z</time>
      </trkpt>
      <trkpt lat="45.25636" lon="5.02853">
        <ele>252.37</ele>
        <time>2017-02-25T14:08:25Z</time>
      </trkpt>
      <trkpt lat="45.25636" lon="5.02853">
        <ele>252.37</ele>
        <time>2017-02-25T14:08:26Z</time>
      </trkpt>
      <trkpt lat="45.25636" lon="5.02853">
        <ele>252.37</ele>
        <time>2017-02-25T14:08:27Z</time>
      </trkpt>
      <trkpt lat="45.25645" lon="5.02854">
        <ele>252.69</ele>
        <time>2017-02-25T14:08:28Z</time>
      </trkpt>
      <trkpt lat="45.25645" lon="5.02854">
        <ele>252.75</ele>
        <time>2017-02-25T14:08:29Z</time>
      </trkpt>
      <trkpt lat="45.25645" lon="5.02855">
        <ele>252.68</ele>
        <time>2017-02-25T14:08:30Z</time>
      </trkpt>
      <trkpt lat="45.25646" lon="5.02855">
        <ele>252.67</ele>
        <time>2017-02-25T14:08:31Z</time>
      </trkpt>
      <trkpt lat="45.25646" lon="5.02855">
        <ele>252.67</ele>
        <time>2017-02-25T14:08:32Z</time>
      </trkpt>
      <trkpt lat="45.25646" lon="5.02855">
        <ele>252.67</ele>
        <time>2017-02-25T14:08:33Z</time>
      </trkpt>
      <trkpt lat="45.25646" lon="5.02855">
        <ele>252.67</ele>
        <time>2017-02-25T14:08:34Z</time>
      </trkpt>
      <trkpt lat="45.25646" lon="5.02855">
        <ele>252.67</ele>
        <time>2017-02-25T14:08:35Z</time>
      </trkpt>
      <trkpt lat="45.25646" lon="5.02855">
        <ele>252.67</ele>
        <time>2017-02-25T14:08:36Z</time>
      </trkpt>
      <trkpt lat="45.25646" lon="5.02855">
        <ele>252.67</ele>
        <time>2017-02-25T14:08:37Z</time>
      </trkpt>
      <trkpt lat="45.25646" lon="5.02855">
        <ele>252.67</ele>
        <time>2017-02-25T14:08:38Z</time>
      </trkpt>
      <trkpt lat="45.25646" lon="5.02855">
        <ele>252.67</ele>
        <time>2017-02-25T14:08:39Z</time>
      </trkpt>
      <trkpt lat="45.25646" lon="5.02855">
        <ele>252.67</ele>
        <time>2017-02-25T14:08:40Z</time>
      </trkpt>
      <trkpt lat="45.25646" lon="5.02855">
        <ele>252.67</ele>
        <time>2017-02-25T14:08:41Z</time>
      </trkpt>
      <trkpt lat="45.25646" lon="5.02855">
        <ele>252.67</ele>
        <time>2017-02-25T14:08:42Z</time>
      </trkpt>
      <trkpt lat="45.25646" lon="5.02855">
        <ele>252.67</ele>
        <time>2017-02-25T14:08:43Z</time>
      </trkpt>
      <trkpt lat="45.25646" lon="5.02855">
        <ele>252.67</ele>
        <time>2017-02-25T14:08:44Z</time>
      </trkpt>
      <trkpt lat="45.25648" lon="5.02868">
        <ele>252.67</ele>
        <time>2017-02-25T14:08:45Z</time>
      </trkpt>
      <trkpt lat="45.25649" lon="5.02869">
        <ele>252.75</ele>
        <time>2017-02-25T14:08:46Z</time>
      </trkpt>
      <trkpt lat="45.25649" lon="5.0287">
        <ele>252.76</ele>
        <time>2017-02-25T14:08:47Z</time>
      </trkpt>
      <trkpt lat="45.25649" lon="5.02871">
        <ele>252.85</ele>
        <time>2017-02-25T14:08:48Z</time>
      </trkpt>
      <trkpt lat="45.25649" lon="5.02871">
        <ele>252.86</ele>
        <time>2017-02-25T14:08:49Z</time>
      </trkpt>
      <trkpt lat="45.25649" lon="5.02871">
        <ele>252.87</ele>
        <time>2017-02-25T14:08:50Z</time>
      </trkpt>
      <trkpt lat="45.25649" lon="5.02871">
        <ele>252.87</ele>
        <time>2017-02-25T14:08:51Z</time>
      </trkpt>
      <trkpt lat="45.25649" lon="5.02871">
        <ele>252.87</ele>
        <time>2017-02-25T14:08:52Z</time>
      </trkpt>
      <trkpt lat="45.25649" lon="5.02871">
        <ele>252.87</ele>
        <time>2017-02-25T14:08:53Z</time>
      </trkpt>
      <trkpt lat="45.25649" lon="5.02871">
        <ele>252.87</ele>
        <time>2017-02-25T14:08:54Z</time>
      </trkpt>
      <trkpt lat="45.25649" lon="5.02871">
        <ele>252.87</ele>
        <time>2017-02-25T14:08:55Z</time>
      </trkpt>
      <trkpt lat="45.25649" lon="5.02871">
        <ele>252.87</ele>
        <time>2017-02-25T14:08:56Z</time>
      </trkpt>
      <trkpt lat="45.25649" lon="5.02871">
        <ele>252.87</ele>
        <time>2017-02-25T14:08:57Z</time>
      </trkpt>
      <trkpt lat="45.25649" lon="5.02871">
        <ele>252.87</ele>
        <time>2017-02-25T14:08:58Z</time>
      </trkpt>
      <trkpt lat="45.25649" lon="5.02871">
        <ele>252.87</ele>
        <time>2017-02-25T14:08:59Z</time>
      </trkpt>
      <trkpt lat="45.25649" lon="5.02884">
        <ele>253.19</ele>
        <time>2017-02-25T14:09:00Z</time>
      </trkpt>
      <trkpt lat="45.25649" lon="5.02885">
        <ele>253.25</ele>
        <time>2017-02-25T14:09:01Z</time>
      </trkpt>
      <trkpt lat="45.25649" lon="5.02885">
        <ele>253.26</ele>
        <time>2017-02-25T14:09:02Z</time>
      </trkpt>
      <trkpt lat="45.25649" lon="5.02885">
        <ele>253.27</ele>
        <time>2017-02-25T14:09:03Z</time>
      </trkpt>
      <trkpt lat="45.25649" lon="5.02885">
        <ele>253.27</ele>
        <time>2017-02-25T14:09:04Z</time>
      </trkpt>
      <trkpt lat="45.25649" lon="5.02885">
        <ele>253.27</ele>
        <time>2017-02-25T14:09:05Z</time>
      </trkpt>
      <trkpt lat="45.25649" lon="5.02885">
        <ele>253.27</ele>
        <time>2017-02-25T14:09:06Z</time>
      </trkpt>
      <trkpt lat="45.25649" lon="5.02885">
        <ele>253.27</ele>
        <time>2017-02-25T14:09:07Z</time>
      </trkpt>
      <trkpt lat="45.25649" lon="5.02885">
        <ele>253.27</ele>
        <time>2017-02-25T14:09:08Z</time>
      </trkpt>
      <trkpt lat="45.25649" lon="5.02885">
        <ele>253.27</ele>
        <time>2017-02-25T14:09:09Z</time>
      </trkpt>
      <trkpt lat="45.25649" lon="5.02885">
        <ele>253.27</ele>
        <time>2017-02-25T14:09:10Z</time>
      </trkpt>
      <trkpt lat="45.25649" lon="5.02885">
        <ele>253.27</ele>
        <time>2017-02-25T14:09:11Z</time>
      </trkpt>
      <trkpt lat="45.25649" lon="5.02885">
        <ele>253.27</ele>
        <time>2017-02-25T14:09:12Z</time>
      </trkpt>
      <trkpt lat="45.25649" lon="5.02885">
        <ele>253.27</ele>
        <time>2017-02-25T14:09:13Z</time>
      </trkpt>
      <trkpt lat="45.25649" lon="5.02885">
        <ele>253.27</ele>
        <time>2017-02-25T14:09:14Z</time>
      </trkpt>
      <trkpt lat="45.25649" lon="5.02885">
        <ele>253.27</ele>
        <time>2017-02-25T14:09:15Z</time>
      </trkpt>
      <trkpt lat="45.25649" lon="5.02885">
        <ele>253.27</ele>
        <time>2017-02-25T14:09:16Z</time>
      </trkpt>
      <trkpt lat="45.25649" lon="5.02885">
        <ele>253.27</ele>
        <time>2017-02-25T14:09:17Z</time>
      </trkpt>
      <trkpt lat="45.25649" lon="5.02885">
        <ele>253.27</ele>
        <time>2017-02-25T14:09:18Z</time>
      </trkpt>
      <trkpt lat="45.25649" lon="5.02885">
        <ele>253.27</ele>
        <time>2017-02-25T14:09:19Z</time>
      </trkpt>
      <trkpt lat="45.25649" lon="5.02885">
        <ele>253.27</ele>
        <time>2017-02-25T14:09:20Z</time>
      </trkpt>
      <trkpt lat="45.25649" lon="5.02885">
        <ele>253.27</ele>
        <time>2017-02-25T14:09:21Z</time>
      </trkpt>
      <trkpt lat="45.25649" lon="5.02885">
        <ele>253.27</ele>
        <time>2017-02-25T14:09:22Z</time>
      </trkpt>
      <trkpt lat="45.25649" lon="5.02885">
        <ele>253.27</ele>
        <time>2017-02-25T14:09:23Z</time>
      </trkpt>
      <trkpt lat="45.25649" lon="5.02885">
        <ele>253.27</ele>
        <time>2017-02-25T14:09:24Z</time>
      </trkpt>
      <trkpt lat="45.25649" lon="5.02885">
        <ele>253.27</ele>
        <time>2017-02-25T14:09:25Z</time>
      </trkpt>
      <trkpt lat="45.25649" lon="5.02885">
        <ele>253.27</ele>
        <time>2017-02-25T14:09:26Z</time>
      </trkpt>
      <trkpt lat="45.25649" lon="5.02885">
        <ele>253.27</ele>
        <time>2017-02-25T14:09:27Z</time>
      </trkpt>
      <trkpt lat="45.25649" lon="5.02885">
        <ele>253.27</ele>
        <time>2017-02-25T14:09:28Z</time>
      </trkpt>
      <trkpt lat="45.25649" lon="5.02885">
        <ele>253.27</ele>
        <time>2017-02-25T14:09:29Z</time>
      </trkpt>
      <trkpt lat="45.25649" lon="5.02885">
        <ele>253.27</ele>
        <time>2017-02-25T14:09:30Z</time>
      </trkpt>
      <trkpt lat="45.25649" lon="5.02885">
        <ele>253.27</ele>
        <time>2017-02-25T14:09:31Z</time>
      </trkpt>
      <trkpt lat="45.25649" lon="5.02885">
        <ele>253.27</ele>
        <time>2017-02-25T14:09:32Z</time>
      </trkpt>
      <trkpt lat="45.25649" lon="5.02885">
        <ele>253.27</ele>
        <time>2017-02-25T14:09:33Z</time>
      </trkpt>
      <trkpt lat="45.25649" lon="5.02885">
        <ele>253.27</ele>
        <time>2017-02-25T14:09:34Z</time>
      </trkpt>
      <trkpt lat="45.25649" lon="5.02885">
        <ele>253.27</ele>
        <time>2017-02-25T14:09:35Z</time>
      </trkpt>
      <trkpt lat="45.25649" lon="5.02885">
        <ele>253.27</ele>
        <time>2017-02-25T14:09:36Z</time>
      </trkpt>
      <trkpt lat="45.25649" lon="5.02885">
        <ele>253.27</ele>
        <time>2017-02-25T14:09:37Z</time>
      </trkpt>
      <trkpt lat="45.25649" lon="5.02885">
        <ele>253.27</ele>
        <time>2017-02-25T14:09:38Z</time>
      </trkpt>
      <trkpt lat="45.25649" lon="5.02885">
        <ele>253.27</ele>
        <time>2017-02-25T14:09:39Z</time>
      </trkpt>
      <trkpt lat="45.25649" lon="5.02885">
        <ele>253.27</ele>
        <time>2017-02-25T14:09:40Z</time>
      </trkpt>
      <trkpt lat="45.25649" lon="5.02885">
        <ele>253.27</ele>
        <time>2017-02-25T14:09:41Z</time>
      </trkpt>
      <trkpt lat="45.25649" lon="5.02885">
        <ele>253.27</ele>
        <time>2017-02-25T14:09:42Z</time>
      </trkpt>
      <trkpt lat="45.25649" lon="5.02885">
        <ele>253.27</ele>
        <time>2017-02-25T14:09:43Z</time>
      </trkpt>
      <trkpt lat="45.25649" lon="5.02885">
        <ele>253.27</ele>
        <time>2017-02-25T14:09:44Z</time>
      </trkpt>
      <trkpt lat="45.25649" lon="5.02885">
        <ele>253.27</ele>
        <time>2017-02-25T14:09:45Z</time>
      </trkpt>
      <trkpt lat="45.25649" lon="5.02885">
        <ele>253.27</ele>
        <time>2017-02-25T14:09:46Z</time>
      </trkpt>
      <trkpt lat="45.25649" lon="5.02885">
        <ele>253.27</ele>
        <time>2017-02-25T14:09:47Z</time>
      </trkpt>
      <trkpt lat="45.25649" lon="5.02885">
        <ele>253.27</ele>
        <time>2017-02-25T14:09:48Z</time>
      </trkpt>
      <trkpt lat="45.25649" lon="5.02885">
        <ele>253.27</ele>
        <time>2017-02-25T14:09:49Z</time>
      </trkpt>
      <trkpt lat="45.25653" lon="5.02897">
        <ele>252.71</ele>
        <time>2017-02-25T14:09:50Z</time>
      </trkpt>
      <trkpt lat="45.25653" lon="5.02897">
        <ele>252.6</ele>
        <time>2017-02-25T14:09:51Z</time>
      </trkpt>
      <trkpt lat="45.25654" lon="5.02898">
        <ele>252.49</ele>
        <time>2017-02-25T14:09:52Z</time>
      </trkpt>
      <trkpt lat="45.25655" lon="5.02898">
        <ele>252.47</ele>
        <time>2017-02-25T14:09:53Z</time>
      </trkpt>
      <trkpt lat="45.25655" lon="5.02898">
        <ele>252.47</ele>
        <time>2017-02-25T14:09:54Z</time>
      </trkpt>
      <trkpt lat="45.25655" lon="5.02898">
        <ele>252.47</ele>
        <time>2017-02-25T14:09:55Z</time>
      </trkpt>
      <trkpt lat="45.25655" lon="5.02898">
        <ele>252.47</ele>
        <time>2017-02-25T14:09:56Z</time>
      </trkpt>
      <trkpt lat="45.25655" lon="5.02898">
        <ele>252.47</ele>
        <time>2017-02-25T14:09:57Z</time>
      </trkpt>
      <trkpt lat="45.25655" lon="5.02898">
        <ele>252.47</ele>
        <time>2017-02-25T14:09:58Z</time>
      </trkpt>
      <trkpt lat="45.25655" lon="5.02898">
        <ele>252.47</ele>
        <time>2017-02-25T14:09:59Z</time>
      </trkpt>
      <trkpt lat="45.25655" lon="5.02898">
        <ele>252.47</ele>
        <time>2017-02-25T14:10:00Z</time>
      </trkpt>
      <trkpt lat="45.25655" lon="5.02898">
        <ele>252.47</ele>
        <time>2017-02-25T14:10:01Z</time>
      </trkpt>
      <trkpt lat="45.25655" lon="5.02898">
        <ele>252.47</ele>
        <time>2017-02-25T14:10:02Z</time>
      </trkpt>
      <trkpt lat="45.25655" lon="5.02898">
        <ele>252.47</ele>
        <time>2017-02-25T14:10:03Z</time>
      </trkpt>
      <trkpt lat="45.25655" lon="5.02898">
        <ele>252.47</ele>
        <time>2017-02-25T14:10:04Z</time>
      </trkpt>
      <trkpt lat="45.25655" lon="5.02898">
        <ele>252.47</ele>
        <time>2017-02-25T14:10:05Z</time>
      </trkpt>
      <trkpt lat="45.25655" lon="5.02898">
        <ele>252.47</ele>
        <time>2017-02-25T14:10:06Z</time>
      </trkpt>
      <trkpt lat="45.25655" lon="5.02898">
        <ele>252.47</ele>
        <time>2017-02-25T14:10:07Z</time>
      </trkpt>
      <trkpt lat="45.25655" lon="5.02898">
        <ele>252.47</ele>
        <time>2017-02-25T14:10:08Z</time>
      </trkpt>
      <trkpt lat="45.25655" lon="5.02898">
        <ele>252.47</ele>
        <time>2017-02-25T14:10:09Z</time>
      </trkpt>
      <trkpt lat="45.25655" lon="5.02898">
        <ele>252.47</ele>
        <time>2017-02-25T14:10:10Z</time>
      </trkpt>
      <trkpt lat="45.25655" lon="5.02898">
        <ele>252.47</ele>
        <time>2017-02-25T14:10:11Z</time>
      </trkpt>
      <trkpt lat="45.25655" lon="5.02898">
        <ele>252.47</ele>
        <time>2017-02-25T14:10:12Z</time>
      </trkpt>
      <trkpt lat="45.25655" lon="5.02898">
        <ele>252.47</ele>
        <time>2017-02-25T14:10:13Z</time>
      </trkpt>
      <trkpt lat="45.25655" lon="5.02898">
        <ele>252.47</ele>
        <time>2017-02-25T14:10:14Z</time>
      </trkpt>
      <trkpt lat="45.25655" lon="5.02898">
        <ele>252.47</ele>
        <time>2017-02-25T14:10:15Z</time>
      </trkpt>
      <trkpt lat="45.25655" lon="5.02898">
        <ele>252.47</ele>
        <time>2017-02-25T14:10:16Z</time>
      </trkpt>
      <trkpt lat="45.25655" lon="5.02898">
        <ele>252.47</ele>
        <time>2017-02-25T14:10:17Z</time>
      </trkpt>
      <trkpt lat="45.25655" lon="5.02898">
        <ele>252.47</ele>
        <time>2017-02-25T14:10:18Z</time>
      </trkpt>
      <trkpt lat="45.25655" lon="5.02898">
        <ele>252.47</ele>
        <time>2017-02-25T14:10:19Z</time>
      </trkpt>
      <trkpt lat="45.25655" lon="5.02898">
        <ele>252.47</ele>
        <time>2017-02-25T14:10:20Z</time>
      </trkpt>
      <trkpt lat="45.25655" lon="5.02898">
        <ele>252.47</ele>
        <time>2017-02-25T14:10:21Z</time>
      </trkpt>
      <trkpt lat="45.25655" lon="5.02898">
        <ele>252.47</ele>
        <time>2017-02-25T14:10:22Z</time>
      </trkpt>
      <trkpt lat="45.25655" lon="5.02898">
        <ele>252.47</ele>
        <time>2017-02-25T14:10:23Z</time>
      </trkpt>
      <trkpt lat="45.25655" lon="5.02898">
        <ele>252.47</ele>
        <time>2017-02-25T14:10:24Z</time>
      </trkpt>
      <trkpt lat="45.25655" lon="5.02898">
        <ele>252.47</ele>
        <time>2017-02-25T14:10:25Z</time>
      </trkpt>
      <trkpt lat="45.25655" lon="5.02898">
        <ele>252.47</ele>
        <time>2017-02-25T14:10:26Z</time>
      </trkpt>
      <trkpt lat="45.25655" lon="5.02898">
        <ele>252.47</ele>
        <time>2017-02-25T14:10:27Z</time>
      </trkpt>
      <trkpt lat="45.25655" lon="5.02898">
        <ele>252.47</ele>
        <time>2017-02-25T14:10:28Z</time>
      </trkpt>
      <trkpt lat="45.25655" lon="5.02898">
        <ele>252.47</ele>
        <time>2017-02-25T14:10:29Z</time>
      </trkpt>
      <trkpt lat="45.25655" lon="5.02898">
        <ele>252.47</ele>
        <time>2017-02-25T14:10:30Z</time>
      </trkpt>
      <trkpt lat="45.25655" lon="5.02898">
        <ele>252.47</ele>
        <time>2017-02-25T14:10:31Z</time>
      </trkpt>
      <trkpt lat="45.25655" lon="5.02898">
        <ele>252.47</ele>
        <time>2017-02-25T14:10:32Z</time>
      </trkpt>
      <trkpt lat="45.25655" lon="5.02898">
        <ele>252.47</ele>
        <time>2017-02-25T14:10:33Z</time>
      </trkpt>
      <trkpt lat="45.25655" lon="5.02898">
        <ele>252.47</ele>
        <time>2017-02-25T14:10:34Z</time>
      </trkpt>
      <trkpt lat="45.25655" lon="5.02898">
        <ele>252.47</ele>
        <time>2017-02-25T14:10:35Z</time>
      </trkpt>
      <trkpt lat="45.25655" lon="5.02898">
        <ele>252.47</ele>
        <time>2017-02-25T14:10:36Z</time>
      </trkpt>
      <trkpt lat="45.25655" lon="5.02898">
        <ele>252.47</ele>
        <time>2017-02-25T14:10:37Z</time>
      </trkpt>
      <trkpt lat="45.25655" lon="5.02898">
        <ele>252.47</ele>
        <time>2017-02-25T14:10:38Z</time>
      </trkpt>
      <trkpt lat="45.25655" lon="5.02898">
        <ele>252.47</ele>
        <time>2017-02-25T14:10:39Z</time>
      </trkpt>
      <trkpt lat="45.25655" lon="5.02898">
        <ele>252.47</ele>
        <time>2017-02-25T14:10:40Z</time>
      </trkpt>
      <trkpt lat="45.25655" lon="5.02898">
        <ele>252.47</ele>
        <time>2017-02-25T14:10:41Z</time>
      </trkpt>
      <trkpt lat="45.25655" lon="5.02898">
        <ele>252.47</ele>
        <time>2017-02-25T14:10:42Z</time>
      </trkpt>
      <trkpt lat="45.25655" lon="5.02898">
        <ele>252.47</ele>
        <time>2017-02-25T14:10:43Z</time>
      </trkpt>
      <trkpt lat="45.25655" lon="5.02898">
        <ele>252.47</ele>
        <time>2017-02-25T14:10:44Z</time>
      </trkpt>
      <trkpt lat="45.25655" lon="5.02898">
        <ele>252.47</ele>
        <time>2017-02-25T14:10:45Z</time>
      </trkpt>
      <trkpt lat="45.25655" lon="5.02898">
        <ele>252.47</ele>
        <time>2017-02-25T14:10:46Z</time>
      </trkpt>
      <trkpt lat="45.25655" lon="5.02898">
        <ele>252.47</ele>
        <time>2017-02-25T14:10:47Z</time>
      </trkpt>
      <trkpt lat="45.25655" lon="5.02898">
        <ele>252.47</ele>
        <time>2017-02-25T14:10:48Z</time>
      </trkpt>
      <trkpt lat="45.25655" lon="5.02898">
        <ele>252.47</ele>
        <time>2017-02-25T14:10:49Z</time>
      </trkpt>
      <trkpt lat="45.25655" lon="5.02898">
        <ele>252.47</ele>
        <time>2017-02-25T14:10:50Z</time>
      </trkpt>
      <trkpt lat="45.25655" lon="5.02898">
        <ele>252.47</ele>
        <time>2017-02-25T14:10:51Z</time>
      </trkpt>
      <trkpt lat="45.25655" lon="5.02898">
        <ele>252.47</ele>
        <time>2017-02-25T14:10:52Z</time>
      </trkpt>
      <trkpt lat="45.25655" lon="5.02898">
        <ele>252.47</ele>
        <time>2017-02-25T14:10:53Z</time>
      </trkpt>
      <trkpt lat="45.25655" lon="5.02898">
        <ele>252.47</ele>
        <time>2017-02-25T14:10:54Z</time>
      </trkpt>
      <trkpt lat="45.25655" lon="5.02898">
        <ele>252.47</ele>
        <time>2017-02-25T14:10:55Z</time>
      </trkpt>
      <trkpt lat="45.25655" lon="5.02898">
        <ele>252.47</ele>
        <time>2017-02-25T14:10:56Z</time>
      </trkpt>
      <trkpt lat="45.25655" lon="5.02898">
        <ele>252.47</ele>
        <time>2017-02-25T14:10:57Z</time>
      </trkpt>
      <trkpt lat="45.25655" lon="5.02898">
        <ele>252.47</ele>
        <time>2017-02-25T14:10:58Z</time>
      </trkpt>
      <trkpt lat="45.25655" lon="5.02898">
        <ele>252.47</ele>
        <time>2017-02-25T14:10:59Z</time>
      </trkpt>
      <trkpt lat="45.25655" lon="5.02898">
        <ele>252.47</ele>
        <time>2017-02-25T14:11:00Z</time>
      </trkpt>
      <trkpt lat="45.25655" lon="5.02898">
        <ele>252.47</ele>
        <time>2017-02-25T14:11:01Z</time>
      </trkpt>
      <trkpt lat="45.25655" lon="5.02898">
        <ele>252.47</ele>
        <time>2017-02-25T14:11:02Z</time>
      </trkpt>
      <trkpt lat="45.25655" lon="5.02898">
        <ele>252.47</ele>
        <time>2017-02-25T14:11:03Z</time>
      </trkpt>
      <trkpt lat="45.25655" lon="5.02898">
        <ele>252.47</ele>
        <time>2017-02-25T14:11:04Z</time>
      </trkpt>
      <trkpt lat="45.25655" lon="5.02898">
        <ele>252.47</ele>
        <time>2017-02-25T14:11:05Z</time>
      </trkpt>
      <trkpt lat="45.25655" lon="5.02898">
        <ele>252.47</ele>
        <time>2017-02-25T14:11:06Z</time>
      </trkpt>
      <trkpt lat="45.25655" lon="5.02898">
        <ele>252.47</ele>
        <time>2017-02-25T14:11:07Z</time>
      </trkpt>
      <trkpt lat="45.25655" lon="5.02898">
        <ele>252.47</ele>
        <time>2017-02-25T14:11:08Z</time>
      </trkpt>
      <trkpt lat="45.25655" lon="5.02898">
        <ele>252.47</ele>
        <time>2017-02-25T14:11:09Z</time>
      </trkpt>
      <trkpt lat="45.25655" lon="5.02898">
        <ele>252.47</ele>
        <time>2017-02-25T14:11:10Z</time>
      </trkpt>
      <trkpt lat="45.25655" lon="5.02898">
        <ele>252.47</ele>
        <time>2017-02-25T14:11:11Z</time>
      </trkpt>
      <trkpt lat="45.25652" lon="5.02898">
        <ele>253.19</ele>
        <time>2017-02-25T14:11:12Z</time>
      </trkpt>
      <trkpt lat="45.25651" lon="5.02898">
        <ele>253.33</ele>
        <time>2017-02-25T14:11:13Z</time>
      </trkpt>
      <trkpt lat="45.2565" lon="5.02898">
        <ele>253.36</ele>
        <time>2017-02-25T14:11:14Z</time>
      </trkpt>
      <trkpt lat="45.25649" lon="5.02898">
        <ele>253.29</ele>
        <time>2017-02-25T14:11:15Z</time>
      </trkpt>
      <trkpt lat="45.25648" lon="5.02898">
        <ele>253.19</ele>
        <time>2017-02-25T14:11:16Z</time>
      </trkpt>
      <trkpt lat="45.25648" lon="5.02899">
        <ele>253.17</ele>
        <time>2017-02-25T14:11:17Z</time>
      </trkpt>
      <trkpt lat="45.25648" lon="5.02899">
        <ele>253.17</ele>
        <time>2017-02-25T14:11:18Z</time>
      </trkpt>
      <trkpt lat="45.25648" lon="5.02899">
        <ele>253.17</ele>
        <time>2017-02-25T14:11:19Z</time>
      </trkpt>
      <trkpt lat="45.25648" lon="5.02899">
        <ele>253.17</ele>
        <time>2017-02-25T14:11:20Z</time>
      </trkpt>
      <trkpt lat="45.25648" lon="5.02899">
        <ele>253.17</ele>
        <time>2017-02-25T14:11:21Z</time>
      </trkpt>
      <trkpt lat="45.25648" lon="5.02899">
        <ele>253.17</ele>
        <time>2017-02-25T14:11:22Z</time>
      </trkpt>
      <trkpt lat="45.25648" lon="5.02899">
        <ele>253.17</ele>
        <time>2017-02-25T14:11:23Z</time>
      </trkpt>
      <trkpt lat="45.25648" lon="5.02899">
        <ele>253.17</ele>
        <time>2017-02-25T14:11:24Z</time>
      </trkpt>
      <trkpt lat="45.25648" lon="5.02899">
        <ele>253.17</ele>
        <time>2017-02-25T14:11:25Z</time>
      </trkpt>
      <trkpt lat="45.25648" lon="5.02899">
        <ele>253.17</ele>
        <time>2017-02-25T14:11:26Z</time>
      </trkpt>
      <trkpt lat="45.25648" lon="5.02899">
        <ele>253.17</ele>
        <time>2017-02-25T14:11:27Z</time>
      </trkpt>
      <trkpt lat="45.25648" lon="5.02899">
        <ele>253.17</ele>
        <time>2017-02-25T14:11:28Z</time>
      </trkpt>
      <trkpt lat="45.25648" lon="5.02899">
        <ele>253.17</ele>
        <time>2017-02-25T14:11:29Z</time>
      </trkpt>
      <trkpt lat="45.25648" lon="5.02899">
        <ele>253.17</ele>
        <time>2017-02-25T14:11:30Z</time>
      </trkpt>
      <trkpt lat="45.25648" lon="5.02899">
        <ele>253.17</ele>
        <time>2017-02-25T14:11:31Z</time>
      </trkpt>
      <trkpt lat="45.25648" lon="5.02899">
        <ele>253.17</ele>
        <time>2017-02-25T14:11:32Z</time>
      </trkpt>
      <trkpt lat="45.25648" lon="5.02899">
        <ele>253.17</ele>
        <time>2017-02-25T14:11:33Z</time>
      </trkpt>
      <trkpt lat="45.25648" lon="5.02899">
        <ele>253.17</ele>
        <time>2017-02-25T14:11:34Z</time>
      </trkpt>
      <trkpt lat="45.25648" lon="5.02899">
        <ele>253.17</ele>
        <time>2017-02-25T14:11:35Z</time>
      </trkpt>
      <trkpt lat="45.25648" lon="5.02899">
        <ele>253.17</ele>
        <time>2017-02-25T14:11:36Z</time>
      </trkpt>
      <trkpt lat="45.25648" lon="5.02899">
        <ele>253.17</ele>
        <time>2017-02-25T14:11:37Z</time>
      </trkpt>
      <trkpt lat="45.25648" lon="5.02899">
        <ele>253.17</ele>
        <time>2017-02-25T14:11:38Z</time>
      </trkpt>
      <trkpt lat="45.25648" lon="5.02899">
        <ele>253.17</ele>
        <time>2017-02-25T14:11:39Z</time>
      </trkpt>
      <trkpt lat="45.25648" lon="5.02899">
        <ele>253.17</ele>
        <time>2017-02-25T14:11:40Z</time>
      </trkpt>
      <trkpt lat="45.25648" lon="5.02899">
        <ele>253.17</ele>
        <time>2017-02-25T14:11:41Z</time>
      </trkpt>
      <trkpt lat="45.25648" lon="5.02899">
        <ele>253.17</ele>
        <time>2017-02-25T14:11:42Z</time>
      </trkpt>
      <trkpt lat="45.25648" lon="5.02899">
        <ele>253.17</ele>
        <time>2017-02-25T14:11:43Z</time>
      </trkpt>
      <trkpt lat="45.25648" lon="5.02899">
        <ele>253.17</ele>
        <time>2017-02-25T14:11:44Z</time>
      </trkpt>
      <trkpt lat="45.25648" lon="5.02899">
        <ele>253.17</ele>
        <time>2017-02-25T14:11:45Z</time>
      </trkpt>
      <trkpt lat="45.25648" lon="5.02899">
        <ele>253.17</ele>
        <time>2017-02-25T14:11:46Z</time>
      </trkpt>
      <trkpt lat="45.25648" lon="5.02899">
        <ele>253.17</ele>
        <time>2017-02-25T14:11:47Z</time>
      </trkpt>
      <trkpt lat="45.25648" lon="5.02899">
        <ele>253.17</ele>
        <time>2017-02-25T14:11:48Z</time>
      </trkpt>
      <trkpt lat="45.25648" lon="5.02899">
        <ele>253.17</ele>
        <time>2017-02-25T14:11:49Z</time>
      </trkpt>
      <trkpt lat="45.25648" lon="5.02899">
        <ele>253.17</ele>
        <time>2017-02-25T14:11:50Z</time>
      </trkpt>
      <trkpt lat="45.25648" lon="5.02899">
        <ele>253.17</ele>
        <time>2017-02-25T14:11:51Z</time>
      </trkpt>
      <trkpt lat="45.25648" lon="5.02899">
        <ele>253.17</ele>
        <time>2017-02-25T14:11:52Z</time>
      </trkpt>
      <trkpt lat="45.25648" lon="5.02899">
        <ele>253.17</ele>
        <time>2017-02-25T14:11:53Z</time>
      </trkpt>
      <trkpt lat="45.25648" lon="5.02899">
        <ele>253.17</ele>
        <time>2017-02-25T14:11:54Z</time>
      </trkpt>
      <trkpt lat="45.25648" lon="5.02899">
        <ele>253.17</ele>
        <time>2017-02-25T14:11:55Z</time>
      </trkpt>
      <trkpt lat="45.25648" lon="5.02899">
        <ele>253.17</ele>
        <time>2017-02-25T14:11:56Z</time>
      </trkpt>
      <trkpt lat="45.25648" lon="5.02899">
        <ele>253.17</ele>
        <time>2017-02-25T14:11:57Z</time>
      </trkpt>
      <trkpt lat="45.25648" lon="5.02899">
        <ele>253.17</ele>
        <time>2017-02-25T14:11:58Z</time>
      </trkpt>
      <trkpt lat="45.25648" lon="5.02899">
        <ele>253.17</ele>
        <time>2017-02-25T14:11:59Z</time>
      </trkpt>
      <trkpt lat="45.25648" lon="5.02899">
        <ele>253.17</ele>
        <time>2017-02-25T14:12:00Z</time>
      </trkpt>
      <trkpt lat="45.25646" lon="5.02886">
        <ele>253.25</ele>
        <time>2017-02-25T14:12:01Z</time>
      </trkpt>
      <trkpt lat="45.25647" lon="5.02885">
        <ele>253.26</ele>
        <time>2017-02-25T14:12:02Z</time>
      </trkpt>
      <trkpt lat="45.25647" lon="5.02885">
        <ele>253.27</ele>
        <time>2017-02-25T14:12:03Z</time>
      </trkpt>
      <trkpt lat="45.25648" lon="5.02884">
        <ele>253.27</ele>
        <time>2017-02-25T14:12:04Z</time>
      </trkpt>
      <trkpt lat="45.25648" lon="5.02884">
        <ele>253.27</ele>
        <time>2017-02-25T14:12:05Z</time>
      </trkpt>
      <trkpt lat="45.25648" lon="5.02884">
        <ele>253.27</ele>
        <time>2017-02-25T14:12:06Z</time>
      </trkpt>
      <trkpt lat="45.25648" lon="5.02884">
        <ele>253.27</ele>
        <time>2017-02-25T14:12:07Z</time>
      </trkpt>
      <trkpt lat="45.25648" lon="5.02884">
        <ele>253.27</ele>
        <time>2017-02-25T14:12:08Z</time>
      </trkpt>
      <trkpt lat="45.25648" lon="5.02884">
        <ele>253.27</ele>
        <time>2017-02-25T14:12:09Z</time>
      </trkpt>
      <trkpt lat="45.25648" lon="5.02884">
        <ele>253.27</ele>
        <time>2017-02-25T14:12:10Z</time>
      </trkpt>
      <trkpt lat="45.25648" lon="5.02884">
        <ele>253.27</ele>
        <time>2017-02-25T14:12:11Z</time>
      </trkpt>
      <trkpt lat="45.25648" lon="5.02884">
        <ele>253.27</ele>
        <time>2017-02-25T14:12:12Z</time>
      </trkpt>
      <trkpt lat="45.25648" lon="5.02884">
        <ele>253.27</ele>
        <time>2017-02-25T14:12:13Z</time>
      </trkpt>
      <trkpt lat="45.25648" lon="5.02884">
        <ele>253.27</ele>
        <time>2017-02-25T14:12:14Z</time>
      </trkpt>
      <trkpt lat="45.25648" lon="5.02884">
        <ele>253.27</ele>
        <time>2017-02-25T14:12:15Z</time>
      </trkpt>
      <trkpt lat="45.25648" lon="5.02884">
        <ele>253.27</ele>
        <time>2017-02-25T14:12:16Z</time>
      </trkpt>
      <trkpt lat="45.25648" lon="5.02884">
        <ele>253.27</ele>
        <time>2017-02-25T14:12:17Z</time>
      </trkpt>
      <trkpt lat="45.25648" lon="5.02884">
        <ele>253.27</ele>
        <time>2017-02-25T14:12:18Z</time>
      </trkpt>
      <trkpt lat="45.25648" lon="5.02884">
        <ele>253.27</ele>
        <time>2017-02-25T14:12:19Z</time>
      </trkpt>
      <trkpt lat="45.25648" lon="5.02884">
        <ele>253.27</ele>
        <time>2017-02-25T14:12:20Z</time>
      </trkpt>
      <trkpt lat="45.25648" lon="5.02884">
        <ele>253.27</ele>
        <time>2017-02-25T14:12:21Z</time>
      </trkpt>
      <trkpt lat="45.25648" lon="5.02884">
        <ele>253.27</ele>
        <time>2017-02-25T14:12:22Z</time>
      </trkpt>
      <trkpt lat="45.25648" lon="5.02884">
        <ele>253.27</ele>
        <time>2017-02-25T14:12:23Z</time>
      </trkpt>
      <trkpt lat="45.25648" lon="5.02884">
        <ele>253.27</ele>
        <time>2017-02-25T14:12:24Z</time>
      </trkpt>
      <trkpt lat="45.25655" lon="5.02876">
        <ele>253.59</ele>
        <time>2017-02-25T14:12:25Z</time>
      </trkpt>
      <trkpt lat="45.25655" lon="5.02876">
        <ele>253.73</ele>
        <time>2017-02-25T14:12:26Z</time>
      </trkpt>
      <trkpt lat="45.25656" lon="5.02876">
        <ele>253.76</ele>
        <time>2017-02-25T14:12:27Z</time>
      </trkpt>
      <trkpt lat="45.25656" lon="5.02875">
        <ele>253.93</ele>
        <time>2017-02-25T14:12:28Z</time>
      </trkpt>
      <trkpt lat="45.25656" lon="5.02875">
        <ele>253.96</ele>
        <time>2017-02-25T14:12:29Z</time>
      </trkpt>
      <trkpt lat="45.25656" lon="5.02875">
        <ele>253.97</ele>
        <time>2017-02-25T14:12:30Z</time>
      </trkpt>
      <trkpt lat="45.25656" lon="5.02875">
        <ele>253.97</ele>
        <time>2017-02-25T14:12:31Z</time>
      </trkpt>
      <trkpt lat="45.25656" lon="5.02875">
        <ele>253.97</ele>
        <time>2017-02-25T14:12:32Z</time>
      </trkpt>
      <trkpt lat="45.25656" lon="5.02875">
        <ele>253.97</ele>
        <time>2017-02-25T14:12:33Z</time>
      </trkpt>
      <trkpt lat="45.25656" lon="5.02875">
        <ele>253.97</ele>
        <time>2017-02-25T14:12:34Z</time>
      </trkpt>
      <trkpt lat="45.25656" lon="5.02875">
        <ele>253.97</ele>
        <time>2017-02-25T14:12:35Z</time>
      </trkpt>
      <trkpt lat="45.25656" lon="5.02875">
        <ele>253.97</ele>
        <time>2017-02-25T14:12:36Z</time>
      </trkpt>
      <trkpt lat="45.25656" lon="5.02875">
        <ele>253.97</ele>
        <time>2017-02-25T14:12:37Z</time>
      </trkpt>
      <trkpt lat="45.25656" lon="5.02875">
        <ele>253.97</ele>
        <time>2017-02-25T14:12:38Z</time>
      </trkpt>
      <trkpt lat="45.25656" lon="5.02875">
        <ele>253.97</ele>
        <time>2017-02-25T14:12:39Z</time>
      </trkpt>
      <trkpt lat="45.25656" lon="5.02875">
        <ele>253.97</ele>
        <time>2017-02-25T14:12:40Z</time>
      </trkpt>
      <trkpt lat="45.25656" lon="5.02875">
        <ele>253.97</ele>
        <time>2017-02-25T14:12:41Z</time>
      </trkpt>
      <trkpt lat="45.25656" lon="5.02875">
        <ele>253.97</ele>
        <time>2017-02-25T14:12:42Z</time>
      </trkpt>
      <trkpt lat="45.25656" lon="5.02875">
        <ele>253.97</ele>
        <time>2017-02-25T14:12:43Z</time>
      </trkpt>
      <trkpt lat="45.25656" lon="5.02875">
        <ele>253.97</ele>
        <time>2017-02-25T14:12:44Z</time>
      </trkpt>
      <trkpt lat="45.25656" lon="5.02875">
        <ele>253.97</ele>
        <time>2017-02-25T14:12:45Z</time>
      </trkpt>
      <trkpt lat="45.25656" lon="5.02875">
        <ele>253.97</ele>
        <time>2017-02-25T14:12:46Z</time>
      </trkpt>
      <trkpt lat="45.25656" lon="5.02875">
        <ele>253.97</ele>
        <time>2017-02-25T14:12:47Z</time>
      </trkpt>
      <trkpt lat="45.25656" lon="5.02875">
        <ele>253.97</ele>
        <time>2017-02-25T14:12:48Z</time>
      </trkpt>
      <trkpt lat="45.25656" lon="5.02875">
        <ele>253.97</ele>
        <time>2017-02-25T14:12:49Z</time>
      </trkpt>
      <trkpt lat="45.25656" lon="5.02875">
        <ele>253.97</ele>
        <time>2017-02-25T14:12:50Z</time>
      </trkpt>
      <trkpt lat="45.25656" lon="5.02875">
        <ele>253.97</ele>
        <time>2017-02-25T14:12:51Z</time>
      </trkpt>
      <trkpt lat="45.25656" lon="5.02875">
        <ele>253.97</ele>
        <time>2017-02-25T14:12:52Z</time>
      </trkpt>
      <trkpt lat="45.25656" lon="5.02875">
        <ele>253.97</ele>
        <time>2017-02-25T14:12:53Z</time>
      </trkpt>
      <trkpt lat="45.25656" lon="5.02875">
        <ele>253.97</ele>
        <time>2017-02-25T14:12:54Z</time>
      </trkpt>
      <trkpt lat="45.25656" lon="5.02875">
        <ele>253.97</ele>
        <time>2017-02-25T14:12:55Z</time>
      </trkpt>
      <trkpt lat="45.25656" lon="5.02875">
        <ele>253.97</ele>
        <time>2017-02-25T14:12:56Z</time>
      </trkpt>
      <trkpt lat="45.25656" lon="5.02875">
        <ele>253.97</ele>
        <time>2017-02-25T14:12:57Z</time>
      </trkpt>
      <trkpt lat="45.25656" lon="5.02875">
        <ele>253.97</ele>
        <time>2017-02-25T14:12:58Z</time>
      </trkpt>
      <trkpt lat="45.25656" lon="5.02875">
        <ele>253.97</ele>
        <time>2017-02-25T14:12:59Z</time>
      </trkpt>
      <trkpt lat="45.25656" lon="5.02875">
        <ele>253.97</ele>
        <time>2017-02-25T14:13:00Z</time>
      </trkpt>
      <trkpt lat="45.25656" lon="5.02875">
        <ele>253.97</ele>
        <time>2017-02-25T14:13:01Z</time>
      </trkpt>
      <trkpt lat="45.25656" lon="5.02875">
        <ele>253.97</ele>
        <time>2017-02-25T14:13:02Z</time>
      </trkpt>
      <trkpt lat="45.25656" lon="5.02875">
        <ele>253.97</ele>
        <time>2017-02-25T14:13:03Z</time>
      </trkpt>
      <trkpt lat="45.25656" lon="5.02875">
        <ele>253.97</ele>
        <time>2017-02-25T14:13:04Z</time>
      </trkpt>
      <trkpt lat="45.25656" lon="5.02875">
        <ele>253.97</ele>
        <time>2017-02-25T14:13:05Z</time>
      </trkpt>
      <trkpt lat="45.25656" lon="5.02875">
        <ele>253.97</ele>
        <time>2017-02-25T14:13:06Z</time>
      </trkpt>
      <trkpt lat="45.25656" lon="5.02875">
        <ele>253.97</ele>
        <time>2017-02-25T14:13:07Z</time>
      </trkpt>
      <trkpt lat="45.25656" lon="5.02875">
        <ele>253.97</ele>
        <time>2017-02-25T14:13:08Z</time>
      </trkpt>
      <trkpt lat="45.25656" lon="5.02875">
        <ele>253.97</ele>
        <time>2017-02-25T14:13:09Z</time>
      </trkpt>
      <trkpt lat="45.25656" lon="5.02875">
        <ele>253.97</ele>
        <time>2017-02-25T14:13:10Z</time>
      </trkpt>
      <trkpt lat="45.25656" lon="5.02875">
        <ele>253.97</ele>
        <time>2017-02-25T14:13:11Z</time>
      </trkpt>
      <trkpt lat="45.25656" lon="5.02875">
        <ele>253.97</ele>
        <time>2017-02-25T14:13:12Z</time>
      </trkpt>
      <trkpt lat="45.25656" lon="5.02875">
        <ele>253.97</ele>
        <time>2017-02-25T14:13:13Z</time>
      </trkpt>
      <trkpt lat="45.25656" lon="5.02875">
        <ele>253.97</ele>
        <time>2017-02-25T14:13:14Z</time>
      </trkpt>
      <trkpt lat="45.25656" lon="5.02875">
        <ele>253.97</ele>
        <time>2017-02-25T14:13:15Z</time>
      </trkpt>
      <trkpt lat="45.25656" lon="5.02875">
        <ele>253.97</ele>
        <time>2017-02-25T14:13:16Z</time>
      </trkpt>
      <trkpt lat="45.25656" lon="5.02875">
        <ele>253.97</ele>
        <time>2017-02-25T14:13:17Z</time>
      </trkpt>
      <trkpt lat="45.25656" lon="5.02875">
        <ele>253.97</ele>
        <time>2017-02-25T14:13:18Z</time>
      </trkpt>
      <trkpt lat="45.25656" lon="5.02875">
        <ele>253.97</ele>
        <time>2017-02-25T14:13:19Z</time>
      </trkpt>
      <trkpt lat="45.25656" lon="5.02875">
        <ele>253.97</ele>
        <time>2017-02-25T14:13:20Z</time>
      </trkpt>
      <trkpt lat="45.25656" lon="5.02875">
        <ele>253.97</ele>
        <time>2017-02-25T14:13:21Z</time>
      </trkpt>
      <trkpt lat="45.25656" lon="5.02875">
        <ele>253.97</ele>
        <time>2017-02-25T14:13:22Z</time>
      </trkpt>
      <trkpt lat="45.25656" lon="5.02875">
        <ele>253.97</ele>
        <time>2017-02-25T14:13:23Z</time>
      </trkpt>
      <trkpt lat="45.25656" lon="5.02875">
        <ele>253.97</ele>
        <time>2017-02-25T14:13:24Z</time>
      </trkpt>
      <trkpt lat="45.25656" lon="5.02875">
        <ele>253.97</ele>
        <time>2017-02-25T14:13:25Z</time>
      </trkpt>
      <trkpt lat="45.25656" lon="5.02875">
        <ele>253.97</ele>
        <time>2017-02-25T14:13:26Z</time>
      </trkpt>
      <trkpt lat="45.25656" lon="5.02875">
        <ele>253.97</ele>
        <time>2017-02-25T14:13:27Z</time>
      </trkpt>
      <trkpt lat="45.25656" lon="5.02875">
        <ele>253.97</ele>
        <time>2017-02-25T14:13:28Z</time>
      </trkpt>
      <trkpt lat="45.25656" lon="5.02875">
        <ele>253.97</ele>
        <time>2017-02-25T14:13:29Z</time>
      </trkpt>
      <trkpt lat="45.25656" lon="5.02875">
        <ele>253.97</ele>
        <time>2017-02-25T14:13:30Z</time>
      </trkpt>
      <trkpt lat="45.25656" lon="5.02875">
        <ele>253.97</ele>
        <time>2017-02-25T14:13:31Z</time>
      </trkpt>
      <trkpt lat="45.25656" lon="5.02875">
        <ele>253.97</ele>
        <time>2017-02-25T14:13:32Z</time>
      </trkpt>
      <trkpt lat="45.25656" lon="5.02875">
        <ele>253.97</ele>
        <time>2017-02-25T14:13:33Z</time>
      </trkpt>
      <trkpt lat="45.25656" lon="5.02875">
        <ele>253.97</ele>
        <time>2017-02-25T14:13:34Z</time>
      </trkpt>
      <trkpt lat="45.25656" lon="5.02875">
        <ele>253.97</ele>
        <time>2017-02-25T14:13:35Z</time>
      </trkpt>
      <trkpt lat="45.25656" lon="5.02875">
        <ele>253.97</ele>
        <time>2017-02-25T14:13:36Z</time>
      </trkpt>
      <trkpt lat="45.25656" lon="5.02875">
        <ele>253.97</ele>
        <time>2017-02-25T14:13:37Z</time>
      </trkpt>
      <trkpt lat="45.25656" lon="5.02875">
        <ele>253.97</ele>
        <time>2017-02-25T14:13:38Z</time>
      </trkpt>
      <trkpt lat="45.25656" lon="5.02875">
        <ele>253.97</ele>
        <time>2017-02-25T14:13:39Z</time>
      </trkpt>
      <trkpt lat="45.25656" lon="5.02875">
        <ele>253.97</ele>
        <time>2017-02-25T14:13:40Z</time>
      </trkpt>
      <trkpt lat="45.25656" lon="5.02875">
        <ele>253.97</ele>
        <time>2017-02-25T14:13:41Z</time>
      </trkpt>
      <trkpt lat="45.25656" lon="5.02875">
        <ele>253.97</ele>
        <time>2017-02-25T14:13:42Z</time>
      </trkpt>
      <trkpt lat="45.25656" lon="5.02875">
        <ele>253.97</ele>
        <time>2017-02-25T14:13:43Z</time>
      </trkpt>
      <trkpt lat="45.25656" lon="5.02875">
        <ele>253.97</ele>
        <time>2017-02-25T14:13:44Z</time>
      </trkpt>
      <trkpt lat="45.25656" lon="5.02875">
        <ele>253.97</ele>
        <time>2017-02-25T14:13:45Z</time>
      </trkpt>
      <trkpt lat="45.25656" lon="5.02875">
        <ele>253.97</ele>
        <time>2017-02-25T14:13:46Z</time>
      </trkpt>
      <trkpt lat="45.25656" lon="5.02875">
        <ele>253.97</ele>
        <time>2017-02-25T14:13:47Z</time>
      </trkpt>
      <trkpt lat="45.25656" lon="5.02875">
        <ele>253.97</ele>
        <time>2017-02-25T14:13:48Z</time>
      </trkpt>
      <trkpt lat="45.25656" lon="5.02875">
        <ele>253.97</ele>
        <time>2017-02-25T14:13:49Z</time>
      </trkpt>
      <trkpt lat="45.25656" lon="5.02875">
        <ele>253.97</ele>
        <time>2017-02-25T14:13:50Z</time>
      </trkpt>
      <trkpt lat="45.25656" lon="5.02875">
        <ele>253.97</ele>
        <time>2017-02-25T14:13:51Z</time>
      </trkpt>
      <trkpt lat="45.25656" lon="5.02875">
        <ele>253.97</ele>
        <time>2017-02-25T14:13:52Z</time>
      </trkpt>
      <trkpt lat="45.25656" lon="5.02875">
        <ele>253.97</ele>
        <time>2017-02-25T14:13:53Z</time>
      </trkpt>
      <trkpt lat="45.25656" lon="5.02875">
        <ele>253.97</ele>
        <time>2017-02-25T14:13:54Z</time>
      </trkpt>
      <trkpt lat="45.25656" lon="5.02875">
        <ele>253.97</ele>
        <time>2017-02-25T14:13:55Z</time>
      </trkpt>
      <trkpt lat="45.25656" lon="5.02875">
        <ele>253.97</ele>
        <time>2017-02-25T14:13:56Z</time>
      </trkpt>
      <trkpt lat="45.25656" lon="5.02875">
        <ele>253.97</ele>
        <time>2017-02-25T14:13:57Z</time>
      </trkpt>
      <trkpt lat="45.25656" lon="5.02875">
        <ele>253.97</ele>
        <time>2017-02-25T14:13:58Z</time>
      </trkpt>
      <trkpt lat="45.25656" lon="5.02875">
        <ele>253.97</ele>
        <time>2017-02-25T14:13:59Z</time>
      </trkpt>
      <trkpt lat="45.25656" lon="5.02875">
        <ele>253.97</ele>
        <time>2017-02-25T14:14:00Z</time>
      </trkpt>
      <trkpt lat="45.25656" lon="5.02875">
        <ele>253.97</ele>
        <time>2017-02-25T14:14:01Z</time>
      </trkpt>
      <trkpt lat="45.25656" lon="5.02875">
        <ele>253.97</ele>
        <time>2017-02-25T14:14:02Z</time>
      </trkpt>
      <trkpt lat="45.25656" lon="5.02875">
        <ele>253.97</ele>
        <time>2017-02-25T14:14:03Z</time>
      </trkpt>
      <trkpt lat="45.25656" lon="5.02875">
        <ele>253.97</ele>
        <time>2017-02-25T14:14:04Z</time>
      </trkpt>
      <trkpt lat="45.25656" lon="5.02875">
        <ele>253.97</ele>
        <time>2017-02-25T14:14:05Z</time>
      </trkpt>
      <trkpt lat="45.25656" lon="5.02875">
        <ele>253.97</ele>
        <time>2017-02-25T14:14:06Z</time>
      </trkpt>
      <trkpt lat="45.25656" lon="5.02875">
        <ele>253.97</ele>
        <time>2017-02-25T14:14:07Z</time>
      </trkpt>
      <trkpt lat="45.25656" lon="5.02875">
        <ele>253.97</ele>
        <time>2017-02-25T14:14:08Z</time>
      </trkpt>
      <trkpt lat="45.25656" lon="5.02875">
        <ele>253.97</ele>
        <time>2017-02-25T14:14:09Z</time>
      </trkpt>
      <trkpt lat="45.25656" lon="5.02875">
        <ele>253.97</ele>
        <time>2017-02-25T14:14:10Z</time>
      </trkpt>
      <trkpt lat="45.25656" lon="5.02875">
        <ele>253.97</ele>
        <time>2017-02-25T14:14:11Z</time>
      </trkpt>
      <trkpt lat="45.25656" lon="5.02875">
        <ele>253.97</ele>
        <time>2017-02-25T14:14:12Z</time>
      </trkpt>
      <trkpt lat="45.25656" lon="5.02875">
        <ele>253.97</ele>
        <time>2017-02-25T14:14:13Z</time>
      </trkpt>
      <trkpt lat="45.25656" lon="5.02875">
        <ele>253.97</ele>
        <time>2017-02-25T14:14:14Z</time>
      </trkpt>
      <trkpt lat="45.25656" lon="5.02875">
        <ele>253.97</ele>
        <time>2017-02-25T14:14:15Z</time>
      </trkpt>
      <trkpt lat="45.25656" lon="5.02875">
        <ele>253.97</ele>
        <time>2017-02-25T14:14:16Z</time>
      </trkpt>
      <trkpt lat="45.25656" lon="5.02875">
        <ele>253.97</ele>
        <time>2017-02-25T14:14:17Z</time>
      </trkpt>
      <trkpt lat="45.25656" lon="5.02875">
        <ele>253.97</ele>
        <time>2017-02-25T14:14:18Z</time>
      </trkpt>
      <trkpt lat="45.25656" lon="5.02875">
        <ele>253.97</ele>
        <time>2017-02-25T14:14:19Z</time>
      </trkpt>
      <trkpt lat="45.25656" lon="5.02875">
        <ele>253.97</ele>
        <time>2017-02-25T14:14:20Z</time>
      </trkpt>
      <trkpt lat="45.25656" lon="5.02875">
        <ele>253.97</ele>
        <time>2017-02-25T14:14:21Z</time>
      </trkpt>
      <trkpt lat="45.25656" lon="5.02875">
        <ele>253.97</ele>
        <time>2017-02-25T14:14:22Z</time>
      </trkpt>
      <trkpt lat="45.25656" lon="5.02875">
        <ele>253.97</ele>
        <time>2017-02-25T14:14:23Z</time>
      </trkpt>
      <trkpt lat="45.25656" lon="5.02875">
        <ele>253.97</ele>
        <time>2017-02-25T14:14:24Z</time>
      </trkpt>
      <trkpt lat="45.25656" lon="5.02875">
        <ele>253.97</ele>
        <time>2017-02-25T14:14:25Z</time>
      </trkpt>
      <trkpt lat="45.25656" lon="5.02875">
        <ele>253.97</ele>
        <time>2017-02-25T14:14:26Z</time>
      </trkpt>
      <trkpt lat="45.25656" lon="5.02875">
        <ele>253.97</ele>
        <time>2017-02-25T14:14:27Z</time>
      </trkpt>
      <trkpt lat="45.25656" lon="5.02875">
        <ele>253.97</ele>
        <time>2017-02-25T14:14:28Z</time>
      </trkpt>
      <trkpt lat="45.25656" lon="5.02875">
        <ele>253.97</ele>
        <time>2017-02-25T14:14:29Z</time>
      </trkpt>
      <trkpt lat="45.25656" lon="5.02875">
        <ele>253.97</ele>
        <time>2017-02-25T14:14:30Z</time>
      </trkpt>
      <trkpt lat="45.25656" lon="5.02875">
        <ele>253.97</ele>
        <time>2017-02-25T14:14:31Z</time>
      </trkpt>
      <trkpt lat="45.25656" lon="5.02875">
        <ele>253.97</ele>
        <time>2017-02-25T14:14:32Z</time>
      </trkpt>
      <trkpt lat="45.25656" lon="5.02875">
        <ele>253.97</ele>
        <time>2017-02-25T14:14:33Z</time>
      </trkpt>
      <trkpt lat="45.25656" lon="5.02875">
        <ele>253.97</ele>
        <time>2017-02-25T14:14:34Z</time>
      </trkpt>
      <trkpt lat="45.25656" lon="5.02875">
        <ele>253.97</ele>
        <time>2017-02-25T14:14:35Z</time>
      </trkpt>
      <trkpt lat="45.25656" lon="5.02875">
        <ele>253.97</ele>
        <time>2017-02-25T14:14:36Z</time>
      </trkpt>
      <trkpt lat="45.25656" lon="5.02875">
        <ele>253.97</ele>
        <time>2017-02-25T14:14:37Z</time>
      </trkpt>
      <trkpt lat="45.25656" lon="5.02875">
        <ele>253.97</ele>
        <time>2017-02-25T14:14:38Z</time>
      </trkpt>
      <trkpt lat="45.25656" lon="5.02875">
        <ele>253.97</ele>
        <time>2017-02-25T14:14:39Z</time>
      </trkpt>
      <trkpt lat="45.25656" lon="5.02875">
        <ele>253.97</ele>
        <time>2017-02-25T14:14:40Z</time>
      </trkpt>
      <trkpt lat="45.25656" lon="5.02875">
        <ele>253.97</ele>
        <time>2017-02-25T14:14:41Z</time>
      </trkpt>
      <trkpt lat="45.25656" lon="5.02875">
        <ele>253.97</ele>
        <time>2017-02-25T14:14:42Z</time>
      </trkpt>
      <trkpt lat="45.25656" lon="5.02875">
        <ele>253.97</ele>
        <time>2017-02-25T14:14:43Z</time>
      </trkpt>
      <trkpt lat="45.25656" lon="5.02875">
        <ele>253.97</ele>
        <time>2017-02-25T14:14:44Z</time>
      </trkpt>
      <trkpt lat="45.25656" lon="5.02875">
        <ele>253.97</ele>
        <time>2017-02-25T14:14:45Z</time>
      </trkpt>
      <trkpt lat="45.25656" lon="5.02875">
        <ele>253.97</ele>
        <time>2017-02-25T14:14:46Z</time>
      </trkpt>
      <trkpt lat="45.25664" lon="5.02881">
        <ele>254.21</ele>
        <time>2017-02-25T14:14:47Z</time>
      </trkpt>
      <trkpt lat="45.25663" lon="5.02882">
        <ele>254.26</ele>
        <time>2017-02-25T14:14:48Z</time>
      </trkpt>
      <trkpt lat="45.25664" lon="5.02882">
        <ele>254.26</ele>
        <time>2017-02-25T14:14:49Z</time>
      </trkpt>
      <trkpt lat="45.25664" lon="5.02882">
        <ele>254.27</ele>
        <time>2017-02-25T14:14:50Z</time>
      </trkpt>
      <trkpt lat="45.25664" lon="5.02882">
        <ele>254.27</ele>
        <time>2017-02-25T14:14:51Z</time>
      </trkpt>
      <trkpt lat="45.25664" lon="5.02882">
        <ele>254.27</ele>
        <time>2017-02-25T14:14:52Z</time>
      </trkpt>
      <trkpt lat="45.25664" lon="5.02882">
        <ele>254.27</ele>
        <time>2017-02-25T14:14:53Z</time>
      </trkpt>
      <trkpt lat="45.25664" lon="5.02882">
        <ele>254.27</ele>
        <time>2017-02-25T14:14:54Z</time>
      </trkpt>
      <trkpt lat="45.25664" lon="5.02882">
        <ele>254.27</ele>
        <time>2017-02-25T14:14:55Z</time>
      </trkpt>
      <trkpt lat="45.25664" lon="5.02882">
        <ele>254.27</ele>
        <time>2017-02-25T14:14:56Z</time>
      </trkpt>
      <trkpt lat="45.25664" lon="5.02882">
        <ele>254.27</ele>
        <time>2017-02-25T14:14:57Z</time>
      </trkpt>
      <trkpt lat="45.25664" lon="5.02882">
        <ele>254.27</ele>
        <time>2017-02-25T14:14:58Z</time>
      </trkpt>
      <trkpt lat="45.25664" lon="5.02882">
        <ele>254.27</ele>
        <time>2017-02-25T14:14:59Z</time>
      </trkpt>
      <trkpt lat="45.25664" lon="5.02882">
        <ele>254.27</ele>
        <time>2017-02-25T14:15:00Z</time>
      </trkpt>
      <trkpt lat="45.25664" lon="5.02882">
        <ele>254.27</ele>
        <time>2017-02-25T14:15:01Z</time>
      </trkpt>
      <trkpt lat="45.25664" lon="5.02882">
        <ele>254.27</ele>
        <time>2017-02-25T14:15:02Z</time>
      </trkpt>
      <trkpt lat="45.25664" lon="5.02882">
        <ele>254.27</ele>
        <time>2017-02-25T14:15:03Z</time>
      </trkpt>
      <trkpt lat="45.25664" lon="5.02882">
        <ele>254.27</ele>
        <time>2017-02-25T14:15:04Z</time>
      </trkpt>
      <trkpt lat="45.25664" lon="5.02882">
        <ele>254.27</ele>
        <time>2017-02-25T14:15:05Z</time>
      </trkpt>
      <trkpt lat="45.25664" lon="5.02882">
        <ele>254.27</ele>
        <time>2017-02-25T14:15:06Z</time>
      </trkpt>
      <trkpt lat="45.25664" lon="5.02882">
        <ele>254.27</ele>
        <time>2017-02-25T14:15:07Z</time>
      </trkpt>
      <trkpt lat="45.25664" lon="5.02882">
        <ele>254.27</ele>
        <time>2017-02-25T14:15:08Z</time>
      </trkpt>
      <trkpt lat="45.25664" lon="5.02882">
        <ele>254.27</ele>
        <time>2017-02-25T14:15:09Z</time>
      </trkpt>
      <trkpt lat="45.25664" lon="5.02882">
        <ele>254.27</ele>
        <time>2017-02-25T14:15:10Z</time>
      </trkpt>
      <trkpt lat="45.25664" lon="5.02882">
        <ele>254.27</ele>
        <time>2017-02-25T14:15:11Z</time>
      </trkpt>
      <trkpt lat="45.25664" lon="5.02882">
        <ele>254.27</ele>
        <time>2017-02-25T14:15:12Z</time>
      </trkpt>
      <trkpt lat="45.25664" lon="5.02882">
        <ele>254.27</ele>
        <time>2017-02-25T14:15:13Z</time>
      </trkpt>
      <trkpt lat="45.25664" lon="5.02882">
        <ele>254.27</ele>
        <time>2017-02-25T14:15:14Z</time>
      </trkpt>
      <trkpt lat="45.25664" lon="5.02882">
        <ele>254.27</ele>
        <time>2017-02-25T14:15:15Z</time>
      </trkpt>
      <trkpt lat="45.25664" lon="5.02882">
        <ele>254.27</ele>
        <time>2017-02-25T14:15:16Z</time>
      </trkpt>
      <trkpt lat="45.25664" lon="5.02882">
        <ele>254.27</ele>
        <time>2017-02-25T14:15:17Z</time>
      </trkpt>
      <trkpt lat="45.25664" lon="5.02882">
        <ele>254.27</ele>
        <time>2017-02-25T14:15:18Z</time>
      </trkpt>
      <trkpt lat="45.25664" lon="5.02882">
        <ele>254.27</ele>
        <time>2017-02-25T14:15:19Z</time>
      </trkpt>
      <trkpt lat="45.25664" lon="5.02882">
        <ele>254.27</ele>
        <time>2017-02-25T14:15:20Z</time>
      </trkpt>
      <trkpt lat="45.25664" lon="5.02882">
        <ele>254.27</ele>
        <time>2017-02-25T14:15:21Z</time>
      </trkpt>
      <trkpt lat="45.25664" lon="5.02882">
        <ele>254.27</ele>
        <time>2017-02-25T14:15:22Z</time>
      </trkpt>
      <trkpt lat="45.25664" lon="5.02882">
        <ele>254.27</ele>
        <time>2017-02-25T14:15:23Z</time>
      </trkpt>
      <trkpt lat="45.25664" lon="5.02882">
        <ele>254.27</ele>
        <time>2017-02-25T14:15:24Z</time>
      </trkpt>
      <trkpt lat="45.25664" lon="5.02882">
        <ele>254.27</ele>
        <time>2017-02-25T14:15:25Z</time>
      </trkpt>
      <trkpt lat="45.25664" lon="5.02882">
        <ele>254.27</ele>
        <time>2017-02-25T14:15:26Z</time>
      </trkpt>
      <trkpt lat="45.25664" lon="5.02882">
        <ele>254.27</ele>
        <time>2017-02-25T14:15:27Z</time>
      </trkpt>
      <trkpt lat="45.25664" lon="5.02882">
        <ele>254.27</ele>
        <time>2017-02-25T14:15:28Z</time>
      </trkpt>
      <trkpt lat="45.25664" lon="5.02882">
        <ele>254.27</ele>
        <time>2017-02-25T14:15:29Z</time>
      </trkpt>
      <trkpt lat="45.25664" lon="5.02882">
        <ele>254.27</ele>
        <time>2017-02-25T14:15:30Z</time>
      </trkpt>
      <trkpt lat="45.25664" lon="5.02882">
        <ele>254.27</ele>
        <time>2017-02-25T14:15:31Z</time>
      </trkpt>
      <trkpt lat="45.25664" lon="5.02882">
        <ele>254.27</ele>
        <time>2017-02-25T14:15:32Z</time>
      </trkpt>
      <trkpt lat="45.25664" lon="5.02882">
        <ele>254.27</ele>
        <time>2017-02-25T14:15:33Z</time>
      </trkpt>
      <trkpt lat="45.25664" lon="5.02882">
        <ele>254.27</ele>
        <time>2017-02-25T14:15:34Z</time>
      </trkpt>
      <trkpt lat="45.25664" lon="5.02882">
        <ele>254.27</ele>
        <time>2017-02-25T14:15:35Z</time>
      </trkpt>
      <trkpt lat="45.25664" lon="5.02882">
        <ele>254.27</ele>
        <time>2017-02-25T14:15:36Z</time>
      </trkpt>
      <trkpt lat="45.25664" lon="5.02882">
        <ele>254.27</ele>
        <time>2017-02-25T14:15:37Z</time>
      </trkpt>
      <trkpt lat="45.25664" lon="5.02882">
        <ele>254.27</ele>
        <time>2017-02-25T14:15:38Z</time>
      </trkpt>
      <trkpt lat="45.25664" lon="5.02882">
        <ele>254.27</ele>
        <time>2017-02-25T14:15:39Z</time>
      </trkpt>
      <trkpt lat="45.25664" lon="5.02882">
        <ele>254.27</ele>
        <time>2017-02-25T14:15:40Z</time>
      </trkpt>
      <trkpt lat="45.25664" lon="5.02882">
        <ele>254.27</ele>
        <time>2017-02-25T14:15:41Z</time>
      </trkpt>
      <trkpt lat="45.25664" lon="5.02882">
        <ele>254.27</ele>
        <time>2017-02-25T14:15:42Z</time>
      </trkpt>
      <trkpt lat="45.25664" lon="5.02882">
        <ele>254.27</ele>
        <time>2017-02-25T14:15:43Z</time>
      </trkpt>
      <trkpt lat="45.25664" lon="5.02882">
        <ele>254.27</ele>
        <time>2017-02-25T14:15:44Z</time>
      </trkpt>
      <trkpt lat="45.25664" lon="5.02882">
        <ele>254.27</ele>
        <time>2017-02-25T14:15:45Z</time>
      </trkpt>
      <trkpt lat="45.25664" lon="5.02882">
        <ele>254.27</ele>
        <time>2017-02-25T14:15:46Z</time>
      </trkpt>
      <trkpt lat="45.25664" lon="5.02882">
        <ele>254.27</ele>
        <time>2017-02-25T14:15:47Z</time>
      </trkpt>
      <trkpt lat="45.25664" lon="5.02882">
        <ele>254.27</ele>
        <time>2017-02-25T14:15:48Z</time>
      </trkpt>
      <trkpt lat="45.25664" lon="5.02882">
        <ele>254.27</ele>
        <time>2017-02-25T14:15:49Z</time>
      </trkpt>
      <trkpt lat="45.25664" lon="5.02882">
        <ele>254.27</ele>
        <time>2017-02-25T14:15:50Z</time>
      </trkpt>
      <trkpt lat="45.25664" lon="5.02882">
        <ele>254.27</ele>
        <time>2017-02-25T14:15:51Z</time>
      </trkpt>
      <trkpt lat="45.25664" lon="5.02882">
        <ele>254.27</ele>
        <time>2017-02-25T14:15:52Z</time>
      </trkpt>
      <trkpt lat="45.25664" lon="5.02882">
        <ele>254.27</ele>
        <time>2017-02-25T14:15:53Z</time>
      </trkpt>
      <trkpt lat="45.25664" lon="5.02882">
        <ele>254.27</ele>
        <time>2017-02-25T14:15:54Z</time>
      </trkpt>
      <trkpt lat="45.25664" lon="5.02882">
        <ele>254.27</ele>
        <time>2017-02-25T14:15:55Z</time>
      </trkpt>
      <trkpt lat="45.25664" lon="5.02882">
        <ele>254.27</ele>
        <time>2017-02-25T14:15:56Z</time>
      </trkpt>
      <trkpt lat="45.25664" lon="5.02882">
        <ele>254.27</ele>
        <time>2017-02-25T14:15:57Z</time>
      </trkpt>
      <trkpt lat="45.25664" lon="5.02882">
        <ele>254.27</ele>
        <time>2017-02-25T14:15:58Z</time>
      </trkpt>
      <trkpt lat="45.25664" lon="5.02882">
        <ele>254.27</ele>
        <time>2017-02-25T14:15:59Z</time>
      </trkpt>
      <trkpt lat="45.25664" lon="5.02882">
        <ele>254.27</ele>
        <time>2017-02-25T14:16:00Z</time>
      </trkpt>
      <trkpt lat="45.25664" lon="5.02882">
        <ele>254.27</ele>
        <time>2017-02-25T14:16:01Z</time>
      </trkpt>
      <trkpt lat="45.25664" lon="5.02882">
        <ele>254.27</ele>
        <time>2017-02-25T14:16:02Z</time>
      </trkpt>
      <trkpt lat="45.25664" lon="5.02882">
        <ele>254.27</ele>
        <time>2017-02-25T14:16:03Z</time>
      </trkpt>
      <trkpt lat="45.25664" lon="5.02882">
        <ele>254.27</ele>
        <time>2017-02-25T14:16:04Z</time>
      </trkpt>
      <trkpt lat="45.25664" lon="5.02882">
        <ele>254.27</ele>
        <time>2017-02-25T14:16:05Z</time>
      </trkpt>
      <trkpt lat="45.25664" lon="5.02882">
        <ele>254.27</ele>
        <time>2017-02-25T14:16:06Z</time>
      </trkpt>
      <trkpt lat="45.25664" lon="5.02882">
        <ele>254.27</ele>
        <time>2017-02-25T14:16:07Z</time>
      </trkpt>
      <trkpt lat="45.25664" lon="5.02882">
        <ele>254.27</ele>
        <time>2017-02-25T14:16:08Z</time>
      </trkpt>
      <trkpt lat="45.25664" lon="5.02882">
        <ele>254.27</ele>
        <time>2017-02-25T14:16:09Z</time>
      </trkpt>
      <trkpt lat="45.25664" lon="5.02882">
        <ele>254.27</ele>
        <time>2017-02-25T14:16:10Z</time>
      </trkpt>
      <trkpt lat="45.25664" lon="5.02882">
        <ele>254.27</ele>
        <time>2017-02-25T14:16:11Z</time>
      </trkpt>
      <trkpt lat="45.25664" lon="5.02882">
        <ele>254.27</ele>
        <time>2017-02-25T14:16:12Z</time>
      </trkpt>
      <trkpt lat="45.25664" lon="5.02882">
        <ele>254.27</ele>
        <time>2017-02-25T14:16:13Z</time>
      </trkpt>
      <trkpt lat="45.25664" lon="5.02882">
        <ele>254.27</ele>
        <time>2017-02-25T14:16:14Z</time>
      </trkpt>
      <trkpt lat="45.25664" lon="5.02882">
        <ele>254.27</ele>
        <time>2017-02-25T14:16:15Z</time>
      </trkpt>
      <trkpt lat="45.25664" lon="5.02882">
        <ele>254.27</ele>
        <time>2017-02-25T14:16:16Z</time>
      </trkpt>
      <trkpt lat="45.25664" lon="5.02882">
        <ele>254.27</ele>
        <time>2017-02-25T14:16:17Z</time>
      </trkpt>
      <trkpt lat="45.25664" lon="5.02882">
        <ele>254.27</ele>
        <time>2017-02-25T14:16:18Z</time>
      </trkpt>
      <trkpt lat="45.25664" lon="5.02882">
        <ele>254.27</ele>
        <time>2017-02-25T14:16:19Z</time>
      </trkpt>
      <trkpt lat="45.25664" lon="5.02882">
        <ele>254.27</ele>
        <time>2017-02-25T14:16:20Z</time>
      </trkpt>
      <trkpt lat="45.25664" lon="5.02882">
        <ele>254.27</ele>
        <time>2017-02-25T14:16:21Z</time>
      </trkpt>
      <trkpt lat="45.25664" lon="5.02882">
        <ele>254.27</ele>
        <time>2017-02-25T14:16:22Z</time>
      </trkpt>
      <trkpt lat="45.25664" lon="5.02882">
        <ele>254.27</ele>
        <time>2017-02-25T14:16:23Z</time>
      </trkpt>
      <trkpt lat="45.25664" lon="5.02882">
        <ele>254.27</ele>
        <time>2017-02-25T14:16:24Z</time>
      </trkpt>
      <trkpt lat="45.25664" lon="5.02882">
        <ele>254.27</ele>
        <time>2017-02-25T14:16:25Z</time>
      </trkpt>
      <trkpt lat="45.25664" lon="5.02882">
        <ele>254.27</ele>
        <time>2017-02-25T14:16:26Z</time>
      </trkpt>
      <trkpt lat="45.25664" lon="5.02882">
        <ele>254.27</ele>
        <time>2017-02-25T14:16:27Z</time>
      </trkpt>
      <trkpt lat="45.25664" lon="5.02882">
        <ele>254.27</ele>
        <time>2017-02-25T14:16:28Z</time>
      </trkpt>
      <trkpt lat="45.25664" lon="5.02882">
        <ele>254.27</ele>
        <time>2017-02-25T14:16:29Z</time>
      </trkpt>
      <trkpt lat="45.25664" lon="5.02882">
        <ele>254.27</ele>
        <time>2017-02-25T14:16:30Z</time>
      </trkpt>
      <trkpt lat="45.25664" lon="5.02882">
        <ele>254.27</ele>
        <time>2017-02-25T14:16:31Z</time>
      </trkpt>
      <trkpt lat="45.25664" lon="5.02882">
        <ele>254.27</ele>
        <time>2017-02-25T14:16:32Z</time>
      </trkpt>
      <trkpt lat="45.25664" lon="5.02882">
        <ele>254.27</ele>
        <time>2017-02-25T14:16:33Z</time>
      </trkpt>
      <trkpt lat="45.25664" lon="5.02882">
        <ele>254.27</ele>
        <time>2017-02-25T14:16:34Z</time>
      </trkpt>
      <trkpt lat="45.25664" lon="5.02882">
        <ele>254.27</ele>
        <time>2017-02-25T14:16:35Z</time>
      </trkpt>
      <trkpt lat="45.25664" lon="5.02882">
        <ele>254.27</ele>
        <time>2017-02-25T14:16:36Z</time>
      </trkpt>
      <trkpt lat="45.25664" lon="5.02882">
        <ele>254.27</ele>
        <time>2017-02-25T14:16:37Z</time>
      </trkpt>
      <trkpt lat="45.25664" lon="5.02882">
        <ele>254.27</ele>
        <time>2017-02-25T14:16:38Z</time>
      </trkpt>
      <trkpt lat="45.25664" lon="5.02882">
        <ele>254.27</ele>
        <time>2017-02-25T14:16:39Z</time>
      </trkpt>
      <trkpt lat="45.25664" lon="5.02882">
        <ele>254.27</ele>
        <time>2017-02-25T14:16:40Z</time>
      </trkpt>
      <trkpt lat="45.25664" lon="5.02882">
        <ele>254.27</ele>
        <time>2017-02-25T14:16:41Z</time>
      </trkpt>
      <trkpt lat="45.25664" lon="5.02882">
        <ele>254.27</ele>
        <time>2017-02-25T14:16:42Z</time>
      </trkpt>
      <trkpt lat="45.25664" lon="5.02882">
        <ele>254.27</ele>
        <time>2017-02-25T14:16:43Z</time>
      </trkpt>
      <trkpt lat="45.25664" lon="5.02882">
        <ele>254.27</ele>
        <time>2017-02-25T14:16:44Z</time>
      </trkpt>
      <trkpt lat="45.25664" lon="5.02882">
        <ele>254.27</ele>
        <time>2017-02-25T14:16:45Z</time>
      </trkpt>
      <trkpt lat="45.25664" lon="5.02882">
        <ele>254.27</ele>
        <time>2017-02-25T14:16:46Z</time>
      </trkpt>
      <trkpt lat="45.25664" lon="5.02882">
        <ele>254.27</ele>
        <time>2017-02-25T14:16:47Z</time>
      </trkpt>
      <trkpt lat="45.25664" lon="5.02882">
        <ele>254.27</ele>
        <time>2017-02-25T14:16:48Z</time>
      </trkpt>
      <trkpt lat="45.25664" lon="5.02882">
        <ele>254.27</ele>
        <time>2017-02-25T14:16:49Z</time>
      </trkpt>
      <trkpt lat="45.25664" lon="5.02882">
        <ele>254.27</ele>
        <time>2017-02-25T14:16:50Z</time>
      </trkpt>
      <trkpt lat="45.25664" lon="5.02882">
        <ele>254.27</ele>
        <time>2017-02-25T14:16:51Z</time>
      </trkpt>
      <trkpt lat="45.25664" lon="5.02882">
        <ele>254.27</ele>
        <time>2017-02-25T14:16:52Z</time>
      </trkpt>
      <trkpt lat="45.25664" lon="5.02882">
        <ele>254.27</ele>
        <time>2017-02-25T14:16:53Z</time>
      </trkpt>
      <trkpt lat="45.25664" lon="5.02882">
        <ele>254.27</ele>
        <time>2017-02-25T14:16:54Z</time>
      </trkpt>
      <trkpt lat="45.25664" lon="5.02882">
        <ele>254.27</ele>
        <time>2017-02-25T14:16:55Z</time>
      </trkpt>
      <trkpt lat="45.25664" lon="5.02882">
        <ele>254.27</ele>
        <time>2017-02-25T14:16:56Z</time>
      </trkpt>
      <trkpt lat="45.25664" lon="5.02882">
        <ele>254.27</ele>
        <time>2017-02-25T14:16:57Z</time>
      </trkpt>
      <trkpt lat="45.25664" lon="5.02882">
        <ele>254.27</ele>
        <time>2017-02-25T14:16:58Z</time>
      </trkpt>
      <trkpt lat="45.25664" lon="5.02882">
        <ele>254.27</ele>
        <time>2017-02-25T14:16:59Z</time>
      </trkpt>
      <trkpt lat="45.25664" lon="5.02882">
        <ele>254.27</ele>
        <time>2017-02-25T14:17:00Z</time>
      </trkpt>
      <trkpt lat="45.25664" lon="5.02882">
        <ele>254.27</ele>
        <time>2017-02-25T14:17:01Z</time>
      </trkpt>
      <trkpt lat="45.25664" lon="5.02882">
        <ele>254.27</ele>
        <time>2017-02-25T14:17:02Z</time>
      </trkpt>
      <trkpt lat="45.25664" lon="5.02882">
        <ele>254.27</ele>
        <time>2017-02-25T14:17:03Z</time>
      </trkpt>
      <trkpt lat="45.25664" lon="5.02882">
        <ele>254.27</ele>
        <time>2017-02-25T14:17:04Z</time>
      </trkpt>
      <trkpt lat="45.25664" lon="5.02882">
        <ele>254.27</ele>
        <time>2017-02-25T14:17:05Z</time>
      </trkpt>
      <trkpt lat="45.25664" lon="5.02882">
        <ele>254.27</ele>
        <time>2017-02-25T14:17:06Z</time>
      </trkpt>
      <trkpt lat="45.25664" lon="5.02882">
        <ele>254.27</ele>
        <time>2017-02-25T14:17:07Z</time>
      </trkpt>
      <trkpt lat="45.25664" lon="5.02882">
        <ele>254.27</ele>
        <time>2017-02-25T14:17:08Z</time>
      </trkpt>
      <trkpt lat="45.25664" lon="5.02882">
        <ele>254.27</ele>
        <time>2017-02-25T14:17:09Z</time>
      </trkpt>
      <trkpt lat="45.25664" lon="5.02882">
        <ele>254.27</ele>
        <time>2017-02-25T14:17:10Z</time>
      </trkpt>
      <trkpt lat="45.25664" lon="5.02882">
        <ele>254.27</ele>
        <time>2017-02-25T14:17:11Z</time>
      </trkpt>
      <trkpt lat="45.25664" lon="5.02882">
        <ele>254.27</ele>
        <time>2017-02-25T14:17:12Z</time>
      </trkpt>
      <trkpt lat="45.25664" lon="5.02882">
        <ele>254.27</ele>
        <time>2017-02-25T14:17:13Z</time>
      </trkpt>
      <trkpt lat="45.25664" lon="5.02882">
        <ele>254.27</ele>
        <time>2017-02-25T14:17:14Z</time>
      </trkpt>
      <trkpt lat="45.25664" lon="5.02882">
        <ele>254.27</ele>
        <time>2017-02-25T14:17:15Z</time>
      </trkpt>
      <trkpt lat="45.25664" lon="5.02882">
        <ele>254.27</ele>
        <time>2017-02-25T14:17:16Z</time>
      </trkpt>
      <trkpt lat="45.25664" lon="5.02882">
        <ele>254.27</ele>
        <time>2017-02-25T14:17:17Z</time>
      </trkpt>
      <trkpt lat="45.25664" lon="5.02882">
        <ele>254.27</ele>
        <time>2017-02-25T14:17:18Z</time>
      </trkpt>
      <trkpt lat="45.25664" lon="5.02882">
        <ele>254.27</ele>
        <time>2017-02-25T14:17:19Z</time>
      </trkpt>
      <trkpt lat="45.25664" lon="5.02882">
        <ele>254.27</ele>
        <time>2017-02-25T14:17:20Z</time>
      </trkpt>
      <trkpt lat="45.25664" lon="5.02882">
        <ele>254.27</ele>
        <time>2017-02-25T14:17:21Z</time>
      </trkpt>
      <trkpt lat="45.25664" lon="5.02882">
        <ele>254.27</ele>
        <time>2017-02-25T14:17:22Z</time>
      </trkpt>
      <trkpt lat="45.25664" lon="5.02882">
        <ele>254.27</ele>
        <time>2017-02-25T14:17:23Z</time>
      </trkpt>
      <trkpt lat="45.25664" lon="5.02882">
        <ele>254.27</ele>
        <time>2017-02-25T14:17:24Z</time>
      </trkpt>
      <trkpt lat="45.25664" lon="5.02882">
        <ele>254.27</ele>
        <time>2017-02-25T14:17:25Z</time>
      </trkpt>
      <trkpt lat="45.25664" lon="5.02882">
        <ele>254.27</ele>
        <time>2017-02-25T14:17:26Z</time>
      </trkpt>
      <trkpt lat="45.25664" lon="5.02882">
        <ele>254.27</ele>
        <time>2017-02-25T14:17:27Z</time>
      </trkpt>
      <trkpt lat="45.25667" lon="5.0287">
        <ele>254.51</ele>
        <time>2017-02-25T14:17:28Z</time>
      </trkpt>
      <trkpt lat="45.25667" lon="5.02869">
        <ele>254.55</ele>
        <time>2017-02-25T14:17:29Z</time>
      </trkpt>
      <trkpt lat="45.25667" lon="5.02869">
        <ele>254.48</ele>
        <time>2017-02-25T14:17:30Z</time>
      </trkpt>
      <trkpt lat="45.25667" lon="5.02869">
        <ele>254.55</ele>
        <time>2017-02-25T14:17:31Z</time>
      </trkpt>
      <trkpt lat="45.25667" lon="5.02869">
        <ele>254.56</ele>
        <time>2017-02-25T14:17:32Z</time>
      </trkpt>
      <trkpt lat="45.25667" lon="5.02869">
        <ele>254.57</ele>
        <time>2017-02-25T14:17:33Z</time>
      </trkpt>
      <trkpt lat="45.25667" lon="5.02869">
        <ele>254.57</ele>
        <time>2017-02-25T14:17:34Z</time>
      </trkpt>
      <trkpt lat="45.25667" lon="5.02869">
        <ele>254.57</ele>
        <time>2017-02-25T14:17:35Z</time>
      </trkpt>
      <trkpt lat="45.25667" lon="5.02869">
        <ele>254.57</ele>
        <time>2017-02-25T14:17:36Z</time>
      </trkpt>
      <trkpt lat="45.25667" lon="5.02869">
        <ele>254.57</ele>
        <time>2017-02-25T14:17:37Z</time>
      </trkpt>
      <trkpt lat="45.25667" lon="5.02869">
        <ele>254.57</ele>
        <time>2017-02-25T14:17:38Z</time>
      </trkpt>
      <trkpt lat="45.25667" lon="5.02869">
        <ele>254.57</ele>
        <time>2017-02-25T14:17:39Z</time>
      </trkpt>
      <trkpt lat="45.25667" lon="5.02869">
        <ele>254.57</ele>
        <time>2017-02-25T14:17:40Z</time>
      </trkpt>
      <trkpt lat="45.25667" lon="5.02869">
        <ele>254.57</ele>
        <time>2017-02-25T14:17:41Z</time>
      </trkpt>
      <trkpt lat="45.25667" lon="5.02869">
        <ele>254.57</ele>
        <time>2017-02-25T14:17:42Z</time>
      </trkpt>
      <trkpt lat="45.25667" lon="5.02869">
        <ele>254.57</ele>
        <time>2017-02-25T14:17:43Z</time>
      </trkpt>
      <trkpt lat="45.25667" lon="5.02869">
        <ele>254.57</ele>
        <time>2017-02-25T14:17:44Z</time>
      </trkpt>
      <trkpt lat="45.25667" lon="5.02869">
        <ele>254.57</ele>
        <time>2017-02-25T14:17:45Z</time>
      </trkpt>
      <trkpt lat="45.25667" lon="5.02869">
        <ele>254.57</ele>
        <time>2017-02-25T14:17:46Z</time>
      </trkpt>
      <trkpt lat="45.25667" lon="5.02869">
        <ele>254.57</ele>
        <time>2017-02-25T14:17:47Z</time>
      </trkpt>
      <trkpt lat="45.25667" lon="5.02869">
        <ele>254.57</ele>
        <time>2017-02-25T14:17:48Z</time>
      </trkpt>
      <trkpt lat="45.25667" lon="5.02869">
        <ele>254.57</ele>
        <time>2017-02-25T14:17:49Z</time>
      </trkpt>
      <trkpt lat="45.25667" lon="5.02869">
        <ele>254.57</ele>
        <time>2017-02-25T14:17:50Z</time>
      </trkpt>
      <trkpt lat="45.25667" lon="5.02869">
        <ele>254.57</ele>
        <time>2017-02-25T14:17:51Z</time>
      </trkpt>
      <trkpt lat="45.25667" lon="5.02869">
        <ele>254.57</ele>
        <time>2017-02-25T14:17:52Z</time>
      </trkpt>
      <trkpt lat="45.25667" lon="5.02869">
        <ele>254.57</ele>
        <time>2017-02-25T14:17:53Z</time>
      </trkpt>
      <trkpt lat="45.25667" lon="5.02869">
        <ele>254.57</ele>
        <time>2017-02-25T14:17:54Z</time>
      </trkpt>
      <trkpt lat="45.25667" lon="5.02869">
        <ele>254.57</ele>
        <time>2017-02-25T14:17:55Z</time>
      </trkpt>
      <trkpt lat="45.25667" lon="5.02869">
        <ele>254.57</ele>
        <time>2017-02-25T14:17:56Z</time>
      </trkpt>
      <trkpt lat="45.25667" lon="5.02869">
        <ele>254.57</ele>
        <time>2017-02-25T14:17:57Z</time>
      </trkpt>
      <trkpt lat="45.25667" lon="5.02869">
        <ele>254.57</ele>
        <time>2017-02-25T14:17:58Z</time>
      </trkpt>
      <trkpt lat="45.25667" lon="5.02869">
        <ele>254.57</ele>
        <time>2017-02-25T14:17:59Z</time>
      </trkpt>
      <trkpt lat="45.25667" lon="5.02869">
        <ele>254.57</ele>
        <time>2017-02-25T14:18:00Z</time>
      </trkpt>
      <trkpt lat="45.25667" lon="5.02869">
        <ele>254.57</ele>
        <time>2017-02-25T14:18:01Z</time>
      </trkpt>
      <trkpt lat="45.25667" lon="5.02869">
        <ele>254.57</ele>
        <time>2017-02-25T14:18:02Z</time>
      </trkpt>
      <trkpt lat="45.25667" lon="5.02869">
        <ele>254.57</ele>
        <time>2017-02-25T14:18:03Z</time>
      </trkpt>
      <trkpt lat="45.25667" lon="5.02869">
        <ele>254.57</ele>
        <time>2017-02-25T14:18:04Z</time>
      </trkpt>
      <trkpt lat="45.25667" lon="5.02869">
        <ele>254.57</ele>
        <time>2017-02-25T14:18:05Z</time>
      </trkpt>
      <trkpt lat="45.25667" lon="5.02869">
        <ele>254.57</ele>
        <time>2017-02-25T14:18:06Z</time>
      </trkpt>
      <trkpt lat="45.25667" lon="5.02869">
        <ele>254.57</ele>
        <time>2017-02-25T14:18:07Z</time>
      </trkpt>
      <trkpt lat="45.25667" lon="5.02869">
        <ele>254.57</ele>
        <time>2017-02-25T14:18:08Z</time>
      </trkpt>
      <trkpt lat="45.25667" lon="5.02869">
        <ele>254.57</ele>
        <time>2017-02-25T14:18:09Z</time>
      </trkpt>
      <trkpt lat="45.25667" lon="5.02869">
        <ele>254.57</ele>
        <time>2017-02-25T14:18:10Z</time>
      </trkpt>
      <trkpt lat="45.25667" lon="5.02869">
        <ele>254.57</ele>
        <time>2017-02-25T14:18:11Z</time>
      </trkpt>
      <trkpt lat="45.25667" lon="5.02869">
        <ele>254.57</ele>
        <time>2017-02-25T14:18:12Z</time>
      </trkpt>
      <trkpt lat="45.25667" lon="5.02869">
        <ele>254.57</ele>
        <time>2017-02-25T14:18:13Z</time>
      </trkpt>
      <trkpt lat="45.25667" lon="5.02869">
        <ele>254.57</ele>
        <time>2017-02-25T14:18:14Z</time>
      </trkpt>
      <trkpt lat="45.25667" lon="5.02869">
        <ele>254.57</ele>
        <time>2017-02-25T14:18:15Z</time>
      </trkpt>
      <trkpt lat="45.25667" lon="5.02869">
        <ele>254.57</ele>
        <time>2017-02-25T14:18:16Z</time>
      </trkpt>
      <trkpt lat="45.25667" lon="5.02869">
        <ele>254.57</ele>
        <time>2017-02-25T14:18:17Z</time>
      </trkpt>
      <trkpt lat="45.25667" lon="5.02869">
        <ele>254.57</ele>
        <time>2017-02-25T14:18:18Z</time>
      </trkpt>
      <trkpt lat="45.25667" lon="5.02869">
        <ele>254.57</ele>
        <time>2017-02-25T14:18:19Z</time>
      </trkpt>
      <trkpt lat="45.25667" lon="5.02869">
        <ele>254.57</ele>
        <time>2017-02-25T14:18:20Z</time>
      </trkpt>
      <trkpt lat="45.25667" lon="5.02869">
        <ele>254.57</ele>
        <time>2017-02-25T14:18:21Z</time>
      </trkpt>
      <trkpt lat="45.25667" lon="5.02869">
        <ele>254.57</ele>
        <time>2017-02-25T14:18:22Z</time>
      </trkpt>
      <trkpt lat="45.25667" lon="5.02869">
        <ele>254.57</ele>
        <time>2017-02-25T14:18:23Z</time>
      </trkpt>
      <trkpt lat="45.25667" lon="5.02869">
        <ele>254.57</ele>
        <time>2017-02-25T14:18:24Z</time>
      </trkpt>
      <trkpt lat="45.25667" lon="5.02869">
        <ele>254.57</ele>
        <time>2017-02-25T14:18:25Z</time>
      </trkpt>
      <trkpt lat="45.25667" lon="5.02869">
        <ele>254.57</ele>
        <time>2017-02-25T14:18:26Z</time>
      </trkpt>
      <trkpt lat="45.25667" lon="5.02869">
        <ele>254.57</ele>
        <time>2017-02-25T14:18:27Z</time>
      </trkpt>
      <trkpt lat="45.25667" lon="5.02869">
        <ele>254.57</ele>
        <time>2017-02-25T14:18:28Z</time>
      </trkpt>
      <trkpt lat="45.25667" lon="5.02869">
        <ele>254.57</ele>
        <time>2017-02-25T14:18:29Z</time>
      </trkpt>
      <trkpt lat="45.25667" lon="5.02869">
        <ele>254.57</ele>
        <time>2017-02-25T14:18:30Z</time>
      </trkpt>
      <trkpt lat="45.25667" lon="5.02869">
        <ele>254.57</ele>
        <time>2017-02-25T14:18:31Z</time>
      </trkpt>
      <trkpt lat="45.25667" lon="5.02869">
        <ele>254.57</ele>
        <time>2017-02-25T14:18:32Z</time>
      </trkpt>
      <trkpt lat="45.25667" lon="5.02869">
        <ele>254.57</ele>
        <time>2017-02-25T14:18:33Z</time>
      </trkpt>
      <trkpt lat="45.25667" lon="5.02869">
        <ele>254.57</ele>
        <time>2017-02-25T14:18:34Z</time>
      </trkpt>
      <trkpt lat="45.25667" lon="5.02869">
        <ele>254.57</ele>
        <time>2017-02-25T14:18:35Z</time>
      </trkpt>
      <trkpt lat="45.25667" lon="5.02869">
        <ele>254.57</ele>
        <time>2017-02-25T14:18:36Z</time>
      </trkpt>
      <trkpt lat="45.25667" lon="5.02869">
        <ele>254.57</ele>
        <time>2017-02-25T14:18:37Z</time>
      </trkpt>
      <trkpt lat="45.25667" lon="5.02869">
        <ele>254.57</ele>
        <time>2017-02-25T14:18:38Z</time>
      </trkpt>
      <trkpt lat="45.25667" lon="5.02869">
        <ele>254.57</ele>
        <time>2017-02-25T14:18:39Z</time>
      </trkpt>
      <trkpt lat="45.25667" lon="5.02869">
        <ele>254.57</ele>
        <time>2017-02-25T14:18:40Z</time>
      </trkpt>
      <trkpt lat="45.25667" lon="5.02869">
        <ele>254.57</ele>
        <time>2017-02-25T14:18:41Z</time>
      </trkpt>
      <trkpt lat="45.25667" lon="5.02869">
        <ele>254.57</ele>
        <time>2017-02-25T14:18:42Z</time>
      </trkpt>
      <trkpt lat="45.25667" lon="5.02869">
        <ele>254.57</ele>
        <time>2017-02-25T14:18:43Z</time>
      </trkpt>
      <trkpt lat="45.25667" lon="5.02869">
        <ele>254.57</ele>
        <time>2017-02-25T14:18:44Z</time>
      </trkpt>
      <trkpt lat="45.25667" lon="5.02869">
        <ele>254.57</ele>
        <time>2017-02-25T14:18:45Z</time>
      </trkpt>
      <trkpt lat="45.25667" lon="5.02869">
        <ele>254.57</ele>
        <time>2017-02-25T14:18:46Z</time>
      </trkpt>
      <trkpt lat="45.25667" lon="5.02869">
        <ele>254.57</ele>
        <time>2017-02-25T14:18:47Z</time>
      </trkpt>
      <trkpt lat="45.25667" lon="5.02869">
        <ele>254.57</ele>
        <time>2017-02-25T14:18:48Z</time>
      </trkpt>
      <trkpt lat="45.25667" lon="5.02869">
        <ele>254.57</ele>
        <time>2017-02-25T14:18:49Z</time>
      </trkpt>
      <trkpt lat="45.25667" lon="5.02869">
        <ele>254.57</ele>
        <time>2017-02-25T14:18:50Z</time>
      </trkpt>
      <trkpt lat="45.25667" lon="5.02869">
        <ele>254.57</ele>
        <time>2017-02-25T14:18:51Z</time>
      </trkpt>
      <trkpt lat="45.25667" lon="5.02869">
        <ele>254.57</ele>
        <time>2017-02-25T14:18:52Z</time>
      </trkpt>
      <trkpt lat="45.25667" lon="5.02869">
        <ele>254.57</ele>
        <time>2017-02-25T14:18:53Z</time>
      </trkpt>
      <trkpt lat="45.25667" lon="5.02869">
        <ele>254.57</ele>
        <time>2017-02-25T14:18:54Z</time>
      </trkpt>
      <trkpt lat="45.25667" lon="5.02869">
        <ele>254.57</ele>
        <time>2017-02-25T14:18:55Z</time>
      </trkpt>
      <trkpt lat="45.25667" lon="5.02869">
        <ele>254.57</ele>
        <time>2017-02-25T14:18:56Z</time>
      </trkpt>
      <trkpt lat="45.25667" lon="5.02869">
        <ele>254.57</ele>
        <time>2017-02-25T14:18:57Z</time>
      </trkpt>
      <trkpt lat="45.25667" lon="5.02869">
        <ele>254.57</ele>
        <time>2017-02-25T14:18:58Z</time>
      </trkpt>
      <trkpt lat="45.25667" lon="5.02869">
        <ele>254.57</ele>
        <time>2017-02-25T14:18:59Z</time>
      </trkpt>
      <trkpt lat="45.25667" lon="5.02869">
        <ele>254.57</ele>
        <time>2017-02-25T14:19:00Z</time>
      </trkpt>
      <trkpt lat="45.25667" lon="5.02869">
        <ele>254.57</ele>
        <time>2017-02-25T14:19:01Z</time>
      </trkpt>
      <trkpt lat="45.25667" lon="5.02869">
        <ele>254.57</ele>
        <time>2017-02-25T14:19:02Z</time>
      </trkpt>
      <trkpt lat="45.25667" lon="5.02869">
        <ele>254.57</ele>
        <time>2017-02-25T14:19:03Z</time>
      </trkpt>
      <trkpt lat="45.25667" lon="5.02869">
        <ele>254.57</ele>
        <time>2017-02-25T14:19:04Z</time>
      </trkpt>
      <trkpt lat="45.25667" lon="5.02869">
        <ele>254.57</ele>
        <time>2017-02-25T14:19:05Z</time>
      </trkpt>
      <trkpt lat="45.25667" lon="5.02869">
        <ele>254.57</ele>
        <time>2017-02-25T14:19:06Z</time>
      </trkpt>
      <trkpt lat="45.25667" lon="5.02869">
        <ele>254.57</ele>
        <time>2017-02-25T14:19:07Z</time>
      </trkpt>
      <trkpt lat="45.25667" lon="5.02869">
        <ele>254.57</ele>
        <time>2017-02-25T14:19:08Z</time>
      </trkpt>
      <trkpt lat="45.25667" lon="5.02869">
        <ele>254.57</ele>
        <time>2017-02-25T14:19:09Z</time>
      </trkpt>
      <trkpt lat="45.25667" lon="5.02869">
        <ele>254.57</ele>
        <time>2017-02-25T14:19:10Z</time>
      </trkpt>
      <trkpt lat="45.25667" lon="5.02869">
        <ele>254.57</ele>
        <time>2017-02-25T14:19:11Z</time>
      </trkpt>
      <trkpt lat="45.25667" lon="5.02869">
        <ele>254.57</ele>
        <time>2017-02-25T14:19:12Z</time>
      </trkpt>
      <trkpt lat="45.25667" lon="5.02869">
        <ele>254.57</ele>
        <time>2017-02-25T14:19:13Z</time>
      </trkpt>
      <trkpt lat="45.25667" lon="5.02869">
        <ele>254.57</ele>
        <time>2017-02-25T14:19:14Z</time>
      </trkpt>
      <trkpt lat="45.25667" lon="5.02869">
        <ele>254.57</ele>
        <time>2017-02-25T14:19:15Z</time>
      </trkpt>
      <trkpt lat="45.25667" lon="5.02869">
        <ele>254.57</ele>
        <time>2017-02-25T14:19:16Z</time>
      </trkpt>
      <trkpt lat="45.25667" lon="5.02869">
        <ele>254.57</ele>
        <time>2017-02-25T14:19:17Z</time>
      </trkpt>
      <trkpt lat="45.25667" lon="5.02869">
        <ele>254.57</ele>
        <time>2017-02-25T14:19:18Z</time>
      </trkpt>
      <trkpt lat="45.25667" lon="5.02869">
        <ele>254.57</ele>
        <time>2017-02-25T14:19:19Z</time>
      </trkpt>
      <trkpt lat="45.25667" lon="5.02869">
        <ele>254.57</ele>
        <time>2017-02-25T14:19:20Z</time>
      </trkpt>
      <trkpt lat="45.25667" lon="5.02869">
        <ele>254.57</ele>
        <time>2017-02-25T14:19:21Z</time>
      </trkpt>
      <trkpt lat="45.25667" lon="5.02869">
        <ele>254.57</ele>
        <time>2017-02-25T14:19:22Z</time>
      </trkpt>
      <trkpt lat="45.25667" lon="5.02869">
        <ele>254.57</ele>
        <time>2017-02-25T14:19:23Z</time>
      </trkpt>
      <trkpt lat="45.25667" lon="5.02869">
        <ele>254.57</ele>
        <time>2017-02-25T14:19:24Z</time>
      </trkpt>
      <trkpt lat="45.25667" lon="5.02869">
        <ele>254.57</ele>
        <time>2017-02-25T14:19:25Z</time>
      </trkpt>
      <trkpt lat="45.25667" lon="5.02869">
        <ele>254.57</ele>
        <time>2017-02-25T14:19:26Z</time>
      </trkpt>
      <trkpt lat="45.25667" lon="5.02869">
        <ele>254.57</ele>
        <time>2017-02-25T14:19:27Z</time>
      </trkpt>
      <trkpt lat="45.25667" lon="5.02869">
        <ele>254.57</ele>
        <time>2017-02-25T14:19:28Z</time>
      </trkpt>
      <trkpt lat="45.25667" lon="5.02869">
        <ele>254.57</ele>
        <time>2017-02-25T14:19:29Z</time>
      </trkpt>
      <trkpt lat="45.25667" lon="5.02869">
        <ele>254.57</ele>
        <time>2017-02-25T14:19:30Z</time>
      </trkpt>
      <trkpt lat="45.25667" lon="5.02869">
        <ele>254.57</ele>
        <time>2017-02-25T14:19:31Z</time>
      </trkpt>
      <trkpt lat="45.25667" lon="5.02869">
        <ele>254.57</ele>
        <time>2017-02-25T14:19:32Z</time>
      </trkpt>
      <trkpt lat="45.25667" lon="5.02869">
        <ele>254.57</ele>
        <time>2017-02-25T14:19:33Z</time>
      </trkpt>
      <trkpt lat="45.25667" lon="5.02869">
        <ele>254.57</ele>
        <time>2017-02-25T14:19:34Z</time>
      </trkpt>
      <trkpt lat="45.25667" lon="5.02869">
        <ele>254.57</ele>
        <time>2017-02-25T14:19:35Z</time>
      </trkpt>
      <trkpt lat="45.25667" lon="5.02869">
        <ele>254.57</ele>
        <time>2017-02-25T14:19:36Z</time>
      </trkpt>
      <trkpt lat="45.25667" lon="5.02869">
        <ele>254.57</ele>
        <time>2017-02-25T14:19:37Z</time>
      </trkpt>
      <trkpt lat="45.25667" lon="5.02869">
        <ele>254.57</ele>
        <time>2017-02-25T14:19:38Z</time>
      </trkpt>
      <trkpt lat="45.25667" lon="5.02869">
        <ele>254.57</ele>
        <time>2017-02-25T14:19:39Z</time>
      </trkpt>
      <trkpt lat="45.25667" lon="5.02869">
        <ele>254.57</ele>
        <time>2017-02-25T14:19:40Z</time>
      </trkpt>
      <trkpt lat="45.25667" lon="5.02869">
        <ele>254.57</ele>
        <time>2017-02-25T14:19:41Z</time>
      </trkpt>
      <trkpt lat="45.25667" lon="5.02869">
        <ele>254.57</ele>
        <time>2017-02-25T14:19:42Z</time>
      </trkpt>
      <trkpt lat="45.25667" lon="5.02869">
        <ele>254.57</ele>
        <time>2017-02-25T14:19:43Z</time>
      </trkpt>
      <trkpt lat="45.25667" lon="5.02869">
        <ele>254.57</ele>
        <time>2017-02-25T14:19:44Z</time>
      </trkpt>
      <trkpt lat="45.25667" lon="5.02869">
        <ele>254.57</ele>
        <time>2017-02-25T14:19:45Z</time>
      </trkpt>
      <trkpt lat="45.25667" lon="5.02869">
        <ele>254.57</ele>
        <time>2017-02-25T14:19:46Z</time>
      </trkpt>
      <trkpt lat="45.25667" lon="5.02869">
        <ele>254.57</ele>
        <time>2017-02-25T14:19:47Z</time>
      </trkpt>
      <trkpt lat="45.25667" lon="5.02869">
        <ele>254.57</ele>
        <time>2017-02-25T14:19:48Z</time>
      </trkpt>
      <trkpt lat="45.25667" lon="5.02869">
        <ele>254.57</ele>
        <time>2017-02-25T14:19:49Z</time>
      </trkpt>
      <trkpt lat="45.25667" lon="5.02869">
        <ele>254.57</ele>
        <time>2017-02-25T14:19:50Z</time>
      </trkpt>
      <trkpt lat="45.25667" lon="5.02869">
        <ele>254.57</ele>
        <time>2017-02-25T14:19:51Z</time>
      </trkpt>
      <trkpt lat="45.25667" lon="5.02869">
        <ele>254.57</ele>
        <time>2017-02-25T14:19:52Z</time>
      </trkpt>
      <trkpt lat="45.25667" lon="5.02869">
        <ele>254.57</ele>
        <time>2017-02-25T14:19:53Z</time>
      </trkpt>
      <trkpt lat="45.25667" lon="5.02869">
        <ele>254.57</ele>
        <time>2017-02-25T14:19:54Z</time>
      </trkpt>
      <trkpt lat="45.25667" lon="5.02869">
        <ele>254.57</ele>
        <time>2017-02-25T14:19:55Z</time>
      </trkpt>
      <trkpt lat="45.25667" lon="5.02869">
        <ele>254.57</ele>
        <time>2017-02-25T14:19:56Z</time>
      </trkpt>
      <trkpt lat="45.25667" lon="5.02869">
        <ele>254.57</ele>
        <time>2017-02-25T14:19:57Z</time>
      </trkpt>
      <trkpt lat="45.25667" lon="5.02869">
        <ele>254.57</ele>
        <time>2017-02-25T14:19:58Z</time>
      </trkpt>
      <trkpt lat="45.25667" lon="5.02869">
        <ele>254.57</ele>
        <time>2017-02-25T14:19:59Z</time>
      </trkpt>
      <trkpt lat="45.25667" lon="5.02869">
        <ele>254.57</ele>
        <time>2017-02-25T14:20:00Z</time>
      </trkpt>
      <trkpt lat="45.25667" lon="5.02869">
        <ele>254.57</ele>
        <time>2017-02-25T14:20:01Z</time>
      </trkpt>
      <trkpt lat="45.25667" lon="5.02869">
        <ele>254.57</ele>
        <time>2017-02-25T14:20:02Z</time>
      </trkpt>
      <trkpt lat="45.25667" lon="5.02869">
        <ele>254.57</ele>
        <time>2017-02-25T14:20:03Z</time>
      </trkpt>
      <trkpt lat="45.25667" lon="5.02869">
        <ele>254.57</ele>
        <time>2017-02-25T14:20:04Z</time>
      </trkpt>
      <trkpt lat="45.25667" lon="5.02869">
        <ele>254.57</ele>
        <time>2017-02-25T14:20:05Z</time>
      </trkpt>
      <trkpt lat="45.25667" lon="5.02869">
        <ele>254.57</ele>
        <time>2017-02-25T14:20:06Z</time>
      </trkpt>
      <trkpt lat="45.25667" lon="5.02869">
        <ele>254.57</ele>
        <time>2017-02-25T14:20:07Z</time>
      </trkpt>
      <trkpt lat="45.25667" lon="5.02869">
        <ele>254.57</ele>
        <time>2017-02-25T14:20:08Z</time>
      </trkpt>
      <trkpt lat="45.25667" lon="5.02869">
        <ele>254.57</ele>
        <time>2017-02-25T14:20:09Z</time>
      </trkpt>
      <trkpt lat="45.25667" lon="5.02869">
        <ele>254.57</ele>
        <time>2017-02-25T14:20:10Z</time>
      </trkpt>
      <trkpt lat="45.25667" lon="5.02869">
        <ele>254.57</ele>
        <time>2017-02-25T14:20:11Z</time>
      </trkpt>
      <trkpt lat="45.25667" lon="5.02869">
        <ele>254.57</ele>
        <time>2017-02-25T14:20:12Z</time>
      </trkpt>
      <trkpt lat="45.25667" lon="5.02869">
        <ele>254.57</ele>
        <time>2017-02-25T14:20:13Z</time>
      </trkpt>
      <trkpt lat="45.25667" lon="5.02869">
        <ele>254.57</ele>
        <time>2017-02-25T14:20:14Z</time>
      </trkpt>
      <trkpt lat="45.25667" lon="5.02869">
        <ele>254.57</ele>
        <time>2017-02-25T14:20:15Z</time>
      </trkpt>
      <trkpt lat="45.25667" lon="5.02869">
        <ele>254.57</ele>
        <time>2017-02-25T14:20:16Z</time>
      </trkpt>
      <trkpt lat="45.25667" lon="5.02869">
        <ele>254.57</ele>
        <time>2017-02-25T14:20:17Z</time>
      </trkpt>
      <trkpt lat="45.25667" lon="5.02869">
        <ele>254.57</ele>
        <time>2017-02-25T14:20:18Z</time>
      </trkpt>
      <trkpt lat="45.25667" lon="5.02869">
        <ele>254.57</ele>
        <time>2017-02-25T14:20:19Z</time>
      </trkpt>
      <trkpt lat="45.25667" lon="5.02869">
        <ele>254.57</ele>
        <time>2017-02-25T14:20:20Z</time>
      </trkpt>
      <trkpt lat="45.25667" lon="5.02869">
        <ele>254.57</ele>
        <time>2017-02-25T14:20:21Z</time>
      </trkpt>
      <trkpt lat="45.25667" lon="5.02869">
        <ele>254.57</ele>
        <time>2017-02-25T14:20:22Z</time>
      </trkpt>
      <trkpt lat="45.25667" lon="5.02869">
        <ele>254.57</ele>
        <time>2017-02-25T14:20:23Z</time>
      </trkpt>
      <trkpt lat="45.25667" lon="5.02869">
        <ele>254.57</ele>
        <time>2017-02-25T14:20:24Z</time>
      </trkpt>
      <trkpt lat="45.25667" lon="5.02869">
        <ele>254.57</ele>
        <time>2017-02-25T14:20:25Z</time>
      </trkpt>
      <trkpt lat="45.25667" lon="5.02869">
        <ele>254.57</ele>
        <time>2017-02-25T14:20:26Z</time>
      </trkpt>
      <trkpt lat="45.25667" lon="5.02869">
        <ele>254.57</ele>
        <time>2017-02-25T14:20:27Z</time>
      </trkpt>
      <trkpt lat="45.25667" lon="5.02869">
        <ele>254.57</ele>
        <time>2017-02-25T14:20:28Z</time>
      </trkpt>
      <trkpt lat="45.25667" lon="5.02869">
        <ele>254.57</ele>
        <time>2017-02-25T14:20:29Z</time>
      </trkpt>
      <trkpt lat="45.25667" lon="5.02869">
        <ele>254.57</ele>
        <time>2017-02-25T14:20:30Z</time>
      </trkpt>
      <trkpt lat="45.25667" lon="5.02869">
        <ele>254.57</ele>
        <time>2017-02-25T14:20:31Z</time>
      </trkpt>
      <trkpt lat="45.25667" lon="5.02869">
        <ele>254.57</ele>
        <time>2017-02-25T14:20:32Z</time>
      </trkpt>
      <trkpt lat="45.25667" lon="5.02869">
        <ele>254.57</ele>
        <time>2017-02-25T14:20:33Z</time>
      </trkpt>
      <trkpt lat="45.25667" lon="5.02869">
        <ele>254.57</ele>
        <time>2017-02-25T14:20:34Z</time>
      </trkpt>
      <trkpt lat="45.25667" lon="5.02869">
        <ele>254.57</ele>
        <time>2017-02-25T14:20:35Z</time>
      </trkpt>
      <trkpt lat="45.25667" lon="5.02869">
        <ele>254.57</ele>
        <time>2017-02-25T14:20:36Z</time>
      </trkpt>
      <trkpt lat="45.25667" lon="5.02869">
        <ele>254.57</ele>
        <time>2017-02-25T14:20:37Z</time>
      </trkpt>
      <trkpt lat="45.25667" lon="5.02869">
        <ele>254.57</ele>
        <time>2017-02-25T14:20:38Z</time>
      </trkpt>
      <trkpt lat="45.25667" lon="5.02869">
        <ele>254.57</ele>
        <time>2017-02-25T14:20:39Z</time>
      </trkpt>
      <trkpt lat="45.25658" lon="5.02867">
        <ele>254.49</ele>
        <time>2017-02-25T14:20:40Z</time>
      </trkpt>
      <trkpt lat="45.25658" lon="5.02867">
        <ele>254.47</ele>
        <time>2017-02-25T14:20:41Z</time>
      </trkpt>
      <trkpt lat="45.25658" lon="5.02867">
        <ele>254.47</ele>
        <time>2017-02-25T14:20:42Z</time>
      </trkpt>
      <trkpt lat="45.25657" lon="5.02867">
        <ele>254.47</ele>
        <time>2017-02-25T14:20:43Z</time>
      </trkpt>
      <trkpt lat="45.25657" lon="5.02867">
        <ele>254.47</ele>
        <time>2017-02-25T14:20:44Z</time>
      </trkpt>
      <trkpt lat="45.25657" lon="5.02867">
        <ele>254.47</ele>
        <time>2017-02-25T14:20:45Z</time>
      </trkpt>
      <trkpt lat="45.25657" lon="5.02867">
        <ele>254.47</ele>
        <time>2017-02-25T14:20:46Z</time>
      </trkpt>
      <trkpt lat="45.25657" lon="5.02867">
        <ele>254.47</ele>
        <time>2017-02-25T14:20:47Z</time>
      </trkpt>
      <trkpt lat="45.25657" lon="5.02867">
        <ele>254.47</ele>
        <time>2017-02-25T14:20:48Z</time>
      </trkpt>
      <trkpt lat="45.25657" lon="5.02867">
        <ele>254.47</ele>
        <time>2017-02-25T14:20:49Z</time>
      </trkpt>
      <trkpt lat="45.25657" lon="5.02867">
        <ele>254.47</ele>
        <time>2017-02-25T14:20:50Z</time>
      </trkpt>
      <trkpt lat="45.25657" lon="5.02867">
        <ele>254.47</ele>
        <time>2017-02-25T14:20:51Z</time>
      </trkpt>
      <trkpt lat="45.25657" lon="5.02867">
        <ele>254.47</ele>
        <time>2017-02-25T14:20:52Z</time>
      </trkpt>
      <trkpt lat="45.25657" lon="5.02867">
        <ele>254.47</ele>
        <time>2017-02-25T14:20:53Z</time>
      </trkpt>
      <trkpt lat="45.25657" lon="5.02867">
        <ele>254.47</ele>
        <time>2017-02-25T14:20:54Z</time>
      </trkpt>
      <trkpt lat="45.25657" lon="5.02867">
        <ele>254.47</ele>
        <time>2017-02-25T14:20:55Z</time>
      </trkpt>
      <trkpt lat="45.25657" lon="5.02867">
        <ele>254.47</ele>
        <time>2017-02-25T14:20:56Z</time>
      </trkpt>
      <trkpt lat="45.25657" lon="5.02867">
        <ele>254.47</ele>
        <time>2017-02-25T14:20:57Z</time>
      </trkpt>
      <trkpt lat="45.25657" lon="5.02867">
        <ele>254.47</ele>
        <time>2017-02-25T14:20:58Z</time>
      </trkpt>
      <trkpt lat="45.25657" lon="5.02867">
        <ele>254.47</ele>
        <time>2017-02-25T14:20:59Z</time>
      </trkpt>
      <trkpt lat="45.25657" lon="5.02867">
        <ele>254.47</ele>
        <time>2017-02-25T14:21:00Z</time>
      </trkpt>
      <trkpt lat="45.25657" lon="5.02867">
        <ele>254.47</ele>
        <time>2017-02-25T14:21:01Z</time>
      </trkpt>
      <trkpt lat="45.25657" lon="5.02867">
        <ele>254.47</ele>
        <time>2017-02-25T14:21:02Z</time>
      </trkpt>
      <trkpt lat="45.25657" lon="5.02867">
        <ele>254.47</ele>
        <time>2017-02-25T14:21:03Z</time>
      </trkpt>
      <trkpt lat="45.25657" lon="5.02867">
        <ele>254.47</ele>
        <time>2017-02-25T14:21:04Z</time>
      </trkpt>
      <trkpt lat="45.25657" lon="5.02867">
        <ele>254.47</ele>
        <time>2017-02-25T14:21:05Z</time>
      </trkpt>
      <trkpt lat="45.25657" lon="5.02867">
        <ele>254.47</ele>
        <time>2017-02-25T14:21:06Z</time>
      </trkpt>
      <trkpt lat="45.25657" lon="5.02867">
        <ele>254.47</ele>
        <time>2017-02-25T14:21:07Z</time>
      </trkpt>
      <trkpt lat="45.25657" lon="5.02867">
        <ele>254.47</ele>
        <time>2017-02-25T14:21:08Z</time>
      </trkpt>
      <trkpt lat="45.25657" lon="5.02867">
        <ele>254.47</ele>
        <time>2017-02-25T14:21:09Z</time>
      </trkpt>
      <trkpt lat="45.25657" lon="5.02867">
        <ele>254.47</ele>
        <time>2017-02-25T14:21:10Z</time>
      </trkpt>
      <trkpt lat="45.25657" lon="5.02867">
        <ele>254.47</ele>
        <time>2017-02-25T14:21:11Z</time>
      </trkpt>
      <trkpt lat="45.25657" lon="5.02867">
        <ele>254.47</ele>
        <time>2017-02-25T14:21:12Z</time>
      </trkpt>
      <trkpt lat="45.25657" lon="5.02867">
        <ele>254.47</ele>
        <time>2017-02-25T14:21:13Z</time>
      </trkpt>
      <trkpt lat="45.25657" lon="5.02867">
        <ele>254.47</ele>
        <time>2017-02-25T14:21:14Z</time>
      </trkpt>
      <trkpt lat="45.25657" lon="5.02867">
        <ele>254.47</ele>
        <time>2017-02-25T14:21:15Z</time>
      </trkpt>
      <trkpt lat="45.25657" lon="5.02867">
        <ele>254.47</ele>
        <time>2017-02-25T14:21:16Z</time>
      </trkpt>
      <trkpt lat="45.25657" lon="5.02867">
        <ele>254.47</ele>
        <time>2017-02-25T14:21:17Z</time>
      </trkpt>
      <trkpt lat="45.25657" lon="5.02867">
        <ele>254.47</ele>
        <time>2017-02-25T14:21:18Z</time>
      </trkpt>
      <trkpt lat="45.25657" lon="5.02867">
        <ele>254.47</ele>
        <time>2017-02-25T14:21:19Z</time>
      </trkpt>
      <trkpt lat="45.25657" lon="5.02867">
        <ele>254.47</ele>
        <time>2017-02-25T14:21:20Z</time>
      </trkpt>
      <trkpt lat="45.25657" lon="5.02867">
        <ele>254.47</ele>
        <time>2017-02-25T14:21:21Z</time>
      </trkpt>
      <trkpt lat="45.25657" lon="5.02867">
        <ele>254.47</ele>
        <time>2017-02-25T14:21:22Z</time>
      </trkpt>
      <trkpt lat="45.25657" lon="5.02867">
        <ele>254.47</ele>
        <time>2017-02-25T14:21:23Z</time>
      </trkpt>
      <trkpt lat="45.25657" lon="5.02867">
        <ele>254.47</ele>
        <time>2017-02-25T14:21:24Z</time>
      </trkpt>
      <trkpt lat="45.25657" lon="5.02867">
        <ele>254.47</ele>
        <time>2017-02-25T14:21:25Z</time>
      </trkpt>
      <trkpt lat="45.25657" lon="5.02867">
        <ele>254.47</ele>
        <time>2017-02-25T14:21:26Z</time>
      </trkpt>
      <trkpt lat="45.25657" lon="5.02867">
        <ele>254.47</ele>
        <time>2017-02-25T14:21:27Z</time>
      </trkpt>
      <trkpt lat="45.25657" lon="5.02867">
        <ele>254.47</ele>
        <time>2017-02-25T14:21:28Z</time>
      </trkpt>
      <trkpt lat="45.25657" lon="5.02867">
        <ele>254.47</ele>
        <time>2017-02-25T14:21:29Z</time>
      </trkpt>
      <trkpt lat="45.25657" lon="5.02867">
        <ele>254.47</ele>
        <time>2017-02-25T14:21:30Z</time>
      </trkpt>
      <trkpt lat="45.25657" lon="5.02867">
        <ele>254.47</ele>
        <time>2017-02-25T14:21:31Z</time>
      </trkpt>
      <trkpt lat="45.25657" lon="5.02867">
        <ele>254.47</ele>
        <time>2017-02-25T14:21:32Z</time>
      </trkpt>
      <trkpt lat="45.25657" lon="5.02867">
        <ele>254.47</ele>
        <time>2017-02-25T14:21:33Z</time>
      </trkpt>
      <trkpt lat="45.25657" lon="5.02867">
        <ele>254.47</ele>
        <time>2017-02-25T14:21:34Z</time>
      </trkpt>
      <trkpt lat="45.25657" lon="5.02867">
        <ele>254.47</ele>
        <time>2017-02-25T14:21:35Z</time>
      </trkpt>
      <trkpt lat="45.25657" lon="5.02867">
        <ele>254.47</ele>
        <time>2017-02-25T14:21:36Z</time>
      </trkpt>
      <trkpt lat="45.25657" lon="5.02867">
        <ele>254.47</ele>
        <time>2017-02-25T14:21:37Z</time>
      </trkpt>
      <trkpt lat="45.25657" lon="5.02867">
        <ele>254.47</ele>
        <time>2017-02-25T14:21:38Z</time>
      </trkpt>
      <trkpt lat="45.25657" lon="5.02867">
        <ele>254.47</ele>
        <time>2017-02-25T14:21:39Z</time>
      </trkpt>
      <trkpt lat="45.25657" lon="5.02867">
        <ele>254.47</ele>
        <time>2017-02-25T14:21:40Z</time>
      </trkpt>
      <trkpt lat="45.25657" lon="5.02867">
        <ele>254.47</ele>
        <time>2017-02-25T14:21:41Z</time>
      </trkpt>
      <trkpt lat="45.25657" lon="5.02867">
        <ele>254.47</ele>
        <time>2017-02-25T14:21:42Z</time>
      </trkpt>
      <trkpt lat="45.25657" lon="5.02867">
        <ele>254.47</ele>
        <time>2017-02-25T14:21:43Z</time>
      </trkpt>
      <trkpt lat="45.25657" lon="5.02867">
        <ele>254.47</ele>
        <time>2017-02-25T14:21:44Z</time>
      </trkpt>
      <trkpt lat="45.25657" lon="5.02867">
        <ele>254.47</ele>
        <time>2017-02-25T14:21:45Z</time>
      </trkpt>
      <trkpt lat="45.25657" lon="5.02867">
        <ele>254.47</ele>
        <time>2017-02-25T14:21:46Z</time>
      </trkpt>
      <trkpt lat="45.25657" lon="5.02867">
        <ele>254.47</ele>
        <time>2017-02-25T14:21:47Z</time>
      </trkpt>
      <trkpt lat="45.25657" lon="5.02867">
        <ele>254.47</ele>
        <time>2017-02-25T14:21:48Z</time>
      </trkpt>
      <trkpt lat="45.25657" lon="5.02867">
        <ele>254.47</ele>
        <time>2017-02-25T14:21:49Z</time>
      </trkpt>
      <trkpt lat="45.25657" lon="5.02867">
        <ele>254.47</ele>
        <time>2017-02-25T14:21:50Z</time>
      </trkpt>
      <trkpt lat="45.25657" lon="5.02867">
        <ele>254.47</ele>
        <time>2017-02-25T14:21:51Z</time>
      </trkpt>
      <trkpt lat="45.25657" lon="5.02867">
        <ele>254.47</ele>
        <time>2017-02-25T14:21:52Z</time>
      </trkpt>
      <trkpt lat="45.25657" lon="5.02867">
        <ele>254.47</ele>
        <time>2017-02-25T14:21:53Z</time>
      </trkpt>
      <trkpt lat="45.25657" lon="5.02867">
        <ele>254.47</ele>
        <time>2017-02-25T14:21:54Z</time>
      </trkpt>
      <trkpt lat="45.25657" lon="5.02867">
        <ele>254.47</ele>
        <time>2017-02-25T14:21:55Z</time>
      </trkpt>
      <trkpt lat="45.25657" lon="5.02867">
        <ele>254.47</ele>
        <time>2017-02-25T14:21:56Z</time>
      </trkpt>
      <trkpt lat="45.25657" lon="5.02867">
        <ele>254.47</ele>
        <time>2017-02-25T14:21:57Z</time>
      </trkpt>
      <trkpt lat="45.25657" lon="5.02867">
        <ele>254.47</ele>
        <time>2017-02-25T14:21:58Z</time>
      </trkpt>
      <trkpt lat="45.25657" lon="5.02867">
        <ele>254.47</ele>
        <time>2017-02-25T14:21:59Z</time>
      </trkpt>
      <trkpt lat="45.25657" lon="5.02867">
        <ele>254.47</ele>
        <time>2017-02-25T14:22:00Z</time>
      </trkpt>
      <trkpt lat="45.25657" lon="5.02867">
        <ele>254.47</ele>
        <time>2017-02-25T14:22:01Z</time>
      </trkpt>
      <trkpt lat="45.25657" lon="5.02867">
        <ele>254.47</ele>
        <time>2017-02-25T14:22:02Z</time>
      </trkpt>
      <trkpt lat="45.25657" lon="5.02867">
        <ele>254.47</ele>
        <time>2017-02-25T14:22:03Z</time>
      </trkpt>
      <trkpt lat="45.25657" lon="5.02867">
        <ele>254.47</ele>
        <time>2017-02-25T14:22:04Z</time>
      </trkpt>
      <trkpt lat="45.25657" lon="5.02867">
        <ele>254.47</ele>
        <time>2017-02-25T14:22:05Z</time>
      </trkpt>
      <trkpt lat="45.25657" lon="5.02867">
        <ele>254.47</ele>
        <time>2017-02-25T14:22:06Z</time>
      </trkpt>
      <trkpt lat="45.25657" lon="5.02867">
        <ele>254.47</ele>
        <time>2017-02-25T14:22:07Z</time>
      </trkpt>
      <trkpt lat="45.25657" lon="5.02867">
        <ele>254.47</ele>
        <time>2017-02-25T14:22:08Z</time>
      </trkpt>
      <trkpt lat="45.25657" lon="5.02867">
        <ele>254.47</ele>
        <time>2017-02-25T14:22:09Z</time>
      </trkpt>
      <trkpt lat="45.25657" lon="5.02867">
        <ele>254.47</ele>
        <time>2017-02-25T14:22:10Z</time>
      </trkpt>
      <trkpt lat="45.25657" lon="5.02867">
        <ele>254.47</ele>
        <time>2017-02-25T14:22:11Z</time>
      </trkpt>
      <trkpt lat="45.25657" lon="5.02867">
        <ele>254.47</ele>
        <time>2017-02-25T14:22:12Z</time>
      </trkpt>
      <trkpt lat="45.25657" lon="5.02867">
        <ele>254.47</ele>
        <time>2017-02-25T14:22:13Z</time>
      </trkpt>
      <trkpt lat="45.25657" lon="5.02867">
        <ele>254.47</ele>
        <time>2017-02-25T14:22:14Z</time>
      </trkpt>
      <trkpt lat="45.25657" lon="5.02867">
        <ele>254.47</ele>
        <time>2017-02-25T14:22:15Z</time>
      </trkpt>
      <trkpt lat="45.25657" lon="5.02867">
        <ele>254.47</ele>
        <time>2017-02-25T14:22:16Z</time>
      </trkpt>
      <trkpt lat="45.25657" lon="5.02867">
        <ele>254.47</ele>
        <time>2017-02-25T14:22:17Z</time>
      </trkpt>
      <trkpt lat="45.25657" lon="5.02867">
        <ele>254.47</ele>
        <time>2017-02-25T14:22:18Z</time>
      </trkpt>
      <trkpt lat="45.25657" lon="5.02867">
        <ele>254.47</ele>
        <time>2017-02-25T14:22:19Z</time>
      </trkpt>
      <trkpt lat="45.25657" lon="5.02867">
        <ele>254.47</ele>
        <time>2017-02-25T14:22:20Z</time>
      </trkpt>
      <trkpt lat="45.25657" lon="5.02867">
        <ele>254.47</ele>
        <time>2017-02-25T14:22:21Z</time>
      </trkpt>
      <trkpt lat="45.25657" lon="5.02867">
        <ele>254.47</ele>
        <time>2017-02-25T14:22:22Z</time>
      </trkpt>
      <trkpt lat="45.25657" lon="5.02867">
        <ele>254.47</ele>
        <time>2017-02-25T14:22:23Z</time>
      </trkpt>
      <trkpt lat="45.25657" lon="5.02867">
        <ele>254.47</ele>
        <time>2017-02-25T14:22:24Z</time>
      </trkpt>
      <trkpt lat="45.25657" lon="5.02867">
        <ele>254.47</ele>
        <time>2017-02-25T14:22:25Z</time>
      </trkpt>
      <trkpt lat="45.25657" lon="5.02867">
        <ele>254.47</ele>
        <time>2017-02-25T14:22:26Z</time>
      </trkpt>
      <trkpt lat="45.25657" lon="5.02867">
        <ele>254.47</ele>
        <time>2017-02-25T14:22:27Z</time>
      </trkpt>
      <trkpt lat="45.25657" lon="5.02867">
        <ele>254.47</ele>
        <time>2017-02-25T14:22:28Z</time>
      </trkpt>
      <trkpt lat="45.25657" lon="5.02867">
        <ele>254.47</ele>
        <time>2017-02-25T14:22:29Z</time>
      </trkpt>
      <trkpt lat="45.25657" lon="5.02867">
        <ele>254.47</ele>
        <time>2017-02-25T14:22:30Z</time>
      </trkpt>
      <trkpt lat="45.25657" lon="5.02867">
        <ele>254.47</ele>
        <time>2017-02-25T14:22:31Z</time>
      </trkpt>
      <trkpt lat="45.25657" lon="5.02867">
        <ele>254.47</ele>
        <time>2017-02-25T14:22:32Z</time>
      </trkpt>
      <trkpt lat="45.25657" lon="5.02867">
        <ele>254.47</ele>
        <time>2017-02-25T14:22:33Z</time>
      </trkpt>
      <trkpt lat="45.25657" lon="5.02867">
        <ele>254.47</ele>
        <time>2017-02-25T14:22:34Z</time>
      </trkpt>
      <trkpt lat="45.25657" lon="5.02867">
        <ele>254.47</ele>
        <time>2017-02-25T14:22:35Z</time>
      </trkpt>
      <trkpt lat="45.25657" lon="5.02867">
        <ele>254.47</ele>
        <time>2017-02-25T14:22:36Z</time>
      </trkpt>
      <trkpt lat="45.25657" lon="5.02867">
        <ele>254.47</ele>
        <time>2017-02-25T14:22:37Z</time>
      </trkpt>
      <trkpt lat="45.25657" lon="5.02867">
        <ele>254.47</ele>
        <time>2017-02-25T14:22:38Z</time>
      </trkpt>
      <trkpt lat="45.25657" lon="5.02867">
        <ele>254.47</ele>
        <time>2017-02-25T14:22:39Z</time>
      </trkpt>
      <trkpt lat="45.25657" lon="5.02867">
        <ele>254.47</ele>
        <time>2017-02-25T14:22:40Z</time>
      </trkpt>
      <trkpt lat="45.25657" lon="5.02867">
        <ele>254.47</ele>
        <time>2017-02-25T14:22:41Z</time>
      </trkpt>
      <trkpt lat="45.25657" lon="5.02867">
        <ele>254.47</ele>
        <time>2017-02-25T14:22:42Z</time>
      </trkpt>
      <trkpt lat="45.25657" lon="5.02867">
        <ele>254.47</ele>
        <time>2017-02-25T14:22:43Z</time>
      </trkpt>
      <trkpt lat="45.25657" lon="5.02867">
        <ele>254.47</ele>
        <time>2017-02-25T14:22:44Z</time>
      </trkpt>
      <trkpt lat="45.25657" lon="5.02867">
        <ele>254.47</ele>
        <time>2017-02-25T14:22:45Z</time>
      </trkpt>
      <trkpt lat="45.25657" lon="5.02867">
        <ele>254.47</ele>
        <time>2017-02-25T14:22:46Z</time>
      </trkpt>
      <trkpt lat="45.25657" lon="5.02867">
        <ele>254.47</ele>
        <time>2017-02-25T14:22:47Z</time>
      </trkpt>
      <trkpt lat="45.25657" lon="5.02867">
        <ele>254.47</ele>
        <time>2017-02-25T14:22:48Z</time>
      </trkpt>
      <trkpt lat="45.25657" lon="5.02867">
        <ele>254.47</ele>
        <time>2017-02-25T14:22:49Z</time>
      </trkpt>
      <trkpt lat="45.25657" lon="5.02867">
        <ele>254.47</ele>
        <time>2017-02-25T14:22:50Z</time>
      </trkpt>
      <trkpt lat="45.25657" lon="5.02867">
        <ele>254.47</ele>
        <time>2017-02-25T14:22:51Z</time>
      </trkpt>
      <trkpt lat="45.25657" lon="5.02867">
        <ele>254.47</ele>
        <time>2017-02-25T14:22:52Z</time>
      </trkpt>
      <trkpt lat="45.25657" lon="5.02867">
        <ele>254.47</ele>
        <time>2017-02-25T14:22:53Z</time>
      </trkpt>
      <trkpt lat="45.25657" lon="5.02867">
        <ele>254.47</ele>
        <time>2017-02-25T14:22:54Z</time>
      </trkpt>
      <trkpt lat="45.25657" lon="5.02867">
        <ele>254.47</ele>
        <time>2017-02-25T14:22:55Z</time>
      </trkpt>
      <trkpt lat="45.25657" lon="5.02867">
        <ele>254.47</ele>
        <time>2017-02-25T14:22:56Z</time>
      </trkpt>
      <trkpt lat="45.25657" lon="5.02867">
        <ele>254.47</ele>
        <time>2017-02-25T14:22:57Z</time>
      </trkpt>
      <trkpt lat="45.25657" lon="5.02867">
        <ele>254.47</ele>
        <time>2017-02-25T14:22:58Z</time>
      </trkpt>
      <trkpt lat="45.25657" lon="5.02867">
        <ele>254.47</ele>
        <time>2017-02-25T14:22:59Z</time>
      </trkpt>
      <trkpt lat="45.25657" lon="5.02867">
        <ele>254.47</ele>
        <time>2017-02-25T14:23:00Z</time>
      </trkpt>
      <trkpt lat="45.25657" lon="5.02867">
        <ele>254.47</ele>
        <time>2017-02-25T14:23:01Z</time>
      </trkpt>
      <trkpt lat="45.25657" lon="5.02867">
        <ele>254.47</ele>
        <time>2017-02-25T14:23:02Z</time>
      </trkpt>
      <trkpt lat="45.25657" lon="5.02867">
        <ele>254.47</ele>
        <time>2017-02-25T14:23:03Z</time>
      </trkpt>
      <trkpt lat="45.25657" lon="5.02867">
        <ele>254.47</ele>
        <time>2017-02-25T14:23:04Z</time>
      </trkpt>
      <trkpt lat="45.25657" lon="5.02867">
        <ele>254.47</ele>
        <time>2017-02-25T14:23:05Z</time>
      </trkpt>
      <trkpt lat="45.25657" lon="5.02867">
        <ele>254.47</ele>
        <time>2017-02-25T14:23:06Z</time>
      </trkpt>
      <trkpt lat="45.25657" lon="5.02867">
        <ele>254.47</ele>
        <time>2017-02-25T14:23:07Z</time>
      </trkpt>
      <trkpt lat="45.25657" lon="5.02867">
        <ele>254.47</ele>
        <time>2017-02-25T14:23:08Z</time>
      </trkpt>
      <trkpt lat="45.25657" lon="5.02867">
        <ele>254.47</ele>
        <time>2017-02-25T14:23:09Z</time>
      </trkpt>
      <trkpt lat="45.25657" lon="5.02867">
        <ele>254.47</ele>
        <time>2017-02-25T14:23:10Z</time>
      </trkpt>
      <trkpt lat="45.25657" lon="5.02867">
        <ele>254.47</ele>
        <time>2017-02-25T14:23:11Z</time>
      </trkpt>
      <trkpt lat="45.25657" lon="5.02867">
        <ele>254.47</ele>
        <time>2017-02-25T14:23:12Z</time>
      </trkpt>
      <trkpt lat="45.25657" lon="5.02867">
        <ele>254.47</ele>
        <time>2017-02-25T14:23:13Z</time>
      </trkpt>
      <trkpt lat="45.25657" lon="5.02867">
        <ele>254.47</ele>
        <time>2017-02-25T14:23:14Z</time>
      </trkpt>
      <trkpt lat="45.25657" lon="5.02867">
        <ele>254.47</ele>
        <time>2017-02-25T14:23:15Z</time>
      </trkpt>
      <trkpt lat="45.25657" lon="5.02867">
        <ele>254.47</ele>
        <time>2017-02-25T14:23:16Z</time>
      </trkpt>
      <trkpt lat="45.25657" lon="5.02867">
        <ele>254.47</ele>
        <time>2017-02-25T14:23:17Z</time>
      </trkpt>
      <trkpt lat="45.25657" lon="5.02867">
        <ele>254.47</ele>
        <time>2017-02-25T14:23:18Z</time>
      </trkpt>
      <trkpt lat="45.25657" lon="5.02867">
        <ele>254.47</ele>
        <time>2017-02-25T14:23:19Z</time>
      </trkpt>
      <trkpt lat="45.25657" lon="5.02867">
        <ele>254.47</ele>
        <time>2017-02-25T14:23:20Z</time>
      </trkpt>
      <trkpt lat="45.25657" lon="5.02867">
        <ele>254.47</ele>
        <time>2017-02-25T14:23:21Z</time>
      </trkpt>
      <trkpt lat="45.25657" lon="5.02867">
        <ele>254.47</ele>
        <time>2017-02-25T14:23:22Z</time>
      </trkpt>
      <trkpt lat="45.25657" lon="5.02867">
        <ele>254.47</ele>
        <time>2017-02-25T14:23:23Z</time>
      </trkpt>
      <trkpt lat="45.25657" lon="5.02867">
        <ele>254.47</ele>
        <time>2017-02-25T14:23:24Z</time>
      </trkpt>
      <trkpt lat="45.25657" lon="5.02867">
        <ele>254.47</ele>
        <time>2017-02-25T14:23:25Z</time>
      </trkpt>
      <trkpt lat="45.25657" lon="5.02867">
        <ele>254.47</ele>
        <time>2017-02-25T14:23:26Z</time>
      </trkpt>
      <trkpt lat="45.25657" lon="5.02867">
        <ele>254.47</ele>
        <time>2017-02-25T14:23:27Z</time>
      </trkpt>
      <trkpt lat="45.25657" lon="5.02867">
        <ele>254.47</ele>
        <time>2017-02-25T14:23:28Z</time>
      </trkpt>
      <trkpt lat="45.25657" lon="5.02867">
        <ele>254.47</ele>
        <time>2017-02-25T14:23:29Z</time>
      </trkpt>
      <trkpt lat="45.25657" lon="5.02867">
        <ele>254.47</ele>
        <time>2017-02-25T14:23:30Z</time>
      </trkpt>
      <trkpt lat="45.25657" lon="5.02867">
        <ele>254.47</ele>
        <time>2017-02-25T14:23:31Z</time>
      </trkpt>
      <trkpt lat="45.25657" lon="5.02867">
        <ele>254.47</ele>
        <time>2017-02-25T14:23:32Z</time>
      </trkpt>
      <trkpt lat="45.25657" lon="5.02867">
        <ele>254.47</ele>
        <time>2017-02-25T14:23:33Z</time>
      </trkpt>
      <trkpt lat="45.25657" lon="5.02867">
        <ele>254.47</ele>
        <time>2017-02-25T14:23:34Z</time>
      </trkpt>
      <trkpt lat="45.25657" lon="5.02867">
        <ele>254.47</ele>
        <time>2017-02-25T14:23:35Z</time>
      </trkpt>
      <trkpt lat="45.25657" lon="5.02867">
        <ele>254.47</ele>
        <time>2017-02-25T14:23:36Z</time>
      </trkpt>
      <trkpt lat="45.25657" lon="5.02867">
        <ele>254.47</ele>
        <time>2017-02-25T14:23:37Z</time>
      </trkpt>
      <trkpt lat="45.25657" lon="5.02867">
        <ele>254.47</ele>
        <time>2017-02-25T14:23:38Z</time>
      </trkpt>
      <trkpt lat="45.25657" lon="5.02867">
        <ele>254.47</ele>
        <time>2017-02-25T14:23:39Z</time>
      </trkpt>
      <trkpt lat="45.25657" lon="5.02867">
        <ele>254.47</ele>
        <time>2017-02-25T14:23:40Z</time>
      </trkpt>
      <trkpt lat="45.25657" lon="5.02867">
        <ele>254.47</ele>
        <time>2017-02-25T14:23:41Z</time>
      </trkpt>
      <trkpt lat="45.25657" lon="5.02867">
        <ele>254.47</ele>
        <time>2017-02-25T14:23:42Z</time>
      </trkpt>
      <trkpt lat="45.25657" lon="5.02867">
        <ele>254.47</ele>
        <time>2017-02-25T14:23:43Z</time>
      </trkpt>
      <trkpt lat="45.25657" lon="5.02867">
        <ele>254.47</ele>
        <time>2017-02-25T14:23:44Z</time>
      </trkpt>
      <trkpt lat="45.25657" lon="5.02867">
        <ele>254.47</ele>
        <time>2017-02-25T14:23:45Z</time>
      </trkpt>
      <trkpt lat="45.25657" lon="5.02867">
        <ele>254.47</ele>
        <time>2017-02-25T14:23:46Z</time>
      </trkpt>
      <trkpt lat="45.25657" lon="5.02867">
        <ele>254.47</ele>
        <time>2017-02-25T14:23:47Z</time>
      </trkpt>
      <trkpt lat="45.25657" lon="5.02867">
        <ele>254.47</ele>
        <time>2017-02-25T14:23:48Z</time>
      </trkpt>
      <trkpt lat="45.25657" lon="5.02867">
        <ele>254.47</ele>
        <time>2017-02-25T14:23:49Z</time>
      </trkpt>
      <trkpt lat="45.25657" lon="5.02867">
        <ele>254.47</ele>
        <time>2017-02-25T14:23:50Z</time>
      </trkpt>
      <trkpt lat="45.25657" lon="5.02867">
        <ele>254.47</ele>
        <time>2017-02-25T14:23:51Z</time>
      </trkpt>
      <trkpt lat="45.25657" lon="5.02867">
        <ele>254.47</ele>
        <time>2017-02-25T14:23:52Z</time>
      </trkpt>
      <trkpt lat="45.25657" lon="5.02867">
        <ele>254.47</ele>
        <time>2017-02-25T14:23:53Z</time>
      </trkpt>
      <trkpt lat="45.25657" lon="5.02867">
        <ele>254.47</ele>
        <time>2017-02-25T14:23:54Z</time>
      </trkpt>
      <trkpt lat="45.25657" lon="5.02867">
        <ele>254.47</ele>
        <time>2017-02-25T14:23:55Z</time>
      </trkpt>
      <trkpt lat="45.25657" lon="5.02867">
        <ele>254.47</ele>
        <time>2017-02-25T14:23:56Z</time>
      </trkpt>
      <trkpt lat="45.25652" lon="5.02857">
        <ele>254.39</ele>
        <time>2017-02-25T14:23:57Z</time>
      </trkpt>
      <trkpt lat="45.25652" lon="5.02856">
        <ele>254.37</ele>
        <time>2017-02-25T14:23:58Z</time>
      </trkpt>
      <trkpt lat="45.25651" lon="5.02855">
        <ele>254.37</ele>
        <time>2017-02-25T14:23:59Z</time>
      </trkpt>
      <trkpt lat="45.25651" lon="5.02854">
        <ele>254.37</ele>
        <time>2017-02-25T14:24:00Z</time>
      </trkpt>
      <trkpt lat="45.25651" lon="5.02854">
        <ele>254.37</ele>
        <time>2017-02-25T14:24:01Z</time>
      </trkpt>
      <trkpt lat="45.25651" lon="5.02854">
        <ele>254.37</ele>
        <time>2017-02-25T14:24:02Z</time>
      </trkpt>
      <trkpt lat="45.25651" lon="5.02854">
        <ele>254.37</ele>
        <time>2017-02-25T14:24:03Z</time>
      </trkpt>
      <trkpt lat="45.25651" lon="5.02854">
        <ele>254.37</ele>
        <time>2017-02-25T14:24:04Z</time>
      </trkpt>
      <trkpt lat="45.25651" lon="5.02854">
        <ele>254.37</ele>
        <time>2017-02-25T14:24:05Z</time>
      </trkpt>
      <trkpt lat="45.25651" lon="5.02854">
        <ele>254.37</ele>
        <time>2017-02-25T14:24:06Z</time>
      </trkpt>
      <trkpt lat="45.25651" lon="5.02854">
        <ele>254.37</ele>
        <time>2017-02-25T14:24:07Z</time>
      </trkpt>
      <trkpt lat="45.25651" lon="5.02854">
        <ele>254.37</ele>
        <time>2017-02-25T14:24:08Z</time>
      </trkpt>
      <trkpt lat="45.25651" lon="5.02854">
        <ele>254.37</ele>
        <time>2017-02-25T14:24:09Z</time>
      </trkpt>
      <trkpt lat="45.25651" lon="5.02854">
        <ele>254.37</ele>
        <time>2017-02-25T14:24:10Z</time>
      </trkpt>
      <trkpt lat="45.25651" lon="5.02854">
        <ele>254.37</ele>
        <time>2017-02-25T14:24:11Z</time>
      </trkpt>
      <trkpt lat="45.25651" lon="5.02854">
        <ele>254.37</ele>
        <time>2017-02-25T14:24:12Z</time>
      </trkpt>
      <trkpt lat="45.25651" lon="5.02854">
        <ele>254.37</ele>
        <time>2017-02-25T14:24:13Z</time>
      </trkpt>
      <trkpt lat="45.25651" lon="5.02854">
        <ele>254.37</ele>
        <time>2017-02-25T14:24:14Z</time>
      </trkpt>
      <trkpt lat="45.25651" lon="5.02854">
        <ele>254.37</ele>
        <time>2017-02-25T14:24:15Z</time>
      </trkpt>
      <trkpt lat="45.25651" lon="5.02854">
        <ele>254.37</ele>
        <time>2017-02-25T14:24:16Z</time>
      </trkpt>
      <trkpt lat="45.25651" lon="5.02854">
        <ele>254.37</ele>
        <time>2017-02-25T14:24:17Z</time>
      </trkpt>
      <trkpt lat="45.25651" lon="5.02854">
        <ele>254.37</ele>
        <time>2017-02-25T14:24:18Z</time>
      </trkpt>
      <trkpt lat="45.25651" lon="5.02854">
        <ele>254.37</ele>
        <time>2017-02-25T14:24:19Z</time>
      </trkpt>
      <trkpt lat="45.25651" lon="5.02854">
        <ele>254.37</ele>
        <time>2017-02-25T14:24:20Z</time>
      </trkpt>
      <trkpt lat="45.25651" lon="5.02854">
        <ele>254.37</ele>
        <time>2017-02-25T14:24:21Z</time>
      </trkpt>
      <trkpt lat="45.25651" lon="5.02854">
        <ele>254.37</ele>
        <time>2017-02-25T14:24:22Z</time>
      </trkpt>
      <trkpt lat="45.25651" lon="5.02854">
        <ele>254.37</ele>
        <time>2017-02-25T14:24:23Z</time>
      </trkpt>
      <trkpt lat="45.25651" lon="5.02854">
        <ele>254.37</ele>
        <time>2017-02-25T14:24:24Z</time>
      </trkpt>
      <trkpt lat="45.25651" lon="5.02854">
        <ele>254.37</ele>
        <time>2017-02-25T14:24:25Z</time>
      </trkpt>
      <trkpt lat="45.25651" lon="5.02854">
        <ele>254.37</ele>
        <time>2017-02-25T14:24:26Z</time>
      </trkpt>
      <trkpt lat="45.25651" lon="5.02854">
        <ele>254.37</ele>
        <time>2017-02-25T14:24:27Z</time>
      </trkpt>
      <trkpt lat="45.25651" lon="5.02854">
        <ele>254.37</ele>
        <time>2017-02-25T14:24:28Z</time>
      </trkpt>
      <trkpt lat="45.25651" lon="5.02854">
        <ele>254.37</ele>
        <time>2017-02-25T14:24:29Z</time>
      </trkpt>
      <trkpt lat="45.25651" lon="5.02854">
        <ele>254.37</ele>
        <time>2017-02-25T14:24:30Z</time>
      </trkpt>
      <trkpt lat="45.25651" lon="5.02854">
        <ele>254.37</ele>
        <time>2017-02-25T14:24:31Z</time>
      </trkpt>
      <trkpt lat="45.25646" lon="5.02842">
        <ele>254.29</ele>
        <time>2017-02-25T14:24:32Z</time>
      </trkpt>
      <trkpt lat="45.25646" lon="5.02842">
        <ele>254.35</ele>
        <time>2017-02-25T14:24:33Z</time>
      </trkpt>
      <trkpt lat="45.25645" lon="5.02841">
        <ele>254.36</ele>
        <time>2017-02-25T14:24:34Z</time>
      </trkpt>
      <trkpt lat="45.25645" lon="5.02841">
        <ele>254.37</ele>
        <time>2017-02-25T14:24:35Z</time>
      </trkpt>
      <trkpt lat="45.25645" lon="5.02841">
        <ele>254.37</ele>
        <time>2017-02-25T14:24:36Z</time>
      </trkpt>
      <trkpt lat="45.25645" lon="5.02841">
        <ele>254.37</ele>
        <time>2017-02-25T14:24:37Z</time>
      </trkpt>
      <trkpt lat="45.25645" lon="5.02841">
        <ele>254.37</ele>
        <time>2017-02-25T14:24:38Z</time>
      </trkpt>
      <trkpt lat="45.25645" lon="5.02841">
        <ele>254.37</ele>
        <time>2017-02-25T14:24:39Z</time>
      </trkpt>
      <trkpt lat="45.25645" lon="5.02841">
        <ele>254.37</ele>
        <time>2017-02-25T14:24:40Z</time>
      </trkpt>
      <trkpt lat="45.25645" lon="5.02841">
        <ele>254.37</ele>
        <time>2017-02-25T14:24:41Z</time>
      </trkpt>
      <trkpt lat="45.25645" lon="5.02841">
        <ele>254.37</ele>
        <time>2017-02-25T14:24:42Z</time>
      </trkpt>
      <trkpt lat="45.25645" lon="5.02841">
        <ele>254.37</ele>
        <time>2017-02-25T14:24:43Z</time>
      </trkpt>
      <trkpt lat="45.25645" lon="5.02841">
        <ele>254.37</ele>
        <time>2017-02-25T14:24:44Z</time>
      </trkpt>
      <trkpt lat="45.25645" lon="5.02841">
        <ele>254.37</ele>
        <time>2017-02-25T14:24:45Z</time>
      </trkpt>
      <trkpt lat="45.25645" lon="5.02841">
        <ele>254.37</ele>
        <time>2017-02-25T14:24:46Z</time>
      </trkpt>
      <trkpt lat="45.25645" lon="5.02841">
        <ele>254.37</ele>
        <time>2017-02-25T14:24:47Z</time>
      </trkpt>
      <trkpt lat="45.25645" lon="5.02841">
        <ele>254.37</ele>
        <time>2017-02-25T14:24:48Z</time>
      </trkpt>
      <trkpt lat="45.25645" lon="5.02841">
        <ele>254.37</ele>
        <time>2017-02-25T14:24:49Z</time>
      </trkpt>
      <trkpt lat="45.25645" lon="5.02841">
        <ele>254.37</ele>
        <time>2017-02-25T14:24:50Z</time>
      </trkpt>
      <trkpt lat="45.25645" lon="5.02841">
        <ele>254.37</ele>
        <time>2017-02-25T14:24:51Z</time>
      </trkpt>
      <trkpt lat="45.25645" lon="5.02841">
        <ele>254.37</ele>
        <time>2017-02-25T14:24:52Z</time>
      </trkpt>
      <trkpt lat="45.25645" lon="5.02841">
        <ele>254.37</ele>
        <time>2017-02-25T14:24:53Z</time>
      </trkpt>
      <trkpt lat="45.25645" lon="5.02841">
        <ele>254.37</ele>
        <time>2017-02-25T14:24:54Z</time>
      </trkpt>
      <trkpt lat="45.25645" lon="5.02841">
        <ele>254.37</ele>
        <time>2017-02-25T14:24:55Z</time>
      </trkpt>
      <trkpt lat="45.25645" lon="5.02841">
        <ele>254.37</ele>
        <time>2017-02-25T14:24:56Z</time>
      </trkpt>
      <trkpt lat="45.25636" lon="5.02835">
        <ele>254.05</ele>
        <time>2017-02-25T14:24:57Z</time>
      </trkpt>
      <trkpt lat="45.25636" lon="5.02835">
        <ele>253.9</ele>
        <time>2017-02-25T14:24:58Z</time>
      </trkpt>
      <trkpt lat="45.25636" lon="5.02834">
        <ele>253.87</ele>
        <time>2017-02-25T14:24:59Z</time>
      </trkpt>
      <trkpt lat="45.25635" lon="5.02834">
        <ele>253.87</ele>
        <time>2017-02-25T14:25:00Z</time>
      </trkpt>
      <trkpt lat="45.25635" lon="5.02834">
        <ele>253.87</ele>
        <time>2017-02-25T14:25:01Z</time>
      </trkpt>
      <trkpt lat="45.25635" lon="5.02834">
        <ele>253.87</ele>
        <time>2017-02-25T14:25:02Z</time>
      </trkpt>
      <trkpt lat="45.25635" lon="5.02834">
        <ele>253.87</ele>
        <time>2017-02-25T14:25:03Z</time>
      </trkpt>
      <trkpt lat="45.25635" lon="5.02834">
        <ele>253.87</ele>
        <time>2017-02-25T14:25:04Z</time>
      </trkpt>
      <trkpt lat="45.25635" lon="5.02834">
        <ele>253.87</ele>
        <time>2017-02-25T14:25:05Z</time>
      </trkpt>
      <trkpt lat="45.25635" lon="5.02834">
        <ele>253.87</ele>
        <time>2017-02-25T14:25:06Z</time>
      </trkpt>
      <trkpt lat="45.25635" lon="5.02834">
        <ele>253.87</ele>
        <time>2017-02-25T14:25:07Z</time>
      </trkpt>
      <trkpt lat="45.25635" lon="5.02834">
        <ele>253.87</ele>
        <time>2017-02-25T14:25:08Z</time>
      </trkpt>
      <trkpt lat="45.25635" lon="5.02834">
        <ele>253.87</ele>
        <time>2017-02-25T14:25:09Z</time>
      </trkpt>
      <trkpt lat="45.25635" lon="5.02834">
        <ele>253.87</ele>
        <time>2017-02-25T14:25:10Z</time>
      </trkpt>
      <trkpt lat="45.25635" lon="5.02834">
        <ele>253.87</ele>
        <time>2017-02-25T14:25:11Z</time>
      </trkpt>
      <trkpt lat="45.25635" lon="5.02834">
        <ele>253.87</ele>
        <time>2017-02-25T14:25:12Z</time>
      </trkpt>
      <trkpt lat="45.25635" lon="5.02834">
        <ele>253.87</ele>
        <time>2017-02-25T14:25:13Z</time>
      </trkpt>
      <trkpt lat="45.25635" lon="5.02834">
        <ele>253.87</ele>
        <time>2017-02-25T14:25:14Z</time>
      </trkpt>
      <trkpt lat="45.25635" lon="5.02834">
        <ele>253.87</ele>
        <time>2017-02-25T14:25:15Z</time>
      </trkpt>
      <trkpt lat="45.25635" lon="5.02834">
        <ele>253.87</ele>
        <time>2017-02-25T14:25:16Z</time>
      </trkpt>
      <trkpt lat="45.25635" lon="5.02834">
        <ele>253.87</ele>
        <time>2017-02-25T14:25:17Z</time>
      </trkpt>
      <trkpt lat="45.25635" lon="5.02834">
        <ele>253.87</ele>
        <time>2017-02-25T14:25:18Z</time>
      </trkpt>
      <trkpt lat="45.25635" lon="5.02834">
        <ele>253.87</ele>
        <time>2017-02-25T14:25:19Z</time>
      </trkpt>
      <trkpt lat="45.25635" lon="5.02834">
        <ele>253.87</ele>
        <time>2017-02-25T14:25:20Z</time>
      </trkpt>
      <trkpt lat="45.25635" lon="5.02834">
        <ele>253.87</ele>
        <time>2017-02-25T14:25:21Z</time>
      </trkpt>
      <trkpt lat="45.25635" lon="5.02834">
        <ele>253.87</ele>
        <time>2017-02-25T14:25:22Z</time>
      </trkpt>
      <trkpt lat="45.25635" lon="5.02834">
        <ele>253.87</ele>
        <time>2017-02-25T14:25:23Z</time>
      </trkpt>
      <trkpt lat="45.25635" lon="5.02834">
        <ele>253.87</ele>
        <time>2017-02-25T14:25:24Z</time>
      </trkpt>
      <trkpt lat="45.25635" lon="5.02834">
        <ele>253.87</ele>
        <time>2017-02-25T14:25:25Z</time>
      </trkpt>
      <trkpt lat="45.25635" lon="5.02834">
        <ele>253.87</ele>
        <time>2017-02-25T14:25:26Z</time>
      </trkpt>
      <trkpt lat="45.25635" lon="5.02834">
        <ele>253.87</ele>
        <time>2017-02-25T14:25:27Z</time>
      </trkpt>
      <trkpt lat="45.25635" lon="5.02834">
        <ele>253.87</ele>
        <time>2017-02-25T14:25:28Z</time>
      </trkpt>
      <trkpt lat="45.25635" lon="5.02834">
        <ele>253.87</ele>
        <time>2017-02-25T14:25:29Z</time>
      </trkpt>
      <trkpt lat="45.25635" lon="5.02834">
        <ele>253.87</ele>
        <time>2017-02-25T14:25:30Z</time>
      </trkpt>
      <trkpt lat="45.25635" lon="5.02834">
        <ele>253.87</ele>
        <time>2017-02-25T14:25:31Z</time>
      </trkpt>
      <trkpt lat="45.25635" lon="5.02834">
        <ele>253.87</ele>
        <time>2017-02-25T14:25:32Z</time>
      </trkpt>
      <trkpt lat="45.25635" lon="5.02834">
        <ele>253.87</ele>
        <time>2017-02-25T14:25:33Z</time>
      </trkpt>
      <trkpt lat="45.25635" lon="5.02834">
        <ele>253.87</ele>
        <time>2017-02-25T14:25:34Z</time>
      </trkpt>
      <trkpt lat="45.25635" lon="5.02834">
        <ele>253.87</ele>
        <time>2017-02-25T14:25:35Z</time>
      </trkpt>
      <trkpt lat="45.25635" lon="5.02834">
        <ele>253.87</ele>
        <time>2017-02-25T14:25:36Z</time>
      </trkpt>
      <trkpt lat="45.25635" lon="5.02834">
        <ele>253.87</ele>
        <time>2017-02-25T14:25:37Z</time>
      </trkpt>
      <trkpt lat="45.25635" lon="5.02834">
        <ele>253.87</ele>
        <time>2017-02-25T14:25:38Z</time>
      </trkpt>
      <trkpt lat="45.25635" lon="5.02834">
        <ele>253.87</ele>
        <time>2017-02-25T14:25:39Z</time>
      </trkpt>
      <trkpt lat="45.25635" lon="5.02834">
        <ele>253.87</ele>
        <time>2017-02-25T14:25:40Z</time>
      </trkpt>
      <trkpt lat="45.25635" lon="5.02834">
        <ele>253.87</ele>
        <time>2017-02-25T14:25:41Z</time>
      </trkpt>
      <trkpt lat="45.25635" lon="5.02834">
        <ele>253.87</ele>
        <time>2017-02-25T14:25:42Z</time>
      </trkpt>
      <trkpt lat="45.25635" lon="5.02834">
        <ele>253.87</ele>
        <time>2017-02-25T14:25:43Z</time>
      </trkpt>
      <trkpt lat="45.25635" lon="5.02834">
        <ele>253.87</ele>
        <time>2017-02-25T14:25:44Z</time>
      </trkpt>
      <trkpt lat="45.25635" lon="5.02834">
        <ele>253.87</ele>
        <time>2017-02-25T14:25:45Z</time>
      </trkpt>
      <trkpt lat="45.25635" lon="5.02834">
        <ele>253.87</ele>
        <time>2017-02-25T14:25:46Z</time>
      </trkpt>
      <trkpt lat="45.25635" lon="5.02834">
        <ele>253.87</ele>
        <time>2017-02-25T14:25:47Z</time>
      </trkpt>
      <trkpt lat="45.25635" lon="5.02834">
        <ele>253.87</ele>
        <time>2017-02-25T14:25:48Z</time>
      </trkpt>
      <trkpt lat="45.25635" lon="5.02834">
        <ele>253.87</ele>
        <time>2017-02-25T14:25:49Z</time>
      </trkpt>
      <trkpt lat="45.25635" lon="5.02834">
        <ele>253.87</ele>
        <time>2017-02-25T14:25:50Z</time>
      </trkpt>
      <trkpt lat="45.25635" lon="5.02834">
        <ele>253.87</ele>
        <time>2017-02-25T14:25:51Z</time>
      </trkpt>
      <trkpt lat="45.25635" lon="5.02834">
        <ele>253.87</ele>
        <time>2017-02-25T14:25:52Z</time>
      </trkpt>
      <trkpt lat="45.25635" lon="5.02834">
        <ele>253.87</ele>
        <time>2017-02-25T14:25:53Z</time>
      </trkpt>
      <trkpt lat="45.25635" lon="5.02834">
        <ele>253.87</ele>
        <time>2017-02-25T14:25:54Z</time>
      </trkpt>
      <trkpt lat="45.25635" lon="5.02834">
        <ele>253.87</ele>
        <time>2017-02-25T14:25:55Z</time>
      </trkpt>
      <trkpt lat="45.25635" lon="5.02834">
        <ele>253.87</ele>
        <time>2017-02-25T14:25:56Z</time>
      </trkpt>
      <trkpt lat="45.25635" lon="5.02834">
        <ele>253.87</ele>
        <time>2017-02-25T14:25:57Z</time>
      </trkpt>
      <trkpt lat="45.25635" lon="5.02834">
        <ele>253.87</ele>
        <time>2017-02-25T14:25:58Z</time>
      </trkpt>
      <trkpt lat="45.25635" lon="5.02834">
        <ele>253.87</ele>
        <time>2017-02-25T14:25:59Z</time>
      </trkpt>
      <trkpt lat="45.25641" lon="5.02824">
        <ele>253.07</ele>
        <time>2017-02-25T14:26:00Z</time>
      </trkpt>
      <trkpt lat="45.25641" lon="5.02824">
        <ele>252.91</ele>
        <time>2017-02-25T14:26:01Z</time>
      </trkpt>
      <trkpt lat="45.25641" lon="5.02824">
        <ele>252.79</ele>
        <time>2017-02-25T14:26:02Z</time>
      </trkpt>
      <trkpt lat="45.25641" lon="5.02824">
        <ele>252.77</ele>
        <time>2017-02-25T14:26:03Z</time>
      </trkpt>
      <trkpt lat="45.25641" lon="5.02824">
        <ele>252.77</ele>
        <time>2017-02-25T14:26:04Z</time>
      </trkpt>
      <trkpt lat="45.25641" lon="5.02824">
        <ele>252.77</ele>
        <time>2017-02-25T14:26:05Z</time>
      </trkpt>
      <trkpt lat="45.25641" lon="5.02824">
        <ele>252.77</ele>
        <time>2017-02-25T14:26:06Z</time>
      </trkpt>
      <trkpt lat="45.25641" lon="5.02824">
        <ele>252.77</ele>
        <time>2017-02-25T14:26:07Z</time>
      </trkpt>
      <trkpt lat="45.25641" lon="5.02824">
        <ele>252.77</ele>
        <time>2017-02-25T14:26:08Z</time>
      </trkpt>
      <trkpt lat="45.25641" lon="5.02824">
        <ele>252.77</ele>
        <time>2017-02-25T14:26:09Z</time>
      </trkpt>
      <trkpt lat="45.25641" lon="5.02824">
        <ele>252.77</ele>
        <time>2017-02-25T14:26:10Z</time>
      </trkpt>
      <trkpt lat="45.25641" lon="5.02824">
        <ele>252.77</ele>
        <time>2017-02-25T14:26:11Z</time>
      </trkpt>
      <trkpt lat="45.25641" lon="5.02824">
        <ele>252.77</ele>
        <time>2017-02-25T14:26:12Z</time>
      </trkpt>
      <trkpt lat="45.25641" lon="5.02824">
        <ele>252.77</ele>
        <time>2017-02-25T14:26:13Z</time>
      </trkpt>
      <trkpt lat="45.25641" lon="5.02824">
        <ele>252.77</ele>
        <time>2017-02-25T14:26:14Z</time>
      </trkpt>
      <trkpt lat="45.25641" lon="5.02824">
        <ele>252.77</ele>
        <time>2017-02-25T14:26:15Z</time>
      </trkpt>
      <trkpt lat="45.25641" lon="5.02824">
        <ele>252.77</ele>
        <time>2017-02-25T14:26:16Z</time>
      </trkpt>
      <trkpt lat="45.25641" lon="5.02824">
        <ele>252.77</ele>
        <time>2017-02-25T14:26:17Z</time>
      </trkpt>
      <trkpt lat="45.25641" lon="5.02824">
        <ele>252.77</ele>
        <time>2017-02-25T14:26:18Z</time>
      </trkpt>
      <trkpt lat="45.25641" lon="5.02824">
        <ele>252.77</ele>
        <time>2017-02-25T14:26:19Z</time>
      </trkpt>
      <trkpt lat="45.25641" lon="5.02824">
        <ele>252.77</ele>
        <time>2017-02-25T14:26:20Z</time>
      </trkpt>
      <trkpt lat="45.25641" lon="5.02824">
        <ele>252.77</ele>
        <time>2017-02-25T14:26:21Z</time>
      </trkpt>
      <trkpt lat="45.25641" lon="5.02824">
        <ele>252.77</ele>
        <time>2017-02-25T14:26:22Z</time>
      </trkpt>
      <trkpt lat="45.25641" lon="5.02824">
        <ele>252.77</ele>
        <time>2017-02-25T14:26:23Z</time>
      </trkpt>
      <trkpt lat="45.25641" lon="5.02824">
        <ele>252.77</ele>
        <time>2017-02-25T14:26:24Z</time>
      </trkpt>
      <trkpt lat="45.25641" lon="5.02824">
        <ele>252.77</ele>
        <time>2017-02-25T14:26:25Z</time>
      </trkpt>
      <trkpt lat="45.25641" lon="5.02824">
        <ele>252.77</ele>
        <time>2017-02-25T14:26:26Z</time>
      </trkpt>
      <trkpt lat="45.25641" lon="5.02824">
        <ele>252.77</ele>
        <time>2017-02-25T14:26:27Z</time>
      </trkpt>
      <trkpt lat="45.25641" lon="5.02824">
        <ele>252.77</ele>
        <time>2017-02-25T14:26:28Z</time>
      </trkpt>
      <trkpt lat="45.25641" lon="5.02824">
        <ele>252.77</ele>
        <time>2017-02-25T14:26:29Z</time>
      </trkpt>
      <trkpt lat="45.25641" lon="5.02824">
        <ele>252.77</ele>
        <time>2017-02-25T14:26:30Z</time>
      </trkpt>
      <trkpt lat="45.25641" lon="5.02824">
        <ele>252.77</ele>
        <time>2017-02-25T14:26:31Z</time>
      </trkpt>
      <trkpt lat="45.25641" lon="5.02824">
        <ele>252.77</ele>
        <time>2017-02-25T14:26:32Z</time>
      </trkpt>
      <trkpt lat="45.25641" lon="5.02824">
        <ele>252.77</ele>
        <time>2017-02-25T14:26:33Z</time>
      </trkpt>
      <trkpt lat="45.25641" lon="5.02824">
        <ele>252.77</ele>
        <time>2017-02-25T14:26:34Z</time>
      </trkpt>
      <trkpt lat="45.25641" lon="5.02824">
        <ele>252.77</ele>
        <time>2017-02-25T14:26:35Z</time>
      </trkpt>
      <trkpt lat="45.25641" lon="5.02824">
        <ele>252.77</ele>
        <time>2017-02-25T14:26:36Z</time>
      </trkpt>
      <trkpt lat="45.25641" lon="5.02824">
        <ele>252.77</ele>
        <time>2017-02-25T14:26:37Z</time>
      </trkpt>
      <trkpt lat="45.25641" lon="5.02824">
        <ele>252.77</ele>
        <time>2017-02-25T14:26:38Z</time>
      </trkpt>
      <trkpt lat="45.25641" lon="5.02824">
        <ele>252.77</ele>
        <time>2017-02-25T14:26:39Z</time>
      </trkpt>
      <trkpt lat="45.25641" lon="5.02824">
        <ele>252.77</ele>
        <time>2017-02-25T14:26:40Z</time>
      </trkpt>
      <trkpt lat="45.25641" lon="5.02824">
        <ele>252.77</ele>
        <time>2017-02-25T14:26:41Z</time>
      </trkpt>
      <trkpt lat="45.25641" lon="5.02824">
        <ele>252.77</ele>
        <time>2017-02-25T14:26:42Z</time>
      </trkpt>
      <trkpt lat="45.25641" lon="5.02824">
        <ele>252.77</ele>
        <time>2017-02-25T14:26:43Z</time>
      </trkpt>
      <trkpt lat="45.25641" lon="5.02824">
        <ele>252.77</ele>
        <time>2017-02-25T14:26:44Z</time>
      </trkpt>
      <trkpt lat="45.25641" lon="5.02824">
        <ele>252.77</ele>
        <time>2017-02-25T14:26:45Z</time>
      </trkpt>
      <trkpt lat="45.25641" lon="5.02824">
        <ele>252.77</ele>
        <time>2017-02-25T14:26:46Z</time>
      </trkpt>
      <trkpt lat="45.25641" lon="5.02824">
        <ele>252.77</ele>
        <time>2017-02-25T14:26:47Z</time>
      </trkpt>
      <trkpt lat="45.25641" lon="5.02824">
        <ele>252.77</ele>
        <time>2017-02-25T14:26:48Z</time>
      </trkpt>
      <trkpt lat="45.25641" lon="5.02824">
        <ele>252.77</ele>
        <time>2017-02-25T14:26:49Z</time>
      </trkpt>
      <trkpt lat="45.25641" lon="5.02824">
        <ele>252.77</ele>
        <time>2017-02-25T14:26:50Z</time>
      </trkpt>
      <trkpt lat="45.25641" lon="5.02824">
        <ele>252.77</ele>
        <time>2017-02-25T14:26:51Z</time>
      </trkpt>
      <trkpt lat="45.25641" lon="5.02824">
        <ele>252.77</ele>
        <time>2017-02-25T14:26:52Z</time>
      </trkpt>
      <trkpt lat="45.25641" lon="5.02824">
        <ele>252.77</ele>
        <time>2017-02-25T14:26:53Z</time>
      </trkpt>
      <trkpt lat="45.25641" lon="5.02824">
        <ele>252.77</ele>
        <time>2017-02-25T14:26:54Z</time>
      </trkpt>
      <trkpt lat="45.25641" lon="5.02824">
        <ele>252.77</ele>
        <time>2017-02-25T14:26:55Z</time>
      </trkpt>
      <trkpt lat="45.25641" lon="5.02824">
        <ele>252.77</ele>
        <time>2017-02-25T14:26:56Z</time>
      </trkpt>
      <trkpt lat="45.25641" lon="5.02824">
        <ele>252.77</ele>
        <time>2017-02-25T14:26:57Z</time>
      </trkpt>
      <trkpt lat="45.25641" lon="5.02824">
        <ele>252.77</ele>
        <time>2017-02-25T14:26:58Z</time>
      </trkpt>
      <trkpt lat="45.25641" lon="5.02824">
        <ele>252.77</ele>
        <time>2017-02-25T14:26:59Z</time>
      </trkpt>
      <trkpt lat="45.25641" lon="5.02824">
        <ele>252.77</ele>
        <time>2017-02-25T14:27:00Z</time>
      </trkpt>
      <trkpt lat="45.25641" lon="5.02824">
        <ele>252.77</ele>
        <time>2017-02-25T14:27:01Z</time>
      </trkpt>
      <trkpt lat="45.25641" lon="5.02824">
        <ele>252.77</ele>
        <time>2017-02-25T14:27:02Z</time>
      </trkpt>
      <trkpt lat="45.25641" lon="5.02824">
        <ele>252.77</ele>
        <time>2017-02-25T14:27:03Z</time>
      </trkpt>
      <trkpt lat="45.25641" lon="5.02824">
        <ele>252.77</ele>
        <time>2017-02-25T14:27:04Z</time>
      </trkpt>
      <trkpt lat="45.25641" lon="5.02824">
        <ele>252.77</ele>
        <time>2017-02-25T14:27:05Z</time>
      </trkpt>
      <trkpt lat="45.25641" lon="5.02824">
        <ele>252.77</ele>
        <time>2017-02-25T14:27:06Z</time>
      </trkpt>
      <trkpt lat="45.25641" lon="5.02824">
        <ele>252.77</ele>
        <time>2017-02-25T14:27:07Z</time>
      </trkpt>
      <trkpt lat="45.25641" lon="5.02824">
        <ele>252.77</ele>
        <time>2017-02-25T14:27:08Z</time>
      </trkpt>
      <trkpt lat="45.25641" lon="5.02824">
        <ele>252.77</ele>
        <time>2017-02-25T14:27:09Z</time>
      </trkpt>
      <trkpt lat="45.25641" lon="5.02824">
        <ele>252.77</ele>
        <time>2017-02-25T14:27:10Z</time>
      </trkpt>
      <trkpt lat="45.25641" lon="5.02824">
        <ele>252.77</ele>
        <time>2017-02-25T14:27:11Z</time>
      </trkpt>
      <trkpt lat="45.25641" lon="5.02824">
        <ele>252.77</ele>
        <time>2017-02-25T14:27:12Z</time>
      </trkpt>
      <trkpt lat="45.25641" lon="5.02824">
        <ele>252.77</ele>
        <time>2017-02-25T14:27:13Z</time>
      </trkpt>
      <trkpt lat="45.25641" lon="5.02824">
        <ele>252.77</ele>
        <time>2017-02-25T14:27:14Z</time>
      </trkpt>
      <trkpt lat="45.25641" lon="5.02824">
        <ele>252.77</ele>
        <time>2017-02-25T14:27:15Z</time>
      </trkpt>
      <trkpt lat="45.25641" lon="5.02824">
        <ele>252.77</ele>
        <time>2017-02-25T14:27:16Z</time>
      </trkpt>
      <trkpt lat="45.25641" lon="5.02824">
        <ele>252.77</ele>
        <time>2017-02-25T14:27:17Z</time>
      </trkpt>
      <trkpt lat="45.25641" lon="5.02824">
        <ele>252.77</ele>
        <time>2017-02-25T14:27:18Z</time>
      </trkpt>
      <trkpt lat="45.25641" lon="5.02824">
        <ele>252.77</ele>
        <time>2017-02-25T14:27:19Z</time>
      </trkpt>
      <trkpt lat="45.25641" lon="5.02824">
        <ele>252.77</ele>
        <time>2017-02-25T14:27:20Z</time>
      </trkpt>
      <trkpt lat="45.25641" lon="5.02824">
        <ele>252.77</ele>
        <time>2017-02-25T14:27:21Z</time>
      </trkpt>
      <trkpt lat="45.25641" lon="5.02824">
        <ele>252.77</ele>
        <time>2017-02-25T14:27:22Z</time>
      </trkpt>
      <trkpt lat="45.25641" lon="5.02824">
        <ele>252.77</ele>
        <time>2017-02-25T14:27:23Z</time>
      </trkpt>
      <trkpt lat="45.25641" lon="5.02824">
        <ele>252.77</ele>
        <time>2017-02-25T14:27:24Z</time>
      </trkpt>
      <trkpt lat="45.25641" lon="5.02824">
        <ele>252.77</ele>
        <time>2017-02-25T14:27:25Z</time>
      </trkpt>
      <trkpt lat="45.25641" lon="5.02824">
        <ele>252.77</ele>
        <time>2017-02-25T14:27:26Z</time>
      </trkpt>
      <trkpt lat="45.25641" lon="5.02824">
        <ele>252.77</ele>
        <time>2017-02-25T14:27:27Z</time>
      </trkpt>
      <trkpt lat="45.25641" lon="5.02824">
        <ele>252.77</ele>
        <time>2017-02-25T14:27:28Z</time>
      </trkpt>
      <trkpt lat="45.25641" lon="5.02824">
        <ele>252.77</ele>
        <time>2017-02-25T14:27:29Z</time>
      </trkpt>
      <trkpt lat="45.25641" lon="5.02824">
        <ele>252.77</ele>
        <time>2017-02-25T14:27:30Z</time>
      </trkpt>
      <trkpt lat="45.25641" lon="5.02824">
        <ele>252.77</ele>
        <time>2017-02-25T14:27:31Z</time>
      </trkpt>
      <trkpt lat="45.25641" lon="5.02824">
        <ele>252.77</ele>
        <time>2017-02-25T14:27:32Z</time>
      </trkpt>
      <trkpt lat="45.25641" lon="5.02824">
        <ele>252.77</ele>
        <time>2017-02-25T14:27:33Z</time>
      </trkpt>
      <trkpt lat="45.25641" lon="5.02824">
        <ele>252.77</ele>
        <time>2017-02-25T14:27:34Z</time>
      </trkpt>
      <trkpt lat="45.25641" lon="5.02824">
        <ele>252.77</ele>
        <time>2017-02-25T14:27:35Z</time>
      </trkpt>
      <trkpt lat="45.25641" lon="5.02824">
        <ele>252.77</ele>
        <time>2017-02-25T14:27:36Z</time>
      </trkpt>
      <trkpt lat="45.25641" lon="5.02824">
        <ele>252.77</ele>
        <time>2017-02-25T14:27:37Z</time>
      </trkpt>
      <trkpt lat="45.25641" lon="5.02824">
        <ele>252.77</ele>
        <time>2017-02-25T14:27:38Z</time>
      </trkpt>
      <trkpt lat="45.25641" lon="5.02824">
        <ele>252.77</ele>
        <time>2017-02-25T14:27:39Z</time>
      </trkpt>
      <trkpt lat="45.25641" lon="5.02824">
        <ele>252.77</ele>
        <time>2017-02-25T14:27:40Z</time>
      </trkpt>
      <trkpt lat="45.25641" lon="5.02824">
        <ele>252.77</ele>
        <time>2017-02-25T14:27:41Z</time>
      </trkpt>
      <trkpt lat="45.25641" lon="5.02824">
        <ele>252.77</ele>
        <time>2017-02-25T14:27:42Z</time>
      </trkpt>
      <trkpt lat="45.25641" lon="5.02824">
        <ele>252.77</ele>
        <time>2017-02-25T14:27:43Z</time>
      </trkpt>
      <trkpt lat="45.25641" lon="5.02824">
        <ele>252.77</ele>
        <time>2017-02-25T14:27:44Z</time>
      </trkpt>
      <trkpt lat="45.25641" lon="5.02824">
        <ele>252.77</ele>
        <time>2017-02-25T14:27:45Z</time>
      </trkpt>
      <trkpt lat="45.25641" lon="5.02824">
        <ele>252.77</ele>
        <time>2017-02-25T14:27:46Z</time>
      </trkpt>
      <trkpt lat="45.25641" lon="5.02824">
        <ele>252.77</ele>
        <time>2017-02-25T14:27:47Z</time>
      </trkpt>
      <trkpt lat="45.25641" lon="5.02824">
        <ele>252.77</ele>
        <time>2017-02-25T14:27:48Z</time>
      </trkpt>
      <trkpt lat="45.25641" lon="5.02824">
        <ele>252.77</ele>
        <time>2017-02-25T14:27:49Z</time>
      </trkpt>
      <trkpt lat="45.25641" lon="5.02824">
        <ele>252.77</ele>
        <time>2017-02-25T14:27:50Z</time>
      </trkpt>
      <trkpt lat="45.25641" lon="5.02824">
        <ele>252.77</ele>
        <time>2017-02-25T14:27:51Z</time>
      </trkpt>
      <trkpt lat="45.25641" lon="5.02824">
        <ele>252.77</ele>
        <time>2017-02-25T14:27:52Z</time>
      </trkpt>
      <trkpt lat="45.25641" lon="5.02824">
        <ele>252.77</ele>
        <time>2017-02-25T14:27:53Z</time>
      </trkpt>
      <trkpt lat="45.25641" lon="5.02824">
        <ele>252.77</ele>
        <time>2017-02-25T14:27:54Z</time>
      </trkpt>
      <trkpt lat="45.25641" lon="5.02824">
        <ele>252.77</ele>
        <time>2017-02-25T14:27:55Z</time>
      </trkpt>
      <trkpt lat="45.25641" lon="5.02824">
        <ele>252.77</ele>
        <time>2017-02-25T14:27:56Z</time>
      </trkpt>
      <trkpt lat="45.25641" lon="5.02824">
        <ele>252.77</ele>
        <time>2017-02-25T14:27:57Z</time>
      </trkpt>
      <trkpt lat="45.25641" lon="5.02824">
        <ele>252.77</ele>
        <time>2017-02-25T14:27:58Z</time>
      </trkpt>
      <trkpt lat="45.25641" lon="5.02824">
        <ele>252.77</ele>
        <time>2017-02-25T14:27:59Z</time>
      </trkpt>
      <trkpt lat="45.25641" lon="5.02824">
        <ele>252.77</ele>
        <time>2017-02-25T14:28:00Z</time>
      </trkpt>
      <trkpt lat="45.25641" lon="5.02824">
        <ele>252.77</ele>
        <time>2017-02-25T14:28:01Z</time>
      </trkpt>
      <trkpt lat="45.25641" lon="5.02824">
        <ele>252.77</ele>
        <time>2017-02-25T14:28:02Z</time>
      </trkpt>
      <trkpt lat="45.25641" lon="5.02824">
        <ele>252.77</ele>
        <time>2017-02-25T14:28:03Z</time>
      </trkpt>
      <trkpt lat="45.25641" lon="5.02824">
        <ele>252.77</ele>
        <time>2017-02-25T14:28:04Z</time>
      </trkpt>
      <trkpt lat="45.25641" lon="5.02824">
        <ele>252.77</ele>
        <time>2017-02-25T14:28:05Z</time>
      </trkpt>
      <trkpt lat="45.25641" lon="5.02824">
        <ele>252.77</ele>
        <time>2017-02-25T14:28:06Z</time>
      </trkpt>
      <trkpt lat="45.25641" lon="5.02824">
        <ele>252.77</ele>
        <time>2017-02-25T14:28:07Z</time>
      </trkpt>
      <trkpt lat="45.25641" lon="5.02824">
        <ele>252.77</ele>
        <time>2017-02-25T14:28:08Z</time>
      </trkpt>
      <trkpt lat="45.25641" lon="5.02824">
        <ele>252.77</ele>
        <time>2017-02-25T14:28:09Z</time>
      </trkpt>
      <trkpt lat="45.25641" lon="5.02824">
        <ele>252.77</ele>
        <time>2017-02-25T14:28:10Z</time>
      </trkpt>
      <trkpt lat="45.25641" lon="5.02824">
        <ele>252.77</ele>
        <time>2017-02-25T14:28:11Z</time>
      </trkpt>
      <trkpt lat="45.25641" lon="5.02824">
        <ele>252.77</ele>
        <time>2017-02-25T14:28:12Z</time>
      </trkpt>
      <trkpt lat="45.25641" lon="5.02824">
        <ele>252.77</ele>
        <time>2017-02-25T14:28:13Z</time>
      </trkpt>
      <trkpt lat="45.25641" lon="5.02824">
        <ele>252.77</ele>
        <time>2017-02-25T14:28:14Z</time>
      </trkpt>
      <trkpt lat="45.25641" lon="5.02824">
        <ele>252.77</ele>
        <time>2017-02-25T14:28:15Z</time>
      </trkpt>
      <trkpt lat="45.25641" lon="5.02824">
        <ele>252.77</ele>
        <time>2017-02-25T14:28:16Z</time>
      </trkpt>
      <trkpt lat="45.25641" lon="5.02824">
        <ele>252.77</ele>
        <time>2017-02-25T14:28:17Z</time>
      </trkpt>
      <trkpt lat="45.25641" lon="5.02824">
        <ele>252.77</ele>
        <time>2017-02-25T14:28:18Z</time>
      </trkpt>
      <trkpt lat="45.25641" lon="5.02824">
        <ele>252.77</ele>
        <time>2017-02-25T14:28:19Z</time>
      </trkpt>
      <trkpt lat="45.25641" lon="5.02824">
        <ele>252.77</ele>
        <time>2017-02-25T14:28:20Z</time>
      </trkpt>
      <trkpt lat="45.25641" lon="5.02824">
        <ele>252.77</ele>
        <time>2017-02-25T14:28:21Z</time>
      </trkpt>
      <trkpt lat="45.25641" lon="5.02824">
        <ele>252.77</ele>
        <time>2017-02-25T14:28:22Z</time>
      </trkpt>
      <trkpt lat="45.25641" lon="5.02824">
        <ele>252.77</ele>
        <time>2017-02-25T14:28:23Z</time>
      </trkpt>
      <trkpt lat="45.25641" lon="5.02824">
        <ele>252.77</ele>
        <time>2017-02-25T14:28:24Z</time>
      </trkpt>
      <trkpt lat="45.25641" lon="5.02824">
        <ele>252.77</ele>
        <time>2017-02-25T14:28:25Z</time>
      </trkpt>
      <trkpt lat="45.25641" lon="5.02824">
        <ele>252.77</ele>
        <time>2017-02-25T14:28:26Z</time>
      </trkpt>
      <trkpt lat="45.25641" lon="5.02824">
        <ele>252.77</ele>
        <time>2017-02-25T14:28:27Z</time>
      </trkpt>
      <trkpt lat="45.25641" lon="5.02824">
        <ele>252.77</ele>
        <time>2017-02-25T14:28:28Z</time>
      </trkpt>
      <trkpt lat="45.25641" lon="5.02824">
        <ele>252.77</ele>
        <time>2017-02-25T14:28:29Z</time>
      </trkpt>
      <trkpt lat="45.25641" lon="5.02824">
        <ele>252.77</ele>
        <time>2017-02-25T14:28:30Z</time>
      </trkpt>
      <trkpt lat="45.25641" lon="5.02824">
        <ele>252.77</ele>
        <time>2017-02-25T14:28:31Z</time>
      </trkpt>
      <trkpt lat="45.25641" lon="5.02824">
        <ele>252.77</ele>
        <time>2017-02-25T14:28:32Z</time>
      </trkpt>
      <trkpt lat="45.25641" lon="5.02824">
        <ele>252.77</ele>
        <time>2017-02-25T14:28:33Z</time>
      </trkpt>
      <trkpt lat="45.25641" lon="5.02824">
        <ele>252.77</ele>
        <time>2017-02-25T14:28:34Z</time>
      </trkpt>
      <trkpt lat="45.25641" lon="5.02824">
        <ele>252.77</ele>
        <time>2017-02-25T14:28:35Z</time>
      </trkpt>
      <trkpt lat="45.25641" lon="5.02824">
        <ele>252.77</ele>
        <time>2017-02-25T14:28:36Z</time>
      </trkpt>
      <trkpt lat="45.25641" lon="5.02824">
        <ele>252.77</ele>
        <time>2017-02-25T14:28:37Z</time>
      </trkpt>
      <trkpt lat="45.25641" lon="5.02824">
        <ele>252.77</ele>
        <time>2017-02-25T14:28:38Z</time>
      </trkpt>
      <trkpt lat="45.25641" lon="5.02824">
        <ele>252.77</ele>
        <time>2017-02-25T14:28:39Z</time>
      </trkpt>
      <trkpt lat="45.25641" lon="5.02824">
        <ele>252.77</ele>
        <time>2017-02-25T14:28:40Z</time>
      </trkpt>
      <trkpt lat="45.25641" lon="5.02824">
        <ele>252.77</ele>
        <time>2017-02-25T14:28:41Z</time>
      </trkpt>
      <trkpt lat="45.25641" lon="5.02824">
        <ele>252.77</ele>
        <time>2017-02-25T14:28:42Z</time>
      </trkpt>
      <trkpt lat="45.25641" lon="5.02824">
        <ele>252.77</ele>
        <time>2017-02-25T14:28:43Z</time>
      </trkpt>
      <trkpt lat="45.25641" lon="5.02824">
        <ele>252.77</ele>
        <time>2017-02-25T14:28:44Z</time>
      </trkpt>
      <trkpt lat="45.25641" lon="5.02824">
        <ele>252.77</ele>
        <time>2017-02-25T14:28:45Z</time>
      </trkpt>
      <trkpt lat="45.25641" lon="5.02824">
        <ele>252.77</ele>
        <time>2017-02-25T14:28:46Z</time>
      </trkpt>
      <trkpt lat="45.25641" lon="5.02824">
        <ele>252.77</ele>
        <time>2017-02-25T14:28:47Z</time>
      </trkpt>
      <trkpt lat="45.25641" lon="5.02824">
        <ele>252.77</ele>
        <time>2017-02-25T14:28:48Z</time>
      </trkpt>
      <trkpt lat="45.25641" lon="5.02824">
        <ele>252.77</ele>
        <time>2017-02-25T14:28:49Z</time>
      </trkpt>
      <trkpt lat="45.25641" lon="5.02824">
        <ele>252.77</ele>
        <time>2017-02-25T14:28:50Z</time>
      </trkpt>
      <trkpt lat="45.25641" lon="5.02824">
        <ele>252.77</ele>
        <time>2017-02-25T14:28:51Z</time>
      </trkpt>
      <trkpt lat="45.25641" lon="5.02824">
        <ele>252.77</ele>
        <time>2017-02-25T14:28:52Z</time>
      </trkpt>
      <trkpt lat="45.25641" lon="5.02824">
        <ele>252.77</ele>
        <time>2017-02-25T14:28:53Z</time>
      </trkpt>
      <trkpt lat="45.25641" lon="5.02824">
        <ele>252.77</ele>
        <time>2017-02-25T14:28:54Z</time>
      </trkpt>
      <trkpt lat="45.25641" lon="5.02824">
        <ele>252.77</ele>
        <time>2017-02-25T14:28:55Z</time>
      </trkpt>
      <trkpt lat="45.25641" lon="5.02824">
        <ele>252.77</ele>
        <time>2017-02-25T14:28:56Z</time>
      </trkpt>
      <trkpt lat="45.25641" lon="5.02824">
        <ele>252.77</ele>
        <time>2017-02-25T14:28:57Z</time>
      </trkpt>
      <trkpt lat="45.25641" lon="5.02824">
        <ele>252.77</ele>
        <time>2017-02-25T14:28:58Z</time>
      </trkpt>
      <trkpt lat="45.25641" lon="5.02824">
        <ele>252.77</ele>
        <time>2017-02-25T14:28:59Z</time>
      </trkpt>
      <trkpt lat="45.25641" lon="5.02824">
        <ele>252.77</ele>
        <time>2017-02-25T14:29:00Z</time>
      </trkpt>
      <trkpt lat="45.25641" lon="5.02824">
        <ele>252.77</ele>
        <time>2017-02-25T14:29:01Z</time>
      </trkpt>
      <trkpt lat="45.25641" lon="5.02824">
        <ele>252.77</ele>
        <time>2017-02-25T14:29:02Z</time>
      </trkpt>
      <trkpt lat="45.25641" lon="5.02824">
        <ele>252.77</ele>
        <time>2017-02-25T14:29:03Z</time>
      </trkpt>
      <trkpt lat="45.25641" lon="5.02824">
        <ele>252.77</ele>
        <time>2017-02-25T14:29:04Z</time>
      </trkpt>
      <trkpt lat="45.25641" lon="5.02824">
        <ele>252.77</ele>
        <time>2017-02-25T14:29:05Z</time>
      </trkpt>
      <trkpt lat="45.25641" lon="5.02824">
        <ele>252.77</ele>
        <time>2017-02-25T14:29:06Z</time>
      </trkpt>
      <trkpt lat="45.25641" lon="5.02824">
        <ele>252.77</ele>
        <time>2017-02-25T14:29:07Z</time>
      </trkpt>
      <trkpt lat="45.25641" lon="5.02824">
        <ele>252.77</ele>
        <time>2017-02-25T14:29:08Z</time>
      </trkpt>
      <trkpt lat="45.25641" lon="5.02824">
        <ele>252.77</ele>
        <time>2017-02-25T14:29:09Z</time>
      </trkpt>
      <trkpt lat="45.25641" lon="5.02824">
        <ele>252.77</ele>
        <time>2017-02-25T14:29:10Z</time>
      </trkpt>
      <trkpt lat="45.25641" lon="5.02824">
        <ele>252.77</ele>
        <time>2017-02-25T14:29:11Z</time>
      </trkpt>
      <trkpt lat="45.25641" lon="5.02824">
        <ele>252.77</ele>
        <time>2017-02-25T14:29:12Z</time>
      </trkpt>
      <trkpt lat="45.25641" lon="5.02824">
        <ele>252.77</ele>
        <time>2017-02-25T14:29:13Z</time>
      </trkpt>
      <trkpt lat="45.25641" lon="5.02824">
        <ele>252.77</ele>
        <time>2017-02-25T14:29:14Z</time>
      </trkpt>
      <trkpt lat="45.25641" lon="5.02824">
        <ele>252.77</ele>
        <time>2017-02-25T14:29:15Z</time>
      </trkpt>
      <trkpt lat="45.25641" lon="5.02824">
        <ele>252.77</ele>
        <time>2017-02-25T14:29:16Z</time>
      </trkpt>
      <trkpt lat="45.25641" lon="5.02824">
        <ele>252.77</ele>
        <time>2017-02-25T14:29:17Z</time>
      </trkpt>
      <trkpt lat="45.25641" lon="5.02824">
        <ele>252.77</ele>
        <time>2017-02-25T14:29:18Z</time>
      </trkpt>
      <trkpt lat="45.25641" lon="5.02824">
        <ele>252.77</ele>
        <time>2017-02-25T14:29:19Z</time>
      </trkpt>
      <trkpt lat="45.25641" lon="5.02824">
        <ele>252.77</ele>
        <time>2017-02-25T14:29:20Z</time>
      </trkpt>
      <trkpt lat="45.25641" lon="5.02824">
        <ele>252.77</ele>
        <time>2017-02-25T14:29:21Z</time>
      </trkpt>
      <trkpt lat="45.25641" lon="5.02824">
        <ele>252.77</ele>
        <time>2017-02-25T14:29:22Z</time>
      </trkpt>
      <trkpt lat="45.25641" lon="5.02824">
        <ele>252.77</ele>
        <time>2017-02-25T14:29:23Z</time>
      </trkpt>
      <trkpt lat="45.25641" lon="5.02824">
        <ele>252.77</ele>
        <time>2017-02-25T14:29:24Z</time>
      </trkpt>
      <trkpt lat="45.25641" lon="5.02824">
        <ele>252.77</ele>
        <time>2017-02-25T14:29:25Z</time>
      </trkpt>
      <trkpt lat="45.25641" lon="5.02824">
        <ele>252.77</ele>
        <time>2017-02-25T14:29:26Z</time>
      </trkpt>
      <trkpt lat="45.25641" lon="5.02824">
        <ele>252.77</ele>
        <time>2017-02-25T14:29:27Z</time>
      </trkpt>
      <trkpt lat="45.25641" lon="5.02824">
        <ele>252.77</ele>
        <time>2017-02-25T14:29:28Z</time>
      </trkpt>
      <trkpt lat="45.25641" lon="5.02824">
        <ele>252.77</ele>
        <time>2017-02-25T14:29:29Z</time>
      </trkpt>
      <trkpt lat="45.25641" lon="5.02824">
        <ele>252.77</ele>
        <time>2017-02-25T14:29:30Z</time>
      </trkpt>
      <trkpt lat="45.25641" lon="5.02824">
        <ele>252.77</ele>
        <time>2017-02-25T14:29:31Z</time>
      </trkpt>
      <trkpt lat="45.25641" lon="5.02824">
        <ele>252.77</ele>
        <time>2017-02-25T14:29:32Z</time>
      </trkpt>
      <trkpt lat="45.25641" lon="5.02824">
        <ele>252.77</ele>
        <time>2017-02-25T14:29:33Z</time>
      </trkpt>
      <trkpt lat="45.25641" lon="5.02824">
        <ele>252.77</ele>
        <time>2017-02-25T14:29:34Z</time>
      </trkpt>
      <trkpt lat="45.25641" lon="5.02824">
        <ele>252.77</ele>
        <time>2017-02-25T14:29:35Z</time>
      </trkpt>
      <trkpt lat="45.25641" lon="5.02824">
        <ele>252.77</ele>
        <time>2017-02-25T14:29:36Z</time>
      </trkpt>
      <trkpt lat="45.25641" lon="5.02824">
        <ele>252.77</ele>
        <time>2017-02-25T14:29:37Z</time>
      </trkpt>
      <trkpt lat="45.25641" lon="5.02824">
        <ele>252.77</ele>
        <time>2017-02-25T14:29:38Z</time>
      </trkpt>
      <trkpt lat="45.25641" lon="5.02824">
        <ele>252.77</ele>
        <time>2017-02-25T14:29:39Z</time>
      </trkpt>
      <trkpt lat="45.25641" lon="5.02824">
        <ele>252.77</ele>
        <time>2017-02-25T14:29:40Z</time>
      </trkpt>
      <trkpt lat="45.25641" lon="5.02824">
        <ele>252.77</ele>
        <time>2017-02-25T14:29:41Z</time>
      </trkpt>
      <trkpt lat="45.25641" lon="5.02824">
        <ele>252.77</ele>
        <time>2017-02-25T14:29:42Z</time>
      </trkpt>
      <trkpt lat="45.25641" lon="5.02824">
        <ele>252.77</ele>
        <time>2017-02-25T14:29:43Z</time>
      </trkpt>
      <trkpt lat="45.25641" lon="5.02824">
        <ele>252.77</ele>
        <time>2017-02-25T14:29:44Z</time>
      </trkpt>
      <trkpt lat="45.25641" lon="5.02824">
        <ele>252.77</ele>
        <time>2017-02-25T14:29:45Z</time>
      </trkpt>
      <trkpt lat="45.25641" lon="5.02824">
        <ele>252.77</ele>
        <time>2017-02-25T14:29:46Z</time>
      </trkpt>
      <trkpt lat="45.25641" lon="5.02824">
        <ele>252.77</ele>
        <time>2017-02-25T14:29:47Z</time>
      </trkpt>
      <trkpt lat="45.25641" lon="5.02824">
        <ele>252.77</ele>
        <time>2017-02-25T14:29:48Z</time>
      </trkpt>
      <trkpt lat="45.25641" lon="5.02824">
        <ele>252.77</ele>
        <time>2017-02-25T14:29:49Z</time>
      </trkpt>
      <trkpt lat="45.25641" lon="5.02824">
        <ele>252.77</ele>
        <time>2017-02-25T14:29:50Z</time>
      </trkpt>
      <trkpt lat="45.25641" lon="5.02824">
        <ele>252.77</ele>
        <time>2017-02-25T14:29:51Z</time>
      </trkpt>
      <trkpt lat="45.25641" lon="5.02824">
        <ele>252.77</ele>
        <time>2017-02-25T14:29:52Z</time>
      </trkpt>
      <trkpt lat="45.25641" lon="5.02824">
        <ele>252.77</ele>
        <time>2017-02-25T14:29:53Z</time>
      </trkpt>
      <trkpt lat="45.25641" lon="5.02824">
        <ele>252.77</ele>
        <time>2017-02-25T14:29:54Z</time>
      </trkpt>
      <trkpt lat="45.25641" lon="5.02824">
        <ele>252.77</ele>
        <time>2017-02-25T14:29:55Z</time>
      </trkpt>
      <trkpt lat="45.25641" lon="5.02824">
        <ele>252.77</ele>
        <time>2017-02-25T14:29:56Z</time>
      </trkpt>
      <trkpt lat="45.25641" lon="5.02824">
        <ele>252.77</ele>
        <time>2017-02-25T14:29:57Z</time>
      </trkpt>
      <trkpt lat="45.25641" lon="5.02824">
        <ele>252.77</ele>
        <time>2017-02-25T14:29:58Z</time>
      </trkpt>
      <trkpt lat="45.25641" lon="5.02824">
        <ele>252.77</ele>
        <time>2017-02-25T14:29:59Z</time>
      </trkpt>
      <trkpt lat="45.25641" lon="5.02824">
        <ele>252.77</ele>
        <time>2017-02-25T14:30:00Z</time>
      </trkpt>
      <trkpt lat="45.25641" lon="5.02824">
        <ele>252.77</ele>
        <time>2017-02-25T14:30:01Z</time>
      </trkpt>
      <trkpt lat="45.25641" lon="5.02824">
        <ele>252.77</ele>
        <time>2017-02-25T14:30:02Z</time>
      </trkpt>
      <trkpt lat="45.25641" lon="5.02824">
        <ele>252.77</ele>
        <time>2017-02-25T14:30:03Z</time>
      </trkpt>
      <trkpt lat="45.25641" lon="5.02824">
        <ele>252.77</ele>
        <time>2017-02-25T14:30:04Z</time>
      </trkpt>
      <trkpt lat="45.25641" lon="5.02824">
        <ele>252.77</ele>
        <time>2017-02-25T14:30:05Z</time>
      </trkpt>
      <trkpt lat="45.25641" lon="5.02824">
        <ele>252.77</ele>
        <time>2017-02-25T14:30:06Z</time>
      </trkpt>
      <trkpt lat="45.25641" lon="5.02824">
        <ele>252.77</ele>
        <time>2017-02-25T14:30:07Z</time>
      </trkpt>
      <trkpt lat="45.25641" lon="5.02824">
        <ele>252.77</ele>
        <time>2017-02-25T14:30:08Z</time>
      </trkpt>
      <trkpt lat="45.25641" lon="5.02824">
        <ele>252.77</ele>
        <time>2017-02-25T14:30:09Z</time>
      </trkpt>
      <trkpt lat="45.25641" lon="5.02824">
        <ele>252.77</ele>
        <time>2017-02-25T14:30:10Z</time>
      </trkpt>
      <trkpt lat="45.25641" lon="5.02824">
        <ele>252.77</ele>
        <time>2017-02-25T14:30:11Z</time>
      </trkpt>
      <trkpt lat="45.25641" lon="5.02824">
        <ele>252.77</ele>
        <time>2017-02-25T14:30:12Z</time>
      </trkpt>
      <trkpt lat="45.25641" lon="5.02824">
        <ele>252.77</ele>
        <time>2017-02-25T14:30:13Z</time>
      </trkpt>
      <trkpt lat="45.25641" lon="5.02824">
        <ele>252.77</ele>
        <time>2017-02-25T14:30:14Z</time>
      </trkpt>
      <trkpt lat="45.25641" lon="5.02824">
        <ele>252.77</ele>
        <time>2017-02-25T14:30:15Z</time>
      </trkpt>
      <trkpt lat="45.25641" lon="5.02824">
        <ele>252.77</ele>
        <time>2017-02-25T14:30:16Z</time>
      </trkpt>
      <trkpt lat="45.25641" lon="5.02824">
        <ele>252.77</ele>
        <time>2017-02-25T14:30:17Z</time>
      </trkpt>
      <trkpt lat="45.25641" lon="5.02824">
        <ele>252.77</ele>
        <time>2017-02-25T14:30:18Z</time>
      </trkpt>
      <trkpt lat="45.25641" lon="5.02824">
        <ele>252.77</ele>
        <time>2017-02-25T14:30:19Z</time>
      </trkpt>
      <trkpt lat="45.25641" lon="5.02824">
        <ele>252.77</ele>
        <time>2017-02-25T14:30:20Z</time>
      </trkpt>
      <trkpt lat="45.25641" lon="5.02824">
        <ele>252.77</ele>
        <time>2017-02-25T14:30:21Z</time>
      </trkpt>
      <trkpt lat="45.25641" lon="5.02824">
        <ele>252.77</ele>
        <time>2017-02-25T14:30:22Z</time>
      </trkpt>
      <trkpt lat="45.25641" lon="5.02824">
        <ele>252.77</ele>
        <time>2017-02-25T14:30:23Z</time>
      </trkpt>
      <trkpt lat="45.25641" lon="5.02824">
        <ele>252.77</ele>
        <time>2017-02-25T14:30:24Z</time>
      </trkpt>
      <trkpt lat="45.25641" lon="5.02824">
        <ele>252.77</ele>
        <time>2017-02-25T14:30:25Z</time>
      </trkpt>
      <trkpt lat="45.25641" lon="5.02824">
        <ele>252.77</ele>
        <time>2017-02-25T14:30:26Z</time>
      </trkpt>
      <trkpt lat="45.25641" lon="5.02824">
        <ele>252.77</ele>
        <time>2017-02-25T14:30:27Z</time>
      </trkpt>
      <trkpt lat="45.25641" lon="5.02824">
        <ele>252.77</ele>
        <time>2017-02-25T14:30:28Z</time>
      </trkpt>
      <trkpt lat="45.25641" lon="5.02824">
        <ele>252.77</ele>
        <time>2017-02-25T14:30:29Z</time>
      </trkpt>
      <trkpt lat="45.25641" lon="5.02824">
        <ele>252.77</ele>
        <time>2017-02-25T14:30:30Z</time>
      </trkpt>
      <trkpt lat="45.25641" lon="5.02824">
        <ele>252.77</ele>
        <time>2017-02-25T14:30:31Z</time>
      </trkpt>
      <trkpt lat="45.25641" lon="5.02824">
        <ele>252.77</ele>
        <time>2017-02-25T14:30:32Z</time>
      </trkpt>
      <trkpt lat="45.25641" lon="5.02824">
        <ele>252.77</ele>
        <time>2017-02-25T14:30:33Z</time>
      </trkpt>
      <trkpt lat="45.25641" lon="5.02824">
        <ele>252.77</ele>
        <time>2017-02-25T14:30:34Z</time>
      </trkpt>
      <trkpt lat="45.25641" lon="5.02824">
        <ele>252.77</ele>
        <time>2017-02-25T14:30:35Z</time>
      </trkpt>
      <trkpt lat="45.25641" lon="5.02824">
        <ele>252.77</ele>
        <time>2017-02-25T14:30:36Z</time>
      </trkpt>
      <trkpt lat="45.25641" lon="5.02824">
        <ele>252.77</ele>
        <time>2017-02-25T14:30:37Z</time>
      </trkpt>
      <trkpt lat="45.25641" lon="5.02824">
        <ele>252.77</ele>
        <time>2017-02-25T14:30:38Z</time>
      </trkpt>
      <trkpt lat="45.25641" lon="5.02824">
        <ele>252.77</ele>
        <time>2017-02-25T14:30:39Z</time>
      </trkpt>
      <trkpt lat="45.25641" lon="5.02824">
        <ele>252.77</ele>
        <time>2017-02-25T14:30:40Z</time>
      </trkpt>
      <trkpt lat="45.25641" lon="5.02824">
        <ele>252.77</ele>
        <time>2017-02-25T14:30:41Z</time>
      </trkpt>
      <trkpt lat="45.25641" lon="5.02824">
        <ele>252.77</ele>
        <time>2017-02-25T14:30:42Z</time>
      </trkpt>
      <trkpt lat="45.25641" lon="5.02824">
        <ele>252.77</ele>
        <time>2017-02-25T14:30:43Z</time>
      </trkpt>
      <trkpt lat="45.25641" lon="5.02824">
        <ele>252.77</ele>
        <time>2017-02-25T14:30:44Z</time>
      </trkpt>
      <trkpt lat="45.25641" lon="5.02824">
        <ele>252.77</ele>
        <time>2017-02-25T14:30:45Z</time>
      </trkpt>
      <trkpt lat="45.25641" lon="5.02824">
        <ele>252.77</ele>
        <time>2017-02-25T14:30:46Z</time>
      </trkpt>
      <trkpt lat="45.25641" lon="5.02824">
        <ele>252.77</ele>
        <time>2017-02-25T14:30:47Z</time>
      </trkpt>
      <trkpt lat="45.25641" lon="5.02824">
        <ele>252.77</ele>
        <time>2017-02-25T14:30:48Z</time>
      </trkpt>
      <trkpt lat="45.25641" lon="5.02824">
        <ele>252.77</ele>
        <time>2017-02-25T14:30:49Z</time>
      </trkpt>
      <trkpt lat="45.25641" lon="5.02824">
        <ele>252.77</ele>
        <time>2017-02-25T14:30:50Z</time>
      </trkpt>
      <trkpt lat="45.25641" lon="5.02824">
        <ele>252.77</ele>
        <time>2017-02-25T14:30:51Z</time>
      </trkpt>
      <trkpt lat="45.25641" lon="5.02824">
        <ele>252.77</ele>
        <time>2017-02-25T14:30:52Z</time>
      </trkpt>
      <trkpt lat="45.25641" lon="5.02824">
        <ele>252.77</ele>
        <time>2017-02-25T14:30:53Z</time>
      </trkpt>
      <trkpt lat="45.25641" lon="5.02824">
        <ele>252.77</ele>
        <time>2017-02-25T14:30:54Z</time>
      </trkpt>
      <trkpt lat="45.25641" lon="5.02824">
        <ele>252.77</ele>
        <time>2017-02-25T14:30:55Z</time>
      </trkpt>
      <trkpt lat="45.25641" lon="5.02824">
        <ele>252.77</ele>
        <time>2017-02-25T14:30:56Z</time>
      </trkpt>
      <trkpt lat="45.25641" lon="5.02824">
        <ele>252.77</ele>
        <time>2017-02-25T14:30:57Z</time>
      </trkpt>
      <trkpt lat="45.25641" lon="5.02824">
        <ele>252.77</ele>
        <time>2017-02-25T14:30:58Z</time>
      </trkpt>
      <trkpt lat="45.25641" lon="5.02824">
        <ele>252.77</ele>
        <time>2017-02-25T14:30:59Z</time>
      </trkpt>
      <trkpt lat="45.25641" lon="5.02824">
        <ele>252.77</ele>
        <time>2017-02-25T14:31:00Z</time>
      </trkpt>
      <trkpt lat="45.25641" lon="5.02824">
        <ele>252.77</ele>
        <time>2017-02-25T14:31:01Z</time>
      </trkpt>
      <trkpt lat="45.25641" lon="5.02824">
        <ele>252.77</ele>
        <time>2017-02-25T14:31:02Z</time>
      </trkpt>
      <trkpt lat="45.25641" lon="5.02824">
        <ele>252.77</ele>
        <time>2017-02-25T14:31:03Z</time>
      </trkpt>
      <trkpt lat="45.25641" lon="5.02824">
        <ele>252.77</ele>
        <time>2017-02-25T14:31:04Z</time>
      </trkpt>
      <trkpt lat="45.25641" lon="5.02824">
        <ele>252.77</ele>
        <time>2017-02-25T14:31:05Z</time>
      </trkpt>
      <trkpt lat="45.25641" lon="5.02824">
        <ele>252.77</ele>
        <time>2017-02-25T14:31:06Z</time>
      </trkpt>
      <trkpt lat="45.25641" lon="5.02824">
        <ele>252.77</ele>
        <time>2017-02-25T14:31:07Z</time>
      </trkpt>
      <trkpt lat="45.25641" lon="5.02824">
        <ele>252.77</ele>
        <time>2017-02-25T14:31:08Z</time>
      </trkpt>
      <trkpt lat="45.25641" lon="5.02824">
        <ele>252.77</ele>
        <time>2017-02-25T14:31:09Z</time>
      </trkpt>
      <trkpt lat="45.25641" lon="5.02824">
        <ele>252.77</ele>
        <time>2017-02-25T14:31:10Z</time>
      </trkpt>
      <trkpt lat="45.25641" lon="5.02824">
        <ele>252.77</ele>
        <time>2017-02-25T14:31:11Z</time>
      </trkpt>
      <trkpt lat="45.25641" lon="5.02824">
        <ele>252.77</ele>
        <time>2017-02-25T14:31:12Z</time>
      </trkpt>
      <trkpt lat="45.25641" lon="5.02824">
        <ele>252.77</ele>
        <time>2017-02-25T14:31:13Z</time>
      </trkpt>
      <trkpt lat="45.25641" lon="5.02824">
        <ele>252.77</ele>
        <time>2017-02-25T14:31:14Z</time>
      </trkpt>
      <trkpt lat="45.25641" lon="5.02824">
        <ele>252.77</ele>
        <time>2017-02-25T14:31:15Z</time>
      </trkpt>
      <trkpt lat="45.25641" lon="5.02824">
        <ele>252.77</ele>
        <time>2017-02-25T14:31:16Z</time>
      </trkpt>
      <trkpt lat="45.25641" lon="5.02824">
        <ele>252.77</ele>
        <time>2017-02-25T14:31:17Z</time>
      </trkpt>
      <trkpt lat="45.25641" lon="5.02824">
        <ele>252.77</ele>
        <time>2017-02-25T14:31:18Z</time>
      </trkpt>
      <trkpt lat="45.25641" lon="5.02824">
        <ele>252.77</ele>
        <time>2017-02-25T14:31:19Z</time>
      </trkpt>
      <trkpt lat="45.25641" lon="5.02824">
        <ele>252.77</ele>
        <time>2017-02-25T14:31:20Z</time>
      </trkpt>
      <trkpt lat="45.25639" lon="5.02812">
        <ele>252.29</ele>
        <time>2017-02-25T14:31:21Z</time>
      </trkpt>
      <trkpt lat="45.25638" lon="5.02812">
        <ele>252.19</ele>
        <time>2017-02-25T14:31:22Z</time>
      </trkpt>
      <trkpt lat="45.25639" lon="5.02812">
        <ele>252.17</ele>
        <time>2017-02-25T14:31:23Z</time>
      </trkpt>
      <trkpt lat="45.25639" lon="5.02812">
        <ele>252.17</ele>
        <time>2017-02-25T14:31:24Z</time>
      </trkpt>
      <trkpt lat="45.25639" lon="5.02812">
        <ele>252.17</ele>
        <time>2017-02-25T14:31:25Z</time>
      </trkpt>
      <trkpt lat="45.25639" lon="5.02812">
        <ele>252.17</ele>
        <time>2017-02-25T14:31:26Z</time>
      </trkpt>
      <trkpt lat="45.25639" lon="5.02812">
        <ele>252.17</ele>
        <time>2017-02-25T14:31:27Z</time>
      </trkpt>
      <trkpt lat="45.25639" lon="5.02812">
        <ele>252.17</ele>
        <time>2017-02-25T14:31:28Z</time>
      </trkpt>
      <trkpt lat="45.25639" lon="5.02812">
        <ele>252.17</ele>
        <time>2017-02-25T14:31:29Z</time>
      </trkpt>
      <trkpt lat="45.25639" lon="5.02812">
        <ele>252.17</ele>
        <time>2017-02-25T14:31:30Z</time>
      </trkpt>
      <trkpt lat="45.25639" lon="5.02812">
        <ele>252.17</ele>
        <time>2017-02-25T14:31:31Z</time>
      </trkpt>
      <trkpt lat="45.25639" lon="5.02812">
        <ele>252.17</ele>
        <time>2017-02-25T14:31:32Z</time>
      </trkpt>
      <trkpt lat="45.25639" lon="5.02812">
        <ele>252.17</ele>
        <time>2017-02-25T14:31:33Z</time>
      </trkpt>
      <trkpt lat="45.25639" lon="5.02812">
        <ele>252.17</ele>
        <time>2017-02-25T14:31:34Z</time>
      </trkpt>
      <trkpt lat="45.25639" lon="5.02812">
        <ele>252.17</ele>
        <time>2017-02-25T14:31:35Z</time>
      </trkpt>
      <trkpt lat="45.25639" lon="5.02812">
        <ele>252.17</ele>
        <time>2017-02-25T14:31:36Z</time>
      </trkpt>
      <trkpt lat="45.25639" lon="5.02812">
        <ele>252.17</ele>
        <time>2017-02-25T14:31:37Z</time>
      </trkpt>
      <trkpt lat="45.25639" lon="5.02812">
        <ele>252.17</ele>
        <time>2017-02-25T14:31:38Z</time>
      </trkpt>
      <trkpt lat="45.25639" lon="5.02812">
        <ele>252.17</ele>
        <time>2017-02-25T14:31:39Z</time>
      </trkpt>
      <trkpt lat="45.25639" lon="5.02812">
        <ele>252.17</ele>
        <time>2017-02-25T14:31:40Z</time>
      </trkpt>
      <trkpt lat="45.25639" lon="5.02812">
        <ele>252.17</ele>
        <time>2017-02-25T14:31:41Z</time>
      </trkpt>
      <trkpt lat="45.25639" lon="5.02812">
        <ele>252.17</ele>
        <time>2017-02-25T14:31:42Z</time>
      </trkpt>
      <trkpt lat="45.25639" lon="5.02812">
        <ele>252.17</ele>
        <time>2017-02-25T14:31:43Z</time>
      </trkpt>
      <trkpt lat="45.25639" lon="5.02812">
        <ele>252.17</ele>
        <time>2017-02-25T14:31:44Z</time>
      </trkpt>
      <trkpt lat="45.25639" lon="5.02812">
        <ele>252.17</ele>
        <time>2017-02-25T14:31:45Z</time>
      </trkpt>
      <trkpt lat="45.25639" lon="5.02812">
        <ele>252.17</ele>
        <time>2017-02-25T14:31:46Z</time>
      </trkpt>
      <trkpt lat="45.25639" lon="5.02812">
        <ele>252.17</ele>
        <time>2017-02-25T14:31:47Z</time>
      </trkpt>
      <trkpt lat="45.25639" lon="5.02812">
        <ele>252.17</ele>
        <time>2017-02-25T14:31:48Z</time>
      </trkpt>
      <trkpt lat="45.25639" lon="5.02812">
        <ele>252.17</ele>
        <time>2017-02-25T14:31:49Z</time>
      </trkpt>
      <trkpt lat="45.25639" lon="5.02812">
        <ele>252.17</ele>
        <time>2017-02-25T14:31:50Z</time>
      </trkpt>
      <trkpt lat="45.25639" lon="5.02812">
        <ele>252.17</ele>
        <time>2017-02-25T14:31:51Z</time>
      </trkpt>
      <trkpt lat="45.25639" lon="5.02812">
        <ele>252.17</ele>
        <time>2017-02-25T14:31:52Z</time>
      </trkpt>
      <trkpt lat="45.25639" lon="5.02812">
        <ele>252.17</ele>
        <time>2017-02-25T14:31:53Z</time>
      </trkpt>
      <trkpt lat="45.25639" lon="5.02812">
        <ele>252.17</ele>
        <time>2017-02-25T14:31:54Z</time>
      </trkpt>
      <trkpt lat="45.25639" lon="5.02812">
        <ele>252.17</ele>
        <time>2017-02-25T14:31:55Z</time>
      </trkpt>
      <trkpt lat="45.25639" lon="5.02812">
        <ele>252.17</ele>
        <time>2017-02-25T14:31:56Z</time>
      </trkpt>
      <trkpt lat="45.25639" lon="5.02812">
        <ele>252.17</ele>
        <time>2017-02-25T14:31:57Z</time>
      </trkpt>
      <trkpt lat="45.25639" lon="5.02812">
        <ele>252.17</ele>
        <time>2017-02-25T14:31:58Z</time>
      </trkpt>
      <trkpt lat="45.25639" lon="5.02812">
        <ele>252.17</ele>
        <time>2017-02-25T14:31:59Z</time>
      </trkpt>
      <trkpt lat="45.25639" lon="5.02812">
        <ele>252.17</ele>
        <time>2017-02-25T14:32:00Z</time>
      </trkpt>
      <trkpt lat="45.25639" lon="5.02812">
        <ele>252.17</ele>
        <time>2017-02-25T14:32:01Z</time>
      </trkpt>
      <trkpt lat="45.25639" lon="5.02812">
        <ele>252.17</ele>
        <time>2017-02-25T14:32:02Z</time>
      </trkpt>
      <trkpt lat="45.25639" lon="5.02812">
        <ele>252.17</ele>
        <time>2017-02-25T14:32:03Z</time>
      </trkpt>
      <trkpt lat="45.25639" lon="5.02812">
        <ele>252.17</ele>
        <time>2017-02-25T14:32:04Z</time>
      </trkpt>
      <trkpt lat="45.25639" lon="5.02812">
        <ele>252.17</ele>
        <time>2017-02-25T14:32:05Z</time>
      </trkpt>
      <trkpt lat="45.25639" lon="5.02812">
        <ele>252.17</ele>
        <time>2017-02-25T14:32:06Z</time>
      </trkpt>
      <trkpt lat="45.25639" lon="5.02812">
        <ele>252.17</ele>
        <time>2017-02-25T14:32:07Z</time>
      </trkpt>
      <trkpt lat="45.25639" lon="5.02812">
        <ele>252.17</ele>
        <time>2017-02-25T14:32:08Z</time>
      </trkpt>
      <trkpt lat="45.25639" lon="5.02812">
        <ele>252.17</ele>
        <time>2017-02-25T14:32:09Z</time>
      </trkpt>
      <trkpt lat="45.25639" lon="5.02812">
        <ele>252.17</ele>
        <time>2017-02-25T14:32:10Z</time>
      </trkpt>
      <trkpt lat="45.25639" lon="5.02812">
        <ele>252.17</ele>
        <time>2017-02-25T14:32:11Z</time>
      </trkpt>
      <trkpt lat="45.25639" lon="5.02812">
        <ele>252.17</ele>
        <time>2017-02-25T14:32:12Z</time>
      </trkpt>
      <trkpt lat="45.25639" lon="5.02812">
        <ele>252.17</ele>
        <time>2017-02-25T14:32:13Z</time>
      </trkpt>
      <trkpt lat="45.25639" lon="5.02812">
        <ele>252.17</ele>
        <time>2017-02-25T14:32:14Z</time>
      </trkpt>
      <trkpt lat="45.25639" lon="5.02812">
        <ele>252.17</ele>
        <time>2017-02-25T14:32:15Z</time>
      </trkpt>
      <trkpt lat="45.25639" lon="5.02812">
        <ele>252.17</ele>
        <time>2017-02-25T14:32:16Z</time>
      </trkpt>
      <trkpt lat="45.25639" lon="5.02812">
        <ele>252.17</ele>
        <time>2017-02-25T14:32:17Z</time>
      </trkpt>
      <trkpt lat="45.25639" lon="5.02812">
        <ele>252.17</ele>
        <time>2017-02-25T14:32:18Z</time>
      </trkpt>
      <trkpt lat="45.25639" lon="5.02812">
        <ele>252.17</ele>
        <time>2017-02-25T14:32:19Z</time>
      </trkpt>
      <trkpt lat="45.25639" lon="5.02812">
        <ele>252.17</ele>
        <time>2017-02-25T14:32:20Z</time>
      </trkpt>
      <trkpt lat="45.25639" lon="5.02812">
        <ele>252.17</ele>
        <time>2017-02-25T14:32:21Z</time>
      </trkpt>
      <trkpt lat="45.25639" lon="5.02812">
        <ele>252.17</ele>
        <time>2017-02-25T14:32:22Z</time>
      </trkpt>
      <trkpt lat="45.25646" lon="5.02807">
        <ele>252.57</ele>
        <time>2017-02-25T14:32:23Z</time>
      </trkpt>
      <trkpt lat="45.25645" lon="5.02806">
        <ele>252.73</ele>
        <time>2017-02-25T14:32:24Z</time>
      </trkpt>
      <trkpt lat="45.25645" lon="5.02805">
        <ele>252.84</ele>
        <time>2017-02-25T14:32:25Z</time>
      </trkpt>
      <trkpt lat="45.25644" lon="5.02804">
        <ele>252.94</ele>
        <time>2017-02-25T14:32:26Z</time>
      </trkpt>
      <trkpt lat="45.25644" lon="5.02803">
        <ele>253.04</ele>
        <time>2017-02-25T14:32:27Z</time>
      </trkpt>
      <trkpt lat="45.25644" lon="5.02803">
        <ele>253.06</ele>
        <time>2017-02-25T14:32:28Z</time>
      </trkpt>
      <trkpt lat="45.25644" lon="5.02803">
        <ele>253.07</ele>
        <time>2017-02-25T14:32:29Z</time>
      </trkpt>
      <trkpt lat="45.25644" lon="5.02803">
        <ele>253.07</ele>
        <time>2017-02-25T14:32:30Z</time>
      </trkpt>
      <trkpt lat="45.25644" lon="5.02803">
        <ele>253.07</ele>
        <time>2017-02-25T14:32:31Z</time>
      </trkpt>
      <trkpt lat="45.25644" lon="5.02803">
        <ele>253.07</ele>
        <time>2017-02-25T14:32:32Z</time>
      </trkpt>
      <trkpt lat="45.25644" lon="5.02803">
        <ele>253.07</ele>
        <time>2017-02-25T14:32:33Z</time>
      </trkpt>
      <trkpt lat="45.25644" lon="5.02803">
        <ele>253.07</ele>
        <time>2017-02-25T14:32:34Z</time>
      </trkpt>
      <trkpt lat="45.25644" lon="5.02803">
        <ele>253.07</ele>
        <time>2017-02-25T14:32:35Z</time>
      </trkpt>
      <trkpt lat="45.25644" lon="5.02803">
        <ele>253.07</ele>
        <time>2017-02-25T14:32:36Z</time>
      </trkpt>
      <trkpt lat="45.25644" lon="5.02803">
        <ele>253.07</ele>
        <time>2017-02-25T14:32:37Z</time>
      </trkpt>
      <trkpt lat="45.2564" lon="5.02791">
        <ele>253.15</ele>
        <time>2017-02-25T14:32:38Z</time>
      </trkpt>
      <trkpt lat="45.25639" lon="5.0279">
        <ele>253.08</ele>
        <time>2017-02-25T14:32:39Z</time>
      </trkpt>
      <trkpt lat="45.25639" lon="5.02789">
        <ele>253.07</ele>
        <time>2017-02-25T14:32:40Z</time>
      </trkpt>
      <trkpt lat="45.25638" lon="5.02788">
        <ele>253.07</ele>
        <time>2017-02-25T14:32:41Z</time>
      </trkpt>
      <trkpt lat="45.25637" lon="5.02788">
        <ele>252.99</ele>
        <time>2017-02-25T14:32:42Z</time>
      </trkpt>
      <trkpt lat="45.25636" lon="5.02787">
        <ele>252.97</ele>
        <time>2017-02-25T14:32:43Z</time>
      </trkpt>
      <trkpt lat="45.25635" lon="5.02786">
        <ele>252.89</ele>
        <time>2017-02-25T14:32:44Z</time>
      </trkpt>
      <trkpt lat="45.25635" lon="5.02785">
        <ele>252.87</ele>
        <time>2017-02-25T14:32:45Z</time>
      </trkpt>
      <trkpt lat="45.25634" lon="5.02785">
        <ele>252.79</ele>
        <time>2017-02-25T14:32:46Z</time>
      </trkpt>
      <trkpt lat="45.25633" lon="5.02784">
        <ele>252.77</ele>
        <time>2017-02-25T14:32:47Z</time>
      </trkpt>
      <trkpt lat="45.25632" lon="5.02783">
        <ele>252.69</ele>
        <time>2017-02-25T14:32:48Z</time>
      </trkpt>
      <trkpt lat="45.25632" lon="5.02782">
        <ele>252.67</ele>
        <time>2017-02-25T14:32:49Z</time>
      </trkpt>
      <trkpt lat="45.25632" lon="5.02782">
        <ele>252.67</ele>
        <time>2017-02-25T14:32:50Z</time>
      </trkpt>
      <trkpt lat="45.25632" lon="5.02782">
        <ele>252.67</ele>
        <time>2017-02-25T14:32:51Z</time>
      </trkpt>
      <trkpt lat="45.25632" lon="5.02782">
        <ele>252.67</ele>
        <time>2017-02-25T14:32:52Z</time>
      </trkpt>
      <trkpt lat="45.25632" lon="5.02782">
        <ele>252.67</ele>
        <time>2017-02-25T14:32:53Z</time>
      </trkpt>
      <trkpt lat="45.25632" lon="5.02782">
        <ele>252.67</ele>
        <time>2017-02-25T14:32:54Z</time>
      </trkpt>
      <trkpt lat="45.25628" lon="5.02777">
        <ele>252.27</ele>
        <time>2017-02-25T14:32:55Z</time>
      </trkpt>
      <trkpt lat="45.25627" lon="5.02776">
        <ele>252.19</ele>
        <time>2017-02-25T14:32:56Z</time>
      </trkpt>
      <trkpt lat="45.25627" lon="5.02775">
        <ele>252.09</ele>
        <time>2017-02-25T14:32:57Z</time>
      </trkpt>
      <trkpt lat="45.25626" lon="5.02774">
        <ele>251.91</ele>
        <time>2017-02-25T14:32:58Z</time>
      </trkpt>
      <trkpt lat="45.25625" lon="5.02774">
        <ele>251.8</ele>
        <time>2017-02-25T14:32:59Z</time>
      </trkpt>
      <trkpt lat="45.25625" lon="5.02774">
        <ele>251.77</ele>
        <time>2017-02-25T14:33:00Z</time>
      </trkpt>
      <trkpt lat="45.25624" lon="5.02772">
        <ele>251.61</ele>
        <time>2017-02-25T14:33:01Z</time>
      </trkpt>
      <trkpt lat="45.25623" lon="5.02771">
        <ele>251.5</ele>
        <time>2017-02-25T14:33:02Z</time>
      </trkpt>
      <trkpt lat="45.25622" lon="5.02771">
        <ele>251.47</ele>
        <time>2017-02-25T14:33:03Z</time>
      </trkpt>
      <trkpt lat="45.25621" lon="5.0277">
        <ele>251.47</ele>
        <time>2017-02-25T14:33:04Z</time>
      </trkpt>
      <trkpt lat="45.2562" lon="5.02769">
        <ele>251.47</ele>
        <time>2017-02-25T14:33:05Z</time>
      </trkpt>
      <trkpt lat="45.2562" lon="5.02769">
        <ele>251.47</ele>
        <time>2017-02-25T14:33:06Z</time>
      </trkpt>
      <trkpt lat="45.2562" lon="5.02769">
        <ele>251.47</ele>
        <time>2017-02-25T14:33:07Z</time>
      </trkpt>
      <trkpt lat="45.2562" lon="5.02769">
        <ele>251.47</ele>
        <time>2017-02-25T14:33:08Z</time>
      </trkpt>
      <trkpt lat="45.2562" lon="5.02769">
        <ele>251.47</ele>
        <time>2017-02-25T14:33:09Z</time>
      </trkpt>
      <trkpt lat="45.2562" lon="5.02769">
        <ele>251.47</ele>
        <time>2017-02-25T14:33:10Z</time>
      </trkpt>
      <trkpt lat="45.2562" lon="5.02769">
        <ele>251.47</ele>
        <time>2017-02-25T14:33:11Z</time>
      </trkpt>
      <trkpt lat="45.2562" lon="5.02769">
        <ele>251.47</ele>
        <time>2017-02-25T14:33:12Z</time>
      </trkpt>
      <trkpt lat="45.2562" lon="5.02769">
        <ele>251.47</ele>
        <time>2017-02-25T14:33:13Z</time>
      </trkpt>
      <trkpt lat="45.2562" lon="5.02769">
        <ele>251.47</ele>
        <time>2017-02-25T14:33:14Z</time>
      </trkpt>
      <trkpt lat="45.2562" lon="5.02769">
        <ele>251.47</ele>
        <time>2017-02-25T14:33:15Z</time>
      </trkpt>
      <trkpt lat="45.25614" lon="5.02764">
        <ele>251.39</ele>
        <time>2017-02-25T14:33:16Z</time>
      </trkpt>
      <trkpt lat="45.25614" lon="5.02763">
        <ele>251.29</ele>
        <time>2017-02-25T14:33:17Z</time>
      </trkpt>
      <trkpt lat="45.25613" lon="5.02762">
        <ele>251.27</ele>
        <time>2017-02-25T14:33:18Z</time>
      </trkpt>
      <trkpt lat="45.25613" lon="5.02762">
        <ele>251.27</ele>
        <time>2017-02-25T14:33:19Z</time>
      </trkpt>
      <trkpt lat="45.25612" lon="5.02762">
        <ele>251.27</ele>
        <time>2017-02-25T14:33:20Z</time>
      </trkpt>
      <trkpt lat="45.25612" lon="5.02762">
        <ele>251.27</ele>
        <time>2017-02-25T14:33:21Z</time>
      </trkpt>
      <trkpt lat="45.25612" lon="5.02762">
        <ele>251.27</ele>
        <time>2017-02-25T14:33:22Z</time>
      </trkpt>
      <trkpt lat="45.25612" lon="5.02762">
        <ele>251.27</ele>
        <time>2017-02-25T14:33:23Z</time>
      </trkpt>
      <trkpt lat="45.25612" lon="5.02762">
        <ele>251.27</ele>
        <time>2017-02-25T14:33:24Z</time>
      </trkpt>
      <trkpt lat="45.25612" lon="5.02762">
        <ele>251.27</ele>
        <time>2017-02-25T14:33:25Z</time>
      </trkpt>
      <trkpt lat="45.25612" lon="5.02762">
        <ele>251.27</ele>
        <time>2017-02-25T14:33:26Z</time>
      </trkpt>
      <trkpt lat="45.25612" lon="5.02762">
        <ele>251.27</ele>
        <time>2017-02-25T14:33:27Z</time>
      </trkpt>
      <trkpt lat="45.25612" lon="5.02762">
        <ele>251.27</ele>
        <time>2017-02-25T14:33:28Z</time>
      </trkpt>
      <trkpt lat="45.25612" lon="5.02762">
        <ele>251.27</ele>
        <time>2017-02-25T14:33:29Z</time>
      </trkpt>
      <trkpt lat="45.25612" lon="5.02762">
        <ele>251.27</ele>
        <time>2017-02-25T14:33:30Z</time>
      </trkpt>
      <trkpt lat="45.25612" lon="5.02762">
        <ele>251.27</ele>
        <time>2017-02-25T14:33:31Z</time>
      </trkpt>
      <trkpt lat="45.25612" lon="5.02762">
        <ele>251.27</ele>
        <time>2017-02-25T14:33:32Z</time>
      </trkpt>
      <trkpt lat="45.25612" lon="5.02762">
        <ele>251.27</ele>
        <time>2017-02-25T14:33:33Z</time>
      </trkpt>
      <trkpt lat="45.25612" lon="5.02762">
        <ele>251.27</ele>
        <time>2017-02-25T14:33:34Z</time>
      </trkpt>
      <trkpt lat="45.25612" lon="5.02762">
        <ele>251.27</ele>
        <time>2017-02-25T14:33:35Z</time>
      </trkpt>
      <trkpt lat="45.25612" lon="5.02762">
        <ele>251.27</ele>
        <time>2017-02-25T14:33:36Z</time>
      </trkpt>
      <trkpt lat="45.25612" lon="5.02762">
        <ele>251.27</ele>
        <time>2017-02-25T14:33:37Z</time>
      </trkpt>
      <trkpt lat="45.25612" lon="5.02762">
        <ele>251.27</ele>
        <time>2017-02-25T14:33:38Z</time>
      </trkpt>
      <trkpt lat="45.25612" lon="5.02762">
        <ele>251.27</ele>
        <time>2017-02-25T14:33:39Z</time>
      </trkpt>
      <trkpt lat="45.25612" lon="5.02762">
        <ele>251.27</ele>
        <time>2017-02-25T14:33:40Z</time>
      </trkpt>
      <trkpt lat="45.25612" lon="5.02762">
        <ele>251.27</ele>
        <time>2017-02-25T14:33:41Z</time>
      </trkpt>
      <trkpt lat="45.25612" lon="5.02762">
        <ele>251.27</ele>
        <time>2017-02-25T14:33:42Z</time>
      </trkpt>
      <trkpt lat="45.25612" lon="5.02762">
        <ele>251.27</ele>
        <time>2017-02-25T14:33:43Z</time>
      </trkpt>
      <trkpt lat="45.25612" lon="5.02762">
        <ele>251.27</ele>
        <time>2017-02-25T14:33:44Z</time>
      </trkpt>
      <trkpt lat="45.25612" lon="5.02762">
        <ele>251.27</ele>
        <time>2017-02-25T14:33:45Z</time>
      </trkpt>
      <trkpt lat="45.25612" lon="5.02762">
        <ele>251.27</ele>
        <time>2017-02-25T14:33:46Z</time>
      </trkpt>
      <trkpt lat="45.25612" lon="5.02762">
        <ele>251.27</ele>
        <time>2017-02-25T14:33:47Z</time>
      </trkpt>
      <trkpt lat="45.25612" lon="5.02762">
        <ele>251.27</ele>
        <time>2017-02-25T14:33:48Z</time>
      </trkpt>
      <trkpt lat="45.25612" lon="5.02762">
        <ele>251.27</ele>
        <time>2017-02-25T14:33:49Z</time>
      </trkpt>
      <trkpt lat="45.25612" lon="5.02762">
        <ele>251.27</ele>
        <time>2017-02-25T14:33:50Z</time>
      </trkpt>
      <trkpt lat="45.25612" lon="5.02762">
        <ele>251.27</ele>
        <time>2017-02-25T14:33:51Z</time>
      </trkpt>
      <trkpt lat="45.25612" lon="5.02762">
        <ele>251.27</ele>
        <time>2017-02-25T14:33:52Z</time>
      </trkpt>
      <trkpt lat="45.25612" lon="5.02762">
        <ele>251.27</ele>
        <time>2017-02-25T14:33:53Z</time>
      </trkpt>
      <trkpt lat="45.25612" lon="5.02762">
        <ele>251.27</ele>
        <time>2017-02-25T14:33:54Z</time>
      </trkpt>
      <trkpt lat="45.25612" lon="5.02762">
        <ele>251.27</ele>
        <time>2017-02-25T14:33:55Z</time>
      </trkpt>
      <trkpt lat="45.25612" lon="5.02762">
        <ele>251.27</ele>
        <time>2017-02-25T14:33:56Z</time>
      </trkpt>
      <trkpt lat="45.25612" lon="5.02762">
        <ele>251.27</ele>
        <time>2017-02-25T14:33:57Z</time>
      </trkpt>
      <trkpt lat="45.25612" lon="5.02762">
        <ele>251.27</ele>
        <time>2017-02-25T14:33:58Z</time>
      </trkpt>
      <trkpt lat="45.25612" lon="5.02762">
        <ele>251.27</ele>
        <time>2017-02-25T14:33:59Z</time>
      </trkpt>
      <trkpt lat="45.25612" lon="5.02762">
        <ele>251.27</ele>
        <time>2017-02-25T14:34:00Z</time>
      </trkpt>
      <trkpt lat="45.25612" lon="5.02762">
        <ele>251.27</ele>
        <time>2017-02-25T14:34:01Z</time>
      </trkpt>
      <trkpt lat="45.25612" lon="5.02762">
        <ele>251.27</ele>
        <time>2017-02-25T14:34:02Z</time>
      </trkpt>
      <trkpt lat="45.25612" lon="5.02762">
        <ele>251.27</ele>
        <time>2017-02-25T14:34:03Z</time>
      </trkpt>
      <trkpt lat="45.25612" lon="5.02762">
        <ele>251.27</ele>
        <time>2017-02-25T14:34:04Z</time>
      </trkpt>
      <trkpt lat="45.25612" lon="5.02762">
        <ele>251.27</ele>
        <time>2017-02-25T14:34:05Z</time>
      </trkpt>
      <trkpt lat="45.25612" lon="5.02762">
        <ele>251.27</ele>
        <time>2017-02-25T14:34:06Z</time>
      </trkpt>
      <trkpt lat="45.25612" lon="5.02762">
        <ele>251.27</ele>
        <time>2017-02-25T14:34:07Z</time>
      </trkpt>
      <trkpt lat="45.25612" lon="5.02762">
        <ele>251.27</ele>
        <time>2017-02-25T14:34:08Z</time>
      </trkpt>
      <trkpt lat="45.25612" lon="5.02762">
        <ele>251.27</ele>
        <time>2017-02-25T14:34:09Z</time>
      </trkpt>
      <trkpt lat="45.25612" lon="5.02762">
        <ele>251.27</ele>
        <time>2017-02-25T14:34:10Z</time>
      </trkpt>
      <trkpt lat="45.25612" lon="5.02762">
        <ele>251.27</ele>
        <time>2017-02-25T14:34:11Z</time>
      </trkpt>
      <trkpt lat="45.25612" lon="5.02762">
        <ele>251.27</ele>
        <time>2017-02-25T14:34:12Z</time>
      </trkpt>
      <trkpt lat="45.25612" lon="5.02762">
        <ele>251.27</ele>
        <time>2017-02-25T14:34:13Z</time>
      </trkpt>
      <trkpt lat="45.25612" lon="5.02762">
        <ele>251.27</ele>
        <time>2017-02-25T14:34:14Z</time>
      </trkpt>
      <trkpt lat="45.25612" lon="5.02762">
        <ele>251.27</ele>
        <time>2017-02-25T14:34:15Z</time>
      </trkpt>
      <trkpt lat="45.25612" lon="5.02762">
        <ele>251.27</ele>
        <time>2017-02-25T14:34:16Z</time>
      </trkpt>
      <trkpt lat="45.25612" lon="5.02762">
        <ele>251.27</ele>
        <time>2017-02-25T14:34:17Z</time>
      </trkpt>
      <trkpt lat="45.25612" lon="5.02762">
        <ele>251.27</ele>
        <time>2017-02-25T14:34:18Z</time>
      </trkpt>
      <trkpt lat="45.25612" lon="5.02762">
        <ele>251.27</ele>
        <time>2017-02-25T14:34:19Z</time>
      </trkpt>
      <trkpt lat="45.25612" lon="5.02762">
        <ele>251.27</ele>
        <time>2017-02-25T14:34:20Z</time>
      </trkpt>
      <trkpt lat="45.25612" lon="5.02762">
        <ele>251.27</ele>
        <time>2017-02-25T14:34:21Z</time>
      </trkpt>
      <trkpt lat="45.25612" lon="5.02762">
        <ele>251.27</ele>
        <time>2017-02-25T14:34:22Z</time>
      </trkpt>
      <trkpt lat="45.25612" lon="5.02762">
        <ele>251.27</ele>
        <time>2017-02-25T14:34:23Z</time>
      </trkpt>
      <trkpt lat="45.25612" lon="5.02762">
        <ele>251.27</ele>
        <time>2017-02-25T14:34:24Z</time>
      </trkpt>
      <trkpt lat="45.25612" lon="5.02762">
        <ele>251.27</ele>
        <time>2017-02-25T14:34:25Z</time>
      </trkpt>
      <trkpt lat="45.25612" lon="5.02762">
        <ele>251.27</ele>
        <time>2017-02-25T14:34:26Z</time>
      </trkpt>
      <trkpt lat="45.25612" lon="5.02762">
        <ele>251.27</ele>
        <time>2017-02-25T14:34:27Z</time>
      </trkpt>
      <trkpt lat="45.25612" lon="5.02762">
        <ele>251.27</ele>
        <time>2017-02-25T14:34:28Z</time>
      </trkpt>
      <trkpt lat="45.25612" lon="5.02762">
        <ele>251.27</ele>
        <time>2017-02-25T14:34:29Z</time>
      </trkpt>
      <trkpt lat="45.25612" lon="5.02762">
        <ele>251.27</ele>
        <time>2017-02-25T14:34:30Z</time>
      </trkpt>
      <trkpt lat="45.25612" lon="5.02762">
        <ele>251.27</ele>
        <time>2017-02-25T14:34:31Z</time>
      </trkpt>
      <trkpt lat="45.25612" lon="5.02762">
        <ele>251.27</ele>
        <time>2017-02-25T14:34:32Z</time>
      </trkpt>
      <trkpt lat="45.25612" lon="5.02762">
        <ele>251.27</ele>
        <time>2017-02-25T14:34:33Z</time>
      </trkpt>
      <trkpt lat="45.25612" lon="5.02762">
        <ele>251.27</ele>
        <time>2017-02-25T14:34:34Z</time>
      </trkpt>
      <trkpt lat="45.25612" lon="5.02762">
        <ele>251.27</ele>
        <time>2017-02-25T14:34:35Z</time>
      </trkpt>
      <trkpt lat="45.25612" lon="5.02762">
        <ele>251.27</ele>
        <time>2017-02-25T14:34:36Z</time>
      </trkpt>
      <trkpt lat="45.25612" lon="5.02762">
        <ele>251.27</ele>
        <time>2017-02-25T14:34:37Z</time>
      </trkpt>
      <trkpt lat="45.25612" lon="5.02762">
        <ele>251.27</ele>
        <time>2017-02-25T14:34:38Z</time>
      </trkpt>
      <trkpt lat="45.25612" lon="5.02762">
        <ele>251.27</ele>
        <time>2017-02-25T14:34:39Z</time>
      </trkpt>
      <trkpt lat="45.25612" lon="5.02762">
        <ele>251.27</ele>
        <time>2017-02-25T14:34:40Z</time>
      </trkpt>
      <trkpt lat="45.25612" lon="5.02762">
        <ele>251.27</ele>
        <time>2017-02-25T14:34:41Z</time>
      </trkpt>
      <trkpt lat="45.25612" lon="5.02762">
        <ele>251.27</ele>
        <time>2017-02-25T14:34:42Z</time>
      </trkpt>
      <trkpt lat="45.25612" lon="5.02762">
        <ele>251.27</ele>
        <time>2017-02-25T14:34:43Z</time>
      </trkpt>
      <trkpt lat="45.25612" lon="5.02762">
        <ele>251.27</ele>
        <time>2017-02-25T14:34:44Z</time>
      </trkpt>
      <trkpt lat="45.25612" lon="5.02762">
        <ele>251.27</ele>
        <time>2017-02-25T14:34:45Z</time>
      </trkpt>
      <trkpt lat="45.25612" lon="5.02762">
        <ele>251.27</ele>
        <time>2017-02-25T14:34:46Z</time>
      </trkpt>
      <trkpt lat="45.25612" lon="5.02762">
        <ele>251.27</ele>
        <time>2017-02-25T14:34:47Z</time>
      </trkpt>
      <trkpt lat="45.25612" lon="5.02762">
        <ele>251.27</ele>
        <time>2017-02-25T14:34:48Z</time>
      </trkpt>
      <trkpt lat="45.25612" lon="5.02762">
        <ele>251.27</ele>
        <time>2017-02-25T14:34:49Z</time>
      </trkpt>
      <trkpt lat="45.25612" lon="5.02762">
        <ele>251.27</ele>
        <time>2017-02-25T14:34:50Z</time>
      </trkpt>
      <trkpt lat="45.25612" lon="5.02762">
        <ele>251.27</ele>
        <time>2017-02-25T14:34:51Z</time>
      </trkpt>
      <trkpt lat="45.25612" lon="5.02762">
        <ele>251.27</ele>
        <time>2017-02-25T14:34:52Z</time>
      </trkpt>
      <trkpt lat="45.25612" lon="5.02762">
        <ele>251.27</ele>
        <time>2017-02-25T14:34:53Z</time>
      </trkpt>
      <trkpt lat="45.25612" lon="5.02762">
        <ele>251.27</ele>
        <time>2017-02-25T14:34:54Z</time>
      </trkpt>
      <trkpt lat="45.25611" lon="5.02775">
        <ele>251.03</ele>
        <time>2017-02-25T14:34:55Z</time>
      </trkpt>
      <trkpt lat="45.25611" lon="5.02775">
        <ele>250.98</ele>
        <time>2017-02-25T14:34:56Z</time>
      </trkpt>
      <trkpt lat="45.25611" lon="5.02775">
        <ele>250.97</ele>
        <time>2017-02-25T14:34:57Z</time>
      </trkpt>
      <trkpt lat="45.25611" lon="5.02775">
        <ele>250.97</ele>
        <time>2017-02-25T14:34:58Z</time>
      </trkpt>
      <trkpt lat="45.25611" lon="5.02775">
        <ele>250.97</ele>
        <time>2017-02-25T14:34:59Z</time>
      </trkpt>
      <trkpt lat="45.25611" lon="5.02775">
        <ele>250.97</ele>
        <time>2017-02-25T14:35:00Z</time>
      </trkpt>
      <trkpt lat="45.25611" lon="5.02775">
        <ele>250.97</ele>
        <time>2017-02-25T14:35:01Z</time>
      </trkpt>
      <trkpt lat="45.25611" lon="5.02775">
        <ele>250.97</ele>
        <time>2017-02-25T14:35:02Z</time>
      </trkpt>
      <trkpt lat="45.25611" lon="5.02775">
        <ele>250.97</ele>
        <time>2017-02-25T14:35:03Z</time>
      </trkpt>
      <trkpt lat="45.25611" lon="5.02775">
        <ele>250.97</ele>
        <time>2017-02-25T14:35:04Z</time>
      </trkpt>
      <trkpt lat="45.25611" lon="5.02775">
        <ele>250.97</ele>
        <time>2017-02-25T14:35:05Z</time>
      </trkpt>
      <trkpt lat="45.25611" lon="5.02775">
        <ele>250.97</ele>
        <time>2017-02-25T14:35:06Z</time>
      </trkpt>
      <trkpt lat="45.25611" lon="5.02775">
        <ele>250.97</ele>
        <time>2017-02-25T14:35:07Z</time>
      </trkpt>
      <trkpt lat="45.25611" lon="5.02775">
        <ele>250.97</ele>
        <time>2017-02-25T14:35:08Z</time>
      </trkpt>
      <trkpt lat="45.25611" lon="5.02775">
        <ele>250.97</ele>
        <time>2017-02-25T14:35:09Z</time>
      </trkpt>
      <trkpt lat="45.25611" lon="5.02775">
        <ele>250.97</ele>
        <time>2017-02-25T14:35:10Z</time>
      </trkpt>
      <trkpt lat="45.25611" lon="5.02775">
        <ele>250.97</ele>
        <time>2017-02-25T14:35:11Z</time>
      </trkpt>
      <trkpt lat="45.25611" lon="5.02775">
        <ele>250.97</ele>
        <time>2017-02-25T14:35:12Z</time>
      </trkpt>
      <trkpt lat="45.25611" lon="5.02775">
        <ele>250.97</ele>
        <time>2017-02-25T14:35:13Z</time>
      </trkpt>
      <trkpt lat="45.25611" lon="5.02775">
        <ele>250.97</ele>
        <time>2017-02-25T14:35:14Z</time>
      </trkpt>
      <trkpt lat="45.25611" lon="5.02775">
        <ele>250.97</ele>
        <time>2017-02-25T14:35:15Z</time>
      </trkpt>
      <trkpt lat="45.25611" lon="5.02775">
        <ele>250.97</ele>
        <time>2017-02-25T14:35:16Z</time>
      </trkpt>
      <trkpt lat="45.25611" lon="5.02775">
        <ele>250.97</ele>
        <time>2017-02-25T14:35:17Z</time>
      </trkpt>
      <trkpt lat="45.25611" lon="5.02775">
        <ele>250.97</ele>
        <time>2017-02-25T14:35:18Z</time>
      </trkpt>
      <trkpt lat="45.25611" lon="5.02775">
        <ele>250.97</ele>
        <time>2017-02-25T14:35:19Z</time>
      </trkpt>
      <trkpt lat="45.25611" lon="5.02775">
        <ele>250.97</ele>
        <time>2017-02-25T14:35:20Z</time>
      </trkpt>
      <trkpt lat="45.25611" lon="5.02775">
        <ele>250.97</ele>
        <time>2017-02-25T14:35:21Z</time>
      </trkpt>
      <trkpt lat="45.25611" lon="5.02775">
        <ele>250.97</ele>
        <time>2017-02-25T14:35:22Z</time>
      </trkpt>
      <trkpt lat="45.25611" lon="5.02775">
        <ele>250.97</ele>
        <time>2017-02-25T14:35:23Z</time>
      </trkpt>
      <trkpt lat="45.25611" lon="5.02775">
        <ele>250.97</ele>
        <time>2017-02-25T14:35:24Z</time>
      </trkpt>
      <trkpt lat="45.25611" lon="5.02775">
        <ele>250.97</ele>
        <time>2017-02-25T14:35:25Z</time>
      </trkpt>
      <trkpt lat="45.25611" lon="5.02775">
        <ele>250.97</ele>
        <time>2017-02-25T14:35:26Z</time>
      </trkpt>
      <trkpt lat="45.25611" lon="5.02775">
        <ele>250.97</ele>
        <time>2017-02-25T14:35:27Z</time>
      </trkpt>
      <trkpt lat="45.25611" lon="5.02775">
        <ele>250.97</ele>
        <time>2017-02-25T14:35:28Z</time>
      </trkpt>
      <trkpt lat="45.25611" lon="5.02775">
        <ele>250.97</ele>
        <time>2017-02-25T14:35:29Z</time>
      </trkpt>
      <trkpt lat="45.25611" lon="5.02775">
        <ele>250.97</ele>
        <time>2017-02-25T14:35:30Z</time>
      </trkpt>
      <trkpt lat="45.25611" lon="5.02775">
        <ele>250.97</ele>
        <time>2017-02-25T14:35:31Z</time>
      </trkpt>
      <trkpt lat="45.25611" lon="5.02775">
        <ele>250.97</ele>
        <time>2017-02-25T14:35:32Z</time>
      </trkpt>
      <trkpt lat="45.25611" lon="5.02775">
        <ele>250.97</ele>
        <time>2017-02-25T14:35:33Z</time>
      </trkpt>
      <trkpt lat="45.25611" lon="5.02775">
        <ele>250.97</ele>
        <time>2017-02-25T14:35:34Z</time>
      </trkpt>
      <trkpt lat="45.25611" lon="5.02775">
        <ele>250.97</ele>
        <time>2017-02-25T14:35:35Z</time>
      </trkpt>
      <trkpt lat="45.25611" lon="5.02775">
        <ele>250.97</ele>
        <time>2017-02-25T14:35:36Z</time>
      </trkpt>
      <trkpt lat="45.25611" lon="5.02775">
        <ele>250.97</ele>
        <time>2017-02-25T14:35:37Z</time>
      </trkpt>
      <trkpt lat="45.25611" lon="5.02775">
        <ele>250.97</ele>
        <time>2017-02-25T14:35:38Z</time>
      </trkpt>
      <trkpt lat="45.25611" lon="5.02775">
        <ele>250.97</ele>
        <time>2017-02-25T14:35:39Z</time>
      </trkpt>
      <trkpt lat="45.25611" lon="5.02775">
        <ele>250.97</ele>
        <time>2017-02-25T14:35:40Z</time>
      </trkpt>
      <trkpt lat="45.25611" lon="5.02775">
        <ele>250.97</ele>
        <time>2017-02-25T14:35:41Z</time>
      </trkpt>
      <trkpt lat="45.25611" lon="5.02775">
        <ele>250.97</ele>
        <time>2017-02-25T14:35:42Z</time>
      </trkpt>
      <trkpt lat="45.25611" lon="5.02775">
        <ele>250.97</ele>
        <time>2017-02-25T14:35:43Z</time>
      </trkpt>
      <trkpt lat="45.25611" lon="5.02775">
        <ele>250.97</ele>
        <time>2017-02-25T14:35:44Z</time>
      </trkpt>
      <trkpt lat="45.25611" lon="5.02775">
        <ele>250.97</ele>
        <time>2017-02-25T14:35:45Z</time>
      </trkpt>
      <trkpt lat="45.25611" lon="5.02775">
        <ele>250.97</ele>
        <time>2017-02-25T14:35:46Z</time>
      </trkpt>
      <trkpt lat="45.25611" lon="5.02775">
        <ele>250.97</ele>
        <time>2017-02-25T14:35:47Z</time>
      </trkpt>
      <trkpt lat="45.25611" lon="5.02775">
        <ele>250.97</ele>
        <time>2017-02-25T14:35:48Z</time>
      </trkpt>
      <trkpt lat="45.25611" lon="5.02775">
        <ele>250.97</ele>
        <time>2017-02-25T14:35:49Z</time>
      </trkpt>
      <trkpt lat="45.25611" lon="5.02775">
        <ele>250.97</ele>
        <time>2017-02-25T14:35:50Z</time>
      </trkpt>
      <trkpt lat="45.25611" lon="5.02775">
        <ele>250.97</ele>
        <time>2017-02-25T14:35:51Z</time>
      </trkpt>
      <trkpt lat="45.25611" lon="5.02775">
        <ele>250.97</ele>
        <time>2017-02-25T14:35:52Z</time>
      </trkpt>
      <trkpt lat="45.25611" lon="5.02775">
        <ele>250.97</ele>
        <time>2017-02-25T14:35:53Z</time>
      </trkpt>
      <trkpt lat="45.25611" lon="5.02775">
        <ele>250.97</ele>
        <time>2017-02-25T14:35:54Z</time>
      </trkpt>
      <trkpt lat="45.25611" lon="5.02775">
        <ele>250.97</ele>
        <time>2017-02-25T14:35:55Z</time>
      </trkpt>
      <trkpt lat="45.25611" lon="5.02775">
        <ele>250.97</ele>
        <time>2017-02-25T14:35:56Z</time>
      </trkpt>
      <trkpt lat="45.25611" lon="5.02775">
        <ele>250.97</ele>
        <time>2017-02-25T14:35:57Z</time>
      </trkpt>
      <trkpt lat="45.25611" lon="5.02775">
        <ele>250.97</ele>
        <time>2017-02-25T14:35:58Z</time>
      </trkpt>
      <trkpt lat="45.25611" lon="5.02775">
        <ele>250.97</ele>
        <time>2017-02-25T14:35:59Z</time>
      </trkpt>
      <trkpt lat="45.25611" lon="5.02775">
        <ele>250.97</ele>
        <time>2017-02-25T14:36:00Z</time>
      </trkpt>
      <trkpt lat="45.25611" lon="5.02775">
        <ele>250.97</ele>
        <time>2017-02-25T14:36:01Z</time>
      </trkpt>
      <trkpt lat="45.25611" lon="5.02775">
        <ele>250.97</ele>
        <time>2017-02-25T14:36:02Z</time>
      </trkpt>
      <trkpt lat="45.25611" lon="5.02775">
        <ele>250.97</ele>
        <time>2017-02-25T14:36:03Z</time>
      </trkpt>
      <trkpt lat="45.25611" lon="5.02775">
        <ele>250.97</ele>
        <time>2017-02-25T14:36:04Z</time>
      </trkpt>
      <trkpt lat="45.25611" lon="5.02775">
        <ele>250.97</ele>
        <time>2017-02-25T14:36:05Z</time>
      </trkpt>
      <trkpt lat="45.25611" lon="5.02775">
        <ele>250.97</ele>
        <time>2017-02-25T14:36:06Z</time>
      </trkpt>
      <trkpt lat="45.25611" lon="5.02775">
        <ele>250.97</ele>
        <time>2017-02-25T14:36:07Z</time>
      </trkpt>
      <trkpt lat="45.25611" lon="5.02775">
        <ele>250.97</ele>
        <time>2017-02-25T14:36:08Z</time>
      </trkpt>
      <trkpt lat="45.25611" lon="5.02775">
        <ele>250.97</ele>
        <time>2017-02-25T14:36:09Z</time>
      </trkpt>
      <trkpt lat="45.25611" lon="5.02775">
        <ele>250.97</ele>
        <time>2017-02-25T14:36:10Z</time>
      </trkpt>
      <trkpt lat="45.25611" lon="5.02775">
        <ele>250.97</ele>
        <time>2017-02-25T14:36:11Z</time>
      </trkpt>
      <trkpt lat="45.25611" lon="5.02775">
        <ele>250.97</ele>
        <time>2017-02-25T14:36:12Z</time>
      </trkpt>
      <trkpt lat="45.25611" lon="5.02775">
        <ele>250.97</ele>
        <time>2017-02-25T14:36:13Z</time>
      </trkpt>
      <trkpt lat="45.25611" lon="5.02775">
        <ele>250.97</ele>
        <time>2017-02-25T14:36:14Z</time>
      </trkpt>
      <trkpt lat="45.25611" lon="5.02775">
        <ele>250.97</ele>
        <time>2017-02-25T14:36:15Z</time>
      </trkpt>
      <trkpt lat="45.25611" lon="5.02775">
        <ele>250.97</ele>
        <time>2017-02-25T14:36:16Z</time>
      </trkpt>
      <trkpt lat="45.25611" lon="5.02775">
        <ele>250.97</ele>
        <time>2017-02-25T14:36:17Z</time>
      </trkpt>
      <trkpt lat="45.25611" lon="5.02775">
        <ele>250.97</ele>
        <time>2017-02-25T14:36:18Z</time>
      </trkpt>
      <trkpt lat="45.25611" lon="5.02775">
        <ele>250.97</ele>
        <time>2017-02-25T14:36:19Z</time>
      </trkpt>
      <trkpt lat="45.25611" lon="5.02775">
        <ele>250.97</ele>
        <time>2017-02-25T14:36:20Z</time>
      </trkpt>
      <trkpt lat="45.25611" lon="5.02775">
        <ele>250.97</ele>
        <time>2017-02-25T14:36:21Z</time>
      </trkpt>
      <trkpt lat="45.25611" lon="5.02775">
        <ele>250.97</ele>
        <time>2017-02-25T14:36:22Z</time>
      </trkpt>
      <trkpt lat="45.25611" lon="5.02775">
        <ele>250.97</ele>
        <time>2017-02-25T14:36:23Z</time>
      </trkpt>
      <trkpt lat="45.25611" lon="5.02775">
        <ele>250.97</ele>
        <time>2017-02-25T14:36:24Z</time>
      </trkpt>
      <trkpt lat="45.25611" lon="5.02775">
        <ele>250.97</ele>
        <time>2017-02-25T14:36:25Z</time>
      </trkpt>
      <trkpt lat="45.25611" lon="5.02775">
        <ele>250.97</ele>
        <time>2017-02-25T14:36:26Z</time>
      </trkpt>
      <trkpt lat="45.25611" lon="5.02775">
        <ele>250.97</ele>
        <time>2017-02-25T14:36:27Z</time>
      </trkpt>
      <trkpt lat="45.25611" lon="5.02775">
        <ele>250.97</ele>
        <time>2017-02-25T14:36:28Z</time>
      </trkpt>
      <trkpt lat="45.25611" lon="5.02775">
        <ele>250.97</ele>
        <time>2017-02-25T14:36:29Z</time>
      </trkpt>
      <trkpt lat="45.25611" lon="5.02775">
        <ele>250.97</ele>
        <time>2017-02-25T14:36:30Z</time>
      </trkpt>
      <trkpt lat="45.25611" lon="5.02775">
        <ele>250.97</ele>
        <time>2017-02-25T14:36:31Z</time>
      </trkpt>
      <trkpt lat="45.25611" lon="5.02775">
        <ele>250.97</ele>
        <time>2017-02-25T14:36:32Z</time>
      </trkpt>
      <trkpt lat="45.25611" lon="5.02775">
        <ele>250.97</ele>
        <time>2017-02-25T14:36:33Z</time>
      </trkpt>
      <trkpt lat="45.25611" lon="5.02775">
        <ele>250.97</ele>
        <time>2017-02-25T14:36:34Z</time>
      </trkpt>
      <trkpt lat="45.25611" lon="5.02775">
        <ele>250.97</ele>
        <time>2017-02-25T14:36:35Z</time>
      </trkpt>
      <trkpt lat="45.25611" lon="5.02775">
        <ele>250.97</ele>
        <time>2017-02-25T14:36:36Z</time>
      </trkpt>
      <trkpt lat="45.25611" lon="5.02775">
        <ele>250.97</ele>
        <time>2017-02-25T14:36:37Z</time>
      </trkpt>
      <trkpt lat="45.25611" lon="5.02775">
        <ele>250.97</ele>
        <time>2017-02-25T14:36:38Z</time>
      </trkpt>
      <trkpt lat="45.25611" lon="5.02775">
        <ele>250.97</ele>
        <time>2017-02-25T14:36:39Z</time>
      </trkpt>
      <trkpt lat="45.25611" lon="5.02775">
        <ele>250.97</ele>
        <time>2017-02-25T14:36:40Z</time>
      </trkpt>
      <trkpt lat="45.25611" lon="5.02775">
        <ele>250.97</ele>
        <time>2017-02-25T14:36:41Z</time>
      </trkpt>
      <trkpt lat="45.25611" lon="5.02775">
        <ele>250.97</ele>
        <time>2017-02-25T14:36:42Z</time>
      </trkpt>
      <trkpt lat="45.25611" lon="5.02775">
        <ele>250.97</ele>
        <time>2017-02-25T14:36:43Z</time>
      </trkpt>
      <trkpt lat="45.25611" lon="5.02775">
        <ele>250.97</ele>
        <time>2017-02-25T14:36:44Z</time>
      </trkpt>
      <trkpt lat="45.25611" lon="5.02775">
        <ele>250.97</ele>
        <time>2017-02-25T14:36:45Z</time>
      </trkpt>
      <trkpt lat="45.25611" lon="5.02775">
        <ele>250.97</ele>
        <time>2017-02-25T14:36:46Z</time>
      </trkpt>
      <trkpt lat="45.25611" lon="5.02775">
        <ele>250.97</ele>
        <time>2017-02-25T14:36:47Z</time>
      </trkpt>
      <trkpt lat="45.25611" lon="5.02775">
        <ele>250.97</ele>
        <time>2017-02-25T14:36:48Z</time>
      </trkpt>
      <trkpt lat="45.25611" lon="5.02775">
        <ele>250.97</ele>
        <time>2017-02-25T14:36:49Z</time>
      </trkpt>
      <trkpt lat="45.25611" lon="5.02775">
        <ele>250.97</ele>
        <time>2017-02-25T14:36:50Z</time>
      </trkpt>
      <trkpt lat="45.25611" lon="5.02775">
        <ele>250.97</ele>
        <time>2017-02-25T14:36:51Z</time>
      </trkpt>
      <trkpt lat="45.25611" lon="5.02775">
        <ele>250.97</ele>
        <time>2017-02-25T14:36:52Z</time>
      </trkpt>
      <trkpt lat="45.25611" lon="5.02775">
        <ele>250.97</ele>
        <time>2017-02-25T14:36:53Z</time>
      </trkpt>
      <trkpt lat="45.25611" lon="5.02775">
        <ele>250.97</ele>
        <time>2017-02-25T14:36:54Z</time>
      </trkpt>
      <trkpt lat="45.25611" lon="5.02775">
        <ele>250.97</ele>
        <time>2017-02-25T14:36:55Z</time>
      </trkpt>
      <trkpt lat="45.25611" lon="5.02775">
        <ele>250.97</ele>
        <time>2017-02-25T14:36:56Z</time>
      </trkpt>
      <trkpt lat="45.25611" lon="5.02775">
        <ele>250.97</ele>
        <time>2017-02-25T14:36:57Z</time>
      </trkpt>
      <trkpt lat="45.25611" lon="5.02775">
        <ele>250.97</ele>
        <time>2017-02-25T14:36:58Z</time>
      </trkpt>
      <trkpt lat="45.25611" lon="5.02775">
        <ele>250.97</ele>
        <time>2017-02-25T14:36:59Z</time>
      </trkpt>
      <trkpt lat="45.25611" lon="5.02775">
        <ele>250.97</ele>
        <time>2017-02-25T14:37:00Z</time>
      </trkpt>
      <trkpt lat="45.25611" lon="5.02775">
        <ele>250.97</ele>
        <time>2017-02-25T14:37:01Z</time>
      </trkpt>
      <trkpt lat="45.25611" lon="5.02775">
        <ele>250.97</ele>
        <time>2017-02-25T14:37:02Z</time>
      </trkpt>
      <trkpt lat="45.25611" lon="5.02775">
        <ele>250.97</ele>
        <time>2017-02-25T14:37:03Z</time>
      </trkpt>
      <trkpt lat="45.25611" lon="5.02775">
        <ele>250.97</ele>
        <time>2017-02-25T14:37:04Z</time>
      </trkpt>
      <trkpt lat="45.25611" lon="5.02775">
        <ele>250.97</ele>
        <time>2017-02-25T14:37:05Z</time>
      </trkpt>
      <trkpt lat="45.25611" lon="5.02775">
        <ele>250.97</ele>
        <time>2017-02-25T14:37:06Z</time>
      </trkpt>
      <trkpt lat="45.25611" lon="5.02775">
        <ele>250.97</ele>
        <time>2017-02-25T14:37:07Z</time>
      </trkpt>
      <trkpt lat="45.25611" lon="5.02775">
        <ele>250.97</ele>
        <time>2017-02-25T14:37:08Z</time>
      </trkpt>
      <trkpt lat="45.25611" lon="5.02775">
        <ele>250.97</ele>
        <time>2017-02-25T14:37:09Z</time>
      </trkpt>
      <trkpt lat="45.25611" lon="5.02775">
        <ele>250.97</ele>
        <time>2017-02-25T14:37:10Z</time>
      </trkpt>
      <trkpt lat="45.25611" lon="5.02775">
        <ele>250.97</ele>
        <time>2017-02-25T14:37:11Z</time>
      </trkpt>
      <trkpt lat="45.25611" lon="5.02775">
        <ele>250.97</ele>
        <time>2017-02-25T14:37:12Z</time>
      </trkpt>
      <trkpt lat="45.25611" lon="5.02775">
        <ele>250.97</ele>
        <time>2017-02-25T14:37:13Z</time>
      </trkpt>
      <trkpt lat="45.25611" lon="5.02775">
        <ele>250.97</ele>
        <time>2017-02-25T14:37:14Z</time>
      </trkpt>
      <trkpt lat="45.25611" lon="5.02775">
        <ele>250.97</ele>
        <time>2017-02-25T14:37:15Z</time>
      </trkpt>
      <trkpt lat="45.25611" lon="5.02775">
        <ele>250.97</ele>
        <time>2017-02-25T14:37:16Z</time>
      </trkpt>
      <trkpt lat="45.25611" lon="5.02775">
        <ele>250.97</ele>
        <time>2017-02-25T14:37:17Z</time>
      </trkpt>
      <trkpt lat="45.25611" lon="5.02775">
        <ele>250.97</ele>
        <time>2017-02-25T14:37:18Z</time>
      </trkpt>
      <trkpt lat="45.25611" lon="5.02775">
        <ele>250.97</ele>
        <time>2017-02-25T14:37:19Z</time>
      </trkpt>
      <trkpt lat="45.25611" lon="5.02775">
        <ele>250.97</ele>
        <time>2017-02-25T14:37:20Z</time>
      </trkpt>
      <trkpt lat="45.25611" lon="5.02775">
        <ele>250.97</ele>
        <time>2017-02-25T14:37:21Z</time>
      </trkpt>
      <trkpt lat="45.25611" lon="5.02775">
        <ele>250.97</ele>
        <time>2017-02-25T14:37:22Z</time>
      </trkpt>
      <trkpt lat="45.25611" lon="5.02775">
        <ele>250.97</ele>
        <time>2017-02-25T14:37:23Z</time>
      </trkpt>
      <trkpt lat="45.25611" lon="5.02775">
        <ele>250.97</ele>
        <time>2017-02-25T14:37:24Z</time>
      </trkpt>
      <trkpt lat="45.25611" lon="5.02775">
        <ele>250.97</ele>
        <time>2017-02-25T14:37:25Z</time>
      </trkpt>
      <trkpt lat="45.25611" lon="5.02775">
        <ele>250.97</ele>
        <time>2017-02-25T14:37:26Z</time>
      </trkpt>
      <trkpt lat="45.25611" lon="5.02775">
        <ele>250.97</ele>
        <time>2017-02-25T14:37:27Z</time>
      </trkpt>
      <trkpt lat="45.25611" lon="5.02775">
        <ele>250.97</ele>
        <time>2017-02-25T14:37:28Z</time>
      </trkpt>
      <trkpt lat="45.25611" lon="5.02775">
        <ele>250.97</ele>
        <time>2017-02-25T14:37:29Z</time>
      </trkpt>
      <trkpt lat="45.25611" lon="5.02775">
        <ele>250.97</ele>
        <time>2017-02-25T14:37:30Z</time>
      </trkpt>
      <trkpt lat="45.25611" lon="5.02775">
        <ele>250.97</ele>
        <time>2017-02-25T14:37:31Z</time>
      </trkpt>
      <trkpt lat="45.25611" lon="5.02775">
        <ele>250.97</ele>
        <time>2017-02-25T14:37:32Z</time>
      </trkpt>
      <trkpt lat="45.25611" lon="5.02775">
        <ele>250.97</ele>
        <time>2017-02-25T14:37:33Z</time>
      </trkpt>
      <trkpt lat="45.25611" lon="5.02775">
        <ele>250.97</ele>
        <time>2017-02-25T14:37:34Z</time>
      </trkpt>
      <trkpt lat="45.25611" lon="5.02775">
        <ele>250.97</ele>
        <time>2017-02-25T14:37:35Z</time>
      </trkpt>
      <trkpt lat="45.25611" lon="5.02775">
        <ele>250.97</ele>
        <time>2017-02-25T14:37:36Z</time>
      </trkpt>
      <trkpt lat="45.25611" lon="5.02775">
        <ele>250.97</ele>
        <time>2017-02-25T14:37:37Z</time>
      </trkpt>
      <trkpt lat="45.25611" lon="5.02775">
        <ele>250.97</ele>
        <time>2017-02-25T14:37:38Z</time>
      </trkpt>
      <trkpt lat="45.25611" lon="5.02775">
        <ele>250.97</ele>
        <time>2017-02-25T14:37:39Z</time>
      </trkpt>
      <trkpt lat="45.25611" lon="5.02775">
        <ele>250.97</ele>
        <time>2017-02-25T14:37:40Z</time>
      </trkpt>
      <trkpt lat="45.25611" lon="5.02775">
        <ele>250.97</ele>
        <time>2017-02-25T14:37:41Z</time>
      </trkpt>
      <trkpt lat="45.25611" lon="5.02775">
        <ele>250.97</ele>
        <time>2017-02-25T14:37:42Z</time>
      </trkpt>
      <trkpt lat="45.25611" lon="5.02775">
        <ele>250.97</ele>
        <time>2017-02-25T14:37:43Z</time>
      </trkpt>
      <trkpt lat="45.25611" lon="5.02775">
        <ele>250.97</ele>
        <time>2017-02-25T14:37:44Z</time>
      </trkpt>
      <trkpt lat="45.25611" lon="5.02775">
        <ele>250.97</ele>
        <time>2017-02-25T14:37:45Z</time>
      </trkpt>
      <trkpt lat="45.25611" lon="5.02775">
        <ele>250.97</ele>
        <time>2017-02-25T14:37:46Z</time>
      </trkpt>
      <trkpt lat="45.25611" lon="5.02775">
        <ele>250.97</ele>
        <time>2017-02-25T14:37:47Z</time>
      </trkpt>
      <trkpt lat="45.25611" lon="5.02775">
        <ele>250.97</ele>
        <time>2017-02-25T14:37:48Z</time>
      </trkpt>
      <trkpt lat="45.25611" lon="5.02775">
        <ele>250.97</ele>
        <time>2017-02-25T14:37:49Z</time>
      </trkpt>
      <trkpt lat="45.25611" lon="5.02775">
        <ele>250.97</ele>
        <time>2017-02-25T14:37:50Z</time>
      </trkpt>
      <trkpt lat="45.25611" lon="5.02775">
        <ele>250.97</ele>
        <time>2017-02-25T14:37:51Z</time>
      </trkpt>
      <trkpt lat="45.25611" lon="5.02775">
        <ele>250.97</ele>
        <time>2017-02-25T14:37:52Z</time>
      </trkpt>
      <trkpt lat="45.25611" lon="5.02775">
        <ele>250.97</ele>
        <time>2017-02-25T14:37:53Z</time>
      </trkpt>
      <trkpt lat="45.25611" lon="5.02775">
        <ele>250.97</ele>
        <time>2017-02-25T14:37:54Z</time>
      </trkpt>
      <trkpt lat="45.25611" lon="5.02775">
        <ele>250.97</ele>
        <time>2017-02-25T14:37:55Z</time>
      </trkpt>
      <trkpt lat="45.25611" lon="5.02775">
        <ele>250.97</ele>
        <time>2017-02-25T14:37:56Z</time>
      </trkpt>
      <trkpt lat="45.25611" lon="5.02775">
        <ele>250.97</ele>
        <time>2017-02-25T14:37:57Z</time>
      </trkpt>
      <trkpt lat="45.25611" lon="5.02775">
        <ele>250.97</ele>
        <time>2017-02-25T14:37:58Z</time>
      </trkpt>
      <trkpt lat="45.25611" lon="5.02775">
        <ele>250.97</ele>
        <time>2017-02-25T14:37:59Z</time>
      </trkpt>
      <trkpt lat="45.25611" lon="5.02775">
        <ele>250.97</ele>
        <time>2017-02-25T14:38:00Z</time>
      </trkpt>
      <trkpt lat="45.25611" lon="5.02775">
        <ele>250.97</ele>
        <time>2017-02-25T14:38:01Z</time>
      </trkpt>
      <trkpt lat="45.25611" lon="5.02775">
        <ele>250.97</ele>
        <time>2017-02-25T14:38:02Z</time>
      </trkpt>
      <trkpt lat="45.25611" lon="5.02775">
        <ele>250.97</ele>
        <time>2017-02-25T14:38:03Z</time>
      </trkpt>
      <trkpt lat="45.25611" lon="5.02775">
        <ele>250.97</ele>
        <time>2017-02-25T14:38:04Z</time>
      </trkpt>
      <trkpt lat="45.25611" lon="5.02775">
        <ele>250.97</ele>
        <time>2017-02-25T14:38:05Z</time>
      </trkpt>
      <trkpt lat="45.25611" lon="5.02775">
        <ele>250.97</ele>
        <time>2017-02-25T14:38:06Z</time>
      </trkpt>
      <trkpt lat="45.25611" lon="5.02775">
        <ele>250.97</ele>
        <time>2017-02-25T14:38:07Z</time>
      </trkpt>
      <trkpt lat="45.25611" lon="5.02775">
        <ele>250.97</ele>
        <time>2017-02-25T14:38:08Z</time>
      </trkpt>
      <trkpt lat="45.25611" lon="5.02775">
        <ele>250.97</ele>
        <time>2017-02-25T14:38:09Z</time>
      </trkpt>
      <trkpt lat="45.25611" lon="5.02775">
        <ele>250.97</ele>
        <time>2017-02-25T14:38:10Z</time>
      </trkpt>
      <trkpt lat="45.25611" lon="5.02775">
        <ele>250.97</ele>
        <time>2017-02-25T14:38:11Z</time>
      </trkpt>
      <trkpt lat="45.25611" lon="5.02775">
        <ele>250.97</ele>
        <time>2017-02-25T14:38:12Z</time>
      </trkpt>
      <trkpt lat="45.25611" lon="5.02775">
        <ele>250.97</ele>
        <time>2017-02-25T14:38:13Z</time>
      </trkpt>
      <trkpt lat="45.25611" lon="5.02775">
        <ele>250.97</ele>
        <time>2017-02-25T14:38:14Z</time>
      </trkpt>
      <trkpt lat="45.25611" lon="5.02775">
        <ele>250.97</ele>
        <time>2017-02-25T14:38:15Z</time>
      </trkpt>
      <trkpt lat="45.25611" lon="5.02775">
        <ele>250.97</ele>
        <time>2017-02-25T14:38:16Z</time>
      </trkpt>
      <trkpt lat="45.25611" lon="5.02775">
        <ele>250.97</ele>
        <time>2017-02-25T14:38:17Z</time>
      </trkpt>
      <trkpt lat="45.25611" lon="5.02775">
        <ele>250.97</ele>
        <time>2017-02-25T14:38:18Z</time>
      </trkpt>
      <trkpt lat="45.25611" lon="5.02775">
        <ele>250.97</ele>
        <time>2017-02-25T14:38:19Z</time>
      </trkpt>
      <trkpt lat="45.25611" lon="5.02775">
        <ele>250.97</ele>
        <time>2017-02-25T14:38:20Z</time>
      </trkpt>
      <trkpt lat="45.25611" lon="5.02775">
        <ele>250.97</ele>
        <time>2017-02-25T14:38:21Z</time>
      </trkpt>
      <trkpt lat="45.25611" lon="5.02775">
        <ele>250.97</ele>
        <time>2017-02-25T14:38:22Z</time>
      </trkpt>
      <trkpt lat="45.25611" lon="5.02775">
        <ele>250.97</ele>
        <time>2017-02-25T14:38:23Z</time>
      </trkpt>
      <trkpt lat="45.25611" lon="5.02775">
        <ele>250.97</ele>
        <time>2017-02-25T14:38:24Z</time>
      </trkpt>
      <trkpt lat="45.25611" lon="5.02775">
        <ele>250.97</ele>
        <time>2017-02-25T14:38:25Z</time>
      </trkpt>
      <trkpt lat="45.25611" lon="5.02775">
        <ele>250.97</ele>
        <time>2017-02-25T14:38:26Z</time>
      </trkpt>
      <trkpt lat="45.25611" lon="5.02775">
        <ele>250.97</ele>
        <time>2017-02-25T14:38:27Z</time>
      </trkpt>
      <trkpt lat="45.25611" lon="5.02775">
        <ele>250.97</ele>
        <time>2017-02-25T14:38:28Z</time>
      </trkpt>
      <trkpt lat="45.25611" lon="5.02775">
        <ele>250.97</ele>
        <time>2017-02-25T14:38:29Z</time>
      </trkpt>
      <trkpt lat="45.25611" lon="5.02775">
        <ele>250.97</ele>
        <time>2017-02-25T14:38:30Z</time>
      </trkpt>
      <trkpt lat="45.25611" lon="5.02775">
        <ele>250.97</ele>
        <time>2017-02-25T14:38:31Z</time>
      </trkpt>
      <trkpt lat="45.25611" lon="5.02775">
        <ele>250.97</ele>
        <time>2017-02-25T14:38:32Z</time>
      </trkpt>
      <trkpt lat="45.25611" lon="5.02775">
        <ele>250.97</ele>
        <time>2017-02-25T14:38:33Z</time>
      </trkpt>
      <trkpt lat="45.25611" lon="5.02775">
        <ele>250.97</ele>
        <time>2017-02-25T14:38:34Z</time>
      </trkpt>
      <trkpt lat="45.25611" lon="5.02775">
        <ele>250.97</ele>
        <time>2017-02-25T14:38:35Z</time>
      </trkpt>
      <trkpt lat="45.25611" lon="5.02775">
        <ele>250.97</ele>
        <time>2017-02-25T14:38:36Z</time>
      </trkpt>
      <trkpt lat="45.25611" lon="5.02775">
        <ele>250.97</ele>
        <time>2017-02-25T14:38:37Z</time>
      </trkpt>
      <trkpt lat="45.25611" lon="5.02775">
        <ele>250.97</ele>
        <time>2017-02-25T14:38:38Z</time>
      </trkpt>
      <trkpt lat="45.25611" lon="5.02775">
        <ele>250.97</ele>
        <time>2017-02-25T14:38:39Z</time>
      </trkpt>
      <trkpt lat="45.25611" lon="5.02775">
        <ele>250.97</ele>
        <time>2017-02-25T14:38:40Z</time>
      </trkpt>
      <trkpt lat="45.25611" lon="5.02775">
        <ele>250.97</ele>
        <time>2017-02-25T14:38:41Z</time>
      </trkpt>
      <trkpt lat="45.25611" lon="5.02775">
        <ele>250.97</ele>
        <time>2017-02-25T14:38:42Z</time>
      </trkpt>
      <trkpt lat="45.25611" lon="5.02775">
        <ele>250.97</ele>
        <time>2017-02-25T14:38:43Z</time>
      </trkpt>
      <trkpt lat="45.25611" lon="5.02775">
        <ele>250.97</ele>
        <time>2017-02-25T14:38:44Z</time>
      </trkpt>
      <trkpt lat="45.25611" lon="5.02775">
        <ele>250.97</ele>
        <time>2017-02-25T14:38:45Z</time>
      </trkpt>
      <trkpt lat="45.25611" lon="5.02775">
        <ele>250.97</ele>
        <time>2017-02-25T14:38:46Z</time>
      </trkpt>
      <trkpt lat="45.25611" lon="5.02775">
        <ele>250.97</ele>
        <time>2017-02-25T14:38:47Z</time>
      </trkpt>
      <trkpt lat="45.25611" lon="5.02775">
        <ele>250.97</ele>
        <time>2017-02-25T14:38:48Z</time>
      </trkpt>
      <trkpt lat="45.25611" lon="5.02775">
        <ele>250.97</ele>
        <time>2017-02-25T14:38:49Z</time>
      </trkpt>
      <trkpt lat="45.25611" lon="5.02775">
        <ele>250.97</ele>
        <time>2017-02-25T14:38:50Z</time>
      </trkpt>
      <trkpt lat="45.25611" lon="5.02775">
        <ele>250.97</ele>
        <time>2017-02-25T14:38:51Z</time>
      </trkpt>
      <trkpt lat="45.25611" lon="5.02775">
        <ele>250.97</ele>
        <time>2017-02-25T14:38:52Z</time>
      </trkpt>
      <trkpt lat="45.25611" lon="5.02775">
        <ele>250.97</ele>
        <time>2017-02-25T14:38:53Z</time>
      </trkpt>
      <trkpt lat="45.25611" lon="5.02775">
        <ele>250.97</ele>
        <time>2017-02-25T14:38:54Z</time>
      </trkpt>
      <trkpt lat="45.25611" lon="5.02775">
        <ele>250.97</ele>
        <time>2017-02-25T14:38:55Z</time>
      </trkpt>
      <trkpt lat="45.25611" lon="5.02775">
        <ele>250.97</ele>
        <time>2017-02-25T14:38:56Z</time>
      </trkpt>
      <trkpt lat="45.25611" lon="5.02775">
        <ele>250.97</ele>
        <time>2017-02-25T14:38:57Z</time>
      </trkpt>
      <trkpt lat="45.25611" lon="5.02775">
        <ele>250.97</ele>
        <time>2017-02-25T14:38:58Z</time>
      </trkpt>
      <trkpt lat="45.25611" lon="5.02775">
        <ele>250.97</ele>
        <time>2017-02-25T14:38:59Z</time>
      </trkpt>
      <trkpt lat="45.25611" lon="5.02775">
        <ele>250.97</ele>
        <time>2017-02-25T14:39:00Z</time>
      </trkpt>
      <trkpt lat="45.25611" lon="5.02775">
        <ele>250.97</ele>
        <time>2017-02-25T14:39:01Z</time>
      </trkpt>
      <trkpt lat="45.25611" lon="5.02775">
        <ele>250.97</ele>
        <time>2017-02-25T14:39:02Z</time>
      </trkpt>
      <trkpt lat="45.25611" lon="5.02775">
        <ele>250.97</ele>
        <time>2017-02-25T14:39:03Z</time>
      </trkpt>
      <trkpt lat="45.25611" lon="5.02775">
        <ele>250.97</ele>
        <time>2017-02-25T14:39:04Z</time>
      </trkpt>
      <trkpt lat="45.25611" lon="5.02775">
        <ele>250.97</ele>
        <time>2017-02-25T14:39:05Z</time>
      </trkpt>
      <trkpt lat="45.25611" lon="5.02775">
        <ele>250.97</ele>
        <time>2017-02-25T14:39:06Z</time>
      </trkpt>
      <trkpt lat="45.25611" lon="5.02775">
        <ele>250.97</ele>
        <time>2017-02-25T14:39:07Z</time>
      </trkpt>
      <trkpt lat="45.25611" lon="5.02775">
        <ele>250.97</ele>
        <time>2017-02-25T14:39:08Z</time>
      </trkpt>
      <trkpt lat="45.25611" lon="5.02775">
        <ele>250.97</ele>
        <time>2017-02-25T14:39:09Z</time>
      </trkpt>
      <trkpt lat="45.25611" lon="5.02775">
        <ele>250.97</ele>
        <time>2017-02-25T14:39:10Z</time>
      </trkpt>
      <trkpt lat="45.25611" lon="5.02775">
        <ele>250.97</ele>
        <time>2017-02-25T14:39:11Z</time>
      </trkpt>
      <trkpt lat="45.25611" lon="5.02775">
        <ele>250.97</ele>
        <time>2017-02-25T14:39:12Z</time>
      </trkpt>
      <trkpt lat="45.25611" lon="5.02775">
        <ele>250.97</ele>
        <time>2017-02-25T14:39:13Z</time>
      </trkpt>
      <trkpt lat="45.25611" lon="5.02775">
        <ele>250.97</ele>
        <time>2017-02-25T14:39:14Z</time>
      </trkpt>
      <trkpt lat="45.25611" lon="5.02775">
        <ele>250.97</ele>
        <time>2017-02-25T14:39:15Z</time>
      </trkpt>
      <trkpt lat="45.25611" lon="5.02775">
        <ele>250.97</ele>
        <time>2017-02-25T14:39:16Z</time>
      </trkpt>
      <trkpt lat="45.25611" lon="5.02775">
        <ele>250.97</ele>
        <time>2017-02-25T14:39:17Z</time>
      </trkpt>
      <trkpt lat="45.25611" lon="5.02775">
        <ele>250.97</ele>
        <time>2017-02-25T14:39:18Z</time>
      </trkpt>
      <trkpt lat="45.25611" lon="5.02775">
        <ele>250.97</ele>
        <time>2017-02-25T14:39:19Z</time>
      </trkpt>
      <trkpt lat="45.25611" lon="5.02775">
        <ele>250.97</ele>
        <time>2017-02-25T14:39:20Z</time>
      </trkpt>
      <trkpt lat="45.25611" lon="5.02775">
        <ele>250.97</ele>
        <time>2017-02-25T14:39:21Z</time>
      </trkpt>
      <trkpt lat="45.25611" lon="5.02775">
        <ele>250.97</ele>
        <time>2017-02-25T14:39:22Z</time>
      </trkpt>
      <trkpt lat="45.25611" lon="5.02775">
        <ele>250.97</ele>
        <time>2017-02-25T14:39:23Z</time>
      </trkpt>
      <trkpt lat="45.25611" lon="5.02775">
        <ele>250.97</ele>
        <time>2017-02-25T14:39:24Z</time>
      </trkpt>
      <trkpt lat="45.25611" lon="5.02775">
        <ele>250.97</ele>
        <time>2017-02-25T14:39:25Z</time>
      </trkpt>
      <trkpt lat="45.25611" lon="5.02775">
        <ele>250.97</ele>
        <time>2017-02-25T14:39:26Z</time>
      </trkpt>
      <trkpt lat="45.25611" lon="5.02775">
        <ele>250.97</ele>
        <time>2017-02-25T14:39:27Z</time>
      </trkpt>
      <trkpt lat="45.25611" lon="5.02775">
        <ele>250.97</ele>
        <time>2017-02-25T14:39:28Z</time>
      </trkpt>
      <trkpt lat="45.25611" lon="5.02775">
        <ele>250.97</ele>
        <time>2017-02-25T14:39:29Z</time>
      </trkpt>
      <trkpt lat="45.25611" lon="5.02775">
        <ele>250.97</ele>
        <time>2017-02-25T14:39:30Z</time>
      </trkpt>
      <trkpt lat="45.25611" lon="5.02775">
        <ele>250.97</ele>
        <time>2017-02-25T14:39:31Z</time>
      </trkpt>
      <trkpt lat="45.25611" lon="5.02775">
        <ele>250.97</ele>
        <time>2017-02-25T14:39:32Z</time>
      </trkpt>
      <trkpt lat="45.25611" lon="5.02775">
        <ele>250.97</ele>
        <time>2017-02-25T14:39:33Z</time>
      </trkpt>
      <trkpt lat="45.25611" lon="5.02775">
        <ele>250.97</ele>
        <time>2017-02-25T14:39:34Z</time>
      </trkpt>
      <trkpt lat="45.25611" lon="5.02775">
        <ele>250.97</ele>
        <time>2017-02-25T14:39:35Z</time>
      </trkpt>
      <trkpt lat="45.25611" lon="5.02775">
        <ele>250.97</ele>
        <time>2017-02-25T14:39:36Z</time>
      </trkpt>
      <trkpt lat="45.25611" lon="5.02775">
        <ele>250.97</ele>
        <time>2017-02-25T14:39:37Z</time>
      </trkpt>
      <trkpt lat="45.25611" lon="5.02775">
        <ele>250.97</ele>
        <time>2017-02-25T14:39:38Z</time>
      </trkpt>
      <trkpt lat="45.25611" lon="5.02775">
        <ele>250.97</ele>
        <time>2017-02-25T14:39:39Z</time>
      </trkpt>
      <trkpt lat="45.25611" lon="5.02775">
        <ele>250.97</ele>
        <time>2017-02-25T14:39:40Z</time>
      </trkpt>
      <trkpt lat="45.25611" lon="5.02775">
        <ele>250.97</ele>
        <time>2017-02-25T14:39:41Z</time>
      </trkpt>
      <trkpt lat="45.25611" lon="5.02775">
        <ele>250.97</ele>
        <time>2017-02-25T14:39:42Z</time>
      </trkpt>
      <trkpt lat="45.25611" lon="5.02775">
        <ele>250.97</ele>
        <time>2017-02-25T14:39:43Z</time>
      </trkpt>
      <trkpt lat="45.25611" lon="5.02775">
        <ele>250.97</ele>
        <time>2017-02-25T14:39:44Z</time>
      </trkpt>
      <trkpt lat="45.25611" lon="5.02775">
        <ele>250.97</ele>
        <time>2017-02-25T14:39:45Z</time>
      </trkpt>
      <trkpt lat="45.25611" lon="5.02775">
        <ele>250.97</ele>
        <time>2017-02-25T14:39:46Z</time>
      </trkpt>
      <trkpt lat="45.25611" lon="5.02775">
        <ele>250.97</ele>
        <time>2017-02-25T14:39:47Z</time>
      </trkpt>
      <trkpt lat="45.25611" lon="5.02775">
        <ele>250.97</ele>
        <time>2017-02-25T14:39:48Z</time>
      </trkpt>
      <trkpt lat="45.25611" lon="5.02775">
        <ele>250.97</ele>
        <time>2017-02-25T14:39:49Z</time>
      </trkpt>
      <trkpt lat="45.25611" lon="5.02775">
        <ele>250.97</ele>
        <time>2017-02-25T14:39:50Z</time>
      </trkpt>
      <trkpt lat="45.25611" lon="5.02775">
        <ele>250.97</ele>
        <time>2017-02-25T14:39:51Z</time>
      </trkpt>
      <trkpt lat="45.25611" lon="5.02775">
        <ele>250.97</ele>
        <time>2017-02-25T14:39:52Z</time>
      </trkpt>
      <trkpt lat="45.25611" lon="5.02775">
        <ele>250.97</ele>
        <time>2017-02-25T14:39:53Z</time>
      </trkpt>
      <trkpt lat="45.25611" lon="5.02775">
        <ele>250.97</ele>
        <time>2017-02-25T14:39:54Z</time>
      </trkpt>
      <trkpt lat="45.25611" lon="5.02775">
        <ele>250.97</ele>
        <time>2017-02-25T14:39:55Z</time>
      </trkpt>
      <trkpt lat="45.25611" lon="5.02775">
        <ele>250.97</ele>
        <time>2017-02-25T14:39:56Z</time>
      </trkpt>
      <trkpt lat="45.25611" lon="5.02775">
        <ele>250.97</ele>
        <time>2017-02-25T14:39:57Z</time>
      </trkpt>
      <trkpt lat="45.25611" lon="5.02775">
        <ele>250.97</ele>
        <time>2017-02-25T14:39:58Z</time>
      </trkpt>
      <trkpt lat="45.25611" lon="5.02775">
        <ele>250.97</ele>
        <time>2017-02-25T14:39:59Z</time>
      </trkpt>
      <trkpt lat="45.25611" lon="5.02775">
        <ele>250.97</ele>
        <time>2017-02-25T14:40:00Z</time>
      </trkpt>
      <trkpt lat="45.25611" lon="5.02775">
        <ele>250.97</ele>
        <time>2017-02-25T14:40:01Z</time>
      </trkpt>
      <trkpt lat="45.25611" lon="5.02775">
        <ele>250.97</ele>
        <time>2017-02-25T14:40:02Z</time>
      </trkpt>
      <trkpt lat="45.25611" lon="5.02775">
        <ele>250.97</ele>
        <time>2017-02-25T14:40:03Z</time>
      </trkpt>
      <trkpt lat="45.25611" lon="5.02775">
        <ele>250.97</ele>
        <time>2017-02-25T14:40:04Z</time>
      </trkpt>
      <trkpt lat="45.25611" lon="5.02775">
        <ele>250.97</ele>
        <time>2017-02-25T14:40:05Z</time>
      </trkpt>
      <trkpt lat="45.25611" lon="5.02775">
        <ele>250.97</ele>
        <time>2017-02-25T14:40:06Z</time>
      </trkpt>
      <trkpt lat="45.25611" lon="5.02775">
        <ele>250.97</ele>
        <time>2017-02-25T14:40:07Z</time>
      </trkpt>
      <trkpt lat="45.25611" lon="5.02775">
        <ele>250.97</ele>
        <time>2017-02-25T14:40:08Z</time>
      </trkpt>
      <trkpt lat="45.25611" lon="5.02775">
        <ele>250.97</ele>
        <time>2017-02-25T14:40:09Z</time>
      </trkpt>
      <trkpt lat="45.25611" lon="5.02775">
        <ele>250.97</ele>
        <time>2017-02-25T14:40:10Z</time>
      </trkpt>
      <trkpt lat="45.25611" lon="5.02775">
        <ele>250.97</ele>
        <time>2017-02-25T14:40:11Z</time>
      </trkpt>
      <trkpt lat="45.25611" lon="5.02775">
        <ele>250.97</ele>
        <time>2017-02-25T14:40:12Z</time>
      </trkpt>
      <trkpt lat="45.25611" lon="5.02775">
        <ele>250.97</ele>
        <time>2017-02-25T14:40:13Z</time>
      </trkpt>
      <trkpt lat="45.25611" lon="5.02775">
        <ele>250.97</ele>
        <time>2017-02-25T14:40:14Z</time>
      </trkpt>
      <trkpt lat="45.25611" lon="5.02775">
        <ele>250.97</ele>
        <time>2017-02-25T14:40:15Z</time>
      </trkpt>
      <trkpt lat="45.25611" lon="5.02775">
        <ele>250.97</ele>
        <time>2017-02-25T14:40:16Z</time>
      </trkpt>
      <trkpt lat="45.25611" lon="5.02775">
        <ele>250.97</ele>
        <time>2017-02-25T14:40:17Z</time>
      </trkpt>
      <trkpt lat="45.25611" lon="5.02775">
        <ele>250.97</ele>
        <time>2017-02-25T14:40:18Z</time>
      </trkpt>
      <trkpt lat="45.25611" lon="5.02775">
        <ele>250.97</ele>
        <time>2017-02-25T14:40:19Z</time>
      </trkpt>
      <trkpt lat="45.25611" lon="5.02775">
        <ele>250.97</ele>
        <time>2017-02-25T14:40:20Z</time>
      </trkpt>
      <trkpt lat="45.25611" lon="5.02775">
        <ele>250.97</ele>
        <time>2017-02-25T14:40:21Z</time>
      </trkpt>
      <trkpt lat="45.25611" lon="5.02775">
        <ele>250.97</ele>
        <time>2017-02-25T14:40:22Z</time>
      </trkpt>
      <trkpt lat="45.25611" lon="5.02775">
        <ele>250.97</ele>
        <time>2017-02-25T14:40:23Z</time>
      </trkpt>
      <trkpt lat="45.25611" lon="5.02775">
        <ele>250.97</ele>
        <time>2017-02-25T14:40:24Z</time>
      </trkpt>
      <trkpt lat="45.25611" lon="5.02775">
        <ele>250.97</ele>
        <time>2017-02-25T14:40:25Z</time>
      </trkpt>
      <trkpt lat="45.25611" lon="5.02775">
        <ele>250.97</ele>
        <time>2017-02-25T14:40:26Z</time>
      </trkpt>
      <trkpt lat="45.25611" lon="5.02775">
        <ele>250.97</ele>
        <time>2017-02-25T14:40:27Z</time>
      </trkpt>
      <trkpt lat="45.25611" lon="5.02775">
        <ele>250.97</ele>
        <time>2017-02-25T14:40:28Z</time>
      </trkpt>
      <trkpt lat="45.25611" lon="5.02775">
        <ele>250.97</ele>
        <time>2017-02-25T14:40:29Z</time>
      </trkpt>
      <trkpt lat="45.25611" lon="5.02775">
        <ele>250.97</ele>
        <time>2017-02-25T14:40:30Z</time>
      </trkpt>
      <trkpt lat="45.25611" lon="5.02775">
        <ele>250.97</ele>
        <time>2017-02-25T14:40:31Z</time>
      </trkpt>
      <trkpt lat="45.25611" lon="5.02775">
        <ele>250.97</ele>
        <time>2017-02-25T14:40:32Z</time>
      </trkpt>
      <trkpt lat="45.25611" lon="5.02775">
        <ele>250.97</ele>
        <time>2017-02-25T14:40:33Z</time>
      </trkpt>
      <trkpt lat="45.25611" lon="5.02775">
        <ele>250.97</ele>
        <time>2017-02-25T14:40:34Z</time>
      </trkpt>
      <trkpt lat="45.25611" lon="5.02775">
        <ele>250.97</ele>
        <time>2017-02-25T14:40:35Z</time>
      </trkpt>
      <trkpt lat="45.25611" lon="5.02775">
        <ele>250.97</ele>
        <time>2017-02-25T14:40:36Z</time>
      </trkpt>
      <trkpt lat="45.25611" lon="5.02775">
        <ele>250.97</ele>
        <time>2017-02-25T14:40:37Z</time>
      </trkpt>
      <trkpt lat="45.25611" lon="5.02775">
        <ele>250.97</ele>
        <time>2017-02-25T14:40:38Z</time>
      </trkpt>
      <trkpt lat="45.25611" lon="5.02775">
        <ele>250.97</ele>
        <time>2017-02-25T14:40:39Z</time>
      </trkpt>
      <trkpt lat="45.25611" lon="5.02775">
        <ele>250.97</ele>
        <time>2017-02-25T14:40:40Z</time>
      </trkpt>
      <trkpt lat="45.25611" lon="5.02775">
        <ele>250.97</ele>
        <time>2017-02-25T14:40:41Z</time>
      </trkpt>
      <trkpt lat="45.25611" lon="5.02775">
        <ele>250.97</ele>
        <time>2017-02-25T14:40:42Z</time>
      </trkpt>
      <trkpt lat="45.25611" lon="5.02775">
        <ele>250.97</ele>
        <time>2017-02-25T14:40:43Z</time>
      </trkpt>
      <trkpt lat="45.25611" lon="5.02775">
        <ele>250.97</ele>
        <time>2017-02-25T14:40:44Z</time>
      </trkpt>
      <trkpt lat="45.25611" lon="5.02775">
        <ele>250.97</ele>
        <time>2017-02-25T14:40:45Z</time>
      </trkpt>
      <trkpt lat="45.25611" lon="5.02775">
        <ele>250.97</ele>
        <time>2017-02-25T14:40:46Z</time>
      </trkpt>
      <trkpt lat="45.25611" lon="5.02775">
        <ele>250.97</ele>
        <time>2017-02-25T14:40:47Z</time>
      </trkpt>
      <trkpt lat="45.25611" lon="5.02775">
        <ele>250.97</ele>
        <time>2017-02-25T14:40:48Z</time>
      </trkpt>
      <trkpt lat="45.25611" lon="5.02775">
        <ele>250.97</ele>
        <time>2017-02-25T14:40:49Z</time>
      </trkpt>
      <trkpt lat="45.25611" lon="5.02775">
        <ele>250.97</ele>
        <time>2017-02-25T14:40:50Z</time>
      </trkpt>
      <trkpt lat="45.25611" lon="5.02775">
        <ele>250.97</ele>
        <time>2017-02-25T14:40:51Z</time>
      </trkpt>
      <trkpt lat="45.25611" lon="5.02775">
        <ele>250.97</ele>
        <time>2017-02-25T14:40:52Z</time>
      </trkpt>
      <trkpt lat="45.25611" lon="5.02775">
        <ele>250.97</ele>
        <time>2017-02-25T14:40:53Z</time>
      </trkpt>
      <trkpt lat="45.25611" lon="5.02775">
        <ele>250.97</ele>
        <time>2017-02-25T14:40:54Z</time>
      </trkpt>
      <trkpt lat="45.25611" lon="5.02775">
        <ele>250.97</ele>
        <time>2017-02-25T14:40:55Z</time>
      </trkpt>
      <trkpt lat="45.25611" lon="5.02775">
        <ele>250.97</ele>
        <time>2017-02-25T14:40:56Z</time>
      </trkpt>
      <trkpt lat="45.25611" lon="5.02775">
        <ele>250.97</ele>
        <time>2017-02-25T14:40:57Z</time>
      </trkpt>
      <trkpt lat="45.25611" lon="5.02775">
        <ele>250.97</ele>
        <time>2017-02-25T14:40:58Z</time>
      </trkpt>
      <trkpt lat="45.25611" lon="5.02775">
        <ele>250.97</ele>
        <time>2017-02-25T14:40:59Z</time>
      </trkpt>
      <trkpt lat="45.25611" lon="5.02775">
        <ele>250.97</ele>
        <time>2017-02-25T14:41:00Z</time>
      </trkpt>
      <trkpt lat="45.25611" lon="5.02775">
        <ele>250.97</ele>
        <time>2017-02-25T14:41:01Z</time>
      </trkpt>
      <trkpt lat="45.25611" lon="5.02775">
        <ele>250.97</ele>
        <time>2017-02-25T14:41:02Z</time>
      </trkpt>
      <trkpt lat="45.25611" lon="5.02775">
        <ele>250.97</ele>
        <time>2017-02-25T14:41:03Z</time>
      </trkpt>
      <trkpt lat="45.25611" lon="5.02775">
        <ele>250.97</ele>
        <time>2017-02-25T14:41:04Z</time>
      </trkpt>
      <trkpt lat="45.25611" lon="5.02775">
        <ele>250.97</ele>
        <time>2017-02-25T14:41:05Z</time>
      </trkpt>
      <trkpt lat="45.25611" lon="5.02775">
        <ele>250.97</ele>
        <time>2017-02-25T14:41:06Z</time>
      </trkpt>
      <trkpt lat="45.25611" lon="5.02775">
        <ele>250.97</ele>
        <time>2017-02-25T14:41:07Z</time>
      </trkpt>
      <trkpt lat="45.25611" lon="5.02775">
        <ele>250.97</ele>
        <time>2017-02-25T14:41:08Z</time>
      </trkpt>
      <trkpt lat="45.25611" lon="5.02775">
        <ele>250.97</ele>
        <time>2017-02-25T14:41:09Z</time>
      </trkpt>
      <trkpt lat="45.25611" lon="5.02775">
        <ele>250.97</ele>
        <time>2017-02-25T14:41:10Z</time>
      </trkpt>
      <trkpt lat="45.25611" lon="5.02775">
        <ele>250.97</ele>
        <time>2017-02-25T14:41:11Z</time>
      </trkpt>
      <trkpt lat="45.25611" lon="5.02775">
        <ele>250.97</ele>
        <time>2017-02-25T14:41:12Z</time>
      </trkpt>
      <trkpt lat="45.25611" lon="5.02775">
        <ele>250.97</ele>
        <time>2017-02-25T14:41:13Z</time>
      </trkpt>
      <trkpt lat="45.25611" lon="5.02775">
        <ele>250.97</ele>
        <time>2017-02-25T14:41:14Z</time>
      </trkpt>
      <trkpt lat="45.25611" lon="5.02775">
        <ele>250.97</ele>
        <time>2017-02-25T14:41:15Z</time>
      </trkpt>
      <trkpt lat="45.25611" lon="5.02775">
        <ele>250.97</ele>
        <time>2017-02-25T14:41:16Z</time>
      </trkpt>
      <trkpt lat="45.25611" lon="5.02775">
        <ele>250.97</ele>
        <time>2017-02-25T14:41:17Z</time>
      </trkpt>
      <trkpt lat="45.25611" lon="5.02775">
        <ele>250.97</ele>
        <time>2017-02-25T14:41:18Z</time>
      </trkpt>
      <trkpt lat="45.25611" lon="5.02775">
        <ele>250.97</ele>
        <time>2017-02-25T14:41:19Z</time>
      </trkpt>
      <trkpt lat="45.25611" lon="5.02775">
        <ele>250.97</ele>
        <time>2017-02-25T14:41:20Z</time>
      </trkpt>
      <trkpt lat="45.25611" lon="5.02775">
        <ele>250.97</ele>
        <time>2017-02-25T14:41:21Z</time>
      </trkpt>
      <trkpt lat="45.25611" lon="5.02775">
        <ele>250.97</ele>
        <time>2017-02-25T14:41:22Z</time>
      </trkpt>
      <trkpt lat="45.25611" lon="5.02775">
        <ele>250.97</ele>
        <time>2017-02-25T14:41:23Z</time>
      </trkpt>
      <trkpt lat="45.25611" lon="5.02775">
        <ele>250.97</ele>
        <time>2017-02-25T14:41:24Z</time>
      </trkpt>
      <trkpt lat="45.25611" lon="5.02775">
        <ele>250.97</ele>
        <time>2017-02-25T14:41:25Z</time>
      </trkpt>
      <trkpt lat="45.25611" lon="5.02775">
        <ele>250.97</ele>
        <time>2017-02-25T14:41:26Z</time>
      </trkpt>
      <trkpt lat="45.25611" lon="5.02775">
        <ele>250.97</ele>
        <time>2017-02-25T14:41:27Z</time>
      </trkpt>
      <trkpt lat="45.25611" lon="5.02775">
        <ele>250.97</ele>
        <time>2017-02-25T14:41:28Z</time>
      </trkpt>
      <trkpt lat="45.25611" lon="5.02775">
        <ele>250.97</ele>
        <time>2017-02-25T14:41:29Z</time>
      </trkpt>
      <trkpt lat="45.25611" lon="5.02775">
        <ele>250.97</ele>
        <time>2017-02-25T14:41:30Z</time>
      </trkpt>
      <trkpt lat="45.25611" lon="5.02775">
        <ele>250.97</ele>
        <time>2017-02-25T14:41:31Z</time>
      </trkpt>
      <trkpt lat="45.25611" lon="5.02775">
        <ele>250.97</ele>
        <time>2017-02-25T14:41:32Z</time>
      </trkpt>
      <trkpt lat="45.25611" lon="5.02775">
        <ele>250.97</ele>
        <time>2017-02-25T14:41:33Z</time>
      </trkpt>
      <trkpt lat="45.25611" lon="5.02775">
        <ele>250.97</ele>
        <time>2017-02-25T14:41:34Z</time>
      </trkpt>
      <trkpt lat="45.25611" lon="5.02775">
        <ele>250.97</ele>
        <time>2017-02-25T14:41:35Z</time>
      </trkpt>
      <trkpt lat="45.25611" lon="5.02775">
        <ele>250.97</ele>
        <time>2017-02-25T14:41:36Z</time>
      </trkpt>
      <trkpt lat="45.25611" lon="5.02775">
        <ele>250.97</ele>
        <time>2017-02-25T14:41:37Z</time>
      </trkpt>
      <trkpt lat="45.25611" lon="5.02775">
        <ele>250.97</ele>
        <time>2017-02-25T14:41:38Z</time>
      </trkpt>
      <trkpt lat="45.25611" lon="5.02775">
        <ele>250.97</ele>
        <time>2017-02-25T14:41:39Z</time>
      </trkpt>
      <trkpt lat="45.25611" lon="5.02775">
        <ele>250.97</ele>
        <time>2017-02-25T14:41:40Z</time>
      </trkpt>
      <trkpt lat="45.25611" lon="5.02775">
        <ele>250.97</ele>
        <time>2017-02-25T14:41:41Z</time>
      </trkpt>
      <trkpt lat="45.25611" lon="5.02775">
        <ele>250.97</ele>
        <time>2017-02-25T14:41:42Z</time>
      </trkpt>
      <trkpt lat="45.25611" lon="5.02775">
        <ele>250.97</ele>
        <time>2017-02-25T14:41:43Z</time>
      </trkpt>
      <trkpt lat="45.25611" lon="5.02775">
        <ele>250.97</ele>
        <time>2017-02-25T14:41:44Z</time>
      </trkpt>
      <trkpt lat="45.25611" lon="5.02775">
        <ele>250.97</ele>
        <time>2017-02-25T14:41:45Z</time>
      </trkpt>
      <trkpt lat="45.25611" lon="5.02775">
        <ele>250.97</ele>
        <time>2017-02-25T14:41:46Z</time>
      </trkpt>
      <trkpt lat="45.25611" lon="5.02775">
        <ele>250.97</ele>
        <time>2017-02-25T14:41:47Z</time>
      </trkpt>
      <trkpt lat="45.25611" lon="5.02775">
        <ele>250.97</ele>
        <time>2017-02-25T14:41:48Z</time>
      </trkpt>
      <trkpt lat="45.25611" lon="5.02775">
        <ele>250.97</ele>
        <time>2017-02-25T14:41:49Z</time>
      </trkpt>
      <trkpt lat="45.25611" lon="5.02775">
        <ele>250.97</ele>
        <time>2017-02-25T14:41:50Z</time>
      </trkpt>
      <trkpt lat="45.25611" lon="5.02775">
        <ele>250.97</ele>
        <time>2017-02-25T14:41:51Z</time>
      </trkpt>
      <trkpt lat="45.25611" lon="5.02775">
        <ele>250.97</ele>
        <time>2017-02-25T14:41:52Z</time>
      </trkpt>
      <trkpt lat="45.25611" lon="5.02775">
        <ele>250.97</ele>
        <time>2017-02-25T14:41:53Z</time>
      </trkpt>
      <trkpt lat="45.25611" lon="5.02775">
        <ele>250.97</ele>
        <time>2017-02-25T14:41:54Z</time>
      </trkpt>
      <trkpt lat="45.25611" lon="5.02775">
        <ele>250.97</ele>
        <time>2017-02-25T14:41:55Z</time>
      </trkpt>
      <trkpt lat="45.25611" lon="5.02775">
        <ele>250.97</ele>
        <time>2017-02-25T14:41:56Z</time>
      </trkpt>
      <trkpt lat="45.25611" lon="5.02775">
        <ele>250.97</ele>
        <time>2017-02-25T14:41:57Z</time>
      </trkpt>
      <trkpt lat="45.25611" lon="5.02775">
        <ele>250.97</ele>
        <time>2017-02-25T14:41:58Z</time>
      </trkpt>
      <trkpt lat="45.25611" lon="5.02775">
        <ele>250.97</ele>
        <time>2017-02-25T14:41:59Z</time>
      </trkpt>
      <trkpt lat="45.25611" lon="5.02775">
        <ele>250.97</ele>
        <time>2017-02-25T14:42:00Z</time>
      </trkpt>
      <trkpt lat="45.25611" lon="5.02775">
        <ele>250.97</ele>
        <time>2017-02-25T14:42:01Z</time>
      </trkpt>
      <trkpt lat="45.25611" lon="5.02775">
        <ele>250.97</ele>
        <time>2017-02-25T14:42:02Z</time>
      </trkpt>
      <trkpt lat="45.25611" lon="5.02775">
        <ele>250.97</ele>
        <time>2017-02-25T14:42:03Z</time>
      </trkpt>
      <trkpt lat="45.25611" lon="5.02775">
        <ele>250.97</ele>
        <time>2017-02-25T14:42:04Z</time>
      </trkpt>
      <trkpt lat="45.25611" lon="5.02775">
        <ele>250.97</ele>
        <time>2017-02-25T14:42:05Z</time>
      </trkpt>
      <trkpt lat="45.25611" lon="5.02775">
        <ele>250.97</ele>
        <time>2017-02-25T14:42:06Z</time>
      </trkpt>
      <trkpt lat="45.25611" lon="5.02775">
        <ele>250.97</ele>
        <time>2017-02-25T14:42:07Z</time>
      </trkpt>
      <trkpt lat="45.25611" lon="5.02775">
        <ele>250.97</ele>
        <time>2017-02-25T14:42:08Z</time>
      </trkpt>
      <trkpt lat="45.25611" lon="5.02775">
        <ele>250.97</ele>
        <time>2017-02-25T14:42:09Z</time>
      </trkpt>
      <trkpt lat="45.25611" lon="5.02775">
        <ele>250.97</ele>
        <time>2017-02-25T14:42:10Z</time>
      </trkpt>
      <trkpt lat="45.25611" lon="5.02775">
        <ele>250.97</ele>
        <time>2017-02-25T14:42:11Z</time>
      </trkpt>
      <trkpt lat="45.25611" lon="5.02775">
        <ele>250.97</ele>
        <time>2017-02-25T14:42:12Z</time>
      </trkpt>
      <trkpt lat="45.25611" lon="5.02775">
        <ele>250.97</ele>
        <time>2017-02-25T14:42:13Z</time>
      </trkpt>
      <trkpt lat="45.25611" lon="5.02775">
        <ele>250.97</ele>
        <time>2017-02-25T14:42:14Z</time>
      </trkpt>
      <trkpt lat="45.25611" lon="5.02775">
        <ele>250.97</ele>
        <time>2017-02-25T14:42:15Z</time>
      </trkpt>
      <trkpt lat="45.25611" lon="5.02775">
        <ele>250.97</ele>
        <time>2017-02-25T14:42:16Z</time>
      </trkpt>
      <trkpt lat="45.25611" lon="5.02775">
        <ele>250.97</ele>
        <time>2017-02-25T14:42:17Z</time>
      </trkpt>
      <trkpt lat="45.25611" lon="5.02775">
        <ele>250.97</ele>
        <time>2017-02-25T14:42:18Z</time>
      </trkpt>
      <trkpt lat="45.25611" lon="5.02775">
        <ele>250.97</ele>
        <time>2017-02-25T14:42:19Z</time>
      </trkpt>
      <trkpt lat="45.25611" lon="5.02775">
        <ele>250.97</ele>
        <time>2017-02-25T14:42:20Z</time>
      </trkpt>
      <trkpt lat="45.25611" lon="5.02775">
        <ele>250.97</ele>
        <time>2017-02-25T14:42:21Z</time>
      </trkpt>
      <trkpt lat="45.25611" lon="5.02775">
        <ele>250.97</ele>
        <time>2017-02-25T14:42:22Z</time>
      </trkpt>
      <trkpt lat="45.25611" lon="5.02775">
        <ele>250.97</ele>
        <time>2017-02-25T14:42:23Z</time>
      </trkpt>
      <trkpt lat="45.25611" lon="5.02775">
        <ele>250.97</ele>
        <time>2017-02-25T14:42:24Z</time>
      </trkpt>
      <trkpt lat="45.25611" lon="5.02775">
        <ele>250.97</ele>
        <time>2017-02-25T14:42:25Z</time>
      </trkpt>
      <trkpt lat="45.25611" lon="5.02775">
        <ele>250.97</ele>
        <time>2017-02-25T14:42:26Z</time>
      </trkpt>
      <trkpt lat="45.25611" lon="5.02775">
        <ele>250.97</ele>
        <time>2017-02-25T14:42:27Z</time>
      </trkpt>
      <trkpt lat="45.25611" lon="5.02775">
        <ele>250.97</ele>
        <time>2017-02-25T14:42:28Z</time>
      </trkpt>
      <trkpt lat="45.25611" lon="5.02775">
        <ele>250.97</ele>
        <time>2017-02-25T14:42:29Z</time>
      </trkpt>
      <trkpt lat="45.25611" lon="5.02775">
        <ele>250.97</ele>
        <time>2017-02-25T14:42:30Z</time>
      </trkpt>
      <trkpt lat="45.25611" lon="5.02775">
        <ele>250.97</ele>
        <time>2017-02-25T14:42:31Z</time>
      </trkpt>
      <trkpt lat="45.25611" lon="5.02775">
        <ele>250.97</ele>
        <time>2017-02-25T14:42:32Z</time>
      </trkpt>
      <trkpt lat="45.25611" lon="5.02775">
        <ele>250.97</ele>
        <time>2017-02-25T14:42:33Z</time>
      </trkpt>
      <trkpt lat="45.25611" lon="5.02775">
        <ele>250.97</ele>
        <time>2017-02-25T14:42:34Z</time>
      </trkpt>
      <trkpt lat="45.25611" lon="5.02775">
        <ele>250.97</ele>
        <time>2017-02-25T14:42:35Z</time>
      </trkpt>
      <trkpt lat="45.25611" lon="5.02775">
        <ele>250.97</ele>
        <time>2017-02-25T14:42:36Z</time>
      </trkpt>
      <trkpt lat="45.25611" lon="5.02775">
        <ele>250.97</ele>
        <time>2017-02-25T14:42:37Z</time>
      </trkpt>
      <trkpt lat="45.25611" lon="5.02775">
        <ele>250.97</ele>
        <time>2017-02-25T14:42:38Z</time>
      </trkpt>
      <trkpt lat="45.25611" lon="5.02775">
        <ele>250.97</ele>
        <time>2017-02-25T14:42:39Z</time>
      </trkpt>
      <trkpt lat="45.25611" lon="5.02775">
        <ele>250.97</ele>
        <time>2017-02-25T14:42:40Z</time>
      </trkpt>
      <trkpt lat="45.25611" lon="5.02775">
        <ele>250.97</ele>
        <time>2017-02-25T14:42:41Z</time>
      </trkpt>
      <trkpt lat="45.25611" lon="5.02775">
        <ele>250.97</ele>
        <time>2017-02-25T14:42:42Z</time>
      </trkpt>
      <trkpt lat="45.25611" lon="5.02775">
        <ele>250.97</ele>
        <time>2017-02-25T14:42:43Z</time>
      </trkpt>
      <trkpt lat="45.25611" lon="5.02775">
        <ele>250.97</ele>
        <time>2017-02-25T14:42:44Z</time>
      </trkpt>
      <trkpt lat="45.25611" lon="5.02775">
        <ele>250.97</ele>
        <time>2017-02-25T14:42:45Z</time>
      </trkpt>
      <trkpt lat="45.25611" lon="5.02775">
        <ele>250.97</ele>
        <time>2017-02-25T14:42:46Z</time>
      </trkpt>
      <trkpt lat="45.25611" lon="5.02775">
        <ele>250.97</ele>
        <time>2017-02-25T14:42:47Z</time>
      </trkpt>
      <trkpt lat="45.25611" lon="5.02775">
        <ele>250.97</ele>
        <time>2017-02-25T14:42:48Z</time>
      </trkpt>
      <trkpt lat="45.25611" lon="5.02775">
        <ele>250.97</ele>
        <time>2017-02-25T14:42:49Z</time>
      </trkpt>
      <trkpt lat="45.25611" lon="5.02775">
        <ele>250.97</ele>
        <time>2017-02-25T14:42:50Z</time>
      </trkpt>
      <trkpt lat="45.25611" lon="5.02775">
        <ele>250.97</ele>
        <time>2017-02-25T14:42:51Z</time>
      </trkpt>
      <trkpt lat="45.25611" lon="5.02775">
        <ele>250.97</ele>
        <time>2017-02-25T14:42:52Z</time>
      </trkpt>
      <trkpt lat="45.25611" lon="5.02775">
        <ele>250.97</ele>
        <time>2017-02-25T14:42:53Z</time>
      </trkpt>
      <trkpt lat="45.25611" lon="5.02775">
        <ele>250.97</ele>
        <time>2017-02-25T14:42:54Z</time>
      </trkpt>
      <trkpt lat="45.25611" lon="5.02775">
        <ele>250.97</ele>
        <time>2017-02-25T14:42:55Z</time>
      </trkpt>
      <trkpt lat="45.25611" lon="5.02775">
        <ele>250.97</ele>
        <time>2017-02-25T14:42:56Z</time>
      </trkpt>
      <trkpt lat="45.25611" lon="5.02775">
        <ele>250.97</ele>
        <time>2017-02-25T14:42:57Z</time>
      </trkpt>
      <trkpt lat="45.25611" lon="5.02775">
        <ele>250.97</ele>
        <time>2017-02-25T14:42:58Z</time>
      </trkpt>
      <trkpt lat="45.25611" lon="5.02775">
        <ele>250.97</ele>
        <time>2017-02-25T14:42:59Z</time>
      </trkpt>
      <trkpt lat="45.25611" lon="5.02775">
        <ele>250.97</ele>
        <time>2017-02-25T14:43:00Z</time>
      </trkpt>
      <trkpt lat="45.25611" lon="5.02775">
        <ele>250.97</ele>
        <time>2017-02-25T14:43:01Z</time>
      </trkpt>
      <trkpt lat="45.25611" lon="5.02775">
        <ele>250.97</ele>
        <time>2017-02-25T14:43:02Z</time>
      </trkpt>
      <trkpt lat="45.25611" lon="5.02775">
        <ele>250.97</ele>
        <time>2017-02-25T14:43:03Z</time>
      </trkpt>
      <trkpt lat="45.25611" lon="5.02775">
        <ele>250.97</ele>
        <time>2017-02-25T14:43:04Z</time>
      </trkpt>
      <trkpt lat="45.25611" lon="5.02775">
        <ele>250.97</ele>
        <time>2017-02-25T14:43:05Z</time>
      </trkpt>
      <trkpt lat="45.25611" lon="5.02775">
        <ele>250.97</ele>
        <time>2017-02-25T14:43:06Z</time>
      </trkpt>
      <trkpt lat="45.25611" lon="5.02775">
        <ele>250.97</ele>
        <time>2017-02-25T14:43:07Z</time>
      </trkpt>
      <trkpt lat="45.25611" lon="5.02775">
        <ele>250.97</ele>
        <time>2017-02-25T14:43:08Z</time>
      </trkpt>
      <trkpt lat="45.25611" lon="5.02775">
        <ele>250.97</ele>
        <time>2017-02-25T14:43:09Z</time>
      </trkpt>
      <trkpt lat="45.25611" lon="5.02775">
        <ele>250.97</ele>
        <time>2017-02-25T14:43:10Z</time>
      </trkpt>
      <trkpt lat="45.25611" lon="5.02775">
        <ele>250.97</ele>
        <time>2017-02-25T14:43:11Z</time>
      </trkpt>
      <trkpt lat="45.25611" lon="5.02775">
        <ele>250.97</ele>
        <time>2017-02-25T14:43:12Z</time>
      </trkpt>
      <trkpt lat="45.25611" lon="5.02775">
        <ele>250.97</ele>
        <time>2017-02-25T14:43:13Z</time>
      </trkpt>
      <trkpt lat="45.25611" lon="5.02775">
        <ele>250.97</ele>
        <time>2017-02-25T14:43:14Z</time>
      </trkpt>
      <trkpt lat="45.25611" lon="5.02775">
        <ele>250.97</ele>
        <time>2017-02-25T14:43:15Z</time>
      </trkpt>
      <trkpt lat="45.25611" lon="5.02775">
        <ele>250.97</ele>
        <time>2017-02-25T14:43:16Z</time>
      </trkpt>
      <trkpt lat="45.25611" lon="5.02775">
        <ele>250.97</ele>
        <time>2017-02-25T14:43:17Z</time>
      </trkpt>
      <trkpt lat="45.25611" lon="5.02775">
        <ele>250.97</ele>
        <time>2017-02-25T14:43:18Z</time>
      </trkpt>
      <trkpt lat="45.25611" lon="5.02775">
        <ele>250.97</ele>
        <time>2017-02-25T14:43:19Z</time>
      </trkpt>
      <trkpt lat="45.25611" lon="5.02775">
        <ele>250.97</ele>
        <time>2017-02-25T14:43:20Z</time>
      </trkpt>
      <trkpt lat="45.25611" lon="5.02775">
        <ele>250.97</ele>
        <time>2017-02-25T14:43:21Z</time>
      </trkpt>
      <trkpt lat="45.25611" lon="5.02775">
        <ele>250.97</ele>
        <time>2017-02-25T14:43:22Z</time>
      </trkpt>
      <trkpt lat="45.25611" lon="5.02775">
        <ele>250.97</ele>
        <time>2017-02-25T14:43:23Z</time>
      </trkpt>
      <trkpt lat="45.25611" lon="5.02775">
        <ele>250.97</ele>
        <time>2017-02-25T14:43:24Z</time>
      </trkpt>
      <trkpt lat="45.25611" lon="5.02775">
        <ele>250.97</ele>
        <time>2017-02-25T14:43:25Z</time>
      </trkpt>
      <trkpt lat="45.25611" lon="5.02775">
        <ele>250.97</ele>
        <time>2017-02-25T14:43:26Z</time>
      </trkpt>
      <trkpt lat="45.25611" lon="5.02775">
        <ele>250.97</ele>
        <time>2017-02-25T14:43:27Z</time>
      </trkpt>
      <trkpt lat="45.25611" lon="5.02775">
        <ele>250.97</ele>
        <time>2017-02-25T14:43:28Z</time>
      </trkpt>
      <trkpt lat="45.25611" lon="5.02775">
        <ele>250.97</ele>
        <time>2017-02-25T14:43:29Z</time>
      </trkpt>
      <trkpt lat="45.25611" lon="5.02775">
        <ele>250.97</ele>
        <time>2017-02-25T14:43:30Z</time>
      </trkpt>
      <trkpt lat="45.25611" lon="5.02775">
        <ele>250.97</ele>
        <time>2017-02-25T14:43:31Z</time>
      </trkpt>
      <trkpt lat="45.25611" lon="5.02775">
        <ele>250.97</ele>
        <time>2017-02-25T14:43:32Z</time>
      </trkpt>
      <trkpt lat="45.25611" lon="5.02775">
        <ele>250.97</ele>
        <time>2017-02-25T14:43:33Z</time>
      </trkpt>
      <trkpt lat="45.25611" lon="5.02775">
        <ele>250.97</ele>
        <time>2017-02-25T14:43:34Z</time>
      </trkpt>
      <trkpt lat="45.25611" lon="5.02775">
        <ele>250.97</ele>
        <time>2017-02-25T14:43:35Z</time>
      </trkpt>
      <trkpt lat="45.25611" lon="5.02775">
        <ele>250.97</ele>
        <time>2017-02-25T14:43:36Z</time>
      </trkpt>
      <trkpt lat="45.25611" lon="5.02775">
        <ele>250.97</ele>
        <time>2017-02-25T14:43:37Z</time>
      </trkpt>
      <trkpt lat="45.25611" lon="5.02775">
        <ele>250.97</ele>
        <time>2017-02-25T14:43:38Z</time>
      </trkpt>
      <trkpt lat="45.25611" lon="5.02775">
        <ele>250.97</ele>
        <time>2017-02-25T14:43:39Z</time>
      </trkpt>
      <trkpt lat="45.25611" lon="5.02775">
        <ele>250.97</ele>
        <time>2017-02-25T14:43:40Z</time>
      </trkpt>
      <trkpt lat="45.25611" lon="5.02775">
        <ele>250.97</ele>
        <time>2017-02-25T14:43:41Z</time>
      </trkpt>
      <trkpt lat="45.25611" lon="5.02775">
        <ele>250.97</ele>
        <time>2017-02-25T14:43:42Z</time>
      </trkpt>
      <trkpt lat="45.25611" lon="5.02775">
        <ele>250.97</ele>
        <time>2017-02-25T14:43:43Z</time>
      </trkpt>
      <trkpt lat="45.25611" lon="5.02775">
        <ele>250.97</ele>
        <time>2017-02-25T14:43:44Z</time>
      </trkpt>
      <trkpt lat="45.25611" lon="5.02775">
        <ele>250.97</ele>
        <time>2017-02-25T14:43:45Z</time>
      </trkpt>
      <trkpt lat="45.25611" lon="5.02775">
        <ele>250.97</ele>
        <time>2017-02-25T14:43:46Z</time>
      </trkpt>
      <trkpt lat="45.25611" lon="5.02775">
        <ele>250.97</ele>
        <time>2017-02-25T14:43:47Z</time>
      </trkpt>
      <trkpt lat="45.25611" lon="5.02775">
        <ele>250.97</ele>
        <time>2017-02-25T14:43:48Z</time>
      </trkpt>
      <trkpt lat="45.25611" lon="5.02775">
        <ele>250.97</ele>
        <time>2017-02-25T14:43:49Z</time>
      </trkpt>
      <trkpt lat="45.25611" lon="5.02775">
        <ele>250.97</ele>
        <time>2017-02-25T14:43:50Z</time>
      </trkpt>
      <trkpt lat="45.25611" lon="5.02775">
        <ele>250.97</ele>
        <time>2017-02-25T14:43:51Z</time>
      </trkpt>
      <trkpt lat="45.25611" lon="5.02775">
        <ele>250.97</ele>
        <time>2017-02-25T14:43:52Z</time>
      </trkpt>
      <trkpt lat="45.25611" lon="5.02775">
        <ele>250.97</ele>
        <time>2017-02-25T14:43:53Z</time>
      </trkpt>
      <trkpt lat="45.25611" lon="5.02775">
        <ele>250.97</ele>
        <time>2017-02-25T14:43:54Z</time>
      </trkpt>
      <trkpt lat="45.25611" lon="5.02775">
        <ele>250.97</ele>
        <time>2017-02-25T14:43:55Z</time>
      </trkpt>
      <trkpt lat="45.25611" lon="5.02775">
        <ele>250.97</ele>
        <time>2017-02-25T14:43:56Z</time>
      </trkpt>
      <trkpt lat="45.25611" lon="5.02775">
        <ele>250.97</ele>
        <time>2017-02-25T14:43:57Z</time>
      </trkpt>
      <trkpt lat="45.25611" lon="5.02775">
        <ele>250.97</ele>
        <time>2017-02-25T14:43:58Z</time>
      </trkpt>
      <trkpt lat="45.25611" lon="5.02775">
        <ele>250.97</ele>
        <time>2017-02-25T14:43:59Z</time>
      </trkpt>
      <trkpt lat="45.25611" lon="5.02775">
        <ele>250.97</ele>
        <time>2017-02-25T14:44:00Z</time>
      </trkpt>
      <trkpt lat="45.25611" lon="5.02775">
        <ele>250.97</ele>
        <time>2017-02-25T14:44:01Z</time>
      </trkpt>
      <trkpt lat="45.25611" lon="5.02775">
        <ele>250.97</ele>
        <time>2017-02-25T14:44:02Z</time>
      </trkpt>
      <trkpt lat="45.25611" lon="5.02775">
        <ele>250.97</ele>
        <time>2017-02-25T14:44:03Z</time>
      </trkpt>
      <trkpt lat="45.25611" lon="5.02775">
        <ele>250.97</ele>
        <time>2017-02-25T14:44:04Z</time>
      </trkpt>
      <trkpt lat="45.25611" lon="5.02775">
        <ele>250.97</ele>
        <time>2017-02-25T14:44:05Z</time>
      </trkpt>
      <trkpt lat="45.25611" lon="5.02775">
        <ele>250.97</ele>
        <time>2017-02-25T14:44:06Z</time>
      </trkpt>
      <trkpt lat="45.25611" lon="5.02775">
        <ele>250.97</ele>
        <time>2017-02-25T14:44:07Z</time>
      </trkpt>
      <trkpt lat="45.25611" lon="5.02775">
        <ele>250.97</ele>
        <time>2017-02-25T14:44:08Z</time>
      </trkpt>
      <trkpt lat="45.25611" lon="5.02775">
        <ele>250.97</ele>
        <time>2017-02-25T14:44:09Z</time>
      </trkpt>
      <trkpt lat="45.25611" lon="5.02775">
        <ele>250.97</ele>
        <time>2017-02-25T14:44:10Z</time>
      </trkpt>
      <trkpt lat="45.25611" lon="5.02775">
        <ele>250.97</ele>
        <time>2017-02-25T14:44:11Z</time>
      </trkpt>
      <trkpt lat="45.25611" lon="5.02775">
        <ele>250.97</ele>
        <time>2017-02-25T14:44:12Z</time>
      </trkpt>
      <trkpt lat="45.25611" lon="5.02775">
        <ele>250.97</ele>
        <time>2017-02-25T14:44:13Z</time>
      </trkpt>
      <trkpt lat="45.25611" lon="5.02775">
        <ele>250.97</ele>
        <time>2017-02-25T14:44:14Z</time>
      </trkpt>
      <trkpt lat="45.25611" lon="5.02775">
        <ele>250.97</ele>
        <time>2017-02-25T14:44:15Z</time>
      </trkpt>
      <trkpt lat="45.25611" lon="5.02775">
        <ele>250.97</ele>
        <time>2017-02-25T14:44:16Z</time>
      </trkpt>
      <trkpt lat="45.25611" lon="5.02775">
        <ele>250.97</ele>
        <time>2017-02-25T14:44:17Z</time>
      </trkpt>
      <trkpt lat="45.25611" lon="5.02775">
        <ele>250.97</ele>
        <time>2017-02-25T14:44:18Z</time>
      </trkpt>
      <trkpt lat="45.25611" lon="5.02775">
        <ele>250.97</ele>
        <time>2017-02-25T14:44:19Z</time>
      </trkpt>
      <trkpt lat="45.25611" lon="5.02775">
        <ele>250.97</ele>
        <time>2017-02-25T14:44:20Z</time>
      </trkpt>
      <trkpt lat="45.25611" lon="5.02775">
        <ele>250.97</ele>
        <time>2017-02-25T14:44:21Z</time>
      </trkpt>
      <trkpt lat="45.25611" lon="5.02775">
        <ele>250.97</ele>
        <time>2017-02-25T14:44:22Z</time>
      </trkpt>
      <trkpt lat="45.25611" lon="5.02775">
        <ele>250.97</ele>
        <time>2017-02-25T14:44:23Z</time>
      </trkpt>
      <trkpt lat="45.25611" lon="5.02775">
        <ele>250.97</ele>
        <time>2017-02-25T14:44:24Z</time>
      </trkpt>
      <trkpt lat="45.25611" lon="5.02775">
        <ele>250.97</ele>
        <time>2017-02-25T14:44:25Z</time>
      </trkpt>
      <trkpt lat="45.25611" lon="5.02775">
        <ele>250.97</ele>
        <time>2017-02-25T14:44:26Z</time>
      </trkpt>
      <trkpt lat="45.25611" lon="5.02775">
        <ele>250.97</ele>
        <time>2017-02-25T14:44:27Z</time>
      </trkpt>
      <trkpt lat="45.25611" lon="5.02775">
        <ele>250.97</ele>
        <time>2017-02-25T14:44:28Z</time>
      </trkpt>
      <trkpt lat="45.25611" lon="5.02775">
        <ele>250.97</ele>
        <time>2017-02-25T14:44:29Z</time>
      </trkpt>
      <trkpt lat="45.25611" lon="5.02775">
        <ele>250.97</ele>
        <time>2017-02-25T14:44:30Z</time>
      </trkpt>
      <trkpt lat="45.25611" lon="5.02775">
        <ele>250.97</ele>
        <time>2017-02-25T14:44:31Z</time>
      </trkpt>
      <trkpt lat="45.25611" lon="5.02775">
        <ele>250.97</ele>
        <time>2017-02-25T14:44:32Z</time>
      </trkpt>
      <trkpt lat="45.25611" lon="5.02775">
        <ele>250.97</ele>
        <time>2017-02-25T14:44:33Z</time>
      </trkpt>
      <trkpt lat="45.25611" lon="5.02775">
        <ele>250.97</ele>
        <time>2017-02-25T14:44:34Z</time>
      </trkpt>
      <trkpt lat="45.25611" lon="5.02775">
        <ele>250.97</ele>
        <time>2017-02-25T14:44:35Z</time>
      </trkpt>
      <trkpt lat="45.25611" lon="5.02775">
        <ele>250.97</ele>
        <time>2017-02-25T14:44:36Z</time>
      </trkpt>
      <trkpt lat="45.25611" lon="5.02775">
        <ele>250.97</ele>
        <time>2017-02-25T14:44:37Z</time>
      </trkpt>
      <trkpt lat="45.25611" lon="5.02775">
        <ele>250.97</ele>
        <time>2017-02-25T14:44:38Z</time>
      </trkpt>
      <trkpt lat="45.25611" lon="5.02775">
        <ele>250.97</ele>
        <time>2017-02-25T14:44:39Z</time>
      </trkpt>
      <trkpt lat="45.25611" lon="5.02775">
        <ele>250.97</ele>
        <time>2017-02-25T14:44:40Z</time>
      </trkpt>
      <trkpt lat="45.25611" lon="5.02775">
        <ele>250.97</ele>
        <time>2017-02-25T14:44:41Z</time>
      </trkpt>
      <trkpt lat="45.25611" lon="5.02775">
        <ele>250.97</ele>
        <time>2017-02-25T14:44:42Z</time>
      </trkpt>
      <trkpt lat="45.25611" lon="5.02775">
        <ele>250.97</ele>
        <time>2017-02-25T14:44:43Z</time>
      </trkpt>
      <trkpt lat="45.25611" lon="5.02775">
        <ele>250.97</ele>
        <time>2017-02-25T14:44:44Z</time>
      </trkpt>
      <trkpt lat="45.25611" lon="5.02775">
        <ele>250.97</ele>
        <time>2017-02-25T14:44:45Z</time>
      </trkpt>
      <trkpt lat="45.25611" lon="5.02775">
        <ele>250.97</ele>
        <time>2017-02-25T14:44:46Z</time>
      </trkpt>
      <trkpt lat="45.25611" lon="5.02775">
        <ele>250.97</ele>
        <time>2017-02-25T14:44:47Z</time>
      </trkpt>
      <trkpt lat="45.25611" lon="5.02775">
        <ele>250.97</ele>
        <time>2017-02-25T14:44:48Z</time>
      </trkpt>
      <trkpt lat="45.25611" lon="5.02775">
        <ele>250.97</ele>
        <time>2017-02-25T14:44:49Z</time>
      </trkpt>
      <trkpt lat="45.25611" lon="5.02775">
        <ele>250.97</ele>
        <time>2017-02-25T14:44:50Z</time>
      </trkpt>
      <trkpt lat="45.25611" lon="5.02775">
        <ele>250.97</ele>
        <time>2017-02-25T14:44:51Z</time>
      </trkpt>
      <trkpt lat="45.25611" lon="5.02775">
        <ele>250.97</ele>
        <time>2017-02-25T14:44:52Z</time>
      </trkpt>
      <trkpt lat="45.25611" lon="5.02775">
        <ele>250.97</ele>
        <time>2017-02-25T14:44:53Z</time>
      </trkpt>
      <trkpt lat="45.25611" lon="5.02775">
        <ele>250.97</ele>
        <time>2017-02-25T14:44:54Z</time>
      </trkpt>
      <trkpt lat="45.25611" lon="5.02775">
        <ele>250.97</ele>
        <time>2017-02-25T14:44:55Z</time>
      </trkpt>
      <trkpt lat="45.25611" lon="5.02775">
        <ele>250.97</ele>
        <time>2017-02-25T14:44:56Z</time>
      </trkpt>
      <trkpt lat="45.25611" lon="5.02775">
        <ele>250.97</ele>
        <time>2017-02-25T14:44:57Z</time>
      </trkpt>
      <trkpt lat="45.25611" lon="5.02775">
        <ele>250.97</ele>
        <time>2017-02-25T14:44:58Z</time>
      </trkpt>
      <trkpt lat="45.25611" lon="5.02775">
        <ele>250.97</ele>
        <time>2017-02-25T14:44:59Z</time>
      </trkpt>
      <trkpt lat="45.25611" lon="5.02775">
        <ele>250.97</ele>
        <time>2017-02-25T14:45:00Z</time>
      </trkpt>
      <trkpt lat="45.25611" lon="5.02775">
        <ele>250.97</ele>
        <time>2017-02-25T14:45:01Z</time>
      </trkpt>
      <trkpt lat="45.25611" lon="5.02775">
        <ele>250.97</ele>
        <time>2017-02-25T14:45:02Z</time>
      </trkpt>
      <trkpt lat="45.25611" lon="5.02775">
        <ele>250.97</ele>
        <time>2017-02-25T14:45:03Z</time>
      </trkpt>
      <trkpt lat="45.25611" lon="5.02775">
        <ele>250.97</ele>
        <time>2017-02-25T14:45:04Z</time>
      </trkpt>
      <trkpt lat="45.25611" lon="5.02775">
        <ele>250.97</ele>
        <time>2017-02-25T14:45:05Z</time>
      </trkpt>
      <trkpt lat="45.25611" lon="5.02775">
        <ele>250.97</ele>
        <time>2017-02-25T14:45:06Z</time>
      </trkpt>
      <trkpt lat="45.25611" lon="5.02775">
        <ele>250.97</ele>
        <time>2017-02-25T14:45:07Z</time>
      </trkpt>
      <trkpt lat="45.25611" lon="5.02775">
        <ele>250.97</ele>
        <time>2017-02-25T14:45:08Z</time>
      </trkpt>
      <trkpt lat="45.25611" lon="5.02775">
        <ele>250.97</ele>
        <time>2017-02-25T14:45:09Z</time>
      </trkpt>
      <trkpt lat="45.25611" lon="5.02775">
        <ele>250.97</ele>
        <time>2017-02-25T14:45:10Z</time>
      </trkpt>
      <trkpt lat="45.25611" lon="5.02775">
        <ele>250.97</ele>
        <time>2017-02-25T14:45:11Z</time>
      </trkpt>
      <trkpt lat="45.25611" lon="5.02775">
        <ele>250.97</ele>
        <time>2017-02-25T14:45:12Z</time>
      </trkpt>
      <trkpt lat="45.25611" lon="5.02775">
        <ele>250.97</ele>
        <time>2017-02-25T14:45:13Z</time>
      </trkpt>
      <trkpt lat="45.25611" lon="5.02775">
        <ele>250.97</ele>
        <time>2017-02-25T14:45:14Z</time>
      </trkpt>
      <trkpt lat="45.25611" lon="5.02775">
        <ele>250.97</ele>
        <time>2017-02-25T14:45:15Z</time>
      </trkpt>
      <trkpt lat="45.25611" lon="5.02775">
        <ele>250.97</ele>
        <time>2017-02-25T14:45:16Z</time>
      </trkpt>
      <trkpt lat="45.25611" lon="5.02775">
        <ele>250.97</ele>
        <time>2017-02-25T14:45:17Z</time>
      </trkpt>
      <trkpt lat="45.25611" lon="5.02775">
        <ele>250.97</ele>
        <time>2017-02-25T14:45:18Z</time>
      </trkpt>
      <trkpt lat="45.25611" lon="5.02775">
        <ele>250.97</ele>
        <time>2017-02-25T14:45:19Z</time>
      </trkpt>
      <trkpt lat="45.25611" lon="5.02775">
        <ele>250.97</ele>
        <time>2017-02-25T14:45:20Z</time>
      </trkpt>
      <trkpt lat="45.25611" lon="5.02775">
        <ele>250.97</ele>
        <time>2017-02-25T14:45:21Z</time>
      </trkpt>
      <trkpt lat="45.25611" lon="5.02775">
        <ele>250.97</ele>
        <time>2017-02-25T14:45:22Z</time>
      </trkpt>
      <trkpt lat="45.25611" lon="5.02775">
        <ele>250.97</ele>
        <time>2017-02-25T14:45:23Z</time>
      </trkpt>
      <trkpt lat="45.25611" lon="5.02775">
        <ele>250.97</ele>
        <time>2017-02-25T14:45:24Z</time>
      </trkpt>
      <trkpt lat="45.25611" lon="5.02775">
        <ele>250.97</ele>
        <time>2017-02-25T14:45:25Z</time>
      </trkpt>
      <trkpt lat="45.25611" lon="5.02775">
        <ele>250.97</ele>
        <time>2017-02-25T14:45:26Z</time>
      </trkpt>
      <trkpt lat="45.25611" lon="5.02775">
        <ele>250.97</ele>
        <time>2017-02-25T14:45:27Z</time>
      </trkpt>
      <trkpt lat="45.25611" lon="5.02775">
        <ele>250.97</ele>
        <time>2017-02-25T14:45:28Z</time>
      </trkpt>
      <trkpt lat="45.25611" lon="5.02775">
        <ele>250.97</ele>
        <time>2017-02-25T14:45:29Z</time>
      </trkpt>
      <trkpt lat="45.25611" lon="5.02775">
        <ele>250.97</ele>
        <time>2017-02-25T14:45:30Z</time>
      </trkpt>
      <trkpt lat="45.25611" lon="5.02775">
        <ele>250.97</ele>
        <time>2017-02-25T14:45:31Z</time>
      </trkpt>
      <trkpt lat="45.25611" lon="5.02775">
        <ele>250.97</ele>
        <time>2017-02-25T14:45:32Z</time>
      </trkpt>
      <trkpt lat="45.25611" lon="5.02775">
        <ele>250.97</ele>
        <time>2017-02-25T14:45:33Z</time>
      </trkpt>
      <trkpt lat="45.25611" lon="5.02775">
        <ele>250.97</ele>
        <time>2017-02-25T14:45:34Z</time>
      </trkpt>
      <trkpt lat="45.25611" lon="5.02775">
        <ele>250.97</ele>
        <time>2017-02-25T14:45:35Z</time>
      </trkpt>
      <trkpt lat="45.25611" lon="5.02775">
        <ele>250.97</ele>
        <time>2017-02-25T14:45:36Z</time>
      </trkpt>
      <trkpt lat="45.25611" lon="5.02775">
        <ele>250.97</ele>
        <time>2017-02-25T14:45:37Z</time>
      </trkpt>
      <trkpt lat="45.25611" lon="5.02775">
        <ele>250.97</ele>
        <time>2017-02-25T14:45:38Z</time>
      </trkpt>
      <trkpt lat="45.25611" lon="5.02775">
        <ele>250.97</ele>
        <time>2017-02-25T14:45:39Z</time>
      </trkpt>
      <trkpt lat="45.25611" lon="5.02775">
        <ele>250.97</ele>
        <time>2017-02-25T14:45:40Z</time>
      </trkpt>
      <trkpt lat="45.25611" lon="5.02775">
        <ele>250.97</ele>
        <time>2017-02-25T14:45:41Z</time>
      </trkpt>
      <trkpt lat="45.25611" lon="5.02775">
        <ele>250.97</ele>
        <time>2017-02-25T14:45:42Z</time>
      </trkpt>
      <trkpt lat="45.25611" lon="5.02775">
        <ele>250.97</ele>
        <time>2017-02-25T14:45:43Z</time>
      </trkpt>
      <trkpt lat="45.25611" lon="5.02775">
        <ele>250.97</ele>
        <time>2017-02-25T14:45:44Z</time>
      </trkpt>
      <trkpt lat="45.25611" lon="5.02775">
        <ele>250.97</ele>
        <time>2017-02-25T14:45:45Z</time>
      </trkpt>
      <trkpt lat="45.25611" lon="5.02775">
        <ele>250.97</ele>
        <time>2017-02-25T14:45:46Z</time>
      </trkpt>
      <trkpt lat="45.25611" lon="5.02775">
        <ele>250.97</ele>
        <time>2017-02-25T14:45:47Z</time>
      </trkpt>
      <trkpt lat="45.25611" lon="5.02775">
        <ele>250.97</ele>
        <time>2017-02-25T14:45:48Z</time>
      </trkpt>
      <trkpt lat="45.25611" lon="5.02775">
        <ele>250.97</ele>
        <time>2017-02-25T14:45:49Z</time>
      </trkpt>
      <trkpt lat="45.25611" lon="5.02775">
        <ele>250.97</ele>
        <time>2017-02-25T14:45:50Z</time>
      </trkpt>
      <trkpt lat="45.25611" lon="5.02775">
        <ele>250.97</ele>
        <time>2017-02-25T14:45:51Z</time>
      </trkpt>
      <trkpt lat="45.25611" lon="5.02775">
        <ele>250.97</ele>
        <time>2017-02-25T14:45:52Z</time>
      </trkpt>
      <trkpt lat="45.25611" lon="5.02775">
        <ele>250.97</ele>
        <time>2017-02-25T14:45:53Z</time>
      </trkpt>
      <trkpt lat="45.25611" lon="5.02775">
        <ele>250.97</ele>
        <time>2017-02-25T14:45:54Z</time>
      </trkpt>
      <trkpt lat="45.25611" lon="5.02775">
        <ele>250.97</ele>
        <time>2017-02-25T14:45:55Z</time>
      </trkpt>
      <trkpt lat="45.25611" lon="5.02775">
        <ele>250.97</ele>
        <time>2017-02-25T14:45:56Z</time>
      </trkpt>
      <trkpt lat="45.25611" lon="5.02775">
        <ele>250.97</ele>
        <time>2017-02-25T14:45:57Z</time>
      </trkpt>
      <trkpt lat="45.25611" lon="5.02775">
        <ele>250.97</ele>
        <time>2017-02-25T14:45:58Z</time>
      </trkpt>
      <trkpt lat="45.25611" lon="5.02775">
        <ele>250.97</ele>
        <time>2017-02-25T14:45:59Z</time>
      </trkpt>
      <trkpt lat="45.25611" lon="5.02775">
        <ele>250.97</ele>
        <time>2017-02-25T14:46:00Z</time>
      </trkpt>
      <trkpt lat="45.25611" lon="5.02775">
        <ele>250.97</ele>
        <time>2017-02-25T14:46:01Z</time>
      </trkpt>
      <trkpt lat="45.25611" lon="5.02775">
        <ele>250.97</ele>
        <time>2017-02-25T14:46:02Z</time>
      </trkpt>
      <trkpt lat="45.25611" lon="5.02775">
        <ele>250.97</ele>
        <time>2017-02-25T14:46:03Z</time>
      </trkpt>
      <trkpt lat="45.25611" lon="5.02775">
        <ele>250.97</ele>
        <time>2017-02-25T14:46:04Z</time>
      </trkpt>
      <trkpt lat="45.25611" lon="5.02775">
        <ele>250.97</ele>
        <time>2017-02-25T14:46:05Z</time>
      </trkpt>
      <trkpt lat="45.25611" lon="5.02775">
        <ele>250.97</ele>
        <time>2017-02-25T14:46:06Z</time>
      </trkpt>
      <trkpt lat="45.25611" lon="5.02775">
        <ele>250.97</ele>
        <time>2017-02-25T14:46:07Z</time>
      </trkpt>
      <trkpt lat="45.25611" lon="5.02775">
        <ele>250.97</ele>
        <time>2017-02-25T14:46:08Z</time>
      </trkpt>
      <trkpt lat="45.25611" lon="5.02775">
        <ele>250.97</ele>
        <time>2017-02-25T14:46:09Z</time>
      </trkpt>
      <trkpt lat="45.25611" lon="5.02775">
        <ele>250.97</ele>
        <time>2017-02-25T14:46:10Z</time>
      </trkpt>
      <trkpt lat="45.25611" lon="5.02775">
        <ele>250.97</ele>
        <time>2017-02-25T14:46:11Z</time>
      </trkpt>
      <trkpt lat="45.25611" lon="5.02775">
        <ele>250.97</ele>
        <time>2017-02-25T14:46:12Z</time>
      </trkpt>
      <trkpt lat="45.25611" lon="5.02775">
        <ele>250.97</ele>
        <time>2017-02-25T14:46:13Z</time>
      </trkpt>
      <trkpt lat="45.25611" lon="5.02775">
        <ele>250.97</ele>
        <time>2017-02-25T14:46:14Z</time>
      </trkpt>
      <trkpt lat="45.25611" lon="5.02775">
        <ele>250.97</ele>
        <time>2017-02-25T14:46:15Z</time>
      </trkpt>
      <trkpt lat="45.25611" lon="5.02775">
        <ele>250.97</ele>
        <time>2017-02-25T14:46:16Z</time>
      </trkpt>
      <trkpt lat="45.25611" lon="5.02775">
        <ele>250.97</ele>
        <time>2017-02-25T14:46:17Z</time>
      </trkpt>
      <trkpt lat="45.25611" lon="5.02775">
        <ele>250.97</ele>
        <time>2017-02-25T14:46:18Z</time>
      </trkpt>
      <trkpt lat="45.25611" lon="5.02775">
        <ele>250.97</ele>
        <time>2017-02-25T14:46:19Z</time>
      </trkpt>
      <trkpt lat="45.25611" lon="5.02775">
        <ele>250.97</ele>
        <time>2017-02-25T14:46:20Z</time>
      </trkpt>
      <trkpt lat="45.25611" lon="5.02775">
        <ele>250.97</ele>
        <time>2017-02-25T14:46:21Z</time>
      </trkpt>
      <trkpt lat="45.25611" lon="5.02775">
        <ele>250.97</ele>
        <time>2017-02-25T14:46:22Z</time>
      </trkpt>
      <trkpt lat="45.25611" lon="5.02775">
        <ele>250.97</ele>
        <time>2017-02-25T14:46:23Z</time>
      </trkpt>
      <trkpt lat="45.25611" lon="5.02775">
        <ele>250.97</ele>
        <time>2017-02-25T14:46:24Z</time>
      </trkpt>
      <trkpt lat="45.25611" lon="5.02775">
        <ele>250.97</ele>
        <time>2017-02-25T14:46:25Z</time>
      </trkpt>
      <trkpt lat="45.25611" lon="5.02775">
        <ele>250.97</ele>
        <time>2017-02-25T14:46:26Z</time>
      </trkpt>
      <trkpt lat="45.25611" lon="5.02775">
        <ele>250.97</ele>
        <time>2017-02-25T14:46:27Z</time>
      </trkpt>
      <trkpt lat="45.25611" lon="5.02775">
        <ele>250.97</ele>
        <time>2017-02-25T14:46:28Z</time>
      </trkpt>
      <trkpt lat="45.25611" lon="5.02775">
        <ele>250.97</ele>
        <time>2017-02-25T14:46:29Z</time>
      </trkpt>
      <trkpt lat="45.25611" lon="5.02775">
        <ele>250.97</ele>
        <time>2017-02-25T14:46:30Z</time>
      </trkpt>
      <trkpt lat="45.25611" lon="5.02775">
        <ele>250.97</ele>
        <time>2017-02-25T14:46:31Z</time>
      </trkpt>
      <trkpt lat="45.25611" lon="5.02775">
        <ele>250.97</ele>
        <time>2017-02-25T14:46:32Z</time>
      </trkpt>
      <trkpt lat="45.25611" lon="5.02775">
        <ele>250.97</ele>
        <time>2017-02-25T14:46:33Z</time>
      </trkpt>
      <trkpt lat="45.25611" lon="5.02775">
        <ele>250.97</ele>
        <time>2017-02-25T14:46:34Z</time>
      </trkpt>
      <trkpt lat="45.25611" lon="5.02775">
        <ele>250.97</ele>
        <time>2017-02-25T14:46:35Z</time>
      </trkpt>
      <trkpt lat="45.25611" lon="5.02775">
        <ele>250.97</ele>
        <time>2017-02-25T14:46:36Z</time>
      </trkpt>
      <trkpt lat="45.25611" lon="5.02775">
        <ele>250.97</ele>
        <time>2017-02-25T14:46:37Z</time>
      </trkpt>
      <trkpt lat="45.25611" lon="5.02775">
        <ele>250.97</ele>
        <time>2017-02-25T14:46:38Z</time>
      </trkpt>
      <trkpt lat="45.25611" lon="5.02775">
        <ele>250.97</ele>
        <time>2017-02-25T14:46:39Z</time>
      </trkpt>
      <trkpt lat="45.25611" lon="5.02775">
        <ele>250.97</ele>
        <time>2017-02-25T14:46:40Z</time>
      </trkpt>
      <trkpt lat="45.25611" lon="5.02775">
        <ele>250.97</ele>
        <time>2017-02-25T14:46:41Z</time>
      </trkpt>
      <trkpt lat="45.25611" lon="5.02775">
        <ele>250.97</ele>
        <time>2017-02-25T14:46:42Z</time>
      </trkpt>
      <trkpt lat="45.25611" lon="5.02775">
        <ele>250.97</ele>
        <time>2017-02-25T14:46:43Z</time>
      </trkpt>
      <trkpt lat="45.25611" lon="5.02775">
        <ele>250.97</ele>
        <time>2017-02-25T14:46:44Z</time>
      </trkpt>
      <trkpt lat="45.25611" lon="5.02775">
        <ele>250.97</ele>
        <time>2017-02-25T14:46:45Z</time>
      </trkpt>
      <trkpt lat="45.25611" lon="5.02775">
        <ele>250.97</ele>
        <time>2017-02-25T14:46:46Z</time>
      </trkpt>
      <trkpt lat="45.25611" lon="5.02775">
        <ele>250.97</ele>
        <time>2017-02-25T14:46:47Z</time>
      </trkpt>
      <trkpt lat="45.25611" lon="5.02775">
        <ele>250.97</ele>
        <time>2017-02-25T14:46:48Z</time>
      </trkpt>
      <trkpt lat="45.25611" lon="5.02775">
        <ele>250.97</ele>
        <time>2017-02-25T14:46:49Z</time>
      </trkpt>
      <trkpt lat="45.25611" lon="5.02775">
        <ele>250.97</ele>
        <time>2017-02-25T14:46:50Z</time>
      </trkpt>
      <trkpt lat="45.25611" lon="5.02775">
        <ele>250.97</ele>
        <time>2017-02-25T14:46:51Z</time>
      </trkpt>
      <trkpt lat="45.25611" lon="5.02775">
        <ele>250.97</ele>
        <time>2017-02-25T14:46:52Z</time>
      </trkpt>
      <trkpt lat="45.25611" lon="5.02775">
        <ele>250.97</ele>
        <time>2017-02-25T14:46:53Z</time>
      </trkpt>
      <trkpt lat="45.25611" lon="5.02775">
        <ele>250.97</ele>
        <time>2017-02-25T14:46:54Z</time>
      </trkpt>
      <trkpt lat="45.25611" lon="5.02775">
        <ele>250.97</ele>
        <time>2017-02-25T14:46:55Z</time>
      </trkpt>
      <trkpt lat="45.25611" lon="5.02775">
        <ele>250.97</ele>
        <time>2017-02-25T14:46:56Z</time>
      </trkpt>
      <trkpt lat="45.25611" lon="5.02775">
        <ele>250.97</ele>
        <time>2017-02-25T14:46:57Z</time>
      </trkpt>
      <trkpt lat="45.25611" lon="5.02775">
        <ele>250.97</ele>
        <time>2017-02-25T14:46:58Z</time>
      </trkpt>
      <trkpt lat="45.25611" lon="5.02775">
        <ele>250.97</ele>
        <time>2017-02-25T14:46:59Z</time>
      </trkpt>
      <trkpt lat="45.25611" lon="5.02775">
        <ele>250.97</ele>
        <time>2017-02-25T14:47:00Z</time>
      </trkpt>
      <trkpt lat="45.25611" lon="5.02775">
        <ele>250.97</ele>
        <time>2017-02-25T14:47:01Z</time>
      </trkpt>
      <trkpt lat="45.25611" lon="5.02775">
        <ele>250.97</ele>
        <time>2017-02-25T14:47:02Z</time>
      </trkpt>
      <trkpt lat="45.25611" lon="5.02775">
        <ele>250.97</ele>
        <time>2017-02-25T14:47:03Z</time>
      </trkpt>
      <trkpt lat="45.25611" lon="5.02775">
        <ele>250.97</ele>
        <time>2017-02-25T14:47:04Z</time>
      </trkpt>
      <trkpt lat="45.25611" lon="5.02775">
        <ele>250.97</ele>
        <time>2017-02-25T14:47:05Z</time>
      </trkpt>
      <trkpt lat="45.25611" lon="5.02775">
        <ele>250.97</ele>
        <time>2017-02-25T14:47:06Z</time>
      </trkpt>
      <trkpt lat="45.25611" lon="5.02775">
        <ele>250.97</ele>
        <time>2017-02-25T14:47:07Z</time>
      </trkpt>
      <trkpt lat="45.25611" lon="5.02775">
        <ele>250.97</ele>
        <time>2017-02-25T14:47:08Z</time>
      </trkpt>
      <trkpt lat="45.25611" lon="5.02775">
        <ele>250.97</ele>
        <time>2017-02-25T14:47:09Z</time>
      </trkpt>
      <trkpt lat="45.25611" lon="5.02775">
        <ele>250.97</ele>
        <time>2017-02-25T14:47:10Z</time>
      </trkpt>
      <trkpt lat="45.25611" lon="5.02775">
        <ele>250.97</ele>
        <time>2017-02-25T14:47:11Z</time>
      </trkpt>
      <trkpt lat="45.25611" lon="5.02775">
        <ele>250.97</ele>
        <time>2017-02-25T14:47:12Z</time>
      </trkpt>
      <trkpt lat="45.25611" lon="5.02775">
        <ele>250.97</ele>
        <time>2017-02-25T14:47:13Z</time>
      </trkpt>
      <trkpt lat="45.25611" lon="5.02775">
        <ele>250.97</ele>
        <time>2017-02-25T14:47:14Z</time>
      </trkpt>
      <trkpt lat="45.25611" lon="5.02775">
        <ele>250.97</ele>
        <time>2017-02-25T14:47:15Z</time>
      </trkpt>
      <trkpt lat="45.25611" lon="5.02775">
        <ele>250.97</ele>
        <time>2017-02-25T14:47:16Z</time>
      </trkpt>
      <trkpt lat="45.25611" lon="5.02775">
        <ele>250.97</ele>
        <time>2017-02-25T14:47:17Z</time>
      </trkpt>
      <trkpt lat="45.25611" lon="5.02775">
        <ele>250.97</ele>
        <time>2017-02-25T14:47:18Z</time>
      </trkpt>
      <trkpt lat="45.25611" lon="5.02775">
        <ele>250.97</ele>
        <time>2017-02-25T14:47:19Z</time>
      </trkpt>
      <trkpt lat="45.25611" lon="5.02775">
        <ele>250.97</ele>
        <time>2017-02-25T14:47:20Z</time>
      </trkpt>
      <trkpt lat="45.25611" lon="5.02775">
        <ele>250.97</ele>
        <time>2017-02-25T14:47:21Z</time>
      </trkpt>
      <trkpt lat="45.25611" lon="5.02775">
        <ele>250.97</ele>
        <time>2017-02-25T14:47:22Z</time>
      </trkpt>
      <trkpt lat="45.25611" lon="5.02775">
        <ele>250.97</ele>
        <time>2017-02-25T14:47:23Z</time>
      </trkpt>
      <trkpt lat="45.25611" lon="5.02775">
        <ele>250.97</ele>
        <time>2017-02-25T14:47:24Z</time>
      </trkpt>
      <trkpt lat="45.25611" lon="5.02775">
        <ele>250.97</ele>
        <time>2017-02-25T14:47:25Z</time>
      </trkpt>
      <trkpt lat="45.25611" lon="5.02775">
        <ele>250.97</ele>
        <time>2017-02-25T14:47:26Z</time>
      </trkpt>
      <trkpt lat="45.25611" lon="5.02775">
        <ele>250.97</ele>
        <time>2017-02-25T14:47:27Z</time>
      </trkpt>
      <trkpt lat="45.25611" lon="5.02775">
        <ele>250.97</ele>
        <time>2017-02-25T14:47:28Z</time>
      </trkpt>
      <trkpt lat="45.25611" lon="5.02775">
        <ele>250.97</ele>
        <time>2017-02-25T14:47:29Z</time>
      </trkpt>
      <trkpt lat="45.25611" lon="5.02775">
        <ele>250.97</ele>
        <time>2017-02-25T14:47:30Z</time>
      </trkpt>
      <trkpt lat="45.25611" lon="5.02775">
        <ele>250.97</ele>
        <time>2017-02-25T14:47:31Z</time>
      </trkpt>
      <trkpt lat="45.25611" lon="5.02775">
        <ele>250.97</ele>
        <time>2017-02-25T14:47:32Z</time>
      </trkpt>
      <trkpt lat="45.25611" lon="5.02775">
        <ele>250.97</ele>
        <time>2017-02-25T14:47:33Z</time>
      </trkpt>
      <trkpt lat="45.25611" lon="5.02775">
        <ele>250.97</ele>
        <time>2017-02-25T14:47:34Z</time>
      </trkpt>
      <trkpt lat="45.25611" lon="5.02775">
        <ele>250.97</ele>
        <time>2017-02-25T14:47:35Z</time>
      </trkpt>
      <trkpt lat="45.25611" lon="5.02775">
        <ele>250.97</ele>
        <time>2017-02-25T14:47:36Z</time>
      </trkpt>
      <trkpt lat="45.25611" lon="5.02775">
        <ele>250.97</ele>
        <time>2017-02-25T14:47:37Z</time>
      </trkpt>
      <trkpt lat="45.25611" lon="5.02775">
        <ele>250.97</ele>
        <time>2017-02-25T14:47:38Z</time>
      </trkpt>
      <trkpt lat="45.25611" lon="5.02775">
        <ele>250.97</ele>
        <time>2017-02-25T14:47:39Z</time>
      </trkpt>
      <trkpt lat="45.25611" lon="5.02775">
        <ele>250.97</ele>
        <time>2017-02-25T14:47:40Z</time>
      </trkpt>
      <trkpt lat="45.25611" lon="5.02775">
        <ele>250.97</ele>
        <time>2017-02-25T14:47:41Z</time>
      </trkpt>
      <trkpt lat="45.25611" lon="5.02775">
        <ele>250.97</ele>
        <time>2017-02-25T14:47:42Z</time>
      </trkpt>
      <trkpt lat="45.25611" lon="5.02775">
        <ele>250.97</ele>
        <time>2017-02-25T14:47:43Z</time>
      </trkpt>
      <trkpt lat="45.25611" lon="5.02775">
        <ele>250.97</ele>
        <time>2017-02-25T14:47:44Z</time>
      </trkpt>
      <trkpt lat="45.25611" lon="5.02775">
        <ele>250.97</ele>
        <time>2017-02-25T14:47:45Z</time>
      </trkpt>
      <trkpt lat="45.25611" lon="5.02775">
        <ele>250.97</ele>
        <time>2017-02-25T14:47:46Z</time>
      </trkpt>
      <trkpt lat="45.25611" lon="5.02775">
        <ele>250.97</ele>
        <time>2017-02-25T14:47:47Z</time>
      </trkpt>
      <trkpt lat="45.25611" lon="5.02775">
        <ele>250.97</ele>
        <time>2017-02-25T14:47:48Z</time>
      </trkpt>
      <trkpt lat="45.25611" lon="5.02775">
        <ele>250.97</ele>
        <time>2017-02-25T14:47:49Z</time>
      </trkpt>
      <trkpt lat="45.25611" lon="5.02775">
        <ele>250.97</ele>
        <time>2017-02-25T14:47:50Z</time>
      </trkpt>
      <trkpt lat="45.25611" lon="5.02775">
        <ele>250.97</ele>
        <time>2017-02-25T14:47:51Z</time>
      </trkpt>
      <trkpt lat="45.25611" lon="5.02775">
        <ele>250.97</ele>
        <time>2017-02-25T14:47:52Z</time>
      </trkpt>
      <trkpt lat="45.25611" lon="5.02775">
        <ele>250.97</ele>
        <time>2017-02-25T14:47:53Z</time>
      </trkpt>
      <trkpt lat="45.25611" lon="5.02775">
        <ele>250.97</ele>
        <time>2017-02-25T14:47:54Z</time>
      </trkpt>
      <trkpt lat="45.25611" lon="5.02775">
        <ele>250.97</ele>
        <time>2017-02-25T14:47:55Z</time>
      </trkpt>
      <trkpt lat="45.25611" lon="5.02775">
        <ele>250.97</ele>
        <time>2017-02-25T14:47:56Z</time>
      </trkpt>
      <trkpt lat="45.25611" lon="5.02775">
        <ele>250.97</ele>
        <time>2017-02-25T14:47:57Z</time>
      </trkpt>
      <trkpt lat="45.25611" lon="5.02775">
        <ele>250.97</ele>
        <time>2017-02-25T14:47:58Z</time>
      </trkpt>
      <trkpt lat="45.25611" lon="5.02775">
        <ele>250.97</ele>
        <time>2017-02-25T14:47:59Z</time>
      </trkpt>
      <trkpt lat="45.25611" lon="5.02775">
        <ele>250.97</ele>
        <time>2017-02-25T14:48:00Z</time>
      </trkpt>
      <trkpt lat="45.25611" lon="5.02775">
        <ele>250.97</ele>
        <time>2017-02-25T14:48:01Z</time>
      </trkpt>
      <trkpt lat="45.25611" lon="5.02775">
        <ele>250.97</ele>
        <time>2017-02-25T14:48:02Z</time>
      </trkpt>
      <trkpt lat="45.25611" lon="5.02775">
        <ele>250.97</ele>
        <time>2017-02-25T14:48:03Z</time>
      </trkpt>
      <trkpt lat="45.25611" lon="5.02775">
        <ele>250.97</ele>
        <time>2017-02-25T14:48:04Z</time>
      </trkpt>
      <trkpt lat="45.25611" lon="5.02775">
        <ele>250.97</ele>
        <time>2017-02-25T14:48:05Z</time>
      </trkpt>
      <trkpt lat="45.25611" lon="5.02775">
        <ele>250.97</ele>
        <time>2017-02-25T14:48:06Z</time>
      </trkpt>
      <trkpt lat="45.25611" lon="5.02775">
        <ele>250.97</ele>
        <time>2017-02-25T14:48:07Z</time>
      </trkpt>
      <trkpt lat="45.25611" lon="5.02775">
        <ele>250.97</ele>
        <time>2017-02-25T14:48:08Z</time>
      </trkpt>
      <trkpt lat="45.25611" lon="5.02775">
        <ele>250.97</ele>
        <time>2017-02-25T14:48:09Z</time>
      </trkpt>
      <trkpt lat="45.25611" lon="5.02775">
        <ele>250.97</ele>
        <time>2017-02-25T14:48:10Z</time>
      </trkpt>
      <trkpt lat="45.25611" lon="5.02775">
        <ele>250.97</ele>
        <time>2017-02-25T14:48:11Z</time>
      </trkpt>
      <trkpt lat="45.25611" lon="5.02775">
        <ele>250.97</ele>
        <time>2017-02-25T14:48:12Z</time>
      </trkpt>
      <trkpt lat="45.25611" lon="5.02775">
        <ele>250.97</ele>
        <time>2017-02-25T14:48:13Z</time>
      </trkpt>
      <trkpt lat="45.25611" lon="5.02775">
        <ele>250.97</ele>
        <time>2017-02-25T14:48:14Z</time>
      </trkpt>
      <trkpt lat="45.25611" lon="5.02775">
        <ele>250.97</ele>
        <time>2017-02-25T14:48:15Z</time>
      </trkpt>
      <trkpt lat="45.25611" lon="5.02775">
        <ele>250.97</ele>
        <time>2017-02-25T14:48:16Z</time>
      </trkpt>
      <trkpt lat="45.25611" lon="5.02775">
        <ele>250.97</ele>
        <time>2017-02-25T14:48:17Z</time>
      </trkpt>
      <trkpt lat="45.25611" lon="5.02775">
        <ele>250.97</ele>
        <time>2017-02-25T14:48:18Z</time>
      </trkpt>
      <trkpt lat="45.25611" lon="5.02775">
        <ele>250.97</ele>
        <time>2017-02-25T14:48:19Z</time>
      </trkpt>
      <trkpt lat="45.25611" lon="5.02775">
        <ele>250.97</ele>
        <time>2017-02-25T14:48:20Z</time>
      </trkpt>
      <trkpt lat="45.25611" lon="5.02775">
        <ele>250.97</ele>
        <time>2017-02-25T14:48:21Z</time>
      </trkpt>
      <trkpt lat="45.25611" lon="5.02775">
        <ele>250.97</ele>
        <time>2017-02-25T14:48:22Z</time>
      </trkpt>
      <trkpt lat="45.25611" lon="5.02775">
        <ele>250.97</ele>
        <time>2017-02-25T14:48:23Z</time>
      </trkpt>
      <trkpt lat="45.25611" lon="5.02775">
        <ele>250.97</ele>
        <time>2017-02-25T14:48:24Z</time>
      </trkpt>
      <trkpt lat="45.25611" lon="5.02775">
        <ele>250.97</ele>
        <time>2017-02-25T14:48:25Z</time>
      </trkpt>
      <trkpt lat="45.25611" lon="5.02775">
        <ele>250.97</ele>
        <time>2017-02-25T14:48:26Z</time>
      </trkpt>
      <trkpt lat="45.25611" lon="5.02775">
        <ele>250.97</ele>
        <time>2017-02-25T14:48:27Z</time>
      </trkpt>
      <trkpt lat="45.25611" lon="5.02775">
        <ele>250.97</ele>
        <time>2017-02-25T14:48:28Z</time>
      </trkpt>
      <trkpt lat="45.25611" lon="5.02775">
        <ele>250.97</ele>
        <time>2017-02-25T14:48:29Z</time>
      </trkpt>
      <trkpt lat="45.25611" lon="5.02775">
        <ele>250.97</ele>
        <time>2017-02-25T14:48:30Z</time>
      </trkpt>
      <trkpt lat="45.25611" lon="5.02775">
        <ele>250.97</ele>
        <time>2017-02-25T14:48:31Z</time>
      </trkpt>
      <trkpt lat="45.25611" lon="5.02775">
        <ele>250.97</ele>
        <time>2017-02-25T14:48:32Z</time>
      </trkpt>
      <trkpt lat="45.25611" lon="5.02775">
        <ele>250.97</ele>
        <time>2017-02-25T14:48:33Z</time>
      </trkpt>
      <trkpt lat="45.25611" lon="5.02775">
        <ele>250.97</ele>
        <time>2017-02-25T14:48:34Z</time>
      </trkpt>
      <trkpt lat="45.25611" lon="5.02775">
        <ele>250.97</ele>
        <time>2017-02-25T14:48:35Z</time>
      </trkpt>
      <trkpt lat="45.25611" lon="5.02775">
        <ele>250.97</ele>
        <time>2017-02-25T14:48:36Z</time>
      </trkpt>
      <trkpt lat="45.25611" lon="5.02775">
        <ele>250.97</ele>
        <time>2017-02-25T14:48:37Z</time>
      </trkpt>
      <trkpt lat="45.25611" lon="5.02775">
        <ele>250.97</ele>
        <time>2017-02-25T14:48:38Z</time>
      </trkpt>
      <trkpt lat="45.25611" lon="5.02775">
        <ele>250.97</ele>
        <time>2017-02-25T14:48:39Z</time>
      </trkpt>
      <trkpt lat="45.25611" lon="5.02775">
        <ele>250.97</ele>
        <time>2017-02-25T14:48:40Z</time>
      </trkpt>
      <trkpt lat="45.25611" lon="5.02775">
        <ele>250.97</ele>
        <time>2017-02-25T14:48:41Z</time>
      </trkpt>
      <trkpt lat="45.25611" lon="5.02775">
        <ele>250.97</ele>
        <time>2017-02-25T14:48:42Z</time>
      </trkpt>
      <trkpt lat="45.25611" lon="5.02775">
        <ele>250.97</ele>
        <time>2017-02-25T14:48:43Z</time>
      </trkpt>
      <trkpt lat="45.25611" lon="5.02775">
        <ele>250.97</ele>
        <time>2017-02-25T14:48:44Z</time>
      </trkpt>
      <trkpt lat="45.25611" lon="5.02775">
        <ele>250.97</ele>
        <time>2017-02-25T14:48:45Z</time>
      </trkpt>
      <trkpt lat="45.25611" lon="5.02775">
        <ele>250.97</ele>
        <time>2017-02-25T14:48:46Z</time>
      </trkpt>
      <trkpt lat="45.25611" lon="5.02775">
        <ele>250.97</ele>
        <time>2017-02-25T14:48:47Z</time>
      </trkpt>
      <trkpt lat="45.25611" lon="5.02775">
        <ele>250.97</ele>
        <time>2017-02-25T14:48:48Z</time>
      </trkpt>
      <trkpt lat="45.25611" lon="5.02775">
        <ele>250.97</ele>
        <time>2017-02-25T14:48:49Z</time>
      </trkpt>
      <trkpt lat="45.25611" lon="5.02775">
        <ele>250.97</ele>
        <time>2017-02-25T14:48:50Z</time>
      </trkpt>
      <trkpt lat="45.25611" lon="5.02775">
        <ele>250.97</ele>
        <time>2017-02-25T14:48:51Z</time>
      </trkpt>
      <trkpt lat="45.25611" lon="5.02775">
        <ele>250.97</ele>
        <time>2017-02-25T14:48:52Z</time>
      </trkpt>
      <trkpt lat="45.25611" lon="5.02775">
        <ele>250.97</ele>
        <time>2017-02-25T14:48:53Z</time>
      </trkpt>
      <trkpt lat="45.25611" lon="5.02775">
        <ele>250.97</ele>
        <time>2017-02-25T14:48:54Z</time>
      </trkpt>
      <trkpt lat="45.25611" lon="5.02775">
        <ele>250.97</ele>
        <time>2017-02-25T14:48:55Z</time>
      </trkpt>
      <trkpt lat="45.25611" lon="5.02775">
        <ele>250.97</ele>
        <time>2017-02-25T14:48:56Z</time>
      </trkpt>
      <trkpt lat="45.25611" lon="5.02775">
        <ele>250.97</ele>
        <time>2017-02-25T14:48:57Z</time>
      </trkpt>
      <trkpt lat="45.25611" lon="5.02775">
        <ele>250.97</ele>
        <time>2017-02-25T14:48:58Z</time>
      </trkpt>
      <trkpt lat="45.25611" lon="5.02775">
        <ele>250.97</ele>
        <time>2017-02-25T14:48:59Z</time>
      </trkpt>
      <trkpt lat="45.25611" lon="5.02775">
        <ele>250.97</ele>
        <time>2017-02-25T14:49:00Z</time>
      </trkpt>
      <trkpt lat="45.25611" lon="5.02775">
        <ele>250.97</ele>
        <time>2017-02-25T14:49:01Z</time>
      </trkpt>
      <trkpt lat="45.25611" lon="5.02775">
        <ele>250.97</ele>
        <time>2017-02-25T14:49:02Z</time>
      </trkpt>
      <trkpt lat="45.25611" lon="5.02775">
        <ele>250.97</ele>
        <time>2017-02-25T14:49:03Z</time>
      </trkpt>
      <trkpt lat="45.25611" lon="5.02775">
        <ele>250.97</ele>
        <time>2017-02-25T14:49:04Z</time>
      </trkpt>
      <trkpt lat="45.25611" lon="5.02775">
        <ele>250.97</ele>
        <time>2017-02-25T14:49:05Z</time>
      </trkpt>
      <trkpt lat="45.25611" lon="5.02775">
        <ele>250.97</ele>
        <time>2017-02-25T14:49:06Z</time>
      </trkpt>
      <trkpt lat="45.25611" lon="5.02775">
        <ele>250.97</ele>
        <time>2017-02-25T14:49:07Z</time>
      </trkpt>
      <trkpt lat="45.25611" lon="5.02775">
        <ele>250.97</ele>
        <time>2017-02-25T14:49:08Z</time>
      </trkpt>
      <trkpt lat="45.25611" lon="5.02775">
        <ele>250.97</ele>
        <time>2017-02-25T14:49:09Z</time>
      </trkpt>
      <trkpt lat="45.25611" lon="5.02775">
        <ele>250.97</ele>
        <time>2017-02-25T14:49:10Z</time>
      </trkpt>
      <trkpt lat="45.25611" lon="5.02775">
        <ele>250.97</ele>
        <time>2017-02-25T14:49:11Z</time>
      </trkpt>
      <trkpt lat="45.25611" lon="5.02775">
        <ele>250.97</ele>
        <time>2017-02-25T14:49:12Z</time>
      </trkpt>
      <trkpt lat="45.25611" lon="5.02775">
        <ele>250.97</ele>
        <time>2017-02-25T14:49:13Z</time>
      </trkpt>
      <trkpt lat="45.25611" lon="5.02775">
        <ele>250.97</ele>
        <time>2017-02-25T14:49:14Z</time>
      </trkpt>
      <trkpt lat="45.25611" lon="5.02775">
        <ele>250.97</ele>
        <time>2017-02-25T14:49:15Z</time>
      </trkpt>
      <trkpt lat="45.25611" lon="5.02775">
        <ele>250.97</ele>
        <time>2017-02-25T14:49:16Z</time>
      </trkpt>
      <trkpt lat="45.25611" lon="5.02775">
        <ele>250.97</ele>
        <time>2017-02-25T14:49:17Z</time>
      </trkpt>
      <trkpt lat="45.25611" lon="5.02775">
        <ele>250.97</ele>
        <time>2017-02-25T14:49:18Z</time>
      </trkpt>
      <trkpt lat="45.25611" lon="5.02775">
        <ele>250.97</ele>
        <time>2017-02-25T14:49:19Z</time>
      </trkpt>
      <trkpt lat="45.25611" lon="5.02775">
        <ele>250.97</ele>
        <time>2017-02-25T14:49:20Z</time>
      </trkpt>
      <trkpt lat="45.25611" lon="5.02775">
        <ele>250.97</ele>
        <time>2017-02-25T14:49:21Z</time>
      </trkpt>
      <trkpt lat="45.25611" lon="5.02775">
        <ele>250.97</ele>
        <time>2017-02-25T14:49:22Z</time>
      </trkpt>
      <trkpt lat="45.25611" lon="5.02775">
        <ele>250.97</ele>
        <time>2017-02-25T14:49:23Z</time>
      </trkpt>
      <trkpt lat="45.25611" lon="5.02775">
        <ele>250.97</ele>
        <time>2017-02-25T14:49:24Z</time>
      </trkpt>
      <trkpt lat="45.25611" lon="5.02775">
        <ele>250.97</ele>
        <time>2017-02-25T14:49:25Z</time>
      </trkpt>
      <trkpt lat="45.25611" lon="5.02775">
        <ele>250.97</ele>
        <time>2017-02-25T14:49:26Z</time>
      </trkpt>
      <trkpt lat="45.25611" lon="5.02775">
        <ele>250.97</ele>
        <time>2017-02-25T14:49:27Z</time>
      </trkpt>
      <trkpt lat="45.25611" lon="5.02775">
        <ele>250.97</ele>
        <time>2017-02-25T14:49:29Z</time>
      </trkpt>
      <trkpt lat="45.25611" lon="5.02775">
        <ele>250.97</ele>
        <time>2017-02-25T14:49:30Z</time>
      </trkpt>
      <trkpt lat="45.25611" lon="5.02775">
        <ele>250.97</ele>
        <time>2017-02-25T14:49:31Z</time>
      </trkpt>
      <trkpt lat="45.25611" lon="5.02775">
        <ele>250.97</ele>
        <time>2017-02-25T14:49:32Z</time>
      </trkpt>
      <trkpt lat="45.25611" lon="5.02775">
        <ele>250.97</ele>
        <time>2017-02-25T14:49:33Z</time>
      </trkpt>
      <trkpt lat="45.25611" lon="5.02775">
        <ele>250.97</ele>
        <time>2017-02-25T14:49:34Z</time>
      </trkpt>
      <trkpt lat="45.25611" lon="5.02775">
        <ele>250.97</ele>
        <time>2017-02-25T14:49:35Z</time>
      </trkpt>
      <trkpt lat="45.25611" lon="5.02775">
        <ele>250.97</ele>
        <time>2017-02-25T14:49:36Z</time>
      </trkpt>
      <trkpt lat="45.25611" lon="5.02775">
        <ele>250.97</ele>
        <time>2017-02-25T14:49:37Z</time>
      </trkpt>
      <trkpt lat="45.25611" lon="5.02775">
        <ele>250.97</ele>
        <time>2017-02-25T14:49:38Z</time>
      </trkpt>
      <trkpt lat="45.25611" lon="5.02775">
        <ele>250.97</ele>
        <time>2017-02-25T14:49:39Z</time>
      </trkpt>
      <trkpt lat="45.25611" lon="5.02775">
        <ele>250.97</ele>
        <time>2017-02-25T14:49:40Z</time>
      </trkpt>
      <trkpt lat="45.25611" lon="5.02775">
        <ele>250.97</ele>
        <time>2017-02-25T14:49:41Z</time>
      </trkpt>
      <trkpt lat="45.25611" lon="5.02775">
        <ele>250.97</ele>
        <time>2017-02-25T14:49:42Z</time>
      </trkpt>
      <trkpt lat="45.25611" lon="5.02775">
        <ele>250.97</ele>
        <time>2017-02-25T14:49:43Z</time>
      </trkpt>
      <trkpt lat="45.25611" lon="5.02775">
        <ele>250.97</ele>
        <time>2017-02-25T14:49:44Z</time>
      </trkpt>
      <trkpt lat="45.25611" lon="5.02775">
        <ele>250.97</ele>
        <time>2017-02-25T14:49:45Z</time>
      </trkpt>
      <trkpt lat="45.25611" lon="5.02775">
        <ele>250.97</ele>
        <time>2017-02-25T14:49:46Z</time>
      </trkpt>
      <trkpt lat="45.25611" lon="5.02775">
        <ele>250.97</ele>
        <time>2017-02-25T14:49:47Z</time>
      </trkpt>
      <trkpt lat="45.25611" lon="5.02775">
        <ele>250.97</ele>
        <time>2017-02-25T14:49:48Z</time>
      </trkpt>
      <trkpt lat="45.25611" lon="5.02775">
        <ele>250.97</ele>
        <time>2017-02-25T14:49:49Z</time>
      </trkpt>
      <trkpt lat="45.25611" lon="5.02775">
        <ele>250.97</ele>
        <time>2017-02-25T14:49:50Z</time>
      </trkpt>
      <trkpt lat="45.25611" lon="5.02775">
        <ele>250.97</ele>
        <time>2017-02-25T14:49:51Z</time>
      </trkpt>
      <trkpt lat="45.25611" lon="5.02775">
        <ele>250.97</ele>
        <time>2017-02-25T14:49:52Z</time>
      </trkpt>
      <trkpt lat="45.25611" lon="5.02775">
        <ele>250.97</ele>
        <time>2017-02-25T14:49:53Z</time>
      </trkpt>
      <trkpt lat="45.25611" lon="5.02775">
        <ele>250.97</ele>
        <time>2017-02-25T14:49:54Z</time>
      </trkpt>
      <trkpt lat="45.25611" lon="5.02775">
        <ele>250.97</ele>
        <time>2017-02-25T14:49:55Z</time>
      </trkpt>
      <trkpt lat="45.25611" lon="5.02775">
        <ele>250.97</ele>
        <time>2017-02-25T14:49:56Z</time>
      </trkpt>
      <trkpt lat="45.25611" lon="5.02775">
        <ele>250.97</ele>
        <time>2017-02-25T14:49:57Z</time>
      </trkpt>
      <trkpt lat="45.25611" lon="5.02775">
        <ele>250.97</ele>
        <time>2017-02-25T14:49:58Z</time>
      </trkpt>
      <trkpt lat="45.25611" lon="5.02775">
        <ele>250.97</ele>
        <time>2017-02-25T14:49:59Z</time>
      </trkpt>
      <trkpt lat="45.25611" lon="5.02775">
        <ele>250.97</ele>
        <time>2017-02-25T14:50:00Z</time>
      </trkpt>
      <trkpt lat="45.25611" lon="5.02775">
        <ele>250.97</ele>
        <time>2017-02-25T14:50:02Z</time>
      </trkpt>
      <trkpt lat="45.25611" lon="5.02775">
        <ele>250.97</ele>
        <time>2017-02-25T14:50:03Z</time>
      </trkpt>
      <trkpt lat="45.25611" lon="5.02775">
        <ele>250.97</ele>
        <time>2017-02-25T14:50:04Z</time>
      </trkpt>
      <trkpt lat="45.25611" lon="5.02775">
        <ele>250.97</ele>
        <time>2017-02-25T14:50:05Z</time>
      </trkpt>
      <trkpt lat="45.25611" lon="5.02775">
        <ele>250.97</ele>
        <time>2017-02-25T14:50:06Z</time>
      </trkpt>
      <trkpt lat="45.25611" lon="5.02775">
        <ele>250.97</ele>
        <time>2017-02-25T14:50:07Z</time>
      </trkpt>
      <trkpt lat="45.25611" lon="5.02775">
        <ele>250.97</ele>
        <time>2017-02-25T14:50:08Z</time>
      </trkpt>
      <trkpt lat="45.25611" lon="5.02775">
        <ele>250.97</ele>
        <time>2017-02-25T14:50:09Z</time>
      </trkpt>
      <trkpt lat="45.25611" lon="5.02775">
        <ele>250.97</ele>
        <time>2017-02-25T14:50:10Z</time>
      </trkpt>
      <trkpt lat="45.25611" lon="5.02775">
        <ele>250.97</ele>
        <time>2017-02-25T14:50:11Z</time>
      </trkpt>
      <trkpt lat="45.25611" lon="5.02775">
        <ele>250.97</ele>
        <time>2017-02-25T14:50:12Z</time>
      </trkpt>
      <trkpt lat="45.25611" lon="5.02775">
        <ele>250.97</ele>
        <time>2017-02-25T14:50:13Z</time>
      </trkpt>
      <trkpt lat="45.25611" lon="5.02775">
        <ele>250.97</ele>
        <time>2017-02-25T14:50:14Z</time>
      </trkpt>
      <trkpt lat="45.25611" lon="5.02775">
        <ele>250.97</ele>
        <time>2017-02-25T14:50:15Z</time>
      </trkpt>
      <trkpt lat="45.25611" lon="5.02775">
        <ele>250.97</ele>
        <time>2017-02-25T14:50:16Z</time>
      </trkpt>
      <trkpt lat="45.25611" lon="5.02775">
        <ele>250.97</ele>
        <time>2017-02-25T14:50:17Z</time>
      </trkpt>
      <trkpt lat="45.25611" lon="5.02775">
        <ele>250.97</ele>
        <time>2017-02-25T14:50:18Z</time>
      </trkpt>
      <trkpt lat="45.25611" lon="5.02775">
        <ele>250.97</ele>
        <time>2017-02-25T14:50:19Z</time>
      </trkpt>
      <trkpt lat="45.25611" lon="5.02775">
        <ele>250.97</ele>
        <time>2017-02-25T14:50:20Z</time>
      </trkpt>
      <trkpt lat="45.25611" lon="5.02775">
        <ele>250.97</ele>
        <time>2017-02-25T14:50:21Z</time>
      </trkpt>
      <trkpt lat="45.25611" lon="5.02775">
        <ele>250.97</ele>
        <time>2017-02-25T14:50:22Z</time>
      </trkpt>
      <trkpt lat="45.25611" lon="5.02775">
        <ele>250.97</ele>
        <time>2017-02-25T14:50:23Z</time>
      </trkpt>
      <trkpt lat="45.25611" lon="5.02775">
        <ele>250.97</ele>
        <time>2017-02-25T14:50:24Z</time>
      </trkpt>
      <trkpt lat="45.25611" lon="5.02775">
        <ele>250.97</ele>
        <time>2017-02-25T14:50:25Z</time>
      </trkpt>
      <trkpt lat="45.25611" lon="5.02775">
        <ele>250.97</ele>
        <time>2017-02-25T14:50:26Z</time>
      </trkpt>
      <trkpt lat="45.25611" lon="5.02775">
        <ele>250.97</ele>
        <time>2017-02-25T14:50:27Z</time>
      </trkpt>
      <trkpt lat="45.25611" lon="5.02775">
        <ele>250.97</ele>
        <time>2017-02-25T14:50:28Z</time>
      </trkpt>
      <trkpt lat="45.25611" lon="5.02775">
        <ele>250.97</ele>
        <time>2017-02-25T14:50:29Z</time>
      </trkpt>
      <trkpt lat="45.25611" lon="5.02775">
        <ele>250.97</ele>
        <time>2017-02-25T14:50:30Z</time>
      </trkpt>
      <trkpt lat="45.25611" lon="5.02775">
        <ele>250.97</ele>
        <time>2017-02-25T14:50:31Z</time>
      </trkpt>
      <trkpt lat="45.25611" lon="5.02775">
        <ele>250.97</ele>
        <time>2017-02-25T14:50:32Z</time>
      </trkpt>
      <trkpt lat="45.25611" lon="5.02775">
        <ele>250.97</ele>
        <time>2017-02-25T14:50:33Z</time>
      </trkpt>
      <trkpt lat="45.25611" lon="5.02775">
        <ele>250.97</ele>
        <time>2017-02-25T14:50:34Z</time>
      </trkpt>
      <trkpt lat="45.25611" lon="5.02775">
        <ele>250.97</ele>
        <time>2017-02-25T14:50:35Z</time>
      </trkpt>
      <trkpt lat="45.25611" lon="5.02775">
        <ele>250.97</ele>
        <time>2017-02-25T14:50:36Z</time>
      </trkpt>
      <trkpt lat="45.25611" lon="5.02775">
        <ele>250.97</ele>
        <time>2017-02-25T14:50:37Z</time>
      </trkpt>
      <trkpt lat="45.25611" lon="5.02775">
        <ele>250.97</ele>
        <time>2017-02-25T14:50:38Z</time>
      </trkpt>
      <trkpt lat="45.25611" lon="5.02775">
        <ele>250.97</ele>
        <time>2017-02-25T14:50:39Z</time>
      </trkpt>
      <trkpt lat="45.25611" lon="5.02775">
        <ele>250.97</ele>
        <time>2017-02-25T14:50:40Z</time>
      </trkpt>
      <trkpt lat="45.25611" lon="5.02775">
        <ele>250.97</ele>
        <time>2017-02-25T14:50:41Z</time>
      </trkpt>
      <trkpt lat="45.25611" lon="5.02775">
        <ele>250.97</ele>
        <time>2017-02-25T14:50:42Z</time>
      </trkpt>
      <trkpt lat="45.25611" lon="5.02775">
        <ele>250.97</ele>
        <time>2017-02-25T14:50:43Z</time>
      </trkpt>
      <trkpt lat="45.25611" lon="5.02775">
        <ele>250.97</ele>
        <time>2017-02-25T14:50:44Z</time>
      </trkpt>
      <trkpt lat="45.25611" lon="5.02775">
        <ele>250.97</ele>
        <time>2017-02-25T14:50:45Z</time>
      </trkpt>
      <trkpt lat="45.25611" lon="5.02775">
        <ele>250.97</ele>
        <time>2017-02-25T14:50:46Z</time>
      </trkpt>
      <trkpt lat="45.25611" lon="5.02775">
        <ele>250.97</ele>
        <time>2017-02-25T14:50:47Z</time>
      </trkpt>
      <trkpt lat="45.25611" lon="5.02775">
        <ele>250.97</ele>
        <time>2017-02-25T14:50:48Z</time>
      </trkpt>
      <trkpt lat="45.25611" lon="5.02775">
        <ele>250.97</ele>
        <time>2017-02-25T14:50:49Z</time>
      </trkpt>
      <trkpt lat="45.25611" lon="5.02775">
        <ele>250.97</ele>
        <time>2017-02-25T14:50:50Z</time>
      </trkpt>
      <trkpt lat="45.25611" lon="5.02775">
        <ele>250.97</ele>
        <time>2017-02-25T14:50:51Z</time>
      </trkpt>
      <trkpt lat="45.25611" lon="5.02775">
        <ele>250.97</ele>
        <time>2017-02-25T14:50:52Z</time>
      </trkpt>
      <trkpt lat="45.25611" lon="5.02775">
        <ele>250.97</ele>
        <time>2017-02-25T14:50:53Z</time>
      </trkpt>
      <trkpt lat="45.25611" lon="5.02775">
        <ele>250.97</ele>
        <time>2017-02-25T14:50:54Z</time>
      </trkpt>
      <trkpt lat="45.25611" lon="5.02775">
        <ele>250.97</ele>
        <time>2017-02-25T14:50:55Z</time>
      </trkpt>
      <trkpt lat="45.25611" lon="5.02775">
        <ele>250.97</ele>
        <time>2017-02-25T14:50:56Z</time>
      </trkpt>
      <trkpt lat="45.25611" lon="5.02775">
        <ele>250.97</ele>
        <time>2017-02-25T14:50:57Z</time>
      </trkpt>
      <trkpt lat="45.25611" lon="5.02775">
        <ele>250.97</ele>
        <time>2017-02-25T14:50:58Z</time>
      </trkpt>
      <trkpt lat="45.25611" lon="5.02775">
        <ele>250.97</ele>
        <time>2017-02-25T14:50:59Z</time>
      </trkpt>
      <trkpt lat="45.25611" lon="5.02775">
        <ele>250.97</ele>
        <time>2017-02-25T14:51:00Z</time>
      </trkpt>
      <trkpt lat="45.25611" lon="5.02775">
        <ele>250.97</ele>
        <time>2017-02-25T14:51:01Z</time>
      </trkpt>
      <trkpt lat="45.25611" lon="5.02775">
        <ele>250.97</ele>
        <time>2017-02-25T14:51:02Z</time>
      </trkpt>
      <trkpt lat="45.25611" lon="5.02775">
        <ele>250.97</ele>
        <time>2017-02-25T14:51:03Z</time>
      </trkpt>
      <trkpt lat="45.25611" lon="5.02775">
        <ele>250.97</ele>
        <time>2017-02-25T14:51:04Z</time>
      </trkpt>
      <trkpt lat="45.25611" lon="5.02775">
        <ele>250.97</ele>
        <time>2017-02-25T14:51:05Z</time>
      </trkpt>
      <trkpt lat="45.25611" lon="5.02775">
        <ele>250.97</ele>
        <time>2017-02-25T14:51:06Z</time>
      </trkpt>
      <trkpt lat="45.25611" lon="5.02775">
        <ele>250.97</ele>
        <time>2017-02-25T14:51:07Z</time>
      </trkpt>
      <trkpt lat="45.25611" lon="5.02775">
        <ele>250.97</ele>
        <time>2017-02-25T14:51:08Z</time>
      </trkpt>
      <trkpt lat="45.25611" lon="5.02775">
        <ele>250.97</ele>
        <time>2017-02-25T14:51:09Z</time>
      </trkpt>
      <trkpt lat="45.25611" lon="5.02775">
        <ele>250.97</ele>
        <time>2017-02-25T14:51:10Z</time>
      </trkpt>
      <trkpt lat="45.25611" lon="5.02775">
        <ele>250.97</ele>
        <time>2017-02-25T14:51:11Z</time>
      </trkpt>
      <trkpt lat="45.25611" lon="5.02775">
        <ele>250.97</ele>
        <time>2017-02-25T14:51:12Z</time>
      </trkpt>
      <trkpt lat="45.25611" lon="5.02775">
        <ele>250.97</ele>
        <time>2017-02-25T14:51:13Z</time>
      </trkpt>
      <trkpt lat="45.25611" lon="5.02775">
        <ele>250.97</ele>
        <time>2017-02-25T14:51:14Z</time>
      </trkpt>
      <trkpt lat="45.25611" lon="5.02775">
        <ele>250.97</ele>
        <time>2017-02-25T14:51:15Z</time>
      </trkpt>
      <trkpt lat="45.25611" lon="5.02775">
        <ele>250.97</ele>
        <time>2017-02-25T14:51:16Z</time>
      </trkpt>
      <trkpt lat="45.25611" lon="5.02775">
        <ele>250.97</ele>
        <time>2017-02-25T14:51:17Z</time>
      </trkpt>
      <trkpt lat="45.25611" lon="5.02775">
        <ele>250.97</ele>
        <time>2017-02-25T14:51:18Z</time>
      </trkpt>
      <trkpt lat="45.25611" lon="5.02775">
        <ele>250.97</ele>
        <time>2017-02-25T14:51:19Z</time>
      </trkpt>
      <trkpt lat="45.25611" lon="5.02775">
        <ele>250.97</ele>
        <time>2017-02-25T14:51:20Z</time>
      </trkpt>
      <trkpt lat="45.25611" lon="5.02775">
        <ele>250.97</ele>
        <time>2017-02-25T14:51:21Z</time>
      </trkpt>
      <trkpt lat="45.25611" lon="5.02775">
        <ele>250.97</ele>
        <time>2017-02-25T14:51:22Z</time>
      </trkpt>
      <trkpt lat="45.25611" lon="5.02775">
        <ele>250.97</ele>
        <time>2017-02-25T14:51:23Z</time>
      </trkpt>
      <trkpt lat="45.25611" lon="5.02775">
        <ele>250.97</ele>
        <time>2017-02-25T14:51:24Z</time>
      </trkpt>
      <trkpt lat="45.25611" lon="5.02775">
        <ele>250.97</ele>
        <time>2017-02-25T14:51:25Z</time>
      </trkpt>
      <trkpt lat="45.25611" lon="5.02775">
        <ele>250.97</ele>
        <time>2017-02-25T14:51:26Z</time>
      </trkpt>
      <trkpt lat="45.25611" lon="5.02775">
        <ele>250.97</ele>
        <time>2017-02-25T14:51:27Z</time>
      </trkpt>
      <trkpt lat="45.25611" lon="5.02775">
        <ele>250.97</ele>
        <time>2017-02-25T14:51:28Z</time>
      </trkpt>
      <trkpt lat="45.25611" lon="5.02775">
        <ele>250.97</ele>
        <time>2017-02-25T14:51:29Z</time>
      </trkpt>
      <trkpt lat="45.25611" lon="5.02775">
        <ele>250.97</ele>
        <time>2017-02-25T14:51:30Z</time>
      </trkpt>
      <trkpt lat="45.25611" lon="5.02775">
        <ele>250.97</ele>
        <time>2017-02-25T14:51:31Z</time>
      </trkpt>
      <trkpt lat="45.25611" lon="5.02775">
        <ele>250.97</ele>
        <time>2017-02-25T14:51:32Z</time>
      </trkpt>
      <trkpt lat="45.25611" lon="5.02775">
        <ele>250.97</ele>
        <time>2017-02-25T14:51:33Z</time>
      </trkpt>
      <trkpt lat="45.25611" lon="5.02775">
        <ele>250.97</ele>
        <time>2017-02-25T14:51:34Z</time>
      </trkpt>
      <trkpt lat="45.25611" lon="5.02775">
        <ele>250.97</ele>
        <time>2017-02-25T14:51:35Z</time>
      </trkpt>
      <trkpt lat="45.25611" lon="5.02775">
        <ele>250.97</ele>
        <time>2017-02-25T14:51:36Z</time>
      </trkpt>
      <trkpt lat="45.25611" lon="5.02775">
        <ele>250.97</ele>
        <time>2017-02-25T14:51:37Z</time>
      </trkpt>
      <trkpt lat="45.25611" lon="5.02775">
        <ele>250.97</ele>
        <time>2017-02-25T14:51:38Z</time>
      </trkpt>
      <trkpt lat="45.25611" lon="5.02775">
        <ele>250.97</ele>
        <time>2017-02-25T14:51:39Z</time>
      </trkpt>
      <trkpt lat="45.25611" lon="5.02775">
        <ele>250.97</ele>
        <time>2017-02-25T14:51:40Z</time>
      </trkpt>
      <trkpt lat="45.25611" lon="5.02775">
        <ele>250.97</ele>
        <time>2017-02-25T14:51:41Z</time>
      </trkpt>
      <trkpt lat="45.25611" lon="5.02775">
        <ele>250.97</ele>
        <time>2017-02-25T14:51:42Z</time>
      </trkpt>
      <trkpt lat="45.25611" lon="5.02775">
        <ele>250.97</ele>
        <time>2017-02-25T14:51:43Z</time>
      </trkpt>
      <trkpt lat="45.25611" lon="5.02775">
        <ele>250.97</ele>
        <time>2017-02-25T14:51:44Z</time>
      </trkpt>
      <trkpt lat="45.25611" lon="5.02775">
        <ele>250.97</ele>
        <time>2017-02-25T14:51:45Z</time>
      </trkpt>
      <trkpt lat="45.25611" lon="5.02775">
        <ele>250.97</ele>
        <time>2017-02-25T14:51:46Z</time>
      </trkpt>
      <trkpt lat="45.25611" lon="5.02775">
        <ele>250.97</ele>
        <time>2017-02-25T14:51:47Z</time>
      </trkpt>
      <trkpt lat="45.25611" lon="5.02775">
        <ele>250.97</ele>
        <time>2017-02-25T14:51:48Z</time>
      </trkpt>
      <trkpt lat="45.25611" lon="5.02775">
        <ele>250.97</ele>
        <time>2017-02-25T14:51:49Z</time>
      </trkpt>
      <trkpt lat="45.25611" lon="5.02775">
        <ele>250.97</ele>
        <time>2017-02-25T14:51:50Z</time>
      </trkpt>
      <trkpt lat="45.25611" lon="5.02775">
        <ele>250.97</ele>
        <time>2017-02-25T14:51:51Z</time>
      </trkpt>
      <trkpt lat="45.25611" lon="5.02775">
        <ele>250.97</ele>
        <time>2017-02-25T14:51:52Z</time>
      </trkpt>
      <trkpt lat="45.25611" lon="5.02775">
        <ele>250.97</ele>
        <time>2017-02-25T14:51:53Z</time>
      </trkpt>
      <trkpt lat="45.25611" lon="5.02775">
        <ele>250.97</ele>
        <time>2017-02-25T14:51:54Z</time>
      </trkpt>
      <trkpt lat="45.25611" lon="5.02775">
        <ele>250.97</ele>
        <time>2017-02-25T14:51:55Z</time>
      </trkpt>
      <trkpt lat="45.25611" lon="5.02775">
        <ele>250.97</ele>
        <time>2017-02-25T14:51:56Z</time>
      </trkpt>
      <trkpt lat="45.25611" lon="5.02775">
        <ele>250.97</ele>
        <time>2017-02-25T14:51:57Z</time>
      </trkpt>
      <trkpt lat="45.25611" lon="5.02775">
        <ele>250.97</ele>
        <time>2017-02-25T14:51:58Z</time>
      </trkpt>
      <trkpt lat="45.25611" lon="5.02775">
        <ele>250.97</ele>
        <time>2017-02-25T14:51:59Z</time>
      </trkpt>
      <trkpt lat="45.25611" lon="5.02775">
        <ele>250.97</ele>
        <time>2017-02-25T14:52:00Z</time>
      </trkpt>
      <trkpt lat="45.25611" lon="5.02775">
        <ele>250.97</ele>
        <time>2017-02-25T14:52:01Z</time>
      </trkpt>
      <trkpt lat="45.25611" lon="5.02775">
        <ele>250.97</ele>
        <time>2017-02-25T14:52:02Z</time>
      </trkpt>
      <trkpt lat="45.25611" lon="5.02775">
        <ele>250.97</ele>
        <time>2017-02-25T14:52:03Z</time>
      </trkpt>
      <trkpt lat="45.25611" lon="5.02775">
        <ele>250.97</ele>
        <time>2017-02-25T14:52:04Z</time>
      </trkpt>
      <trkpt lat="45.25611" lon="5.02775">
        <ele>250.97</ele>
        <time>2017-02-25T14:52:05Z</time>
      </trkpt>
      <trkpt lat="45.25611" lon="5.02775">
        <ele>250.97</ele>
        <time>2017-02-25T14:52:06Z</time>
      </trkpt>
      <trkpt lat="45.25611" lon="5.02775">
        <ele>250.97</ele>
        <time>2017-02-25T14:52:07Z</time>
      </trkpt>
      <trkpt lat="45.25611" lon="5.02775">
        <ele>250.97</ele>
        <time>2017-02-25T14:52:08Z</time>
      </trkpt>
      <trkpt lat="45.25611" lon="5.02775">
        <ele>250.97</ele>
        <time>2017-02-25T14:52:09Z</time>
      </trkpt>
      <trkpt lat="45.25611" lon="5.02775">
        <ele>250.97</ele>
        <time>2017-02-25T14:52:10Z</time>
      </trkpt>
      <trkpt lat="45.25611" lon="5.02775">
        <ele>250.97</ele>
        <time>2017-02-25T14:52:11Z</time>
      </trkpt>
      <trkpt lat="45.25611" lon="5.02775">
        <ele>250.97</ele>
        <time>2017-02-25T14:52:12Z</time>
      </trkpt>
      <trkpt lat="45.25611" lon="5.02775">
        <ele>250.97</ele>
        <time>2017-02-25T14:52:13Z</time>
      </trkpt>
      <trkpt lat="45.25611" lon="5.02775">
        <ele>250.97</ele>
        <time>2017-02-25T14:52:14Z</time>
      </trkpt>
      <trkpt lat="45.25611" lon="5.02775">
        <ele>250.97</ele>
        <time>2017-02-25T14:52:15Z</time>
      </trkpt>
      <trkpt lat="45.25611" lon="5.02775">
        <ele>250.97</ele>
        <time>2017-02-25T14:52:16Z</time>
      </trkpt>
      <trkpt lat="45.25611" lon="5.02775">
        <ele>250.97</ele>
        <time>2017-02-25T14:52:17Z</time>
      </trkpt>
      <trkpt lat="45.25611" lon="5.02775">
        <ele>250.97</ele>
        <time>2017-02-25T14:52:18Z</time>
      </trkpt>
      <trkpt lat="45.25611" lon="5.02775">
        <ele>250.97</ele>
        <time>2017-02-25T14:52:19Z</time>
      </trkpt>
      <trkpt lat="45.25611" lon="5.02775">
        <ele>250.97</ele>
        <time>2017-02-25T14:52:20Z</time>
      </trkpt>
      <trkpt lat="45.25611" lon="5.02775">
        <ele>250.97</ele>
        <time>2017-02-25T14:52:21Z</time>
      </trkpt>
      <trkpt lat="45.25611" lon="5.02775">
        <ele>250.97</ele>
        <time>2017-02-25T14:52:22Z</time>
      </trkpt>
      <trkpt lat="45.25611" lon="5.02775">
        <ele>250.97</ele>
        <time>2017-02-25T14:52:23Z</time>
      </trkpt>
      <trkpt lat="45.25611" lon="5.02775">
        <ele>250.97</ele>
        <time>2017-02-25T14:52:24Z</time>
      </trkpt>
      <trkpt lat="45.25611" lon="5.02775">
        <ele>250.97</ele>
        <time>2017-02-25T14:52:25Z</time>
      </trkpt>
      <trkpt lat="45.25611" lon="5.02775">
        <ele>250.97</ele>
        <time>2017-02-25T14:52:26Z</time>
      </trkpt>
      <trkpt lat="45.25611" lon="5.02775">
        <ele>250.97</ele>
        <time>2017-02-25T14:52:27Z</time>
      </trkpt>
      <trkpt lat="45.25611" lon="5.02775">
        <ele>250.97</ele>
        <time>2017-02-25T14:52:28Z</time>
      </trkpt>
      <trkpt lat="45.25611" lon="5.02775">
        <ele>250.97</ele>
        <time>2017-02-25T14:52:29Z</time>
      </trkpt>
      <trkpt lat="45.25611" lon="5.02775">
        <ele>250.97</ele>
        <time>2017-02-25T14:52:30Z</time>
      </trkpt>
      <trkpt lat="45.25611" lon="5.02775">
        <ele>250.97</ele>
        <time>2017-02-25T14:52:31Z</time>
      </trkpt>
      <trkpt lat="45.25611" lon="5.02775">
        <ele>250.97</ele>
        <time>2017-02-25T14:52:32Z</time>
      </trkpt>
      <trkpt lat="45.25611" lon="5.02775">
        <ele>250.97</ele>
        <time>2017-02-25T14:52:33Z</time>
      </trkpt>
      <trkpt lat="45.25611" lon="5.02775">
        <ele>250.97</ele>
        <time>2017-02-25T14:52:34Z</time>
      </trkpt>
      <trkpt lat="45.25611" lon="5.02775">
        <ele>250.97</ele>
        <time>2017-02-25T14:52:35Z</time>
      </trkpt>
      <trkpt lat="45.25611" lon="5.02775">
        <ele>250.97</ele>
        <time>2017-02-25T14:52:36Z</time>
      </trkpt>
      <trkpt lat="45.25611" lon="5.02775">
        <ele>250.97</ele>
        <time>2017-02-25T14:52:37Z</time>
      </trkpt>
      <trkpt lat="45.25611" lon="5.02775">
        <ele>250.97</ele>
        <time>2017-02-25T14:52:38Z</time>
      </trkpt>
      <trkpt lat="45.25611" lon="5.02775">
        <ele>250.97</ele>
        <time>2017-02-25T14:52:39Z</time>
      </trkpt>
      <trkpt lat="45.25611" lon="5.02775">
        <ele>250.97</ele>
        <time>2017-02-25T14:52:40Z</time>
      </trkpt>
      <trkpt lat="45.25611" lon="5.02775">
        <ele>250.97</ele>
        <time>2017-02-25T14:52:41Z</time>
      </trkpt>
      <trkpt lat="45.25611" lon="5.02775">
        <ele>250.97</ele>
        <time>2017-02-25T14:52:42Z</time>
      </trkpt>
      <trkpt lat="45.25611" lon="5.02775">
        <ele>250.97</ele>
        <time>2017-02-25T14:52:43Z</time>
      </trkpt>
      <trkpt lat="45.25611" lon="5.02775">
        <ele>250.97</ele>
        <time>2017-02-25T14:52:44Z</time>
      </trkpt>
      <trkpt lat="45.25611" lon="5.02775">
        <ele>250.97</ele>
        <time>2017-02-25T14:52:45Z</time>
      </trkpt>
      <trkpt lat="45.25611" lon="5.02775">
        <ele>250.97</ele>
        <time>2017-02-25T14:52:46Z</time>
      </trkpt>
      <trkpt lat="45.25611" lon="5.02775">
        <ele>250.97</ele>
        <time>2017-02-25T14:52:47Z</time>
      </trkpt>
      <trkpt lat="45.25611" lon="5.02775">
        <ele>250.97</ele>
        <time>2017-02-25T14:52:48Z</time>
      </trkpt>
      <trkpt lat="45.25611" lon="5.02775">
        <ele>250.97</ele>
        <time>2017-02-25T14:52:49Z</time>
      </trkpt>
      <trkpt lat="45.25611" lon="5.02775">
        <ele>250.97</ele>
        <time>2017-02-25T14:52:50Z</time>
      </trkpt>
      <trkpt lat="45.25611" lon="5.02775">
        <ele>250.97</ele>
        <time>2017-02-25T14:52:51Z</time>
      </trkpt>
      <trkpt lat="45.25611" lon="5.02775">
        <ele>250.97</ele>
        <time>2017-02-25T14:52:52Z</time>
      </trkpt>
      <trkpt lat="45.25611" lon="5.02775">
        <ele>250.97</ele>
        <time>2017-02-25T14:52:53Z</time>
      </trkpt>
      <trkpt lat="45.25611" lon="5.02775">
        <ele>250.97</ele>
        <time>2017-02-25T14:52:54Z</time>
      </trkpt>
      <trkpt lat="45.25611" lon="5.02775">
        <ele>250.97</ele>
        <time>2017-02-25T14:52:55Z</time>
      </trkpt>
      <trkpt lat="45.25611" lon="5.02775">
        <ele>250.97</ele>
        <time>2017-02-25T14:52:56Z</time>
      </trkpt>
      <trkpt lat="45.25611" lon="5.02775">
        <ele>250.97</ele>
        <time>2017-02-25T14:52:57Z</time>
      </trkpt>
      <trkpt lat="45.25611" lon="5.02775">
        <ele>250.97</ele>
        <time>2017-02-25T14:52:58Z</time>
      </trkpt>
      <trkpt lat="45.25611" lon="5.02775">
        <ele>250.97</ele>
        <time>2017-02-25T14:52:59Z</time>
      </trkpt>
      <trkpt lat="45.25611" lon="5.02775">
        <ele>250.97</ele>
        <time>2017-02-25T14:53:00Z</time>
      </trkpt>
      <trkpt lat="45.25611" lon="5.02775">
        <ele>250.97</ele>
        <time>2017-02-25T14:53:01Z</time>
      </trkpt>
      <trkpt lat="45.25611" lon="5.02775">
        <ele>250.97</ele>
        <time>2017-02-25T14:53:02Z</time>
      </trkpt>
      <trkpt lat="45.25611" lon="5.02775">
        <ele>250.97</ele>
        <time>2017-02-25T14:53:03Z</time>
      </trkpt>
      <trkpt lat="45.25611" lon="5.02775">
        <ele>250.97</ele>
        <time>2017-02-25T14:53:04Z</time>
      </trkpt>
      <trkpt lat="45.25611" lon="5.02775">
        <ele>250.97</ele>
        <time>2017-02-25T14:53:05Z</time>
      </trkpt>
      <trkpt lat="45.25611" lon="5.02775">
        <ele>250.97</ele>
        <time>2017-02-25T14:53:06Z</time>
      </trkpt>
      <trkpt lat="45.25611" lon="5.02775">
        <ele>250.97</ele>
        <time>2017-02-25T14:53:07Z</time>
      </trkpt>
      <trkpt lat="45.25611" lon="5.02775">
        <ele>250.97</ele>
        <time>2017-02-25T14:53:08Z</time>
      </trkpt>
      <trkpt lat="45.25611" lon="5.02775">
        <ele>250.97</ele>
        <time>2017-02-25T14:53:09Z</time>
      </trkpt>
      <trkpt lat="45.25611" lon="5.02775">
        <ele>250.97</ele>
        <time>2017-02-25T14:53:10Z</time>
      </trkpt>
      <trkpt lat="45.25611" lon="5.02775">
        <ele>250.97</ele>
        <time>2017-02-25T14:53:11Z</time>
      </trkpt>
      <trkpt lat="45.25611" lon="5.02775">
        <ele>250.97</ele>
        <time>2017-02-25T14:53:12Z</time>
      </trkpt>
      <trkpt lat="45.25611" lon="5.02775">
        <ele>250.97</ele>
        <time>2017-02-25T14:53:13Z</time>
      </trkpt>
      <trkpt lat="45.25611" lon="5.02775">
        <ele>250.97</ele>
        <time>2017-02-25T14:53:14Z</time>
      </trkpt>
      <trkpt lat="45.25611" lon="5.02775">
        <ele>250.97</ele>
        <time>2017-02-25T14:53:15Z</time>
      </trkpt>
      <trkpt lat="45.25611" lon="5.02775">
        <ele>250.97</ele>
        <time>2017-02-25T14:53:16Z</time>
      </trkpt>
      <trkpt lat="45.25611" lon="5.02775">
        <ele>250.97</ele>
        <time>2017-02-25T14:53:17Z</time>
      </trkpt>
      <trkpt lat="45.25611" lon="5.02775">
        <ele>250.97</ele>
        <time>2017-02-25T14:53:18Z</time>
      </trkpt>
      <trkpt lat="45.25611" lon="5.02775">
        <ele>250.97</ele>
        <time>2017-02-25T14:53:19Z</time>
      </trkpt>
      <trkpt lat="45.25611" lon="5.02775">
        <ele>250.97</ele>
        <time>2017-02-25T14:53:20Z</time>
      </trkpt>
      <trkpt lat="45.25611" lon="5.02775">
        <ele>250.97</ele>
        <time>2017-02-25T14:53:21Z</time>
      </trkpt>
      <trkpt lat="45.25611" lon="5.02775">
        <ele>250.97</ele>
        <time>2017-02-25T14:53:22Z</time>
      </trkpt>
      <trkpt lat="45.25611" lon="5.02775">
        <ele>250.97</ele>
        <time>2017-02-25T14:53:23Z</time>
      </trkpt>
      <trkpt lat="45.25611" lon="5.02775">
        <ele>250.97</ele>
        <time>2017-02-25T14:53:24Z</time>
      </trkpt>
      <trkpt lat="45.25611" lon="5.02775">
        <ele>250.97</ele>
        <time>2017-02-25T14:53:25Z</time>
      </trkpt>
      <trkpt lat="45.25611" lon="5.02775">
        <ele>250.97</ele>
        <time>2017-02-25T14:53:26Z</time>
      </trkpt>
      <trkpt lat="45.25611" lon="5.02775">
        <ele>250.97</ele>
        <time>2017-02-25T14:53:27Z</time>
      </trkpt>
      <trkpt lat="45.25611" lon="5.02775">
        <ele>250.97</ele>
        <time>2017-02-25T14:53:28Z</time>
      </trkpt>
      <trkpt lat="45.25611" lon="5.02775">
        <ele>250.97</ele>
        <time>2017-02-25T14:53:29Z</time>
      </trkpt>
      <trkpt lat="45.25611" lon="5.02775">
        <ele>250.97</ele>
        <time>2017-02-25T14:53:30Z</time>
      </trkpt>
      <trkpt lat="45.25611" lon="5.02775">
        <ele>250.97</ele>
        <time>2017-02-25T14:53:31Z</time>
      </trkpt>
      <trkpt lat="45.25611" lon="5.02775">
        <ele>250.97</ele>
        <time>2017-02-25T14:53:32Z</time>
      </trkpt>
      <trkpt lat="45.25611" lon="5.02775">
        <ele>250.97</ele>
        <time>2017-02-25T14:53:33Z</time>
      </trkpt>
      <trkpt lat="45.25611" lon="5.02775">
        <ele>250.97</ele>
        <time>2017-02-25T14:53:34Z</time>
      </trkpt>
      <trkpt lat="45.25611" lon="5.02775">
        <ele>250.97</ele>
        <time>2017-02-25T14:53:35Z</time>
      </trkpt>
      <trkpt lat="45.25611" lon="5.02775">
        <ele>250.97</ele>
        <time>2017-02-25T14:53:36Z</time>
      </trkpt>
      <trkpt lat="45.25611" lon="5.02775">
        <ele>250.97</ele>
        <time>2017-02-25T14:53:37Z</time>
      </trkpt>
      <trkpt lat="45.25611" lon="5.02775">
        <ele>250.97</ele>
        <time>2017-02-25T14:53:38Z</time>
      </trkpt>
      <trkpt lat="45.25611" lon="5.02775">
        <ele>250.97</ele>
        <time>2017-02-25T14:53:39Z</time>
      </trkpt>
      <trkpt lat="45.25611" lon="5.02775">
        <ele>250.97</ele>
        <time>2017-02-25T14:53:40Z</time>
      </trkpt>
      <trkpt lat="45.25611" lon="5.02775">
        <ele>250.97</ele>
        <time>2017-02-25T14:53:41Z</time>
      </trkpt>
      <trkpt lat="45.25611" lon="5.02775">
        <ele>250.97</ele>
        <time>2017-02-25T14:53:42Z</time>
      </trkpt>
      <trkpt lat="45.25611" lon="5.02775">
        <ele>250.97</ele>
        <time>2017-02-25T14:53:43Z</time>
      </trkpt>
      <trkpt lat="45.25611" lon="5.02775">
        <ele>250.97</ele>
        <time>2017-02-25T14:53:44Z</time>
      </trkpt>
      <trkpt lat="45.25611" lon="5.02775">
        <ele>250.97</ele>
        <time>2017-02-25T14:53:45Z</time>
      </trkpt>
      <trkpt lat="45.25611" lon="5.02775">
        <ele>250.97</ele>
        <time>2017-02-25T14:53:46Z</time>
      </trkpt>
      <trkpt lat="45.25611" lon="5.02775">
        <ele>250.97</ele>
        <time>2017-02-25T14:53:47Z</time>
      </trkpt>
      <trkpt lat="45.25611" lon="5.02775">
        <ele>250.97</ele>
        <time>2017-02-25T14:53:48Z</time>
      </trkpt>
      <trkpt lat="45.25611" lon="5.02775">
        <ele>250.97</ele>
        <time>2017-02-25T14:53:49Z</time>
      </trkpt>
      <trkpt lat="45.25611" lon="5.02775">
        <ele>250.97</ele>
        <time>2017-02-25T14:53:50Z</time>
      </trkpt>
      <trkpt lat="45.25611" lon="5.02775">
        <ele>250.97</ele>
        <time>2017-02-25T14:53:51Z</time>
      </trkpt>
      <trkpt lat="45.25611" lon="5.02775">
        <ele>250.97</ele>
        <time>2017-02-25T14:53:52Z</time>
      </trkpt>
      <trkpt lat="45.25611" lon="5.02775">
        <ele>250.97</ele>
        <time>2017-02-25T14:53:53Z</time>
      </trkpt>
      <trkpt lat="45.25611" lon="5.02775">
        <ele>250.97</ele>
        <time>2017-02-25T14:53:54Z</time>
      </trkpt>
      <trkpt lat="45.25611" lon="5.02775">
        <ele>250.97</ele>
        <time>2017-02-25T14:53:55Z</time>
      </trkpt>
      <trkpt lat="45.25611" lon="5.02775">
        <ele>250.97</ele>
        <time>2017-02-25T14:53:56Z</time>
      </trkpt>
      <trkpt lat="45.25611" lon="5.02775">
        <ele>250.97</ele>
        <time>2017-02-25T14:53:57Z</time>
      </trkpt>
      <trkpt lat="45.25611" lon="5.02775">
        <ele>250.97</ele>
        <time>2017-02-25T14:53:58Z</time>
      </trkpt>
      <trkpt lat="45.25611" lon="5.02775">
        <ele>250.97</ele>
        <time>2017-02-25T14:53:59Z</time>
      </trkpt>
      <trkpt lat="45.25611" lon="5.02775">
        <ele>250.97</ele>
        <time>2017-02-25T14:54:00Z</time>
      </trkpt>
      <trkpt lat="45.25611" lon="5.02775">
        <ele>250.97</ele>
        <time>2017-02-25T14:54:01Z</time>
      </trkpt>
      <trkpt lat="45.25611" lon="5.02775">
        <ele>250.97</ele>
        <time>2017-02-25T14:54:02Z</time>
      </trkpt>
      <trkpt lat="45.25611" lon="5.02775">
        <ele>250.97</ele>
        <time>2017-02-25T14:54:03Z</time>
      </trkpt>
      <trkpt lat="45.25611" lon="5.02775">
        <ele>250.97</ele>
        <time>2017-02-25T14:54:04Z</time>
      </trkpt>
      <trkpt lat="45.25611" lon="5.02775">
        <ele>250.97</ele>
        <time>2017-02-25T14:54:05Z</time>
      </trkpt>
      <trkpt lat="45.25611" lon="5.02775">
        <ele>250.97</ele>
        <time>2017-02-25T14:54:06Z</time>
      </trkpt>
      <trkpt lat="45.25611" lon="5.02775">
        <ele>250.97</ele>
        <time>2017-02-25T14:54:07Z</time>
      </trkpt>
      <trkpt lat="45.25611" lon="5.02775">
        <ele>250.97</ele>
        <time>2017-02-25T14:54:08Z</time>
      </trkpt>
      <trkpt lat="45.25611" lon="5.02775">
        <ele>250.97</ele>
        <time>2017-02-25T14:54:09Z</time>
      </trkpt>
      <trkpt lat="45.25611" lon="5.02775">
        <ele>250.97</ele>
        <time>2017-02-25T14:54:10Z</time>
      </trkpt>
      <trkpt lat="45.25611" lon="5.02775">
        <ele>250.97</ele>
        <time>2017-02-25T14:54:11Z</time>
      </trkpt>
      <trkpt lat="45.25611" lon="5.02775">
        <ele>250.97</ele>
        <time>2017-02-25T14:54:12Z</time>
      </trkpt>
      <trkpt lat="45.25611" lon="5.02775">
        <ele>250.97</ele>
        <time>2017-02-25T14:54:13Z</time>
      </trkpt>
      <trkpt lat="45.25611" lon="5.02775">
        <ele>250.97</ele>
        <time>2017-02-25T14:54:14Z</time>
      </trkpt>
      <trkpt lat="45.25611" lon="5.02775">
        <ele>250.97</ele>
        <time>2017-02-25T14:54:15Z</time>
      </trkpt>
      <trkpt lat="45.25611" lon="5.02775">
        <ele>250.97</ele>
        <time>2017-02-25T14:54:16Z</time>
      </trkpt>
      <trkpt lat="45.25611" lon="5.02775">
        <ele>250.97</ele>
        <time>2017-02-25T14:54:17Z</time>
      </trkpt>
      <trkpt lat="45.25611" lon="5.02775">
        <ele>250.97</ele>
        <time>2017-02-25T14:54:18Z</time>
      </trkpt>
      <trkpt lat="45.25611" lon="5.02775">
        <ele>250.97</ele>
        <time>2017-02-25T14:54:19Z</time>
      </trkpt>
      <trkpt lat="45.25611" lon="5.02775">
        <ele>250.97</ele>
        <time>2017-02-25T14:54:20Z</time>
      </trkpt>
      <trkpt lat="45.25611" lon="5.02775">
        <ele>250.97</ele>
        <time>2017-02-25T14:54:21Z</time>
      </trkpt>
      <trkpt lat="45.25611" lon="5.02775">
        <ele>250.97</ele>
        <time>2017-02-25T14:54:22Z</time>
      </trkpt>
      <trkpt lat="45.25611" lon="5.02775">
        <ele>250.97</ele>
        <time>2017-02-25T14:54:23Z</time>
      </trkpt>
      <trkpt lat="45.25611" lon="5.02775">
        <ele>250.97</ele>
        <time>2017-02-25T14:54:24Z</time>
      </trkpt>
      <trkpt lat="45.25611" lon="5.02775">
        <ele>250.97</ele>
        <time>2017-02-25T14:54:25Z</time>
      </trkpt>
      <trkpt lat="45.25611" lon="5.02775">
        <ele>250.97</ele>
        <time>2017-02-25T14:54:26Z</time>
      </trkpt>
      <trkpt lat="45.25611" lon="5.02775">
        <ele>250.97</ele>
        <time>2017-02-25T14:54:27Z</time>
      </trkpt>
      <trkpt lat="45.25611" lon="5.02775">
        <ele>250.97</ele>
        <time>2017-02-25T14:54:28Z</time>
      </trkpt>
      <trkpt lat="45.25611" lon="5.02775">
        <ele>250.97</ele>
        <time>2017-02-25T14:54:29Z</time>
      </trkpt>
      <trkpt lat="45.25611" lon="5.02775">
        <ele>250.97</ele>
        <time>2017-02-25T14:54:30Z</time>
      </trkpt>
      <trkpt lat="45.25611" lon="5.02775">
        <ele>250.97</ele>
        <time>2017-02-25T14:54:31Z</time>
      </trkpt>
      <trkpt lat="45.25611" lon="5.02775">
        <ele>250.97</ele>
        <time>2017-02-25T14:54:32Z</time>
      </trkpt>
      <trkpt lat="45.25611" lon="5.02775">
        <ele>250.97</ele>
        <time>2017-02-25T14:54:33Z</time>
      </trkpt>
      <trkpt lat="45.25611" lon="5.02775">
        <ele>250.97</ele>
        <time>2017-02-25T14:54:34Z</time>
      </trkpt>
      <trkpt lat="45.25611" lon="5.02775">
        <ele>250.97</ele>
        <time>2017-02-25T14:54:35Z</time>
      </trkpt>
      <trkpt lat="45.25611" lon="5.02775">
        <ele>250.97</ele>
        <time>2017-02-25T14:54:36Z</time>
      </trkpt>
      <trkpt lat="45.25611" lon="5.02775">
        <ele>250.97</ele>
        <time>2017-02-25T14:54:37Z</time>
      </trkpt>
      <trkpt lat="45.25611" lon="5.02775">
        <ele>250.97</ele>
        <time>2017-02-25T14:54:38Z</time>
      </trkpt>
      <trkpt lat="45.25611" lon="5.02775">
        <ele>250.97</ele>
        <time>2017-02-25T14:54:39Z</time>
      </trkpt>
      <trkpt lat="45.25611" lon="5.02775">
        <ele>250.97</ele>
        <time>2017-02-25T14:54:40Z</time>
      </trkpt>
      <trkpt lat="45.25611" lon="5.02775">
        <ele>250.97</ele>
        <time>2017-02-25T14:54:41Z</time>
      </trkpt>
      <trkpt lat="45.25611" lon="5.02775">
        <ele>250.97</ele>
        <time>2017-02-25T14:54:42Z</time>
      </trkpt>
      <trkpt lat="45.25611" lon="5.02775">
        <ele>250.97</ele>
        <time>2017-02-25T14:54:43Z</time>
      </trkpt>
      <trkpt lat="45.25611" lon="5.02775">
        <ele>250.97</ele>
        <time>2017-02-25T14:54:44Z</time>
      </trkpt>
      <trkpt lat="45.25611" lon="5.02775">
        <ele>250.97</ele>
        <time>2017-02-25T14:54:45Z</time>
      </trkpt>
      <trkpt lat="45.25611" lon="5.02775">
        <ele>250.97</ele>
        <time>2017-02-25T14:54:46Z</time>
      </trkpt>
      <trkpt lat="45.25611" lon="5.02775">
        <ele>250.97</ele>
        <time>2017-02-25T14:54:47Z</time>
      </trkpt>
      <trkpt lat="45.25611" lon="5.02775">
        <ele>250.97</ele>
        <time>2017-02-25T14:54:48Z</time>
      </trkpt>
      <trkpt lat="45.25611" lon="5.02775">
        <ele>250.97</ele>
        <time>2017-02-25T14:54:49Z</time>
      </trkpt>
      <trkpt lat="45.25611" lon="5.02775">
        <ele>250.97</ele>
        <time>2017-02-25T14:54:50Z</time>
      </trkpt>
      <trkpt lat="45.25611" lon="5.02775">
        <ele>250.97</ele>
        <time>2017-02-25T14:54:51Z</time>
      </trkpt>
      <trkpt lat="45.25611" lon="5.02775">
        <ele>250.97</ele>
        <time>2017-02-25T14:54:52Z</time>
      </trkpt>
      <trkpt lat="45.25611" lon="5.02775">
        <ele>250.97</ele>
        <time>2017-02-25T14:54:53Z</time>
      </trkpt>
      <trkpt lat="45.25611" lon="5.02775">
        <ele>250.97</ele>
        <time>2017-02-25T14:54:54Z</time>
      </trkpt>
      <trkpt lat="45.25611" lon="5.02775">
        <ele>250.97</ele>
        <time>2017-02-25T14:54:55Z</time>
      </trkpt>
      <trkpt lat="45.25611" lon="5.02775">
        <ele>250.97</ele>
        <time>2017-02-25T14:54:56Z</time>
      </trkpt>
      <trkpt lat="45.25611" lon="5.02775">
        <ele>250.97</ele>
        <time>2017-02-25T14:54:57Z</time>
      </trkpt>
      <trkpt lat="45.25611" lon="5.02775">
        <ele>250.97</ele>
        <time>2017-02-25T14:54:58Z</time>
      </trkpt>
      <trkpt lat="45.25611" lon="5.02775">
        <ele>250.97</ele>
        <time>2017-02-25T14:54:59Z</time>
      </trkpt>
      <trkpt lat="45.25611" lon="5.02775">
        <ele>250.97</ele>
        <time>2017-02-25T14:55:00Z</time>
      </trkpt>
      <trkpt lat="45.25611" lon="5.02775">
        <ele>250.97</ele>
        <time>2017-02-25T14:55:01Z</time>
      </trkpt>
      <trkpt lat="45.25611" lon="5.02775">
        <ele>250.97</ele>
        <time>2017-02-25T14:55:02Z</time>
      </trkpt>
      <trkpt lat="45.25611" lon="5.02775">
        <ele>250.97</ele>
        <time>2017-02-25T14:55:03Z</time>
      </trkpt>
      <trkpt lat="45.25611" lon="5.02775">
        <ele>250.97</ele>
        <time>2017-02-25T14:55:04Z</time>
      </trkpt>
      <trkpt lat="45.25611" lon="5.02775">
        <ele>250.97</ele>
        <time>2017-02-25T14:55:05Z</time>
      </trkpt>
      <trkpt lat="45.25611" lon="5.02775">
        <ele>250.97</ele>
        <time>2017-02-25T14:55:06Z</time>
      </trkpt>
      <trkpt lat="45.25611" lon="5.02775">
        <ele>250.97</ele>
        <time>2017-02-25T14:55:07Z</time>
      </trkpt>
      <trkpt lat="45.25611" lon="5.02775">
        <ele>250.97</ele>
        <time>2017-02-25T14:55:08Z</time>
      </trkpt>
      <trkpt lat="45.25611" lon="5.02775">
        <ele>250.97</ele>
        <time>2017-02-25T14:55:09Z</time>
      </trkpt>
      <trkpt lat="45.25611" lon="5.02775">
        <ele>250.97</ele>
        <time>2017-02-25T14:55:10Z</time>
      </trkpt>
      <trkpt lat="45.25611" lon="5.02775">
        <ele>250.97</ele>
        <time>2017-02-25T14:55:11Z</time>
      </trkpt>
      <trkpt lat="45.25611" lon="5.02775">
        <ele>250.97</ele>
        <time>2017-02-25T14:55:12Z</time>
      </trkpt>
      <trkpt lat="45.25611" lon="5.02775">
        <ele>250.97</ele>
        <time>2017-02-25T14:55:13Z</time>
      </trkpt>
      <trkpt lat="45.25611" lon="5.02775">
        <ele>250.97</ele>
        <time>2017-02-25T14:55:14Z</time>
      </trkpt>
      <trkpt lat="45.25611" lon="5.02775">
        <ele>250.97</ele>
        <time>2017-02-25T14:55:15Z</time>
      </trkpt>
      <trkpt lat="45.25611" lon="5.02775">
        <ele>250.97</ele>
        <time>2017-02-25T14:55:16Z</time>
      </trkpt>
      <trkpt lat="45.25611" lon="5.02775">
        <ele>250.97</ele>
        <time>2017-02-25T14:55:17Z</time>
      </trkpt>
      <trkpt lat="45.25611" lon="5.02775">
        <ele>250.97</ele>
        <time>2017-02-25T14:55:18Z</time>
      </trkpt>
      <trkpt lat="45.25611" lon="5.02775">
        <ele>250.97</ele>
        <time>2017-02-25T14:55:19Z</time>
      </trkpt>
      <trkpt lat="45.25611" lon="5.02775">
        <ele>250.97</ele>
        <time>2017-02-25T14:55:20Z</time>
      </trkpt>
      <trkpt lat="45.25611" lon="5.02775">
        <ele>250.97</ele>
        <time>2017-02-25T14:55:21Z</time>
      </trkpt>
      <trkpt lat="45.25611" lon="5.02775">
        <ele>250.97</ele>
        <time>2017-02-25T14:55:22Z</time>
      </trkpt>
      <trkpt lat="45.25611" lon="5.02775">
        <ele>250.97</ele>
        <time>2017-02-25T14:55:23Z</time>
      </trkpt>
      <trkpt lat="45.25611" lon="5.02775">
        <ele>250.97</ele>
        <time>2017-02-25T14:55:24Z</time>
      </trkpt>
      <trkpt lat="45.25611" lon="5.02775">
        <ele>250.97</ele>
        <time>2017-02-25T14:55:25Z</time>
      </trkpt>
      <trkpt lat="45.25611" lon="5.02775">
        <ele>250.97</ele>
        <time>2017-02-25T14:55:26Z</time>
      </trkpt>
      <trkpt lat="45.25611" lon="5.02775">
        <ele>250.97</ele>
        <time>2017-02-25T14:55:27Z</time>
      </trkpt>
      <trkpt lat="45.25611" lon="5.02775">
        <ele>250.97</ele>
        <time>2017-02-25T14:55:28Z</time>
      </trkpt>
      <trkpt lat="45.25611" lon="5.02775">
        <ele>250.97</ele>
        <time>2017-02-25T14:55:29Z</time>
      </trkpt>
      <trkpt lat="45.25611" lon="5.02775">
        <ele>250.97</ele>
        <time>2017-02-25T14:55:30Z</time>
      </trkpt>
      <trkpt lat="45.25611" lon="5.02775">
        <ele>250.97</ele>
        <time>2017-02-25T14:55:31Z</time>
      </trkpt>
      <trkpt lat="45.25611" lon="5.02775">
        <ele>250.97</ele>
        <time>2017-02-25T14:55:32Z</time>
      </trkpt>
      <trkpt lat="45.25611" lon="5.02775">
        <ele>250.97</ele>
        <time>2017-02-25T14:55:33Z</time>
      </trkpt>
      <trkpt lat="45.25611" lon="5.02775">
        <ele>250.97</ele>
        <time>2017-02-25T14:55:34Z</time>
      </trkpt>
      <trkpt lat="45.25611" lon="5.02775">
        <ele>250.97</ele>
        <time>2017-02-25T14:55:35Z</time>
      </trkpt>
      <trkpt lat="45.25611" lon="5.02775">
        <ele>250.97</ele>
        <time>2017-02-25T14:55:36Z</time>
      </trkpt>
      <trkpt lat="45.25611" lon="5.02775">
        <ele>250.97</ele>
        <time>2017-02-25T14:55:37Z</time>
      </trkpt>
      <trkpt lat="45.25611" lon="5.02775">
        <ele>250.97</ele>
        <time>2017-02-25T14:55:38Z</time>
      </trkpt>
      <trkpt lat="45.25611" lon="5.02775">
        <ele>250.97</ele>
        <time>2017-02-25T14:55:39Z</time>
      </trkpt>
      <trkpt lat="45.25611" lon="5.02775">
        <ele>250.97</ele>
        <time>2017-02-25T14:55:40Z</time>
      </trkpt>
      <trkpt lat="45.25611" lon="5.02775">
        <ele>250.97</ele>
        <time>2017-02-25T14:55:41Z</time>
      </trkpt>
      <trkpt lat="45.25611" lon="5.02775">
        <ele>250.97</ele>
        <time>2017-02-25T14:55:42Z</time>
      </trkpt>
      <trkpt lat="45.25611" lon="5.02775">
        <ele>250.97</ele>
        <time>2017-02-25T14:55:43Z</time>
      </trkpt>
      <trkpt lat="45.25611" lon="5.02775">
        <ele>250.97</ele>
        <time>2017-02-25T14:55:44Z</time>
      </trkpt>
      <trkpt lat="45.25611" lon="5.02775">
        <ele>250.97</ele>
        <time>2017-02-25T14:55:45Z</time>
      </trkpt>
      <trkpt lat="45.25611" lon="5.02775">
        <ele>250.97</ele>
        <time>2017-02-25T14:55:46Z</time>
      </trkpt>
      <trkpt lat="45.25611" lon="5.02775">
        <ele>250.97</ele>
        <time>2017-02-25T14:55:47Z</time>
      </trkpt>
      <trkpt lat="45.25611" lon="5.02775">
        <ele>250.97</ele>
        <time>2017-02-25T14:55:48Z</time>
      </trkpt>
      <trkpt lat="45.25611" lon="5.02775">
        <ele>250.97</ele>
        <time>2017-02-25T14:55:49Z</time>
      </trkpt>
      <trkpt lat="45.25611" lon="5.02775">
        <ele>250.97</ele>
        <time>2017-02-25T14:55:50Z</time>
      </trkpt>
      <trkpt lat="45.25611" lon="5.02775">
        <ele>250.97</ele>
        <time>2017-02-25T14:55:51Z</time>
      </trkpt>
      <trkpt lat="45.25611" lon="5.02775">
        <ele>250.97</ele>
        <time>2017-02-25T14:55:52Z</time>
      </trkpt>
      <trkpt lat="45.25611" lon="5.02775">
        <ele>250.97</ele>
        <time>2017-02-25T14:55:53Z</time>
      </trkpt>
      <trkpt lat="45.25611" lon="5.02775">
        <ele>250.97</ele>
        <time>2017-02-25T14:55:54Z</time>
      </trkpt>
      <trkpt lat="45.25611" lon="5.02775">
        <ele>250.97</ele>
        <time>2017-02-25T14:55:55Z</time>
      </trkpt>
      <trkpt lat="45.25611" lon="5.02775">
        <ele>250.97</ele>
        <time>2017-02-25T14:55:56Z</time>
      </trkpt>
      <trkpt lat="45.25611" lon="5.02775">
        <ele>250.97</ele>
        <time>2017-02-25T14:55:57Z</time>
      </trkpt>
      <trkpt lat="45.25611" lon="5.02775">
        <ele>250.97</ele>
        <time>2017-02-25T14:55:58Z</time>
      </trkpt>
      <trkpt lat="45.25611" lon="5.02775">
        <ele>250.97</ele>
        <time>2017-02-25T14:55:59Z</time>
      </trkpt>
      <trkpt lat="45.25611" lon="5.02775">
        <ele>250.97</ele>
        <time>2017-02-25T14:56:00Z</time>
      </trkpt>
      <trkpt lat="45.25611" lon="5.02775">
        <ele>250.97</ele>
        <time>2017-02-25T14:56:01Z</time>
      </trkpt>
      <trkpt lat="45.25611" lon="5.02775">
        <ele>250.97</ele>
        <time>2017-02-25T14:56:02Z</time>
      </trkpt>
      <trkpt lat="45.25611" lon="5.02775">
        <ele>250.97</ele>
        <time>2017-02-25T14:56:03Z</time>
      </trkpt>
      <trkpt lat="45.25611" lon="5.02775">
        <ele>250.97</ele>
        <time>2017-02-25T14:56:04Z</time>
      </trkpt>
      <trkpt lat="45.25611" lon="5.02775">
        <ele>250.97</ele>
        <time>2017-02-25T14:56:05Z</time>
      </trkpt>
      <trkpt lat="45.25611" lon="5.02775">
        <ele>250.97</ele>
        <time>2017-02-25T14:56:06Z</time>
      </trkpt>
      <trkpt lat="45.25611" lon="5.02775">
        <ele>250.97</ele>
        <time>2017-02-25T14:56:07Z</time>
      </trkpt>
      <trkpt lat="45.25611" lon="5.02775">
        <ele>250.97</ele>
        <time>2017-02-25T14:56:08Z</time>
      </trkpt>
      <trkpt lat="45.25611" lon="5.02775">
        <ele>250.97</ele>
        <time>2017-02-25T14:56:09Z</time>
      </trkpt>
      <trkpt lat="45.25611" lon="5.02775">
        <ele>250.97</ele>
        <time>2017-02-25T14:56:10Z</time>
      </trkpt>
      <trkpt lat="45.25611" lon="5.02775">
        <ele>250.97</ele>
        <time>2017-02-25T14:56:11Z</time>
      </trkpt>
      <trkpt lat="45.25611" lon="5.02775">
        <ele>250.97</ele>
        <time>2017-02-25T14:56:12Z</time>
      </trkpt>
      <trkpt lat="45.25611" lon="5.02775">
        <ele>250.97</ele>
        <time>2017-02-25T14:56:13Z</time>
      </trkpt>
      <trkpt lat="45.25611" lon="5.02775">
        <ele>250.97</ele>
        <time>2017-02-25T14:56:14Z</time>
      </trkpt>
      <trkpt lat="45.25611" lon="5.02775">
        <ele>250.97</ele>
        <time>2017-02-25T14:56:15Z</time>
      </trkpt>
      <trkpt lat="45.25611" lon="5.02775">
        <ele>250.97</ele>
        <time>2017-02-25T14:56:16Z</time>
      </trkpt>
      <trkpt lat="45.25611" lon="5.02775">
        <ele>250.97</ele>
        <time>2017-02-25T14:56:17Z</time>
      </trkpt>
      <trkpt lat="45.25611" lon="5.02775">
        <ele>250.97</ele>
        <time>2017-02-25T14:56:18Z</time>
      </trkpt>
      <trkpt lat="45.25611" lon="5.02775">
        <ele>250.97</ele>
        <time>2017-02-25T14:56:19Z</time>
      </trkpt>
      <trkpt lat="45.25611" lon="5.02775">
        <ele>250.97</ele>
        <time>2017-02-25T14:56:20Z</time>
      </trkpt>
      <trkpt lat="45.25611" lon="5.02775">
        <ele>250.97</ele>
        <time>2017-02-25T14:56:21Z</time>
      </trkpt>
      <trkpt lat="45.25611" lon="5.02775">
        <ele>250.97</ele>
        <time>2017-02-25T14:56:22Z</time>
      </trkpt>
      <trkpt lat="45.25611" lon="5.02775">
        <ele>250.97</ele>
        <time>2017-02-25T14:56:23Z</time>
      </trkpt>
      <trkpt lat="45.25611" lon="5.02775">
        <ele>250.97</ele>
        <time>2017-02-25T14:56:24Z</time>
      </trkpt>
      <trkpt lat="45.25611" lon="5.02775">
        <ele>250.97</ele>
        <time>2017-02-25T14:56:25Z</time>
      </trkpt>
      <trkpt lat="45.25611" lon="5.02775">
        <ele>250.97</ele>
        <time>2017-02-25T14:56:26Z</time>
      </trkpt>
      <trkpt lat="45.25611" lon="5.02775">
        <ele>250.97</ele>
        <time>2017-02-25T14:56:27Z</time>
      </trkpt>
      <trkpt lat="45.25611" lon="5.02775">
        <ele>250.97</ele>
        <time>2017-02-25T14:56:28Z</time>
      </trkpt>
      <trkpt lat="45.25611" lon="5.02775">
        <ele>250.97</ele>
        <time>2017-02-25T14:56:29Z</time>
      </trkpt>
      <trkpt lat="45.25611" lon="5.02775">
        <ele>250.97</ele>
        <time>2017-02-25T14:56:30Z</time>
      </trkpt>
      <trkpt lat="45.25611" lon="5.02775">
        <ele>250.97</ele>
        <time>2017-02-25T14:56:31Z</time>
      </trkpt>
      <trkpt lat="45.25611" lon="5.02775">
        <ele>250.97</ele>
        <time>2017-02-25T14:56:32Z</time>
      </trkpt>
      <trkpt lat="45.25611" lon="5.02775">
        <ele>250.97</ele>
        <time>2017-02-25T14:56:33Z</time>
      </trkpt>
      <trkpt lat="45.25611" lon="5.02775">
        <ele>250.97</ele>
        <time>2017-02-25T14:56:34Z</time>
      </trkpt>
      <trkpt lat="45.25611" lon="5.02775">
        <ele>250.97</ele>
        <time>2017-02-25T14:56:35Z</time>
      </trkpt>
      <trkpt lat="45.25611" lon="5.02775">
        <ele>250.97</ele>
        <time>2017-02-25T14:56:36Z</time>
      </trkpt>
      <trkpt lat="45.25611" lon="5.02775">
        <ele>250.97</ele>
        <time>2017-02-25T14:56:37Z</time>
      </trkpt>
      <trkpt lat="45.25611" lon="5.02775">
        <ele>250.97</ele>
        <time>2017-02-25T14:56:38Z</time>
      </trkpt>
      <trkpt lat="45.25611" lon="5.02775">
        <ele>250.97</ele>
        <time>2017-02-25T14:56:39Z</time>
      </trkpt>
      <trkpt lat="45.25611" lon="5.02775">
        <ele>250.97</ele>
        <time>2017-02-25T14:56:40Z</time>
      </trkpt>
      <trkpt lat="45.25611" lon="5.02775">
        <ele>250.97</ele>
        <time>2017-02-25T14:56:41Z</time>
      </trkpt>
      <trkpt lat="45.25611" lon="5.02775">
        <ele>250.97</ele>
        <time>2017-02-25T14:56:42Z</time>
      </trkpt>
      <trkpt lat="45.25611" lon="5.02775">
        <ele>250.97</ele>
        <time>2017-02-25T14:56:43Z</time>
      </trkpt>
      <trkpt lat="45.25611" lon="5.02775">
        <ele>250.97</ele>
        <time>2017-02-25T14:56:44Z</time>
      </trkpt>
      <trkpt lat="45.25611" lon="5.02775">
        <ele>250.97</ele>
        <time>2017-02-25T14:56:45Z</time>
      </trkpt>
      <trkpt lat="45.25611" lon="5.02775">
        <ele>250.97</ele>
        <time>2017-02-25T14:56:46Z</time>
      </trkpt>
      <trkpt lat="45.25611" lon="5.02775">
        <ele>250.97</ele>
        <time>2017-02-25T14:56:47Z</time>
      </trkpt>
      <trkpt lat="45.25611" lon="5.02775">
        <ele>250.97</ele>
        <time>2017-02-25T14:56:48Z</time>
      </trkpt>
      <trkpt lat="45.25611" lon="5.02775">
        <ele>250.97</ele>
        <time>2017-02-25T14:56:49Z</time>
      </trkpt>
      <trkpt lat="45.25611" lon="5.02775">
        <ele>250.97</ele>
        <time>2017-02-25T14:56:50Z</time>
      </trkpt>
      <trkpt lat="45.25611" lon="5.02775">
        <ele>250.97</ele>
        <time>2017-02-25T14:56:51Z</time>
      </trkpt>
      <trkpt lat="45.25611" lon="5.02775">
        <ele>250.97</ele>
        <time>2017-02-25T14:56:52Z</time>
      </trkpt>
      <trkpt lat="45.25611" lon="5.02775">
        <ele>250.97</ele>
        <time>2017-02-25T14:56:53Z</time>
      </trkpt>
      <trkpt lat="45.25611" lon="5.02775">
        <ele>250.97</ele>
        <time>2017-02-25T14:56:54Z</time>
      </trkpt>
      <trkpt lat="45.25611" lon="5.02775">
        <ele>250.97</ele>
        <time>2017-02-25T14:56:55Z</time>
      </trkpt>
      <trkpt lat="45.25611" lon="5.02775">
        <ele>250.97</ele>
        <time>2017-02-25T14:56:56Z</time>
      </trkpt>
      <trkpt lat="45.25611" lon="5.02775">
        <ele>250.97</ele>
        <time>2017-02-25T14:56:57Z</time>
      </trkpt>
      <trkpt lat="45.25611" lon="5.02775">
        <ele>250.97</ele>
        <time>2017-02-25T14:56:58Z</time>
      </trkpt>
      <trkpt lat="45.25611" lon="5.02775">
        <ele>250.97</ele>
        <time>2017-02-25T14:56:59Z</time>
      </trkpt>
      <trkpt lat="45.25611" lon="5.02775">
        <ele>250.97</ele>
        <time>2017-02-25T14:57:00Z</time>
      </trkpt>
      <trkpt lat="45.25611" lon="5.02775">
        <ele>250.97</ele>
        <time>2017-02-25T14:57:01Z</time>
      </trkpt>
      <trkpt lat="45.25611" lon="5.02775">
        <ele>250.97</ele>
        <time>2017-02-25T14:57:02Z</time>
      </trkpt>
      <trkpt lat="45.25611" lon="5.02775">
        <ele>250.97</ele>
        <time>2017-02-25T14:57:03Z</time>
      </trkpt>
      <trkpt lat="45.25611" lon="5.02775">
        <ele>250.97</ele>
        <time>2017-02-25T14:57:04Z</time>
      </trkpt>
      <trkpt lat="45.25611" lon="5.02775">
        <ele>250.97</ele>
        <time>2017-02-25T14:57:05Z</time>
      </trkpt>
      <trkpt lat="45.25611" lon="5.02775">
        <ele>250.97</ele>
        <time>2017-02-25T14:57:06Z</time>
      </trkpt>
      <trkpt lat="45.25611" lon="5.02775">
        <ele>250.97</ele>
        <time>2017-02-25T14:57:07Z</time>
      </trkpt>
      <trkpt lat="45.25611" lon="5.02775">
        <ele>250.97</ele>
        <time>2017-02-25T14:57:08Z</time>
      </trkpt>
      <trkpt lat="45.25611" lon="5.02775">
        <ele>250.97</ele>
        <time>2017-02-25T14:57:09Z</time>
      </trkpt>
      <trkpt lat="45.25611" lon="5.02775">
        <ele>250.97</ele>
        <time>2017-02-25T14:57:10Z</time>
      </trkpt>
      <trkpt lat="45.25611" lon="5.02775">
        <ele>250.97</ele>
        <time>2017-02-25T14:57:11Z</time>
      </trkpt>
      <trkpt lat="45.25611" lon="5.02775">
        <ele>250.97</ele>
        <time>2017-02-25T14:57:12Z</time>
      </trkpt>
      <trkpt lat="45.25611" lon="5.02775">
        <ele>250.97</ele>
        <time>2017-02-25T14:57:13Z</time>
      </trkpt>
      <trkpt lat="45.25611" lon="5.02775">
        <ele>250.97</ele>
        <time>2017-02-25T14:57:14Z</time>
      </trkpt>
      <trkpt lat="45.25611" lon="5.02775">
        <ele>250.97</ele>
        <time>2017-02-25T14:57:15Z</time>
      </trkpt>
      <trkpt lat="45.25611" lon="5.02775">
        <ele>250.97</ele>
        <time>2017-02-25T14:57:16Z</time>
      </trkpt>
      <trkpt lat="45.25611" lon="5.02775">
        <ele>250.97</ele>
        <time>2017-02-25T14:57:17Z</time>
      </trkpt>
      <trkpt lat="45.25607" lon="5.02787">
        <ele>248.81</ele>
        <time>2017-02-25T14:57:18Z</time>
      </trkpt>
      <trkpt lat="45.25607" lon="5.02787">
        <ele>248.38</ele>
        <time>2017-02-25T14:57:19Z</time>
      </trkpt>
      <trkpt lat="45.25607" lon="5.02787">
        <ele>248.29</ele>
        <time>2017-02-25T14:57:20Z</time>
      </trkpt>
      <trkpt lat="45.25607" lon="5.02787">
        <ele>248.11</ele>
        <time>2017-02-25T14:57:21Z</time>
      </trkpt>
      <trkpt lat="45.25607" lon="5.02787">
        <ele>248.08</ele>
        <time>2017-02-25T14:57:22Z</time>
      </trkpt>
      <trkpt lat="45.25607" lon="5.02787">
        <ele>248.07</ele>
        <time>2017-02-25T14:57:23Z</time>
      </trkpt>
      <trkpt lat="45.25607" lon="5.02787">
        <ele>248.07</ele>
        <time>2017-02-25T14:57:24Z</time>
      </trkpt>
      <trkpt lat="45.25607" lon="5.02787">
        <ele>248.07</ele>
        <time>2017-02-25T14:57:25Z</time>
      </trkpt>
      <trkpt lat="45.25607" lon="5.02787">
        <ele>248.07</ele>
        <time>2017-02-25T14:57:26Z</time>
      </trkpt>
      <trkpt lat="45.25607" lon="5.02787">
        <ele>248.07</ele>
        <time>2017-02-25T14:57:27Z</time>
      </trkpt>
      <trkpt lat="45.25607" lon="5.02787">
        <ele>248.07</ele>
        <time>2017-02-25T14:57:28Z</time>
      </trkpt>
      <trkpt lat="45.25607" lon="5.02787">
        <ele>248.07</ele>
        <time>2017-02-25T14:57:29Z</time>
      </trkpt>
      <trkpt lat="45.25607" lon="5.02787">
        <ele>248.07</ele>
        <time>2017-02-25T14:57:30Z</time>
      </trkpt>
      <trkpt lat="45.25607" lon="5.02787">
        <ele>248.07</ele>
        <time>2017-02-25T14:57:31Z</time>
      </trkpt>
      <trkpt lat="45.25607" lon="5.02787">
        <ele>248.07</ele>
        <time>2017-02-25T14:57:32Z</time>
      </trkpt>
      <trkpt lat="45.25607" lon="5.02787">
        <ele>248.07</ele>
        <time>2017-02-25T14:57:33Z</time>
      </trkpt>
      <trkpt lat="45.25607" lon="5.02787">
        <ele>248.07</ele>
        <time>2017-02-25T14:57:34Z</time>
      </trkpt>
      <trkpt lat="45.25607" lon="5.02787">
        <ele>248.07</ele>
        <time>2017-02-25T14:57:35Z</time>
      </trkpt>
      <trkpt lat="45.25607" lon="5.02787">
        <ele>248.07</ele>
        <time>2017-02-25T14:57:36Z</time>
      </trkpt>
      <trkpt lat="45.25607" lon="5.02787">
        <ele>248.07</ele>
        <time>2017-02-25T14:57:37Z</time>
      </trkpt>
      <trkpt lat="45.25607" lon="5.02787">
        <ele>248.07</ele>
        <time>2017-02-25T14:57:38Z</time>
      </trkpt>
      <trkpt lat="45.25607" lon="5.02787">
        <ele>248.07</ele>
        <time>2017-02-25T14:57:39Z</time>
      </trkpt>
      <trkpt lat="45.25607" lon="5.02787">
        <ele>248.07</ele>
        <time>2017-02-25T14:57:40Z</time>
      </trkpt>
      <trkpt lat="45.25607" lon="5.02787">
        <ele>248.07</ele>
        <time>2017-02-25T14:57:41Z</time>
      </trkpt>
      <trkpt lat="45.25607" lon="5.02787">
        <ele>248.07</ele>
        <time>2017-02-25T14:57:42Z</time>
      </trkpt>
      <trkpt lat="45.25607" lon="5.02787">
        <ele>248.07</ele>
        <time>2017-02-25T14:57:43Z</time>
      </trkpt>
      <trkpt lat="45.25607" lon="5.02787">
        <ele>248.07</ele>
        <time>2017-02-25T14:57:44Z</time>
      </trkpt>
      <trkpt lat="45.25607" lon="5.02787">
        <ele>248.07</ele>
        <time>2017-02-25T14:57:47Z</time>
      </trkpt>
      <trkpt lat="45.25607" lon="5.02787">
        <ele>248.07</ele>
        <time>2017-02-25T14:57:48Z</time>
      </trkpt>
      <trkpt lat="45.25607" lon="5.02787">
        <ele>248.07</ele>
        <time>2017-02-25T14:57:49Z</time>
      </trkpt>
      <trkpt lat="45.25607" lon="5.02787">
        <ele>248.07</ele>
        <time>2017-02-25T14:57:50Z</time>
      </trkpt>
      <trkpt lat="45.25607" lon="5.02787">
        <ele>248.07</ele>
        <time>2017-02-25T14:57:51Z</time>
      </trkpt>
      <trkpt lat="45.25607" lon="5.02787">
        <ele>248.07</ele>
        <time>2017-02-25T14:57:52Z</time>
      </trkpt>
      <trkpt lat="45.25607" lon="5.02787">
        <ele>248.07</ele>
        <time>2017-02-25T14:57:53Z</time>
      </trkpt>
      <trkpt lat="45.25607" lon="5.02787">
        <ele>248.07</ele>
        <time>2017-02-25T14:57:54Z</time>
      </trkpt>
      <trkpt lat="45.25607" lon="5.02787">
        <ele>248.07</ele>
        <time>2017-02-25T14:57:55Z</time>
      </trkpt>
      <trkpt lat="45.25607" lon="5.02787">
        <ele>248.07</ele>
        <time>2017-02-25T14:57:56Z</time>
      </trkpt>
      <trkpt lat="45.25607" lon="5.02787">
        <ele>248.07</ele>
        <time>2017-02-25T14:57:57Z</time>
      </trkpt>
      <trkpt lat="45.25607" lon="5.02787">
        <ele>248.07</ele>
        <time>2017-02-25T14:57:58Z</time>
      </trkpt>
      <trkpt lat="45.25607" lon="5.02787">
        <ele>248.07</ele>
        <time>2017-02-25T14:57:59Z</time>
      </trkpt>
      <trkpt lat="45.25607" lon="5.02787">
        <ele>248.07</ele>
        <time>2017-02-25T14:58:00Z</time>
      </trkpt>
      <trkpt lat="45.25607" lon="5.02787">
        <ele>248.07</ele>
        <time>2017-02-25T14:58:01Z</time>
      </trkpt>
      <trkpt lat="45.25607" lon="5.02787">
        <ele>248.07</ele>
        <time>2017-02-25T14:58:02Z</time>
      </trkpt>
      <trkpt lat="45.25607" lon="5.02787">
        <ele>248.07</ele>
        <time>2017-02-25T14:58:03Z</time>
      </trkpt>
      <trkpt lat="45.25607" lon="5.02787">
        <ele>248.07</ele>
        <time>2017-02-25T14:58:04Z</time>
      </trkpt>
      <trkpt lat="45.25607" lon="5.02787">
        <ele>248.07</ele>
        <time>2017-02-25T14:58:05Z</time>
      </trkpt>
      <trkpt lat="45.25607" lon="5.02787">
        <ele>248.07</ele>
        <time>2017-02-25T14:58:06Z</time>
      </trkpt>
      <trkpt lat="45.25607" lon="5.02787">
        <ele>248.07</ele>
        <time>2017-02-25T14:58:07Z</time>
      </trkpt>
      <trkpt lat="45.25607" lon="5.02787">
        <ele>248.07</ele>
        <time>2017-02-25T14:58:08Z</time>
      </trkpt>
      <trkpt lat="45.25607" lon="5.02787">
        <ele>248.07</ele>
        <time>2017-02-25T14:58:09Z</time>
      </trkpt>
      <trkpt lat="45.25607" lon="5.02787">
        <ele>248.07</ele>
        <time>2017-02-25T14:58:10Z</time>
      </trkpt>
      <trkpt lat="45.25607" lon="5.02787">
        <ele>248.07</ele>
        <time>2017-02-25T14:58:11Z</time>
      </trkpt>
      <trkpt lat="45.25607" lon="5.02787">
        <ele>248.07</ele>
        <time>2017-02-25T14:58:12Z</time>
      </trkpt>
      <trkpt lat="45.25607" lon="5.02787">
        <ele>248.07</ele>
        <time>2017-02-25T14:58:13Z</time>
      </trkpt>
      <trkpt lat="45.25607" lon="5.02787">
        <ele>248.07</ele>
        <time>2017-02-25T14:58:14Z</time>
      </trkpt>
      <trkpt lat="45.25607" lon="5.02787">
        <ele>248.07</ele>
        <time>2017-02-25T14:58:15Z</time>
      </trkpt>
      <trkpt lat="45.25607" lon="5.02787">
        <ele>248.07</ele>
        <time>2017-02-25T14:58:16Z</time>
      </trkpt>
      <trkpt lat="45.25607" lon="5.02787">
        <ele>248.07</ele>
        <time>2017-02-25T14:58:17Z</time>
      </trkpt>
      <trkpt lat="45.25607" lon="5.02787">
        <ele>248.07</ele>
        <time>2017-02-25T14:58:18Z</time>
      </trkpt>
      <trkpt lat="45.25607" lon="5.02787">
        <ele>248.07</ele>
        <time>2017-02-25T14:58:19Z</time>
      </trkpt>
      <trkpt lat="45.25607" lon="5.02787">
        <ele>248.07</ele>
        <time>2017-02-25T14:58:20Z</time>
      </trkpt>
      <trkpt lat="45.25607" lon="5.02787">
        <ele>248.07</ele>
        <time>2017-02-25T14:58:21Z</time>
      </trkpt>
      <trkpt lat="45.25607" lon="5.02787">
        <ele>248.07</ele>
        <time>2017-02-25T14:58:22Z</time>
      </trkpt>
      <trkpt lat="45.25607" lon="5.02787">
        <ele>248.07</ele>
        <time>2017-02-25T14:58:23Z</time>
      </trkpt>
      <trkpt lat="45.25607" lon="5.02787">
        <ele>248.07</ele>
        <time>2017-02-25T14:58:24Z</time>
      </trkpt>
      <trkpt lat="45.25607" lon="5.02787">
        <ele>248.07</ele>
        <time>2017-02-25T14:58:25Z</time>
      </trkpt>
      <trkpt lat="45.25607" lon="5.02787">
        <ele>248.07</ele>
        <time>2017-02-25T14:58:26Z</time>
      </trkpt>
      <trkpt lat="45.25607" lon="5.02787">
        <ele>248.07</ele>
        <time>2017-02-25T14:58:27Z</time>
      </trkpt>
      <trkpt lat="45.25607" lon="5.02787">
        <ele>248.07</ele>
        <time>2017-02-25T14:58:28Z</time>
      </trkpt>
      <trkpt lat="45.25607" lon="5.02787">
        <ele>248.07</ele>
        <time>2017-02-25T14:58:29Z</time>
      </trkpt>
      <trkpt lat="45.25607" lon="5.02787">
        <ele>248.07</ele>
        <time>2017-02-25T14:58:30Z</time>
      </trkpt>
      <trkpt lat="45.25607" lon="5.02787">
        <ele>248.07</ele>
        <time>2017-02-25T14:58:31Z</time>
      </trkpt>
      <trkpt lat="45.25607" lon="5.02787">
        <ele>248.07</ele>
        <time>2017-02-25T14:58:32Z</time>
      </trkpt>
      <trkpt lat="45.25607" lon="5.02787">
        <ele>248.07</ele>
        <time>2017-02-25T14:58:33Z</time>
      </trkpt>
      <trkpt lat="45.25607" lon="5.02787">
        <ele>248.07</ele>
        <time>2017-02-25T14:58:34Z</time>
      </trkpt>
      <trkpt lat="45.25607" lon="5.02787">
        <ele>248.07</ele>
        <time>2017-02-25T14:58:35Z</time>
      </trkpt>
      <trkpt lat="45.25607" lon="5.02787">
        <ele>248.07</ele>
        <time>2017-02-25T14:58:36Z</time>
      </trkpt>
      <trkpt lat="45.25607" lon="5.02787">
        <ele>248.07</ele>
        <time>2017-02-25T14:58:37Z</time>
      </trkpt>
      <trkpt lat="45.25607" lon="5.02787">
        <ele>248.07</ele>
        <time>2017-02-25T14:58:38Z</time>
      </trkpt>
      <trkpt lat="45.25607" lon="5.02787">
        <ele>248.07</ele>
        <time>2017-02-25T14:58:39Z</time>
      </trkpt>
      <trkpt lat="45.25607" lon="5.02787">
        <ele>248.07</ele>
        <time>2017-02-25T14:58:40Z</time>
      </trkpt>
      <trkpt lat="45.25607" lon="5.02787">
        <ele>248.07</ele>
        <time>2017-02-25T14:58:41Z</time>
      </trkpt>
      <trkpt lat="45.25607" lon="5.02787">
        <ele>248.07</ele>
        <time>2017-02-25T14:58:42Z</time>
      </trkpt>
      <trkpt lat="45.25607" lon="5.02787">
        <ele>248.07</ele>
        <time>2017-02-25T14:58:43Z</time>
      </trkpt>
      <trkpt lat="45.25607" lon="5.02787">
        <ele>248.07</ele>
        <time>2017-02-25T14:58:44Z</time>
      </trkpt>
      <trkpt lat="45.25607" lon="5.02787">
        <ele>248.07</ele>
        <time>2017-02-25T14:58:45Z</time>
      </trkpt>
      <trkpt lat="45.25607" lon="5.02787">
        <ele>248.07</ele>
        <time>2017-02-25T14:58:46Z</time>
      </trkpt>
      <trkpt lat="45.25607" lon="5.02787">
        <ele>248.07</ele>
        <time>2017-02-25T14:58:47Z</time>
      </trkpt>
      <trkpt lat="45.25607" lon="5.02787">
        <ele>248.07</ele>
        <time>2017-02-25T14:58:48Z</time>
      </trkpt>
      <trkpt lat="45.25607" lon="5.02787">
        <ele>248.07</ele>
        <time>2017-02-25T14:58:49Z</time>
      </trkpt>
      <trkpt lat="45.25607" lon="5.02787">
        <ele>248.07</ele>
        <time>2017-02-25T14:58:50Z</time>
      </trkpt>
      <trkpt lat="45.25607" lon="5.02787">
        <ele>248.07</ele>
        <time>2017-02-25T14:58:51Z</time>
      </trkpt>
      <trkpt lat="45.25607" lon="5.02787">
        <ele>248.07</ele>
        <time>2017-02-25T14:58:52Z</time>
      </trkpt>
      <trkpt lat="45.25607" lon="5.02787">
        <ele>248.07</ele>
        <time>2017-02-25T14:58:53Z</time>
      </trkpt>
      <trkpt lat="45.25607" lon="5.02787">
        <ele>248.07</ele>
        <time>2017-02-25T14:58:54Z</time>
      </trkpt>
      <trkpt lat="45.25607" lon="5.02787">
        <ele>248.07</ele>
        <time>2017-02-25T14:58:55Z</time>
      </trkpt>
      <trkpt lat="45.25607" lon="5.02787">
        <ele>248.07</ele>
        <time>2017-02-25T14:58:56Z</time>
      </trkpt>
      <trkpt lat="45.25607" lon="5.02787">
        <ele>248.07</ele>
        <time>2017-02-25T14:58:57Z</time>
      </trkpt>
      <trkpt lat="45.25607" lon="5.02787">
        <ele>248.07</ele>
        <time>2017-02-25T14:58:58Z</time>
      </trkpt>
      <trkpt lat="45.25607" lon="5.02787">
        <ele>248.07</ele>
        <time>2017-02-25T14:58:59Z</time>
      </trkpt>
      <trkpt lat="45.25607" lon="5.02787">
        <ele>248.07</ele>
        <time>2017-02-25T14:59:00Z</time>
      </trkpt>
      <trkpt lat="45.25607" lon="5.02787">
        <ele>248.07</ele>
        <time>2017-02-25T14:59:01Z</time>
      </trkpt>
      <trkpt lat="45.25607" lon="5.02787">
        <ele>248.07</ele>
        <time>2017-02-25T14:59:02Z</time>
      </trkpt>
      <trkpt lat="45.25607" lon="5.02787">
        <ele>248.07</ele>
        <time>2017-02-25T14:59:03Z</time>
      </trkpt>
      <trkpt lat="45.25607" lon="5.02787">
        <ele>248.07</ele>
        <time>2017-02-25T14:59:04Z</time>
      </trkpt>
      <trkpt lat="45.25607" lon="5.02787">
        <ele>248.07</ele>
        <time>2017-02-25T14:59:05Z</time>
      </trkpt>
      <trkpt lat="45.25607" lon="5.02787">
        <ele>248.07</ele>
        <time>2017-02-25T14:59:06Z</time>
      </trkpt>
      <trkpt lat="45.25607" lon="5.02787">
        <ele>248.07</ele>
        <time>2017-02-25T14:59:07Z</time>
      </trkpt>
      <trkpt lat="45.25607" lon="5.02787">
        <ele>248.07</ele>
        <time>2017-02-25T14:59:08Z</time>
      </trkpt>
      <trkpt lat="45.25607" lon="5.02787">
        <ele>248.07</ele>
        <time>2017-02-25T14:59:09Z</time>
      </trkpt>
      <trkpt lat="45.25607" lon="5.02787">
        <ele>248.07</ele>
        <time>2017-02-25T14:59:10Z</time>
      </trkpt>
      <trkpt lat="45.25607" lon="5.02787">
        <ele>248.07</ele>
        <time>2017-02-25T14:59:11Z</time>
      </trkpt>
      <trkpt lat="45.25607" lon="5.02787">
        <ele>248.07</ele>
        <time>2017-02-25T14:59:12Z</time>
      </trkpt>
      <trkpt lat="45.25607" lon="5.02787">
        <ele>248.07</ele>
        <time>2017-02-25T14:59:13Z</time>
      </trkpt>
      <trkpt lat="45.25607" lon="5.02787">
        <ele>248.07</ele>
        <time>2017-02-25T14:59:14Z</time>
      </trkpt>
      <trkpt lat="45.25607" lon="5.02787">
        <ele>248.07</ele>
        <time>2017-02-25T14:59:15Z</time>
      </trkpt>
      <trkpt lat="45.25607" lon="5.02787">
        <ele>248.07</ele>
        <time>2017-02-25T14:59:16Z</time>
      </trkpt>
      <trkpt lat="45.25607" lon="5.02787">
        <ele>248.07</ele>
        <time>2017-02-25T14:59:17Z</time>
      </trkpt>
      <trkpt lat="45.25607" lon="5.02787">
        <ele>248.07</ele>
        <time>2017-02-25T14:59:18Z</time>
      </trkpt>
      <trkpt lat="45.25607" lon="5.02787">
        <ele>248.07</ele>
        <time>2017-02-25T14:59:19Z</time>
      </trkpt>
      <trkpt lat="45.25607" lon="5.02787">
        <ele>248.07</ele>
        <time>2017-02-25T14:59:20Z</time>
      </trkpt>
      <trkpt lat="45.25607" lon="5.02787">
        <ele>248.07</ele>
        <time>2017-02-25T14:59:21Z</time>
      </trkpt>
      <trkpt lat="45.25607" lon="5.02787">
        <ele>248.07</ele>
        <time>2017-02-25T14:59:22Z</time>
      </trkpt>
      <trkpt lat="45.25607" lon="5.02787">
        <ele>248.07</ele>
        <time>2017-02-25T14:59:23Z</time>
      </trkpt>
      <trkpt lat="45.25607" lon="5.02787">
        <ele>248.07</ele>
        <time>2017-02-25T14:59:24Z</time>
      </trkpt>
      <trkpt lat="45.25607" lon="5.02787">
        <ele>248.07</ele>
        <time>2017-02-25T14:59:25Z</time>
      </trkpt>
      <trkpt lat="45.25607" lon="5.02787">
        <ele>248.07</ele>
        <time>2017-02-25T14:59:26Z</time>
      </trkpt>
      <trkpt lat="45.25607" lon="5.02787">
        <ele>248.07</ele>
        <time>2017-02-25T14:59:27Z</time>
      </trkpt>
      <trkpt lat="45.25607" lon="5.02787">
        <ele>248.07</ele>
        <time>2017-02-25T14:59:28Z</time>
      </trkpt>
      <trkpt lat="45.25607" lon="5.02787">
        <ele>248.07</ele>
        <time>2017-02-25T14:59:29Z</time>
      </trkpt>
      <trkpt lat="45.25607" lon="5.02787">
        <ele>248.07</ele>
        <time>2017-02-25T14:59:30Z</time>
      </trkpt>
      <trkpt lat="45.25607" lon="5.02787">
        <ele>248.07</ele>
        <time>2017-02-25T14:59:31Z</time>
      </trkpt>
      <trkpt lat="45.25607" lon="5.02787">
        <ele>248.07</ele>
        <time>2017-02-25T14:59:32Z</time>
      </trkpt>
      <trkpt lat="45.25607" lon="5.02787">
        <ele>248.07</ele>
        <time>2017-02-25T14:59:33Z</time>
      </trkpt>
      <trkpt lat="45.25607" lon="5.02787">
        <ele>248.07</ele>
        <time>2017-02-25T14:59:34Z</time>
      </trkpt>
      <trkpt lat="45.25607" lon="5.02787">
        <ele>248.07</ele>
        <time>2017-02-25T14:59:35Z</time>
      </trkpt>
      <trkpt lat="45.25607" lon="5.02787">
        <ele>248.07</ele>
        <time>2017-02-25T14:59:36Z</time>
      </trkpt>
      <trkpt lat="45.25607" lon="5.02787">
        <ele>248.07</ele>
        <time>2017-02-25T14:59:37Z</time>
      </trkpt>
      <trkpt lat="45.25607" lon="5.02787">
        <ele>248.07</ele>
        <time>2017-02-25T14:59:38Z</time>
      </trkpt>
      <trkpt lat="45.25607" lon="5.02787">
        <ele>248.07</ele>
        <time>2017-02-25T14:59:39Z</time>
      </trkpt>
      <trkpt lat="45.25607" lon="5.02787">
        <ele>248.07</ele>
        <time>2017-02-25T14:59:40Z</time>
      </trkpt>
      <trkpt lat="45.25607" lon="5.02787">
        <ele>248.07</ele>
        <time>2017-02-25T14:59:41Z</time>
      </trkpt>
      <trkpt lat="45.25607" lon="5.02787">
        <ele>248.07</ele>
        <time>2017-02-25T14:59:42Z</time>
      </trkpt>
      <trkpt lat="45.25607" lon="5.02787">
        <ele>248.07</ele>
        <time>2017-02-25T14:59:43Z</time>
      </trkpt>
      <trkpt lat="45.25607" lon="5.02787">
        <ele>248.07</ele>
        <time>2017-02-25T14:59:44Z</time>
      </trkpt>
      <trkpt lat="45.25607" lon="5.02787">
        <ele>248.07</ele>
        <time>2017-02-25T14:59:45Z</time>
      </trkpt>
      <trkpt lat="45.25607" lon="5.02787">
        <ele>248.07</ele>
        <time>2017-02-25T14:59:46Z</time>
      </trkpt>
      <trkpt lat="45.25607" lon="5.02787">
        <ele>248.07</ele>
        <time>2017-02-25T14:59:47Z</time>
      </trkpt>
      <trkpt lat="45.25607" lon="5.02787">
        <ele>248.07</ele>
        <time>2017-02-25T14:59:48Z</time>
      </trkpt>
      <trkpt lat="45.25607" lon="5.02787">
        <ele>248.07</ele>
        <time>2017-02-25T14:59:49Z</time>
      </trkpt>
      <trkpt lat="45.25607" lon="5.02787">
        <ele>248.07</ele>
        <time>2017-02-25T14:59:50Z</time>
      </trkpt>
      <trkpt lat="45.25607" lon="5.02787">
        <ele>248.07</ele>
        <time>2017-02-25T14:59:51Z</time>
      </trkpt>
      <trkpt lat="45.25607" lon="5.02787">
        <ele>248.07</ele>
        <time>2017-02-25T14:59:52Z</time>
      </trkpt>
      <trkpt lat="45.25607" lon="5.02787">
        <ele>248.07</ele>
        <time>2017-02-25T14:59:53Z</time>
      </trkpt>
      <trkpt lat="45.25607" lon="5.02787">
        <ele>248.07</ele>
        <time>2017-02-25T14:59:54Z</time>
      </trkpt>
      <trkpt lat="45.25607" lon="5.02787">
        <ele>248.07</ele>
        <time>2017-02-25T14:59:55Z</time>
      </trkpt>
      <trkpt lat="45.25607" lon="5.02787">
        <ele>248.07</ele>
        <time>2017-02-25T14:59:56Z</time>
      </trkpt>
      <trkpt lat="45.25607" lon="5.02787">
        <ele>248.07</ele>
        <time>2017-02-25T14:59:57Z</time>
      </trkpt>
      <trkpt lat="45.25607" lon="5.02787">
        <ele>248.07</ele>
        <time>2017-02-25T14:59:58Z</time>
      </trkpt>
      <trkpt lat="45.25607" lon="5.02787">
        <ele>248.07</ele>
        <time>2017-02-25T14:59:59Z</time>
      </trkpt>
      <trkpt lat="45.25607" lon="5.02787">
        <ele>248.07</ele>
        <time>2017-02-25T15:00:00Z</time>
      </trkpt>
      <trkpt lat="45.25607" lon="5.02787">
        <ele>248.07</ele>
        <time>2017-02-25T15:00:01Z</time>
      </trkpt>
      <trkpt lat="45.25607" lon="5.02787">
        <ele>248.07</ele>
        <time>2017-02-25T15:00:02Z</time>
      </trkpt>
      <trkpt lat="45.25607" lon="5.02787">
        <ele>248.07</ele>
        <time>2017-02-25T15:00:03Z</time>
      </trkpt>
      <trkpt lat="45.25607" lon="5.02787">
        <ele>248.07</ele>
        <time>2017-02-25T15:00:04Z</time>
      </trkpt>
      <trkpt lat="45.25607" lon="5.02787">
        <ele>248.07</ele>
        <time>2017-02-25T15:00:05Z</time>
      </trkpt>
      <trkpt lat="45.25607" lon="5.02787">
        <ele>248.07</ele>
        <time>2017-02-25T15:00:06Z</time>
      </trkpt>
      <trkpt lat="45.25607" lon="5.02787">
        <ele>248.07</ele>
        <time>2017-02-25T15:00:07Z</time>
      </trkpt>
      <trkpt lat="45.25607" lon="5.02787">
        <ele>248.07</ele>
        <time>2017-02-25T15:00:08Z</time>
      </trkpt>
      <trkpt lat="45.25607" lon="5.02787">
        <ele>248.07</ele>
        <time>2017-02-25T15:00:09Z</time>
      </trkpt>
      <trkpt lat="45.25607" lon="5.02787">
        <ele>248.07</ele>
        <time>2017-02-25T15:00:10Z</time>
      </trkpt>
      <trkpt lat="45.25607" lon="5.02787">
        <ele>248.07</ele>
        <time>2017-02-25T15:00:11Z</time>
      </trkpt>
      <trkpt lat="45.25607" lon="5.02787">
        <ele>248.07</ele>
        <time>2017-02-25T15:00:12Z</time>
      </trkpt>
      <trkpt lat="45.25607" lon="5.02787">
        <ele>248.07</ele>
        <time>2017-02-25T15:00:13Z</time>
      </trkpt>
      <trkpt lat="45.25607" lon="5.02787">
        <ele>248.07</ele>
        <time>2017-02-25T15:00:14Z</time>
      </trkpt>
      <trkpt lat="45.25607" lon="5.02787">
        <ele>248.07</ele>
        <time>2017-02-25T15:00:15Z</time>
      </trkpt>
      <trkpt lat="45.25607" lon="5.02787">
        <ele>248.07</ele>
        <time>2017-02-25T15:00:16Z</time>
      </trkpt>
      <trkpt lat="45.25607" lon="5.02787">
        <ele>248.07</ele>
        <time>2017-02-25T15:00:17Z</time>
      </trkpt>
      <trkpt lat="45.25607" lon="5.02787">
        <ele>248.07</ele>
        <time>2017-02-25T15:00:18Z</time>
      </trkpt>
      <trkpt lat="45.25607" lon="5.02787">
        <ele>248.07</ele>
        <time>2017-02-25T15:00:19Z</time>
      </trkpt>
      <trkpt lat="45.25607" lon="5.02787">
        <ele>248.07</ele>
        <time>2017-02-25T15:00:20Z</time>
      </trkpt>
      <trkpt lat="45.25607" lon="5.02787">
        <ele>248.07</ele>
        <time>2017-02-25T15:00:21Z</time>
      </trkpt>
      <trkpt lat="45.25607" lon="5.02787">
        <ele>248.07</ele>
        <time>2017-02-25T15:00:22Z</time>
      </trkpt>
      <trkpt lat="45.25607" lon="5.02787">
        <ele>248.07</ele>
        <time>2017-02-25T15:00:23Z</time>
      </trkpt>
      <trkpt lat="45.25607" lon="5.02787">
        <ele>248.07</ele>
        <time>2017-02-25T15:00:24Z</time>
      </trkpt>
      <trkpt lat="45.25607" lon="5.02787">
        <ele>248.07</ele>
        <time>2017-02-25T15:00:25Z</time>
      </trkpt>
      <trkpt lat="45.25607" lon="5.02787">
        <ele>248.07</ele>
        <time>2017-02-25T15:00:26Z</time>
      </trkpt>
      <trkpt lat="45.25607" lon="5.02787">
        <ele>248.07</ele>
        <time>2017-02-25T15:00:27Z</time>
      </trkpt>
      <trkpt lat="45.25607" lon="5.02787">
        <ele>248.07</ele>
        <time>2017-02-25T15:00:28Z</time>
      </trkpt>
      <trkpt lat="45.25607" lon="5.02787">
        <ele>248.07</ele>
        <time>2017-02-25T15:00:29Z</time>
      </trkpt>
      <trkpt lat="45.25607" lon="5.02787">
        <ele>248.07</ele>
        <time>2017-02-25T15:00:30Z</time>
      </trkpt>
      <trkpt lat="45.25607" lon="5.02787">
        <ele>248.07</ele>
        <time>2017-02-25T15:00:31Z</time>
      </trkpt>
      <trkpt lat="45.25607" lon="5.02787">
        <ele>248.07</ele>
        <time>2017-02-25T15:00:32Z</time>
      </trkpt>
      <trkpt lat="45.25607" lon="5.02787">
        <ele>248.07</ele>
        <time>2017-02-25T15:00:33Z</time>
      </trkpt>
      <trkpt lat="45.25607" lon="5.02787">
        <ele>248.07</ele>
        <time>2017-02-25T15:00:34Z</time>
      </trkpt>
      <trkpt lat="45.25607" lon="5.02787">
        <ele>248.07</ele>
        <time>2017-02-25T15:00:35Z</time>
      </trkpt>
      <trkpt lat="45.25607" lon="5.02787">
        <ele>248.07</ele>
        <time>2017-02-25T15:00:36Z</time>
      </trkpt>
      <trkpt lat="45.25607" lon="5.02787">
        <ele>248.07</ele>
        <time>2017-02-25T15:00:37Z</time>
      </trkpt>
      <trkpt lat="45.25607" lon="5.02787">
        <ele>248.07</ele>
        <time>2017-02-25T15:00:38Z</time>
      </trkpt>
      <trkpt lat="45.25607" lon="5.02787">
        <ele>248.07</ele>
        <time>2017-02-25T15:00:39Z</time>
      </trkpt>
      <trkpt lat="45.25607" lon="5.02787">
        <ele>248.07</ele>
        <time>2017-02-25T15:00:40Z</time>
      </trkpt>
      <trkpt lat="45.25607" lon="5.02787">
        <ele>248.07</ele>
        <time>2017-02-25T15:00:41Z</time>
      </trkpt>
      <trkpt lat="45.25607" lon="5.02787">
        <ele>248.07</ele>
        <time>2017-02-25T15:00:42Z</time>
      </trkpt>
      <trkpt lat="45.25607" lon="5.02787">
        <ele>248.07</ele>
        <time>2017-02-25T15:00:43Z</time>
      </trkpt>
      <trkpt lat="45.25607" lon="5.02787">
        <ele>248.07</ele>
        <time>2017-02-25T15:00:44Z</time>
      </trkpt>
      <trkpt lat="45.25607" lon="5.02787">
        <ele>248.07</ele>
        <time>2017-02-25T15:00:45Z</time>
      </trkpt>
      <trkpt lat="45.25607" lon="5.02787">
        <ele>248.07</ele>
        <time>2017-02-25T15:00:46Z</time>
      </trkpt>
      <trkpt lat="45.25607" lon="5.02787">
        <ele>248.07</ele>
        <time>2017-02-25T15:00:47Z</time>
      </trkpt>
      <trkpt lat="45.25607" lon="5.02787">
        <ele>248.07</ele>
        <time>2017-02-25T15:00:48Z</time>
      </trkpt>
      <trkpt lat="45.25607" lon="5.02787">
        <ele>248.07</ele>
        <time>2017-02-25T15:00:49Z</time>
      </trkpt>
      <trkpt lat="45.25607" lon="5.02787">
        <ele>248.07</ele>
        <time>2017-02-25T15:00:50Z</time>
      </trkpt>
      <trkpt lat="45.25607" lon="5.02787">
        <ele>248.07</ele>
        <time>2017-02-25T15:00:51Z</time>
      </trkpt>
      <trkpt lat="45.25607" lon="5.02787">
        <ele>248.07</ele>
        <time>2017-02-25T15:00:52Z</time>
      </trkpt>
      <trkpt lat="45.25607" lon="5.02787">
        <ele>248.07</ele>
        <time>2017-02-25T15:00:53Z</time>
      </trkpt>
      <trkpt lat="45.25607" lon="5.02787">
        <ele>248.07</ele>
        <time>2017-02-25T15:00:54Z</time>
      </trkpt>
      <trkpt lat="45.25607" lon="5.02787">
        <ele>248.07</ele>
        <time>2017-02-25T15:00:55Z</time>
      </trkpt>
      <trkpt lat="45.25607" lon="5.02787">
        <ele>248.07</ele>
        <time>2017-02-25T15:00:56Z</time>
      </trkpt>
      <trkpt lat="45.25607" lon="5.02787">
        <ele>248.07</ele>
        <time>2017-02-25T15:00:57Z</time>
      </trkpt>
      <trkpt lat="45.25607" lon="5.02787">
        <ele>248.07</ele>
        <time>2017-02-25T15:00:58Z</time>
      </trkpt>
      <trkpt lat="45.25607" lon="5.02787">
        <ele>248.07</ele>
        <time>2017-02-25T15:00:59Z</time>
      </trkpt>
      <trkpt lat="45.25607" lon="5.02787">
        <ele>248.07</ele>
        <time>2017-02-25T15:01:00Z</time>
      </trkpt>
      <trkpt lat="45.25607" lon="5.02787">
        <ele>248.07</ele>
        <time>2017-02-25T15:01:01Z</time>
      </trkpt>
      <trkpt lat="45.25607" lon="5.02787">
        <ele>248.07</ele>
        <time>2017-02-25T15:01:02Z</time>
      </trkpt>
      <trkpt lat="45.25607" lon="5.02787">
        <ele>248.07</ele>
        <time>2017-02-25T15:01:03Z</time>
      </trkpt>
      <trkpt lat="45.25607" lon="5.02787">
        <ele>248.07</ele>
        <time>2017-02-25T15:01:04Z</time>
      </trkpt>
      <trkpt lat="45.25607" lon="5.02787">
        <ele>248.07</ele>
        <time>2017-02-25T15:01:05Z</time>
      </trkpt>
      <trkpt lat="45.25607" lon="5.02787">
        <ele>248.07</ele>
        <time>2017-02-25T15:01:06Z</time>
      </trkpt>
      <trkpt lat="45.25607" lon="5.02787">
        <ele>248.07</ele>
        <time>2017-02-25T15:01:07Z</time>
      </trkpt>
      <trkpt lat="45.25607" lon="5.02787">
        <ele>248.07</ele>
        <time>2017-02-25T15:01:08Z</time>
      </trkpt>
      <trkpt lat="45.25607" lon="5.02787">
        <ele>248.07</ele>
        <time>2017-02-25T15:01:09Z</time>
      </trkpt>
      <trkpt lat="45.25607" lon="5.02787">
        <ele>248.07</ele>
        <time>2017-02-25T15:01:10Z</time>
      </trkpt>
      <trkpt lat="45.25607" lon="5.02787">
        <ele>248.07</ele>
        <time>2017-02-25T15:01:11Z</time>
      </trkpt>
      <trkpt lat="45.25607" lon="5.02787">
        <ele>248.07</ele>
        <time>2017-02-25T15:01:12Z</time>
      </trkpt>
      <trkpt lat="45.25607" lon="5.02787">
        <ele>248.07</ele>
        <time>2017-02-25T15:01:13Z</time>
      </trkpt>
      <trkpt lat="45.25607" lon="5.02787">
        <ele>248.07</ele>
        <time>2017-02-25T15:01:14Z</time>
      </trkpt>
      <trkpt lat="45.25607" lon="5.02787">
        <ele>248.07</ele>
        <time>2017-02-25T15:01:15Z</time>
      </trkpt>
      <trkpt lat="45.25607" lon="5.02787">
        <ele>248.07</ele>
        <time>2017-02-25T15:01:16Z</time>
      </trkpt>
      <trkpt lat="45.25607" lon="5.02787">
        <ele>248.07</ele>
        <time>2017-02-25T15:01:17Z</time>
      </trkpt>
      <trkpt lat="45.25607" lon="5.02787">
        <ele>248.07</ele>
        <time>2017-02-25T15:01:18Z</time>
      </trkpt>
      <trkpt lat="45.25607" lon="5.02787">
        <ele>248.07</ele>
        <time>2017-02-25T15:01:19Z</time>
      </trkpt>
      <trkpt lat="45.25607" lon="5.02787">
        <ele>248.07</ele>
        <time>2017-02-25T15:01:20Z</time>
      </trkpt>
      <trkpt lat="45.25607" lon="5.02787">
        <ele>248.07</ele>
        <time>2017-02-25T15:01:21Z</time>
      </trkpt>
      <trkpt lat="45.25607" lon="5.02787">
        <ele>248.07</ele>
        <time>2017-02-25T15:01:22Z</time>
      </trkpt>
      <trkpt lat="45.25607" lon="5.02787">
        <ele>248.07</ele>
        <time>2017-02-25T15:01:23Z</time>
      </trkpt>
      <trkpt lat="45.25607" lon="5.02787">
        <ele>248.07</ele>
        <time>2017-02-25T15:01:24Z</time>
      </trkpt>
      <trkpt lat="45.25607" lon="5.02787">
        <ele>248.07</ele>
        <time>2017-02-25T15:01:25Z</time>
      </trkpt>
      <trkpt lat="45.25607" lon="5.02787">
        <ele>248.07</ele>
        <time>2017-02-25T15:01:26Z</time>
      </trkpt>
      <trkpt lat="45.25616" lon="5.02788">
        <ele>247.51</ele>
        <time>2017-02-25T15:01:27Z</time>
      </trkpt>
      <trkpt lat="45.25617" lon="5.02788">
        <ele>247.4</ele>
        <time>2017-02-25T15:01:28Z</time>
      </trkpt>
      <trkpt lat="45.25617" lon="5.02788">
        <ele>247.37</ele>
        <time>2017-02-25T15:01:29Z</time>
      </trkpt>
      <trkpt lat="45.25618" lon="5.02787">
        <ele>247.37</ele>
        <time>2017-02-25T15:01:30Z</time>
      </trkpt>
      <trkpt lat="45.25618" lon="5.02787">
        <ele>247.37</ele>
        <time>2017-02-25T15:01:31Z</time>
      </trkpt>
      <trkpt lat="45.25618" lon="5.02787">
        <ele>247.37</ele>
        <time>2017-02-25T15:01:32Z</time>
      </trkpt>
      <trkpt lat="45.25618" lon="5.02787">
        <ele>247.37</ele>
        <time>2017-02-25T15:01:33Z</time>
      </trkpt>
      <trkpt lat="45.25618" lon="5.02787">
        <ele>247.37</ele>
        <time>2017-02-25T15:01:34Z</time>
      </trkpt>
      <trkpt lat="45.25618" lon="5.02787">
        <ele>247.37</ele>
        <time>2017-02-25T15:01:35Z</time>
      </trkpt>
      <trkpt lat="45.25618" lon="5.02787">
        <ele>247.37</ele>
        <time>2017-02-25T15:01:36Z</time>
      </trkpt>
      <trkpt lat="45.25618" lon="5.02787">
        <ele>247.37</ele>
        <time>2017-02-25T15:01:37Z</time>
      </trkpt>
      <trkpt lat="45.25618" lon="5.02787">
        <ele>247.37</ele>
        <time>2017-02-25T15:01:38Z</time>
      </trkpt>
      <trkpt lat="45.25618" lon="5.02787">
        <ele>247.37</ele>
        <time>2017-02-25T15:01:39Z</time>
      </trkpt>
      <trkpt lat="45.25618" lon="5.02787">
        <ele>247.37</ele>
        <time>2017-02-25T15:01:40Z</time>
      </trkpt>
      <trkpt lat="45.25623" lon="5.02777">
        <ele>247.37</ele>
        <time>2017-02-25T15:01:41Z</time>
      </trkpt>
      <trkpt lat="45.25624" lon="5.02776">
        <ele>247.37</ele>
        <time>2017-02-25T15:01:42Z</time>
      </trkpt>
      <trkpt lat="45.25627" lon="5.02774">
        <ele>247.37</ele>
        <time>2017-02-25T15:01:43Z</time>
      </trkpt>
      <trkpt lat="45.25627" lon="5.02774">
        <ele>247.45</ele>
        <time>2017-02-25T15:01:44Z</time>
      </trkpt>
      <trkpt lat="45.25627" lon="5.02774">
        <ele>247.46</ele>
        <time>2017-02-25T15:01:45Z</time>
      </trkpt>
      <trkpt lat="45.25627" lon="5.02774">
        <ele>247.47</ele>
        <time>2017-02-25T15:01:46Z</time>
      </trkpt>
      <trkpt lat="45.25627" lon="5.02774">
        <ele>247.47</ele>
        <time>2017-02-25T15:01:47Z</time>
      </trkpt>
      <trkpt lat="45.25627" lon="5.02774">
        <ele>247.47</ele>
        <time>2017-02-25T15:01:48Z</time>
      </trkpt>
      <trkpt lat="45.25627" lon="5.02774">
        <ele>247.47</ele>
        <time>2017-02-25T15:01:49Z</time>
      </trkpt>
      <trkpt lat="45.25627" lon="5.02774">
        <ele>247.47</ele>
        <time>2017-02-25T15:01:50Z</time>
      </trkpt>
      <trkpt lat="45.25627" lon="5.02774">
        <ele>247.47</ele>
        <time>2017-02-25T15:01:51Z</time>
      </trkpt>
      <trkpt lat="45.25627" lon="5.02774">
        <ele>247.47</ele>
        <time>2017-02-25T15:01:52Z</time>
      </trkpt>
      <trkpt lat="45.25627" lon="5.02774">
        <ele>247.47</ele>
        <time>2017-02-25T15:01:53Z</time>
      </trkpt>
      <trkpt lat="45.25627" lon="5.02774">
        <ele>247.47</ele>
        <time>2017-02-25T15:01:54Z</time>
      </trkpt>
      <trkpt lat="45.25627" lon="5.02774">
        <ele>247.47</ele>
        <time>2017-02-25T15:01:55Z</time>
      </trkpt>
      <trkpt lat="45.25627" lon="5.02774">
        <ele>247.47</ele>
        <time>2017-02-25T15:01:56Z</time>
      </trkpt>
      <trkpt lat="45.25627" lon="5.02774">
        <ele>247.47</ele>
        <time>2017-02-25T15:01:57Z</time>
      </trkpt>
      <trkpt lat="45.25627" lon="5.02774">
        <ele>247.47</ele>
        <time>2017-02-25T15:01:58Z</time>
      </trkpt>
      <trkpt lat="45.25627" lon="5.02774">
        <ele>247.47</ele>
        <time>2017-02-25T15:01:59Z</time>
      </trkpt>
      <trkpt lat="45.25627" lon="5.02774">
        <ele>247.47</ele>
        <time>2017-02-25T15:02:00Z</time>
      </trkpt>
      <trkpt lat="45.25627" lon="5.02774">
        <ele>247.47</ele>
        <time>2017-02-25T15:02:01Z</time>
      </trkpt>
      <trkpt lat="45.25627" lon="5.02774">
        <ele>247.47</ele>
        <time>2017-02-25T15:02:02Z</time>
      </trkpt>
      <trkpt lat="45.25627" lon="5.02774">
        <ele>247.47</ele>
        <time>2017-02-25T15:02:03Z</time>
      </trkpt>
      <trkpt lat="45.25627" lon="5.02774">
        <ele>247.47</ele>
        <time>2017-02-25T15:02:04Z</time>
      </trkpt>
      <trkpt lat="45.25627" lon="5.02774">
        <ele>247.47</ele>
        <time>2017-02-25T15:02:05Z</time>
      </trkpt>
      <trkpt lat="45.25627" lon="5.02774">
        <ele>247.47</ele>
        <time>2017-02-25T15:02:06Z</time>
      </trkpt>
      <trkpt lat="45.25627" lon="5.02774">
        <ele>247.47</ele>
        <time>2017-02-25T15:02:07Z</time>
      </trkpt>
      <trkpt lat="45.25627" lon="5.02774">
        <ele>247.47</ele>
        <time>2017-02-25T15:02:08Z</time>
      </trkpt>
      <trkpt lat="45.25627" lon="5.02774">
        <ele>247.47</ele>
        <time>2017-02-25T15:02:09Z</time>
      </trkpt>
      <trkpt lat="45.25627" lon="5.02774">
        <ele>247.47</ele>
        <time>2017-02-25T15:02:10Z</time>
      </trkpt>
      <trkpt lat="45.25627" lon="5.02774">
        <ele>247.47</ele>
        <time>2017-02-25T15:02:11Z</time>
      </trkpt>
      <trkpt lat="45.25627" lon="5.02774">
        <ele>247.47</ele>
        <time>2017-02-25T15:02:12Z</time>
      </trkpt>
      <trkpt lat="45.25627" lon="5.02774">
        <ele>247.47</ele>
        <time>2017-02-25T15:02:13Z</time>
      </trkpt>
      <trkpt lat="45.25627" lon="5.02774">
        <ele>247.47</ele>
        <time>2017-02-25T15:02:14Z</time>
      </trkpt>
      <trkpt lat="45.25627" lon="5.02774">
        <ele>247.47</ele>
        <time>2017-02-25T15:02:15Z</time>
      </trkpt>
      <trkpt lat="45.25627" lon="5.02774">
        <ele>247.47</ele>
        <time>2017-02-25T15:02:16Z</time>
      </trkpt>
      <trkpt lat="45.25627" lon="5.02774">
        <ele>247.47</ele>
        <time>2017-02-25T15:02:17Z</time>
      </trkpt>
      <trkpt lat="45.25627" lon="5.02774">
        <ele>247.47</ele>
        <time>2017-02-25T15:02:18Z</time>
      </trkpt>
      <trkpt lat="45.25627" lon="5.02774">
        <ele>247.47</ele>
        <time>2017-02-25T15:02:19Z</time>
      </trkpt>
      <trkpt lat="45.25627" lon="5.02774">
        <ele>247.47</ele>
        <time>2017-02-25T15:02:20Z</time>
      </trkpt>
      <trkpt lat="45.25627" lon="5.02774">
        <ele>247.47</ele>
        <time>2017-02-25T15:02:21Z</time>
      </trkpt>
      <trkpt lat="45.25627" lon="5.02774">
        <ele>247.47</ele>
        <time>2017-02-25T15:02:22Z</time>
      </trkpt>
      <trkpt lat="45.25627" lon="5.02774">
        <ele>247.47</ele>
        <time>2017-02-25T15:02:23Z</time>
      </trkpt>
      <trkpt lat="45.25627" lon="5.02774">
        <ele>247.47</ele>
        <time>2017-02-25T15:02:24Z</time>
      </trkpt>
      <trkpt lat="45.25627" lon="5.02774">
        <ele>247.47</ele>
        <time>2017-02-25T15:02:25Z</time>
      </trkpt>
      <trkpt lat="45.25627" lon="5.02774">
        <ele>247.47</ele>
        <time>2017-02-25T15:02:26Z</time>
      </trkpt>
      <trkpt lat="45.25619" lon="5.02779">
        <ele>247.63</ele>
        <time>2017-02-25T15:02:27Z</time>
      </trkpt>
      <trkpt lat="45.25619" lon="5.02779">
        <ele>247.66</ele>
        <time>2017-02-25T15:02:28Z</time>
      </trkpt>
      <trkpt lat="45.25619" lon="5.02779">
        <ele>247.67</ele>
        <time>2017-02-25T15:02:29Z</time>
      </trkpt>
      <trkpt lat="45.25619" lon="5.02779">
        <ele>247.67</ele>
        <time>2017-02-25T15:02:30Z</time>
      </trkpt>
      <trkpt lat="45.25619" lon="5.02779">
        <ele>247.67</ele>
        <time>2017-02-25T15:02:31Z</time>
      </trkpt>
      <trkpt lat="45.25619" lon="5.02779">
        <ele>247.67</ele>
        <time>2017-02-25T15:02:32Z</time>
      </trkpt>
      <trkpt lat="45.25619" lon="5.02779">
        <ele>247.67</ele>
        <time>2017-02-25T15:02:33Z</time>
      </trkpt>
      <trkpt lat="45.25619" lon="5.02779">
        <ele>247.67</ele>
        <time>2017-02-25T15:02:34Z</time>
      </trkpt>
      <trkpt lat="45.25619" lon="5.02779">
        <ele>247.67</ele>
        <time>2017-02-25T15:02:35Z</time>
      </trkpt>
      <trkpt lat="45.25619" lon="5.02779">
        <ele>247.67</ele>
        <time>2017-02-25T15:02:36Z</time>
      </trkpt>
      <trkpt lat="45.25619" lon="5.02779">
        <ele>247.67</ele>
        <time>2017-02-25T15:02:37Z</time>
      </trkpt>
      <trkpt lat="45.25619" lon="5.02779">
        <ele>247.67</ele>
        <time>2017-02-25T15:02:38Z</time>
      </trkpt>
      <trkpt lat="45.25619" lon="5.02779">
        <ele>247.67</ele>
        <time>2017-02-25T15:02:39Z</time>
      </trkpt>
      <trkpt lat="45.25619" lon="5.02779">
        <ele>247.67</ele>
        <time>2017-02-25T15:02:40Z</time>
      </trkpt>
      <trkpt lat="45.25619" lon="5.02779">
        <ele>247.67</ele>
        <time>2017-02-25T15:02:41Z</time>
      </trkpt>
      <trkpt lat="45.25619" lon="5.02779">
        <ele>247.67</ele>
        <time>2017-02-25T15:02:42Z</time>
      </trkpt>
      <trkpt lat="45.25619" lon="5.02779">
        <ele>247.67</ele>
        <time>2017-02-25T15:02:43Z</time>
      </trkpt>
      <trkpt lat="45.25619" lon="5.02779">
        <ele>247.67</ele>
        <time>2017-02-25T15:02:44Z</time>
      </trkpt>
      <trkpt lat="45.25619" lon="5.02779">
        <ele>247.67</ele>
        <time>2017-02-25T15:02:45Z</time>
      </trkpt>
      <trkpt lat="45.25619" lon="5.02779">
        <ele>247.67</ele>
        <time>2017-02-25T15:02:46Z</time>
      </trkpt>
      <trkpt lat="45.25619" lon="5.02779">
        <ele>247.67</ele>
        <time>2017-02-25T15:02:47Z</time>
      </trkpt>
      <trkpt lat="45.25619" lon="5.02779">
        <ele>247.67</ele>
        <time>2017-02-25T15:02:48Z</time>
      </trkpt>
      <trkpt lat="45.25619" lon="5.02779">
        <ele>247.67</ele>
        <time>2017-02-25T15:02:49Z</time>
      </trkpt>
      <trkpt lat="45.25619" lon="5.02779">
        <ele>247.67</ele>
        <time>2017-02-25T15:02:50Z</time>
      </trkpt>
      <trkpt lat="45.25619" lon="5.02779">
        <ele>247.67</ele>
        <time>2017-02-25T15:02:51Z</time>
      </trkpt>
      <trkpt lat="45.25619" lon="5.02779">
        <ele>247.67</ele>
        <time>2017-02-25T15:02:52Z</time>
      </trkpt>
      <trkpt lat="45.25619" lon="5.02779">
        <ele>247.67</ele>
        <time>2017-02-25T15:02:53Z</time>
      </trkpt>
      <trkpt lat="45.25619" lon="5.02779">
        <ele>247.67</ele>
        <time>2017-02-25T15:02:54Z</time>
      </trkpt>
      <trkpt lat="45.25619" lon="5.02779">
        <ele>247.67</ele>
        <time>2017-02-25T15:02:55Z</time>
      </trkpt>
      <trkpt lat="45.25619" lon="5.02779">
        <ele>247.67</ele>
        <time>2017-02-25T15:02:56Z</time>
      </trkpt>
      <trkpt lat="45.25619" lon="5.02779">
        <ele>247.67</ele>
        <time>2017-02-25T15:02:57Z</time>
      </trkpt>
      <trkpt lat="45.25619" lon="5.02779">
        <ele>247.67</ele>
        <time>2017-02-25T15:02:58Z</time>
      </trkpt>
      <trkpt lat="45.25619" lon="5.02779">
        <ele>247.67</ele>
        <time>2017-02-25T15:02:59Z</time>
      </trkpt>
      <trkpt lat="45.25619" lon="5.02779">
        <ele>247.67</ele>
        <time>2017-02-25T15:03:00Z</time>
      </trkpt>
      <trkpt lat="45.25619" lon="5.02779">
        <ele>247.67</ele>
        <time>2017-02-25T15:03:01Z</time>
      </trkpt>
      <trkpt lat="45.25619" lon="5.02779">
        <ele>247.67</ele>
        <time>2017-02-25T15:03:02Z</time>
      </trkpt>
      <trkpt lat="45.25619" lon="5.02779">
        <ele>247.67</ele>
        <time>2017-02-25T15:03:03Z</time>
      </trkpt>
      <trkpt lat="45.25619" lon="5.02779">
        <ele>247.67</ele>
        <time>2017-02-25T15:03:04Z</time>
      </trkpt>
      <trkpt lat="45.25619" lon="5.02779">
        <ele>247.67</ele>
        <time>2017-02-25T15:03:05Z</time>
      </trkpt>
      <trkpt lat="45.25619" lon="5.02779">
        <ele>247.67</ele>
        <time>2017-02-25T15:03:06Z</time>
      </trkpt>
      <trkpt lat="45.25619" lon="5.02779">
        <ele>247.67</ele>
        <time>2017-02-25T15:03:07Z</time>
      </trkpt>
      <trkpt lat="45.25619" lon="5.02779">
        <ele>247.67</ele>
        <time>2017-02-25T15:03:08Z</time>
      </trkpt>
      <trkpt lat="45.25619" lon="5.02779">
        <ele>247.67</ele>
        <time>2017-02-25T15:03:09Z</time>
      </trkpt>
      <trkpt lat="45.25619" lon="5.02779">
        <ele>247.67</ele>
        <time>2017-02-25T15:03:10Z</time>
      </trkpt>
      <trkpt lat="45.25619" lon="5.02779">
        <ele>247.67</ele>
        <time>2017-02-25T15:03:11Z</time>
      </trkpt>
      <trkpt lat="45.25619" lon="5.02779">
        <ele>247.67</ele>
        <time>2017-02-25T15:03:12Z</time>
      </trkpt>
      <trkpt lat="45.25619" lon="5.02779">
        <ele>247.67</ele>
        <time>2017-02-25T15:03:13Z</time>
      </trkpt>
      <trkpt lat="45.25619" lon="5.02779">
        <ele>247.67</ele>
        <time>2017-02-25T15:03:14Z</time>
      </trkpt>
      <trkpt lat="45.25619" lon="5.02779">
        <ele>247.67</ele>
        <time>2017-02-25T15:03:15Z</time>
      </trkpt>
      <trkpt lat="45.25619" lon="5.02779">
        <ele>247.67</ele>
        <time>2017-02-25T15:03:16Z</time>
      </trkpt>
      <trkpt lat="45.25619" lon="5.02779">
        <ele>247.67</ele>
        <time>2017-02-25T15:03:17Z</time>
      </trkpt>
      <trkpt lat="45.25619" lon="5.02779">
        <ele>247.67</ele>
        <time>2017-02-25T15:03:18Z</time>
      </trkpt>
      <trkpt lat="45.25619" lon="5.02779">
        <ele>247.67</ele>
        <time>2017-02-25T15:03:19Z</time>
      </trkpt>
      <trkpt lat="45.25619" lon="5.02779">
        <ele>247.67</ele>
        <time>2017-02-25T15:03:20Z</time>
      </trkpt>
      <trkpt lat="45.25619" lon="5.02779">
        <ele>247.67</ele>
        <time>2017-02-25T15:03:21Z</time>
      </trkpt>
      <trkpt lat="45.25619" lon="5.02779">
        <ele>247.67</ele>
        <time>2017-02-25T15:03:22Z</time>
      </trkpt>
      <trkpt lat="45.25619" lon="5.02779">
        <ele>247.67</ele>
        <time>2017-02-25T15:03:23Z</time>
      </trkpt>
      <trkpt lat="45.25619" lon="5.02779">
        <ele>247.67</ele>
        <time>2017-02-25T15:03:24Z</time>
      </trkpt>
      <trkpt lat="45.25619" lon="5.02779">
        <ele>247.67</ele>
        <time>2017-02-25T15:03:25Z</time>
      </trkpt>
      <trkpt lat="45.25619" lon="5.02779">
        <ele>247.67</ele>
        <time>2017-02-25T15:03:26Z</time>
      </trkpt>
      <trkpt lat="45.25619" lon="5.02779">
        <ele>247.67</ele>
        <time>2017-02-25T15:03:27Z</time>
      </trkpt>
      <trkpt lat="45.25619" lon="5.02779">
        <ele>247.67</ele>
        <time>2017-02-25T15:03:28Z</time>
      </trkpt>
      <trkpt lat="45.25619" lon="5.02779">
        <ele>247.67</ele>
        <time>2017-02-25T15:03:29Z</time>
      </trkpt>
      <trkpt lat="45.25619" lon="5.02779">
        <ele>247.67</ele>
        <time>2017-02-25T15:03:30Z</time>
      </trkpt>
      <trkpt lat="45.25619" lon="5.02779">
        <ele>247.67</ele>
        <time>2017-02-25T15:03:31Z</time>
      </trkpt>
      <trkpt lat="45.25619" lon="5.02779">
        <ele>247.67</ele>
        <time>2017-02-25T15:03:32Z</time>
      </trkpt>
      <trkpt lat="45.25619" lon="5.02779">
        <ele>247.67</ele>
        <time>2017-02-25T15:03:33Z</time>
      </trkpt>
      <trkpt lat="45.25619" lon="5.02779">
        <ele>247.67</ele>
        <time>2017-02-25T15:03:34Z</time>
      </trkpt>
      <trkpt lat="45.25619" lon="5.02779">
        <ele>247.67</ele>
        <time>2017-02-25T15:03:35Z</time>
      </trkpt>
      <trkpt lat="45.25619" lon="5.02779">
        <ele>247.67</ele>
        <time>2017-02-25T15:03:36Z</time>
      </trkpt>
      <trkpt lat="45.25619" lon="5.02779">
        <ele>247.67</ele>
        <time>2017-02-25T15:03:37Z</time>
      </trkpt>
      <trkpt lat="45.25619" lon="5.02779">
        <ele>247.67</ele>
        <time>2017-02-25T15:03:38Z</time>
      </trkpt>
      <trkpt lat="45.25619" lon="5.02779">
        <ele>247.67</ele>
        <time>2017-02-25T15:03:39Z</time>
      </trkpt>
      <trkpt lat="45.25619" lon="5.02779">
        <ele>247.67</ele>
        <time>2017-02-25T15:03:40Z</time>
      </trkpt>
      <trkpt lat="45.25619" lon="5.02779">
        <ele>247.67</ele>
        <time>2017-02-25T15:03:41Z</time>
      </trkpt>
      <trkpt lat="45.25619" lon="5.02779">
        <ele>247.67</ele>
        <time>2017-02-25T15:03:42Z</time>
      </trkpt>
      <trkpt lat="45.25619" lon="5.02779">
        <ele>247.67</ele>
        <time>2017-02-25T15:03:43Z</time>
      </trkpt>
      <trkpt lat="45.25619" lon="5.02779">
        <ele>247.67</ele>
        <time>2017-02-25T15:03:44Z</time>
      </trkpt>
      <trkpt lat="45.25619" lon="5.02779">
        <ele>247.67</ele>
        <time>2017-02-25T15:03:45Z</time>
      </trkpt>
      <trkpt lat="45.25619" lon="5.02779">
        <ele>247.67</ele>
        <time>2017-02-25T15:03:46Z</time>
      </trkpt>
      <trkpt lat="45.25619" lon="5.02779">
        <ele>247.67</ele>
        <time>2017-02-25T15:03:47Z</time>
      </trkpt>
      <trkpt lat="45.25619" lon="5.02779">
        <ele>247.67</ele>
        <time>2017-02-25T15:03:48Z</time>
      </trkpt>
      <trkpt lat="45.25619" lon="5.02779">
        <ele>247.67</ele>
        <time>2017-02-25T15:03:49Z</time>
      </trkpt>
      <trkpt lat="45.25619" lon="5.02779">
        <ele>247.67</ele>
        <time>2017-02-25T15:03:50Z</time>
      </trkpt>
      <trkpt lat="45.25619" lon="5.02779">
        <ele>247.67</ele>
        <time>2017-02-25T15:03:51Z</time>
      </trkpt>
      <trkpt lat="45.25619" lon="5.02779">
        <ele>247.67</ele>
        <time>2017-02-25T15:03:52Z</time>
      </trkpt>
      <trkpt lat="45.25619" lon="5.02779">
        <ele>247.67</ele>
        <time>2017-02-25T15:03:53Z</time>
      </trkpt>
      <trkpt lat="45.25619" lon="5.02779">
        <ele>247.67</ele>
        <time>2017-02-25T15:03:54Z</time>
      </trkpt>
      <trkpt lat="45.25619" lon="5.02779">
        <ele>247.67</ele>
        <time>2017-02-25T15:03:55Z</time>
      </trkpt>
      <trkpt lat="45.25619" lon="5.02779">
        <ele>247.67</ele>
        <time>2017-02-25T15:03:56Z</time>
      </trkpt>
      <trkpt lat="45.25619" lon="5.02779">
        <ele>247.67</ele>
        <time>2017-02-25T15:03:57Z</time>
      </trkpt>
      <trkpt lat="45.25619" lon="5.02779">
        <ele>247.67</ele>
        <time>2017-02-25T15:03:58Z</time>
      </trkpt>
      <trkpt lat="45.25619" lon="5.02779">
        <ele>247.67</ele>
        <time>2017-02-25T15:03:59Z</time>
      </trkpt>
      <trkpt lat="45.25619" lon="5.02779">
        <ele>247.67</ele>
        <time>2017-02-25T15:04:00Z</time>
      </trkpt>
      <trkpt lat="45.25619" lon="5.02779">
        <ele>247.67</ele>
        <time>2017-02-25T15:04:01Z</time>
      </trkpt>
      <trkpt lat="45.25619" lon="5.02779">
        <ele>247.67</ele>
        <time>2017-02-25T15:04:02Z</time>
      </trkpt>
      <trkpt lat="45.25619" lon="5.02779">
        <ele>247.67</ele>
        <time>2017-02-25T15:04:03Z</time>
      </trkpt>
      <trkpt lat="45.25619" lon="5.02779">
        <ele>247.67</ele>
        <time>2017-02-25T15:04:04Z</time>
      </trkpt>
      <trkpt lat="45.25619" lon="5.02779">
        <ele>247.67</ele>
        <time>2017-02-25T15:04:05Z</time>
      </trkpt>
      <trkpt lat="45.25619" lon="5.02779">
        <ele>247.67</ele>
        <time>2017-02-25T15:04:06Z</time>
      </trkpt>
      <trkpt lat="45.25619" lon="5.02779">
        <ele>247.67</ele>
        <time>2017-02-25T15:04:07Z</time>
      </trkpt>
      <trkpt lat="45.25619" lon="5.02779">
        <ele>247.67</ele>
        <time>2017-02-25T15:04:08Z</time>
      </trkpt>
      <trkpt lat="45.25619" lon="5.02779">
        <ele>247.67</ele>
        <time>2017-02-25T15:04:09Z</time>
      </trkpt>
      <trkpt lat="45.25619" lon="5.02779">
        <ele>247.67</ele>
        <time>2017-02-25T15:04:10Z</time>
      </trkpt>
      <trkpt lat="45.25619" lon="5.02779">
        <ele>247.67</ele>
        <time>2017-02-25T15:04:11Z</time>
      </trkpt>
      <trkpt lat="45.25619" lon="5.02779">
        <ele>247.67</ele>
        <time>2017-02-25T15:04:12Z</time>
      </trkpt>
      <trkpt lat="45.25619" lon="5.02779">
        <ele>247.67</ele>
        <time>2017-02-25T15:04:13Z</time>
      </trkpt>
      <trkpt lat="45.25619" lon="5.02779">
        <ele>247.67</ele>
        <time>2017-02-25T15:04:14Z</time>
      </trkpt>
      <trkpt lat="45.25619" lon="5.02779">
        <ele>247.67</ele>
        <time>2017-02-25T15:04:15Z</time>
      </trkpt>
      <trkpt lat="45.25619" lon="5.02779">
        <ele>247.67</ele>
        <time>2017-02-25T15:04:16Z</time>
      </trkpt>
      <trkpt lat="45.25619" lon="5.02779">
        <ele>247.67</ele>
        <time>2017-02-25T15:04:17Z</time>
      </trkpt>
      <trkpt lat="45.25619" lon="5.02779">
        <ele>247.67</ele>
        <time>2017-02-25T15:04:18Z</time>
      </trkpt>
      <trkpt lat="45.25619" lon="5.02779">
        <ele>247.67</ele>
        <time>2017-02-25T15:04:19Z</time>
      </trkpt>
      <trkpt lat="45.25619" lon="5.02779">
        <ele>247.67</ele>
        <time>2017-02-25T15:04:20Z</time>
      </trkpt>
      <trkpt lat="45.25619" lon="5.02779">
        <ele>247.67</ele>
        <time>2017-02-25T15:04:21Z</time>
      </trkpt>
      <trkpt lat="45.25619" lon="5.02779">
        <ele>247.67</ele>
        <time>2017-02-25T15:04:22Z</time>
      </trkpt>
      <trkpt lat="45.25619" lon="5.02779">
        <ele>247.67</ele>
        <time>2017-02-25T15:04:23Z</time>
      </trkpt>
      <trkpt lat="45.25619" lon="5.02779">
        <ele>247.67</ele>
        <time>2017-02-25T15:04:24Z</time>
      </trkpt>
      <trkpt lat="45.25619" lon="5.02779">
        <ele>247.67</ele>
        <time>2017-02-25T15:04:25Z</time>
      </trkpt>
      <trkpt lat="45.25619" lon="5.02779">
        <ele>247.67</ele>
        <time>2017-02-25T15:04:26Z</time>
      </trkpt>
      <trkpt lat="45.25619" lon="5.02779">
        <ele>247.67</ele>
        <time>2017-02-25T15:04:27Z</time>
      </trkpt>
      <trkpt lat="45.25619" lon="5.02779">
        <ele>247.67</ele>
        <time>2017-02-25T15:04:28Z</time>
      </trkpt>
      <trkpt lat="45.25619" lon="5.02779">
        <ele>247.67</ele>
        <time>2017-02-25T15:04:29Z</time>
      </trkpt>
      <trkpt lat="45.25619" lon="5.02779">
        <ele>247.67</ele>
        <time>2017-02-25T15:04:30Z</time>
      </trkpt>
      <trkpt lat="45.25619" lon="5.02779">
        <ele>247.67</ele>
        <time>2017-02-25T15:04:31Z</time>
      </trkpt>
      <trkpt lat="45.25619" lon="5.02779">
        <ele>247.67</ele>
        <time>2017-02-25T15:04:32Z</time>
      </trkpt>
      <trkpt lat="45.25619" lon="5.02779">
        <ele>247.67</ele>
        <time>2017-02-25T15:04:33Z</time>
      </trkpt>
      <trkpt lat="45.25619" lon="5.02779">
        <ele>247.67</ele>
        <time>2017-02-25T15:04:34Z</time>
      </trkpt>
      <trkpt lat="45.25619" lon="5.02779">
        <ele>247.67</ele>
        <time>2017-02-25T15:04:35Z</time>
      </trkpt>
      <trkpt lat="45.25619" lon="5.02779">
        <ele>247.67</ele>
        <time>2017-02-25T15:04:36Z</time>
      </trkpt>
      <trkpt lat="45.25619" lon="5.02779">
        <ele>247.67</ele>
        <time>2017-02-25T15:04:37Z</time>
      </trkpt>
      <trkpt lat="45.25619" lon="5.02779">
        <ele>247.67</ele>
        <time>2017-02-25T15:04:38Z</time>
      </trkpt>
      <trkpt lat="45.25619" lon="5.02779">
        <ele>247.67</ele>
        <time>2017-02-25T15:04:39Z</time>
      </trkpt>
      <trkpt lat="45.25619" lon="5.02779">
        <ele>247.67</ele>
        <time>2017-02-25T15:04:40Z</time>
      </trkpt>
      <trkpt lat="45.25619" lon="5.02779">
        <ele>247.67</ele>
        <time>2017-02-25T15:04:41Z</time>
      </trkpt>
      <trkpt lat="45.25619" lon="5.02779">
        <ele>247.67</ele>
        <time>2017-02-25T15:04:42Z</time>
      </trkpt>
      <trkpt lat="45.25619" lon="5.02779">
        <ele>247.67</ele>
        <time>2017-02-25T15:04:43Z</time>
      </trkpt>
      <trkpt lat="45.25619" lon="5.02779">
        <ele>247.67</ele>
        <time>2017-02-25T15:04:44Z</time>
      </trkpt>
      <trkpt lat="45.25619" lon="5.02779">
        <ele>247.67</ele>
        <time>2017-02-25T15:04:45Z</time>
      </trkpt>
      <trkpt lat="45.25619" lon="5.02779">
        <ele>247.67</ele>
        <time>2017-02-25T15:04:46Z</time>
      </trkpt>
      <trkpt lat="45.25619" lon="5.02779">
        <ele>247.67</ele>
        <time>2017-02-25T15:04:47Z</time>
      </trkpt>
      <trkpt lat="45.25619" lon="5.02779">
        <ele>247.67</ele>
        <time>2017-02-25T15:04:48Z</time>
      </trkpt>
      <trkpt lat="45.25619" lon="5.02779">
        <ele>247.67</ele>
        <time>2017-02-25T15:04:49Z</time>
      </trkpt>
      <trkpt lat="45.25619" lon="5.02779">
        <ele>247.67</ele>
        <time>2017-02-25T15:04:50Z</time>
      </trkpt>
      <trkpt lat="45.25619" lon="5.02779">
        <ele>247.67</ele>
        <time>2017-02-25T15:04:51Z</time>
      </trkpt>
      <trkpt lat="45.25619" lon="5.02779">
        <ele>247.67</ele>
        <time>2017-02-25T15:04:52Z</time>
      </trkpt>
      <trkpt lat="45.25619" lon="5.02779">
        <ele>247.67</ele>
        <time>2017-02-25T15:04:53Z</time>
      </trkpt>
      <trkpt lat="45.25619" lon="5.02779">
        <ele>247.67</ele>
        <time>2017-02-25T15:04:54Z</time>
      </trkpt>
      <trkpt lat="45.25619" lon="5.02779">
        <ele>247.67</ele>
        <time>2017-02-25T15:04:55Z</time>
      </trkpt>
      <trkpt lat="45.25619" lon="5.02779">
        <ele>247.67</ele>
        <time>2017-02-25T15:04:56Z</time>
      </trkpt>
      <trkpt lat="45.25619" lon="5.02779">
        <ele>247.67</ele>
        <time>2017-02-25T15:04:57Z</time>
      </trkpt>
      <trkpt lat="45.25619" lon="5.02779">
        <ele>247.67</ele>
        <time>2017-02-25T15:04:58Z</time>
      </trkpt>
      <trkpt lat="45.25619" lon="5.02779">
        <ele>247.67</ele>
        <time>2017-02-25T15:04:59Z</time>
      </trkpt>
      <trkpt lat="45.25619" lon="5.02779">
        <ele>247.67</ele>
        <time>2017-02-25T15:05:00Z</time>
      </trkpt>
      <trkpt lat="45.25619" lon="5.02779">
        <ele>247.67</ele>
        <time>2017-02-25T15:05:01Z</time>
      </trkpt>
      <trkpt lat="45.25619" lon="5.02779">
        <ele>247.67</ele>
        <time>2017-02-25T15:05:02Z</time>
      </trkpt>
      <trkpt lat="45.25619" lon="5.02779">
        <ele>247.67</ele>
        <time>2017-02-25T15:05:03Z</time>
      </trkpt>
      <trkpt lat="45.25619" lon="5.02779">
        <ele>247.67</ele>
        <time>2017-02-25T15:05:04Z</time>
      </trkpt>
      <trkpt lat="45.25619" lon="5.02779">
        <ele>247.67</ele>
        <time>2017-02-25T15:05:05Z</time>
      </trkpt>
      <trkpt lat="45.25619" lon="5.02779">
        <ele>247.67</ele>
        <time>2017-02-25T15:05:06Z</time>
      </trkpt>
      <trkpt lat="45.25619" lon="5.02779">
        <ele>247.67</ele>
        <time>2017-02-25T15:05:07Z</time>
      </trkpt>
      <trkpt lat="45.25619" lon="5.02779">
        <ele>247.67</ele>
        <time>2017-02-25T15:05:08Z</time>
      </trkpt>
      <trkpt lat="45.25619" lon="5.02779">
        <ele>247.67</ele>
        <time>2017-02-25T15:05:09Z</time>
      </trkpt>
      <trkpt lat="45.25619" lon="5.02779">
        <ele>247.67</ele>
        <time>2017-02-25T15:05:10Z</time>
      </trkpt>
      <trkpt lat="45.25619" lon="5.02779">
        <ele>247.67</ele>
        <time>2017-02-25T15:05:11Z</time>
      </trkpt>
      <trkpt lat="45.25619" lon="5.02779">
        <ele>247.67</ele>
        <time>2017-02-25T15:05:12Z</time>
      </trkpt>
      <trkpt lat="45.25619" lon="5.02779">
        <ele>247.67</ele>
        <time>2017-02-25T15:05:13Z</time>
      </trkpt>
      <trkpt lat="45.25619" lon="5.02779">
        <ele>247.67</ele>
        <time>2017-02-25T15:05:14Z</time>
      </trkpt>
      <trkpt lat="45.25619" lon="5.02779">
        <ele>247.67</ele>
        <time>2017-02-25T15:05:15Z</time>
      </trkpt>
      <trkpt lat="45.25619" lon="5.02779">
        <ele>247.67</ele>
        <time>2017-02-25T15:05:16Z</time>
      </trkpt>
      <trkpt lat="45.25619" lon="5.02779">
        <ele>247.67</ele>
        <time>2017-02-25T15:05:17Z</time>
      </trkpt>
      <trkpt lat="45.25619" lon="5.02779">
        <ele>247.67</ele>
        <time>2017-02-25T15:05:18Z</time>
      </trkpt>
      <trkpt lat="45.25619" lon="5.02779">
        <ele>247.67</ele>
        <time>2017-02-25T15:05:19Z</time>
      </trkpt>
      <trkpt lat="45.25619" lon="5.02779">
        <ele>247.67</ele>
        <time>2017-02-25T15:05:20Z</time>
      </trkpt>
      <trkpt lat="45.25619" lon="5.02779">
        <ele>247.67</ele>
        <time>2017-02-25T15:05:21Z</time>
      </trkpt>
      <trkpt lat="45.25619" lon="5.02779">
        <ele>247.67</ele>
        <time>2017-02-25T15:05:22Z</time>
      </trkpt>
      <trkpt lat="45.25619" lon="5.02779">
        <ele>247.67</ele>
        <time>2017-02-25T15:05:23Z</time>
      </trkpt>
      <trkpt lat="45.25619" lon="5.02779">
        <ele>247.67</ele>
        <time>2017-02-25T15:05:24Z</time>
      </trkpt>
      <trkpt lat="45.25619" lon="5.02779">
        <ele>247.67</ele>
        <time>2017-02-25T15:05:25Z</time>
      </trkpt>
      <trkpt lat="45.25619" lon="5.02779">
        <ele>247.67</ele>
        <time>2017-02-25T15:05:26Z</time>
      </trkpt>
      <trkpt lat="45.25619" lon="5.02779">
        <ele>247.67</ele>
        <time>2017-02-25T15:05:27Z</time>
      </trkpt>
      <trkpt lat="45.25619" lon="5.02779">
        <ele>247.67</ele>
        <time>2017-02-25T15:05:28Z</time>
      </trkpt>
      <trkpt lat="45.25619" lon="5.02779">
        <ele>247.67</ele>
        <time>2017-02-25T15:05:29Z</time>
      </trkpt>
      <trkpt lat="45.25619" lon="5.02779">
        <ele>247.67</ele>
        <time>2017-02-25T15:05:30Z</time>
      </trkpt>
      <trkpt lat="45.25619" lon="5.02779">
        <ele>247.67</ele>
        <time>2017-02-25T15:05:31Z</time>
      </trkpt>
      <trkpt lat="45.25619" lon="5.02779">
        <ele>247.67</ele>
        <time>2017-02-25T15:05:32Z</time>
      </trkpt>
      <trkpt lat="45.25619" lon="5.02779">
        <ele>247.67</ele>
        <time>2017-02-25T15:05:33Z</time>
      </trkpt>
      <trkpt lat="45.25619" lon="5.02779">
        <ele>247.67</ele>
        <time>2017-02-25T15:05:34Z</time>
      </trkpt>
      <trkpt lat="45.25619" lon="5.02779">
        <ele>247.67</ele>
        <time>2017-02-25T15:05:35Z</time>
      </trkpt>
      <trkpt lat="45.25619" lon="5.02779">
        <ele>247.67</ele>
        <time>2017-02-25T15:05:36Z</time>
      </trkpt>
      <trkpt lat="45.25619" lon="5.02779">
        <ele>247.67</ele>
        <time>2017-02-25T15:05:37Z</time>
      </trkpt>
      <trkpt lat="45.25619" lon="5.02779">
        <ele>247.67</ele>
        <time>2017-02-25T15:05:38Z</time>
      </trkpt>
      <trkpt lat="45.25619" lon="5.02779">
        <ele>247.67</ele>
        <time>2017-02-25T15:05:39Z</time>
      </trkpt>
      <trkpt lat="45.25619" lon="5.02779">
        <ele>247.67</ele>
        <time>2017-02-25T15:05:40Z</time>
      </trkpt>
      <trkpt lat="45.25619" lon="5.02779">
        <ele>247.67</ele>
        <time>2017-02-25T15:05:41Z</time>
      </trkpt>
      <trkpt lat="45.25619" lon="5.02779">
        <ele>247.67</ele>
        <time>2017-02-25T15:05:42Z</time>
      </trkpt>
      <trkpt lat="45.25619" lon="5.02779">
        <ele>247.67</ele>
        <time>2017-02-25T15:05:43Z</time>
      </trkpt>
      <trkpt lat="45.25619" lon="5.02779">
        <ele>247.67</ele>
        <time>2017-02-25T15:05:44Z</time>
      </trkpt>
      <trkpt lat="45.25619" lon="5.02779">
        <ele>247.67</ele>
        <time>2017-02-25T15:05:45Z</time>
      </trkpt>
      <trkpt lat="45.25619" lon="5.02779">
        <ele>247.67</ele>
        <time>2017-02-25T15:05:46Z</time>
      </trkpt>
      <trkpt lat="45.25619" lon="5.02779">
        <ele>247.67</ele>
        <time>2017-02-25T15:05:47Z</time>
      </trkpt>
      <trkpt lat="45.25619" lon="5.02779">
        <ele>247.67</ele>
        <time>2017-02-25T15:05:48Z</time>
      </trkpt>
      <trkpt lat="45.25619" lon="5.02779">
        <ele>247.67</ele>
        <time>2017-02-25T15:05:49Z</time>
      </trkpt>
      <trkpt lat="45.25619" lon="5.02779">
        <ele>247.67</ele>
        <time>2017-02-25T15:05:50Z</time>
      </trkpt>
      <trkpt lat="45.25619" lon="5.02779">
        <ele>247.67</ele>
        <time>2017-02-25T15:05:51Z</time>
      </trkpt>
      <trkpt lat="45.25619" lon="5.02779">
        <ele>247.67</ele>
        <time>2017-02-25T15:05:52Z</time>
      </trkpt>
      <trkpt lat="45.25619" lon="5.02779">
        <ele>247.67</ele>
        <time>2017-02-25T15:05:53Z</time>
      </trkpt>
      <trkpt lat="45.25619" lon="5.02779">
        <ele>247.67</ele>
        <time>2017-02-25T15:05:54Z</time>
      </trkpt>
      <trkpt lat="45.25619" lon="5.02779">
        <ele>247.67</ele>
        <time>2017-02-25T15:05:55Z</time>
      </trkpt>
      <trkpt lat="45.25619" lon="5.02779">
        <ele>247.67</ele>
        <time>2017-02-25T15:05:56Z</time>
      </trkpt>
      <trkpt lat="45.25619" lon="5.02779">
        <ele>247.67</ele>
        <time>2017-02-25T15:05:57Z</time>
      </trkpt>
      <trkpt lat="45.25619" lon="5.02779">
        <ele>247.67</ele>
        <time>2017-02-25T15:05:58Z</time>
      </trkpt>
      <trkpt lat="45.25619" lon="5.02779">
        <ele>247.67</ele>
        <time>2017-02-25T15:05:59Z</time>
      </trkpt>
      <trkpt lat="45.25619" lon="5.02779">
        <ele>247.67</ele>
        <time>2017-02-25T15:06:00Z</time>
      </trkpt>
      <trkpt lat="45.25619" lon="5.02779">
        <ele>247.67</ele>
        <time>2017-02-25T15:06:01Z</time>
      </trkpt>
      <trkpt lat="45.25619" lon="5.02779">
        <ele>247.67</ele>
        <time>2017-02-25T15:06:02Z</time>
      </trkpt>
      <trkpt lat="45.25619" lon="5.02779">
        <ele>247.67</ele>
        <time>2017-02-25T15:06:03Z</time>
      </trkpt>
      <trkpt lat="45.25619" lon="5.02779">
        <ele>247.67</ele>
        <time>2017-02-25T15:06:04Z</time>
      </trkpt>
      <trkpt lat="45.25619" lon="5.02779">
        <ele>247.67</ele>
        <time>2017-02-25T15:06:05Z</time>
      </trkpt>
      <trkpt lat="45.25619" lon="5.02779">
        <ele>247.67</ele>
        <time>2017-02-25T15:06:06Z</time>
      </trkpt>
      <trkpt lat="45.25619" lon="5.02779">
        <ele>247.67</ele>
        <time>2017-02-25T15:06:07Z</time>
      </trkpt>
      <trkpt lat="45.25619" lon="5.02779">
        <ele>247.67</ele>
        <time>2017-02-25T15:06:08Z</time>
      </trkpt>
      <trkpt lat="45.25619" lon="5.02779">
        <ele>247.67</ele>
        <time>2017-02-25T15:06:09Z</time>
      </trkpt>
      <trkpt lat="45.25619" lon="5.02779">
        <ele>247.67</ele>
        <time>2017-02-25T15:06:10Z</time>
      </trkpt>
      <trkpt lat="45.25619" lon="5.02779">
        <ele>247.67</ele>
        <time>2017-02-25T15:06:11Z</time>
      </trkpt>
      <trkpt lat="45.25619" lon="5.02779">
        <ele>247.67</ele>
        <time>2017-02-25T15:06:12Z</time>
      </trkpt>
      <trkpt lat="45.25619" lon="5.02779">
        <ele>247.67</ele>
        <time>2017-02-25T15:06:13Z</time>
      </trkpt>
      <trkpt lat="45.25619" lon="5.02779">
        <ele>247.67</ele>
        <time>2017-02-25T15:06:14Z</time>
      </trkpt>
      <trkpt lat="45.25619" lon="5.02779">
        <ele>247.67</ele>
        <time>2017-02-25T15:06:15Z</time>
      </trkpt>
      <trkpt lat="45.25619" lon="5.02779">
        <ele>247.67</ele>
        <time>2017-02-25T15:06:16Z</time>
      </trkpt>
      <trkpt lat="45.25619" lon="5.02779">
        <ele>247.67</ele>
        <time>2017-02-25T15:06:17Z</time>
      </trkpt>
      <trkpt lat="45.25619" lon="5.02779">
        <ele>247.67</ele>
        <time>2017-02-25T15:06:18Z</time>
      </trkpt>
      <trkpt lat="45.25619" lon="5.02779">
        <ele>247.67</ele>
        <time>2017-02-25T15:06:19Z</time>
      </trkpt>
      <trkpt lat="45.25619" lon="5.02779">
        <ele>247.67</ele>
        <time>2017-02-25T15:06:20Z</time>
      </trkpt>
      <trkpt lat="45.25619" lon="5.02779">
        <ele>247.67</ele>
        <time>2017-02-25T15:06:21Z</time>
      </trkpt>
      <trkpt lat="45.25619" lon="5.02779">
        <ele>247.67</ele>
        <time>2017-02-25T15:06:22Z</time>
      </trkpt>
      <trkpt lat="45.25619" lon="5.02779">
        <ele>247.67</ele>
        <time>2017-02-25T15:06:23Z</time>
      </trkpt>
      <trkpt lat="45.25619" lon="5.02779">
        <ele>247.67</ele>
        <time>2017-02-25T15:06:24Z</time>
      </trkpt>
      <trkpt lat="45.25619" lon="5.02779">
        <ele>247.67</ele>
        <time>2017-02-25T15:06:25Z</time>
      </trkpt>
      <trkpt lat="45.25619" lon="5.02779">
        <ele>247.67</ele>
        <time>2017-02-25T15:06:26Z</time>
      </trkpt>
      <trkpt lat="45.25619" lon="5.02779">
        <ele>247.67</ele>
        <time>2017-02-25T15:06:27Z</time>
      </trkpt>
      <trkpt lat="45.25619" lon="5.02779">
        <ele>247.67</ele>
        <time>2017-02-25T15:06:28Z</time>
      </trkpt>
      <trkpt lat="45.25619" lon="5.02779">
        <ele>247.67</ele>
        <time>2017-02-25T15:06:29Z</time>
      </trkpt>
      <trkpt lat="45.25619" lon="5.02779">
        <ele>247.67</ele>
        <time>2017-02-25T15:06:30Z</time>
      </trkpt>
      <trkpt lat="45.25619" lon="5.02779">
        <ele>247.67</ele>
        <time>2017-02-25T15:06:31Z</time>
      </trkpt>
      <trkpt lat="45.25619" lon="5.02779">
        <ele>247.67</ele>
        <time>2017-02-25T15:06:32Z</time>
      </trkpt>
      <trkpt lat="45.25619" lon="5.02779">
        <ele>247.67</ele>
        <time>2017-02-25T15:06:33Z</time>
      </trkpt>
      <trkpt lat="45.25619" lon="5.02779">
        <ele>247.67</ele>
        <time>2017-02-25T15:06:34Z</time>
      </trkpt>
      <trkpt lat="45.25619" lon="5.02779">
        <ele>247.67</ele>
        <time>2017-02-25T15:06:35Z</time>
      </trkpt>
      <trkpt lat="45.25619" lon="5.02779">
        <ele>247.67</ele>
        <time>2017-02-25T15:06:36Z</time>
      </trkpt>
      <trkpt lat="45.25619" lon="5.02779">
        <ele>247.67</ele>
        <time>2017-02-25T15:06:37Z</time>
      </trkpt>
      <trkpt lat="45.25619" lon="5.02779">
        <ele>247.67</ele>
        <time>2017-02-25T15:06:38Z</time>
      </trkpt>
      <trkpt lat="45.25619" lon="5.02779">
        <ele>247.67</ele>
        <time>2017-02-25T15:06:39Z</time>
      </trkpt>
      <trkpt lat="45.25619" lon="5.02779">
        <ele>247.67</ele>
        <time>2017-02-25T15:06:40Z</time>
      </trkpt>
      <trkpt lat="45.25619" lon="5.02779">
        <ele>247.67</ele>
        <time>2017-02-25T15:06:41Z</time>
      </trkpt>
      <trkpt lat="45.25619" lon="5.02779">
        <ele>247.67</ele>
        <time>2017-02-25T15:06:42Z</time>
      </trkpt>
      <trkpt lat="45.25619" lon="5.02779">
        <ele>247.67</ele>
        <time>2017-02-25T15:06:43Z</time>
      </trkpt>
      <trkpt lat="45.25619" lon="5.02779">
        <ele>247.67</ele>
        <time>2017-02-25T15:06:44Z</time>
      </trkpt>
      <trkpt lat="45.25619" lon="5.02779">
        <ele>247.67</ele>
        <time>2017-02-25T15:06:45Z</time>
      </trkpt>
      <trkpt lat="45.25619" lon="5.02779">
        <ele>247.67</ele>
        <time>2017-02-25T15:06:46Z</time>
      </trkpt>
      <trkpt lat="45.25619" lon="5.02779">
        <ele>247.67</ele>
        <time>2017-02-25T15:06:47Z</time>
      </trkpt>
      <trkpt lat="45.25619" lon="5.02779">
        <ele>247.67</ele>
        <time>2017-02-25T15:06:48Z</time>
      </trkpt>
      <trkpt lat="45.25619" lon="5.02779">
        <ele>247.67</ele>
        <time>2017-02-25T15:06:49Z</time>
      </trkpt>
      <trkpt lat="45.25619" lon="5.02779">
        <ele>247.67</ele>
        <time>2017-02-25T15:06:50Z</time>
      </trkpt>
      <trkpt lat="45.25619" lon="5.02779">
        <ele>247.67</ele>
        <time>2017-02-25T15:06:51Z</time>
      </trkpt>
      <trkpt lat="45.25619" lon="5.02779">
        <ele>247.67</ele>
        <time>2017-02-25T15:06:52Z</time>
      </trkpt>
      <trkpt lat="45.25619" lon="5.02779">
        <ele>247.67</ele>
        <time>2017-02-25T15:06:53Z</time>
      </trkpt>
      <trkpt lat="45.25619" lon="5.02779">
        <ele>247.67</ele>
        <time>2017-02-25T15:06:54Z</time>
      </trkpt>
      <trkpt lat="45.25619" lon="5.02779">
        <ele>247.67</ele>
        <time>2017-02-25T15:06:55Z</time>
      </trkpt>
      <trkpt lat="45.25619" lon="5.02779">
        <ele>247.67</ele>
        <time>2017-02-25T15:06:56Z</time>
      </trkpt>
      <trkpt lat="45.25619" lon="5.02779">
        <ele>247.67</ele>
        <time>2017-02-25T15:06:57Z</time>
      </trkpt>
      <trkpt lat="45.25619" lon="5.02779">
        <ele>247.67</ele>
        <time>2017-02-25T15:06:58Z</time>
      </trkpt>
      <trkpt lat="45.25619" lon="5.02779">
        <ele>247.67</ele>
        <time>2017-02-25T15:06:59Z</time>
      </trkpt>
      <trkpt lat="45.25619" lon="5.02779">
        <ele>247.67</ele>
        <time>2017-02-25T15:07:00Z</time>
      </trkpt>
      <trkpt lat="45.25619" lon="5.02779">
        <ele>247.67</ele>
        <time>2017-02-25T15:07:01Z</time>
      </trkpt>
      <trkpt lat="45.25619" lon="5.02779">
        <ele>247.67</ele>
        <time>2017-02-25T15:07:02Z</time>
      </trkpt>
      <trkpt lat="45.25619" lon="5.02779">
        <ele>247.67</ele>
        <time>2017-02-25T15:07:03Z</time>
      </trkpt>
      <trkpt lat="45.25619" lon="5.02779">
        <ele>247.67</ele>
        <time>2017-02-25T15:07:04Z</time>
      </trkpt>
      <trkpt lat="45.25619" lon="5.02779">
        <ele>247.67</ele>
        <time>2017-02-25T15:07:05Z</time>
      </trkpt>
      <trkpt lat="45.25619" lon="5.02779">
        <ele>247.67</ele>
        <time>2017-02-25T15:07:06Z</time>
      </trkpt>
      <trkpt lat="45.25619" lon="5.02779">
        <ele>247.67</ele>
        <time>2017-02-25T15:07:07Z</time>
      </trkpt>
      <trkpt lat="45.25619" lon="5.02779">
        <ele>247.67</ele>
        <time>2017-02-25T15:07:08Z</time>
      </trkpt>
      <trkpt lat="45.25619" lon="5.02779">
        <ele>247.67</ele>
        <time>2017-02-25T15:07:09Z</time>
      </trkpt>
      <trkpt lat="45.25619" lon="5.02779">
        <ele>247.67</ele>
        <time>2017-02-25T15:07:10Z</time>
      </trkpt>
      <trkpt lat="45.25619" lon="5.02779">
        <ele>247.67</ele>
        <time>2017-02-25T15:07:11Z</time>
      </trkpt>
      <trkpt lat="45.25619" lon="5.02779">
        <ele>247.67</ele>
        <time>2017-02-25T15:07:12Z</time>
      </trkpt>
      <trkpt lat="45.25619" lon="5.02779">
        <ele>247.67</ele>
        <time>2017-02-25T15:07:13Z</time>
      </trkpt>
      <trkpt lat="45.25619" lon="5.02779">
        <ele>247.67</ele>
        <time>2017-02-25T15:07:14Z</time>
      </trkpt>
      <trkpt lat="45.25619" lon="5.02779">
        <ele>247.67</ele>
        <time>2017-02-25T15:07:15Z</time>
      </trkpt>
      <trkpt lat="45.25619" lon="5.02779">
        <ele>247.67</ele>
        <time>2017-02-25T15:07:16Z</time>
      </trkpt>
      <trkpt lat="45.25619" lon="5.02779">
        <ele>247.67</ele>
        <time>2017-02-25T15:07:17Z</time>
      </trkpt>
      <trkpt lat="45.25619" lon="5.02779">
        <ele>247.67</ele>
        <time>2017-02-25T15:07:18Z</time>
      </trkpt>
      <trkpt lat="45.25619" lon="5.02779">
        <ele>247.67</ele>
        <time>2017-02-25T15:07:19Z</time>
      </trkpt>
      <trkpt lat="45.25619" lon="5.02779">
        <ele>247.67</ele>
        <time>2017-02-25T15:07:20Z</time>
      </trkpt>
      <trkpt lat="45.25619" lon="5.02779">
        <ele>247.67</ele>
        <time>2017-02-25T15:07:21Z</time>
      </trkpt>
      <trkpt lat="45.25619" lon="5.02779">
        <ele>247.67</ele>
        <time>2017-02-25T15:07:22Z</time>
      </trkpt>
      <trkpt lat="45.25619" lon="5.02779">
        <ele>247.67</ele>
        <time>2017-02-25T15:07:23Z</time>
      </trkpt>
      <trkpt lat="45.25619" lon="5.02779">
        <ele>247.67</ele>
        <time>2017-02-25T15:07:24Z</time>
      </trkpt>
      <trkpt lat="45.25619" lon="5.02779">
        <ele>247.67</ele>
        <time>2017-02-25T15:07:25Z</time>
      </trkpt>
      <trkpt lat="45.25619" lon="5.02779">
        <ele>247.67</ele>
        <time>2017-02-25T15:07:26Z</time>
      </trkpt>
      <trkpt lat="45.25619" lon="5.02779">
        <ele>247.67</ele>
        <time>2017-02-25T15:07:27Z</time>
      </trkpt>
      <trkpt lat="45.25619" lon="5.02779">
        <ele>247.67</ele>
        <time>2017-02-25T15:07:28Z</time>
      </trkpt>
      <trkpt lat="45.25619" lon="5.02779">
        <ele>247.67</ele>
        <time>2017-02-25T15:07:29Z</time>
      </trkpt>
      <trkpt lat="45.25619" lon="5.02779">
        <ele>247.67</ele>
        <time>2017-02-25T15:07:30Z</time>
      </trkpt>
      <trkpt lat="45.25619" lon="5.02779">
        <ele>247.67</ele>
        <time>2017-02-25T15:07:31Z</time>
      </trkpt>
      <trkpt lat="45.25619" lon="5.02779">
        <ele>247.67</ele>
        <time>2017-02-25T15:07:32Z</time>
      </trkpt>
      <trkpt lat="45.25619" lon="5.02779">
        <ele>247.67</ele>
        <time>2017-02-25T15:07:33Z</time>
      </trkpt>
      <trkpt lat="45.25619" lon="5.02779">
        <ele>247.67</ele>
        <time>2017-02-25T15:07:34Z</time>
      </trkpt>
      <trkpt lat="45.25619" lon="5.02779">
        <ele>247.67</ele>
        <time>2017-02-25T15:07:35Z</time>
      </trkpt>
      <trkpt lat="45.25619" lon="5.02779">
        <ele>247.67</ele>
        <time>2017-02-25T15:07:36Z</time>
      </trkpt>
      <trkpt lat="45.25619" lon="5.02779">
        <ele>247.67</ele>
        <time>2017-02-25T15:07:37Z</time>
      </trkpt>
      <trkpt lat="45.25619" lon="5.02779">
        <ele>247.67</ele>
        <time>2017-02-25T15:07:38Z</time>
      </trkpt>
      <trkpt lat="45.25619" lon="5.02779">
        <ele>247.67</ele>
        <time>2017-02-25T15:07:39Z</time>
      </trkpt>
      <trkpt lat="45.25619" lon="5.02779">
        <ele>247.67</ele>
        <time>2017-02-25T15:07:40Z</time>
      </trkpt>
      <trkpt lat="45.25619" lon="5.02779">
        <ele>247.67</ele>
        <time>2017-02-25T15:07:41Z</time>
      </trkpt>
      <trkpt lat="45.25619" lon="5.02779">
        <ele>247.67</ele>
        <time>2017-02-25T15:07:42Z</time>
      </trkpt>
      <trkpt lat="45.25619" lon="5.02779">
        <ele>247.67</ele>
        <time>2017-02-25T15:07:43Z</time>
      </trkpt>
      <trkpt lat="45.25619" lon="5.02779">
        <ele>247.67</ele>
        <time>2017-02-25T15:07:44Z</time>
      </trkpt>
      <trkpt lat="45.25619" lon="5.02779">
        <ele>247.67</ele>
        <time>2017-02-25T15:07:45Z</time>
      </trkpt>
      <trkpt lat="45.25619" lon="5.02779">
        <ele>247.67</ele>
        <time>2017-02-25T15:07:46Z</time>
      </trkpt>
      <trkpt lat="45.25619" lon="5.02779">
        <ele>247.67</ele>
        <time>2017-02-25T15:07:47Z</time>
      </trkpt>
      <trkpt lat="45.25619" lon="5.02779">
        <ele>247.67</ele>
        <time>2017-02-25T15:07:48Z</time>
      </trkpt>
      <trkpt lat="45.25619" lon="5.02779">
        <ele>247.67</ele>
        <time>2017-02-25T15:07:49Z</time>
      </trkpt>
      <trkpt lat="45.25619" lon="5.02779">
        <ele>247.67</ele>
        <time>2017-02-25T15:07:50Z</time>
      </trkpt>
      <trkpt lat="45.25619" lon="5.02779">
        <ele>247.67</ele>
        <time>2017-02-25T15:07:51Z</time>
      </trkpt>
      <trkpt lat="45.25619" lon="5.02779">
        <ele>247.67</ele>
        <time>2017-02-25T15:07:52Z</time>
      </trkpt>
      <trkpt lat="45.25619" lon="5.02779">
        <ele>247.67</ele>
        <time>2017-02-25T15:07:53Z</time>
      </trkpt>
      <trkpt lat="45.25619" lon="5.02779">
        <ele>247.67</ele>
        <time>2017-02-25T15:07:54Z</time>
      </trkpt>
      <trkpt lat="45.25619" lon="5.02779">
        <ele>247.67</ele>
        <time>2017-02-25T15:07:55Z</time>
      </trkpt>
      <trkpt lat="45.25619" lon="5.02779">
        <ele>247.67</ele>
        <time>2017-02-25T15:07:56Z</time>
      </trkpt>
      <trkpt lat="45.25619" lon="5.02779">
        <ele>247.67</ele>
        <time>2017-02-25T15:07:57Z</time>
      </trkpt>
      <trkpt lat="45.25619" lon="5.02779">
        <ele>247.67</ele>
        <time>2017-02-25T15:07:58Z</time>
      </trkpt>
      <trkpt lat="45.25619" lon="5.02779">
        <ele>247.67</ele>
        <time>2017-02-25T15:07:59Z</time>
      </trkpt>
      <trkpt lat="45.25619" lon="5.02779">
        <ele>247.67</ele>
        <time>2017-02-25T15:08:00Z</time>
      </trkpt>
      <trkpt lat="45.25619" lon="5.02779">
        <ele>247.67</ele>
        <time>2017-02-25T15:08:01Z</time>
      </trkpt>
      <trkpt lat="45.25619" lon="5.02779">
        <ele>247.67</ele>
        <time>2017-02-25T15:08:02Z</time>
      </trkpt>
      <trkpt lat="45.25619" lon="5.02779">
        <ele>247.67</ele>
        <time>2017-02-25T15:08:03Z</time>
      </trkpt>
      <trkpt lat="45.25619" lon="5.02779">
        <ele>247.67</ele>
        <time>2017-02-25T15:08:04Z</time>
      </trkpt>
      <trkpt lat="45.25619" lon="5.02779">
        <ele>247.67</ele>
        <time>2017-02-25T15:08:05Z</time>
      </trkpt>
      <trkpt lat="45.25619" lon="5.02779">
        <ele>247.67</ele>
        <time>2017-02-25T15:08:06Z</time>
      </trkpt>
      <trkpt lat="45.25619" lon="5.02779">
        <ele>247.67</ele>
        <time>2017-02-25T15:08:07Z</time>
      </trkpt>
      <trkpt lat="45.25619" lon="5.02779">
        <ele>247.67</ele>
        <time>2017-02-25T15:08:08Z</time>
      </trkpt>
      <trkpt lat="45.25619" lon="5.02779">
        <ele>247.67</ele>
        <time>2017-02-25T15:08:09Z</time>
      </trkpt>
      <trkpt lat="45.25619" lon="5.02779">
        <ele>247.67</ele>
        <time>2017-02-25T15:08:10Z</time>
      </trkpt>
      <trkpt lat="45.25619" lon="5.02779">
        <ele>247.67</ele>
        <time>2017-02-25T15:08:11Z</time>
      </trkpt>
      <trkpt lat="45.25619" lon="5.02779">
        <ele>247.67</ele>
        <time>2017-02-25T15:08:12Z</time>
      </trkpt>
      <trkpt lat="45.25619" lon="5.02779">
        <ele>247.67</ele>
        <time>2017-02-25T15:08:13Z</time>
      </trkpt>
      <trkpt lat="45.25619" lon="5.02779">
        <ele>247.67</ele>
        <time>2017-02-25T15:08:14Z</time>
      </trkpt>
      <trkpt lat="45.25619" lon="5.02779">
        <ele>247.67</ele>
        <time>2017-02-25T15:08:15Z</time>
      </trkpt>
      <trkpt lat="45.25619" lon="5.02779">
        <ele>247.67</ele>
        <time>2017-02-25T15:08:16Z</time>
      </trkpt>
      <trkpt lat="45.25619" lon="5.02779">
        <ele>247.67</ele>
        <time>2017-02-25T15:08:17Z</time>
      </trkpt>
      <trkpt lat="45.25619" lon="5.02779">
        <ele>247.67</ele>
        <time>2017-02-25T15:08:18Z</time>
      </trkpt>
      <trkpt lat="45.25619" lon="5.02779">
        <ele>247.67</ele>
        <time>2017-02-25T15:08:19Z</time>
      </trkpt>
      <trkpt lat="45.25619" lon="5.02779">
        <ele>247.67</ele>
        <time>2017-02-25T15:08:20Z</time>
      </trkpt>
      <trkpt lat="45.25619" lon="5.02779">
        <ele>247.67</ele>
        <time>2017-02-25T15:08:21Z</time>
      </trkpt>
      <trkpt lat="45.25619" lon="5.02779">
        <ele>247.67</ele>
        <time>2017-02-25T15:08:22Z</time>
      </trkpt>
      <trkpt lat="45.25619" lon="5.02779">
        <ele>247.67</ele>
        <time>2017-02-25T15:08:23Z</time>
      </trkpt>
      <trkpt lat="45.25619" lon="5.02779">
        <ele>247.67</ele>
        <time>2017-02-25T15:08:24Z</time>
      </trkpt>
      <trkpt lat="45.25619" lon="5.02779">
        <ele>247.67</ele>
        <time>2017-02-25T15:08:25Z</time>
      </trkpt>
      <trkpt lat="45.25619" lon="5.02779">
        <ele>247.67</ele>
        <time>2017-02-25T15:08:26Z</time>
      </trkpt>
      <trkpt lat="45.25619" lon="5.02779">
        <ele>247.67</ele>
        <time>2017-02-25T15:08:27Z</time>
      </trkpt>
      <trkpt lat="45.25619" lon="5.02779">
        <ele>247.67</ele>
        <time>2017-02-25T15:08:28Z</time>
      </trkpt>
      <trkpt lat="45.25619" lon="5.02779">
        <ele>247.67</ele>
        <time>2017-02-25T15:08:29Z</time>
      </trkpt>
      <trkpt lat="45.25619" lon="5.02779">
        <ele>247.67</ele>
        <time>2017-02-25T15:08:30Z</time>
      </trkpt>
      <trkpt lat="45.25619" lon="5.02779">
        <ele>247.67</ele>
        <time>2017-02-25T15:08:31Z</time>
      </trkpt>
      <trkpt lat="45.25619" lon="5.02779">
        <ele>247.67</ele>
        <time>2017-02-25T15:08:32Z</time>
      </trkpt>
      <trkpt lat="45.25619" lon="5.02779">
        <ele>247.67</ele>
        <time>2017-02-25T15:08:33Z</time>
      </trkpt>
      <trkpt lat="45.25619" lon="5.02779">
        <ele>247.67</ele>
        <time>2017-02-25T15:08:34Z</time>
      </trkpt>
      <trkpt lat="45.25619" lon="5.02779">
        <ele>247.67</ele>
        <time>2017-02-25T15:08:35Z</time>
      </trkpt>
      <trkpt lat="45.25619" lon="5.02779">
        <ele>247.67</ele>
        <time>2017-02-25T15:08:36Z</time>
      </trkpt>
      <trkpt lat="45.25619" lon="5.02779">
        <ele>247.67</ele>
        <time>2017-02-25T15:08:37Z</time>
      </trkpt>
      <trkpt lat="45.25619" lon="5.02779">
        <ele>247.67</ele>
        <time>2017-02-25T15:08:38Z</time>
      </trkpt>
      <trkpt lat="45.25619" lon="5.02779">
        <ele>247.67</ele>
        <time>2017-02-25T15:08:39Z</time>
      </trkpt>
      <trkpt lat="45.25619" lon="5.02779">
        <ele>247.67</ele>
        <time>2017-02-25T15:08:40Z</time>
      </trkpt>
      <trkpt lat="45.25619" lon="5.02779">
        <ele>247.67</ele>
        <time>2017-02-25T15:08:41Z</time>
      </trkpt>
      <trkpt lat="45.25619" lon="5.02779">
        <ele>247.67</ele>
        <time>2017-02-25T15:08:42Z</time>
      </trkpt>
      <trkpt lat="45.25619" lon="5.02779">
        <ele>247.67</ele>
        <time>2017-02-25T15:08:43Z</time>
      </trkpt>
      <trkpt lat="45.25619" lon="5.02779">
        <ele>247.67</ele>
        <time>2017-02-25T15:08:44Z</time>
      </trkpt>
      <trkpt lat="45.25619" lon="5.02779">
        <ele>247.67</ele>
        <time>2017-02-25T15:08:45Z</time>
      </trkpt>
      <trkpt lat="45.25619" lon="5.02779">
        <ele>247.67</ele>
        <time>2017-02-25T15:08:46Z</time>
      </trkpt>
      <trkpt lat="45.25619" lon="5.02779">
        <ele>247.67</ele>
        <time>2017-02-25T15:08:47Z</time>
      </trkpt>
      <trkpt lat="45.25619" lon="5.02779">
        <ele>247.67</ele>
        <time>2017-02-25T15:08:48Z</time>
      </trkpt>
      <trkpt lat="45.25619" lon="5.02779">
        <ele>247.67</ele>
        <time>2017-02-25T15:08:49Z</time>
      </trkpt>
      <trkpt lat="45.25619" lon="5.02779">
        <ele>247.67</ele>
        <time>2017-02-25T15:08:50Z</time>
      </trkpt>
      <trkpt lat="45.25619" lon="5.02779">
        <ele>247.67</ele>
        <time>2017-02-25T15:08:51Z</time>
      </trkpt>
      <trkpt lat="45.25619" lon="5.02779">
        <ele>247.67</ele>
        <time>2017-02-25T15:08:52Z</time>
      </trkpt>
      <trkpt lat="45.25619" lon="5.02779">
        <ele>247.67</ele>
        <time>2017-02-25T15:08:53Z</time>
      </trkpt>
      <trkpt lat="45.25619" lon="5.02779">
        <ele>247.67</ele>
        <time>2017-02-25T15:08:54Z</time>
      </trkpt>
      <trkpt lat="45.25619" lon="5.02779">
        <ele>247.67</ele>
        <time>2017-02-25T15:08:55Z</time>
      </trkpt>
      <trkpt lat="45.25619" lon="5.02779">
        <ele>247.67</ele>
        <time>2017-02-25T15:08:56Z</time>
      </trkpt>
      <trkpt lat="45.25619" lon="5.02779">
        <ele>247.67</ele>
        <time>2017-02-25T15:08:57Z</time>
      </trkpt>
      <trkpt lat="45.25619" lon="5.02779">
        <ele>247.67</ele>
        <time>2017-02-25T15:08:58Z</time>
      </trkpt>
      <trkpt lat="45.25619" lon="5.02779">
        <ele>247.67</ele>
        <time>2017-02-25T15:08:59Z</time>
      </trkpt>
      <trkpt lat="45.25619" lon="5.02779">
        <ele>247.67</ele>
        <time>2017-02-25T15:09:00Z</time>
      </trkpt>
      <trkpt lat="45.25619" lon="5.02779">
        <ele>247.67</ele>
        <time>2017-02-25T15:09:01Z</time>
      </trkpt>
      <trkpt lat="45.25619" lon="5.02779">
        <ele>247.67</ele>
        <time>2017-02-25T15:09:02Z</time>
      </trkpt>
      <trkpt lat="45.25619" lon="5.02779">
        <ele>247.67</ele>
        <time>2017-02-25T15:09:03Z</time>
      </trkpt>
      <trkpt lat="45.25611" lon="5.02785">
        <ele>248.71</ele>
        <time>2017-02-25T15:09:04Z</time>
      </trkpt>
      <trkpt lat="45.2561" lon="5.02786">
        <ele>248.91</ele>
        <time>2017-02-25T15:09:05Z</time>
      </trkpt>
      <trkpt lat="45.2561" lon="5.02786">
        <ele>248.96</ele>
        <time>2017-02-25T15:09:06Z</time>
      </trkpt>
      <trkpt lat="45.2561" lon="5.02787">
        <ele>248.96</ele>
        <time>2017-02-25T15:09:07Z</time>
      </trkpt>
      <trkpt lat="45.2561" lon="5.02787">
        <ele>248.97</ele>
        <time>2017-02-25T15:09:08Z</time>
      </trkpt>
      <trkpt lat="45.2561" lon="5.02787">
        <ele>248.97</ele>
        <time>2017-02-25T15:09:09Z</time>
      </trkpt>
      <trkpt lat="45.2561" lon="5.02787">
        <ele>248.97</ele>
        <time>2017-02-25T15:09:10Z</time>
      </trkpt>
      <trkpt lat="45.2561" lon="5.02787">
        <ele>248.97</ele>
        <time>2017-02-25T15:09:11Z</time>
      </trkpt>
      <trkpt lat="45.2561" lon="5.02787">
        <ele>248.97</ele>
        <time>2017-02-25T15:09:12Z</time>
      </trkpt>
      <trkpt lat="45.2561" lon="5.02787">
        <ele>248.97</ele>
        <time>2017-02-25T15:09:13Z</time>
      </trkpt>
      <trkpt lat="45.2561" lon="5.02787">
        <ele>248.97</ele>
        <time>2017-02-25T15:09:14Z</time>
      </trkpt>
      <trkpt lat="45.2561" lon="5.02787">
        <ele>248.97</ele>
        <time>2017-02-25T15:09:15Z</time>
      </trkpt>
      <trkpt lat="45.2561" lon="5.02787">
        <ele>248.97</ele>
        <time>2017-02-25T15:09:16Z</time>
      </trkpt>
      <trkpt lat="45.2561" lon="5.02787">
        <ele>248.97</ele>
        <time>2017-02-25T15:09:17Z</time>
      </trkpt>
      <trkpt lat="45.2561" lon="5.02787">
        <ele>248.97</ele>
        <time>2017-02-25T15:09:18Z</time>
      </trkpt>
      <trkpt lat="45.2561" lon="5.02787">
        <ele>248.97</ele>
        <time>2017-02-25T15:09:19Z</time>
      </trkpt>
      <trkpt lat="45.2561" lon="5.02787">
        <ele>248.97</ele>
        <time>2017-02-25T15:09:20Z</time>
      </trkpt>
      <trkpt lat="45.2561" lon="5.02787">
        <ele>248.97</ele>
        <time>2017-02-25T15:09:21Z</time>
      </trkpt>
      <trkpt lat="45.2561" lon="5.02787">
        <ele>248.97</ele>
        <time>2017-02-25T15:09:22Z</time>
      </trkpt>
      <trkpt lat="45.2561" lon="5.02787">
        <ele>248.97</ele>
        <time>2017-02-25T15:09:23Z</time>
      </trkpt>
      <trkpt lat="45.2561" lon="5.02787">
        <ele>248.97</ele>
        <time>2017-02-25T15:09:24Z</time>
      </trkpt>
      <trkpt lat="45.2561" lon="5.02787">
        <ele>248.97</ele>
        <time>2017-02-25T15:09:25Z</time>
      </trkpt>
      <trkpt lat="45.2561" lon="5.02787">
        <ele>248.97</ele>
        <time>2017-02-25T15:09:26Z</time>
      </trkpt>
      <trkpt lat="45.2561" lon="5.02787">
        <ele>248.97</ele>
        <time>2017-02-25T15:09:27Z</time>
      </trkpt>
      <trkpt lat="45.2561" lon="5.02787">
        <ele>248.97</ele>
        <time>2017-02-25T15:09:28Z</time>
      </trkpt>
      <trkpt lat="45.2561" lon="5.02787">
        <ele>248.97</ele>
        <time>2017-02-25T15:09:29Z</time>
      </trkpt>
      <trkpt lat="45.2561" lon="5.02787">
        <ele>248.97</ele>
        <time>2017-02-25T15:09:30Z</time>
      </trkpt>
      <trkpt lat="45.2561" lon="5.02787">
        <ele>248.97</ele>
        <time>2017-02-25T15:09:31Z</time>
      </trkpt>
      <trkpt lat="45.2561" lon="5.02787">
        <ele>248.97</ele>
        <time>2017-02-25T15:09:32Z</time>
      </trkpt>
      <trkpt lat="45.2561" lon="5.02787">
        <ele>248.97</ele>
        <time>2017-02-25T15:09:33Z</time>
      </trkpt>
      <trkpt lat="45.2561" lon="5.02787">
        <ele>248.97</ele>
        <time>2017-02-25T15:09:34Z</time>
      </trkpt>
      <trkpt lat="45.2561" lon="5.02787">
        <ele>248.97</ele>
        <time>2017-02-25T15:09:35Z</time>
      </trkpt>
      <trkpt lat="45.2561" lon="5.02787">
        <ele>248.97</ele>
        <time>2017-02-25T15:09:36Z</time>
      </trkpt>
      <trkpt lat="45.2561" lon="5.02787">
        <ele>248.97</ele>
        <time>2017-02-25T15:09:37Z</time>
      </trkpt>
      <trkpt lat="45.2561" lon="5.02787">
        <ele>248.97</ele>
        <time>2017-02-25T15:09:38Z</time>
      </trkpt>
      <trkpt lat="45.2561" lon="5.02787">
        <ele>248.97</ele>
        <time>2017-02-25T15:09:39Z</time>
      </trkpt>
      <trkpt lat="45.2561" lon="5.02787">
        <ele>248.97</ele>
        <time>2017-02-25T15:09:40Z</time>
      </trkpt>
      <trkpt lat="45.2561" lon="5.02787">
        <ele>248.97</ele>
        <time>2017-02-25T15:09:41Z</time>
      </trkpt>
      <trkpt lat="45.2561" lon="5.02787">
        <ele>248.97</ele>
        <time>2017-02-25T15:09:42Z</time>
      </trkpt>
      <trkpt lat="45.2561" lon="5.02787">
        <ele>248.97</ele>
        <time>2017-02-25T15:09:43Z</time>
      </trkpt>
      <trkpt lat="45.2561" lon="5.02787">
        <ele>248.97</ele>
        <time>2017-02-25T15:09:44Z</time>
      </trkpt>
      <trkpt lat="45.2561" lon="5.02787">
        <ele>248.97</ele>
        <time>2017-02-25T15:09:45Z</time>
      </trkpt>
      <trkpt lat="45.2561" lon="5.02787">
        <ele>248.97</ele>
        <time>2017-02-25T15:09:46Z</time>
      </trkpt>
      <trkpt lat="45.2561" lon="5.02787">
        <ele>248.97</ele>
        <time>2017-02-25T15:09:47Z</time>
      </trkpt>
      <trkpt lat="45.2561" lon="5.02787">
        <ele>248.97</ele>
        <time>2017-02-25T15:09:48Z</time>
      </trkpt>
      <trkpt lat="45.2561" lon="5.02787">
        <ele>248.97</ele>
        <time>2017-02-25T15:09:49Z</time>
      </trkpt>
      <trkpt lat="45.2561" lon="5.02787">
        <ele>248.97</ele>
        <time>2017-02-25T15:09:50Z</time>
      </trkpt>
      <trkpt lat="45.2561" lon="5.02787">
        <ele>248.97</ele>
        <time>2017-02-25T15:09:51Z</time>
      </trkpt>
      <trkpt lat="45.2561" lon="5.02787">
        <ele>248.97</ele>
        <time>2017-02-25T15:09:52Z</time>
      </trkpt>
      <trkpt lat="45.2561" lon="5.02787">
        <ele>248.97</ele>
        <time>2017-02-25T15:09:53Z</time>
      </trkpt>
      <trkpt lat="45.2561" lon="5.02787">
        <ele>248.97</ele>
        <time>2017-02-25T15:09:54Z</time>
      </trkpt>
      <trkpt lat="45.2561" lon="5.02787">
        <ele>248.97</ele>
        <time>2017-02-25T15:09:55Z</time>
      </trkpt>
      <trkpt lat="45.2561" lon="5.02787">
        <ele>248.97</ele>
        <time>2017-02-25T15:09:56Z</time>
      </trkpt>
      <trkpt lat="45.2561" lon="5.02787">
        <ele>248.97</ele>
        <time>2017-02-25T15:09:57Z</time>
      </trkpt>
      <trkpt lat="45.2561" lon="5.02787">
        <ele>248.97</ele>
        <time>2017-02-25T15:09:58Z</time>
      </trkpt>
      <trkpt lat="45.2561" lon="5.02787">
        <ele>248.97</ele>
        <time>2017-02-25T15:09:59Z</time>
      </trkpt>
      <trkpt lat="45.2561" lon="5.02787">
        <ele>248.97</ele>
        <time>2017-02-25T15:10:00Z</time>
      </trkpt>
      <trkpt lat="45.2561" lon="5.02787">
        <ele>248.97</ele>
        <time>2017-02-25T15:10:01Z</time>
      </trkpt>
      <trkpt lat="45.2561" lon="5.02787">
        <ele>248.97</ele>
        <time>2017-02-25T15:10:02Z</time>
      </trkpt>
      <trkpt lat="45.2561" lon="5.02787">
        <ele>248.97</ele>
        <time>2017-02-25T15:10:03Z</time>
      </trkpt>
      <trkpt lat="45.2561" lon="5.02787">
        <ele>248.97</ele>
        <time>2017-02-25T15:10:04Z</time>
      </trkpt>
      <trkpt lat="45.2561" lon="5.02787">
        <ele>248.97</ele>
        <time>2017-02-25T15:10:05Z</time>
      </trkpt>
      <trkpt lat="45.2561" lon="5.02787">
        <ele>248.97</ele>
        <time>2017-02-25T15:10:06Z</time>
      </trkpt>
      <trkpt lat="45.2561" lon="5.02787">
        <ele>248.97</ele>
        <time>2017-02-25T15:10:07Z</time>
      </trkpt>
      <trkpt lat="45.2561" lon="5.02787">
        <ele>248.97</ele>
        <time>2017-02-25T15:10:08Z</time>
      </trkpt>
      <trkpt lat="45.2561" lon="5.02787">
        <ele>248.97</ele>
        <time>2017-02-25T15:10:09Z</time>
      </trkpt>
      <trkpt lat="45.2561" lon="5.02787">
        <ele>248.97</ele>
        <time>2017-02-25T15:10:10Z</time>
      </trkpt>
      <trkpt lat="45.2561" lon="5.02787">
        <ele>248.97</ele>
        <time>2017-02-25T15:10:11Z</time>
      </trkpt>
      <trkpt lat="45.2561" lon="5.02787">
        <ele>248.97</ele>
        <time>2017-02-25T15:10:12Z</time>
      </trkpt>
      <trkpt lat="45.2561" lon="5.02787">
        <ele>248.97</ele>
        <time>2017-02-25T15:10:13Z</time>
      </trkpt>
      <trkpt lat="45.2561" lon="5.02787">
        <ele>248.97</ele>
        <time>2017-02-25T15:10:14Z</time>
      </trkpt>
      <trkpt lat="45.2561" lon="5.02787">
        <ele>248.97</ele>
        <time>2017-02-25T15:10:15Z</time>
      </trkpt>
      <trkpt lat="45.2561" lon="5.02787">
        <ele>248.97</ele>
        <time>2017-02-25T15:10:16Z</time>
      </trkpt>
      <trkpt lat="45.2561" lon="5.02787">
        <ele>248.97</ele>
        <time>2017-02-25T15:10:17Z</time>
      </trkpt>
      <trkpt lat="45.2561" lon="5.02787">
        <ele>248.97</ele>
        <time>2017-02-25T15:10:18Z</time>
      </trkpt>
      <trkpt lat="45.2561" lon="5.02787">
        <ele>248.97</ele>
        <time>2017-02-25T15:10:19Z</time>
      </trkpt>
      <trkpt lat="45.2561" lon="5.02787">
        <ele>248.97</ele>
        <time>2017-02-25T15:10:20Z</time>
      </trkpt>
      <trkpt lat="45.2561" lon="5.02787">
        <ele>248.97</ele>
        <time>2017-02-25T15:10:21Z</time>
      </trkpt>
      <trkpt lat="45.2561" lon="5.02787">
        <ele>248.97</ele>
        <time>2017-02-25T15:10:22Z</time>
      </trkpt>
      <trkpt lat="45.2561" lon="5.02787">
        <ele>248.97</ele>
        <time>2017-02-25T15:10:23Z</time>
      </trkpt>
      <trkpt lat="45.2561" lon="5.02787">
        <ele>248.97</ele>
        <time>2017-02-25T15:10:24Z</time>
      </trkpt>
      <trkpt lat="45.2561" lon="5.02787">
        <ele>248.97</ele>
        <time>2017-02-25T15:10:25Z</time>
      </trkpt>
      <trkpt lat="45.2561" lon="5.02787">
        <ele>248.97</ele>
        <time>2017-02-25T15:10:26Z</time>
      </trkpt>
      <trkpt lat="45.2561" lon="5.02787">
        <ele>248.97</ele>
        <time>2017-02-25T15:10:27Z</time>
      </trkpt>
      <trkpt lat="45.2561" lon="5.02787">
        <ele>248.97</ele>
        <time>2017-02-25T15:10:28Z</time>
      </trkpt>
      <trkpt lat="45.2561" lon="5.02787">
        <ele>248.97</ele>
        <time>2017-02-25T15:10:29Z</time>
      </trkpt>
      <trkpt lat="45.2561" lon="5.02787">
        <ele>248.97</ele>
        <time>2017-02-25T15:10:30Z</time>
      </trkpt>
      <trkpt lat="45.2561" lon="5.02787">
        <ele>248.97</ele>
        <time>2017-02-25T15:10:31Z</time>
      </trkpt>
      <trkpt lat="45.2561" lon="5.02787">
        <ele>248.97</ele>
        <time>2017-02-25T15:10:32Z</time>
      </trkpt>
      <trkpt lat="45.2561" lon="5.02787">
        <ele>248.97</ele>
        <time>2017-02-25T15:10:33Z</time>
      </trkpt>
      <trkpt lat="45.2561" lon="5.02787">
        <ele>248.97</ele>
        <time>2017-02-25T15:10:34Z</time>
      </trkpt>
      <trkpt lat="45.2561" lon="5.02787">
        <ele>248.97</ele>
        <time>2017-02-25T15:10:35Z</time>
      </trkpt>
      <trkpt lat="45.2561" lon="5.02787">
        <ele>248.97</ele>
        <time>2017-02-25T15:10:36Z</time>
      </trkpt>
      <trkpt lat="45.2561" lon="5.02787">
        <ele>248.97</ele>
        <time>2017-02-25T15:10:37Z</time>
      </trkpt>
      <trkpt lat="45.2561" lon="5.02787">
        <ele>248.97</ele>
        <time>2017-02-25T15:10:38Z</time>
      </trkpt>
      <trkpt lat="45.2561" lon="5.02787">
        <ele>248.97</ele>
        <time>2017-02-25T15:10:39Z</time>
      </trkpt>
      <trkpt lat="45.2561" lon="5.02787">
        <ele>248.97</ele>
        <time>2017-02-25T15:10:40Z</time>
      </trkpt>
      <trkpt lat="45.2561" lon="5.02787">
        <ele>248.97</ele>
        <time>2017-02-25T15:10:41Z</time>
      </trkpt>
      <trkpt lat="45.2561" lon="5.02787">
        <ele>248.97</ele>
        <time>2017-02-25T15:10:42Z</time>
      </trkpt>
      <trkpt lat="45.2561" lon="5.02787">
        <ele>248.97</ele>
        <time>2017-02-25T15:10:43Z</time>
      </trkpt>
      <trkpt lat="45.2561" lon="5.02787">
        <ele>248.97</ele>
        <time>2017-02-25T15:10:44Z</time>
      </trkpt>
      <trkpt lat="45.2561" lon="5.02787">
        <ele>248.97</ele>
        <time>2017-02-25T15:10:45Z</time>
      </trkpt>
      <trkpt lat="45.2561" lon="5.02787">
        <ele>248.97</ele>
        <time>2017-02-25T15:10:46Z</time>
      </trkpt>
      <trkpt lat="45.2561" lon="5.02787">
        <ele>248.97</ele>
        <time>2017-02-25T15:10:47Z</time>
      </trkpt>
      <trkpt lat="45.2561" lon="5.02787">
        <ele>248.97</ele>
        <time>2017-02-25T15:10:48Z</time>
      </trkpt>
      <trkpt lat="45.2561" lon="5.02787">
        <ele>248.97</ele>
        <time>2017-02-25T15:10:49Z</time>
      </trkpt>
      <trkpt lat="45.2561" lon="5.02787">
        <ele>248.97</ele>
        <time>2017-02-25T15:10:50Z</time>
      </trkpt>
      <trkpt lat="45.2561" lon="5.02787">
        <ele>248.97</ele>
        <time>2017-02-25T15:10:51Z</time>
      </trkpt>
      <trkpt lat="45.2561" lon="5.02787">
        <ele>248.97</ele>
        <time>2017-02-25T15:10:52Z</time>
      </trkpt>
      <trkpt lat="45.2561" lon="5.02787">
        <ele>248.97</ele>
        <time>2017-02-25T15:10:53Z</time>
      </trkpt>
      <trkpt lat="45.2561" lon="5.02787">
        <ele>248.97</ele>
        <time>2017-02-25T15:10:54Z</time>
      </trkpt>
      <trkpt lat="45.2561" lon="5.02787">
        <ele>248.97</ele>
        <time>2017-02-25T15:10:55Z</time>
      </trkpt>
      <trkpt lat="45.2561" lon="5.02787">
        <ele>248.97</ele>
        <time>2017-02-25T15:10:56Z</time>
      </trkpt>
      <trkpt lat="45.2561" lon="5.02787">
        <ele>248.97</ele>
        <time>2017-02-25T15:10:57Z</time>
      </trkpt>
      <trkpt lat="45.2561" lon="5.02787">
        <ele>248.97</ele>
        <time>2017-02-25T15:10:58Z</time>
      </trkpt>
      <trkpt lat="45.2561" lon="5.02787">
        <ele>248.97</ele>
        <time>2017-02-25T15:10:59Z</time>
      </trkpt>
      <trkpt lat="45.2561" lon="5.02787">
        <ele>248.97</ele>
        <time>2017-02-25T15:11:00Z</time>
      </trkpt>
      <trkpt lat="45.2561" lon="5.02787">
        <ele>248.97</ele>
        <time>2017-02-25T15:11:01Z</time>
      </trkpt>
      <trkpt lat="45.2561" lon="5.02787">
        <ele>248.97</ele>
        <time>2017-02-25T15:11:02Z</time>
      </trkpt>
      <trkpt lat="45.2561" lon="5.02787">
        <ele>248.97</ele>
        <time>2017-02-25T15:11:03Z</time>
      </trkpt>
      <trkpt lat="45.2561" lon="5.02787">
        <ele>248.97</ele>
        <time>2017-02-25T15:11:04Z</time>
      </trkpt>
      <trkpt lat="45.2561" lon="5.02787">
        <ele>248.97</ele>
        <time>2017-02-25T15:11:05Z</time>
      </trkpt>
      <trkpt lat="45.2561" lon="5.02787">
        <ele>248.97</ele>
        <time>2017-02-25T15:11:06Z</time>
      </trkpt>
      <trkpt lat="45.2561" lon="5.02787">
        <ele>248.97</ele>
        <time>2017-02-25T15:11:07Z</time>
      </trkpt>
      <trkpt lat="45.2561" lon="5.02787">
        <ele>248.97</ele>
        <time>2017-02-25T15:11:08Z</time>
      </trkpt>
      <trkpt lat="45.2561" lon="5.02787">
        <ele>248.97</ele>
        <time>2017-02-25T15:11:09Z</time>
      </trkpt>
      <trkpt lat="45.2561" lon="5.02787">
        <ele>248.97</ele>
        <time>2017-02-25T15:11:10Z</time>
      </trkpt>
      <trkpt lat="45.2561" lon="5.02787">
        <ele>248.97</ele>
        <time>2017-02-25T15:11:11Z</time>
      </trkpt>
      <trkpt lat="45.2561" lon="5.02787">
        <ele>248.97</ele>
        <time>2017-02-25T15:11:12Z</time>
      </trkpt>
      <trkpt lat="45.2561" lon="5.02787">
        <ele>248.97</ele>
        <time>2017-02-25T15:11:13Z</time>
      </trkpt>
      <trkpt lat="45.2561" lon="5.02787">
        <ele>248.97</ele>
        <time>2017-02-25T15:11:14Z</time>
      </trkpt>
      <trkpt lat="45.2561" lon="5.02787">
        <ele>248.97</ele>
        <time>2017-02-25T15:11:15Z</time>
      </trkpt>
      <trkpt lat="45.2561" lon="5.02787">
        <ele>248.97</ele>
        <time>2017-02-25T15:11:16Z</time>
      </trkpt>
      <trkpt lat="45.2561" lon="5.02787">
        <ele>248.97</ele>
        <time>2017-02-25T15:11:17Z</time>
      </trkpt>
      <trkpt lat="45.2561" lon="5.02787">
        <ele>248.97</ele>
        <time>2017-02-25T15:11:18Z</time>
      </trkpt>
      <trkpt lat="45.2561" lon="5.02787">
        <ele>248.97</ele>
        <time>2017-02-25T15:11:19Z</time>
      </trkpt>
      <trkpt lat="45.2561" lon="5.02787">
        <ele>248.97</ele>
        <time>2017-02-25T15:11:20Z</time>
      </trkpt>
      <trkpt lat="45.2561" lon="5.02787">
        <ele>248.97</ele>
        <time>2017-02-25T15:11:21Z</time>
      </trkpt>
      <trkpt lat="45.2561" lon="5.02787">
        <ele>248.97</ele>
        <time>2017-02-25T15:11:22Z</time>
      </trkpt>
      <trkpt lat="45.2561" lon="5.02787">
        <ele>248.97</ele>
        <time>2017-02-25T15:11:23Z</time>
      </trkpt>
      <trkpt lat="45.2561" lon="5.02787">
        <ele>248.97</ele>
        <time>2017-02-25T15:11:24Z</time>
      </trkpt>
      <trkpt lat="45.2561" lon="5.02787">
        <ele>248.97</ele>
        <time>2017-02-25T15:11:25Z</time>
      </trkpt>
      <trkpt lat="45.2561" lon="5.02787">
        <ele>248.97</ele>
        <time>2017-02-25T15:11:26Z</time>
      </trkpt>
      <trkpt lat="45.2561" lon="5.02787">
        <ele>248.97</ele>
        <time>2017-02-25T15:11:27Z</time>
      </trkpt>
      <trkpt lat="45.2561" lon="5.02787">
        <ele>248.97</ele>
        <time>2017-02-25T15:11:28Z</time>
      </trkpt>
      <trkpt lat="45.2561" lon="5.02787">
        <ele>248.97</ele>
        <time>2017-02-25T15:11:29Z</time>
      </trkpt>
      <trkpt lat="45.2561" lon="5.02787">
        <ele>248.97</ele>
        <time>2017-02-25T15:11:30Z</time>
      </trkpt>
      <trkpt lat="45.2561" lon="5.02787">
        <ele>248.97</ele>
        <time>2017-02-25T15:11:31Z</time>
      </trkpt>
      <trkpt lat="45.2561" lon="5.02787">
        <ele>248.97</ele>
        <time>2017-02-25T15:11:32Z</time>
      </trkpt>
      <trkpt lat="45.2561" lon="5.02787">
        <ele>248.97</ele>
        <time>2017-02-25T15:11:33Z</time>
      </trkpt>
      <trkpt lat="45.2561" lon="5.02787">
        <ele>248.97</ele>
        <time>2017-02-25T15:11:34Z</time>
      </trkpt>
      <trkpt lat="45.2561" lon="5.02787">
        <ele>248.97</ele>
        <time>2017-02-25T15:11:35Z</time>
      </trkpt>
      <trkpt lat="45.2561" lon="5.02787">
        <ele>248.97</ele>
        <time>2017-02-25T15:11:36Z</time>
      </trkpt>
      <trkpt lat="45.2561" lon="5.02787">
        <ele>248.97</ele>
        <time>2017-02-25T15:11:37Z</time>
      </trkpt>
      <trkpt lat="45.2561" lon="5.02787">
        <ele>248.97</ele>
        <time>2017-02-25T15:11:38Z</time>
      </trkpt>
      <trkpt lat="45.2561" lon="5.02787">
        <ele>248.97</ele>
        <time>2017-02-25T15:11:39Z</time>
      </trkpt>
      <trkpt lat="45.2561" lon="5.02787">
        <ele>248.97</ele>
        <time>2017-02-25T15:11:40Z</time>
      </trkpt>
      <trkpt lat="45.2561" lon="5.02787">
        <ele>248.97</ele>
        <time>2017-02-25T15:11:41Z</time>
      </trkpt>
      <trkpt lat="45.2561" lon="5.02787">
        <ele>248.97</ele>
        <time>2017-02-25T15:11:42Z</time>
      </trkpt>
      <trkpt lat="45.2561" lon="5.02787">
        <ele>248.97</ele>
        <time>2017-02-25T15:11:43Z</time>
      </trkpt>
      <trkpt lat="45.2561" lon="5.02787">
        <ele>248.97</ele>
        <time>2017-02-25T15:11:44Z</time>
      </trkpt>
      <trkpt lat="45.2561" lon="5.02787">
        <ele>248.97</ele>
        <time>2017-02-25T15:11:45Z</time>
      </trkpt>
      <trkpt lat="45.2561" lon="5.02787">
        <ele>248.97</ele>
        <time>2017-02-25T15:11:46Z</time>
      </trkpt>
      <trkpt lat="45.2561" lon="5.02787">
        <ele>248.97</ele>
        <time>2017-02-25T15:11:47Z</time>
      </trkpt>
      <trkpt lat="45.2561" lon="5.02787">
        <ele>248.97</ele>
        <time>2017-02-25T15:11:48Z</time>
      </trkpt>
      <trkpt lat="45.2561" lon="5.02787">
        <ele>248.97</ele>
        <time>2017-02-25T15:11:49Z</time>
      </trkpt>
      <trkpt lat="45.2561" lon="5.02787">
        <ele>248.97</ele>
        <time>2017-02-25T15:11:50Z</time>
      </trkpt>
      <trkpt lat="45.2561" lon="5.02787">
        <ele>248.97</ele>
        <time>2017-02-25T15:11:51Z</time>
      </trkpt>
      <trkpt lat="45.2561" lon="5.02787">
        <ele>248.97</ele>
        <time>2017-02-25T15:11:52Z</time>
      </trkpt>
      <trkpt lat="45.2561" lon="5.02787">
        <ele>248.97</ele>
        <time>2017-02-25T15:11:53Z</time>
      </trkpt>
      <trkpt lat="45.2561" lon="5.02787">
        <ele>248.97</ele>
        <time>2017-02-25T15:11:54Z</time>
      </trkpt>
      <trkpt lat="45.2561" lon="5.02787">
        <ele>248.97</ele>
        <time>2017-02-25T15:11:55Z</time>
      </trkpt>
      <trkpt lat="45.2561" lon="5.02787">
        <ele>248.97</ele>
        <time>2017-02-25T15:11:56Z</time>
      </trkpt>
      <trkpt lat="45.2561" lon="5.02787">
        <ele>248.97</ele>
        <time>2017-02-25T15:11:57Z</time>
      </trkpt>
      <trkpt lat="45.2561" lon="5.02787">
        <ele>248.97</ele>
        <time>2017-02-25T15:11:58Z</time>
      </trkpt>
      <trkpt lat="45.2561" lon="5.02787">
        <ele>248.97</ele>
        <time>2017-02-25T15:11:59Z</time>
      </trkpt>
      <trkpt lat="45.2561" lon="5.02787">
        <ele>248.97</ele>
        <time>2017-02-25T15:12:00Z</time>
      </trkpt>
      <trkpt lat="45.2561" lon="5.02787">
        <ele>248.97</ele>
        <time>2017-02-25T15:12:01Z</time>
      </trkpt>
      <trkpt lat="45.2561" lon="5.02787">
        <ele>248.97</ele>
        <time>2017-02-25T15:12:02Z</time>
      </trkpt>
      <trkpt lat="45.2561" lon="5.02787">
        <ele>248.97</ele>
        <time>2017-02-25T15:12:03Z</time>
      </trkpt>
      <trkpt lat="45.2561" lon="5.02787">
        <ele>248.97</ele>
        <time>2017-02-25T15:12:04Z</time>
      </trkpt>
      <trkpt lat="45.2561" lon="5.02787">
        <ele>248.97</ele>
        <time>2017-02-25T15:12:05Z</time>
      </trkpt>
      <trkpt lat="45.2561" lon="5.02787">
        <ele>248.97</ele>
        <time>2017-02-25T15:12:06Z</time>
      </trkpt>
      <trkpt lat="45.2561" lon="5.02787">
        <ele>248.97</ele>
        <time>2017-02-25T15:12:07Z</time>
      </trkpt>
      <trkpt lat="45.2561" lon="5.02787">
        <ele>248.97</ele>
        <time>2017-02-25T15:12:08Z</time>
      </trkpt>
      <trkpt lat="45.2561" lon="5.02787">
        <ele>248.97</ele>
        <time>2017-02-25T15:12:09Z</time>
      </trkpt>
      <trkpt lat="45.2561" lon="5.02787">
        <ele>248.97</ele>
        <time>2017-02-25T15:12:10Z</time>
      </trkpt>
      <trkpt lat="45.2561" lon="5.02787">
        <ele>248.97</ele>
        <time>2017-02-25T15:12:11Z</time>
      </trkpt>
      <trkpt lat="45.2561" lon="5.02787">
        <ele>248.97</ele>
        <time>2017-02-25T15:12:12Z</time>
      </trkpt>
      <trkpt lat="45.2561" lon="5.02787">
        <ele>248.97</ele>
        <time>2017-02-25T15:12:13Z</time>
      </trkpt>
      <trkpt lat="45.2561" lon="5.02787">
        <ele>248.97</ele>
        <time>2017-02-25T15:12:14Z</time>
      </trkpt>
      <trkpt lat="45.2561" lon="5.02787">
        <ele>248.97</ele>
        <time>2017-02-25T15:12:15Z</time>
      </trkpt>
      <trkpt lat="45.2561" lon="5.02787">
        <ele>248.97</ele>
        <time>2017-02-25T15:12:16Z</time>
      </trkpt>
      <trkpt lat="45.2561" lon="5.02787">
        <ele>248.97</ele>
        <time>2017-02-25T15:12:17Z</time>
      </trkpt>
      <trkpt lat="45.2561" lon="5.02787">
        <ele>248.97</ele>
        <time>2017-02-25T15:12:18Z</time>
      </trkpt>
      <trkpt lat="45.2561" lon="5.02787">
        <ele>248.97</ele>
        <time>2017-02-25T15:12:19Z</time>
      </trkpt>
      <trkpt lat="45.2561" lon="5.02787">
        <ele>248.97</ele>
        <time>2017-02-25T15:12:20Z</time>
      </trkpt>
      <trkpt lat="45.2561" lon="5.02787">
        <ele>248.97</ele>
        <time>2017-02-25T15:12:21Z</time>
      </trkpt>
      <trkpt lat="45.2561" lon="5.02787">
        <ele>248.97</ele>
        <time>2017-02-25T15:12:22Z</time>
      </trkpt>
      <trkpt lat="45.2561" lon="5.02787">
        <ele>248.97</ele>
        <time>2017-02-25T15:12:24Z</time>
      </trkpt>
      <trkpt lat="45.2561" lon="5.02787">
        <ele>248.97</ele>
        <time>2017-02-25T15:12:25Z</time>
      </trkpt>
      <trkpt lat="45.2561" lon="5.02787">
        <ele>248.97</ele>
        <time>2017-02-25T15:12:26Z</time>
      </trkpt>
      <trkpt lat="45.2561" lon="5.02787">
        <ele>248.97</ele>
        <time>2017-02-25T15:12:27Z</time>
      </trkpt>
      <trkpt lat="45.2561" lon="5.02787">
        <ele>248.97</ele>
        <time>2017-02-25T15:12:28Z</time>
      </trkpt>
      <trkpt lat="45.2561" lon="5.02787">
        <ele>248.97</ele>
        <time>2017-02-25T15:12:29Z</time>
      </trkpt>
      <trkpt lat="45.2561" lon="5.02787">
        <ele>248.97</ele>
        <time>2017-02-25T15:12:30Z</time>
      </trkpt>
      <trkpt lat="45.2561" lon="5.02787">
        <ele>248.97</ele>
        <time>2017-02-25T15:12:31Z</time>
      </trkpt>
      <trkpt lat="45.2561" lon="5.02787">
        <ele>248.97</ele>
        <time>2017-02-25T15:12:32Z</time>
      </trkpt>
      <trkpt lat="45.2561" lon="5.02787">
        <ele>248.97</ele>
        <time>2017-02-25T15:12:33Z</time>
      </trkpt>
      <trkpt lat="45.2561" lon="5.02787">
        <ele>248.97</ele>
        <time>2017-02-25T15:12:34Z</time>
      </trkpt>
      <trkpt lat="45.2561" lon="5.02787">
        <ele>248.97</ele>
        <time>2017-02-25T15:12:35Z</time>
      </trkpt>
      <trkpt lat="45.2561" lon="5.02787">
        <ele>248.97</ele>
        <time>2017-02-25T15:12:36Z</time>
      </trkpt>
      <trkpt lat="45.2561" lon="5.02787">
        <ele>248.97</ele>
        <time>2017-02-25T15:12:37Z</time>
      </trkpt>
      <trkpt lat="45.2561" lon="5.02787">
        <ele>248.97</ele>
        <time>2017-02-25T15:12:38Z</time>
      </trkpt>
      <trkpt lat="45.2561" lon="5.02787">
        <ele>248.97</ele>
        <time>2017-02-25T15:12:39Z</time>
      </trkpt>
      <trkpt lat="45.2561" lon="5.02787">
        <ele>248.97</ele>
        <time>2017-02-25T15:12:40Z</time>
      </trkpt>
      <trkpt lat="45.2561" lon="5.02787">
        <ele>248.97</ele>
        <time>2017-02-25T15:12:41Z</time>
      </trkpt>
      <trkpt lat="45.2561" lon="5.02787">
        <ele>248.97</ele>
        <time>2017-02-25T15:12:42Z</time>
      </trkpt>
      <trkpt lat="45.2561" lon="5.02787">
        <ele>248.97</ele>
        <time>2017-02-25T15:12:43Z</time>
      </trkpt>
      <trkpt lat="45.2561" lon="5.02787">
        <ele>248.97</ele>
        <time>2017-02-25T15:12:44Z</time>
      </trkpt>
      <trkpt lat="45.2561" lon="5.02787">
        <ele>248.97</ele>
        <time>2017-02-25T15:12:45Z</time>
      </trkpt>
      <trkpt lat="45.2561" lon="5.02787">
        <ele>248.97</ele>
        <time>2017-02-25T15:12:46Z</time>
      </trkpt>
      <trkpt lat="45.2561" lon="5.02787">
        <ele>248.97</ele>
        <time>2017-02-25T15:12:47Z</time>
      </trkpt>
      <trkpt lat="45.2561" lon="5.02787">
        <ele>248.97</ele>
        <time>2017-02-25T15:12:48Z</time>
      </trkpt>
      <trkpt lat="45.2561" lon="5.02787">
        <ele>248.97</ele>
        <time>2017-02-25T15:12:49Z</time>
      </trkpt>
      <trkpt lat="45.2561" lon="5.02787">
        <ele>248.97</ele>
        <time>2017-02-25T15:12:50Z</time>
      </trkpt>
      <trkpt lat="45.2561" lon="5.02787">
        <ele>248.97</ele>
        <time>2017-02-25T15:12:51Z</time>
      </trkpt>
      <trkpt lat="45.2561" lon="5.02787">
        <ele>248.97</ele>
        <time>2017-02-25T15:12:52Z</time>
      </trkpt>
      <trkpt lat="45.2561" lon="5.02787">
        <ele>248.97</ele>
        <time>2017-02-25T15:12:53Z</time>
      </trkpt>
      <trkpt lat="45.2561" lon="5.02787">
        <ele>248.97</ele>
        <time>2017-02-25T15:12:54Z</time>
      </trkpt>
      <trkpt lat="45.2561" lon="5.02787">
        <ele>248.97</ele>
        <time>2017-02-25T15:12:55Z</time>
      </trkpt>
      <trkpt lat="45.2561" lon="5.02787">
        <ele>248.97</ele>
        <time>2017-02-25T15:12:56Z</time>
      </trkpt>
      <trkpt lat="45.2561" lon="5.02787">
        <ele>248.97</ele>
        <time>2017-02-25T15:12:57Z</time>
      </trkpt>
      <trkpt lat="45.2561" lon="5.02787">
        <ele>248.97</ele>
        <time>2017-02-25T15:12:58Z</time>
      </trkpt>
      <trkpt lat="45.2561" lon="5.02787">
        <ele>248.97</ele>
        <time>2017-02-25T15:12:59Z</time>
      </trkpt>
      <trkpt lat="45.2561" lon="5.02787">
        <ele>248.97</ele>
        <time>2017-02-25T15:13:00Z</time>
      </trkpt>
      <trkpt lat="45.2561" lon="5.02787">
        <ele>248.97</ele>
        <time>2017-02-25T15:13:01Z</time>
      </trkpt>
      <trkpt lat="45.2561" lon="5.02787">
        <ele>248.97</ele>
        <time>2017-02-25T15:13:02Z</time>
      </trkpt>
      <trkpt lat="45.2561" lon="5.02787">
        <ele>248.97</ele>
        <time>2017-02-25T15:13:03Z</time>
      </trkpt>
      <trkpt lat="45.2561" lon="5.02787">
        <ele>248.97</ele>
        <time>2017-02-25T15:13:04Z</time>
      </trkpt>
      <trkpt lat="45.2561" lon="5.02787">
        <ele>248.97</ele>
        <time>2017-02-25T15:13:05Z</time>
      </trkpt>
      <trkpt lat="45.2561" lon="5.02787">
        <ele>248.97</ele>
        <time>2017-02-25T15:13:06Z</time>
      </trkpt>
      <trkpt lat="45.2561" lon="5.02787">
        <ele>248.97</ele>
        <time>2017-02-25T15:13:07Z</time>
      </trkpt>
      <trkpt lat="45.25618" lon="5.0278">
        <ele>249.37</ele>
        <time>2017-02-25T15:13:08Z</time>
      </trkpt>
      <trkpt lat="45.25618" lon="5.0278">
        <ele>249.45</ele>
        <time>2017-02-25T15:13:09Z</time>
      </trkpt>
      <trkpt lat="45.25618" lon="5.02779">
        <ele>249.46</ele>
        <time>2017-02-25T15:13:10Z</time>
      </trkpt>
      <trkpt lat="45.25619" lon="5.02779">
        <ele>249.55</ele>
        <time>2017-02-25T15:13:11Z</time>
      </trkpt>
      <trkpt lat="45.25619" lon="5.02779">
        <ele>249.56</ele>
        <time>2017-02-25T15:13:12Z</time>
      </trkpt>
      <trkpt lat="45.25619" lon="5.02779">
        <ele>249.57</ele>
        <time>2017-02-25T15:13:13Z</time>
      </trkpt>
      <trkpt lat="45.25619" lon="5.02779">
        <ele>249.57</ele>
        <time>2017-02-25T15:13:14Z</time>
      </trkpt>
      <trkpt lat="45.25619" lon="5.02779">
        <ele>249.57</ele>
        <time>2017-02-25T15:13:15Z</time>
      </trkpt>
      <trkpt lat="45.25619" lon="5.02779">
        <ele>249.57</ele>
        <time>2017-02-25T15:13:16Z</time>
      </trkpt>
      <trkpt lat="45.25619" lon="5.02779">
        <ele>249.57</ele>
        <time>2017-02-25T15:13:17Z</time>
      </trkpt>
      <trkpt lat="45.25619" lon="5.02779">
        <ele>249.57</ele>
        <time>2017-02-25T15:13:18Z</time>
      </trkpt>
      <trkpt lat="45.25619" lon="5.02779">
        <ele>249.57</ele>
        <time>2017-02-25T15:13:19Z</time>
      </trkpt>
      <trkpt lat="45.25619" lon="5.02779">
        <ele>249.57</ele>
        <time>2017-02-25T15:13:20Z</time>
      </trkpt>
      <trkpt lat="45.25619" lon="5.02779">
        <ele>249.57</ele>
        <time>2017-02-25T15:13:21Z</time>
      </trkpt>
      <trkpt lat="45.25619" lon="5.02779">
        <ele>249.57</ele>
        <time>2017-02-25T15:13:22Z</time>
      </trkpt>
      <trkpt lat="45.25619" lon="5.02779">
        <ele>249.57</ele>
        <time>2017-02-25T15:13:23Z</time>
      </trkpt>
      <trkpt lat="45.25619" lon="5.02779">
        <ele>249.57</ele>
        <time>2017-02-25T15:13:24Z</time>
      </trkpt>
      <trkpt lat="45.25619" lon="5.02779">
        <ele>249.57</ele>
        <time>2017-02-25T15:13:25Z</time>
      </trkpt>
      <trkpt lat="45.25619" lon="5.02779">
        <ele>249.57</ele>
        <time>2017-02-25T15:13:26Z</time>
      </trkpt>
      <trkpt lat="45.25619" lon="5.02779">
        <ele>249.57</ele>
        <time>2017-02-25T15:13:27Z</time>
      </trkpt>
      <trkpt lat="45.25619" lon="5.02779">
        <ele>249.57</ele>
        <time>2017-02-25T15:13:28Z</time>
      </trkpt>
      <trkpt lat="45.25619" lon="5.02779">
        <ele>249.57</ele>
        <time>2017-02-25T15:13:29Z</time>
      </trkpt>
      <trkpt lat="45.25619" lon="5.02779">
        <ele>249.57</ele>
        <time>2017-02-25T15:13:30Z</time>
      </trkpt>
      <trkpt lat="45.25619" lon="5.02779">
        <ele>249.57</ele>
        <time>2017-02-25T15:13:31Z</time>
      </trkpt>
      <trkpt lat="45.25619" lon="5.02779">
        <ele>249.57</ele>
        <time>2017-02-25T15:13:32Z</time>
      </trkpt>
      <trkpt lat="45.25619" lon="5.02779">
        <ele>249.57</ele>
        <time>2017-02-25T15:13:33Z</time>
      </trkpt>
      <trkpt lat="45.25619" lon="5.02779">
        <ele>249.57</ele>
        <time>2017-02-25T15:13:34Z</time>
      </trkpt>
      <trkpt lat="45.25619" lon="5.02779">
        <ele>249.57</ele>
        <time>2017-02-25T15:13:35Z</time>
      </trkpt>
      <trkpt lat="45.25619" lon="5.02779">
        <ele>249.57</ele>
        <time>2017-02-25T15:13:36Z</time>
      </trkpt>
      <trkpt lat="45.25619" lon="5.02779">
        <ele>249.57</ele>
        <time>2017-02-25T15:13:37Z</time>
      </trkpt>
      <trkpt lat="45.25619" lon="5.02779">
        <ele>249.57</ele>
        <time>2017-02-25T15:13:38Z</time>
      </trkpt>
      <trkpt lat="45.25619" lon="5.02779">
        <ele>249.57</ele>
        <time>2017-02-25T15:13:39Z</time>
      </trkpt>
      <trkpt lat="45.25619" lon="5.02779">
        <ele>249.57</ele>
        <time>2017-02-25T15:13:40Z</time>
      </trkpt>
      <trkpt lat="45.25619" lon="5.02779">
        <ele>249.57</ele>
        <time>2017-02-25T15:13:41Z</time>
      </trkpt>
      <trkpt lat="45.25619" lon="5.02779">
        <ele>249.57</ele>
        <time>2017-02-25T15:13:42Z</time>
      </trkpt>
      <trkpt lat="45.25619" lon="5.02779">
        <ele>249.57</ele>
        <time>2017-02-25T15:13:43Z</time>
      </trkpt>
      <trkpt lat="45.25619" lon="5.02779">
        <ele>249.57</ele>
        <time>2017-02-25T15:13:44Z</time>
      </trkpt>
      <trkpt lat="45.25619" lon="5.02779">
        <ele>249.57</ele>
        <time>2017-02-25T15:13:45Z</time>
      </trkpt>
      <trkpt lat="45.25619" lon="5.02779">
        <ele>249.57</ele>
        <time>2017-02-25T15:13:46Z</time>
      </trkpt>
      <trkpt lat="45.25619" lon="5.02779">
        <ele>249.57</ele>
        <time>2017-02-25T15:13:47Z</time>
      </trkpt>
      <trkpt lat="45.25619" lon="5.02779">
        <ele>249.57</ele>
        <time>2017-02-25T15:13:48Z</time>
      </trkpt>
      <trkpt lat="45.25619" lon="5.02779">
        <ele>249.57</ele>
        <time>2017-02-25T15:13:49Z</time>
      </trkpt>
      <trkpt lat="45.25619" lon="5.02779">
        <ele>249.57</ele>
        <time>2017-02-25T15:13:50Z</time>
      </trkpt>
      <trkpt lat="45.25619" lon="5.02779">
        <ele>249.57</ele>
        <time>2017-02-25T15:13:51Z</time>
      </trkpt>
      <trkpt lat="45.25619" lon="5.02779">
        <ele>249.57</ele>
        <time>2017-02-25T15:13:52Z</time>
      </trkpt>
      <trkpt lat="45.25619" lon="5.02779">
        <ele>249.57</ele>
        <time>2017-02-25T15:13:53Z</time>
      </trkpt>
      <trkpt lat="45.25619" lon="5.02779">
        <ele>249.57</ele>
        <time>2017-02-25T15:13:54Z</time>
      </trkpt>
      <trkpt lat="45.25619" lon="5.02779">
        <ele>249.57</ele>
        <time>2017-02-25T15:13:55Z</time>
      </trkpt>
      <trkpt lat="45.25619" lon="5.02779">
        <ele>249.57</ele>
        <time>2017-02-25T15:13:56Z</time>
      </trkpt>
      <trkpt lat="45.25619" lon="5.02779">
        <ele>249.57</ele>
        <time>2017-02-25T15:13:57Z</time>
      </trkpt>
      <trkpt lat="45.25619" lon="5.02779">
        <ele>249.57</ele>
        <time>2017-02-25T15:13:58Z</time>
      </trkpt>
      <trkpt lat="45.25619" lon="5.02779">
        <ele>249.57</ele>
        <time>2017-02-25T15:13:59Z</time>
      </trkpt>
      <trkpt lat="45.25619" lon="5.02779">
        <ele>249.57</ele>
        <time>2017-02-25T15:14:00Z</time>
      </trkpt>
      <trkpt lat="45.25619" lon="5.02779">
        <ele>249.57</ele>
        <time>2017-02-25T15:14:01Z</time>
      </trkpt>
      <trkpt lat="45.25619" lon="5.02779">
        <ele>249.57</ele>
        <time>2017-02-25T15:14:02Z</time>
      </trkpt>
      <trkpt lat="45.25619" lon="5.02779">
        <ele>249.57</ele>
        <time>2017-02-25T15:14:03Z</time>
      </trkpt>
      <trkpt lat="45.25619" lon="5.02779">
        <ele>249.57</ele>
        <time>2017-02-25T15:14:04Z</time>
      </trkpt>
      <trkpt lat="45.25619" lon="5.02779">
        <ele>249.57</ele>
        <time>2017-02-25T15:14:05Z</time>
      </trkpt>
      <trkpt lat="45.25619" lon="5.02779">
        <ele>249.57</ele>
        <time>2017-02-25T15:14:06Z</time>
      </trkpt>
      <trkpt lat="45.25619" lon="5.02779">
        <ele>249.57</ele>
        <time>2017-02-25T15:14:07Z</time>
      </trkpt>
      <trkpt lat="45.25619" lon="5.02779">
        <ele>249.57</ele>
        <time>2017-02-25T15:14:08Z</time>
      </trkpt>
      <trkpt lat="45.25619" lon="5.02779">
        <ele>249.57</ele>
        <time>2017-02-25T15:14:09Z</time>
      </trkpt>
      <trkpt lat="45.25619" lon="5.02779">
        <ele>249.57</ele>
        <time>2017-02-25T15:14:10Z</time>
      </trkpt>
      <trkpt lat="45.25619" lon="5.02779">
        <ele>249.57</ele>
        <time>2017-02-25T15:14:11Z</time>
      </trkpt>
      <trkpt lat="45.25619" lon="5.02779">
        <ele>249.57</ele>
        <time>2017-02-25T15:14:12Z</time>
      </trkpt>
      <trkpt lat="45.25619" lon="5.02779">
        <ele>249.57</ele>
        <time>2017-02-25T15:14:13Z</time>
      </trkpt>
      <trkpt lat="45.25619" lon="5.02779">
        <ele>249.57</ele>
        <time>2017-02-25T15:14:14Z</time>
      </trkpt>
      <trkpt lat="45.25619" lon="5.02779">
        <ele>249.57</ele>
        <time>2017-02-25T15:14:15Z</time>
      </trkpt>
      <trkpt lat="45.25619" lon="5.02779">
        <ele>249.57</ele>
        <time>2017-02-25T15:14:16Z</time>
      </trkpt>
      <trkpt lat="45.25619" lon="5.02779">
        <ele>249.57</ele>
        <time>2017-02-25T15:14:17Z</time>
      </trkpt>
      <trkpt lat="45.25619" lon="5.02779">
        <ele>249.57</ele>
        <time>2017-02-25T15:14:18Z</time>
      </trkpt>
      <trkpt lat="45.25619" lon="5.02779">
        <ele>249.57</ele>
        <time>2017-02-25T15:14:19Z</time>
      </trkpt>
      <trkpt lat="45.25619" lon="5.02779">
        <ele>249.57</ele>
        <time>2017-02-25T15:14:20Z</time>
      </trkpt>
      <trkpt lat="45.25619" lon="5.02779">
        <ele>249.57</ele>
        <time>2017-02-25T15:14:21Z</time>
      </trkpt>
      <trkpt lat="45.25619" lon="5.02779">
        <ele>249.57</ele>
        <time>2017-02-25T15:14:22Z</time>
      </trkpt>
      <trkpt lat="45.25619" lon="5.02779">
        <ele>249.57</ele>
        <time>2017-02-25T15:14:23Z</time>
      </trkpt>
      <trkpt lat="45.25619" lon="5.02779">
        <ele>249.57</ele>
        <time>2017-02-25T15:14:24Z</time>
      </trkpt>
      <trkpt lat="45.25626" lon="5.02771">
        <ele>249.73</ele>
        <time>2017-02-25T15:14:25Z</time>
      </trkpt>
      <trkpt lat="45.25626" lon="5.0277">
        <ele>249.76</ele>
        <time>2017-02-25T15:14:26Z</time>
      </trkpt>
      <trkpt lat="45.25626" lon="5.0277">
        <ele>249.77</ele>
        <time>2017-02-25T15:14:27Z</time>
      </trkpt>
      <trkpt lat="45.25626" lon="5.0277">
        <ele>249.77</ele>
        <time>2017-02-25T15:14:28Z</time>
      </trkpt>
      <trkpt lat="45.25626" lon="5.0277">
        <ele>249.77</ele>
        <time>2017-02-25T15:14:29Z</time>
      </trkpt>
      <trkpt lat="45.25626" lon="5.0277">
        <ele>249.77</ele>
        <time>2017-02-25T15:14:30Z</time>
      </trkpt>
      <trkpt lat="45.25626" lon="5.0277">
        <ele>249.77</ele>
        <time>2017-02-25T15:14:31Z</time>
      </trkpt>
      <trkpt lat="45.25626" lon="5.0277">
        <ele>249.77</ele>
        <time>2017-02-25T15:14:32Z</time>
      </trkpt>
      <trkpt lat="45.25626" lon="5.0277">
        <ele>249.77</ele>
        <time>2017-02-25T15:14:33Z</time>
      </trkpt>
      <trkpt lat="45.25626" lon="5.0277">
        <ele>249.77</ele>
        <time>2017-02-25T15:14:34Z</time>
      </trkpt>
      <trkpt lat="45.25626" lon="5.0277">
        <ele>249.77</ele>
        <time>2017-02-25T15:14:35Z</time>
      </trkpt>
      <trkpt lat="45.25626" lon="5.0277">
        <ele>249.77</ele>
        <time>2017-02-25T15:14:36Z</time>
      </trkpt>
      <trkpt lat="45.25626" lon="5.0277">
        <ele>249.77</ele>
        <time>2017-02-25T15:14:37Z</time>
      </trkpt>
      <trkpt lat="45.25626" lon="5.0277">
        <ele>249.77</ele>
        <time>2017-02-25T15:14:38Z</time>
      </trkpt>
      <trkpt lat="45.25626" lon="5.0277">
        <ele>249.77</ele>
        <time>2017-02-25T15:14:39Z</time>
      </trkpt>
      <trkpt lat="45.25626" lon="5.0277">
        <ele>249.77</ele>
        <time>2017-02-25T15:14:40Z</time>
      </trkpt>
      <trkpt lat="45.25626" lon="5.0277">
        <ele>249.77</ele>
        <time>2017-02-25T15:14:41Z</time>
      </trkpt>
      <trkpt lat="45.25626" lon="5.0277">
        <ele>249.77</ele>
        <time>2017-02-25T15:14:42Z</time>
      </trkpt>
      <trkpt lat="45.25626" lon="5.0277">
        <ele>249.77</ele>
        <time>2017-02-25T15:14:43Z</time>
      </trkpt>
      <trkpt lat="45.25626" lon="5.0277">
        <ele>249.77</ele>
        <time>2017-02-25T15:14:44Z</time>
      </trkpt>
      <trkpt lat="45.25626" lon="5.0277">
        <ele>249.77</ele>
        <time>2017-02-25T15:14:45Z</time>
      </trkpt>
      <trkpt lat="45.25626" lon="5.0277">
        <ele>249.77</ele>
        <time>2017-02-25T15:14:46Z</time>
      </trkpt>
      <trkpt lat="45.25626" lon="5.0277">
        <ele>249.77</ele>
        <time>2017-02-25T15:14:47Z</time>
      </trkpt>
      <trkpt lat="45.25626" lon="5.0277">
        <ele>249.77</ele>
        <time>2017-02-25T15:14:48Z</time>
      </trkpt>
      <trkpt lat="45.25626" lon="5.0277">
        <ele>249.77</ele>
        <time>2017-02-25T15:14:49Z</time>
      </trkpt>
      <trkpt lat="45.25626" lon="5.0277">
        <ele>249.77</ele>
        <time>2017-02-25T15:14:50Z</time>
      </trkpt>
      <trkpt lat="45.25626" lon="5.0277">
        <ele>249.77</ele>
        <time>2017-02-25T15:14:51Z</time>
      </trkpt>
      <trkpt lat="45.25626" lon="5.0277">
        <ele>249.77</ele>
        <time>2017-02-25T15:14:52Z</time>
      </trkpt>
      <trkpt lat="45.25626" lon="5.0277">
        <ele>249.77</ele>
        <time>2017-02-25T15:14:53Z</time>
      </trkpt>
      <trkpt lat="45.25626" lon="5.0277">
        <ele>249.77</ele>
        <time>2017-02-25T15:14:54Z</time>
      </trkpt>
      <trkpt lat="45.25626" lon="5.0277">
        <ele>249.77</ele>
        <time>2017-02-25T15:14:55Z</time>
      </trkpt>
      <trkpt lat="45.25626" lon="5.0277">
        <ele>249.77</ele>
        <time>2017-02-25T15:14:56Z</time>
      </trkpt>
      <trkpt lat="45.25626" lon="5.0277">
        <ele>249.77</ele>
        <time>2017-02-25T15:14:57Z</time>
      </trkpt>
      <trkpt lat="45.25618" lon="5.02778">
        <ele>249.77</ele>
        <time>2017-02-25T15:14:58Z</time>
      </trkpt>
      <trkpt lat="45.25618" lon="5.02778">
        <ele>249.77</ele>
        <time>2017-02-25T15:14:59Z</time>
      </trkpt>
      <trkpt lat="45.25617" lon="5.02778">
        <ele>249.77</ele>
        <time>2017-02-25T15:15:00Z</time>
      </trkpt>
      <trkpt lat="45.25617" lon="5.02779">
        <ele>249.77</ele>
        <time>2017-02-25T15:15:01Z</time>
      </trkpt>
      <trkpt lat="45.25617" lon="5.02779">
        <ele>249.77</ele>
        <time>2017-02-25T15:15:02Z</time>
      </trkpt>
      <trkpt lat="45.25617" lon="5.02779">
        <ele>249.77</ele>
        <time>2017-02-25T15:15:03Z</time>
      </trkpt>
      <trkpt lat="45.25617" lon="5.02779">
        <ele>249.77</ele>
        <time>2017-02-25T15:15:04Z</time>
      </trkpt>
      <trkpt lat="45.25617" lon="5.02779">
        <ele>249.77</ele>
        <time>2017-02-25T15:15:05Z</time>
      </trkpt>
      <trkpt lat="45.25617" lon="5.02779">
        <ele>249.77</ele>
        <time>2017-02-25T15:15:06Z</time>
      </trkpt>
      <trkpt lat="45.25617" lon="5.02779">
        <ele>249.77</ele>
        <time>2017-02-25T15:15:07Z</time>
      </trkpt>
      <trkpt lat="45.25617" lon="5.02779">
        <ele>249.77</ele>
        <time>2017-02-25T15:15:08Z</time>
      </trkpt>
      <trkpt lat="45.25617" lon="5.02779">
        <ele>249.77</ele>
        <time>2017-02-25T15:15:09Z</time>
      </trkpt>
      <trkpt lat="45.25617" lon="5.02779">
        <ele>249.77</ele>
        <time>2017-02-25T15:15:10Z</time>
      </trkpt>
      <trkpt lat="45.25617" lon="5.02779">
        <ele>249.77</ele>
        <time>2017-02-25T15:15:11Z</time>
      </trkpt>
      <trkpt lat="45.25617" lon="5.02779">
        <ele>249.77</ele>
        <time>2017-02-25T15:15:12Z</time>
      </trkpt>
      <trkpt lat="45.25617" lon="5.02779">
        <ele>249.77</ele>
        <time>2017-02-25T15:15:13Z</time>
      </trkpt>
      <trkpt lat="45.25617" lon="5.02779">
        <ele>249.77</ele>
        <time>2017-02-25T15:15:14Z</time>
      </trkpt>
      <trkpt lat="45.25617" lon="5.02779">
        <ele>249.77</ele>
        <time>2017-02-25T15:15:15Z</time>
      </trkpt>
      <trkpt lat="45.25617" lon="5.02779">
        <ele>249.77</ele>
        <time>2017-02-25T15:15:16Z</time>
      </trkpt>
      <trkpt lat="45.25617" lon="5.02779">
        <ele>249.77</ele>
        <time>2017-02-25T15:15:17Z</time>
      </trkpt>
      <trkpt lat="45.25617" lon="5.02779">
        <ele>249.77</ele>
        <time>2017-02-25T15:15:18Z</time>
      </trkpt>
      <trkpt lat="45.25617" lon="5.02779">
        <ele>249.77</ele>
        <time>2017-02-25T15:15:19Z</time>
      </trkpt>
      <trkpt lat="45.25617" lon="5.02779">
        <ele>249.77</ele>
        <time>2017-02-25T15:15:20Z</time>
      </trkpt>
      <trkpt lat="45.25617" lon="5.02779">
        <ele>249.77</ele>
        <time>2017-02-25T15:15:21Z</time>
      </trkpt>
      <trkpt lat="45.25617" lon="5.02779">
        <ele>249.77</ele>
        <time>2017-02-25T15:15:22Z</time>
      </trkpt>
      <trkpt lat="45.25617" lon="5.02779">
        <ele>249.77</ele>
        <time>2017-02-25T15:15:23Z</time>
      </trkpt>
      <trkpt lat="45.25617" lon="5.02779">
        <ele>249.77</ele>
        <time>2017-02-25T15:15:24Z</time>
      </trkpt>
      <trkpt lat="45.25617" lon="5.02779">
        <ele>249.77</ele>
        <time>2017-02-25T15:15:25Z</time>
      </trkpt>
      <trkpt lat="45.25617" lon="5.02779">
        <ele>249.77</ele>
        <time>2017-02-25T15:15:26Z</time>
      </trkpt>
      <trkpt lat="45.25617" lon="5.02779">
        <ele>249.77</ele>
        <time>2017-02-25T15:15:27Z</time>
      </trkpt>
      <trkpt lat="45.25617" lon="5.02779">
        <ele>249.77</ele>
        <time>2017-02-25T15:15:28Z</time>
      </trkpt>
      <trkpt lat="45.25617" lon="5.02779">
        <ele>249.77</ele>
        <time>2017-02-25T15:15:29Z</time>
      </trkpt>
      <trkpt lat="45.25617" lon="5.02779">
        <ele>249.77</ele>
        <time>2017-02-25T15:15:30Z</time>
      </trkpt>
      <trkpt lat="45.25617" lon="5.02779">
        <ele>249.77</ele>
        <time>2017-02-25T15:15:31Z</time>
      </trkpt>
      <trkpt lat="45.25617" lon="5.02779">
        <ele>249.77</ele>
        <time>2017-02-25T15:15:32Z</time>
      </trkpt>
      <trkpt lat="45.25617" lon="5.02779">
        <ele>249.77</ele>
        <time>2017-02-25T15:15:33Z</time>
      </trkpt>
      <trkpt lat="45.25617" lon="5.02779">
        <ele>249.77</ele>
        <time>2017-02-25T15:15:34Z</time>
      </trkpt>
      <trkpt lat="45.25617" lon="5.02779">
        <ele>249.77</ele>
        <time>2017-02-25T15:15:35Z</time>
      </trkpt>
      <trkpt lat="45.25617" lon="5.02779">
        <ele>249.77</ele>
        <time>2017-02-25T15:15:36Z</time>
      </trkpt>
      <trkpt lat="45.25617" lon="5.02779">
        <ele>249.77</ele>
        <time>2017-02-25T15:15:37Z</time>
      </trkpt>
      <trkpt lat="45.25617" lon="5.02779">
        <ele>249.77</ele>
        <time>2017-02-25T15:15:38Z</time>
      </trkpt>
      <trkpt lat="45.25617" lon="5.02779">
        <ele>249.77</ele>
        <time>2017-02-25T15:15:39Z</time>
      </trkpt>
      <trkpt lat="45.25617" lon="5.02779">
        <ele>249.77</ele>
        <time>2017-02-25T15:15:40Z</time>
      </trkpt>
      <trkpt lat="45.25617" lon="5.02779">
        <ele>249.77</ele>
        <time>2017-02-25T15:15:41Z</time>
      </trkpt>
      <trkpt lat="45.25617" lon="5.02779">
        <ele>249.77</ele>
        <time>2017-02-25T15:15:42Z</time>
      </trkpt>
      <trkpt lat="45.25617" lon="5.02779">
        <ele>249.77</ele>
        <time>2017-02-25T15:15:43Z</time>
      </trkpt>
      <trkpt lat="45.25617" lon="5.02779">
        <ele>249.77</ele>
        <time>2017-02-25T15:15:44Z</time>
      </trkpt>
      <trkpt lat="45.25617" lon="5.02779">
        <ele>249.77</ele>
        <time>2017-02-25T15:15:45Z</time>
      </trkpt>
      <trkpt lat="45.25617" lon="5.02779">
        <ele>249.77</ele>
        <time>2017-02-25T15:15:46Z</time>
      </trkpt>
      <trkpt lat="45.25617" lon="5.02779">
        <ele>249.77</ele>
        <time>2017-02-25T15:15:47Z</time>
      </trkpt>
      <trkpt lat="45.25617" lon="5.02779">
        <ele>249.77</ele>
        <time>2017-02-25T15:15:48Z</time>
      </trkpt>
      <trkpt lat="45.25617" lon="5.02779">
        <ele>249.77</ele>
        <time>2017-02-25T15:15:49Z</time>
      </trkpt>
      <trkpt lat="45.25617" lon="5.02779">
        <ele>249.77</ele>
        <time>2017-02-25T15:15:50Z</time>
      </trkpt>
      <trkpt lat="45.25617" lon="5.02779">
        <ele>249.77</ele>
        <time>2017-02-25T15:15:51Z</time>
      </trkpt>
      <trkpt lat="45.25617" lon="5.02779">
        <ele>249.77</ele>
        <time>2017-02-25T15:15:52Z</time>
      </trkpt>
      <trkpt lat="45.25617" lon="5.02779">
        <ele>249.77</ele>
        <time>2017-02-25T15:15:53Z</time>
      </trkpt>
      <trkpt lat="45.25617" lon="5.02779">
        <ele>249.77</ele>
        <time>2017-02-25T15:15:54Z</time>
      </trkpt>
      <trkpt lat="45.25617" lon="5.02779">
        <ele>249.77</ele>
        <time>2017-02-25T15:15:55Z</time>
      </trkpt>
      <trkpt lat="45.25617" lon="5.02779">
        <ele>249.77</ele>
        <time>2017-02-25T15:15:56Z</time>
      </trkpt>
      <trkpt lat="45.25617" lon="5.02779">
        <ele>249.77</ele>
        <time>2017-02-25T15:15:57Z</time>
      </trkpt>
      <trkpt lat="45.25617" lon="5.02779">
        <ele>249.77</ele>
        <time>2017-02-25T15:15:58Z</time>
      </trkpt>
      <trkpt lat="45.25617" lon="5.02779">
        <ele>249.77</ele>
        <time>2017-02-25T15:15:59Z</time>
      </trkpt>
      <trkpt lat="45.25617" lon="5.02779">
        <ele>249.77</ele>
        <time>2017-02-25T15:16:00Z</time>
      </trkpt>
      <trkpt lat="45.25617" lon="5.02779">
        <ele>249.77</ele>
        <time>2017-02-25T15:16:01Z</time>
      </trkpt>
      <trkpt lat="45.25617" lon="5.02779">
        <ele>249.77</ele>
        <time>2017-02-25T15:16:02Z</time>
      </trkpt>
      <trkpt lat="45.25617" lon="5.02779">
        <ele>249.77</ele>
        <time>2017-02-25T15:16:03Z</time>
      </trkpt>
      <trkpt lat="45.25617" lon="5.02779">
        <ele>249.77</ele>
        <time>2017-02-25T15:16:04Z</time>
      </trkpt>
      <trkpt lat="45.25617" lon="5.02779">
        <ele>249.77</ele>
        <time>2017-02-25T15:16:05Z</time>
      </trkpt>
      <trkpt lat="45.25617" lon="5.02779">
        <ele>249.77</ele>
        <time>2017-02-25T15:16:06Z</time>
      </trkpt>
      <trkpt lat="45.25617" lon="5.02779">
        <ele>249.77</ele>
        <time>2017-02-25T15:16:07Z</time>
      </trkpt>
      <trkpt lat="45.25617" lon="5.02779">
        <ele>249.77</ele>
        <time>2017-02-25T15:16:08Z</time>
      </trkpt>
      <trkpt lat="45.25617" lon="5.02779">
        <ele>249.77</ele>
        <time>2017-02-25T15:16:09Z</time>
      </trkpt>
      <trkpt lat="45.25617" lon="5.02779">
        <ele>249.77</ele>
        <time>2017-02-25T15:16:10Z</time>
      </trkpt>
      <trkpt lat="45.25617" lon="5.02779">
        <ele>249.77</ele>
        <time>2017-02-25T15:16:11Z</time>
      </trkpt>
      <trkpt lat="45.25617" lon="5.02779">
        <ele>249.77</ele>
        <time>2017-02-25T15:16:12Z</time>
      </trkpt>
      <trkpt lat="45.25617" lon="5.02779">
        <ele>249.77</ele>
        <time>2017-02-25T15:16:13Z</time>
      </trkpt>
      <trkpt lat="45.25617" lon="5.02779">
        <ele>249.77</ele>
        <time>2017-02-25T15:16:14Z</time>
      </trkpt>
      <trkpt lat="45.25611" lon="5.02789">
        <ele>249.69</ele>
        <time>2017-02-25T15:16:15Z</time>
      </trkpt>
      <trkpt lat="45.25611" lon="5.02788">
        <ele>249.59</ele>
        <time>2017-02-25T15:16:16Z</time>
      </trkpt>
      <trkpt lat="45.25611" lon="5.02788">
        <ele>249.57</ele>
        <time>2017-02-25T15:16:17Z</time>
      </trkpt>
      <trkpt lat="45.25611" lon="5.02788">
        <ele>249.57</ele>
        <time>2017-02-25T15:16:18Z</time>
      </trkpt>
      <trkpt lat="45.25611" lon="5.02788">
        <ele>249.57</ele>
        <time>2017-02-25T15:16:19Z</time>
      </trkpt>
      <trkpt lat="45.25611" lon="5.02788">
        <ele>249.57</ele>
        <time>2017-02-25T15:16:20Z</time>
      </trkpt>
      <trkpt lat="45.25611" lon="5.02788">
        <ele>249.57</ele>
        <time>2017-02-25T15:16:21Z</time>
      </trkpt>
      <trkpt lat="45.25611" lon="5.02788">
        <ele>249.57</ele>
        <time>2017-02-25T15:16:22Z</time>
      </trkpt>
      <trkpt lat="45.25611" lon="5.02788">
        <ele>249.57</ele>
        <time>2017-02-25T15:16:23Z</time>
      </trkpt>
      <trkpt lat="45.25611" lon="5.02788">
        <ele>249.57</ele>
        <time>2017-02-25T15:16:24Z</time>
      </trkpt>
      <trkpt lat="45.25611" lon="5.02788">
        <ele>249.57</ele>
        <time>2017-02-25T15:16:25Z</time>
      </trkpt>
      <trkpt lat="45.25611" lon="5.02788">
        <ele>249.57</ele>
        <time>2017-02-25T15:16:26Z</time>
      </trkpt>
      <trkpt lat="45.25611" lon="5.02788">
        <ele>249.57</ele>
        <time>2017-02-25T15:16:27Z</time>
      </trkpt>
      <trkpt lat="45.25611" lon="5.02788">
        <ele>249.57</ele>
        <time>2017-02-25T15:16:28Z</time>
      </trkpt>
      <trkpt lat="45.25611" lon="5.02788">
        <ele>249.57</ele>
        <time>2017-02-25T15:16:29Z</time>
      </trkpt>
      <trkpt lat="45.25611" lon="5.02788">
        <ele>249.57</ele>
        <time>2017-02-25T15:16:30Z</time>
      </trkpt>
      <trkpt lat="45.25611" lon="5.02788">
        <ele>249.57</ele>
        <time>2017-02-25T15:16:31Z</time>
      </trkpt>
      <trkpt lat="45.25611" lon="5.02788">
        <ele>249.57</ele>
        <time>2017-02-25T15:16:32Z</time>
      </trkpt>
      <trkpt lat="45.25611" lon="5.02788">
        <ele>249.57</ele>
        <time>2017-02-25T15:16:33Z</time>
      </trkpt>
      <trkpt lat="45.25611" lon="5.02788">
        <ele>249.57</ele>
        <time>2017-02-25T15:16:34Z</time>
      </trkpt>
      <trkpt lat="45.25611" lon="5.02788">
        <ele>249.57</ele>
        <time>2017-02-25T15:16:35Z</time>
      </trkpt>
      <trkpt lat="45.25611" lon="5.02788">
        <ele>249.57</ele>
        <time>2017-02-25T15:16:36Z</time>
      </trkpt>
      <trkpt lat="45.25611" lon="5.02788">
        <ele>249.57</ele>
        <time>2017-02-25T15:16:37Z</time>
      </trkpt>
      <trkpt lat="45.25611" lon="5.02788">
        <ele>249.57</ele>
        <time>2017-02-25T15:16:38Z</time>
      </trkpt>
      <trkpt lat="45.25611" lon="5.02788">
        <ele>249.57</ele>
        <time>2017-02-25T15:16:39Z</time>
      </trkpt>
      <trkpt lat="45.25611" lon="5.02788">
        <ele>249.57</ele>
        <time>2017-02-25T15:16:40Z</time>
      </trkpt>
      <trkpt lat="45.25611" lon="5.02788">
        <ele>249.57</ele>
        <time>2017-02-25T15:16:41Z</time>
      </trkpt>
      <trkpt lat="45.25611" lon="5.02788">
        <ele>249.57</ele>
        <time>2017-02-25T15:16:42Z</time>
      </trkpt>
      <trkpt lat="45.25611" lon="5.02788">
        <ele>249.57</ele>
        <time>2017-02-25T15:16:43Z</time>
      </trkpt>
      <trkpt lat="45.25611" lon="5.02788">
        <ele>249.57</ele>
        <time>2017-02-25T15:16:44Z</time>
      </trkpt>
      <trkpt lat="45.25611" lon="5.02788">
        <ele>249.57</ele>
        <time>2017-02-25T15:16:45Z</time>
      </trkpt>
      <trkpt lat="45.25611" lon="5.02788">
        <ele>249.57</ele>
        <time>2017-02-25T15:16:46Z</time>
      </trkpt>
      <trkpt lat="45.25611" lon="5.02788">
        <ele>249.57</ele>
        <time>2017-02-25T15:16:47Z</time>
      </trkpt>
      <trkpt lat="45.25611" lon="5.02788">
        <ele>249.57</ele>
        <time>2017-02-25T15:16:48Z</time>
      </trkpt>
      <trkpt lat="45.25611" lon="5.02788">
        <ele>249.57</ele>
        <time>2017-02-25T15:16:49Z</time>
      </trkpt>
      <trkpt lat="45.25611" lon="5.02788">
        <ele>249.57</ele>
        <time>2017-02-25T15:16:50Z</time>
      </trkpt>
      <trkpt lat="45.25611" lon="5.02788">
        <ele>249.57</ele>
        <time>2017-02-25T15:16:51Z</time>
      </trkpt>
      <trkpt lat="45.25611" lon="5.02788">
        <ele>249.57</ele>
        <time>2017-02-25T15:16:52Z</time>
      </trkpt>
      <trkpt lat="45.25611" lon="5.02788">
        <ele>249.57</ele>
        <time>2017-02-25T15:16:53Z</time>
      </trkpt>
      <trkpt lat="45.25611" lon="5.02788">
        <ele>249.57</ele>
        <time>2017-02-25T15:16:54Z</time>
      </trkpt>
      <trkpt lat="45.25611" lon="5.02788">
        <ele>249.57</ele>
        <time>2017-02-25T15:16:55Z</time>
      </trkpt>
      <trkpt lat="45.25611" lon="5.02788">
        <ele>249.57</ele>
        <time>2017-02-25T15:16:56Z</time>
      </trkpt>
      <trkpt lat="45.25611" lon="5.02788">
        <ele>249.57</ele>
        <time>2017-02-25T15:16:57Z</time>
      </trkpt>
      <trkpt lat="45.25611" lon="5.02788">
        <ele>249.57</ele>
        <time>2017-02-25T15:16:58Z</time>
      </trkpt>
      <trkpt lat="45.25611" lon="5.02788">
        <ele>249.57</ele>
        <time>2017-02-25T15:16:59Z</time>
      </trkpt>
      <trkpt lat="45.25611" lon="5.02788">
        <ele>249.57</ele>
        <time>2017-02-25T15:17:00Z</time>
      </trkpt>
      <trkpt lat="45.25611" lon="5.02788">
        <ele>249.57</ele>
        <time>2017-02-25T15:17:01Z</time>
      </trkpt>
      <trkpt lat="45.25611" lon="5.02788">
        <ele>249.57</ele>
        <time>2017-02-25T15:17:02Z</time>
      </trkpt>
      <trkpt lat="45.25611" lon="5.02788">
        <ele>249.57</ele>
        <time>2017-02-25T15:17:03Z</time>
      </trkpt>
      <trkpt lat="45.25611" lon="5.02788">
        <ele>249.57</ele>
        <time>2017-02-25T15:17:04Z</time>
      </trkpt>
      <trkpt lat="45.25611" lon="5.02788">
        <ele>249.57</ele>
        <time>2017-02-25T15:17:05Z</time>
      </trkpt>
      <trkpt lat="45.25611" lon="5.02788">
        <ele>249.57</ele>
        <time>2017-02-25T15:17:06Z</time>
      </trkpt>
      <trkpt lat="45.25611" lon="5.02788">
        <ele>249.57</ele>
        <time>2017-02-25T15:17:07Z</time>
      </trkpt>
      <trkpt lat="45.25611" lon="5.02788">
        <ele>249.57</ele>
        <time>2017-02-25T15:17:08Z</time>
      </trkpt>
      <trkpt lat="45.25611" lon="5.02788">
        <ele>249.57</ele>
        <time>2017-02-25T15:17:09Z</time>
      </trkpt>
      <trkpt lat="45.25611" lon="5.02788">
        <ele>249.57</ele>
        <time>2017-02-25T15:17:10Z</time>
      </trkpt>
      <trkpt lat="45.25611" lon="5.02788">
        <ele>249.57</ele>
        <time>2017-02-25T15:17:11Z</time>
      </trkpt>
      <trkpt lat="45.25611" lon="5.02788">
        <ele>249.57</ele>
        <time>2017-02-25T15:17:12Z</time>
      </trkpt>
      <trkpt lat="45.25611" lon="5.02788">
        <ele>249.57</ele>
        <time>2017-02-25T15:17:13Z</time>
      </trkpt>
      <trkpt lat="45.25611" lon="5.02788">
        <ele>249.57</ele>
        <time>2017-02-25T15:17:14Z</time>
      </trkpt>
      <trkpt lat="45.25611" lon="5.02788">
        <ele>249.57</ele>
        <time>2017-02-25T15:17:15Z</time>
      </trkpt>
      <trkpt lat="45.25611" lon="5.02788">
        <ele>249.57</ele>
        <time>2017-02-25T15:17:16Z</time>
      </trkpt>
      <trkpt lat="45.25611" lon="5.02788">
        <ele>249.57</ele>
        <time>2017-02-25T15:17:17Z</time>
      </trkpt>
      <trkpt lat="45.25611" lon="5.02788">
        <ele>249.57</ele>
        <time>2017-02-25T15:17:18Z</time>
      </trkpt>
      <trkpt lat="45.25611" lon="5.02788">
        <ele>249.57</ele>
        <time>2017-02-25T15:17:19Z</time>
      </trkpt>
      <trkpt lat="45.25611" lon="5.02788">
        <ele>249.57</ele>
        <time>2017-02-25T15:17:20Z</time>
      </trkpt>
      <trkpt lat="45.25611" lon="5.02788">
        <ele>249.57</ele>
        <time>2017-02-25T15:17:21Z</time>
      </trkpt>
      <trkpt lat="45.25611" lon="5.02788">
        <ele>249.57</ele>
        <time>2017-02-25T15:17:22Z</time>
      </trkpt>
      <trkpt lat="45.25611" lon="5.02788">
        <ele>249.57</ele>
        <time>2017-02-25T15:17:23Z</time>
      </trkpt>
      <trkpt lat="45.25611" lon="5.02788">
        <ele>249.57</ele>
        <time>2017-02-25T15:17:24Z</time>
      </trkpt>
      <trkpt lat="45.25611" lon="5.02788">
        <ele>249.57</ele>
        <time>2017-02-25T15:17:25Z</time>
      </trkpt>
      <trkpt lat="45.25611" lon="5.02788">
        <ele>249.57</ele>
        <time>2017-02-25T15:17:26Z</time>
      </trkpt>
      <trkpt lat="45.25611" lon="5.02788">
        <ele>249.57</ele>
        <time>2017-02-25T15:17:27Z</time>
      </trkpt>
      <trkpt lat="45.25611" lon="5.02788">
        <ele>249.57</ele>
        <time>2017-02-25T15:17:28Z</time>
      </trkpt>
      <trkpt lat="45.25611" lon="5.02788">
        <ele>249.57</ele>
        <time>2017-02-25T15:17:29Z</time>
      </trkpt>
      <trkpt lat="45.25611" lon="5.02788">
        <ele>249.57</ele>
        <time>2017-02-25T15:17:30Z</time>
      </trkpt>
      <trkpt lat="45.25611" lon="5.02788">
        <ele>249.57</ele>
        <time>2017-02-25T15:17:31Z</time>
      </trkpt>
      <trkpt lat="45.25611" lon="5.02788">
        <ele>249.57</ele>
        <time>2017-02-25T15:17:32Z</time>
      </trkpt>
      <trkpt lat="45.25611" lon="5.02788">
        <ele>249.57</ele>
        <time>2017-02-25T15:17:33Z</time>
      </trkpt>
      <trkpt lat="45.25611" lon="5.02788">
        <ele>249.57</ele>
        <time>2017-02-25T15:17:34Z</time>
      </trkpt>
      <trkpt lat="45.25611" lon="5.02788">
        <ele>249.57</ele>
        <time>2017-02-25T15:17:35Z</time>
      </trkpt>
      <trkpt lat="45.25611" lon="5.02788">
        <ele>249.57</ele>
        <time>2017-02-25T15:17:36Z</time>
      </trkpt>
      <trkpt lat="45.25611" lon="5.02788">
        <ele>249.57</ele>
        <time>2017-02-25T15:17:37Z</time>
      </trkpt>
      <trkpt lat="45.25611" lon="5.02788">
        <ele>249.57</ele>
        <time>2017-02-25T15:17:38Z</time>
      </trkpt>
      <trkpt lat="45.25611" lon="5.02788">
        <ele>249.57</ele>
        <time>2017-02-25T15:17:39Z</time>
      </trkpt>
      <trkpt lat="45.25611" lon="5.02788">
        <ele>249.57</ele>
        <time>2017-02-25T15:17:40Z</time>
      </trkpt>
      <trkpt lat="45.25611" lon="5.02788">
        <ele>249.57</ele>
        <time>2017-02-25T15:17:41Z</time>
      </trkpt>
      <trkpt lat="45.25611" lon="5.02788">
        <ele>249.57</ele>
        <time>2017-02-25T15:17:42Z</time>
      </trkpt>
      <trkpt lat="45.25611" lon="5.02788">
        <ele>249.57</ele>
        <time>2017-02-25T15:17:43Z</time>
      </trkpt>
      <trkpt lat="45.25611" lon="5.02788">
        <ele>249.57</ele>
        <time>2017-02-25T15:17:44Z</time>
      </trkpt>
      <trkpt lat="45.25611" lon="5.02788">
        <ele>249.57</ele>
        <time>2017-02-25T15:17:45Z</time>
      </trkpt>
      <trkpt lat="45.25611" lon="5.02788">
        <ele>249.57</ele>
        <time>2017-02-25T15:17:46Z</time>
      </trkpt>
      <trkpt lat="45.25611" lon="5.02788">
        <ele>249.57</ele>
        <time>2017-02-25T15:17:47Z</time>
      </trkpt>
      <trkpt lat="45.25611" lon="5.02788">
        <ele>249.57</ele>
        <time>2017-02-25T15:17:48Z</time>
      </trkpt>
      <trkpt lat="45.25611" lon="5.02788">
        <ele>249.57</ele>
        <time>2017-02-25T15:17:49Z</time>
      </trkpt>
      <trkpt lat="45.25611" lon="5.02788">
        <ele>249.57</ele>
        <time>2017-02-25T15:17:50Z</time>
      </trkpt>
      <trkpt lat="45.25611" lon="5.02788">
        <ele>249.57</ele>
        <time>2017-02-25T15:17:51Z</time>
      </trkpt>
      <trkpt lat="45.25611" lon="5.02788">
        <ele>249.57</ele>
        <time>2017-02-25T15:17:52Z</time>
      </trkpt>
      <trkpt lat="45.25611" lon="5.02788">
        <ele>249.57</ele>
        <time>2017-02-25T15:17:53Z</time>
      </trkpt>
      <trkpt lat="45.25611" lon="5.02788">
        <ele>249.57</ele>
        <time>2017-02-25T15:17:54Z</time>
      </trkpt>
      <trkpt lat="45.25611" lon="5.02788">
        <ele>249.57</ele>
        <time>2017-02-25T15:17:55Z</time>
      </trkpt>
      <trkpt lat="45.25611" lon="5.02788">
        <ele>249.57</ele>
        <time>2017-02-25T15:17:56Z</time>
      </trkpt>
      <trkpt lat="45.25611" lon="5.02788">
        <ele>249.57</ele>
        <time>2017-02-25T15:17:57Z</time>
      </trkpt>
      <trkpt lat="45.25611" lon="5.02788">
        <ele>249.57</ele>
        <time>2017-02-25T15:17:58Z</time>
      </trkpt>
      <trkpt lat="45.25611" lon="5.02788">
        <ele>249.57</ele>
        <time>2017-02-25T15:17:59Z</time>
      </trkpt>
      <trkpt lat="45.25611" lon="5.02788">
        <ele>249.57</ele>
        <time>2017-02-25T15:18:00Z</time>
      </trkpt>
      <trkpt lat="45.25611" lon="5.02788">
        <ele>249.57</ele>
        <time>2017-02-25T15:18:01Z</time>
      </trkpt>
      <trkpt lat="45.25611" lon="5.02788">
        <ele>249.57</ele>
        <time>2017-02-25T15:18:02Z</time>
      </trkpt>
      <trkpt lat="45.25611" lon="5.02788">
        <ele>249.57</ele>
        <time>2017-02-25T15:18:03Z</time>
      </trkpt>
      <trkpt lat="45.25611" lon="5.02788">
        <ele>249.57</ele>
        <time>2017-02-25T15:18:04Z</time>
      </trkpt>
      <trkpt lat="45.25611" lon="5.02788">
        <ele>249.57</ele>
        <time>2017-02-25T15:18:05Z</time>
      </trkpt>
      <trkpt lat="45.25611" lon="5.02788">
        <ele>249.57</ele>
        <time>2017-02-25T15:18:06Z</time>
      </trkpt>
      <trkpt lat="45.25611" lon="5.02788">
        <ele>249.57</ele>
        <time>2017-02-25T15:18:07Z</time>
      </trkpt>
      <trkpt lat="45.25611" lon="5.02788">
        <ele>249.57</ele>
        <time>2017-02-25T15:18:08Z</time>
      </trkpt>
      <trkpt lat="45.25611" lon="5.02788">
        <ele>249.57</ele>
        <time>2017-02-25T15:18:09Z</time>
      </trkpt>
      <trkpt lat="45.25611" lon="5.02788">
        <ele>249.57</ele>
        <time>2017-02-25T15:18:10Z</time>
      </trkpt>
      <trkpt lat="45.25611" lon="5.02788">
        <ele>249.57</ele>
        <time>2017-02-25T15:18:11Z</time>
      </trkpt>
      <trkpt lat="45.25611" lon="5.02788">
        <ele>249.57</ele>
        <time>2017-02-25T15:18:12Z</time>
      </trkpt>
      <trkpt lat="45.25611" lon="5.02788">
        <ele>249.57</ele>
        <time>2017-02-25T15:18:13Z</time>
      </trkpt>
      <trkpt lat="45.25611" lon="5.02788">
        <ele>249.57</ele>
        <time>2017-02-25T15:18:14Z</time>
      </trkpt>
      <trkpt lat="45.25611" lon="5.02788">
        <ele>249.57</ele>
        <time>2017-02-25T15:18:15Z</time>
      </trkpt>
      <trkpt lat="45.25611" lon="5.02788">
        <ele>249.57</ele>
        <time>2017-02-25T15:18:16Z</time>
      </trkpt>
      <trkpt lat="45.25611" lon="5.02788">
        <ele>249.57</ele>
        <time>2017-02-25T15:18:17Z</time>
      </trkpt>
      <trkpt lat="45.25611" lon="5.02788">
        <ele>249.57</ele>
        <time>2017-02-25T15:18:18Z</time>
      </trkpt>
      <trkpt lat="45.25611" lon="5.02788">
        <ele>249.57</ele>
        <time>2017-02-25T15:18:19Z</time>
      </trkpt>
      <trkpt lat="45.25611" lon="5.02788">
        <ele>249.57</ele>
        <time>2017-02-25T15:18:20Z</time>
      </trkpt>
      <trkpt lat="45.25611" lon="5.02788">
        <ele>249.57</ele>
        <time>2017-02-25T15:18:21Z</time>
      </trkpt>
      <trkpt lat="45.25611" lon="5.02788">
        <ele>249.57</ele>
        <time>2017-02-25T15:18:22Z</time>
      </trkpt>
      <trkpt lat="45.25611" lon="5.02788">
        <ele>249.57</ele>
        <time>2017-02-25T15:18:23Z</time>
      </trkpt>
      <trkpt lat="45.25611" lon="5.02788">
        <ele>249.57</ele>
        <time>2017-02-25T15:18:24Z</time>
      </trkpt>
      <trkpt lat="45.25611" lon="5.02788">
        <ele>249.57</ele>
        <time>2017-02-25T15:18:25Z</time>
      </trkpt>
      <trkpt lat="45.25611" lon="5.02788">
        <ele>249.57</ele>
        <time>2017-02-25T15:18:26Z</time>
      </trkpt>
      <trkpt lat="45.25611" lon="5.02788">
        <ele>249.57</ele>
        <time>2017-02-25T15:18:27Z</time>
      </trkpt>
      <trkpt lat="45.25611" lon="5.02788">
        <ele>249.57</ele>
        <time>2017-02-25T15:18:28Z</time>
      </trkpt>
      <trkpt lat="45.25611" lon="5.02788">
        <ele>249.57</ele>
        <time>2017-02-25T15:18:29Z</time>
      </trkpt>
      <trkpt lat="45.25611" lon="5.02788">
        <ele>249.57</ele>
        <time>2017-02-25T15:18:30Z</time>
      </trkpt>
      <trkpt lat="45.25611" lon="5.02788">
        <ele>249.57</ele>
        <time>2017-02-25T15:18:31Z</time>
      </trkpt>
      <trkpt lat="45.25611" lon="5.02788">
        <ele>249.57</ele>
        <time>2017-02-25T15:18:32Z</time>
      </trkpt>
      <trkpt lat="45.25611" lon="5.02788">
        <ele>249.57</ele>
        <time>2017-02-25T15:18:33Z</time>
      </trkpt>
      <trkpt lat="45.25611" lon="5.02788">
        <ele>249.57</ele>
        <time>2017-02-25T15:18:34Z</time>
      </trkpt>
      <trkpt lat="45.25611" lon="5.02788">
        <ele>249.57</ele>
        <time>2017-02-25T15:18:35Z</time>
      </trkpt>
      <trkpt lat="45.25611" lon="5.02788">
        <ele>249.57</ele>
        <time>2017-02-25T15:18:36Z</time>
      </trkpt>
      <trkpt lat="45.25611" lon="5.02788">
        <ele>249.57</ele>
        <time>2017-02-25T15:18:37Z</time>
      </trkpt>
      <trkpt lat="45.25611" lon="5.02788">
        <ele>249.57</ele>
        <time>2017-02-25T15:18:38Z</time>
      </trkpt>
      <trkpt lat="45.25611" lon="5.02788">
        <ele>249.57</ele>
        <time>2017-02-25T15:18:39Z</time>
      </trkpt>
      <trkpt lat="45.25611" lon="5.02788">
        <ele>249.57</ele>
        <time>2017-02-25T15:18:40Z</time>
      </trkpt>
      <trkpt lat="45.25611" lon="5.02788">
        <ele>249.57</ele>
        <time>2017-02-25T15:18:41Z</time>
      </trkpt>
      <trkpt lat="45.25611" lon="5.02788">
        <ele>249.57</ele>
        <time>2017-02-25T15:18:42Z</time>
      </trkpt>
      <trkpt lat="45.25611" lon="5.02788">
        <ele>249.57</ele>
        <time>2017-02-25T15:18:43Z</time>
      </trkpt>
      <trkpt lat="45.25611" lon="5.02788">
        <ele>249.57</ele>
        <time>2017-02-25T15:18:44Z</time>
      </trkpt>
      <trkpt lat="45.25611" lon="5.02788">
        <ele>249.57</ele>
        <time>2017-02-25T15:18:45Z</time>
      </trkpt>
      <trkpt lat="45.25611" lon="5.02788">
        <ele>249.57</ele>
        <time>2017-02-25T15:18:46Z</time>
      </trkpt>
      <trkpt lat="45.25611" lon="5.02788">
        <ele>249.57</ele>
        <time>2017-02-25T15:18:47Z</time>
      </trkpt>
      <trkpt lat="45.25611" lon="5.02788">
        <ele>249.57</ele>
        <time>2017-02-25T15:18:48Z</time>
      </trkpt>
      <trkpt lat="45.25611" lon="5.02788">
        <ele>249.57</ele>
        <time>2017-02-25T15:18:49Z</time>
      </trkpt>
      <trkpt lat="45.25611" lon="5.02788">
        <ele>249.57</ele>
        <time>2017-02-25T15:18:50Z</time>
      </trkpt>
      <trkpt lat="45.25611" lon="5.02788">
        <ele>249.57</ele>
        <time>2017-02-25T15:18:51Z</time>
      </trkpt>
      <trkpt lat="45.25611" lon="5.02788">
        <ele>249.57</ele>
        <time>2017-02-25T15:18:52Z</time>
      </trkpt>
      <trkpt lat="45.25611" lon="5.02788">
        <ele>249.57</ele>
        <time>2017-02-25T15:18:53Z</time>
      </trkpt>
      <trkpt lat="45.25611" lon="5.02788">
        <ele>249.57</ele>
        <time>2017-02-25T15:18:54Z</time>
      </trkpt>
      <trkpt lat="45.25611" lon="5.02788">
        <ele>249.57</ele>
        <time>2017-02-25T15:18:55Z</time>
      </trkpt>
      <trkpt lat="45.25611" lon="5.02788">
        <ele>249.57</ele>
        <time>2017-02-25T15:18:56Z</time>
      </trkpt>
      <trkpt lat="45.25611" lon="5.02788">
        <ele>249.57</ele>
        <time>2017-02-25T15:18:57Z</time>
      </trkpt>
      <trkpt lat="45.25611" lon="5.02788">
        <ele>249.57</ele>
        <time>2017-02-25T15:18:58Z</time>
      </trkpt>
      <trkpt lat="45.25611" lon="5.02788">
        <ele>249.57</ele>
        <time>2017-02-25T15:18:59Z</time>
      </trkpt>
      <trkpt lat="45.25611" lon="5.02788">
        <ele>249.57</ele>
        <time>2017-02-25T15:19:00Z</time>
      </trkpt>
      <trkpt lat="45.25611" lon="5.02788">
        <ele>249.57</ele>
        <time>2017-02-25T15:19:01Z</time>
      </trkpt>
      <trkpt lat="45.25611" lon="5.02788">
        <ele>249.57</ele>
        <time>2017-02-25T15:19:02Z</time>
      </trkpt>
      <trkpt lat="45.25611" lon="5.02788">
        <ele>249.57</ele>
        <time>2017-02-25T15:19:03Z</time>
      </trkpt>
      <trkpt lat="45.25611" lon="5.02788">
        <ele>249.57</ele>
        <time>2017-02-25T15:19:04Z</time>
      </trkpt>
      <trkpt lat="45.25611" lon="5.02788">
        <ele>249.57</ele>
        <time>2017-02-25T15:19:05Z</time>
      </trkpt>
      <trkpt lat="45.25611" lon="5.02788">
        <ele>249.57</ele>
        <time>2017-02-25T15:19:06Z</time>
      </trkpt>
      <trkpt lat="45.25611" lon="5.02788">
        <ele>249.57</ele>
        <time>2017-02-25T15:19:07Z</time>
      </trkpt>
      <trkpt lat="45.25611" lon="5.02788">
        <ele>249.57</ele>
        <time>2017-02-25T15:19:08Z</time>
      </trkpt>
      <trkpt lat="45.25611" lon="5.02788">
        <ele>249.57</ele>
        <time>2017-02-25T15:19:09Z</time>
      </trkpt>
      <trkpt lat="45.25611" lon="5.02788">
        <ele>249.57</ele>
        <time>2017-02-25T15:19:10Z</time>
      </trkpt>
      <trkpt lat="45.25611" lon="5.02788">
        <ele>249.57</ele>
        <time>2017-02-25T15:19:11Z</time>
      </trkpt>
      <trkpt lat="45.25611" lon="5.02788">
        <ele>249.57</ele>
        <time>2017-02-25T15:19:12Z</time>
      </trkpt>
      <trkpt lat="45.25611" lon="5.02788">
        <ele>249.57</ele>
        <time>2017-02-25T15:19:13Z</time>
      </trkpt>
      <trkpt lat="45.25611" lon="5.02788">
        <ele>249.57</ele>
        <time>2017-02-25T15:19:14Z</time>
      </trkpt>
      <trkpt lat="45.25611" lon="5.02788">
        <ele>249.57</ele>
        <time>2017-02-25T15:19:15Z</time>
      </trkpt>
      <trkpt lat="45.25611" lon="5.02788">
        <ele>249.57</ele>
        <time>2017-02-25T15:19:16Z</time>
      </trkpt>
      <trkpt lat="45.25611" lon="5.02788">
        <ele>249.57</ele>
        <time>2017-02-25T15:19:17Z</time>
      </trkpt>
      <trkpt lat="45.25611" lon="5.02788">
        <ele>249.57</ele>
        <time>2017-02-25T15:19:18Z</time>
      </trkpt>
      <trkpt lat="45.25611" lon="5.02788">
        <ele>249.57</ele>
        <time>2017-02-25T15:19:19Z</time>
      </trkpt>
      <trkpt lat="45.25611" lon="5.02788">
        <ele>249.57</ele>
        <time>2017-02-25T15:19:20Z</time>
      </trkpt>
      <trkpt lat="45.25611" lon="5.02788">
        <ele>249.57</ele>
        <time>2017-02-25T15:19:21Z</time>
      </trkpt>
      <trkpt lat="45.25611" lon="5.02788">
        <ele>249.57</ele>
        <time>2017-02-25T15:19:22Z</time>
      </trkpt>
      <trkpt lat="45.25611" lon="5.02788">
        <ele>249.57</ele>
        <time>2017-02-25T15:19:23Z</time>
      </trkpt>
      <trkpt lat="45.25611" lon="5.02788">
        <ele>249.57</ele>
        <time>2017-02-25T15:19:24Z</time>
      </trkpt>
      <trkpt lat="45.25611" lon="5.02788">
        <ele>249.57</ele>
        <time>2017-02-25T15:19:25Z</time>
      </trkpt>
      <trkpt lat="45.25611" lon="5.02788">
        <ele>249.57</ele>
        <time>2017-02-25T15:19:26Z</time>
      </trkpt>
      <trkpt lat="45.25611" lon="5.02788">
        <ele>249.57</ele>
        <time>2017-02-25T15:19:27Z</time>
      </trkpt>
      <trkpt lat="45.25611" lon="5.02788">
        <ele>249.57</ele>
        <time>2017-02-25T15:19:28Z</time>
      </trkpt>
      <trkpt lat="45.25611" lon="5.02788">
        <ele>249.57</ele>
        <time>2017-02-25T15:19:29Z</time>
      </trkpt>
      <trkpt lat="45.25611" lon="5.02788">
        <ele>249.57</ele>
        <time>2017-02-25T15:19:30Z</time>
      </trkpt>
      <trkpt lat="45.25611" lon="5.02788">
        <ele>249.57</ele>
        <time>2017-02-25T15:19:31Z</time>
      </trkpt>
      <trkpt lat="45.25611" lon="5.02788">
        <ele>249.57</ele>
        <time>2017-02-25T15:19:32Z</time>
      </trkpt>
      <trkpt lat="45.25611" lon="5.02788">
        <ele>249.57</ele>
        <time>2017-02-25T15:19:33Z</time>
      </trkpt>
      <trkpt lat="45.25611" lon="5.02788">
        <ele>249.57</ele>
        <time>2017-02-25T15:19:34Z</time>
      </trkpt>
      <trkpt lat="45.25611" lon="5.02788">
        <ele>249.57</ele>
        <time>2017-02-25T15:19:35Z</time>
      </trkpt>
      <trkpt lat="45.25611" lon="5.02788">
        <ele>249.57</ele>
        <time>2017-02-25T15:19:36Z</time>
      </trkpt>
      <trkpt lat="45.25611" lon="5.02788">
        <ele>249.57</ele>
        <time>2017-02-25T15:19:37Z</time>
      </trkpt>
      <trkpt lat="45.25611" lon="5.02788">
        <ele>249.57</ele>
        <time>2017-02-25T15:19:38Z</time>
      </trkpt>
      <trkpt lat="45.25611" lon="5.02788">
        <ele>249.57</ele>
        <time>2017-02-25T15:19:39Z</time>
      </trkpt>
      <trkpt lat="45.25611" lon="5.02788">
        <ele>249.57</ele>
        <time>2017-02-25T15:19:40Z</time>
      </trkpt>
      <trkpt lat="45.25611" lon="5.02788">
        <ele>249.57</ele>
        <time>2017-02-25T15:19:41Z</time>
      </trkpt>
      <trkpt lat="45.25611" lon="5.02788">
        <ele>249.57</ele>
        <time>2017-02-25T15:19:42Z</time>
      </trkpt>
      <trkpt lat="45.25611" lon="5.02788">
        <ele>249.57</ele>
        <time>2017-02-25T15:19:43Z</time>
      </trkpt>
      <trkpt lat="45.25611" lon="5.02788">
        <ele>249.57</ele>
        <time>2017-02-25T15:19:44Z</time>
      </trkpt>
      <trkpt lat="45.25611" lon="5.02788">
        <ele>249.57</ele>
        <time>2017-02-25T15:19:45Z</time>
      </trkpt>
      <trkpt lat="45.25611" lon="5.02788">
        <ele>249.57</ele>
        <time>2017-02-25T15:19:46Z</time>
      </trkpt>
      <trkpt lat="45.25611" lon="5.02788">
        <ele>249.57</ele>
        <time>2017-02-25T15:19:47Z</time>
      </trkpt>
      <trkpt lat="45.25611" lon="5.02788">
        <ele>249.57</ele>
        <time>2017-02-25T15:19:48Z</time>
      </trkpt>
      <trkpt lat="45.25611" lon="5.02788">
        <ele>249.57</ele>
        <time>2017-02-25T15:19:49Z</time>
      </trkpt>
      <trkpt lat="45.25611" lon="5.02788">
        <ele>249.57</ele>
        <time>2017-02-25T15:19:50Z</time>
      </trkpt>
      <trkpt lat="45.25611" lon="5.02788">
        <ele>249.57</ele>
        <time>2017-02-25T15:19:51Z</time>
      </trkpt>
      <trkpt lat="45.25611" lon="5.02788">
        <ele>249.57</ele>
        <time>2017-02-25T15:19:52Z</time>
      </trkpt>
      <trkpt lat="45.25611" lon="5.02788">
        <ele>249.57</ele>
        <time>2017-02-25T15:19:53Z</time>
      </trkpt>
      <trkpt lat="45.25611" lon="5.02788">
        <ele>249.57</ele>
        <time>2017-02-25T15:19:54Z</time>
      </trkpt>
      <trkpt lat="45.25611" lon="5.02788">
        <ele>249.57</ele>
        <time>2017-02-25T15:19:55Z</time>
      </trkpt>
      <trkpt lat="45.25611" lon="5.02788">
        <ele>249.57</ele>
        <time>2017-02-25T15:19:56Z</time>
      </trkpt>
      <trkpt lat="45.25611" lon="5.02788">
        <ele>249.57</ele>
        <time>2017-02-25T15:19:57Z</time>
      </trkpt>
      <trkpt lat="45.25611" lon="5.02788">
        <ele>249.57</ele>
        <time>2017-02-25T15:19:58Z</time>
      </trkpt>
      <trkpt lat="45.25611" lon="5.02788">
        <ele>249.57</ele>
        <time>2017-02-25T15:19:59Z</time>
      </trkpt>
      <trkpt lat="45.25611" lon="5.02788">
        <ele>249.57</ele>
        <time>2017-02-25T15:20:00Z</time>
      </trkpt>
      <trkpt lat="45.25611" lon="5.02788">
        <ele>249.57</ele>
        <time>2017-02-25T15:20:01Z</time>
      </trkpt>
      <trkpt lat="45.25611" lon="5.02788">
        <ele>249.57</ele>
        <time>2017-02-25T15:20:02Z</time>
      </trkpt>
      <trkpt lat="45.25611" lon="5.02788">
        <ele>249.57</ele>
        <time>2017-02-25T15:20:03Z</time>
      </trkpt>
      <trkpt lat="45.25611" lon="5.02788">
        <ele>249.57</ele>
        <time>2017-02-25T15:20:04Z</time>
      </trkpt>
      <trkpt lat="45.25611" lon="5.02788">
        <ele>249.57</ele>
        <time>2017-02-25T15:20:05Z</time>
      </trkpt>
      <trkpt lat="45.25611" lon="5.02788">
        <ele>249.57</ele>
        <time>2017-02-25T15:20:06Z</time>
      </trkpt>
      <trkpt lat="45.25611" lon="5.02788">
        <ele>249.57</ele>
        <time>2017-02-25T15:20:07Z</time>
      </trkpt>
      <trkpt lat="45.25611" lon="5.02788">
        <ele>249.57</ele>
        <time>2017-02-25T15:20:08Z</time>
      </trkpt>
      <trkpt lat="45.25611" lon="5.02788">
        <ele>249.57</ele>
        <time>2017-02-25T15:20:09Z</time>
      </trkpt>
      <trkpt lat="45.25611" lon="5.02788">
        <ele>249.57</ele>
        <time>2017-02-25T15:20:10Z</time>
      </trkpt>
      <trkpt lat="45.25611" lon="5.02788">
        <ele>249.57</ele>
        <time>2017-02-25T15:20:11Z</time>
      </trkpt>
      <trkpt lat="45.25611" lon="5.02788">
        <ele>249.57</ele>
        <time>2017-02-25T15:20:12Z</time>
      </trkpt>
      <trkpt lat="45.25611" lon="5.02788">
        <ele>249.57</ele>
        <time>2017-02-25T15:20:13Z</time>
      </trkpt>
      <trkpt lat="45.25611" lon="5.02788">
        <ele>249.57</ele>
        <time>2017-02-25T15:20:14Z</time>
      </trkpt>
      <trkpt lat="45.25611" lon="5.02788">
        <ele>249.57</ele>
        <time>2017-02-25T15:20:15Z</time>
      </trkpt>
      <trkpt lat="45.25611" lon="5.02788">
        <ele>249.57</ele>
        <time>2017-02-25T15:20:16Z</time>
      </trkpt>
      <trkpt lat="45.25611" lon="5.02788">
        <ele>249.57</ele>
        <time>2017-02-25T15:20:17Z</time>
      </trkpt>
      <trkpt lat="45.25611" lon="5.02788">
        <ele>249.57</ele>
        <time>2017-02-25T15:20:18Z</time>
      </trkpt>
      <trkpt lat="45.25611" lon="5.02788">
        <ele>249.57</ele>
        <time>2017-02-25T15:20:19Z</time>
      </trkpt>
      <trkpt lat="45.25611" lon="5.02788">
        <ele>249.57</ele>
        <time>2017-02-25T15:20:20Z</time>
      </trkpt>
      <trkpt lat="45.25611" lon="5.02788">
        <ele>249.57</ele>
        <time>2017-02-25T15:20:21Z</time>
      </trkpt>
      <trkpt lat="45.25611" lon="5.02788">
        <ele>249.57</ele>
        <time>2017-02-25T15:20:22Z</time>
      </trkpt>
      <trkpt lat="45.25611" lon="5.02788">
        <ele>249.57</ele>
        <time>2017-02-25T15:20:23Z</time>
      </trkpt>
      <trkpt lat="45.25611" lon="5.02788">
        <ele>249.57</ele>
        <time>2017-02-25T15:20:24Z</time>
      </trkpt>
      <trkpt lat="45.25611" lon="5.02788">
        <ele>249.57</ele>
        <time>2017-02-25T15:20:25Z</time>
      </trkpt>
      <trkpt lat="45.25611" lon="5.02788">
        <ele>249.57</ele>
        <time>2017-02-25T15:20:26Z</time>
      </trkpt>
      <trkpt lat="45.25611" lon="5.02788">
        <ele>249.57</ele>
        <time>2017-02-25T15:20:27Z</time>
      </trkpt>
      <trkpt lat="45.25611" lon="5.02788">
        <ele>249.57</ele>
        <time>2017-02-25T15:20:28Z</time>
      </trkpt>
      <trkpt lat="45.25611" lon="5.02788">
        <ele>249.57</ele>
        <time>2017-02-25T15:20:29Z</time>
      </trkpt>
      <trkpt lat="45.25611" lon="5.02788">
        <ele>249.57</ele>
        <time>2017-02-25T15:20:30Z</time>
      </trkpt>
      <trkpt lat="45.25611" lon="5.02788">
        <ele>249.57</ele>
        <time>2017-02-25T15:20:31Z</time>
      </trkpt>
      <trkpt lat="45.25611" lon="5.02788">
        <ele>249.57</ele>
        <time>2017-02-25T15:20:32Z</time>
      </trkpt>
      <trkpt lat="45.25611" lon="5.02788">
        <ele>249.57</ele>
        <time>2017-02-25T15:20:33Z</time>
      </trkpt>
      <trkpt lat="45.25611" lon="5.02788">
        <ele>249.57</ele>
        <time>2017-02-25T15:20:34Z</time>
      </trkpt>
      <trkpt lat="45.25611" lon="5.02788">
        <ele>249.57</ele>
        <time>2017-02-25T15:20:35Z</time>
      </trkpt>
      <trkpt lat="45.25611" lon="5.02788">
        <ele>249.57</ele>
        <time>2017-02-25T15:20:36Z</time>
      </trkpt>
      <trkpt lat="45.25611" lon="5.02788">
        <ele>249.57</ele>
        <time>2017-02-25T15:20:37Z</time>
      </trkpt>
      <trkpt lat="45.25611" lon="5.02788">
        <ele>249.57</ele>
        <time>2017-02-25T15:20:38Z</time>
      </trkpt>
      <trkpt lat="45.25611" lon="5.02788">
        <ele>249.57</ele>
        <time>2017-02-25T15:20:39Z</time>
      </trkpt>
      <trkpt lat="45.25611" lon="5.02788">
        <ele>249.57</ele>
        <time>2017-02-25T15:20:40Z</time>
      </trkpt>
      <trkpt lat="45.25611" lon="5.02788">
        <ele>249.57</ele>
        <time>2017-02-25T15:20:41Z</time>
      </trkpt>
      <trkpt lat="45.25611" lon="5.02788">
        <ele>249.57</ele>
        <time>2017-02-25T15:20:42Z</time>
      </trkpt>
      <trkpt lat="45.25611" lon="5.02788">
        <ele>249.57</ele>
        <time>2017-02-25T15:20:43Z</time>
      </trkpt>
      <trkpt lat="45.25611" lon="5.02788">
        <ele>249.57</ele>
        <time>2017-02-25T15:20:44Z</time>
      </trkpt>
      <trkpt lat="45.25611" lon="5.02788">
        <ele>249.57</ele>
        <time>2017-02-25T15:20:45Z</time>
      </trkpt>
      <trkpt lat="45.25611" lon="5.02788">
        <ele>249.57</ele>
        <time>2017-02-25T15:20:46Z</time>
      </trkpt>
      <trkpt lat="45.25611" lon="5.02788">
        <ele>249.57</ele>
        <time>2017-02-25T15:20:47Z</time>
      </trkpt>
      <trkpt lat="45.25611" lon="5.02788">
        <ele>249.57</ele>
        <time>2017-02-25T15:20:48Z</time>
      </trkpt>
      <trkpt lat="45.25611" lon="5.02788">
        <ele>249.57</ele>
        <time>2017-02-25T15:20:49Z</time>
      </trkpt>
      <trkpt lat="45.25611" lon="5.02788">
        <ele>249.57</ele>
        <time>2017-02-25T15:20:50Z</time>
      </trkpt>
      <trkpt lat="45.25611" lon="5.02788">
        <ele>249.57</ele>
        <time>2017-02-25T15:20:51Z</time>
      </trkpt>
      <trkpt lat="45.25611" lon="5.02788">
        <ele>249.57</ele>
        <time>2017-02-25T15:20:52Z</time>
      </trkpt>
      <trkpt lat="45.25611" lon="5.02788">
        <ele>249.57</ele>
        <time>2017-02-25T15:20:53Z</time>
      </trkpt>
      <trkpt lat="45.25611" lon="5.02788">
        <ele>249.57</ele>
        <time>2017-02-25T15:20:54Z</time>
      </trkpt>
      <trkpt lat="45.25611" lon="5.02788">
        <ele>249.57</ele>
        <time>2017-02-25T15:20:55Z</time>
      </trkpt>
      <trkpt lat="45.25611" lon="5.02788">
        <ele>249.57</ele>
        <time>2017-02-25T15:20:56Z</time>
      </trkpt>
      <trkpt lat="45.25611" lon="5.02788">
        <ele>249.57</ele>
        <time>2017-02-25T15:20:57Z</time>
      </trkpt>
      <trkpt lat="45.25611" lon="5.02788">
        <ele>249.57</ele>
        <time>2017-02-25T15:20:58Z</time>
      </trkpt>
      <trkpt lat="45.25611" lon="5.02788">
        <ele>249.57</ele>
        <time>2017-02-25T15:20:59Z</time>
      </trkpt>
      <trkpt lat="45.25611" lon="5.02788">
        <ele>249.57</ele>
        <time>2017-02-25T15:21:00Z</time>
      </trkpt>
      <trkpt lat="45.25611" lon="5.02788">
        <ele>249.57</ele>
        <time>2017-02-25T15:21:01Z</time>
      </trkpt>
      <trkpt lat="45.25611" lon="5.02788">
        <ele>249.57</ele>
        <time>2017-02-25T15:21:02Z</time>
      </trkpt>
      <trkpt lat="45.25611" lon="5.02788">
        <ele>249.57</ele>
        <time>2017-02-25T15:21:03Z</time>
      </trkpt>
      <trkpt lat="45.25611" lon="5.02788">
        <ele>249.57</ele>
        <time>2017-02-25T15:21:04Z</time>
      </trkpt>
      <trkpt lat="45.25611" lon="5.02788">
        <ele>249.57</ele>
        <time>2017-02-25T15:21:05Z</time>
      </trkpt>
      <trkpt lat="45.25611" lon="5.02788">
        <ele>249.57</ele>
        <time>2017-02-25T15:21:06Z</time>
      </trkpt>
      <trkpt lat="45.25611" lon="5.02788">
        <ele>249.57</ele>
        <time>2017-02-25T15:21:07Z</time>
      </trkpt>
      <trkpt lat="45.25611" lon="5.02788">
        <ele>249.57</ele>
        <time>2017-02-25T15:21:08Z</time>
      </trkpt>
      <trkpt lat="45.25611" lon="5.02788">
        <ele>249.57</ele>
        <time>2017-02-25T15:21:09Z</time>
      </trkpt>
      <trkpt lat="45.25611" lon="5.02788">
        <ele>249.57</ele>
        <time>2017-02-25T15:21:10Z</time>
      </trkpt>
      <trkpt lat="45.25611" lon="5.02788">
        <ele>249.57</ele>
        <time>2017-02-25T15:21:11Z</time>
      </trkpt>
      <trkpt lat="45.25611" lon="5.02788">
        <ele>249.57</ele>
        <time>2017-02-25T15:21:12Z</time>
      </trkpt>
      <trkpt lat="45.25611" lon="5.02788">
        <ele>249.57</ele>
        <time>2017-02-25T15:21:13Z</time>
      </trkpt>
      <trkpt lat="45.25611" lon="5.02788">
        <ele>249.57</ele>
        <time>2017-02-25T15:21:14Z</time>
      </trkpt>
      <trkpt lat="45.25611" lon="5.02788">
        <ele>249.57</ele>
        <time>2017-02-25T15:21:15Z</time>
      </trkpt>
      <trkpt lat="45.25611" lon="5.02788">
        <ele>249.57</ele>
        <time>2017-02-25T15:21:16Z</time>
      </trkpt>
      <trkpt lat="45.25611" lon="5.02788">
        <ele>249.57</ele>
        <time>2017-02-25T15:21:17Z</time>
      </trkpt>
      <trkpt lat="45.25611" lon="5.02788">
        <ele>249.57</ele>
        <time>2017-02-25T15:21:18Z</time>
      </trkpt>
      <trkpt lat="45.25611" lon="5.02788">
        <ele>249.57</ele>
        <time>2017-02-25T15:21:19Z</time>
      </trkpt>
      <trkpt lat="45.25611" lon="5.02788">
        <ele>249.57</ele>
        <time>2017-02-25T15:21:20Z</time>
      </trkpt>
      <trkpt lat="45.25611" lon="5.02788">
        <ele>249.57</ele>
        <time>2017-02-25T15:21:21Z</time>
      </trkpt>
      <trkpt lat="45.25611" lon="5.02788">
        <ele>249.57</ele>
        <time>2017-02-25T15:21:22Z</time>
      </trkpt>
      <trkpt lat="45.25611" lon="5.02788">
        <ele>249.57</ele>
        <time>2017-02-25T15:21:23Z</time>
      </trkpt>
      <trkpt lat="45.25611" lon="5.02788">
        <ele>249.57</ele>
        <time>2017-02-25T15:21:24Z</time>
      </trkpt>
      <trkpt lat="45.25611" lon="5.02788">
        <ele>249.57</ele>
        <time>2017-02-25T15:21:25Z</time>
      </trkpt>
      <trkpt lat="45.25611" lon="5.02788">
        <ele>249.57</ele>
        <time>2017-02-25T15:21:26Z</time>
      </trkpt>
      <trkpt lat="45.25611" lon="5.02788">
        <ele>249.57</ele>
        <time>2017-02-25T15:21:27Z</time>
      </trkpt>
      <trkpt lat="45.25611" lon="5.02788">
        <ele>249.57</ele>
        <time>2017-02-25T15:21:28Z</time>
      </trkpt>
      <trkpt lat="45.25611" lon="5.02788">
        <ele>249.57</ele>
        <time>2017-02-25T15:21:29Z</time>
      </trkpt>
      <trkpt lat="45.25611" lon="5.02788">
        <ele>249.57</ele>
        <time>2017-02-25T15:21:30Z</time>
      </trkpt>
      <trkpt lat="45.25611" lon="5.02788">
        <ele>249.57</ele>
        <time>2017-02-25T15:21:31Z</time>
      </trkpt>
      <trkpt lat="45.25611" lon="5.02788">
        <ele>249.57</ele>
        <time>2017-02-25T15:21:32Z</time>
      </trkpt>
      <trkpt lat="45.25611" lon="5.02788">
        <ele>249.57</ele>
        <time>2017-02-25T15:21:33Z</time>
      </trkpt>
      <trkpt lat="45.25611" lon="5.02788">
        <ele>249.57</ele>
        <time>2017-02-25T15:21:34Z</time>
      </trkpt>
      <trkpt lat="45.25611" lon="5.02788">
        <ele>249.57</ele>
        <time>2017-02-25T15:21:35Z</time>
      </trkpt>
      <trkpt lat="45.25611" lon="5.02788">
        <ele>249.57</ele>
        <time>2017-02-25T15:21:36Z</time>
      </trkpt>
      <trkpt lat="45.25611" lon="5.02788">
        <ele>249.57</ele>
        <time>2017-02-25T15:21:37Z</time>
      </trkpt>
      <trkpt lat="45.25611" lon="5.02788">
        <ele>249.57</ele>
        <time>2017-02-25T15:21:38Z</time>
      </trkpt>
      <trkpt lat="45.25611" lon="5.02788">
        <ele>249.57</ele>
        <time>2017-02-25T15:21:39Z</time>
      </trkpt>
      <trkpt lat="45.25611" lon="5.02788">
        <ele>249.57</ele>
        <time>2017-02-25T15:21:40Z</time>
      </trkpt>
      <trkpt lat="45.25611" lon="5.02788">
        <ele>249.57</ele>
        <time>2017-02-25T15:21:41Z</time>
      </trkpt>
      <trkpt lat="45.25611" lon="5.02788">
        <ele>249.57</ele>
        <time>2017-02-25T15:21:42Z</time>
      </trkpt>
      <trkpt lat="45.25611" lon="5.02788">
        <ele>249.57</ele>
        <time>2017-02-25T15:21:43Z</time>
      </trkpt>
      <trkpt lat="45.25611" lon="5.02788">
        <ele>249.57</ele>
        <time>2017-02-25T15:21:44Z</time>
      </trkpt>
      <trkpt lat="45.25611" lon="5.02788">
        <ele>249.57</ele>
        <time>2017-02-25T15:21:45Z</time>
      </trkpt>
      <trkpt lat="45.25611" lon="5.02788">
        <ele>249.57</ele>
        <time>2017-02-25T15:21:46Z</time>
      </trkpt>
      <trkpt lat="45.25611" lon="5.02788">
        <ele>249.57</ele>
        <time>2017-02-25T15:21:47Z</time>
      </trkpt>
      <trkpt lat="45.25611" lon="5.02788">
        <ele>249.57</ele>
        <time>2017-02-25T15:21:48Z</time>
      </trkpt>
      <trkpt lat="45.25611" lon="5.02788">
        <ele>249.57</ele>
        <time>2017-02-25T15:21:49Z</time>
      </trkpt>
      <trkpt lat="45.25611" lon="5.02788">
        <ele>249.57</ele>
        <time>2017-02-25T15:21:50Z</time>
      </trkpt>
      <trkpt lat="45.25611" lon="5.02788">
        <ele>249.57</ele>
        <time>2017-02-25T15:21:51Z</time>
      </trkpt>
      <trkpt lat="45.25611" lon="5.02788">
        <ele>249.57</ele>
        <time>2017-02-25T15:21:52Z</time>
      </trkpt>
      <trkpt lat="45.25611" lon="5.02788">
        <ele>249.57</ele>
        <time>2017-02-25T15:21:53Z</time>
      </trkpt>
      <trkpt lat="45.25611" lon="5.02788">
        <ele>249.57</ele>
        <time>2017-02-25T15:21:54Z</time>
      </trkpt>
      <trkpt lat="45.25611" lon="5.02788">
        <ele>249.57</ele>
        <time>2017-02-25T15:21:55Z</time>
      </trkpt>
      <trkpt lat="45.25611" lon="5.02788">
        <ele>249.57</ele>
        <time>2017-02-25T15:21:56Z</time>
      </trkpt>
      <trkpt lat="45.25611" lon="5.02788">
        <ele>249.57</ele>
        <time>2017-02-25T15:21:57Z</time>
      </trkpt>
      <trkpt lat="45.25611" lon="5.02788">
        <ele>249.57</ele>
        <time>2017-02-25T15:21:58Z</time>
      </trkpt>
      <trkpt lat="45.25611" lon="5.02788">
        <ele>249.57</ele>
        <time>2017-02-25T15:21:59Z</time>
      </trkpt>
      <trkpt lat="45.25611" lon="5.02788">
        <ele>249.57</ele>
        <time>2017-02-25T15:22:00Z</time>
      </trkpt>
      <trkpt lat="45.25611" lon="5.02788">
        <ele>249.57</ele>
        <time>2017-02-25T15:22:01Z</time>
      </trkpt>
      <trkpt lat="45.25611" lon="5.02788">
        <ele>249.57</ele>
        <time>2017-02-25T15:22:02Z</time>
      </trkpt>
      <trkpt lat="45.25611" lon="5.02788">
        <ele>249.57</ele>
        <time>2017-02-25T15:22:03Z</time>
      </trkpt>
      <trkpt lat="45.25611" lon="5.02788">
        <ele>249.57</ele>
        <time>2017-02-25T15:22:04Z</time>
      </trkpt>
      <trkpt lat="45.25611" lon="5.02788">
        <ele>249.57</ele>
        <time>2017-02-25T15:22:05Z</time>
      </trkpt>
      <trkpt lat="45.25611" lon="5.02788">
        <ele>249.57</ele>
        <time>2017-02-25T15:22:06Z</time>
      </trkpt>
      <trkpt lat="45.25611" lon="5.02788">
        <ele>249.57</ele>
        <time>2017-02-25T15:22:07Z</time>
      </trkpt>
      <trkpt lat="45.25611" lon="5.02788">
        <ele>249.57</ele>
        <time>2017-02-25T15:22:08Z</time>
      </trkpt>
      <trkpt lat="45.25611" lon="5.02788">
        <ele>249.57</ele>
        <time>2017-02-25T15:22:09Z</time>
      </trkpt>
      <trkpt lat="45.25611" lon="5.02788">
        <ele>249.57</ele>
        <time>2017-02-25T15:22:10Z</time>
      </trkpt>
      <trkpt lat="45.25611" lon="5.02788">
        <ele>249.57</ele>
        <time>2017-02-25T15:22:11Z</time>
      </trkpt>
      <trkpt lat="45.25611" lon="5.02788">
        <ele>249.57</ele>
        <time>2017-02-25T15:22:12Z</time>
      </trkpt>
      <trkpt lat="45.25611" lon="5.02788">
        <ele>249.57</ele>
        <time>2017-02-25T15:22:13Z</time>
      </trkpt>
      <trkpt lat="45.25611" lon="5.02788">
        <ele>249.57</ele>
        <time>2017-02-25T15:22:14Z</time>
      </trkpt>
      <trkpt lat="45.25611" lon="5.02788">
        <ele>249.57</ele>
        <time>2017-02-25T15:22:15Z</time>
      </trkpt>
      <trkpt lat="45.25611" lon="5.02788">
        <ele>249.57</ele>
        <time>2017-02-25T15:22:16Z</time>
      </trkpt>
      <trkpt lat="45.25611" lon="5.02788">
        <ele>249.57</ele>
        <time>2017-02-25T15:22:17Z</time>
      </trkpt>
      <trkpt lat="45.25611" lon="5.02788">
        <ele>249.57</ele>
        <time>2017-02-25T15:22:18Z</time>
      </trkpt>
      <trkpt lat="45.25611" lon="5.02788">
        <ele>249.57</ele>
        <time>2017-02-25T15:22:19Z</time>
      </trkpt>
      <trkpt lat="45.25611" lon="5.02788">
        <ele>249.57</ele>
        <time>2017-02-25T15:22:20Z</time>
      </trkpt>
      <trkpt lat="45.25611" lon="5.02788">
        <ele>249.57</ele>
        <time>2017-02-25T15:22:21Z</time>
      </trkpt>
      <trkpt lat="45.25611" lon="5.02788">
        <ele>249.57</ele>
        <time>2017-02-25T15:22:22Z</time>
      </trkpt>
      <trkpt lat="45.25611" lon="5.02788">
        <ele>249.57</ele>
        <time>2017-02-25T15:22:23Z</time>
      </trkpt>
      <trkpt lat="45.25611" lon="5.02788">
        <ele>249.57</ele>
        <time>2017-02-25T15:22:24Z</time>
      </trkpt>
      <trkpt lat="45.25611" lon="5.02788">
        <ele>249.57</ele>
        <time>2017-02-25T15:22:25Z</time>
      </trkpt>
      <trkpt lat="45.25616" lon="5.02778">
        <ele>248.61</ele>
        <time>2017-02-25T15:22:26Z</time>
      </trkpt>
      <trkpt lat="45.25617" lon="5.02779">
        <ele>248.49</ele>
        <time>2017-02-25T15:22:27Z</time>
      </trkpt>
      <trkpt lat="45.25617" lon="5.02778">
        <ele>248.47</ele>
        <time>2017-02-25T15:22:28Z</time>
      </trkpt>
      <trkpt lat="45.25618" lon="5.02779">
        <ele>248.47</ele>
        <time>2017-02-25T15:22:29Z</time>
      </trkpt>
      <trkpt lat="45.25618" lon="5.02779">
        <ele>248.47</ele>
        <time>2017-02-25T15:22:30Z</time>
      </trkpt>
      <trkpt lat="45.25618" lon="5.02779">
        <ele>248.47</ele>
        <time>2017-02-25T15:22:31Z</time>
      </trkpt>
      <trkpt lat="45.25618" lon="5.02779">
        <ele>248.47</ele>
        <time>2017-02-25T15:22:32Z</time>
      </trkpt>
      <trkpt lat="45.25618" lon="5.02779">
        <ele>248.47</ele>
        <time>2017-02-25T15:22:33Z</time>
      </trkpt>
      <trkpt lat="45.25618" lon="5.02779">
        <ele>248.47</ele>
        <time>2017-02-25T15:22:34Z</time>
      </trkpt>
      <trkpt lat="45.25618" lon="5.02779">
        <ele>248.47</ele>
        <time>2017-02-25T15:22:35Z</time>
      </trkpt>
      <trkpt lat="45.25625" lon="5.02781">
        <ele>248.87</ele>
        <time>2017-02-25T15:22:36Z</time>
      </trkpt>
      <trkpt lat="45.25626" lon="5.02782">
        <ele>249.03</ele>
        <time>2017-02-25T15:22:37Z</time>
      </trkpt>
      <trkpt lat="45.25627" lon="5.02783">
        <ele>249.14</ele>
        <time>2017-02-25T15:22:38Z</time>
      </trkpt>
      <trkpt lat="45.25627" lon="5.02784">
        <ele>249.24</ele>
        <time>2017-02-25T15:22:39Z</time>
      </trkpt>
      <trkpt lat="45.25628" lon="5.02785">
        <ele>249.34</ele>
        <time>2017-02-25T15:22:40Z</time>
      </trkpt>
      <trkpt lat="45.25628" lon="5.02786">
        <ele>249.36</ele>
        <time>2017-02-25T15:22:41Z</time>
      </trkpt>
      <trkpt lat="45.25629" lon="5.02786">
        <ele>249.45</ele>
        <time>2017-02-25T15:22:42Z</time>
      </trkpt>
      <trkpt lat="45.2563" lon="5.02787">
        <ele>249.54</ele>
        <time>2017-02-25T15:22:43Z</time>
      </trkpt>
      <trkpt lat="45.2563" lon="5.02787">
        <ele>249.56</ele>
        <time>2017-02-25T15:22:44Z</time>
      </trkpt>
      <trkpt lat="45.2563" lon="5.02787">
        <ele>249.57</ele>
        <time>2017-02-25T15:22:45Z</time>
      </trkpt>
      <trkpt lat="45.2563" lon="5.02787">
        <ele>249.57</ele>
        <time>2017-02-25T15:22:46Z</time>
      </trkpt>
      <trkpt lat="45.2563" lon="5.02787">
        <ele>249.57</ele>
        <time>2017-02-25T15:22:47Z</time>
      </trkpt>
      <trkpt lat="45.2563" lon="5.02787">
        <ele>249.57</ele>
        <time>2017-02-25T15:22:48Z</time>
      </trkpt>
      <trkpt lat="45.2563" lon="5.02787">
        <ele>249.57</ele>
        <time>2017-02-25T15:22:49Z</time>
      </trkpt>
      <trkpt lat="45.2563" lon="5.02787">
        <ele>249.57</ele>
        <time>2017-02-25T15:22:50Z</time>
      </trkpt>
      <trkpt lat="45.2563" lon="5.02787">
        <ele>249.57</ele>
        <time>2017-02-25T15:22:51Z</time>
      </trkpt>
      <trkpt lat="45.2563" lon="5.02787">
        <ele>249.57</ele>
        <time>2017-02-25T15:22:52Z</time>
      </trkpt>
      <trkpt lat="45.2563" lon="5.02787">
        <ele>249.57</ele>
        <time>2017-02-25T15:22:53Z</time>
      </trkpt>
      <trkpt lat="45.2563" lon="5.02787">
        <ele>249.57</ele>
        <time>2017-02-25T15:22:54Z</time>
      </trkpt>
      <trkpt lat="45.25638" lon="5.02792">
        <ele>248.69</ele>
        <time>2017-02-25T15:22:55Z</time>
      </trkpt>
      <trkpt lat="45.25639" lon="5.02792">
        <ele>248.51</ele>
        <time>2017-02-25T15:22:56Z</time>
      </trkpt>
      <trkpt lat="45.25639" lon="5.02792">
        <ele>248.4</ele>
        <time>2017-02-25T15:22:57Z</time>
      </trkpt>
      <trkpt lat="45.2564" lon="5.02793">
        <ele>248.37</ele>
        <time>2017-02-25T15:22:58Z</time>
      </trkpt>
      <trkpt lat="45.2564" lon="5.02793">
        <ele>248.37</ele>
        <time>2017-02-25T15:22:59Z</time>
      </trkpt>
      <trkpt lat="45.2564" lon="5.02793">
        <ele>248.37</ele>
        <time>2017-02-25T15:23:00Z</time>
      </trkpt>
      <trkpt lat="45.2564" lon="5.02793">
        <ele>248.37</ele>
        <time>2017-02-25T15:23:01Z</time>
      </trkpt>
      <trkpt lat="45.2564" lon="5.02793">
        <ele>248.37</ele>
        <time>2017-02-25T15:23:02Z</time>
      </trkpt>
      <trkpt lat="45.25643" lon="5.02798">
        <ele>248.05</ele>
        <time>2017-02-25T15:23:03Z</time>
      </trkpt>
      <trkpt lat="45.25644" lon="5.02799">
        <ele>247.82</ele>
        <time>2017-02-25T15:23:04Z</time>
      </trkpt>
      <trkpt lat="45.25645" lon="5.028">
        <ele>247.7</ele>
        <time>2017-02-25T15:23:05Z</time>
      </trkpt>
      <trkpt lat="45.25645" lon="5.028">
        <ele>247.51</ele>
        <time>2017-02-25T15:23:06Z</time>
      </trkpt>
      <trkpt lat="45.25646" lon="5.02801">
        <ele>247.32</ele>
        <time>2017-02-25T15:23:07Z</time>
      </trkpt>
      <trkpt lat="45.25647" lon="5.02802">
        <ele>247.12</ele>
        <time>2017-02-25T15:23:08Z</time>
      </trkpt>
      <trkpt lat="45.25648" lon="5.02803">
        <ele>246.92</ele>
        <time>2017-02-25T15:23:09Z</time>
      </trkpt>
      <trkpt lat="45.25648" lon="5.02803">
        <ele>246.8</ele>
        <time>2017-02-25T15:23:10Z</time>
      </trkpt>
      <trkpt lat="45.25649" lon="5.02805">
        <ele>246.61</ele>
        <time>2017-02-25T15:23:11Z</time>
      </trkpt>
      <trkpt lat="45.2565" lon="5.02806">
        <ele>246.5</ele>
        <time>2017-02-25T15:23:12Z</time>
      </trkpt>
      <trkpt lat="45.2565" lon="5.02807">
        <ele>246.31</ele>
        <time>2017-02-25T15:23:13Z</time>
      </trkpt>
      <trkpt lat="45.2565" lon="5.02808">
        <ele>246.2</ele>
        <time>2017-02-25T15:23:14Z</time>
      </trkpt>
      <trkpt lat="45.25651" lon="5.02809">
        <ele>246.01</ele>
        <time>2017-02-25T15:23:15Z</time>
      </trkpt>
      <trkpt lat="45.25651" lon="5.0281">
        <ele>245.9</ele>
        <time>2017-02-25T15:23:16Z</time>
      </trkpt>
      <trkpt lat="45.25651" lon="5.0281">
        <ele>245.87</ele>
        <time>2017-02-25T15:23:17Z</time>
      </trkpt>
      <trkpt lat="45.25651" lon="5.0281">
        <ele>245.87</ele>
        <time>2017-02-25T15:23:18Z</time>
      </trkpt>
      <trkpt lat="45.25651" lon="5.0281">
        <ele>245.87</ele>
        <time>2017-02-25T15:23:19Z</time>
      </trkpt>
      <trkpt lat="45.25651" lon="5.0281">
        <ele>245.87</ele>
        <time>2017-02-25T15:23:20Z</time>
      </trkpt>
      <trkpt lat="45.25651" lon="5.0281">
        <ele>245.87</ele>
        <time>2017-02-25T15:23:21Z</time>
      </trkpt>
      <trkpt lat="45.25651" lon="5.0281">
        <ele>245.87</ele>
        <time>2017-02-25T15:23:22Z</time>
      </trkpt>
      <trkpt lat="45.25651" lon="5.0281">
        <ele>245.87</ele>
        <time>2017-02-25T15:23:23Z</time>
      </trkpt>
      <trkpt lat="45.25651" lon="5.0281">
        <ele>245.87</ele>
        <time>2017-02-25T15:23:24Z</time>
      </trkpt>
      <trkpt lat="45.25651" lon="5.0281">
        <ele>245.87</ele>
        <time>2017-02-25T15:23:25Z</time>
      </trkpt>
      <trkpt lat="45.25651" lon="5.0281">
        <ele>245.87</ele>
        <time>2017-02-25T15:23:26Z</time>
      </trkpt>
      <trkpt lat="45.25654" lon="5.02823">
        <ele>244.83</ele>
        <time>2017-02-25T15:23:27Z</time>
      </trkpt>
      <trkpt lat="45.25655" lon="5.02824">
        <ele>244.54</ele>
        <time>2017-02-25T15:23:28Z</time>
      </trkpt>
      <trkpt lat="45.25655" lon="5.02825">
        <ele>244.48</ele>
        <time>2017-02-25T15:23:29Z</time>
      </trkpt>
      <trkpt lat="45.25656" lon="5.02826">
        <ele>244.55</ele>
        <time>2017-02-25T15:23:30Z</time>
      </trkpt>
      <trkpt lat="45.25656" lon="5.02826">
        <ele>244.56</ele>
        <time>2017-02-25T15:23:31Z</time>
      </trkpt>
      <trkpt lat="45.25656" lon="5.02826">
        <ele>244.57</ele>
        <time>2017-02-25T15:23:32Z</time>
      </trkpt>
      <trkpt lat="45.25656" lon="5.02826">
        <ele>244.57</ele>
        <time>2017-02-25T15:23:33Z</time>
      </trkpt>
      <trkpt lat="45.25656" lon="5.02826">
        <ele>244.57</ele>
        <time>2017-02-25T15:23:34Z</time>
      </trkpt>
      <trkpt lat="45.25656" lon="5.02826">
        <ele>244.57</ele>
        <time>2017-02-25T15:23:35Z</time>
      </trkpt>
      <trkpt lat="45.25656" lon="5.02826">
        <ele>244.57</ele>
        <time>2017-02-25T15:23:36Z</time>
      </trkpt>
      <trkpt lat="45.25656" lon="5.02826">
        <ele>244.57</ele>
        <time>2017-02-25T15:23:37Z</time>
      </trkpt>
      <trkpt lat="45.25658" lon="5.02834">
        <ele>244.41</ele>
        <time>2017-02-25T15:23:38Z</time>
      </trkpt>
      <trkpt lat="45.25659" lon="5.02835">
        <ele>244.38</ele>
        <time>2017-02-25T15:23:39Z</time>
      </trkpt>
      <trkpt lat="45.2566" lon="5.02836">
        <ele>244.37</ele>
        <time>2017-02-25T15:23:40Z</time>
      </trkpt>
      <trkpt lat="45.2566" lon="5.02837">
        <ele>244.37</ele>
        <time>2017-02-25T15:23:41Z</time>
      </trkpt>
      <trkpt lat="45.25661" lon="5.02838">
        <ele>244.37</ele>
        <time>2017-02-25T15:23:42Z</time>
      </trkpt>
      <trkpt lat="45.25662" lon="5.02839">
        <ele>244.37</ele>
        <time>2017-02-25T15:23:43Z</time>
      </trkpt>
      <trkpt lat="45.25662" lon="5.0284">
        <ele>244.29</ele>
        <time>2017-02-25T15:23:44Z</time>
      </trkpt>
      <trkpt lat="45.25663" lon="5.02841">
        <ele>244.27</ele>
        <time>2017-02-25T15:23:45Z</time>
      </trkpt>
      <trkpt lat="45.25664" lon="5.02841">
        <ele>244.19</ele>
        <time>2017-02-25T15:23:46Z</time>
      </trkpt>
      <trkpt lat="45.25664" lon="5.02842">
        <ele>244.09</ele>
        <time>2017-02-25T15:23:47Z</time>
      </trkpt>
      <trkpt lat="45.25665" lon="5.02843">
        <ele>244.07</ele>
        <time>2017-02-25T15:23:48Z</time>
      </trkpt>
      <trkpt lat="45.25665" lon="5.02843">
        <ele>244.07</ele>
        <time>2017-02-25T15:23:49Z</time>
      </trkpt>
      <trkpt lat="45.25665" lon="5.02843">
        <ele>244.07</ele>
        <time>2017-02-25T15:23:50Z</time>
      </trkpt>
      <trkpt lat="45.25665" lon="5.02843">
        <ele>244.07</ele>
        <time>2017-02-25T15:23:51Z</time>
      </trkpt>
      <trkpt lat="45.25665" lon="5.02843">
        <ele>244.07</ele>
        <time>2017-02-25T15:23:52Z</time>
      </trkpt>
      <trkpt lat="45.25665" lon="5.02843">
        <ele>244.07</ele>
        <time>2017-02-25T15:23:53Z</time>
      </trkpt>
      <trkpt lat="45.25665" lon="5.02843">
        <ele>244.07</ele>
        <time>2017-02-25T15:23:54Z</time>
      </trkpt>
      <trkpt lat="45.25665" lon="5.02843">
        <ele>244.07</ele>
        <time>2017-02-25T15:23:55Z</time>
      </trkpt>
      <trkpt lat="45.25665" lon="5.02843">
        <ele>244.07</ele>
        <time>2017-02-25T15:23:56Z</time>
      </trkpt>
      <trkpt lat="45.25665" lon="5.02843">
        <ele>244.07</ele>
        <time>2017-02-25T15:23:57Z</time>
      </trkpt>
      <trkpt lat="45.25665" lon="5.02843">
        <ele>244.07</ele>
        <time>2017-02-25T15:23:58Z</time>
      </trkpt>
      <trkpt lat="45.25665" lon="5.02843">
        <ele>244.07</ele>
        <time>2017-02-25T15:23:59Z</time>
      </trkpt>
      <trkpt lat="45.25665" lon="5.02843">
        <ele>244.07</ele>
        <time>2017-02-25T15:24:00Z</time>
      </trkpt>
      <trkpt lat="45.25665" lon="5.02843">
        <ele>244.07</ele>
        <time>2017-02-25T15:24:01Z</time>
      </trkpt>
      <trkpt lat="45.25665" lon="5.02843">
        <ele>244.07</ele>
        <time>2017-02-25T15:24:02Z</time>
      </trkpt>
      <trkpt lat="45.25665" lon="5.02843">
        <ele>244.07</ele>
        <time>2017-02-25T15:24:03Z</time>
      </trkpt>
      <trkpt lat="45.25665" lon="5.02843">
        <ele>244.07</ele>
        <time>2017-02-25T15:24:04Z</time>
      </trkpt>
      <trkpt lat="45.25665" lon="5.02843">
        <ele>244.07</ele>
        <time>2017-02-25T15:24:05Z</time>
      </trkpt>
      <trkpt lat="45.25665" lon="5.02843">
        <ele>244.07</ele>
        <time>2017-02-25T15:24:06Z</time>
      </trkpt>
      <trkpt lat="45.25665" lon="5.02843">
        <ele>244.07</ele>
        <time>2017-02-25T15:24:07Z</time>
      </trkpt>
      <trkpt lat="45.25665" lon="5.02843">
        <ele>244.07</ele>
        <time>2017-02-25T15:24:08Z</time>
      </trkpt>
      <trkpt lat="45.25665" lon="5.02843">
        <ele>244.07</ele>
        <time>2017-02-25T15:24:09Z</time>
      </trkpt>
      <trkpt lat="45.25665" lon="5.02843">
        <ele>244.07</ele>
        <time>2017-02-25T15:24:10Z</time>
      </trkpt>
      <trkpt lat="45.25665" lon="5.02843">
        <ele>244.07</ele>
        <time>2017-02-25T15:24:11Z</time>
      </trkpt>
      <trkpt lat="45.25665" lon="5.02843">
        <ele>244.07</ele>
        <time>2017-02-25T15:24:12Z</time>
      </trkpt>
      <trkpt lat="45.25665" lon="5.02843">
        <ele>244.07</ele>
        <time>2017-02-25T15:24:13Z</time>
      </trkpt>
      <trkpt lat="45.25665" lon="5.02843">
        <ele>244.07</ele>
        <time>2017-02-25T15:24:14Z</time>
      </trkpt>
      <trkpt lat="45.25665" lon="5.02843">
        <ele>244.07</ele>
        <time>2017-02-25T15:24:15Z</time>
      </trkpt>
      <trkpt lat="45.25665" lon="5.02843">
        <ele>244.07</ele>
        <time>2017-02-25T15:24:16Z</time>
      </trkpt>
      <trkpt lat="45.25665" lon="5.02843">
        <ele>244.07</ele>
        <time>2017-02-25T15:24:17Z</time>
      </trkpt>
      <trkpt lat="45.25665" lon="5.02843">
        <ele>244.07</ele>
        <time>2017-02-25T15:24:18Z</time>
      </trkpt>
      <trkpt lat="45.25665" lon="5.02843">
        <ele>244.07</ele>
        <time>2017-02-25T15:24:19Z</time>
      </trkpt>
      <trkpt lat="45.25665" lon="5.02843">
        <ele>244.07</ele>
        <time>2017-02-25T15:24:20Z</time>
      </trkpt>
      <trkpt lat="45.25665" lon="5.02843">
        <ele>244.07</ele>
        <time>2017-02-25T15:24:21Z</time>
      </trkpt>
      <trkpt lat="45.25665" lon="5.02843">
        <ele>244.07</ele>
        <time>2017-02-25T15:24:22Z</time>
      </trkpt>
      <trkpt lat="45.25665" lon="5.02843">
        <ele>244.07</ele>
        <time>2017-02-25T15:24:23Z</time>
      </trkpt>
      <trkpt lat="45.25665" lon="5.02843">
        <ele>244.07</ele>
        <time>2017-02-25T15:24:24Z</time>
      </trkpt>
      <trkpt lat="45.25665" lon="5.02843">
        <ele>244.07</ele>
        <time>2017-02-25T15:24:25Z</time>
      </trkpt>
      <trkpt lat="45.25665" lon="5.02843">
        <ele>244.07</ele>
        <time>2017-02-25T15:24:26Z</time>
      </trkpt>
      <trkpt lat="45.25665" lon="5.02843">
        <ele>244.07</ele>
        <time>2017-02-25T15:24:27Z</time>
      </trkpt>
      <trkpt lat="45.25665" lon="5.02843">
        <ele>244.07</ele>
        <time>2017-02-25T15:24:28Z</time>
      </trkpt>
      <trkpt lat="45.25665" lon="5.02843">
        <ele>244.07</ele>
        <time>2017-02-25T15:24:29Z</time>
      </trkpt>
      <trkpt lat="45.25665" lon="5.02843">
        <ele>244.07</ele>
        <time>2017-02-25T15:24:30Z</time>
      </trkpt>
      <trkpt lat="45.25665" lon="5.02843">
        <ele>244.07</ele>
        <time>2017-02-25T15:24:31Z</time>
      </trkpt>
      <trkpt lat="45.25665" lon="5.02843">
        <ele>244.07</ele>
        <time>2017-02-25T15:24:32Z</time>
      </trkpt>
      <trkpt lat="45.25665" lon="5.02843">
        <ele>244.07</ele>
        <time>2017-02-25T15:24:33Z</time>
      </trkpt>
      <trkpt lat="45.25665" lon="5.02843">
        <ele>244.07</ele>
        <time>2017-02-25T15:24:34Z</time>
      </trkpt>
      <trkpt lat="45.25665" lon="5.02843">
        <ele>244.07</ele>
        <time>2017-02-25T15:24:35Z</time>
      </trkpt>
      <trkpt lat="45.25665" lon="5.02843">
        <ele>244.07</ele>
        <time>2017-02-25T15:24:36Z</time>
      </trkpt>
      <trkpt lat="45.25665" lon="5.02843">
        <ele>244.07</ele>
        <time>2017-02-25T15:24:37Z</time>
      </trkpt>
      <trkpt lat="45.25665" lon="5.02843">
        <ele>244.07</ele>
        <time>2017-02-25T15:24:38Z</time>
      </trkpt>
      <trkpt lat="45.25665" lon="5.02843">
        <ele>244.07</ele>
        <time>2017-02-25T15:24:39Z</time>
      </trkpt>
      <trkpt lat="45.25665" lon="5.02843">
        <ele>244.07</ele>
        <time>2017-02-25T15:24:40Z</time>
      </trkpt>
      <trkpt lat="45.25665" lon="5.02843">
        <ele>244.07</ele>
        <time>2017-02-25T15:24:41Z</time>
      </trkpt>
      <trkpt lat="45.25665" lon="5.02843">
        <ele>244.07</ele>
        <time>2017-02-25T15:24:42Z</time>
      </trkpt>
      <trkpt lat="45.25665" lon="5.02843">
        <ele>244.07</ele>
        <time>2017-02-25T15:24:43Z</time>
      </trkpt>
      <trkpt lat="45.25665" lon="5.02843">
        <ele>244.07</ele>
        <time>2017-02-25T15:24:44Z</time>
      </trkpt>
      <trkpt lat="45.25665" lon="5.02843">
        <ele>244.07</ele>
        <time>2017-02-25T15:24:45Z</time>
      </trkpt>
      <trkpt lat="45.25665" lon="5.02843">
        <ele>244.07</ele>
        <time>2017-02-25T15:24:46Z</time>
      </trkpt>
      <trkpt lat="45.25665" lon="5.02843">
        <ele>244.07</ele>
        <time>2017-02-25T15:24:47Z</time>
      </trkpt>
      <trkpt lat="45.25665" lon="5.02843">
        <ele>244.07</ele>
        <time>2017-02-25T15:24:48Z</time>
      </trkpt>
      <trkpt lat="45.25665" lon="5.02843">
        <ele>244.07</ele>
        <time>2017-02-25T15:24:49Z</time>
      </trkpt>
      <trkpt lat="45.25665" lon="5.02843">
        <ele>244.07</ele>
        <time>2017-02-25T15:24:50Z</time>
      </trkpt>
      <trkpt lat="45.25665" lon="5.02843">
        <ele>244.07</ele>
        <time>2017-02-25T15:24:51Z</time>
      </trkpt>
      <trkpt lat="45.25665" lon="5.02843">
        <ele>244.07</ele>
        <time>2017-02-25T15:24:52Z</time>
      </trkpt>
      <trkpt lat="45.25665" lon="5.02843">
        <ele>244.07</ele>
        <time>2017-02-25T15:24:53Z</time>
      </trkpt>
      <trkpt lat="45.25665" lon="5.02843">
        <ele>244.07</ele>
        <time>2017-02-25T15:24:54Z</time>
      </trkpt>
      <trkpt lat="45.25665" lon="5.02843">
        <ele>244.07</ele>
        <time>2017-02-25T15:24:55Z</time>
      </trkpt>
      <trkpt lat="45.25665" lon="5.02843">
        <ele>244.07</ele>
        <time>2017-02-25T15:24:56Z</time>
      </trkpt>
      <trkpt lat="45.25665" lon="5.02843">
        <ele>244.07</ele>
        <time>2017-02-25T15:24:57Z</time>
      </trkpt>
      <trkpt lat="45.25665" lon="5.02843">
        <ele>244.07</ele>
        <time>2017-02-25T15:24:58Z</time>
      </trkpt>
      <trkpt lat="45.25665" lon="5.02843">
        <ele>244.07</ele>
        <time>2017-02-25T15:24:59Z</time>
      </trkpt>
      <trkpt lat="45.25665" lon="5.02843">
        <ele>244.07</ele>
        <time>2017-02-25T15:25:00Z</time>
      </trkpt>
      <trkpt lat="45.25665" lon="5.02843">
        <ele>244.07</ele>
        <time>2017-02-25T15:25:01Z</time>
      </trkpt>
      <trkpt lat="45.25665" lon="5.02843">
        <ele>244.07</ele>
        <time>2017-02-25T15:25:02Z</time>
      </trkpt>
      <trkpt lat="45.25665" lon="5.02843">
        <ele>244.07</ele>
        <time>2017-02-25T15:25:03Z</time>
      </trkpt>
      <trkpt lat="45.25665" lon="5.02843">
        <ele>244.07</ele>
        <time>2017-02-25T15:25:04Z</time>
      </trkpt>
      <trkpt lat="45.25665" lon="5.02843">
        <ele>244.07</ele>
        <time>2017-02-25T15:25:05Z</time>
      </trkpt>
      <trkpt lat="45.25665" lon="5.02843">
        <ele>244.07</ele>
        <time>2017-02-25T15:25:06Z</time>
      </trkpt>
      <trkpt lat="45.25665" lon="5.02843">
        <ele>244.07</ele>
        <time>2017-02-25T15:25:07Z</time>
      </trkpt>
      <trkpt lat="45.25665" lon="5.02843">
        <ele>244.07</ele>
        <time>2017-02-25T15:25:08Z</time>
      </trkpt>
      <trkpt lat="45.25665" lon="5.02843">
        <ele>244.07</ele>
        <time>2017-02-25T15:25:09Z</time>
      </trkpt>
      <trkpt lat="45.25665" lon="5.02843">
        <ele>244.07</ele>
        <time>2017-02-25T15:25:10Z</time>
      </trkpt>
      <trkpt lat="45.25665" lon="5.02843">
        <ele>244.07</ele>
        <time>2017-02-25T15:25:11Z</time>
      </trkpt>
      <trkpt lat="45.25665" lon="5.02843">
        <ele>244.07</ele>
        <time>2017-02-25T15:25:12Z</time>
      </trkpt>
      <trkpt lat="45.25665" lon="5.02843">
        <ele>244.07</ele>
        <time>2017-02-25T15:25:13Z</time>
      </trkpt>
      <trkpt lat="45.25665" lon="5.02843">
        <ele>244.07</ele>
        <time>2017-02-25T15:25:14Z</time>
      </trkpt>
      <trkpt lat="45.25665" lon="5.02843">
        <ele>244.07</ele>
        <time>2017-02-25T15:25:15Z</time>
      </trkpt>
      <trkpt lat="45.25665" lon="5.02843">
        <ele>244.07</ele>
        <time>2017-02-25T15:25:16Z</time>
      </trkpt>
      <trkpt lat="45.25665" lon="5.02843">
        <ele>244.07</ele>
        <time>2017-02-25T15:25:17Z</time>
      </trkpt>
      <trkpt lat="45.25665" lon="5.02843">
        <ele>244.07</ele>
        <time>2017-02-25T15:25:18Z</time>
      </trkpt>
      <trkpt lat="45.25665" lon="5.02843">
        <ele>244.07</ele>
        <time>2017-02-25T15:25:19Z</time>
      </trkpt>
      <trkpt lat="45.25665" lon="5.02843">
        <ele>244.07</ele>
        <time>2017-02-25T15:25:20Z</time>
      </trkpt>
      <trkpt lat="45.25665" lon="5.02843">
        <ele>244.07</ele>
        <time>2017-02-25T15:25:21Z</time>
      </trkpt>
      <trkpt lat="45.25665" lon="5.02843">
        <ele>244.07</ele>
        <time>2017-02-25T15:25:22Z</time>
      </trkpt>
      <trkpt lat="45.25665" lon="5.02843">
        <ele>244.07</ele>
        <time>2017-02-25T15:25:23Z</time>
      </trkpt>
      <trkpt lat="45.25665" lon="5.02843">
        <ele>244.07</ele>
        <time>2017-02-25T15:25:24Z</time>
      </trkpt>
      <trkpt lat="45.25665" lon="5.02843">
        <ele>244.07</ele>
        <time>2017-02-25T15:25:25Z</time>
      </trkpt>
      <trkpt lat="45.25665" lon="5.02843">
        <ele>244.07</ele>
        <time>2017-02-25T15:25:26Z</time>
      </trkpt>
      <trkpt lat="45.25665" lon="5.02843">
        <ele>244.07</ele>
        <time>2017-02-25T15:25:27Z</time>
      </trkpt>
      <trkpt lat="45.25665" lon="5.02843">
        <ele>244.07</ele>
        <time>2017-02-25T15:25:28Z</time>
      </trkpt>
      <trkpt lat="45.25665" lon="5.02843">
        <ele>244.07</ele>
        <time>2017-02-25T15:25:29Z</time>
      </trkpt>
      <trkpt lat="45.25665" lon="5.02843">
        <ele>244.07</ele>
        <time>2017-02-25T15:25:30Z</time>
      </trkpt>
      <trkpt lat="45.25665" lon="5.02843">
        <ele>244.07</ele>
        <time>2017-02-25T15:25:31Z</time>
      </trkpt>
      <trkpt lat="45.25665" lon="5.02843">
        <ele>244.07</ele>
        <time>2017-02-25T15:25:32Z</time>
      </trkpt>
      <trkpt lat="45.25665" lon="5.02843">
        <ele>244.07</ele>
        <time>2017-02-25T15:25:33Z</time>
      </trkpt>
      <trkpt lat="45.25665" lon="5.02843">
        <ele>244.07</ele>
        <time>2017-02-25T15:25:34Z</time>
      </trkpt>
      <trkpt lat="45.25665" lon="5.02843">
        <ele>244.07</ele>
        <time>2017-02-25T15:25:35Z</time>
      </trkpt>
      <trkpt lat="45.25665" lon="5.02843">
        <ele>244.07</ele>
        <time>2017-02-25T15:25:36Z</time>
      </trkpt>
      <trkpt lat="45.25665" lon="5.02843">
        <ele>244.07</ele>
        <time>2017-02-25T15:25:37Z</time>
      </trkpt>
      <trkpt lat="45.25665" lon="5.02843">
        <ele>244.07</ele>
        <time>2017-02-25T15:25:38Z</time>
      </trkpt>
      <trkpt lat="45.25665" lon="5.02843">
        <ele>244.07</ele>
        <time>2017-02-25T15:25:39Z</time>
      </trkpt>
      <trkpt lat="45.25665" lon="5.02843">
        <ele>244.07</ele>
        <time>2017-02-25T15:25:40Z</time>
      </trkpt>
      <trkpt lat="45.25665" lon="5.02843">
        <ele>244.07</ele>
        <time>2017-02-25T15:25:41Z</time>
      </trkpt>
      <trkpt lat="45.25665" lon="5.02843">
        <ele>244.07</ele>
        <time>2017-02-25T15:25:42Z</time>
      </trkpt>
      <trkpt lat="45.25665" lon="5.02843">
        <ele>244.07</ele>
        <time>2017-02-25T15:25:43Z</time>
      </trkpt>
      <trkpt lat="45.25665" lon="5.02843">
        <ele>244.07</ele>
        <time>2017-02-25T15:25:44Z</time>
      </trkpt>
      <trkpt lat="45.25665" lon="5.02843">
        <ele>244.07</ele>
        <time>2017-02-25T15:25:45Z</time>
      </trkpt>
      <trkpt lat="45.25665" lon="5.02843">
        <ele>244.07</ele>
        <time>2017-02-25T15:25:46Z</time>
      </trkpt>
      <trkpt lat="45.25665" lon="5.02843">
        <ele>244.07</ele>
        <time>2017-02-25T15:25:47Z</time>
      </trkpt>
      <trkpt lat="45.25665" lon="5.02843">
        <ele>244.07</ele>
        <time>2017-02-25T15:25:48Z</time>
      </trkpt>
      <trkpt lat="45.25665" lon="5.02843">
        <ele>244.07</ele>
        <time>2017-02-25T15:25:49Z</time>
      </trkpt>
      <trkpt lat="45.25665" lon="5.02843">
        <ele>244.07</ele>
        <time>2017-02-25T15:25:50Z</time>
      </trkpt>
      <trkpt lat="45.25665" lon="5.02843">
        <ele>244.07</ele>
        <time>2017-02-25T15:25:51Z</time>
      </trkpt>
      <trkpt lat="45.25665" lon="5.02843">
        <ele>244.07</ele>
        <time>2017-02-25T15:25:52Z</time>
      </trkpt>
      <trkpt lat="45.25665" lon="5.02843">
        <ele>244.07</ele>
        <time>2017-02-25T15:25:53Z</time>
      </trkpt>
      <trkpt lat="45.25665" lon="5.02843">
        <ele>244.07</ele>
        <time>2017-02-25T15:25:54Z</time>
      </trkpt>
      <trkpt lat="45.25665" lon="5.02843">
        <ele>244.07</ele>
        <time>2017-02-25T15:25:55Z</time>
      </trkpt>
      <trkpt lat="45.25665" lon="5.02843">
        <ele>244.07</ele>
        <time>2017-02-25T15:25:56Z</time>
      </trkpt>
      <trkpt lat="45.25665" lon="5.02843">
        <ele>244.07</ele>
        <time>2017-02-25T15:25:57Z</time>
      </trkpt>
      <trkpt lat="45.25665" lon="5.02843">
        <ele>244.07</ele>
        <time>2017-02-25T15:25:58Z</time>
      </trkpt>
      <trkpt lat="45.25665" lon="5.02843">
        <ele>244.07</ele>
        <time>2017-02-25T15:25:59Z</time>
      </trkpt>
      <trkpt lat="45.25665" lon="5.02843">
        <ele>244.07</ele>
        <time>2017-02-25T15:26:00Z</time>
      </trkpt>
      <trkpt lat="45.25665" lon="5.02843">
        <ele>244.07</ele>
        <time>2017-02-25T15:26:01Z</time>
      </trkpt>
      <trkpt lat="45.25665" lon="5.02843">
        <ele>244.07</ele>
        <time>2017-02-25T15:26:02Z</time>
      </trkpt>
      <trkpt lat="45.25665" lon="5.02843">
        <ele>244.07</ele>
        <time>2017-02-25T15:26:03Z</time>
      </trkpt>
      <trkpt lat="45.25665" lon="5.02843">
        <ele>244.07</ele>
        <time>2017-02-25T15:26:04Z</time>
      </trkpt>
      <trkpt lat="45.25665" lon="5.02843">
        <ele>244.07</ele>
        <time>2017-02-25T15:26:05Z</time>
      </trkpt>
      <trkpt lat="45.25665" lon="5.02843">
        <ele>244.07</ele>
        <time>2017-02-25T15:26:06Z</time>
      </trkpt>
      <trkpt lat="45.25665" lon="5.02843">
        <ele>244.07</ele>
        <time>2017-02-25T15:26:07Z</time>
      </trkpt>
      <trkpt lat="45.25665" lon="5.02843">
        <ele>244.07</ele>
        <time>2017-02-25T15:26:08Z</time>
      </trkpt>
      <trkpt lat="45.25665" lon="5.02843">
        <ele>244.07</ele>
        <time>2017-02-25T15:26:09Z</time>
      </trkpt>
      <trkpt lat="45.25665" lon="5.02843">
        <ele>244.07</ele>
        <time>2017-02-25T15:26:10Z</time>
      </trkpt>
      <trkpt lat="45.25665" lon="5.02843">
        <ele>244.07</ele>
        <time>2017-02-25T15:26:11Z</time>
      </trkpt>
      <trkpt lat="45.25665" lon="5.02843">
        <ele>244.07</ele>
        <time>2017-02-25T15:26:12Z</time>
      </trkpt>
      <trkpt lat="45.25665" lon="5.02843">
        <ele>244.07</ele>
        <time>2017-02-25T15:26:13Z</time>
      </trkpt>
      <trkpt lat="45.25665" lon="5.02843">
        <ele>244.07</ele>
        <time>2017-02-25T15:26:14Z</time>
      </trkpt>
      <trkpt lat="45.25665" lon="5.02843">
        <ele>244.07</ele>
        <time>2017-02-25T15:26:15Z</time>
      </trkpt>
      <trkpt lat="45.25665" lon="5.02843">
        <ele>244.07</ele>
        <time>2017-02-25T15:26:16Z</time>
      </trkpt>
      <trkpt lat="45.25665" lon="5.02843">
        <ele>244.07</ele>
        <time>2017-02-25T15:26:17Z</time>
      </trkpt>
      <trkpt lat="45.25665" lon="5.02843">
        <ele>244.07</ele>
        <time>2017-02-25T15:26:18Z</time>
      </trkpt>
      <trkpt lat="45.25665" lon="5.02843">
        <ele>244.07</ele>
        <time>2017-02-25T15:26:19Z</time>
      </trkpt>
      <trkpt lat="45.25665" lon="5.02843">
        <ele>244.07</ele>
        <time>2017-02-25T15:26:20Z</time>
      </trkpt>
      <trkpt lat="45.25665" lon="5.02843">
        <ele>244.07</ele>
        <time>2017-02-25T15:26:21Z</time>
      </trkpt>
      <trkpt lat="45.25665" lon="5.02843">
        <ele>244.07</ele>
        <time>2017-02-25T15:26:22Z</time>
      </trkpt>
      <trkpt lat="45.25665" lon="5.02843">
        <ele>244.07</ele>
        <time>2017-02-25T15:26:23Z</time>
      </trkpt>
      <trkpt lat="45.25665" lon="5.02843">
        <ele>244.07</ele>
        <time>2017-02-25T15:26:24Z</time>
      </trkpt>
      <trkpt lat="45.25665" lon="5.02843">
        <ele>244.07</ele>
        <time>2017-02-25T15:26:25Z</time>
      </trkpt>
      <trkpt lat="45.25665" lon="5.02843">
        <ele>244.07</ele>
        <time>2017-02-25T15:26:26Z</time>
      </trkpt>
      <trkpt lat="45.25665" lon="5.02843">
        <ele>244.07</ele>
        <time>2017-02-25T15:26:27Z</time>
      </trkpt>
      <trkpt lat="45.25665" lon="5.02843">
        <ele>244.07</ele>
        <time>2017-02-25T15:26:28Z</time>
      </trkpt>
      <trkpt lat="45.25665" lon="5.02843">
        <ele>244.07</ele>
        <time>2017-02-25T15:26:29Z</time>
      </trkpt>
      <trkpt lat="45.25665" lon="5.02843">
        <ele>244.07</ele>
        <time>2017-02-25T15:26:30Z</time>
      </trkpt>
      <trkpt lat="45.25665" lon="5.02843">
        <ele>244.07</ele>
        <time>2017-02-25T15:26:31Z</time>
      </trkpt>
      <trkpt lat="45.25665" lon="5.02843">
        <ele>244.07</ele>
        <time>2017-02-25T15:26:32Z</time>
      </trkpt>
      <trkpt lat="45.25665" lon="5.02843">
        <ele>244.07</ele>
        <time>2017-02-25T15:26:33Z</time>
      </trkpt>
      <trkpt lat="45.25665" lon="5.02843">
        <ele>244.07</ele>
        <time>2017-02-25T15:26:34Z</time>
      </trkpt>
      <trkpt lat="45.25665" lon="5.02843">
        <ele>244.07</ele>
        <time>2017-02-25T15:26:35Z</time>
      </trkpt>
      <trkpt lat="45.25665" lon="5.02843">
        <ele>244.07</ele>
        <time>2017-02-25T15:26:36Z</time>
      </trkpt>
      <trkpt lat="45.25665" lon="5.02843">
        <ele>244.07</ele>
        <time>2017-02-25T15:26:37Z</time>
      </trkpt>
      <trkpt lat="45.25665" lon="5.02843">
        <ele>244.07</ele>
        <time>2017-02-25T15:26:38Z</time>
      </trkpt>
      <trkpt lat="45.25665" lon="5.02843">
        <ele>244.07</ele>
        <time>2017-02-25T15:26:39Z</time>
      </trkpt>
      <trkpt lat="45.25665" lon="5.02843">
        <ele>244.07</ele>
        <time>2017-02-25T15:26:40Z</time>
      </trkpt>
      <trkpt lat="45.25665" lon="5.02843">
        <ele>244.07</ele>
        <time>2017-02-25T15:26:41Z</time>
      </trkpt>
      <trkpt lat="45.25665" lon="5.02843">
        <ele>244.07</ele>
        <time>2017-02-25T15:26:42Z</time>
      </trkpt>
      <trkpt lat="45.25665" lon="5.02843">
        <ele>244.07</ele>
        <time>2017-02-25T15:26:43Z</time>
      </trkpt>
      <trkpt lat="45.25665" lon="5.02843">
        <ele>244.07</ele>
        <time>2017-02-25T15:26:44Z</time>
      </trkpt>
      <trkpt lat="45.25665" lon="5.02843">
        <ele>244.07</ele>
        <time>2017-02-25T15:26:45Z</time>
      </trkpt>
      <trkpt lat="45.25665" lon="5.02843">
        <ele>244.07</ele>
        <time>2017-02-25T15:26:46Z</time>
      </trkpt>
      <trkpt lat="45.25665" lon="5.02843">
        <ele>244.07</ele>
        <time>2017-02-25T15:26:47Z</time>
      </trkpt>
      <trkpt lat="45.25665" lon="5.02843">
        <ele>244.07</ele>
        <time>2017-02-25T15:26:48Z</time>
      </trkpt>
      <trkpt lat="45.25665" lon="5.02843">
        <ele>244.07</ele>
        <time>2017-02-25T15:26:49Z</time>
      </trkpt>
      <trkpt lat="45.25665" lon="5.02843">
        <ele>244.07</ele>
        <time>2017-02-25T15:26:50Z</time>
      </trkpt>
      <trkpt lat="45.25665" lon="5.02843">
        <ele>244.07</ele>
        <time>2017-02-25T15:26:51Z</time>
      </trkpt>
      <trkpt lat="45.25665" lon="5.02843">
        <ele>244.07</ele>
        <time>2017-02-25T15:26:52Z</time>
      </trkpt>
      <trkpt lat="45.25665" lon="5.02843">
        <ele>244.07</ele>
        <time>2017-02-25T15:26:53Z</time>
      </trkpt>
      <trkpt lat="45.25665" lon="5.02843">
        <ele>244.07</ele>
        <time>2017-02-25T15:26:54Z</time>
      </trkpt>
      <trkpt lat="45.25665" lon="5.02843">
        <ele>244.07</ele>
        <time>2017-02-25T15:26:55Z</time>
      </trkpt>
      <trkpt lat="45.25665" lon="5.02843">
        <ele>244.07</ele>
        <time>2017-02-25T15:26:56Z</time>
      </trkpt>
      <trkpt lat="45.25665" lon="5.02843">
        <ele>244.07</ele>
        <time>2017-02-25T15:26:57Z</time>
      </trkpt>
      <trkpt lat="45.25665" lon="5.02843">
        <ele>244.07</ele>
        <time>2017-02-25T15:26:58Z</time>
      </trkpt>
      <trkpt lat="45.25665" lon="5.02843">
        <ele>244.07</ele>
        <time>2017-02-25T15:26:59Z</time>
      </trkpt>
      <trkpt lat="45.25665" lon="5.02843">
        <ele>244.07</ele>
        <time>2017-02-25T15:27:00Z</time>
      </trkpt>
      <trkpt lat="45.25665" lon="5.02843">
        <ele>244.07</ele>
        <time>2017-02-25T15:27:01Z</time>
      </trkpt>
      <trkpt lat="45.25665" lon="5.02843">
        <ele>244.07</ele>
        <time>2017-02-25T15:27:02Z</time>
      </trkpt>
      <trkpt lat="45.25665" lon="5.02843">
        <ele>244.07</ele>
        <time>2017-02-25T15:27:03Z</time>
      </trkpt>
      <trkpt lat="45.25665" lon="5.02843">
        <ele>244.07</ele>
        <time>2017-02-25T15:27:04Z</time>
      </trkpt>
      <trkpt lat="45.25665" lon="5.02843">
        <ele>244.07</ele>
        <time>2017-02-25T15:27:05Z</time>
      </trkpt>
      <trkpt lat="45.25665" lon="5.02843">
        <ele>244.07</ele>
        <time>2017-02-25T15:27:06Z</time>
      </trkpt>
      <trkpt lat="45.25665" lon="5.02843">
        <ele>244.07</ele>
        <time>2017-02-25T15:27:07Z</time>
      </trkpt>
      <trkpt lat="45.25665" lon="5.02843">
        <ele>244.07</ele>
        <time>2017-02-25T15:27:08Z</time>
      </trkpt>
      <trkpt lat="45.25665" lon="5.02843">
        <ele>244.07</ele>
        <time>2017-02-25T15:27:09Z</time>
      </trkpt>
      <trkpt lat="45.25665" lon="5.02843">
        <ele>244.07</ele>
        <time>2017-02-25T15:27:10Z</time>
      </trkpt>
      <trkpt lat="45.25665" lon="5.02843">
        <ele>244.07</ele>
        <time>2017-02-25T15:27:11Z</time>
      </trkpt>
      <trkpt lat="45.25665" lon="5.02843">
        <ele>244.07</ele>
        <time>2017-02-25T15:27:12Z</time>
      </trkpt>
      <trkpt lat="45.25665" lon="5.02843">
        <ele>244.07</ele>
        <time>2017-02-25T15:27:13Z</time>
      </trkpt>
      <trkpt lat="45.25665" lon="5.02843">
        <ele>244.07</ele>
        <time>2017-02-25T15:27:14Z</time>
      </trkpt>
      <trkpt lat="45.25665" lon="5.02843">
        <ele>244.07</ele>
        <time>2017-02-25T15:27:15Z</time>
      </trkpt>
      <trkpt lat="45.25665" lon="5.02843">
        <ele>244.07</ele>
        <time>2017-02-25T15:27:16Z</time>
      </trkpt>
      <trkpt lat="45.25665" lon="5.02843">
        <ele>244.07</ele>
        <time>2017-02-25T15:27:17Z</time>
      </trkpt>
      <trkpt lat="45.25665" lon="5.02843">
        <ele>244.07</ele>
        <time>2017-02-25T15:27:18Z</time>
      </trkpt>
      <trkpt lat="45.25665" lon="5.02843">
        <ele>244.07</ele>
        <time>2017-02-25T15:27:19Z</time>
      </trkpt>
      <trkpt lat="45.25665" lon="5.02843">
        <ele>244.07</ele>
        <time>2017-02-25T15:27:20Z</time>
      </trkpt>
      <trkpt lat="45.25665" lon="5.02843">
        <ele>244.07</ele>
        <time>2017-02-25T15:27:21Z</time>
      </trkpt>
      <trkpt lat="45.25665" lon="5.02843">
        <ele>244.07</ele>
        <time>2017-02-25T15:27:22Z</time>
      </trkpt>
      <trkpt lat="45.25665" lon="5.02843">
        <ele>244.07</ele>
        <time>2017-02-25T15:27:23Z</time>
      </trkpt>
      <trkpt lat="45.25665" lon="5.02843">
        <ele>244.07</ele>
        <time>2017-02-25T15:27:24Z</time>
      </trkpt>
      <trkpt lat="45.25665" lon="5.02843">
        <ele>244.07</ele>
        <time>2017-02-25T15:27:25Z</time>
      </trkpt>
      <trkpt lat="45.25665" lon="5.02843">
        <ele>244.07</ele>
        <time>2017-02-25T15:27:26Z</time>
      </trkpt>
      <trkpt lat="45.25665" lon="5.02843">
        <ele>244.07</ele>
        <time>2017-02-25T15:27:27Z</time>
      </trkpt>
      <trkpt lat="45.25665" lon="5.02843">
        <ele>244.07</ele>
        <time>2017-02-25T15:27:28Z</time>
      </trkpt>
      <trkpt lat="45.25665" lon="5.02843">
        <ele>244.07</ele>
        <time>2017-02-25T15:27:29Z</time>
      </trkpt>
      <trkpt lat="45.25665" lon="5.02843">
        <ele>244.07</ele>
        <time>2017-02-25T15:27:30Z</time>
      </trkpt>
      <trkpt lat="45.25665" lon="5.02843">
        <ele>244.07</ele>
        <time>2017-02-25T15:27:31Z</time>
      </trkpt>
      <trkpt lat="45.25665" lon="5.02843">
        <ele>244.07</ele>
        <time>2017-02-25T15:27:32Z</time>
      </trkpt>
      <trkpt lat="45.25665" lon="5.02843">
        <ele>244.07</ele>
        <time>2017-02-25T15:27:33Z</time>
      </trkpt>
      <trkpt lat="45.25665" lon="5.02843">
        <ele>244.07</ele>
        <time>2017-02-25T15:27:34Z</time>
      </trkpt>
      <trkpt lat="45.25665" lon="5.02843">
        <ele>244.07</ele>
        <time>2017-02-25T15:27:35Z</time>
      </trkpt>
      <trkpt lat="45.25665" lon="5.02843">
        <ele>244.07</ele>
        <time>2017-02-25T15:27:36Z</time>
      </trkpt>
      <trkpt lat="45.25665" lon="5.02843">
        <ele>244.07</ele>
        <time>2017-02-25T15:27:37Z</time>
      </trkpt>
      <trkpt lat="45.25665" lon="5.02843">
        <ele>244.07</ele>
        <time>2017-02-25T15:27:38Z</time>
      </trkpt>
      <trkpt lat="45.25665" lon="5.02843">
        <ele>244.07</ele>
        <time>2017-02-25T15:27:39Z</time>
      </trkpt>
      <trkpt lat="45.25665" lon="5.02843">
        <ele>244.07</ele>
        <time>2017-02-25T15:27:40Z</time>
      </trkpt>
      <trkpt lat="45.25665" lon="5.02843">
        <ele>244.07</ele>
        <time>2017-02-25T15:27:41Z</time>
      </trkpt>
      <trkpt lat="45.25665" lon="5.02843">
        <ele>244.07</ele>
        <time>2017-02-25T15:27:42Z</time>
      </trkpt>
      <trkpt lat="45.25665" lon="5.02843">
        <ele>244.07</ele>
        <time>2017-02-25T15:27:43Z</time>
      </trkpt>
      <trkpt lat="45.25665" lon="5.02843">
        <ele>244.07</ele>
        <time>2017-02-25T15:27:44Z</time>
      </trkpt>
      <trkpt lat="45.25665" lon="5.02843">
        <ele>244.07</ele>
        <time>2017-02-25T15:27:45Z</time>
      </trkpt>
      <trkpt lat="45.25665" lon="5.02843">
        <ele>244.07</ele>
        <time>2017-02-25T15:27:46Z</time>
      </trkpt>
      <trkpt lat="45.25665" lon="5.02843">
        <ele>244.07</ele>
        <time>2017-02-25T15:27:47Z</time>
      </trkpt>
      <trkpt lat="45.25665" lon="5.02843">
        <ele>244.07</ele>
        <time>2017-02-25T15:27:48Z</time>
      </trkpt>
      <trkpt lat="45.25665" lon="5.02843">
        <ele>244.07</ele>
        <time>2017-02-25T15:27:49Z</time>
      </trkpt>
      <trkpt lat="45.25665" lon="5.02843">
        <ele>244.07</ele>
        <time>2017-02-25T15:27:50Z</time>
      </trkpt>
      <trkpt lat="45.25665" lon="5.02843">
        <ele>244.07</ele>
        <time>2017-02-25T15:27:51Z</time>
      </trkpt>
      <trkpt lat="45.25665" lon="5.02843">
        <ele>244.07</ele>
        <time>2017-02-25T15:27:52Z</time>
      </trkpt>
      <trkpt lat="45.25665" lon="5.02843">
        <ele>244.07</ele>
        <time>2017-02-25T15:27:53Z</time>
      </trkpt>
      <trkpt lat="45.25665" lon="5.02843">
        <ele>244.07</ele>
        <time>2017-02-25T15:27:54Z</time>
      </trkpt>
      <trkpt lat="45.25665" lon="5.02843">
        <ele>244.07</ele>
        <time>2017-02-25T15:27:55Z</time>
      </trkpt>
      <trkpt lat="45.25665" lon="5.02843">
        <ele>244.07</ele>
        <time>2017-02-25T15:27:56Z</time>
      </trkpt>
      <trkpt lat="45.25665" lon="5.02843">
        <ele>244.07</ele>
        <time>2017-02-25T15:27:57Z</time>
      </trkpt>
      <trkpt lat="45.25665" lon="5.02843">
        <ele>244.07</ele>
        <time>2017-02-25T15:27:58Z</time>
      </trkpt>
      <trkpt lat="45.25665" lon="5.02843">
        <ele>244.07</ele>
        <time>2017-02-25T15:27:59Z</time>
      </trkpt>
      <trkpt lat="45.25665" lon="5.02843">
        <ele>244.07</ele>
        <time>2017-02-25T15:28:00Z</time>
      </trkpt>
      <trkpt lat="45.25665" lon="5.02843">
        <ele>244.07</ele>
        <time>2017-02-25T15:28:01Z</time>
      </trkpt>
      <trkpt lat="45.25665" lon="5.02843">
        <ele>244.07</ele>
        <time>2017-02-25T15:28:02Z</time>
      </trkpt>
      <trkpt lat="45.25662" lon="5.02854">
        <ele>246.07</ele>
        <time>2017-02-25T15:28:03Z</time>
      </trkpt>
      <trkpt lat="45.25663" lon="5.02857">
        <ele>246.47</ele>
        <time>2017-02-25T15:28:04Z</time>
      </trkpt>
      <trkpt lat="45.25665" lon="5.02861">
        <ele>246.47</ele>
        <time>2017-02-25T15:28:05Z</time>
      </trkpt>
      <trkpt lat="45.25667" lon="5.02867">
        <ele>246.47</ele>
        <time>2017-02-25T15:28:06Z</time>
      </trkpt>
      <trkpt lat="45.25669" lon="5.02873">
        <ele>246.39</ele>
        <time>2017-02-25T15:28:07Z</time>
      </trkpt>
      <trkpt lat="45.25671" lon="5.02878">
        <ele>246.37</ele>
        <time>2017-02-25T15:28:08Z</time>
      </trkpt>
      <trkpt lat="45.25673" lon="5.02884">
        <ele>246.29</ele>
        <time>2017-02-25T15:28:09Z</time>
      </trkpt>
      <trkpt lat="45.25675" lon="5.0289">
        <ele>246.19</ele>
        <time>2017-02-25T15:28:10Z</time>
      </trkpt>
      <trkpt lat="45.25676" lon="5.02895">
        <ele>246.09</ele>
        <time>2017-02-25T15:28:11Z</time>
      </trkpt>
      <trkpt lat="45.25678" lon="5.029">
        <ele>245.99</ele>
        <time>2017-02-25T15:28:12Z</time>
      </trkpt>
      <trkpt lat="45.25679" lon="5.02906">
        <ele>245.89</ele>
        <time>2017-02-25T15:28:13Z</time>
      </trkpt>
      <trkpt lat="45.25681" lon="5.02912">
        <ele>245.71</ele>
        <time>2017-02-25T15:28:14Z</time>
      </trkpt>
      <trkpt lat="45.25683" lon="5.02918">
        <ele>245.6</ele>
        <time>2017-02-25T15:28:15Z</time>
      </trkpt>
      <trkpt lat="45.25685" lon="5.02924">
        <ele>245.49</ele>
        <time>2017-02-25T15:28:16Z</time>
      </trkpt>
      <trkpt lat="45.25687" lon="5.02929">
        <ele>245.63</ele>
        <time>2017-02-25T15:28:17Z</time>
      </trkpt>
      <trkpt lat="45.25688" lon="5.02934">
        <ele>245.5</ele>
        <time>2017-02-25T15:28:18Z</time>
      </trkpt>
      <trkpt lat="45.25689" lon="5.02939">
        <ele>245.63</ele>
        <time>2017-02-25T15:28:19Z</time>
      </trkpt>
      <trkpt lat="45.25689" lon="5.02942">
        <ele>245.74</ele>
        <time>2017-02-25T15:28:20Z</time>
      </trkpt>
      <trkpt lat="45.25688" lon="5.02945">
        <ele>245.84</ele>
        <time>2017-02-25T15:28:21Z</time>
      </trkpt>
      <trkpt lat="45.25685" lon="5.02946">
        <ele>245.94</ele>
        <time>2017-02-25T15:28:22Z</time>
      </trkpt>
      <trkpt lat="45.25681" lon="5.02944">
        <ele>246.12</ele>
        <time>2017-02-25T15:28:23Z</time>
      </trkpt>
      <trkpt lat="45.25676" lon="5.02941">
        <ele>246.16</ele>
        <time>2017-02-25T15:28:24Z</time>
      </trkpt>
      <trkpt lat="45.25671" lon="5.02937">
        <ele>246.57</ele>
        <time>2017-02-25T15:28:25Z</time>
      </trkpt>
      <trkpt lat="45.25666" lon="5.02932">
        <ele>246.81</ele>
        <time>2017-02-25T15:28:26Z</time>
      </trkpt>
      <trkpt lat="45.2566" lon="5.02927">
        <ele>246.93</ele>
        <time>2017-02-25T15:28:27Z</time>
      </trkpt>
      <trkpt lat="45.25654" lon="5.02922">
        <ele>246.96</ele>
        <time>2017-02-25T15:28:28Z</time>
      </trkpt>
      <trkpt lat="45.25648" lon="5.02918">
        <ele>246.73</ele>
        <time>2017-02-25T15:28:29Z</time>
      </trkpt>
      <trkpt lat="45.25641" lon="5.02914">
        <ele>247</ele>
        <time>2017-02-25T15:28:30Z</time>
      </trkpt>
      <trkpt lat="45.25634" lon="5.0291">
        <ele>247.29</ele>
        <time>2017-02-25T15:28:31Z</time>
      </trkpt>
      <trkpt lat="45.25628" lon="5.02906">
        <ele>247.27</ele>
        <time>2017-02-25T15:28:32Z</time>
      </trkpt>
      <trkpt lat="45.25621" lon="5.02901">
        <ele>247.03</ele>
        <time>2017-02-25T15:28:33Z</time>
      </trkpt>
      <trkpt lat="45.25615" lon="5.02897">
        <ele>246.98</ele>
        <time>2017-02-25T15:28:34Z</time>
      </trkpt>
      <trkpt lat="45.25608" lon="5.02892">
        <ele>246.97</ele>
        <time>2017-02-25T15:28:35Z</time>
      </trkpt>
      <trkpt lat="45.25601" lon="5.02886">
        <ele>246.89</ele>
        <time>2017-02-25T15:28:36Z</time>
      </trkpt>
      <trkpt lat="45.25594" lon="5.02882">
        <ele>247.03</ele>
        <time>2017-02-25T15:28:37Z</time>
      </trkpt>
      <trkpt lat="45.25587" lon="5.02877">
        <ele>246.82</ele>
        <time>2017-02-25T15:28:38Z</time>
      </trkpt>
      <trkpt lat="45.25581" lon="5.02872">
        <ele>246.54</ele>
        <time>2017-02-25T15:28:39Z</time>
      </trkpt>
      <trkpt lat="45.25575" lon="5.02868">
        <ele>246.4</ele>
        <time>2017-02-25T15:28:40Z</time>
      </trkpt>
      <trkpt lat="45.25569" lon="5.02864">
        <ele>246.13</ele>
        <time>2017-02-25T15:28:41Z</time>
      </trkpt>
      <trkpt lat="45.25564" lon="5.0286">
        <ele>245.84</ele>
        <time>2017-02-25T15:28:42Z</time>
      </trkpt>
      <trkpt lat="45.25559" lon="5.02857">
        <ele>245.78</ele>
        <time>2017-02-25T15:28:43Z</time>
      </trkpt>
      <trkpt lat="45.25555" lon="5.02855">
        <ele>245.45</ele>
        <time>2017-02-25T15:28:44Z</time>
      </trkpt>
      <trkpt lat="45.25551" lon="5.02852">
        <ele>245.3</ele>
        <time>2017-02-25T15:28:45Z</time>
      </trkpt>
      <trkpt lat="45.25546" lon="5.02849">
        <ele>244.79</ele>
        <time>2017-02-25T15:28:46Z</time>
      </trkpt>
      <trkpt lat="45.25542" lon="5.02844">
        <ele>244.45</ele>
        <time>2017-02-25T15:28:47Z</time>
      </trkpt>
      <trkpt lat="45.25537" lon="5.02839">
        <ele>244.14</ele>
        <time>2017-02-25T15:28:48Z</time>
      </trkpt>
      <trkpt lat="45.25533" lon="5.02833">
        <ele>244</ele>
        <time>2017-02-25T15:28:49Z</time>
      </trkpt>
      <trkpt lat="45.25528" lon="5.02825">
        <ele>243.89</ele>
        <time>2017-02-25T15:28:50Z</time>
      </trkpt>
      <trkpt lat="45.25522" lon="5.02817">
        <ele>244.03</ele>
        <time>2017-02-25T15:28:51Z</time>
      </trkpt>
      <trkpt lat="45.25517" lon="5.02807">
        <ele>244.14</ele>
        <time>2017-02-25T15:28:52Z</time>
      </trkpt>
      <trkpt lat="45.25512" lon="5.02797">
        <ele>244.08</ele>
        <time>2017-02-25T15:28:53Z</time>
      </trkpt>
      <trkpt lat="45.25506" lon="5.02786">
        <ele>243.99</ele>
        <time>2017-02-25T15:28:54Z</time>
      </trkpt>
      <trkpt lat="45.25502" lon="5.02775">
        <ele>243.73</ele>
        <time>2017-02-25T15:28:55Z</time>
      </trkpt>
      <trkpt lat="45.25497" lon="5.02764">
        <ele>243.52</ele>
        <time>2017-02-25T15:28:56Z</time>
      </trkpt>
      <trkpt lat="45.25492" lon="5.02753">
        <ele>243.24</ele>
        <time>2017-02-25T15:28:57Z</time>
      </trkpt>
      <trkpt lat="45.25487" lon="5.02742">
        <ele>243.02</ele>
        <time>2017-02-25T15:28:58Z</time>
      </trkpt>
      <trkpt lat="45.25481" lon="5.02732">
        <ele>242.9</ele>
        <time>2017-02-25T15:28:59Z</time>
      </trkpt>
      <trkpt lat="45.25476" lon="5.02721">
        <ele>242.79</ele>
        <time>2017-02-25T15:29:00Z</time>
      </trkpt>
      <trkpt lat="45.25471" lon="5.02711">
        <ele>242.69</ele>
        <time>2017-02-25T15:29:01Z</time>
      </trkpt>
      <trkpt lat="45.25467" lon="5.02702">
        <ele>242.43</ele>
        <time>2017-02-25T15:29:02Z</time>
      </trkpt>
      <trkpt lat="45.25462" lon="5.02694">
        <ele>242.54</ele>
        <time>2017-02-25T15:29:03Z</time>
      </trkpt>
      <trkpt lat="45.25458" lon="5.02687">
        <ele>242.56</ele>
        <time>2017-02-25T15:29:04Z</time>
      </trkpt>
      <trkpt lat="45.25454" lon="5.0268">
        <ele>242.49</ele>
        <time>2017-02-25T15:29:05Z</time>
      </trkpt>
      <trkpt lat="45.2545" lon="5.02672">
        <ele>242.47</ele>
        <time>2017-02-25T15:29:06Z</time>
      </trkpt>
      <trkpt lat="45.25446" lon="5.02664">
        <ele>242.63</ele>
        <time>2017-02-25T15:29:07Z</time>
      </trkpt>
      <trkpt lat="45.25442" lon="5.02656">
        <ele>242.82</ele>
        <time>2017-02-25T15:29:08Z</time>
      </trkpt>
      <trkpt lat="45.25439" lon="5.02647">
        <ele>242.86</ele>
        <time>2017-02-25T15:29:09Z</time>
      </trkpt>
      <trkpt lat="45.25437" lon="5.02638">
        <ele>242.71</ele>
        <time>2017-02-25T15:29:10Z</time>
      </trkpt>
      <trkpt lat="45.25435" lon="5.02628">
        <ele>242.59</ele>
        <time>2017-02-25T15:29:11Z</time>
      </trkpt>
      <trkpt lat="45.25433" lon="5.02618">
        <ele>242.41</ele>
        <time>2017-02-25T15:29:12Z</time>
      </trkpt>
      <trkpt lat="45.25431" lon="5.02607">
        <ele>242.14</ele>
        <time>2017-02-25T15:29:13Z</time>
      </trkpt>
      <trkpt lat="45.25429" lon="5.02596">
        <ele>242</ele>
        <time>2017-02-25T15:29:14Z</time>
      </trkpt>
      <trkpt lat="45.25427" lon="5.02584">
        <ele>241.97</ele>
        <time>2017-02-25T15:29:15Z</time>
      </trkpt>
      <trkpt lat="45.25426" lon="5.02572">
        <ele>241.97</ele>
        <time>2017-02-25T15:29:16Z</time>
      </trkpt>
      <trkpt lat="45.25425" lon="5.0256">
        <ele>242.05</ele>
        <time>2017-02-25T15:29:17Z</time>
      </trkpt>
      <trkpt lat="45.25425" lon="5.02548">
        <ele>242.14</ele>
        <time>2017-02-25T15:29:18Z</time>
      </trkpt>
      <trkpt lat="45.25425" lon="5.02536">
        <ele>242.16</ele>
        <time>2017-02-25T15:29:19Z</time>
      </trkpt>
      <trkpt lat="45.25426" lon="5.02524">
        <ele>242.01</ele>
        <time>2017-02-25T15:29:20Z</time>
      </trkpt>
      <trkpt lat="45.25428" lon="5.02512">
        <ele>241.73</ele>
        <time>2017-02-25T15:29:21Z</time>
      </trkpt>
      <trkpt lat="45.25431" lon="5.02501">
        <ele>241.36</ele>
        <time>2017-02-25T15:29:22Z</time>
      </trkpt>
      <trkpt lat="45.25433" lon="5.02491">
        <ele>241.21</ele>
        <time>2017-02-25T15:29:23Z</time>
      </trkpt>
      <trkpt lat="45.25436" lon="5.02482">
        <ele>241.01</ele>
        <time>2017-02-25T15:29:24Z</time>
      </trkpt>
      <trkpt lat="45.25438" lon="5.02475">
        <ele>240.82</ele>
        <time>2017-02-25T15:29:25Z</time>
      </trkpt>
      <trkpt lat="45.25439" lon="5.02469">
        <ele>240.86</ele>
        <time>2017-02-25T15:29:26Z</time>
      </trkpt>
      <trkpt lat="45.25439" lon="5.02464">
        <ele>240.94</ele>
        <time>2017-02-25T15:29:27Z</time>
      </trkpt>
      <trkpt lat="45.25438" lon="5.02461">
        <ele>240.88</ele>
        <time>2017-02-25T15:29:28Z</time>
      </trkpt>
      <trkpt lat="45.25436" lon="5.02459">
        <ele>240.71</ele>
        <time>2017-02-25T15:29:29Z</time>
      </trkpt>
      <trkpt lat="45.25434" lon="5.02458">
        <ele>240.76</ele>
        <time>2017-02-25T15:29:30Z</time>
      </trkpt>
      <trkpt lat="45.25431" lon="5.02458">
        <ele>240.76</ele>
        <time>2017-02-25T15:29:31Z</time>
      </trkpt>
      <trkpt lat="45.25424" lon="5.02463">
        <ele>240.37</ele>
        <time>2017-02-25T15:29:32Z</time>
      </trkpt>
      <trkpt lat="45.25416" lon="5.0247">
        <ele>239.81</ele>
        <time>2017-02-25T15:29:33Z</time>
      </trkpt>
      <trkpt lat="45.25409" lon="5.02479">
        <ele>239.45</ele>
        <time>2017-02-25T15:29:34Z</time>
      </trkpt>
      <trkpt lat="45.25402" lon="5.02487">
        <ele>238.9</ele>
        <time>2017-02-25T15:29:35Z</time>
      </trkpt>
      <trkpt lat="45.25394" lon="5.02496">
        <ele>238.55</ele>
        <time>2017-02-25T15:29:36Z</time>
      </trkpt>
      <trkpt lat="45.25386" lon="5.02505">
        <ele>238.16</ele>
        <time>2017-02-25T15:29:37Z</time>
      </trkpt>
      <trkpt lat="45.25377" lon="5.02513">
        <ele>237.93</ele>
        <time>2017-02-25T15:29:38Z</time>
      </trkpt>
      <trkpt lat="45.25369" lon="5.02522">
        <ele>237.64</ele>
        <time>2017-02-25T15:29:39Z</time>
      </trkpt>
      <trkpt lat="45.25361" lon="5.02532">
        <ele>237.42</ele>
        <time>2017-02-25T15:29:40Z</time>
      </trkpt>
      <trkpt lat="45.25353" lon="5.02541">
        <ele>237.3</ele>
        <time>2017-02-25T15:29:41Z</time>
      </trkpt>
      <trkpt lat="45.25345" lon="5.0255">
        <ele>237.27</ele>
        <time>2017-02-25T15:29:42Z</time>
      </trkpt>
      <trkpt lat="45.25336" lon="5.0256">
        <ele>237.19</ele>
        <time>2017-02-25T15:29:43Z</time>
      </trkpt>
      <trkpt lat="45.25328" lon="5.02569">
        <ele>236.69</ele>
        <time>2017-02-25T15:29:44Z</time>
      </trkpt>
      <trkpt lat="45.2532" lon="5.02579">
        <ele>236.03</ele>
        <time>2017-02-25T15:29:45Z</time>
      </trkpt>
      <trkpt lat="45.25311" lon="5.02589">
        <ele>235.82</ele>
        <time>2017-02-25T15:29:46Z</time>
      </trkpt>
      <trkpt lat="45.25302" lon="5.02599">
        <ele>236.1</ele>
        <time>2017-02-25T15:29:47Z</time>
      </trkpt>
      <trkpt lat="45.25293" lon="5.02609">
        <ele>236.47</ele>
        <time>2017-02-25T15:29:48Z</time>
      </trkpt>
      <trkpt lat="45.25285" lon="5.02619">
        <ele>237.03</ele>
        <time>2017-02-25T15:29:49Z</time>
      </trkpt>
      <trkpt lat="45.25276" lon="5.02629">
        <ele>237.38</ele>
        <time>2017-02-25T15:29:50Z</time>
      </trkpt>
      <trkpt lat="45.25267" lon="5.02639">
        <ele>237.29</ele>
        <time>2017-02-25T15:29:51Z</time>
      </trkpt>
      <trkpt lat="45.25258" lon="5.02649">
        <ele>237.11</ele>
        <time>2017-02-25T15:29:52Z</time>
      </trkpt>
      <trkpt lat="45.25249" lon="5.02659">
        <ele>236.84</ele>
        <time>2017-02-25T15:29:53Z</time>
      </trkpt>
      <trkpt lat="45.25241" lon="5.02669">
        <ele>236.62</ele>
        <time>2017-02-25T15:29:54Z</time>
      </trkpt>
      <trkpt lat="45.25232" lon="5.0268">
        <ele>236.58</ele>
        <time>2017-02-25T15:29:55Z</time>
      </trkpt>
      <trkpt lat="45.25223" lon="5.0269">
        <ele>236.89</ele>
        <time>2017-02-25T15:29:56Z</time>
      </trkpt>
      <trkpt lat="45.25214" lon="5.027">
        <ele>237.27</ele>
        <time>2017-02-25T15:29:57Z</time>
      </trkpt>
      <trkpt lat="45.25204" lon="5.02711">
        <ele>237.91</ele>
        <time>2017-02-25T15:29:58Z</time>
      </trkpt>
      <trkpt lat="45.25195" lon="5.02721">
        <ele>238.36</ele>
        <time>2017-02-25T15:29:59Z</time>
      </trkpt>
      <trkpt lat="45.25185" lon="5.02732">
        <ele>238.36</ele>
        <time>2017-02-25T15:30:00Z</time>
      </trkpt>
      <trkpt lat="45.25176" lon="5.02743">
        <ele>238.45</ele>
        <time>2017-02-25T15:30:01Z</time>
      </trkpt>
      <trkpt lat="45.25167" lon="5.02753">
        <ele>238.54</ele>
        <time>2017-02-25T15:30:02Z</time>
      </trkpt>
      <trkpt lat="45.25157" lon="5.02763">
        <ele>238.72</ele>
        <time>2017-02-25T15:30:03Z</time>
      </trkpt>
      <trkpt lat="45.25147" lon="5.02774">
        <ele>239</ele>
        <time>2017-02-25T15:30:04Z</time>
      </trkpt>
      <trkpt lat="45.25137" lon="5.02784">
        <ele>238.97</ele>
        <time>2017-02-25T15:30:05Z</time>
      </trkpt>
      <trkpt lat="45.25127" lon="5.02793">
        <ele>238.89</ele>
        <time>2017-02-25T15:30:06Z</time>
      </trkpt>
      <trkpt lat="45.25116" lon="5.02802">
        <ele>239.03</ele>
        <time>2017-02-25T15:30:07Z</time>
      </trkpt>
      <trkpt lat="45.25104" lon="5.02809">
        <ele>239.46</ele>
        <time>2017-02-25T15:30:08Z</time>
      </trkpt>
      <trkpt lat="45.25091" lon="5.02812">
        <ele>240.51</ele>
        <time>2017-02-25T15:30:09Z</time>
      </trkpt>
      <trkpt lat="45.25078" lon="5.02811">
        <ele>241.51</ele>
        <time>2017-02-25T15:30:10Z</time>
      </trkpt>
      <trkpt lat="45.25066" lon="5.02806">
        <ele>242.6</ele>
        <time>2017-02-25T15:30:11Z</time>
      </trkpt>
      <trkpt lat="45.25053" lon="5.02797">
        <ele>243.37</ele>
        <time>2017-02-25T15:30:12Z</time>
      </trkpt>
      <trkpt lat="45.25041" lon="5.02786">
        <ele>244.01</ele>
        <time>2017-02-25T15:30:13Z</time>
      </trkpt>
      <trkpt lat="45.2503" lon="5.02774">
        <ele>244.38</ele>
        <time>2017-02-25T15:30:14Z</time>
      </trkpt>
      <trkpt lat="45.25018" lon="5.02761">
        <ele>244.69</ele>
        <time>2017-02-25T15:30:15Z</time>
      </trkpt>
      <trkpt lat="45.25006" lon="5.02748">
        <ele>245.15</ele>
        <time>2017-02-25T15:30:16Z</time>
      </trkpt>
      <trkpt lat="45.24994" lon="5.02735">
        <ele>245.8</ele>
        <time>2017-02-25T15:30:17Z</time>
      </trkpt>
      <trkpt lat="45.24982" lon="5.02721">
        <ele>246.49</ele>
        <time>2017-02-25T15:30:18Z</time>
      </trkpt>
      <trkpt lat="45.2497" lon="5.02706">
        <ele>247.43</ele>
        <time>2017-02-25T15:30:19Z</time>
      </trkpt>
      <trkpt lat="45.2496" lon="5.0269">
        <ele>248.42</ele>
        <time>2017-02-25T15:30:20Z</time>
      </trkpt>
      <trkpt lat="45.2495" lon="5.02672">
        <ele>249.34</ele>
        <time>2017-02-25T15:30:21Z</time>
      </trkpt>
      <trkpt lat="45.24942" lon="5.02652">
        <ele>250.24</ele>
        <time>2017-02-25T15:30:22Z</time>
      </trkpt>
      <trkpt lat="45.24936" lon="5.02631">
        <ele>251.22</ele>
        <time>2017-02-25T15:30:23Z</time>
      </trkpt>
      <trkpt lat="45.2493" lon="5.02609">
        <ele>252.06</ele>
        <time>2017-02-25T15:30:24Z</time>
      </trkpt>
      <trkpt lat="45.24926" lon="5.02587">
        <ele>252.63</ele>
        <time>2017-02-25T15:30:25Z</time>
      </trkpt>
      <trkpt lat="45.24921" lon="5.02567">
        <ele>252.98</ele>
        <time>2017-02-25T15:30:26Z</time>
      </trkpt>
      <trkpt lat="45.24915" lon="5.02551">
        <ele>253.21</ele>
        <time>2017-02-25T15:30:27Z</time>
      </trkpt>
      <trkpt lat="45.24907" lon="5.02539">
        <ele>253.26</ele>
        <time>2017-02-25T15:30:28Z</time>
      </trkpt>
      <trkpt lat="45.24897" lon="5.02531">
        <ele>252.7</ele>
        <time>2017-02-25T15:30:29Z</time>
      </trkpt>
      <trkpt lat="45.24887" lon="5.02528">
        <ele>252.19</ele>
        <time>2017-02-25T15:30:30Z</time>
      </trkpt>
      <trkpt lat="45.24877" lon="5.02529">
        <ele>251.61</ele>
        <time>2017-02-25T15:30:31Z</time>
      </trkpt>
      <trkpt lat="45.24868" lon="5.02534">
        <ele>250.86</ele>
        <time>2017-02-25T15:30:32Z</time>
      </trkpt>
      <trkpt lat="45.2486" lon="5.02543">
        <ele>250.06</ele>
        <time>2017-02-25T15:30:33Z</time>
      </trkpt>
      <trkpt lat="45.24853" lon="5.02556">
        <ele>250.07</ele>
        <time>2017-02-25T15:30:34Z</time>
      </trkpt>
      <trkpt lat="45.24848" lon="5.0257">
        <ele>250.39</ele>
        <time>2017-02-25T15:30:35Z</time>
      </trkpt>
      <trkpt lat="45.24846" lon="5.02587">
        <ele>250.37</ele>
        <time>2017-02-25T15:30:36Z</time>
      </trkpt>
      <trkpt lat="45.24846" lon="5.02606">
        <ele>250.37</ele>
        <time>2017-02-25T15:30:37Z</time>
      </trkpt>
      <trkpt lat="45.24848" lon="5.02627">
        <ele>250.53</ele>
        <time>2017-02-25T15:30:38Z</time>
      </trkpt>
      <trkpt lat="45.2485" lon="5.02649">
        <ele>250.56</ele>
        <time>2017-02-25T15:30:39Z</time>
      </trkpt>
      <trkpt lat="45.24852" lon="5.02671">
        <ele>250.81</ele>
        <time>2017-02-25T15:30:40Z</time>
      </trkpt>
      <trkpt lat="45.24854" lon="5.02693">
        <ele>251.17</ele>
        <time>2017-02-25T15:30:41Z</time>
      </trkpt>
      <trkpt lat="45.24855" lon="5.02715">
        <ele>251.97</ele>
        <time>2017-02-25T15:30:42Z</time>
      </trkpt>
      <trkpt lat="45.24856" lon="5.02737">
        <ele>252.77</ele>
        <time>2017-02-25T15:30:43Z</time>
      </trkpt>
      <trkpt lat="45.24856" lon="5.02759">
        <ele>253.41</ele>
        <time>2017-02-25T15:30:44Z</time>
      </trkpt>
      <trkpt lat="45.24854" lon="5.0278">
        <ele>254.26</ele>
        <time>2017-02-25T15:30:45Z</time>
      </trkpt>
      <trkpt lat="45.2485" lon="5.028">
        <ele>255.46</ele>
        <time>2017-02-25T15:30:46Z</time>
      </trkpt>
      <trkpt lat="45.24845" lon="5.02818">
        <ele>256.99</ele>
        <time>2017-02-25T15:30:47Z</time>
      </trkpt>
      <trkpt lat="45.24839" lon="5.02835">
        <ele>258.81</ele>
        <time>2017-02-25T15:30:48Z</time>
      </trkpt>
      <trkpt lat="45.24832" lon="5.02853">
        <ele>260.86</ele>
        <time>2017-02-25T15:30:49Z</time>
      </trkpt>
      <trkpt lat="45.24824" lon="5.02869">
        <ele>262.46</ele>
        <time>2017-02-25T15:30:50Z</time>
      </trkpt>
      <trkpt lat="45.24817" lon="5.02885">
        <ele>264.31</ele>
        <time>2017-02-25T15:30:51Z</time>
      </trkpt>
      <trkpt lat="45.24808" lon="5.02901">
        <ele>266.03</ele>
        <time>2017-02-25T15:30:52Z</time>
      </trkpt>
      <trkpt lat="45.24798" lon="5.02914">
        <ele>268.06</ele>
        <time>2017-02-25T15:30:53Z</time>
      </trkpt>
      <trkpt lat="45.24787" lon="5.02926">
        <ele>270.07</ele>
        <time>2017-02-25T15:30:54Z</time>
      </trkpt>
      <trkpt lat="45.24775" lon="5.02935">
        <ele>271.99</ele>
        <time>2017-02-25T15:30:55Z</time>
      </trkpt>
      <trkpt lat="45.24762" lon="5.02942">
        <ele>273.73</ele>
        <time>2017-02-25T15:30:56Z</time>
      </trkpt>
      <trkpt lat="45.24748" lon="5.02948">
        <ele>275.44</ele>
        <time>2017-02-25T15:30:57Z</time>
      </trkpt>
      <trkpt lat="45.24735" lon="5.02955">
        <ele>276.98</ele>
        <time>2017-02-25T15:30:58Z</time>
      </trkpt>
      <trkpt lat="45.24721" lon="5.02961">
        <ele>278.49</ele>
        <time>2017-02-25T15:30:59Z</time>
      </trkpt>
      <trkpt lat="45.24708" lon="5.02968">
        <ele>279.91</ele>
        <time>2017-02-25T15:31:00Z</time>
      </trkpt>
      <trkpt lat="45.24695" lon="5.02975">
        <ele>281.16</ele>
        <time>2017-02-25T15:31:01Z</time>
      </trkpt>
      <trkpt lat="45.24683" lon="5.02983">
        <ele>282.52</ele>
        <time>2017-02-25T15:31:02Z</time>
      </trkpt>
      <trkpt lat="45.24671" lon="5.02993">
        <ele>284.16</ele>
        <time>2017-02-25T15:31:03Z</time>
      </trkpt>
      <trkpt lat="45.2466" lon="5.03004">
        <ele>285.21</ele>
        <time>2017-02-25T15:31:04Z</time>
      </trkpt>
      <trkpt lat="45.2465" lon="5.03017">
        <ele>286.21</ele>
        <time>2017-02-25T15:31:05Z</time>
      </trkpt>
      <trkpt lat="45.24641" lon="5.0303">
        <ele>287.3</ele>
        <time>2017-02-25T15:31:06Z</time>
      </trkpt>
      <trkpt lat="45.24632" lon="5.03044">
        <ele>288.31</ele>
        <time>2017-02-25T15:31:07Z</time>
      </trkpt>
      <trkpt lat="45.24623" lon="5.03058">
        <ele>289.24</ele>
        <time>2017-02-25T15:31:08Z</time>
      </trkpt>
      <trkpt lat="45.24614" lon="5.03072">
        <ele>290.22</ele>
        <time>2017-02-25T15:31:09Z</time>
      </trkpt>
      <trkpt lat="45.24605" lon="5.03086">
        <ele>291.06</ele>
        <time>2017-02-25T15:31:10Z</time>
      </trkpt>
      <trkpt lat="45.24595" lon="5.031">
        <ele>291.87</ele>
        <time>2017-02-25T15:31:11Z</time>
      </trkpt>
      <trkpt lat="45.24585" lon="5.03114">
        <ele>292.67</ele>
        <time>2017-02-25T15:31:12Z</time>
      </trkpt>
      <trkpt lat="45.24574" lon="5.03127">
        <ele>293.79</ele>
        <time>2017-02-25T15:31:13Z</time>
      </trkpt>
      <trkpt lat="45.24562" lon="5.03138">
        <ele>294.97</ele>
        <time>2017-02-25T15:31:14Z</time>
      </trkpt>
      <trkpt lat="45.24549" lon="5.03148">
        <ele>295.93</ele>
        <time>2017-02-25T15:31:15Z</time>
      </trkpt>
      <trkpt lat="45.24536" lon="5.03156">
        <ele>296.76</ele>
        <time>2017-02-25T15:31:16Z</time>
      </trkpt>
      <trkpt lat="45.24522" lon="5.03162">
        <ele>297.41</ele>
        <time>2017-02-25T15:31:17Z</time>
      </trkpt>
      <trkpt lat="45.24507" lon="5.03168">
        <ele>298.17</ele>
        <time>2017-02-25T15:31:18Z</time>
      </trkpt>
      <trkpt lat="45.24492" lon="5.03173">
        <ele>298.73</ele>
        <time>2017-02-25T15:31:19Z</time>
      </trkpt>
      <trkpt lat="45.24477" lon="5.03177">
        <ele>299.48</ele>
        <time>2017-02-25T15:31:20Z</time>
      </trkpt>
      <trkpt lat="45.24462" lon="5.03181">
        <ele>300.11</ele>
        <time>2017-02-25T15:31:21Z</time>
      </trkpt>
      <trkpt lat="45.24447" lon="5.03186">
        <ele>300.96</ele>
        <time>2017-02-25T15:31:22Z</time>
      </trkpt>
      <trkpt lat="45.24432" lon="5.03191">
        <ele>301.76</ele>
        <time>2017-02-25T15:31:23Z</time>
      </trkpt>
      <trkpt lat="45.24417" lon="5.03195">
        <ele>302.57</ele>
        <time>2017-02-25T15:31:24Z</time>
      </trkpt>
      <trkpt lat="45.24401" lon="5.032">
        <ele>303.53</ele>
        <time>2017-02-25T15:31:25Z</time>
      </trkpt>
      <trkpt lat="45.24386" lon="5.03206">
        <ele>304.44</ele>
        <time>2017-02-25T15:31:26Z</time>
      </trkpt>
      <trkpt lat="45.24371" lon="5.03214">
        <ele>305.5</ele>
        <time>2017-02-25T15:31:27Z</time>
      </trkpt>
      <trkpt lat="45.24357" lon="5.03225">
        <ele>306.27</ele>
        <time>2017-02-25T15:31:28Z</time>
      </trkpt>
      <trkpt lat="45.24345" lon="5.03239">
        <ele>306.43</ele>
        <time>2017-02-25T15:31:29Z</time>
      </trkpt>
      <trkpt lat="45.24334" lon="5.03253">
        <ele>306.7</ele>
        <time>2017-02-25T15:31:30Z</time>
      </trkpt>
      <trkpt lat="45.24322" lon="5.03267">
        <ele>306.99</ele>
        <time>2017-02-25T15:31:31Z</time>
      </trkpt>
      <trkpt lat="45.24308" lon="5.0328">
        <ele>307.61</ele>
        <time>2017-02-25T15:31:32Z</time>
      </trkpt>
      <trkpt lat="45.24293" lon="5.03291">
        <ele>308.7</ele>
        <time>2017-02-25T15:31:33Z</time>
      </trkpt>
      <trkpt lat="45.24276" lon="5.03298">
        <ele>310.11</ele>
        <time>2017-02-25T15:31:34Z</time>
      </trkpt>
      <trkpt lat="45.24258" lon="5.03302">
        <ele>311.44</ele>
        <time>2017-02-25T15:31:35Z</time>
      </trkpt>
      <trkpt lat="45.2424" lon="5.03305">
        <ele>312.74</ele>
        <time>2017-02-25T15:31:36Z</time>
      </trkpt>
      <trkpt lat="45.24221" lon="5.03306">
        <ele>314.12</ele>
        <time>2017-02-25T15:31:37Z</time>
      </trkpt>
      <trkpt lat="45.24201" lon="5.03307">
        <ele>315.52</ele>
        <time>2017-02-25T15:31:38Z</time>
      </trkpt>
      <trkpt lat="45.24182" lon="5.03308">
        <ele>316.84</ele>
        <time>2017-02-25T15:31:39Z</time>
      </trkpt>
      <trkpt lat="45.24163" lon="5.0331">
        <ele>317.9</ele>
        <time>2017-02-25T15:31:40Z</time>
      </trkpt>
      <trkpt lat="45.24145" lon="5.03311">
        <ele>318.91</ele>
        <time>2017-02-25T15:31:41Z</time>
      </trkpt>
      <trkpt lat="45.24126" lon="5.03312">
        <ele>319.68</ele>
        <time>2017-02-25T15:31:42Z</time>
      </trkpt>
      <trkpt lat="45.24107" lon="5.03314">
        <ele>320.15</ele>
        <time>2017-02-25T15:31:43Z</time>
      </trkpt>
      <trkpt lat="45.24088" lon="5.03315">
        <ele>320.72</ele>
        <time>2017-02-25T15:31:44Z</time>
      </trkpt>
      <trkpt lat="45.24069" lon="5.03317">
        <ele>321.4</ele>
        <time>2017-02-25T15:31:45Z</time>
      </trkpt>
      <trkpt lat="45.24049" lon="5.03317">
        <ele>322.01</ele>
        <time>2017-02-25T15:31:46Z</time>
      </trkpt>
      <trkpt lat="45.24029" lon="5.03319">
        <ele>322.54</ele>
        <time>2017-02-25T15:31:47Z</time>
      </trkpt>
      <trkpt lat="45.24009" lon="5.03319">
        <ele>322.96</ele>
        <time>2017-02-25T15:31:48Z</time>
      </trkpt>
      <trkpt lat="45.2399" lon="5.03316">
        <ele>323.61</ele>
        <time>2017-02-25T15:31:49Z</time>
      </trkpt>
      <trkpt lat="45.2397" lon="5.03308">
        <ele>324.13</ele>
        <time>2017-02-25T15:31:50Z</time>
      </trkpt>
      <trkpt lat="45.23952" lon="5.03297">
        <ele>324.8</ele>
        <time>2017-02-25T15:31:51Z</time>
      </trkpt>
      <trkpt lat="45.23933" lon="5.03287">
        <ele>325.65</ele>
        <time>2017-02-25T15:31:52Z</time>
      </trkpt>
      <trkpt lat="45.23914" lon="5.03279">
        <ele>326.06</ele>
        <time>2017-02-25T15:31:53Z</time>
      </trkpt>
      <trkpt lat="45.23894" lon="5.03277">
        <ele>326.23</ele>
        <time>2017-02-25T15:31:54Z</time>
      </trkpt>
      <trkpt lat="45.23873" lon="5.03278">
        <ele>326.42</ele>
        <time>2017-02-25T15:31:55Z</time>
      </trkpt>
      <trkpt lat="45.23852" lon="5.0328">
        <ele>326.38</ele>
        <time>2017-02-25T15:31:56Z</time>
      </trkpt>
      <trkpt lat="45.23831" lon="5.03278">
        <ele>326.53</ele>
        <time>2017-02-25T15:31:57Z</time>
      </trkpt>
      <trkpt lat="45.2381" lon="5.03271">
        <ele>326.64</ele>
        <time>2017-02-25T15:31:58Z</time>
      </trkpt>
      <trkpt lat="45.2379" lon="5.03259">
        <ele>326.82</ele>
        <time>2017-02-25T15:31:59Z</time>
      </trkpt>
      <trkpt lat="45.23772" lon="5.03242">
        <ele>327.18</ele>
        <time>2017-02-25T15:32:00Z</time>
      </trkpt>
      <trkpt lat="45.23754" lon="5.03223">
        <ele>327.65</ele>
        <time>2017-02-25T15:32:01Z</time>
      </trkpt>
      <trkpt lat="45.2374" lon="5.03202">
        <ele>328.86</ele>
        <time>2017-02-25T15:32:02Z</time>
      </trkpt>
      <trkpt lat="45.23728" lon="5.03179">
        <ele>329.83</ele>
        <time>2017-02-25T15:32:03Z</time>
      </trkpt>
      <trkpt lat="45.23715" lon="5.03156">
        <ele>330.58</ele>
        <time>2017-02-25T15:32:04Z</time>
      </trkpt>
      <trkpt lat="45.237" lon="5.03135">
        <ele>331.53</ele>
        <time>2017-02-25T15:32:05Z</time>
      </trkpt>
      <trkpt lat="45.23684" lon="5.03116">
        <ele>332.44</ele>
        <time>2017-02-25T15:32:06Z</time>
      </trkpt>
      <trkpt lat="45.23665" lon="5.03099">
        <ele>333.18</ele>
        <time>2017-02-25T15:32:07Z</time>
      </trkpt>
      <trkpt lat="45.23645" lon="5.03084">
        <ele>333.89</ele>
        <time>2017-02-25T15:32:08Z</time>
      </trkpt>
      <trkpt lat="45.23626" lon="5.03068">
        <ele>334.75</ele>
        <time>2017-02-25T15:32:09Z</time>
      </trkpt>
      <trkpt lat="45.23607" lon="5.03052">
        <ele>335.4</ele>
        <time>2017-02-25T15:32:10Z</time>
      </trkpt>
      <trkpt lat="45.23588" lon="5.03035">
        <ele>336.17</ele>
        <time>2017-02-25T15:32:11Z</time>
      </trkpt>
      <trkpt lat="45.2357" lon="5.03017">
        <ele>337.05</ele>
        <time>2017-02-25T15:32:12Z</time>
      </trkpt>
      <trkpt lat="45.23554" lon="5.02997">
        <ele>337.7</ele>
        <time>2017-02-25T15:32:13Z</time>
      </trkpt>
      <trkpt lat="45.23538" lon="5.02976">
        <ele>338.15</ele>
        <time>2017-02-25T15:32:14Z</time>
      </trkpt>
      <trkpt lat="45.23523" lon="5.02954">
        <ele>338.24</ele>
        <time>2017-02-25T15:32:15Z</time>
      </trkpt>
      <trkpt lat="45.23508" lon="5.02932">
        <ele>338.58</ele>
        <time>2017-02-25T15:32:16Z</time>
      </trkpt>
      <trkpt lat="45.23491" lon="5.02912">
        <ele>339.13</ele>
        <time>2017-02-25T15:32:17Z</time>
      </trkpt>
      <trkpt lat="45.23473" lon="5.02895">
        <ele>339.64</ele>
        <time>2017-02-25T15:32:18Z</time>
      </trkpt>
      <trkpt lat="45.23454" lon="5.02879">
        <ele>340.14</ele>
        <time>2017-02-25T15:32:19Z</time>
      </trkpt>
      <trkpt lat="45.23433" lon="5.02865">
        <ele>340.64</ele>
        <time>2017-02-25T15:32:20Z</time>
      </trkpt>
      <trkpt lat="45.23411" lon="5.02855">
        <ele>341.14</ele>
        <time>2017-02-25T15:32:21Z</time>
      </trkpt>
      <trkpt lat="45.23387" lon="5.02847">
        <ele>341.56</ele>
        <time>2017-02-25T15:32:22Z</time>
      </trkpt>
      <trkpt lat="45.23363" lon="5.0284">
        <ele>341.97</ele>
        <time>2017-02-25T15:32:23Z</time>
      </trkpt>
      <trkpt lat="45.23339" lon="5.02833">
        <ele>342.77</ele>
        <time>2017-02-25T15:32:24Z</time>
      </trkpt>
      <trkpt lat="45.23315" lon="5.02826">
        <ele>343.65</ele>
        <time>2017-02-25T15:32:25Z</time>
      </trkpt>
      <trkpt lat="45.2329" lon="5.0282">
        <ele>345.1</ele>
        <time>2017-02-25T15:32:26Z</time>
      </trkpt>
      <trkpt lat="45.23266" lon="5.02812">
        <ele>346.67</ele>
        <time>2017-02-25T15:32:27Z</time>
      </trkpt>
      <trkpt lat="45.23243" lon="5.02804">
        <ele>348.67</ele>
        <time>2017-02-25T15:32:28Z</time>
      </trkpt>
      <trkpt lat="45.23219" lon="5.02796">
        <ele>351.31</ele>
        <time>2017-02-25T15:32:29Z</time>
      </trkpt>
      <trkpt lat="45.23196" lon="5.02787">
        <ele>352.88</ele>
        <time>2017-02-25T15:32:30Z</time>
      </trkpt>
      <trkpt lat="45.23175" lon="5.02777">
        <ele>354.55</ele>
        <time>2017-02-25T15:32:31Z</time>
      </trkpt>
      <trkpt lat="45.23156" lon="5.02765">
        <ele>356.4</ele>
        <time>2017-02-25T15:32:32Z</time>
      </trkpt>
      <trkpt lat="45.23139" lon="5.0275">
        <ele>358.61</ele>
        <time>2017-02-25T15:32:33Z</time>
      </trkpt>
      <trkpt lat="45.23122" lon="5.0273">
        <ele>360.98</ele>
        <time>2017-02-25T15:32:34Z</time>
      </trkpt>
      <trkpt lat="45.23108" lon="5.02707">
        <ele>363.21</ele>
        <time>2017-02-25T15:32:35Z</time>
      </trkpt>
      <trkpt lat="45.23094" lon="5.02682">
        <ele>365.02</ele>
        <time>2017-02-25T15:32:36Z</time>
      </trkpt>
      <trkpt lat="45.23079" lon="5.02659">
        <ele>366.98</ele>
        <time>2017-02-25T15:32:37Z</time>
      </trkpt>
      <trkpt lat="45.23063" lon="5.02638">
        <ele>368.73</ele>
        <time>2017-02-25T15:32:38Z</time>
      </trkpt>
      <trkpt lat="45.23046" lon="5.0262">
        <ele>369.88</ele>
        <time>2017-02-25T15:32:39Z</time>
      </trkpt>
      <trkpt lat="45.23027" lon="5.02603">
        <ele>370.83</ele>
        <time>2017-02-25T15:32:40Z</time>
      </trkpt>
      <trkpt lat="45.23008" lon="5.02587">
        <ele>371.98</ele>
        <time>2017-02-25T15:32:41Z</time>
      </trkpt>
      <trkpt lat="45.22989" lon="5.02572">
        <ele>373.01</ele>
        <time>2017-02-25T15:32:42Z</time>
      </trkpt>
      <trkpt lat="45.22971" lon="5.02558">
        <ele>373.78</ele>
        <time>2017-02-25T15:32:43Z</time>
      </trkpt>
      <trkpt lat="45.22953" lon="5.02546">
        <ele>374.57</ele>
        <time>2017-02-25T15:32:44Z</time>
      </trkpt>
      <trkpt lat="45.22934" lon="5.02535">
        <ele>375.45</ele>
        <time>2017-02-25T15:32:45Z</time>
      </trkpt>
      <trkpt lat="45.22914" lon="5.02528">
        <ele>376.42</ele>
        <time>2017-02-25T15:32:46Z</time>
      </trkpt>
      <trkpt lat="45.22893" lon="5.02525">
        <ele>377.26</ele>
        <time>2017-02-25T15:32:47Z</time>
      </trkpt>
      <trkpt lat="45.22872" lon="5.02526">
        <ele>377.83</ele>
        <time>2017-02-25T15:32:48Z</time>
      </trkpt>
      <trkpt lat="45.22851" lon="5.0253">
        <ele>378.5</ele>
        <time>2017-02-25T15:32:49Z</time>
      </trkpt>
      <trkpt lat="45.2283" lon="5.02536">
        <ele>379.03</ele>
        <time>2017-02-25T15:32:50Z</time>
      </trkpt>
      <trkpt lat="45.22808" lon="5.02541">
        <ele>379.54</ele>
        <time>2017-02-25T15:32:51Z</time>
      </trkpt>
      <trkpt lat="45.22786" lon="5.02547">
        <ele>380.2</ele>
        <time>2017-02-25T15:32:52Z</time>
      </trkpt>
      <trkpt lat="45.22763" lon="5.02553">
        <ele>380.97</ele>
        <time>2017-02-25T15:32:53Z</time>
      </trkpt>
      <trkpt lat="45.22741" lon="5.02558">
        <ele>381.77</ele>
        <time>2017-02-25T15:32:54Z</time>
      </trkpt>
      <trkpt lat="45.22719" lon="5.02563">
        <ele>382.81</ele>
        <time>2017-02-25T15:32:55Z</time>
      </trkpt>
      <trkpt lat="45.22698" lon="5.02567">
        <ele>383.74</ele>
        <time>2017-02-25T15:32:56Z</time>
      </trkpt>
      <trkpt lat="45.22677" lon="5.0257">
        <ele>385.2</ele>
        <time>2017-02-25T15:32:57Z</time>
      </trkpt>
      <trkpt lat="45.22656" lon="5.02573">
        <ele>386.45</ele>
        <time>2017-02-25T15:32:58Z</time>
      </trkpt>
      <trkpt lat="45.22635" lon="5.02576">
        <ele>387.5</ele>
        <time>2017-02-25T15:32:59Z</time>
      </trkpt>
      <trkpt lat="45.22614" lon="5.02583">
        <ele>388.91</ele>
        <time>2017-02-25T15:33:00Z</time>
      </trkpt>
      <trkpt lat="45.22595" lon="5.02592">
        <ele>389.76</ele>
        <time>2017-02-25T15:33:01Z</time>
      </trkpt>
      <trkpt lat="45.22578" lon="5.02607">
        <ele>390.88</ele>
        <time>2017-02-25T15:33:02Z</time>
      </trkpt>
      <trkpt lat="45.22564" lon="5.02627">
        <ele>391.91</ele>
        <time>2017-02-25T15:33:03Z</time>
      </trkpt>
      <trkpt lat="45.22551" lon="5.02651">
        <ele>393.08</ele>
        <time>2017-02-25T15:33:04Z</time>
      </trkpt>
      <trkpt lat="45.22539" lon="5.02675">
        <ele>394.19</ele>
        <time>2017-02-25T15:33:05Z</time>
      </trkpt>
      <trkpt lat="45.22527" lon="5.02699">
        <ele>395.45</ele>
        <time>2017-02-25T15:33:06Z</time>
      </trkpt>
      <trkpt lat="45.22515" lon="5.02723">
        <ele>396.74</ele>
        <time>2017-02-25T15:33:07Z</time>
      </trkpt>
      <trkpt lat="45.22503" lon="5.02744">
        <ele>397.88</ele>
        <time>2017-02-25T15:33:08Z</time>
      </trkpt>
      <trkpt lat="45.22491" lon="5.02764">
        <ele>399.15</ele>
        <time>2017-02-25T15:33:09Z</time>
      </trkpt>
      <trkpt lat="45.22478" lon="5.02783">
        <ele>400.28</ele>
        <time>2017-02-25T15:33:10Z</time>
      </trkpt>
      <trkpt lat="45.22463" lon="5.028">
        <ele>401.95</ele>
        <time>2017-02-25T15:33:11Z</time>
      </trkpt>
      <trkpt lat="45.22447" lon="5.02812">
        <ele>403.64</ele>
        <time>2017-02-25T15:33:12Z</time>
      </trkpt>
      <trkpt lat="45.22429" lon="5.02821">
        <ele>405.26</ele>
        <time>2017-02-25T15:33:13Z</time>
      </trkpt>
      <trkpt lat="45.2241" lon="5.02827">
        <ele>406.63</ele>
        <time>2017-02-25T15:33:14Z</time>
      </trkpt>
      <trkpt lat="45.22389" lon="5.02829">
        <ele>407.46</ele>
        <time>2017-02-25T15:33:15Z</time>
      </trkpt>
      <trkpt lat="45.22368" lon="5.02832">
        <ele>408.19</ele>
        <time>2017-02-25T15:33:16Z</time>
      </trkpt>
      <trkpt lat="45.22347" lon="5.02835">
        <ele>408.89</ele>
        <time>2017-02-25T15:33:17Z</time>
      </trkpt>
      <trkpt lat="45.22326" lon="5.02838">
        <ele>409.59</ele>
        <time>2017-02-25T15:33:18Z</time>
      </trkpt>
      <trkpt lat="45.22304" lon="5.02841">
        <ele>409.97</ele>
        <time>2017-02-25T15:33:19Z</time>
      </trkpt>
      <trkpt lat="45.22283" lon="5.02844">
        <ele>410.13</ele>
        <time>2017-02-25T15:33:20Z</time>
      </trkpt>
      <trkpt lat="45.22262" lon="5.02848">
        <ele>410.24</ele>
        <time>2017-02-25T15:33:21Z</time>
      </trkpt>
      <trkpt lat="45.22243" lon="5.02851">
        <ele>410.58</ele>
        <time>2017-02-25T15:33:22Z</time>
      </trkpt>
      <trkpt lat="45.22223" lon="5.02855">
        <ele>411.21</ele>
        <time>2017-02-25T15:33:23Z</time>
      </trkpt>
      <trkpt lat="45.22204" lon="5.02859">
        <ele>411.74</ele>
        <time>2017-02-25T15:33:24Z</time>
      </trkpt>
      <trkpt lat="45.22185" lon="5.02866">
        <ele>411.92</ele>
        <time>2017-02-25T15:33:25Z</time>
      </trkpt>
      <trkpt lat="45.22167" lon="5.02874">
        <ele>411.8</ele>
        <time>2017-02-25T15:33:26Z</time>
      </trkpt>
      <trkpt lat="45.22148" lon="5.02885">
        <ele>411.61</ele>
        <time>2017-02-25T15:33:27Z</time>
      </trkpt>
      <trkpt lat="45.22131" lon="5.02897">
        <ele>411.34</ele>
        <time>2017-02-25T15:33:28Z</time>
      </trkpt>
      <trkpt lat="45.22116" lon="5.0291">
        <ele>411.04</ele>
        <time>2017-02-25T15:33:29Z</time>
      </trkpt>
      <trkpt lat="45.22101" lon="5.02923">
        <ele>410.74</ele>
        <time>2017-02-25T15:33:30Z</time>
      </trkpt>
      <trkpt lat="45.22088" lon="5.02936">
        <ele>410.76</ele>
        <time>2017-02-25T15:33:31Z</time>
      </trkpt>
      <trkpt lat="45.22076" lon="5.02948">
        <ele>410.85</ele>
        <time>2017-02-25T15:33:32Z</time>
      </trkpt>
      <trkpt lat="45.22064" lon="5.0296">
        <ele>411.18</ele>
        <time>2017-02-25T15:33:33Z</time>
      </trkpt>
      <trkpt lat="45.22055" lon="5.02973">
        <ele>411.41</ele>
        <time>2017-02-25T15:33:34Z</time>
      </trkpt>
      <trkpt lat="45.22048" lon="5.02985">
        <ele>411.46</ele>
        <time>2017-02-25T15:33:35Z</time>
      </trkpt>
      <trkpt lat="45.22043" lon="5.02998">
        <ele>411.54</ele>
        <time>2017-02-25T15:33:36Z</time>
      </trkpt>
      <trkpt lat="45.22038" lon="5.03009">
        <ele>411.88</ele>
        <time>2017-02-25T15:33:37Z</time>
      </trkpt>
      <trkpt lat="45.22032" lon="5.0302">
        <ele>412.03</ele>
        <time>2017-02-25T15:33:38Z</time>
      </trkpt>
      <trkpt lat="45.22025" lon="5.03031">
        <ele>412.46</ele>
        <time>2017-02-25T15:33:39Z</time>
      </trkpt>
      <trkpt lat="45.22016" lon="5.03042">
        <ele>412.95</ele>
        <time>2017-02-25T15:33:40Z</time>
      </trkpt>
      <trkpt lat="45.22007" lon="5.03055">
        <ele>413.52</ele>
        <time>2017-02-25T15:33:41Z</time>
      </trkpt>
      <trkpt lat="45.21997" lon="5.03067">
        <ele>414.04</ele>
        <time>2017-02-25T15:33:42Z</time>
      </trkpt>
      <trkpt lat="45.21987" lon="5.0308">
        <ele>414.62</ele>
        <time>2017-02-25T15:33:43Z</time>
      </trkpt>
      <trkpt lat="45.21976" lon="5.03093">
        <ele>415.38</ele>
        <time>2017-02-25T15:33:44Z</time>
      </trkpt>
      <trkpt lat="45.21965" lon="5.03106">
        <ele>416.09</ele>
        <time>2017-02-25T15:33:45Z</time>
      </trkpt>
      <trkpt lat="45.21952" lon="5.03118">
        <ele>416.87</ele>
        <time>2017-02-25T15:33:46Z</time>
      </trkpt>
      <trkpt lat="45.2194" lon="5.03131">
        <ele>418.15</ele>
        <time>2017-02-25T15:33:47Z</time>
      </trkpt>
      <trkpt lat="45.21926" lon="5.03143">
        <ele>419.2</ele>
        <time>2017-02-25T15:33:48Z</time>
      </trkpt>
      <trkpt lat="45.21912" lon="5.03153">
        <ele>419.97</ele>
        <time>2017-02-25T15:33:49Z</time>
      </trkpt>
      <trkpt lat="45.21897" lon="5.03162">
        <ele>420.05</ele>
        <time>2017-02-25T15:33:50Z</time>
      </trkpt>
      <trkpt lat="45.21883" lon="5.03172">
        <ele>420.3</ele>
        <time>2017-02-25T15:33:51Z</time>
      </trkpt>
      <trkpt lat="45.21869" lon="5.03184">
        <ele>420.67</ele>
        <time>2017-02-25T15:33:52Z</time>
      </trkpt>
      <trkpt lat="45.21858" lon="5.03199">
        <ele>421.63</ele>
        <time>2017-02-25T15:33:53Z</time>
      </trkpt>
      <trkpt lat="45.21848" lon="5.03217">
        <ele>422.3</ele>
        <time>2017-02-25T15:33:54Z</time>
      </trkpt>
      <trkpt lat="45.21838" lon="5.03236">
        <ele>422.75</ele>
        <time>2017-02-25T15:33:55Z</time>
      </trkpt>
      <trkpt lat="45.21829" lon="5.03255">
        <ele>422.84</ele>
        <time>2017-02-25T15:33:56Z</time>
      </trkpt>
      <trkpt lat="45.21819" lon="5.03275">
        <ele>422.7</ele>
        <time>2017-02-25T15:33:57Z</time>
      </trkpt>
      <trkpt lat="45.2181" lon="5.03295">
        <ele>422.67</ele>
        <time>2017-02-25T15:33:58Z</time>
      </trkpt>
      <trkpt lat="45.21801" lon="5.03315">
        <ele>422.83</ele>
        <time>2017-02-25T15:33:59Z</time>
      </trkpt>
      <trkpt lat="45.21794" lon="5.03335">
        <ele>423.98</ele>
        <time>2017-02-25T15:34:00Z</time>
      </trkpt>
      <trkpt lat="45.21787" lon="5.03354">
        <ele>424.69</ele>
        <time>2017-02-25T15:34:01Z</time>
      </trkpt>
      <trkpt lat="45.21782" lon="5.03371">
        <ele>425.15</ele>
        <time>2017-02-25T15:34:02Z</time>
      </trkpt>
      <trkpt lat="45.21777" lon="5.0339">
        <ele>425.56</ele>
        <time>2017-02-25T15:34:03Z</time>
      </trkpt>
      <trkpt lat="45.21775" lon="5.03411">
        <ele>425.73</ele>
        <time>2017-02-25T15:34:04Z</time>
      </trkpt>
      <trkpt lat="45.21774" lon="5.03434">
        <ele>425.76</ele>
        <time>2017-02-25T15:34:05Z</time>
      </trkpt>
      <trkpt lat="45.21774" lon="5.03458">
        <ele>425.69</ele>
        <time>2017-02-25T15:34:06Z</time>
      </trkpt>
      <trkpt lat="45.21774" lon="5.03482">
        <ele>425.59</ele>
        <time>2017-02-25T15:34:07Z</time>
      </trkpt>
      <trkpt lat="45.21772" lon="5.03506">
        <ele>425.65</ele>
        <time>2017-02-25T15:34:08Z</time>
      </trkpt>
      <trkpt lat="45.21768" lon="5.0353">
        <ele>425.58</ele>
        <time>2017-02-25T15:34:09Z</time>
      </trkpt>
      <trkpt lat="45.21763" lon="5.03555">
        <ele>425.57</ele>
        <time>2017-02-25T15:34:10Z</time>
      </trkpt>
      <trkpt lat="45.21756" lon="5.03581">
        <ele>424.93</ele>
        <time>2017-02-25T15:34:11Z</time>
      </trkpt>
      <trkpt lat="45.21749" lon="5.03607">
        <ele>423.6</ele>
        <time>2017-02-25T15:34:12Z</time>
      </trkpt>
      <trkpt lat="45.21744" lon="5.03633">
        <ele>422.61</ele>
        <time>2017-02-25T15:34:13Z</time>
      </trkpt>
      <trkpt lat="45.21739" lon="5.03659">
        <ele>421.86</ele>
        <time>2017-02-25T15:34:14Z</time>
      </trkpt>
      <trkpt lat="45.21735" lon="5.03684">
        <ele>421.3</ele>
        <time>2017-02-25T15:34:15Z</time>
      </trkpt>
      <trkpt lat="45.21732" lon="5.03711">
        <ele>420.95</ele>
        <time>2017-02-25T15:34:16Z</time>
      </trkpt>
      <trkpt lat="45.21732" lon="5.03738">
        <ele>420.56</ele>
        <time>2017-02-25T15:34:17Z</time>
      </trkpt>
      <trkpt lat="45.21733" lon="5.03765">
        <ele>420.09</ele>
        <time>2017-02-25T15:34:18Z</time>
      </trkpt>
      <trkpt lat="45.21735" lon="5.03793">
        <ele>420.07</ele>
        <time>2017-02-25T15:34:19Z</time>
      </trkpt>
      <trkpt lat="45.21735" lon="5.03821">
        <ele>419.99</ele>
        <time>2017-02-25T15:34:20Z</time>
      </trkpt>
      <trkpt lat="45.21734" lon="5.03848">
        <ele>420.21</ele>
        <time>2017-02-25T15:34:21Z</time>
      </trkpt>
      <trkpt lat="45.21731" lon="5.03874">
        <ele>420.98</ele>
        <time>2017-02-25T15:34:22Z</time>
      </trkpt>
      <trkpt lat="45.21727" lon="5.03898">
        <ele>422.25</ele>
        <time>2017-02-25T15:34:23Z</time>
      </trkpt>
      <trkpt lat="45.21723" lon="5.03921">
        <ele>423.22</ele>
        <time>2017-02-25T15:34:24Z</time>
      </trkpt>
      <trkpt lat="45.2172" lon="5.03943">
        <ele>423.66</ele>
        <time>2017-02-25T15:34:25Z</time>
      </trkpt>
      <trkpt lat="45.21719" lon="5.03966">
        <ele>423.91</ele>
        <time>2017-02-25T15:34:26Z</time>
      </trkpt>
      <trkpt lat="45.2172" lon="5.0399">
        <ele>423.87</ele>
        <time>2017-02-25T15:34:27Z</time>
      </trkpt>
      <trkpt lat="45.21721" lon="5.04014">
        <ele>423.87</ele>
        <time>2017-02-25T15:34:28Z</time>
      </trkpt>
      <trkpt lat="45.21723" lon="5.04039">
        <ele>423.95</ele>
        <time>2017-02-25T15:34:29Z</time>
      </trkpt>
      <trkpt lat="45.21725" lon="5.04063">
        <ele>424.04</ele>
        <time>2017-02-25T15:34:30Z</time>
      </trkpt>
      <trkpt lat="45.21725" lon="5.04087">
        <ele>423.9</ele>
        <time>2017-02-25T15:34:31Z</time>
      </trkpt>
      <trkpt lat="45.21725" lon="5.04111">
        <ele>423.63</ele>
        <time>2017-02-25T15:34:32Z</time>
      </trkpt>
      <trkpt lat="45.21725" lon="5.04135">
        <ele>423.74</ele>
        <time>2017-02-25T15:34:33Z</time>
      </trkpt>
      <trkpt lat="45.21725" lon="5.04159">
        <ele>423.92</ele>
        <time>2017-02-25T15:34:34Z</time>
      </trkpt>
      <trkpt lat="45.21726" lon="5.04184">
        <ele>424.44</ele>
        <time>2017-02-25T15:34:35Z</time>
      </trkpt>
      <trkpt lat="45.21727" lon="5.04209">
        <ele>425.02</ele>
        <time>2017-02-25T15:34:36Z</time>
      </trkpt>
      <trkpt lat="45.2173" lon="5.04235">
        <ele>425.62</ele>
        <time>2017-02-25T15:34:37Z</time>
      </trkpt>
      <trkpt lat="45.21734" lon="5.04261">
        <ele>426.46</ele>
        <time>2017-02-25T15:34:38Z</time>
      </trkpt>
      <trkpt lat="45.21737" lon="5.04287">
        <ele>427.51</ele>
        <time>2017-02-25T15:34:39Z</time>
      </trkpt>
      <trkpt lat="45.21741" lon="5.04311">
        <ele>428.75</ele>
        <time>2017-02-25T15:34:40Z</time>
      </trkpt>
      <trkpt lat="45.21744" lon="5.04334">
        <ele>429.96</ele>
        <time>2017-02-25T15:34:41Z</time>
      </trkpt>
      <trkpt lat="45.21747" lon="5.04354">
        <ele>430.93</ele>
        <time>2017-02-25T15:34:42Z</time>
      </trkpt>
      <trkpt lat="45.2175" lon="5.04374">
        <ele>431.84</ele>
        <time>2017-02-25T15:34:43Z</time>
      </trkpt>
      <trkpt lat="45.21753" lon="5.04392">
        <ele>432.66</ele>
        <time>2017-02-25T15:34:44Z</time>
      </trkpt>
      <trkpt lat="45.21755" lon="5.0441">
        <ele>433.47</ele>
        <time>2017-02-25T15:34:45Z</time>
      </trkpt>
      <trkpt lat="45.21757" lon="5.04427">
        <ele>433.79</ele>
        <time>2017-02-25T15:34:46Z</time>
      </trkpt>
      <trkpt lat="45.21759" lon="5.04443">
        <ele>434.01</ele>
        <time>2017-02-25T15:34:47Z</time>
      </trkpt>
      <trkpt lat="45.2176" lon="5.04457">
        <ele>434.38</ele>
        <time>2017-02-25T15:34:48Z</time>
      </trkpt>
      <trkpt lat="45.21761" lon="5.04469">
        <ele>434.77</ele>
        <time>2017-02-25T15:34:49Z</time>
      </trkpt>
      <trkpt lat="45.21761" lon="5.04478">
        <ele>435.09</ele>
        <time>2017-02-25T15:34:50Z</time>
      </trkpt>
      <trkpt lat="45.21762" lon="5.04483">
        <ele>435.39</ele>
        <time>2017-02-25T15:34:51Z</time>
      </trkpt>
      <trkpt lat="45.21762" lon="5.04487">
        <ele>435.61</ele>
        <time>2017-02-25T15:34:52Z</time>
      </trkpt>
      <trkpt lat="45.21762" lon="5.04489">
        <ele>435.66</ele>
        <time>2017-02-25T15:34:53Z</time>
      </trkpt>
      <trkpt lat="45.21762" lon="5.04489">
        <ele>435.74</ele>
        <time>2017-02-25T15:34:54Z</time>
      </trkpt>
      <trkpt lat="45.21762" lon="5.04488">
        <ele>435.68</ele>
        <time>2017-02-25T15:34:55Z</time>
      </trkpt>
      <trkpt lat="45.21762" lon="5.04487">
        <ele>435.59</ele>
        <time>2017-02-25T15:34:56Z</time>
      </trkpt>
      <trkpt lat="45.21762" lon="5.04487">
        <ele>435.57</ele>
        <time>2017-02-25T15:34:57Z</time>
      </trkpt>
      <trkpt lat="45.21762" lon="5.04487">
        <ele>435.57</ele>
        <time>2017-02-25T15:34:58Z</time>
      </trkpt>
      <trkpt lat="45.21762" lon="5.04487">
        <ele>435.57</ele>
        <time>2017-02-25T15:34:59Z</time>
      </trkpt>
      <trkpt lat="45.21762" lon="5.04487">
        <ele>435.57</ele>
        <time>2017-02-25T15:35:00Z</time>
      </trkpt>
      <trkpt lat="45.21762" lon="5.04487">
        <ele>435.57</ele>
        <time>2017-02-25T15:35:01Z</time>
      </trkpt>
      <trkpt lat="45.21762" lon="5.04487">
        <ele>435.57</ele>
        <time>2017-02-25T15:35:02Z</time>
      </trkpt>
      <trkpt lat="45.21762" lon="5.04487">
        <ele>435.57</ele>
        <time>2017-02-25T15:35:03Z</time>
      </trkpt>
      <trkpt lat="45.21762" lon="5.04487">
        <ele>435.57</ele>
        <time>2017-02-25T15:35:04Z</time>
      </trkpt>
      <trkpt lat="45.21762" lon="5.04487">
        <ele>435.57</ele>
        <time>2017-02-25T15:35:05Z</time>
      </trkpt>
      <trkpt lat="45.21762" lon="5.04487">
        <ele>435.57</ele>
        <time>2017-02-25T15:35:06Z</time>
      </trkpt>
      <trkpt lat="45.21762" lon="5.04487">
        <ele>435.57</ele>
        <time>2017-02-25T15:35:07Z</time>
      </trkpt>
      <trkpt lat="45.21762" lon="5.04487">
        <ele>435.57</ele>
        <time>2017-02-25T15:35:08Z</time>
      </trkpt>
      <trkpt lat="45.21762" lon="5.04487">
        <ele>435.57</ele>
        <time>2017-02-25T15:35:09Z</time>
      </trkpt>
      <trkpt lat="45.21762" lon="5.04487">
        <ele>435.57</ele>
        <time>2017-02-25T15:35:10Z</time>
      </trkpt>
      <trkpt lat="45.21761" lon="5.04489">
        <ele>435.57</ele>
        <time>2017-02-25T15:35:11Z</time>
      </trkpt>
      <trkpt lat="45.2176" lon="5.04491">
        <ele>435.49</ele>
        <time>2017-02-25T15:35:12Z</time>
      </trkpt>
      <trkpt lat="45.21758" lon="5.04492">
        <ele>435.31</ele>
        <time>2017-02-25T15:35:13Z</time>
      </trkpt>
      <trkpt lat="45.21757" lon="5.04493">
        <ele>435.2</ele>
        <time>2017-02-25T15:35:14Z</time>
      </trkpt>
      <trkpt lat="45.21754" lon="5.04494">
        <ele>435.17</ele>
        <time>2017-02-25T15:35:15Z</time>
      </trkpt>
      <trkpt lat="45.21752" lon="5.04494">
        <ele>435.09</ele>
        <time>2017-02-25T15:35:16Z</time>
      </trkpt>
      <trkpt lat="45.2175" lon="5.04493">
        <ele>434.91</ele>
        <time>2017-02-25T15:35:17Z</time>
      </trkpt>
      <trkpt lat="45.21746" lon="5.04492">
        <ele>434.8</ele>
        <time>2017-02-25T15:35:18Z</time>
      </trkpt>
      <trkpt lat="45.21741" lon="5.0449">
        <ele>434.45</ele>
        <time>2017-02-25T15:35:19Z</time>
      </trkpt>
      <trkpt lat="45.21735" lon="5.04487">
        <ele>434.14</ele>
        <time>2017-02-25T15:35:20Z</time>
      </trkpt>
      <trkpt lat="45.21728" lon="5.04483">
        <ele>433.76</ele>
        <time>2017-02-25T15:35:21Z</time>
      </trkpt>
      <trkpt lat="45.2172" lon="5.0448">
        <ele>433.37</ele>
        <time>2017-02-25T15:35:22Z</time>
      </trkpt>
      <trkpt lat="45.21711" lon="5.04478">
        <ele>432.97</ele>
        <time>2017-02-25T15:35:23Z</time>
      </trkpt>
      <trkpt lat="45.21702" lon="5.04475">
        <ele>432.57</ele>
        <time>2017-02-25T15:35:24Z</time>
      </trkpt>
      <trkpt lat="45.21691" lon="5.04473">
        <ele>432.17</ele>
        <time>2017-02-25T15:35:25Z</time>
      </trkpt>
      <trkpt lat="45.21681" lon="5.0447">
        <ele>431.69</ele>
        <time>2017-02-25T15:35:26Z</time>
      </trkpt>
      <trkpt lat="45.21671" lon="5.04466">
        <ele>431.27</ele>
        <time>2017-02-25T15:35:27Z</time>
      </trkpt>
      <trkpt lat="45.21659" lon="5.04462">
        <ele>430.95</ele>
        <time>2017-02-25T15:35:28Z</time>
      </trkpt>
      <trkpt lat="45.21647" lon="5.04459">
        <ele>431.04</ele>
        <time>2017-02-25T15:35:29Z</time>
      </trkpt>
      <trkpt lat="45.21634" lon="5.04455">
        <ele>430.66</ele>
        <time>2017-02-25T15:35:30Z</time>
      </trkpt>
      <trkpt lat="45.21622" lon="5.04451">
        <ele>430.43</ele>
        <time>2017-02-25T15:35:31Z</time>
      </trkpt>
      <trkpt lat="45.2161" lon="5.04448">
        <ele>429.74</ele>
        <time>2017-02-25T15:35:32Z</time>
      </trkpt>
      <trkpt lat="45.21597" lon="5.04445">
        <ele>429.12</ele>
        <time>2017-02-25T15:35:33Z</time>
      </trkpt>
      <trkpt lat="45.21584" lon="5.04444">
        <ele>428.52</ele>
        <time>2017-02-25T15:35:34Z</time>
      </trkpt>
      <trkpt lat="45.2157" lon="5.04443">
        <ele>427.92</ele>
        <time>2017-02-25T15:35:35Z</time>
      </trkpt>
      <trkpt lat="45.21555" lon="5.04441">
        <ele>427.24</ele>
        <time>2017-02-25T15:35:36Z</time>
      </trkpt>
      <trkpt lat="45.21541" lon="5.04441">
        <ele>426.46</ele>
        <time>2017-02-25T15:35:37Z</time>
      </trkpt>
      <trkpt lat="45.21527" lon="5.04441">
        <ele>425.75</ele>
        <time>2017-02-25T15:35:38Z</time>
      </trkpt>
      <trkpt lat="45.21513" lon="5.0444">
        <ele>424.88</ele>
        <time>2017-02-25T15:35:39Z</time>
      </trkpt>
      <trkpt lat="45.21499" lon="5.04439">
        <ele>424.23</ele>
        <time>2017-02-25T15:35:40Z</time>
      </trkpt>
      <trkpt lat="45.21486" lon="5.0444">
        <ele>423.46</ele>
        <time>2017-02-25T15:35:41Z</time>
      </trkpt>
      <trkpt lat="45.21472" lon="5.04442">
        <ele>422.51</ele>
        <time>2017-02-25T15:35:42Z</time>
      </trkpt>
      <trkpt lat="45.21458" lon="5.04446">
        <ele>421.27</ele>
        <time>2017-02-25T15:35:43Z</time>
      </trkpt>
      <trkpt lat="45.21445" lon="5.04451">
        <ele>419.91</ele>
        <time>2017-02-25T15:35:44Z</time>
      </trkpt>
      <trkpt lat="45.21432" lon="5.04456">
        <ele>418.68</ele>
        <time>2017-02-25T15:35:45Z</time>
      </trkpt>
      <trkpt lat="45.2142" lon="5.04461">
        <ele>417.47</ele>
        <time>2017-02-25T15:35:46Z</time>
      </trkpt>
      <trkpt lat="45.21408" lon="5.04464">
        <ele>416.35</ele>
        <time>2017-02-25T15:35:47Z</time>
      </trkpt>
      <trkpt lat="45.21398" lon="5.04468">
        <ele>415.32</ele>
        <time>2017-02-25T15:35:48Z</time>
      </trkpt>
      <trkpt lat="45.21387" lon="5.04472">
        <ele>414.16</ele>
        <time>2017-02-25T15:35:49Z</time>
      </trkpt>
      <trkpt lat="45.21375" lon="5.04477">
        <ele>413.29</ele>
        <time>2017-02-25T15:35:50Z</time>
      </trkpt>
      <trkpt lat="45.21363" lon="5.04482">
        <ele>412.55</ele>
        <time>2017-02-25T15:35:51Z</time>
      </trkpt>
      <trkpt lat="45.2135" lon="5.04487">
        <ele>412.32</ele>
        <time>2017-02-25T15:35:52Z</time>
      </trkpt>
      <trkpt lat="45.21337" lon="5.04492">
        <ele>412.04</ele>
        <time>2017-02-25T15:35:53Z</time>
      </trkpt>
      <trkpt lat="45.21324" lon="5.04496">
        <ele>411.74</ele>
        <time>2017-02-25T15:35:54Z</time>
      </trkpt>
      <trkpt lat="45.21311" lon="5.04501">
        <ele>411.68</ele>
        <time>2017-02-25T15:35:55Z</time>
      </trkpt>
      <trkpt lat="45.21299" lon="5.04504">
        <ele>411.75</ele>
        <time>2017-02-25T15:35:56Z</time>
      </trkpt>
      <trkpt lat="45.21288" lon="5.04508">
        <ele>412</ele>
        <time>2017-02-25T15:35:57Z</time>
      </trkpt>
      <trkpt lat="45.21278" lon="5.04511">
        <ele>412.77</ele>
        <time>2017-02-25T15:35:58Z</time>
      </trkpt>
      <trkpt lat="45.21268" lon="5.04513">
        <ele>413.57</ele>
        <time>2017-02-25T15:35:59Z</time>
      </trkpt>
      <trkpt lat="45.21259" lon="5.04514">
        <ele>413.89</ele>
        <time>2017-02-25T15:36:00Z</time>
      </trkpt>
      <trkpt lat="45.21249" lon="5.04515">
        <ele>414.19</ele>
        <time>2017-02-25T15:36:01Z</time>
      </trkpt>
      <trkpt lat="45.2124" lon="5.04518">
        <ele>414.41</ele>
        <time>2017-02-25T15:36:02Z</time>
      </trkpt>
      <trkpt lat="45.2123" lon="5.04522">
        <ele>414.54</ele>
        <time>2017-02-25T15:36:03Z</time>
      </trkpt>
      <trkpt lat="45.21221" lon="5.04528">
        <ele>414.4</ele>
        <time>2017-02-25T15:36:04Z</time>
      </trkpt>
      <trkpt lat="45.21212" lon="5.04535">
        <ele>414.29</ele>
        <time>2017-02-25T15:36:05Z</time>
      </trkpt>
      <trkpt lat="45.21204" lon="5.04542">
        <ele>414.27</ele>
        <time>2017-02-25T15:36:06Z</time>
      </trkpt>
      <trkpt lat="45.21198" lon="5.04549">
        <ele>414.19</ele>
        <time>2017-02-25T15:36:07Z</time>
      </trkpt>
      <trkpt lat="45.21192" lon="5.04557">
        <ele>414.09</ele>
        <time>2017-02-25T15:36:08Z</time>
      </trkpt>
      <trkpt lat="45.21186" lon="5.04565">
        <ele>414.07</ele>
        <time>2017-02-25T15:36:09Z</time>
      </trkpt>
      <trkpt lat="45.2118" lon="5.04575">
        <ele>413.67</ele>
        <time>2017-02-25T15:36:10Z</time>
      </trkpt>
      <trkpt lat="45.21174" lon="5.04585">
        <ele>413.83</ele>
        <time>2017-02-25T15:36:11Z</time>
      </trkpt>
      <trkpt lat="45.21169" lon="5.04595">
        <ele>413.78</ele>
        <time>2017-02-25T15:36:12Z</time>
      </trkpt>
      <trkpt lat="45.21164" lon="5.04605">
        <ele>413.69</ele>
        <time>2017-02-25T15:36:13Z</time>
      </trkpt>
      <trkpt lat="45.2116" lon="5.04613">
        <ele>413.59</ele>
        <time>2017-02-25T15:36:14Z</time>
      </trkpt>
      <trkpt lat="45.21155" lon="5.04619">
        <ele>413.65</ele>
        <time>2017-02-25T15:36:15Z</time>
      </trkpt>
      <trkpt lat="45.2115" lon="5.04624">
        <ele>413.74</ele>
        <time>2017-02-25T15:36:16Z</time>
      </trkpt>
      <trkpt lat="45.21143" lon="5.04627">
        <ele>413.52</ele>
        <time>2017-02-25T15:36:17Z</time>
      </trkpt>
      <trkpt lat="45.21135" lon="5.04629">
        <ele>413.24</ele>
        <time>2017-02-25T15:36:18Z</time>
      </trkpt>
      <trkpt lat="45.21127" lon="5.04631">
        <ele>412.94</ele>
        <time>2017-02-25T15:36:19Z</time>
      </trkpt>
      <trkpt lat="45.21119" lon="5.04633">
        <ele>412.48</ele>
        <time>2017-02-25T15:36:20Z</time>
      </trkpt>
      <trkpt lat="45.21111" lon="5.04634">
        <ele>411.51</ele>
        <time>2017-02-25T15:36:21Z</time>
      </trkpt>
      <trkpt lat="45.21102" lon="5.04637">
        <ele>409.96</ele>
        <time>2017-02-25T15:36:22Z</time>
      </trkpt>
      <trkpt lat="45.21093" lon="5.04639">
        <ele>408.6</ele>
        <time>2017-02-25T15:36:23Z</time>
      </trkpt>
      <trkpt lat="45.21084" lon="5.04641">
        <ele>407.37</ele>
        <time>2017-02-25T15:36:24Z</time>
      </trkpt>
      <trkpt lat="45.21075" lon="5.04643">
        <ele>406.17</ele>
        <time>2017-02-25T15:36:25Z</time>
      </trkpt>
      <trkpt lat="45.21067" lon="5.04645">
        <ele>404.57</ele>
        <time>2017-02-25T15:36:26Z</time>
      </trkpt>
      <trkpt lat="45.21058" lon="5.04646">
        <ele>402.97</ele>
        <time>2017-02-25T15:36:27Z</time>
      </trkpt>
      <trkpt lat="45.21049" lon="5.04647">
        <ele>401.29</ele>
        <time>2017-02-25T15:36:28Z</time>
      </trkpt>
      <trkpt lat="45.21039" lon="5.04646">
        <ele>399.67</ele>
        <time>2017-02-25T15:36:29Z</time>
      </trkpt>
      <trkpt lat="45.21029" lon="5.04643">
        <ele>397.91</ele>
        <time>2017-02-25T15:36:30Z</time>
      </trkpt>
      <trkpt lat="45.21018" lon="5.04641">
        <ele>396.28</ele>
        <time>2017-02-25T15:36:31Z</time>
      </trkpt>
      <trkpt lat="45.21008" lon="5.04638">
        <ele>394.19</ele>
        <time>2017-02-25T15:36:32Z</time>
      </trkpt>
      <trkpt lat="45.20998" lon="5.04636">
        <ele>392.25</ele>
        <time>2017-02-25T15:36:33Z</time>
      </trkpt>
      <trkpt lat="45.20987" lon="5.04633">
        <ele>392.5</ele>
        <time>2017-02-25T15:36:34Z</time>
      </trkpt>
      <trkpt lat="45.20976" lon="5.04631">
        <ele>391.19</ele>
        <time>2017-02-25T15:36:35Z</time>
      </trkpt>
      <trkpt lat="45.20964" lon="5.04629">
        <ele>389.57</ele>
        <time>2017-02-25T15:36:36Z</time>
      </trkpt>
      <trkpt lat="45.20952" lon="5.04627">
        <ele>387.57</ele>
        <time>2017-02-25T15:36:37Z</time>
      </trkpt>
      <trkpt lat="45.20941" lon="5.04626">
        <ele>385.73</ele>
        <time>2017-02-25T15:36:38Z</time>
      </trkpt>
      <trkpt lat="45.20929" lon="5.04626">
        <ele>383.68</ele>
        <time>2017-02-25T15:36:39Z</time>
      </trkpt>
      <trkpt lat="45.20918" lon="5.04627">
        <ele>381.59</ele>
        <time>2017-02-25T15:36:40Z</time>
      </trkpt>
      <trkpt lat="45.20907" lon="5.04628">
        <ele>379.65</ele>
        <time>2017-02-25T15:36:41Z</time>
      </trkpt>
      <trkpt lat="45.20896" lon="5.04628">
        <ele>377.66</ele>
        <time>2017-02-25T15:36:42Z</time>
      </trkpt>
      <trkpt lat="45.20887" lon="5.04629">
        <ele>375.83</ele>
        <time>2017-02-25T15:36:43Z</time>
      </trkpt>
      <trkpt lat="45.20879" lon="5.0463">
        <ele>374.5</ele>
        <time>2017-02-25T15:36:44Z</time>
      </trkpt>
      <trkpt lat="45.2087" lon="5.04633">
        <ele>372.87</ele>
        <time>2017-02-25T15:36:45Z</time>
      </trkpt>
      <trkpt lat="45.20861" lon="5.04638">
        <ele>371.03</ele>
        <time>2017-02-25T15:36:46Z</time>
      </trkpt>
      <trkpt lat="45.20852" lon="5.04645">
        <ele>369.38</ele>
        <time>2017-02-25T15:36:47Z</time>
      </trkpt>
      <trkpt lat="45.20843" lon="5.04652">
        <ele>367.93</ele>
        <time>2017-02-25T15:36:48Z</time>
      </trkpt>
      <trkpt lat="45.20834" lon="5.0466">
        <ele>366.6</ele>
        <time>2017-02-25T15:36:49Z</time>
      </trkpt>
      <trkpt lat="45.20825" lon="5.04669">
        <ele>365.37</ele>
        <time>2017-02-25T15:36:50Z</time>
      </trkpt>
      <trkpt lat="45.20817" lon="5.04677">
        <ele>364.17</ele>
        <time>2017-02-25T15:36:51Z</time>
      </trkpt>
      <trkpt lat="45.2081" lon="5.04684">
        <ele>363.21</ele>
        <time>2017-02-25T15:36:52Z</time>
      </trkpt>
      <trkpt lat="45.20803" lon="5.04692">
        <ele>363.5</ele>
        <time>2017-02-25T15:36:53Z</time>
      </trkpt>
      <trkpt lat="45.20798" lon="5.04701">
        <ele>363.31</ele>
        <time>2017-02-25T15:36:54Z</time>
      </trkpt>
      <trkpt lat="45.20792" lon="5.0471">
        <ele>362.88</ele>
        <time>2017-02-25T15:36:55Z</time>
      </trkpt>
      <trkpt lat="45.20787" lon="5.0472">
        <ele>362.39</ele>
        <time>2017-02-25T15:36:56Z</time>
      </trkpt>
      <trkpt lat="45.2078" lon="5.04734">
        <ele>362.93</ele>
        <time>2017-02-25T15:36:57Z</time>
      </trkpt>
      <trkpt lat="45.20773" lon="5.04747">
        <ele>363.12</ele>
        <time>2017-02-25T15:36:58Z</time>
      </trkpt>
      <trkpt lat="45.20763" lon="5.04763">
        <ele>362.92</ele>
        <time>2017-02-25T15:36:59Z</time>
      </trkpt>
      <trkpt lat="45.20752" lon="5.04779">
        <ele>362.8</ele>
        <time>2017-02-25T15:37:00Z</time>
      </trkpt>
      <trkpt lat="45.2074" lon="5.04795">
        <ele>362.85</ele>
        <time>2017-02-25T15:37:01Z</time>
      </trkpt>
      <trkpt lat="45.2073" lon="5.04811">
        <ele>363.26</ele>
        <time>2017-02-25T15:37:02Z</time>
      </trkpt>
      <trkpt lat="45.2072" lon="5.04825">
        <ele>363.75</ele>
        <time>2017-02-25T15:37:03Z</time>
      </trkpt>
      <trkpt lat="45.20712" lon="5.04838">
        <ele>364.4</ele>
        <time>2017-02-25T15:37:04Z</time>
      </trkpt>
      <trkpt lat="45.20705" lon="5.04852">
        <ele>365.09</ele>
        <time>2017-02-25T15:37:05Z</time>
      </trkpt>
      <trkpt lat="45.20699" lon="5.04867">
        <ele>365.79</ele>
        <time>2017-02-25T15:37:06Z</time>
      </trkpt>
      <trkpt lat="45.20692" lon="5.04883">
        <ele>366.41</ele>
        <time>2017-02-25T15:37:07Z</time>
      </trkpt>
      <trkpt lat="45.20686" lon="5.04899">
        <ele>366.86</ele>
        <time>2017-02-25T15:37:08Z</time>
      </trkpt>
      <trkpt lat="45.2068" lon="5.04915">
        <ele>367.26</ele>
        <time>2017-02-25T15:37:09Z</time>
      </trkpt>
      <trkpt lat="45.20674" lon="5.04932">
        <ele>368.07</ele>
        <time>2017-02-25T15:37:10Z</time>
      </trkpt>
      <trkpt lat="45.20667" lon="5.04948">
        <ele>369.27</ele>
        <time>2017-02-25T15:37:11Z</time>
      </trkpt>
      <trkpt lat="45.2066" lon="5.04964">
        <ele>370.23</ele>
        <time>2017-02-25T15:37:12Z</time>
      </trkpt>
      <trkpt lat="45.20652" lon="5.04979">
        <ele>370.74</ele>
        <time>2017-02-25T15:37:13Z</time>
      </trkpt>
      <trkpt lat="45.20644" lon="5.04994">
        <ele>371</ele>
        <time>2017-02-25T15:37:14Z</time>
      </trkpt>
      <trkpt lat="45.20637" lon="5.05009">
        <ele>371.13</ele>
        <time>2017-02-25T15:37:15Z</time>
      </trkpt>
      <trkpt lat="45.20631" lon="5.05025">
        <ele>371.08</ele>
        <time>2017-02-25T15:37:16Z</time>
      </trkpt>
      <trkpt lat="45.20626" lon="5.0504">
        <ele>371.31</ele>
        <time>2017-02-25T15:37:17Z</time>
      </trkpt>
      <trkpt lat="45.20621" lon="5.05053">
        <ele>371.76</ele>
        <time>2017-02-25T15:37:18Z</time>
      </trkpt>
      <trkpt lat="45.20617" lon="5.05063">
        <ele>372.4</ele>
        <time>2017-02-25T15:37:19Z</time>
      </trkpt>
      <trkpt lat="45.20614" lon="5.0507">
        <ele>373.17</ele>
        <time>2017-02-25T15:37:20Z</time>
      </trkpt>
      <trkpt lat="45.20611" lon="5.05075">
        <ele>374.05</ele>
        <time>2017-02-25T15:37:21Z</time>
      </trkpt>
      <trkpt lat="45.20608" lon="5.0508">
        <ele>374.62</ele>
        <time>2017-02-25T15:37:22Z</time>
      </trkpt>
      <trkpt lat="45.20605" lon="5.05085">
        <ele>374.82</ele>
        <time>2017-02-25T15:37:23Z</time>
      </trkpt>
      <trkpt lat="45.20601" lon="5.0509">
        <ele>374.94</ele>
        <time>2017-02-25T15:37:24Z</time>
      </trkpt>
      <trkpt lat="45.20598" lon="5.05094">
        <ele>374.88</ele>
        <time>2017-02-25T15:37:25Z</time>
      </trkpt>
      <trkpt lat="45.20594" lon="5.05099">
        <ele>374.71</ele>
        <time>2017-02-25T15:37:26Z</time>
      </trkpt>
      <trkpt lat="45.2059" lon="5.05105">
        <ele>374.28</ele>
        <time>2017-02-25T15:37:27Z</time>
      </trkpt>
      <trkpt lat="45.20585" lon="5.0511">
        <ele>373.95</ele>
        <time>2017-02-25T15:37:28Z</time>
      </trkpt>
      <trkpt lat="45.20578" lon="5.05121">
        <ele>373</ele>
        <time>2017-02-25T15:37:30Z</time>
      </trkpt>
      <trkpt lat="45.20574" lon="5.05127">
        <ele>372.33</ele>
        <time>2017-02-25T15:37:31Z</time>
      </trkpt>
      <trkpt lat="45.20569" lon="5.05133">
        <ele>371.56</ele>
        <time>2017-02-25T15:37:32Z</time>
      </trkpt>
      <trkpt lat="45.20564" lon="5.0514">
        <ele>370.53</ele>
        <time>2017-02-25T15:37:33Z</time>
      </trkpt>
      <trkpt lat="45.20558" lon="5.05148">
        <ele>369.52</ele>
        <time>2017-02-25T15:37:34Z</time>
      </trkpt>
      <trkpt lat="45.20552" lon="5.05156">
        <ele>368.6</ele>
        <time>2017-02-25T15:37:35Z</time>
      </trkpt>
      <trkpt lat="45.20545" lon="5.05164">
        <ele>367.37</ele>
        <time>2017-02-25T15:37:36Z</time>
      </trkpt>
      <trkpt lat="45.20536" lon="5.05172">
        <ele>366.41</ele>
        <time>2017-02-25T15:37:37Z</time>
      </trkpt>
      <trkpt lat="45.20528" lon="5.0518">
        <ele>365.66</ele>
        <time>2017-02-25T15:37:38Z</time>
      </trkpt>
      <trkpt lat="45.20519" lon="5.05189">
        <ele>364.94</ele>
        <time>2017-02-25T15:37:39Z</time>
      </trkpt>
      <trkpt lat="45.20509" lon="5.05197">
        <ele>364.24</ele>
        <time>2017-02-25T15:37:40Z</time>
      </trkpt>
      <trkpt lat="45.20499" lon="5.05206">
        <ele>363.38</ele>
        <time>2017-02-25T15:37:41Z</time>
      </trkpt>
      <trkpt lat="45.20489" lon="5.05215">
        <ele>363.13</ele>
        <time>2017-02-25T15:37:42Z</time>
      </trkpt>
      <trkpt lat="45.2048" lon="5.05223">
        <ele>362.68</ele>
        <time>2017-02-25T15:37:43Z</time>
      </trkpt>
      <trkpt lat="45.20471" lon="5.05232">
        <ele>361.95</ele>
        <time>2017-02-25T15:37:44Z</time>
      </trkpt>
      <trkpt lat="45.20462" lon="5.05243">
        <ele>361.48</ele>
        <time>2017-02-25T15:37:45Z</time>
      </trkpt>
      <trkpt lat="45.20455" lon="5.05256">
        <ele>361.07</ele>
        <time>2017-02-25T15:37:46Z</time>
      </trkpt>
      <trkpt lat="45.20448" lon="5.0527">
        <ele>360.59</ele>
        <time>2017-02-25T15:37:47Z</time>
      </trkpt>
      <trkpt lat="45.20443" lon="5.05285">
        <ele>360.09</ele>
        <time>2017-02-25T15:37:48Z</time>
      </trkpt>
      <trkpt lat="45.20439" lon="5.05301">
        <ele>359.59</ele>
        <time>2017-02-25T15:37:49Z</time>
      </trkpt>
      <trkpt lat="45.20436" lon="5.05317">
        <ele>358.61</ele>
        <time>2017-02-25T15:37:50Z</time>
      </trkpt>
      <trkpt lat="45.20433" lon="5.05333">
        <ele>357.86</ele>
        <time>2017-02-25T15:37:51Z</time>
      </trkpt>
      <trkpt lat="45.20431" lon="5.05347">
        <ele>356.98</ele>
        <time>2017-02-25T15:37:52Z</time>
      </trkpt>
      <trkpt lat="45.20429" lon="5.0536">
        <ele>356.09</ele>
        <time>2017-02-25T15:37:53Z</time>
      </trkpt>
      <trkpt lat="45.20429" lon="5.05373">
        <ele>355.43</ele>
        <time>2017-02-25T15:37:54Z</time>
      </trkpt>
      <trkpt lat="45.20429" lon="5.05387">
        <ele>354.9</ele>
        <time>2017-02-25T15:37:55Z</time>
      </trkpt>
      <trkpt lat="45.2043" lon="5.05402">
        <ele>354.31</ele>
        <time>2017-02-25T15:37:56Z</time>
      </trkpt>
      <trkpt lat="45.20431" lon="5.05417">
        <ele>353.72</ele>
        <time>2017-02-25T15:37:57Z</time>
      </trkpt>
      <trkpt lat="45.20433" lon="5.05434">
        <ele>353.04</ele>
        <time>2017-02-25T15:37:58Z</time>
      </trkpt>
      <trkpt lat="45.20435" lon="5.05451">
        <ele>352.42</ele>
        <time>2017-02-25T15:37:59Z</time>
      </trkpt>
      <trkpt lat="45.20437" lon="5.0547">
        <ele>351.58</ele>
        <time>2017-02-25T15:38:00Z</time>
      </trkpt>
      <trkpt lat="45.2044" lon="5.05489">
        <ele>350.69</ele>
        <time>2017-02-25T15:38:01Z</time>
      </trkpt>
      <trkpt lat="45.20444" lon="5.05507">
        <ele>349.95</ele>
        <time>2017-02-25T15:38:02Z</time>
      </trkpt>
      <trkpt lat="45.20449" lon="5.05525">
        <ele>349.48</ele>
        <time>2017-02-25T15:38:03Z</time>
      </trkpt>
      <trkpt lat="45.20454" lon="5.05543">
        <ele>348.83</ele>
        <time>2017-02-25T15:38:04Z</time>
      </trkpt>
      <trkpt lat="45.20459" lon="5.05559">
        <ele>347.98</ele>
        <time>2017-02-25T15:38:05Z</time>
      </trkpt>
      <trkpt lat="45.20464" lon="5.05576">
        <ele>347.09</ele>
        <time>2017-02-25T15:38:06Z</time>
      </trkpt>
      <trkpt lat="45.20467" lon="5.05594">
        <ele>346.11</ele>
        <time>2017-02-25T15:38:07Z</time>
      </trkpt>
      <trkpt lat="45.20468" lon="5.05613">
        <ele>345.04</ele>
        <time>2017-02-25T15:38:08Z</time>
      </trkpt>
      <trkpt lat="45.20466" lon="5.05634">
        <ele>343.62</ele>
        <time>2017-02-25T15:38:09Z</time>
      </trkpt>
      <trkpt lat="45.20462" lon="5.05654">
        <ele>342.22</ele>
        <time>2017-02-25T15:38:10Z</time>
      </trkpt>
      <trkpt lat="45.20458" lon="5.05674">
        <ele>340.9</ele>
        <time>2017-02-25T15:38:11Z</time>
      </trkpt>
      <trkpt lat="45.20455" lon="5.05694">
        <ele>339.67</ele>
        <time>2017-02-25T15:38:12Z</time>
      </trkpt>
      <trkpt lat="45.20451" lon="5.05713">
        <ele>338.31</ele>
        <time>2017-02-25T15:38:13Z</time>
      </trkpt>
      <trkpt lat="45.20448" lon="5.05733">
        <ele>337</ele>
        <time>2017-02-25T15:38:14Z</time>
      </trkpt>
      <trkpt lat="45.20444" lon="5.05752">
        <ele>335.61</ele>
        <time>2017-02-25T15:38:15Z</time>
      </trkpt>
      <trkpt lat="45.2044" lon="5.05771">
        <ele>333.74</ele>
        <time>2017-02-25T15:38:16Z</time>
      </trkpt>
      <trkpt lat="45.20437" lon="5.05791">
        <ele>331.76</ele>
        <time>2017-02-25T15:38:17Z</time>
      </trkpt>
      <trkpt lat="45.20435" lon="5.05811">
        <ele>329.85</ele>
        <time>2017-02-25T15:38:18Z</time>
      </trkpt>
      <trkpt lat="45.20433" lon="5.05832">
        <ele>327.7</ele>
        <time>2017-02-25T15:38:19Z</time>
      </trkpt>
      <trkpt lat="45.20433" lon="5.05853">
        <ele>325.51</ele>
        <time>2017-02-25T15:38:20Z</time>
      </trkpt>
      <trkpt lat="45.20432" lon="5.05875">
        <ele>323.32</ele>
        <time>2017-02-25T15:38:21Z</time>
      </trkpt>
      <trkpt lat="45.20432" lon="5.05897">
        <ele>321.36</ele>
        <time>2017-02-25T15:38:22Z</time>
      </trkpt>
      <trkpt lat="45.20432" lon="5.05919">
        <ele>319.92</ele>
        <time>2017-02-25T15:38:23Z</time>
      </trkpt>
      <trkpt lat="45.20431" lon="5.05941">
        <ele>318.52</ele>
        <time>2017-02-25T15:38:24Z</time>
      </trkpt>
      <trkpt lat="45.2043" lon="5.05962">
        <ele>317.36</ele>
        <time>2017-02-25T15:38:25Z</time>
      </trkpt>
      <trkpt lat="45.20429" lon="5.05981">
        <ele>316.49</ele>
        <time>2017-02-25T15:38:26Z</time>
      </trkpt>
      <trkpt lat="45.20427" lon="5.05998">
        <ele>315.67</ele>
        <time>2017-02-25T15:38:27Z</time>
      </trkpt>
      <trkpt lat="45.20425" lon="5.06012">
        <ele>315.11</ele>
        <time>2017-02-25T15:38:28Z</time>
      </trkpt>
      <trkpt lat="45.20422" lon="5.06023">
        <ele>314.68</ele>
        <time>2017-02-25T15:38:29Z</time>
      </trkpt>
      <trkpt lat="45.2042" lon="5.06031">
        <ele>314.19</ele>
        <time>2017-02-25T15:38:30Z</time>
      </trkpt>
      <trkpt lat="45.20418" lon="5.06038">
        <ele>313.69</ele>
        <time>2017-02-25T15:38:31Z</time>
      </trkpt>
      <trkpt lat="45.20416" lon="5.06044">
        <ele>313.11</ele>
        <time>2017-02-25T15:38:32Z</time>
      </trkpt>
      <trkpt lat="45.20414" lon="5.06051">
        <ele>312.6</ele>
        <time>2017-02-25T15:38:33Z</time>
      </trkpt>
      <trkpt lat="45.20414" lon="5.06058">
        <ele>312.25</ele>
        <time>2017-02-25T15:38:34Z</time>
      </trkpt>
      <trkpt lat="45.20415" lon="5.06065">
        <ele>312.1</ele>
        <time>2017-02-25T15:38:35Z</time>
      </trkpt>
      <trkpt lat="45.20416" lon="5.06072">
        <ele>311.99</ele>
        <time>2017-02-25T15:38:36Z</time>
      </trkpt>
      <trkpt lat="45.20417" lon="5.06077">
        <ele>311.97</ele>
        <time>2017-02-25T15:38:37Z</time>
      </trkpt>
      <trkpt lat="45.20418" lon="5.0608">
        <ele>312.05</ele>
        <time>2017-02-25T15:38:38Z</time>
      </trkpt>
      <trkpt lat="45.20418" lon="5.0608">
        <ele>312.14</ele>
        <time>2017-02-25T15:38:39Z</time>
      </trkpt>
      <trkpt lat="45.20418" lon="5.06079">
        <ele>312.48</ele>
        <time>2017-02-25T15:38:40Z</time>
      </trkpt>
      <trkpt lat="45.20417" lon="5.06079">
        <ele>312.63</ele>
        <time>2017-02-25T15:38:41Z</time>
      </trkpt>
      <trkpt lat="45.20417" lon="5.06079">
        <ele>312.66</ele>
        <time>2017-02-25T15:38:42Z</time>
      </trkpt>
      <trkpt lat="45.20417" lon="5.06079">
        <ele>312.67</ele>
        <time>2017-02-25T15:38:43Z</time>
      </trkpt>
      <trkpt lat="45.20417" lon="5.06079">
        <ele>312.67</ele>
        <time>2017-02-25T15:38:44Z</time>
      </trkpt>
      <trkpt lat="45.20417" lon="5.06079">
        <ele>312.67</ele>
        <time>2017-02-25T15:38:45Z</time>
      </trkpt>
      <trkpt lat="45.20417" lon="5.06079">
        <ele>312.67</ele>
        <time>2017-02-25T15:38:46Z</time>
      </trkpt>
      <trkpt lat="45.20418" lon="5.06083">
        <ele>312.99</ele>
        <time>2017-02-25T15:38:47Z</time>
      </trkpt>
      <trkpt lat="45.20419" lon="5.06086">
        <ele>313.05</ele>
        <time>2017-02-25T15:38:48Z</time>
      </trkpt>
      <trkpt lat="45.20419" lon="5.06086">
        <ele>312.98</ele>
        <time>2017-02-25T15:38:49Z</time>
      </trkpt>
      <trkpt lat="45.20419" lon="5.06086">
        <ele>313.13</ele>
        <time>2017-02-25T15:38:50Z</time>
      </trkpt>
      <trkpt lat="45.20419" lon="5.06086">
        <ele>313.16</ele>
        <time>2017-02-25T15:38:51Z</time>
      </trkpt>
      <trkpt lat="45.20419" lon="5.06086">
        <ele>313.17</ele>
        <time>2017-02-25T15:38:52Z</time>
      </trkpt>
      <trkpt lat="45.20419" lon="5.06086">
        <ele>313.17</ele>
        <time>2017-02-25T15:38:53Z</time>
      </trkpt>
      <trkpt lat="45.20419" lon="5.06086">
        <ele>313.17</ele>
        <time>2017-02-25T15:38:54Z</time>
      </trkpt>
      <trkpt lat="45.20419" lon="5.06086">
        <ele>313.17</ele>
        <time>2017-02-25T15:38:55Z</time>
      </trkpt>
      <trkpt lat="45.20419" lon="5.06086">
        <ele>313.17</ele>
        <time>2017-02-25T15:38:56Z</time>
      </trkpt>
      <trkpt lat="45.20419" lon="5.06086">
        <ele>313.17</ele>
        <time>2017-02-25T15:38:57Z</time>
      </trkpt>
      <trkpt lat="45.20419" lon="5.06086">
        <ele>313.17</ele>
        <time>2017-02-25T15:38:58Z</time>
      </trkpt>
      <trkpt lat="45.20419" lon="5.06086">
        <ele>313.17</ele>
        <time>2017-02-25T15:38:59Z</time>
      </trkpt>
      <trkpt lat="45.20419" lon="5.06086">
        <ele>313.17</ele>
        <time>2017-02-25T15:39:00Z</time>
      </trkpt>
      <trkpt lat="45.20419" lon="5.06086">
        <ele>313.17</ele>
        <time>2017-02-25T15:39:01Z</time>
      </trkpt>
      <trkpt lat="45.20419" lon="5.06086">
        <ele>313.17</ele>
        <time>2017-02-25T15:39:02Z</time>
      </trkpt>
      <trkpt lat="45.20419" lon="5.06086">
        <ele>313.17</ele>
        <time>2017-02-25T15:39:03Z</time>
      </trkpt>
      <trkpt lat="45.20419" lon="5.06086">
        <ele>313.17</ele>
        <time>2017-02-25T15:39:04Z</time>
      </trkpt>
      <trkpt lat="45.20419" lon="5.06086">
        <ele>313.17</ele>
        <time>2017-02-25T15:39:05Z</time>
      </trkpt>
      <trkpt lat="45.20419" lon="5.06086">
        <ele>313.17</ele>
        <time>2017-02-25T15:39:06Z</time>
      </trkpt>
      <trkpt lat="45.20419" lon="5.06086">
        <ele>313.17</ele>
        <time>2017-02-25T15:39:07Z</time>
      </trkpt>
      <trkpt lat="45.20419" lon="5.06086">
        <ele>313.17</ele>
        <time>2017-02-25T15:39:08Z</time>
      </trkpt>
      <trkpt lat="45.20419" lon="5.06086">
        <ele>313.17</ele>
        <time>2017-02-25T15:39:09Z</time>
      </trkpt>
      <trkpt lat="45.20419" lon="5.06086">
        <ele>313.17</ele>
        <time>2017-02-25T15:39:10Z</time>
      </trkpt>
      <trkpt lat="45.20419" lon="5.06086">
        <ele>313.17</ele>
        <time>2017-02-25T15:39:11Z</time>
      </trkpt>
      <trkpt lat="45.20419" lon="5.06086">
        <ele>313.17</ele>
        <time>2017-02-25T15:39:12Z</time>
      </trkpt>
      <trkpt lat="45.20419" lon="5.06086">
        <ele>313.17</ele>
        <time>2017-02-25T15:39:13Z</time>
      </trkpt>
      <trkpt lat="45.20419" lon="5.06086">
        <ele>313.17</ele>
        <time>2017-02-25T15:39:14Z</time>
      </trkpt>
      <trkpt lat="45.20419" lon="5.06086">
        <ele>313.17</ele>
        <time>2017-02-25T15:39:15Z</time>
      </trkpt>
      <trkpt lat="45.20419" lon="5.06086">
        <ele>313.17</ele>
        <time>2017-02-25T15:39:16Z</time>
      </trkpt>
      <trkpt lat="45.20419" lon="5.06086">
        <ele>313.17</ele>
        <time>2017-02-25T15:39:17Z</time>
      </trkpt>
      <trkpt lat="45.20419" lon="5.06086">
        <ele>313.17</ele>
        <time>2017-02-25T15:39:18Z</time>
      </trkpt>
      <trkpt lat="45.20419" lon="5.06086">
        <ele>313.17</ele>
        <time>2017-02-25T15:39:19Z</time>
      </trkpt>
      <trkpt lat="45.20419" lon="5.06086">
        <ele>313.17</ele>
        <time>2017-02-25T15:39:20Z</time>
      </trkpt>
      <trkpt lat="45.20419" lon="5.06086">
        <ele>313.17</ele>
        <time>2017-02-25T15:39:21Z</time>
      </trkpt>
      <trkpt lat="45.20419" lon="5.06086">
        <ele>313.17</ele>
        <time>2017-02-25T15:39:22Z</time>
      </trkpt>
      <trkpt lat="45.20419" lon="5.06086">
        <ele>313.17</ele>
        <time>2017-02-25T15:39:23Z</time>
      </trkpt>
      <trkpt lat="45.20419" lon="5.06086">
        <ele>313.17</ele>
        <time>2017-02-25T15:39:24Z</time>
      </trkpt>
      <trkpt lat="45.20419" lon="5.06086">
        <ele>313.17</ele>
        <time>2017-02-25T15:39:25Z</time>
      </trkpt>
      <trkpt lat="45.20419" lon="5.06086">
        <ele>313.17</ele>
        <time>2017-02-25T15:39:26Z</time>
      </trkpt>
      <trkpt lat="45.20419" lon="5.06086">
        <ele>313.17</ele>
        <time>2017-02-25T15:39:27Z</time>
      </trkpt>
      <trkpt lat="45.20419" lon="5.06086">
        <ele>313.17</ele>
        <time>2017-02-25T15:39:28Z</time>
      </trkpt>
      <trkpt lat="45.20419" lon="5.06086">
        <ele>313.17</ele>
        <time>2017-02-25T15:39:29Z</time>
      </trkpt>
      <trkpt lat="45.20419" lon="5.06086">
        <ele>313.17</ele>
        <time>2017-02-25T15:39:30Z</time>
      </trkpt>
      <trkpt lat="45.20419" lon="5.06086">
        <ele>313.17</ele>
        <time>2017-02-25T15:39:31Z</time>
      </trkpt>
      <trkpt lat="45.20419" lon="5.06086">
        <ele>313.17</ele>
        <time>2017-02-25T15:39:32Z</time>
      </trkpt>
      <trkpt lat="45.20419" lon="5.06086">
        <ele>313.17</ele>
        <time>2017-02-25T15:39:33Z</time>
      </trkpt>
      <trkpt lat="45.20419" lon="5.06086">
        <ele>313.17</ele>
        <time>2017-02-25T15:39:34Z</time>
      </trkpt>
      <trkpt lat="45.20419" lon="5.06086">
        <ele>313.17</ele>
        <time>2017-02-25T15:39:35Z</time>
      </trkpt>
      <trkpt lat="45.20419" lon="5.06086">
        <ele>313.17</ele>
        <time>2017-02-25T15:39:36Z</time>
      </trkpt>
      <trkpt lat="45.20419" lon="5.06086">
        <ele>313.17</ele>
        <time>2017-02-25T15:39:37Z</time>
      </trkpt>
      <trkpt lat="45.20419" lon="5.06086">
        <ele>313.17</ele>
        <time>2017-02-25T15:39:38Z</time>
      </trkpt>
      <trkpt lat="45.20419" lon="5.06086">
        <ele>313.17</ele>
        <time>2017-02-25T15:39:39Z</time>
      </trkpt>
      <trkpt lat="45.20419" lon="5.06086">
        <ele>313.17</ele>
        <time>2017-02-25T15:39:40Z</time>
      </trkpt>
      <trkpt lat="45.20419" lon="5.06086">
        <ele>313.17</ele>
        <time>2017-02-25T15:39:41Z</time>
      </trkpt>
      <trkpt lat="45.20419" lon="5.06086">
        <ele>313.17</ele>
        <time>2017-02-25T15:39:42Z</time>
      </trkpt>
      <trkpt lat="45.20419" lon="5.06086">
        <ele>313.17</ele>
        <time>2017-02-25T15:39:43Z</time>
      </trkpt>
      <trkpt lat="45.20419" lon="5.06086">
        <ele>313.17</ele>
        <time>2017-02-25T15:39:44Z</time>
      </trkpt>
      <trkpt lat="45.20419" lon="5.06086">
        <ele>313.17</ele>
        <time>2017-02-25T15:39:45Z</time>
      </trkpt>
      <trkpt lat="45.20419" lon="5.06086">
        <ele>313.17</ele>
        <time>2017-02-25T15:39:46Z</time>
      </trkpt>
      <trkpt lat="45.20419" lon="5.06086">
        <ele>313.17</ele>
        <time>2017-02-25T15:39:47Z</time>
      </trkpt>
      <trkpt lat="45.20419" lon="5.06086">
        <ele>313.17</ele>
        <time>2017-02-25T15:39:48Z</time>
      </trkpt>
      <trkpt lat="45.20419" lon="5.06086">
        <ele>313.17</ele>
        <time>2017-02-25T15:39:49Z</time>
      </trkpt>
      <trkpt lat="45.20419" lon="5.06086">
        <ele>313.17</ele>
        <time>2017-02-25T15:39:50Z</time>
      </trkpt>
      <trkpt lat="45.20419" lon="5.06086">
        <ele>313.17</ele>
        <time>2017-02-25T15:39:51Z</time>
      </trkpt>
      <trkpt lat="45.20419" lon="5.06086">
        <ele>313.17</ele>
        <time>2017-02-25T15:39:52Z</time>
      </trkpt>
      <trkpt lat="45.20419" lon="5.06086">
        <ele>313.17</ele>
        <time>2017-02-25T15:39:53Z</time>
      </trkpt>
      <trkpt lat="45.20419" lon="5.06091">
        <ele>313.01</ele>
        <time>2017-02-25T15:39:54Z</time>
      </trkpt>
      <trkpt lat="45.2042" lon="5.06096">
        <ele>312.98</ele>
        <time>2017-02-25T15:39:55Z</time>
      </trkpt>
      <trkpt lat="45.20423" lon="5.06104">
        <ele>312.97</ele>
        <time>2017-02-25T15:39:56Z</time>
      </trkpt>
      <trkpt lat="45.20426" lon="5.06114">
        <ele>312.81</ele>
        <time>2017-02-25T15:39:57Z</time>
      </trkpt>
      <trkpt lat="45.20429" lon="5.06124">
        <ele>312.54</ele>
        <time>2017-02-25T15:39:58Z</time>
      </trkpt>
      <trkpt lat="45.20431" lon="5.06135">
        <ele>312</ele>
        <time>2017-02-25T15:39:59Z</time>
      </trkpt>
      <trkpt lat="45.20433" lon="5.06147">
        <ele>311.57</ele>
        <time>2017-02-25T15:40:00Z</time>
      </trkpt>
      <trkpt lat="45.20434" lon="5.06158">
        <ele>311.25</ele>
        <time>2017-02-25T15:40:01Z</time>
      </trkpt>
      <trkpt lat="45.20434" lon="5.06169">
        <ele>310.3</ele>
        <time>2017-02-25T15:40:02Z</time>
      </trkpt>
      <trkpt lat="45.20433" lon="5.06178">
        <ele>309.63</ele>
        <time>2017-02-25T15:40:03Z</time>
      </trkpt>
      <trkpt lat="45.20433" lon="5.06184">
        <ele>309.02</ele>
        <time>2017-02-25T15:40:04Z</time>
      </trkpt>
      <trkpt lat="45.20433" lon="5.06186">
        <ele>308.34</ele>
        <time>2017-02-25T15:40:05Z</time>
      </trkpt>
      <trkpt lat="45.20433" lon="5.06185">
        <ele>308.44</ele>
        <time>2017-02-25T15:40:06Z</time>
      </trkpt>
      <trkpt lat="45.20433" lon="5.06184">
        <ele>308.3</ele>
        <time>2017-02-25T15:40:07Z</time>
      </trkpt>
      <trkpt lat="45.20433" lon="5.06184">
        <ele>308.27</ele>
        <time>2017-02-25T15:40:08Z</time>
      </trkpt>
      <trkpt lat="45.20433" lon="5.06184">
        <ele>308.27</ele>
        <time>2017-02-25T15:40:09Z</time>
      </trkpt>
      <trkpt lat="45.20433" lon="5.06184">
        <ele>308.27</ele>
        <time>2017-02-25T15:40:10Z</time>
      </trkpt>
      <trkpt lat="45.20433" lon="5.06184">
        <ele>308.27</ele>
        <time>2017-02-25T15:40:11Z</time>
      </trkpt>
      <trkpt lat="45.20433" lon="5.06184">
        <ele>308.27</ele>
        <time>2017-02-25T15:40:12Z</time>
      </trkpt>
      <trkpt lat="45.20433" lon="5.06184">
        <ele>308.27</ele>
        <time>2017-02-25T15:40:13Z</time>
      </trkpt>
      <trkpt lat="45.20433" lon="5.06184">
        <ele>308.27</ele>
        <time>2017-02-25T15:40:14Z</time>
      </trkpt>
      <trkpt lat="45.20433" lon="5.06184">
        <ele>308.27</ele>
        <time>2017-02-25T15:40:15Z</time>
      </trkpt>
      <trkpt lat="45.20433" lon="5.06184">
        <ele>308.27</ele>
        <time>2017-02-25T15:40:16Z</time>
      </trkpt>
      <trkpt lat="45.20433" lon="5.06184">
        <ele>308.27</ele>
        <time>2017-02-25T15:40:17Z</time>
      </trkpt>
      <trkpt lat="45.20433" lon="5.06184">
        <ele>308.27</ele>
        <time>2017-02-25T15:40:18Z</time>
      </trkpt>
      <trkpt lat="45.20433" lon="5.06189">
        <ele>307.39</ele>
        <time>2017-02-25T15:40:19Z</time>
      </trkpt>
      <trkpt lat="45.20432" lon="5.06196">
        <ele>306.89</ele>
        <time>2017-02-25T15:40:20Z</time>
      </trkpt>
      <trkpt lat="45.20431" lon="5.06206">
        <ele>306.39</ele>
        <time>2017-02-25T15:40:21Z</time>
      </trkpt>
      <trkpt lat="45.20429" lon="5.06217">
        <ele>305.81</ele>
        <time>2017-02-25T15:40:22Z</time>
      </trkpt>
      <trkpt lat="45.20427" lon="5.06229">
        <ele>305.06</ele>
        <time>2017-02-25T15:40:23Z</time>
      </trkpt>
      <trkpt lat="45.20424" lon="5.06243">
        <ele>304.18</ele>
        <time>2017-02-25T15:40:24Z</time>
      </trkpt>
      <trkpt lat="45.20422" lon="5.06257">
        <ele>302.81</ele>
        <time>2017-02-25T15:40:25Z</time>
      </trkpt>
      <trkpt lat="45.20419" lon="5.06272">
        <ele>301.42</ele>
        <time>2017-02-25T15:40:26Z</time>
      </trkpt>
      <trkpt lat="45.20416" lon="5.06288">
        <ele>300.02</ele>
        <time>2017-02-25T15:40:27Z</time>
      </trkpt>
      <trkpt lat="45.20414" lon="5.06303">
        <ele>298.62</ele>
        <time>2017-02-25T15:40:28Z</time>
      </trkpt>
      <trkpt lat="45.20412" lon="5.06317">
        <ele>297.3</ele>
        <time>2017-02-25T15:40:29Z</time>
      </trkpt>
      <trkpt lat="45.20411" lon="5.06332">
        <ele>296.15</ele>
        <time>2017-02-25T15:40:30Z</time>
      </trkpt>
      <trkpt lat="45.20411" lon="5.06346">
        <ele>294.96</ele>
        <time>2017-02-25T15:40:31Z</time>
      </trkpt>
      <trkpt lat="45.2041" lon="5.06359">
        <ele>293.77</ele>
        <time>2017-02-25T15:40:32Z</time>
      </trkpt>
      <trkpt lat="45.20408" lon="5.06371">
        <ele>292.41</ele>
        <time>2017-02-25T15:40:33Z</time>
      </trkpt>
      <trkpt lat="45.20406" lon="5.06383">
        <ele>291.41</ele>
        <time>2017-02-25T15:40:34Z</time>
      </trkpt>
      <trkpt lat="45.20403" lon="5.06395">
        <ele>290.34</ele>
        <time>2017-02-25T15:40:35Z</time>
      </trkpt>
      <trkpt lat="45.204" lon="5.06407">
        <ele>289.56</ele>
        <time>2017-02-25T15:40:36Z</time>
      </trkpt>
      <trkpt lat="45.20398" lon="5.06418">
        <ele>289.17</ele>
        <time>2017-02-25T15:40:37Z</time>
      </trkpt>
      <trkpt lat="45.20395" lon="5.06429">
        <ele>288.69</ele>
        <time>2017-02-25T15:40:38Z</time>
      </trkpt>
      <trkpt lat="45.20393" lon="5.06439">
        <ele>287.79</ele>
        <time>2017-02-25T15:40:39Z</time>
      </trkpt>
      <trkpt lat="45.2039" lon="5.06448">
        <ele>286.97</ele>
        <time>2017-02-25T15:40:40Z</time>
      </trkpt>
      <trkpt lat="45.20388" lon="5.06455">
        <ele>286.25</ele>
        <time>2017-02-25T15:40:41Z</time>
      </trkpt>
      <trkpt lat="45.20387" lon="5.06461">
        <ele>285.38</ele>
        <time>2017-02-25T15:40:42Z</time>
      </trkpt>
      <trkpt lat="45.20387" lon="5.06464">
        <ele>284.81</ele>
        <time>2017-02-25T15:40:43Z</time>
      </trkpt>
      <trkpt lat="45.20387" lon="5.06465">
        <ele>284.14</ele>
        <time>2017-02-25T15:40:44Z</time>
      </trkpt>
      <trkpt lat="45.20387" lon="5.06465">
        <ele>283.52</ele>
        <time>2017-02-25T15:40:45Z</time>
      </trkpt>
      <trkpt lat="45.20388" lon="5.06465">
        <ele>282.84</ele>
        <time>2017-02-25T15:40:46Z</time>
      </trkpt>
      <trkpt lat="45.20388" lon="5.06465">
        <ele>282.7</ele>
        <time>2017-02-25T15:40:47Z</time>
      </trkpt>
      <trkpt lat="45.20388" lon="5.06465">
        <ele>282.67</ele>
        <time>2017-02-25T15:40:48Z</time>
      </trkpt>
      <trkpt lat="45.20388" lon="5.06465">
        <ele>282.67</ele>
        <time>2017-02-25T15:40:49Z</time>
      </trkpt>
      <trkpt lat="45.20389" lon="5.06467">
        <ele>282.99</ele>
        <time>2017-02-25T15:40:50Z</time>
      </trkpt>
      <trkpt lat="45.20391" lon="5.06469">
        <ele>282.97</ele>
        <time>2017-02-25T15:40:51Z</time>
      </trkpt>
      <trkpt lat="45.20394" lon="5.06473">
        <ele>283.05</ele>
        <time>2017-02-25T15:40:52Z</time>
      </trkpt>
      <trkpt lat="45.20399" lon="5.06477">
        <ele>283.14</ele>
        <time>2017-02-25T15:40:53Z</time>
      </trkpt>
      <trkpt lat="45.20405" lon="5.06482">
        <ele>283.32</ele>
        <time>2017-02-25T15:40:54Z</time>
      </trkpt>
      <trkpt lat="45.20411" lon="5.06489">
        <ele>283.28</ele>
        <time>2017-02-25T15:40:55Z</time>
      </trkpt>
      <trkpt lat="45.20417" lon="5.06497">
        <ele>283.27</ele>
        <time>2017-02-25T15:40:56Z</time>
      </trkpt>
      <trkpt lat="45.20424" lon="5.06504">
        <ele>283.27</ele>
        <time>2017-02-25T15:40:57Z</time>
      </trkpt>
      <trkpt lat="45.20431" lon="5.06511">
        <ele>283.35</ele>
        <time>2017-02-25T15:40:58Z</time>
      </trkpt>
      <trkpt lat="45.20437" lon="5.06519">
        <ele>283.2</ele>
        <time>2017-02-25T15:40:59Z</time>
      </trkpt>
      <trkpt lat="45.20444" lon="5.06527">
        <ele>283.09</ele>
        <time>2017-02-25T15:41:00Z</time>
      </trkpt>
      <trkpt lat="45.2045" lon="5.06535">
        <ele>282.99</ele>
        <time>2017-02-25T15:41:01Z</time>
      </trkpt>
      <trkpt lat="45.20457" lon="5.06544">
        <ele>282.81</ele>
        <time>2017-02-25T15:41:02Z</time>
      </trkpt>
      <trkpt lat="45.20464" lon="5.06554">
        <ele>282.62</ele>
        <time>2017-02-25T15:41:03Z</time>
      </trkpt>
      <trkpt lat="45.20471" lon="5.06563">
        <ele>282.5</ele>
        <time>2017-02-25T15:41:04Z</time>
      </trkpt>
      <trkpt lat="45.20478" lon="5.06572">
        <ele>282.39</ele>
        <time>2017-02-25T15:41:05Z</time>
      </trkpt>
      <trkpt lat="45.20484" lon="5.06581">
        <ele>282.29</ele>
        <time>2017-02-25T15:41:06Z</time>
      </trkpt>
      <trkpt lat="45.20491" lon="5.0659">
        <ele>282.19</ele>
        <time>2017-02-25T15:41:07Z</time>
      </trkpt>
      <trkpt lat="45.20497" lon="5.066">
        <ele>282.25</ele>
        <time>2017-02-25T15:41:08Z</time>
      </trkpt>
      <trkpt lat="45.20503" lon="5.06611">
        <ele>282.42</ele>
        <time>2017-02-25T15:41:09Z</time>
      </trkpt>
      <trkpt lat="45.2051" lon="5.06621">
        <ele>282.38</ele>
        <time>2017-02-25T15:41:10Z</time>
      </trkpt>
      <trkpt lat="45.20517" lon="5.0663">
        <ele>282.37</ele>
        <time>2017-02-25T15:41:11Z</time>
      </trkpt>
      <trkpt lat="45.20523" lon="5.06641">
        <ele>282.45</ele>
        <time>2017-02-25T15:41:12Z</time>
      </trkpt>
      <trkpt lat="45.2053" lon="5.06651">
        <ele>282.54</ele>
        <time>2017-02-25T15:41:13Z</time>
      </trkpt>
      <trkpt lat="45.20537" lon="5.06662">
        <ele>282.72</ele>
        <time>2017-02-25T15:41:14Z</time>
      </trkpt>
      <trkpt lat="45.20545" lon="5.06673">
        <ele>282.92</ele>
        <time>2017-02-25T15:41:15Z</time>
      </trkpt>
      <trkpt lat="45.20552" lon="5.06685">
        <ele>283.04</ele>
        <time>2017-02-25T15:41:16Z</time>
      </trkpt>
      <trkpt lat="45.20561" lon="5.06696">
        <ele>282.9</ele>
        <time>2017-02-25T15:41:17Z</time>
      </trkpt>
      <trkpt lat="45.20569" lon="5.06708">
        <ele>282.79</ele>
        <time>2017-02-25T15:41:18Z</time>
      </trkpt>
      <trkpt lat="45.20576" lon="5.06719">
        <ele>282.69</ele>
        <time>2017-02-25T15:41:19Z</time>
      </trkpt>
      <trkpt lat="45.20584" lon="5.06731">
        <ele>282.59</ele>
        <time>2017-02-25T15:41:20Z</time>
      </trkpt>
      <trkpt lat="45.20592" lon="5.06743">
        <ele>282.57</ele>
        <time>2017-02-25T15:41:21Z</time>
      </trkpt>
      <trkpt lat="45.206" lon="5.06755">
        <ele>282.73</ele>
        <time>2017-02-25T15:41:22Z</time>
      </trkpt>
      <trkpt lat="45.20608" lon="5.06767">
        <ele>282.76</ele>
        <time>2017-02-25T15:41:23Z</time>
      </trkpt>
      <trkpt lat="45.20615" lon="5.06779">
        <ele>283.01</ele>
        <time>2017-02-25T15:41:24Z</time>
      </trkpt>
      <trkpt lat="45.20623" lon="5.06791">
        <ele>283.13</ele>
        <time>2017-02-25T15:41:25Z</time>
      </trkpt>
      <trkpt lat="45.2063" lon="5.06803">
        <ele>283.16</ele>
        <time>2017-02-25T15:41:26Z</time>
      </trkpt>
      <trkpt lat="45.20637" lon="5.06816">
        <ele>282.77</ele>
        <time>2017-02-25T15:41:27Z</time>
      </trkpt>
      <trkpt lat="45.20644" lon="5.06829">
        <ele>282.93</ele>
        <time>2017-02-25T15:41:28Z</time>
      </trkpt>
      <trkpt lat="45.2065" lon="5.06842">
        <ele>283.36</ele>
        <time>2017-02-25T15:41:29Z</time>
      </trkpt>
      <trkpt lat="45.20655" lon="5.06855">
        <ele>283.53</ele>
        <time>2017-02-25T15:41:30Z</time>
      </trkpt>
      <trkpt lat="45.2066" lon="5.06869">
        <ele>283.8</ele>
        <time>2017-02-25T15:41:31Z</time>
      </trkpt>
      <trkpt lat="45.20666" lon="5.06882">
        <ele>283.69</ele>
        <time>2017-02-25T15:41:32Z</time>
      </trkpt>
      <trkpt lat="45.20671" lon="5.06894">
        <ele>284.07</ele>
        <time>2017-02-25T15:41:33Z</time>
      </trkpt>
      <trkpt lat="45.20677" lon="5.06906">
        <ele>284.07</ele>
        <time>2017-02-25T15:41:34Z</time>
      </trkpt>
      <trkpt lat="45.20683" lon="5.06916">
        <ele>284.23</ele>
        <time>2017-02-25T15:41:35Z</time>
      </trkpt>
      <trkpt lat="45.20688" lon="5.06925">
        <ele>284.1</ele>
        <time>2017-02-25T15:41:36Z</time>
      </trkpt>
      <trkpt lat="45.20691" lon="5.06931">
        <ele>283.67</ele>
        <time>2017-02-25T15:41:37Z</time>
      </trkpt>
      <trkpt lat="45.20692" lon="5.06934">
        <ele>283.67</ele>
        <time>2017-02-25T15:41:38Z</time>
      </trkpt>
      <trkpt lat="45.20693" lon="5.06935">
        <ele>283.75</ele>
        <time>2017-02-25T15:41:39Z</time>
      </trkpt>
      <trkpt lat="45.20692" lon="5.06935">
        <ele>283.68</ele>
        <time>2017-02-25T15:41:40Z</time>
      </trkpt>
      <trkpt lat="45.20692" lon="5.06935">
        <ele>283.67</ele>
        <time>2017-02-25T15:41:41Z</time>
      </trkpt>
      <trkpt lat="45.20692" lon="5.06935">
        <ele>283.67</ele>
        <time>2017-02-25T15:41:42Z</time>
      </trkpt>
      <trkpt lat="45.20692" lon="5.06935">
        <ele>283.67</ele>
        <time>2017-02-25T15:41:43Z</time>
      </trkpt>
      <trkpt lat="45.20692" lon="5.06935">
        <ele>283.67</ele>
        <time>2017-02-25T15:41:44Z</time>
      </trkpt>
      <trkpt lat="45.20692" lon="5.06935">
        <ele>283.67</ele>
        <time>2017-02-25T15:41:45Z</time>
      </trkpt>
      <trkpt lat="45.20692" lon="5.06935">
        <ele>283.67</ele>
        <time>2017-02-25T15:41:46Z</time>
      </trkpt>
      <trkpt lat="45.20692" lon="5.06935">
        <ele>283.67</ele>
        <time>2017-02-25T15:41:47Z</time>
      </trkpt>
      <trkpt lat="45.20692" lon="5.06935">
        <ele>283.67</ele>
        <time>2017-02-25T15:41:48Z</time>
      </trkpt>
      <trkpt lat="45.20692" lon="5.06935">
        <ele>283.67</ele>
        <time>2017-02-25T15:41:49Z</time>
      </trkpt>
      <trkpt lat="45.20692" lon="5.06935">
        <ele>283.67</ele>
        <time>2017-02-25T15:41:50Z</time>
      </trkpt>
      <trkpt lat="45.20692" lon="5.06935">
        <ele>283.67</ele>
        <time>2017-02-25T15:41:51Z</time>
      </trkpt>
      <trkpt lat="45.20692" lon="5.06935">
        <ele>283.67</ele>
        <time>2017-02-25T15:41:52Z</time>
      </trkpt>
      <trkpt lat="45.20692" lon="5.06935">
        <ele>283.67</ele>
        <time>2017-02-25T15:41:53Z</time>
      </trkpt>
      <trkpt lat="45.20692" lon="5.06935">
        <ele>283.67</ele>
        <time>2017-02-25T15:41:54Z</time>
      </trkpt>
      <trkpt lat="45.20692" lon="5.06935">
        <ele>283.67</ele>
        <time>2017-02-25T15:41:55Z</time>
      </trkpt>
      <trkpt lat="45.20692" lon="5.06935">
        <ele>283.67</ele>
        <time>2017-02-25T15:41:56Z</time>
      </trkpt>
      <trkpt lat="45.20692" lon="5.06935">
        <ele>283.67</ele>
        <time>2017-02-25T15:41:57Z</time>
      </trkpt>
      <trkpt lat="45.20692" lon="5.06935">
        <ele>283.67</ele>
        <time>2017-02-25T15:41:58Z</time>
      </trkpt>
      <trkpt lat="45.20692" lon="5.06935">
        <ele>283.67</ele>
        <time>2017-02-25T15:41:59Z</time>
      </trkpt>
      <trkpt lat="45.20692" lon="5.06935">
        <ele>283.67</ele>
        <time>2017-02-25T15:42:00Z</time>
      </trkpt>
      <trkpt lat="45.20692" lon="5.06935">
        <ele>283.67</ele>
        <time>2017-02-25T15:42:01Z</time>
      </trkpt>
      <trkpt lat="45.20692" lon="5.06935">
        <ele>283.67</ele>
        <time>2017-02-25T15:42:02Z</time>
      </trkpt>
      <trkpt lat="45.20692" lon="5.06935">
        <ele>283.67</ele>
        <time>2017-02-25T15:42:03Z</time>
      </trkpt>
      <trkpt lat="45.20692" lon="5.06935">
        <ele>283.67</ele>
        <time>2017-02-25T15:42:04Z</time>
      </trkpt>
      <trkpt lat="45.20692" lon="5.06935">
        <ele>283.67</ele>
        <time>2017-02-25T15:42:05Z</time>
      </trkpt>
      <trkpt lat="45.20699" lon="5.06943">
        <ele>283.75</ele>
        <time>2017-02-25T15:42:06Z</time>
      </trkpt>
      <trkpt lat="45.20704" lon="5.06949">
        <ele>283.76</ele>
        <time>2017-02-25T15:42:07Z</time>
      </trkpt>
      <trkpt lat="45.20711" lon="5.06955">
        <ele>283.85</ele>
        <time>2017-02-25T15:42:08Z</time>
      </trkpt>
      <trkpt lat="45.20719" lon="5.06963">
        <ele>283.94</ele>
        <time>2017-02-25T15:42:09Z</time>
      </trkpt>
      <trkpt lat="45.20727" lon="5.06972">
        <ele>283.96</ele>
        <time>2017-02-25T15:42:10Z</time>
      </trkpt>
      <trkpt lat="45.20737" lon="5.06983">
        <ele>284.05</ele>
        <time>2017-02-25T15:42:11Z</time>
      </trkpt>
      <trkpt lat="45.20747" lon="5.06994">
        <ele>284.3</ele>
        <time>2017-02-25T15:42:12Z</time>
      </trkpt>
      <trkpt lat="45.20759" lon="5.07007">
        <ele>284.59</ele>
        <time>2017-02-25T15:42:13Z</time>
      </trkpt>
      <trkpt lat="45.20771" lon="5.07019">
        <ele>285.13</ele>
        <time>2017-02-25T15:42:14Z</time>
      </trkpt>
      <trkpt lat="45.20784" lon="5.07033">
        <ele>285.48</ele>
        <time>2017-02-25T15:42:15Z</time>
      </trkpt>
      <trkpt lat="45.20797" lon="5.07045">
        <ele>285.79</ele>
        <time>2017-02-25T15:42:16Z</time>
      </trkpt>
      <trkpt lat="45.20811" lon="5.07056">
        <ele>286.09</ele>
        <time>2017-02-25T15:42:17Z</time>
      </trkpt>
      <trkpt lat="45.20826" lon="5.07067">
        <ele>286.39</ele>
        <time>2017-02-25T15:42:18Z</time>
      </trkpt>
      <trkpt lat="45.2084" lon="5.07077">
        <ele>286.69</ele>
        <time>2017-02-25T15:42:19Z</time>
      </trkpt>
      <trkpt lat="45.20855" lon="5.07088">
        <ele>286.91</ele>
        <time>2017-02-25T15:42:20Z</time>
      </trkpt>
      <trkpt lat="45.20869" lon="5.07099">
        <ele>287.12</ele>
        <time>2017-02-25T15:42:21Z</time>
      </trkpt>
      <trkpt lat="45.20883" lon="5.07109">
        <ele>287.4</ele>
        <time>2017-02-25T15:42:22Z</time>
      </trkpt>
      <trkpt lat="45.20897" lon="5.07119">
        <ele>287.13</ele>
        <time>2017-02-25T15:42:23Z</time>
      </trkpt>
      <trkpt lat="45.2091" lon="5.07129">
        <ele>287.16</ele>
        <time>2017-02-25T15:42:24Z</time>
      </trkpt>
      <trkpt lat="45.20922" lon="5.07137">
        <ele>287.49</ele>
        <time>2017-02-25T15:42:25Z</time>
      </trkpt>
      <trkpt lat="45.20933" lon="5.07144">
        <ele>287.47</ele>
        <time>2017-02-25T15:42:26Z</time>
      </trkpt>
      <trkpt lat="45.20945" lon="5.07151">
        <ele>287.23</ele>
        <time>2017-02-25T15:42:27Z</time>
      </trkpt>
      <trkpt lat="45.20956" lon="5.07157">
        <ele>287.5</ele>
        <time>2017-02-25T15:42:28Z</time>
      </trkpt>
      <trkpt lat="45.20968" lon="5.07162">
        <ele>287.63</ele>
        <time>2017-02-25T15:42:29Z</time>
      </trkpt>
      <trkpt lat="45.2098" lon="5.07166">
        <ele>287.74</ele>
        <time>2017-02-25T15:42:30Z</time>
      </trkpt>
      <trkpt lat="45.20992" lon="5.07169">
        <ele>288</ele>
        <time>2017-02-25T15:42:31Z</time>
      </trkpt>
      <trkpt lat="45.21003" lon="5.07173">
        <ele>288.13</ele>
        <time>2017-02-25T15:42:32Z</time>
      </trkpt>
      <trkpt lat="45.21014" lon="5.07176">
        <ele>288.48</ele>
        <time>2017-02-25T15:42:33Z</time>
      </trkpt>
      <trkpt lat="45.21025" lon="5.0718">
        <ele>288.71</ele>
        <time>2017-02-25T15:42:34Z</time>
      </trkpt>
      <trkpt lat="45.21035" lon="5.07183">
        <ele>288.84</ele>
        <time>2017-02-25T15:42:35Z</time>
      </trkpt>
      <trkpt lat="45.21046" lon="5.07186">
        <ele>288.94</ele>
        <time>2017-02-25T15:42:36Z</time>
      </trkpt>
      <trkpt lat="45.21058" lon="5.07189">
        <ele>289.2</ele>
        <time>2017-02-25T15:42:37Z</time>
      </trkpt>
      <trkpt lat="45.2107" lon="5.07192">
        <ele>289.17</ele>
        <time>2017-02-25T15:42:38Z</time>
      </trkpt>
      <trkpt lat="45.21084" lon="5.07196">
        <ele>289.17</ele>
        <time>2017-02-25T15:42:39Z</time>
      </trkpt>
      <trkpt lat="45.21098" lon="5.07201">
        <ele>289.65</ele>
        <time>2017-02-25T15:42:40Z</time>
      </trkpt>
      <trkpt lat="45.21114" lon="5.07208">
        <ele>289.98</ele>
        <time>2017-02-25T15:42:41Z</time>
      </trkpt>
      <trkpt lat="45.2113" lon="5.07217">
        <ele>290.29</ele>
        <time>2017-02-25T15:42:42Z</time>
      </trkpt>
      <trkpt lat="45.21147" lon="5.07227">
        <ele>290.83</ele>
        <time>2017-02-25T15:42:43Z</time>
      </trkpt>
      <trkpt lat="45.21162" lon="5.07237">
        <ele>291.02</ele>
        <time>2017-02-25T15:42:44Z</time>
      </trkpt>
      <trkpt lat="45.21178" lon="5.07245">
        <ele>291.38</ele>
        <time>2017-02-25T15:42:45Z</time>
      </trkpt>
      <trkpt lat="45.21192" lon="5.07252">
        <ele>291.93</ele>
        <time>2017-02-25T15:42:46Z</time>
      </trkpt>
      <trkpt lat="45.21205" lon="5.0726">
        <ele>292.28</ele>
        <time>2017-02-25T15:42:47Z</time>
      </trkpt>
      <trkpt lat="45.21219" lon="5.07268">
        <ele>292.67</ele>
        <time>2017-02-25T15:42:48Z</time>
      </trkpt>
      <trkpt lat="45.21234" lon="5.07278">
        <ele>293.15</ele>
        <time>2017-02-25T15:42:49Z</time>
      </trkpt>
      <trkpt lat="45.21248" lon="5.07291">
        <ele>293.72</ele>
        <time>2017-02-25T15:42:50Z</time>
      </trkpt>
      <trkpt lat="45.21263" lon="5.07305">
        <ele>294.24</ele>
        <time>2017-02-25T15:42:51Z</time>
      </trkpt>
      <trkpt lat="45.21278" lon="5.07321">
        <ele>294.82</ele>
        <time>2017-02-25T15:42:52Z</time>
      </trkpt>
      <trkpt lat="45.21294" lon="5.07336">
        <ele>295.42</ele>
        <time>2017-02-25T15:42:53Z</time>
      </trkpt>
      <trkpt lat="45.2131" lon="5.0735">
        <ele>296.1</ele>
        <time>2017-02-25T15:42:54Z</time>
      </trkpt>
      <trkpt lat="45.21328" lon="5.07362">
        <ele>296.95</ele>
        <time>2017-02-25T15:42:55Z</time>
      </trkpt>
      <trkpt lat="45.21347" lon="5.07371">
        <ele>297.52</ele>
        <time>2017-02-25T15:42:56Z</time>
      </trkpt>
      <trkpt lat="45.21366" lon="5.07381">
        <ele>298.12</ele>
        <time>2017-02-25T15:42:57Z</time>
      </trkpt>
      <trkpt lat="45.21385" lon="5.0739">
        <ele>298.8</ele>
        <time>2017-02-25T15:42:58Z</time>
      </trkpt>
      <trkpt lat="45.21405" lon="5.07401">
        <ele>299.09</ele>
        <time>2017-02-25T15:42:59Z</time>
      </trkpt>
      <trkpt lat="45.21425" lon="5.07411">
        <ele>299.23</ele>
        <time>2017-02-25T15:43:00Z</time>
      </trkpt>
      <trkpt lat="45.21445" lon="5.0742">
        <ele>299.58</ele>
        <time>2017-02-25T15:43:01Z</time>
      </trkpt>
      <trkpt lat="45.21465" lon="5.0743">
        <ele>299.81</ele>
        <time>2017-02-25T15:43:02Z</time>
      </trkpt>
      <trkpt lat="45.21486" lon="5.07439">
        <ele>300.18</ele>
        <time>2017-02-25T15:43:03Z</time>
      </trkpt>
      <trkpt lat="45.21506" lon="5.07449">
        <ele>300.17</ele>
        <time>2017-02-25T15:43:04Z</time>
      </trkpt>
      <trkpt lat="45.21526" lon="5.07459">
        <ele>300.09</ele>
        <time>2017-02-25T15:43:05Z</time>
      </trkpt>
      <trkpt lat="45.21546" lon="5.07469">
        <ele>300.39</ele>
        <time>2017-02-25T15:43:06Z</time>
      </trkpt>
      <trkpt lat="45.21565" lon="5.07478">
        <ele>300.85</ele>
        <time>2017-02-25T15:43:07Z</time>
      </trkpt>
      <trkpt lat="45.21584" lon="5.07487">
        <ele>301.18</ele>
        <time>2017-02-25T15:43:08Z</time>
      </trkpt>
      <trkpt lat="45.21602" lon="5.07496">
        <ele>301.89</ele>
        <time>2017-02-25T15:43:09Z</time>
      </trkpt>
      <trkpt lat="45.21619" lon="5.07504">
        <ele>302.11</ele>
        <time>2017-02-25T15:43:10Z</time>
      </trkpt>
      <trkpt lat="45.21634" lon="5.07511">
        <ele>302.16</ele>
        <time>2017-02-25T15:43:11Z</time>
      </trkpt>
      <trkpt lat="45.21648" lon="5.07517">
        <ele>302.4</ele>
        <time>2017-02-25T15:43:12Z</time>
      </trkpt>
      <trkpt lat="45.21658" lon="5.07522">
        <ele>302.45</ele>
        <time>2017-02-25T15:43:13Z</time>
      </trkpt>
      <trkpt lat="45.21667" lon="5.07527">
        <ele>302.7</ele>
        <time>2017-02-25T15:43:14Z</time>
      </trkpt>
      <trkpt lat="45.21672" lon="5.07534">
        <ele>303.31</ele>
        <time>2017-02-25T15:43:15Z</time>
      </trkpt>
      <trkpt lat="45.21675" lon="5.07541">
        <ele>303.6</ele>
        <time>2017-02-25T15:43:16Z</time>
      </trkpt>
      <trkpt lat="45.21676" lon="5.0755">
        <ele>303.73</ele>
        <time>2017-02-25T15:43:17Z</time>
      </trkpt>
      <trkpt lat="45.21674" lon="5.0756">
        <ele>303.84</ele>
        <time>2017-02-25T15:43:18Z</time>
      </trkpt>
      <trkpt lat="45.2167" lon="5.07572">
        <ele>304.1</ele>
        <time>2017-02-25T15:43:19Z</time>
      </trkpt>
      <trkpt lat="45.21663" lon="5.07585">
        <ele>304.23</ele>
        <time>2017-02-25T15:43:20Z</time>
      </trkpt>
      <trkpt lat="45.21659" lon="5.07599">
        <ele>304.1</ele>
        <time>2017-02-25T15:43:21Z</time>
      </trkpt>
      <trkpt lat="45.21654" lon="5.07613">
        <ele>303.35</ele>
        <time>2017-02-25T15:43:22Z</time>
      </trkpt>
      <trkpt lat="45.21651" lon="5.07629">
        <ele>302.88</ele>
        <time>2017-02-25T15:43:23Z</time>
      </trkpt>
      <trkpt lat="45.21651" lon="5.07645">
        <ele>302.63</ele>
        <time>2017-02-25T15:43:24Z</time>
      </trkpt>
      <trkpt lat="45.21653" lon="5.07662">
        <ele>302.34</ele>
        <time>2017-02-25T15:43:25Z</time>
      </trkpt>
      <trkpt lat="45.21657" lon="5.07679">
        <ele>301.8</ele>
        <time>2017-02-25T15:43:26Z</time>
      </trkpt>
      <trkpt lat="45.21664" lon="5.07697">
        <ele>301.21</ele>
        <time>2017-02-25T15:43:27Z</time>
      </trkpt>
      <trkpt lat="45.21671" lon="5.07715">
        <ele>300.94</ele>
        <time>2017-02-25T15:43:28Z</time>
      </trkpt>
      <trkpt lat="45.21678" lon="5.07732">
        <ele>300.96</ele>
        <time>2017-02-25T15:43:29Z</time>
      </trkpt>
      <trkpt lat="45.21685" lon="5.07749">
        <ele>300.89</ele>
        <time>2017-02-25T15:43:30Z</time>
      </trkpt>
      <trkpt lat="45.21692" lon="5.07764">
        <ele>300.79</ele>
        <time>2017-02-25T15:43:31Z</time>
      </trkpt>
      <trkpt lat="45.21698" lon="5.07779">
        <ele>300.85</ele>
        <time>2017-02-25T15:43:32Z</time>
      </trkpt>
      <trkpt lat="45.21703" lon="5.07793">
        <ele>300.94</ele>
        <time>2017-02-25T15:43:33Z</time>
      </trkpt>
      <trkpt lat="45.21708" lon="5.07806">
        <ele>301.2</ele>
        <time>2017-02-25T15:43:34Z</time>
      </trkpt>
      <trkpt lat="45.21712" lon="5.07819">
        <ele>301.33</ele>
        <time>2017-02-25T15:43:35Z</time>
      </trkpt>
      <trkpt lat="45.21716" lon="5.07831">
        <ele>301.76</ele>
        <time>2017-02-25T15:43:36Z</time>
      </trkpt>
      <trkpt lat="45.2172" lon="5.07843">
        <ele>302.09</ele>
        <time>2017-02-25T15:43:37Z</time>
      </trkpt>
      <trkpt lat="45.21724" lon="5.07855">
        <ele>302.55</ele>
        <time>2017-02-25T15:43:38Z</time>
      </trkpt>
      <trkpt lat="45.21728" lon="5.07867">
        <ele>302.88</ele>
        <time>2017-02-25T15:43:39Z</time>
      </trkpt>
      <trkpt lat="45.21731" lon="5.07879">
        <ele>302.87</ele>
        <time>2017-02-25T15:43:40Z</time>
      </trkpt>
      <trkpt lat="45.21735" lon="5.07891">
        <ele>303.19</ele>
        <time>2017-02-25T15:43:41Z</time>
      </trkpt>
      <trkpt lat="45.21739" lon="5.07903">
        <ele>303.73</ele>
        <time>2017-02-25T15:43:42Z</time>
      </trkpt>
      <trkpt lat="45.21742" lon="5.07915">
        <ele>304</ele>
        <time>2017-02-25T15:43:43Z</time>
      </trkpt>
      <trkpt lat="45.21746" lon="5.07927">
        <ele>304.29</ele>
        <time>2017-02-25T15:43:44Z</time>
      </trkpt>
      <trkpt lat="45.2175" lon="5.07939">
        <ele>304.51</ele>
        <time>2017-02-25T15:43:45Z</time>
      </trkpt>
      <trkpt lat="45.21754" lon="5.07951">
        <ele>305.04</ele>
        <time>2017-02-25T15:43:46Z</time>
      </trkpt>
      <trkpt lat="45.21757" lon="5.07963">
        <ele>305.38</ele>
        <time>2017-02-25T15:43:47Z</time>
      </trkpt>
      <trkpt lat="45.21761" lon="5.07975">
        <ele>305.69</ele>
        <time>2017-02-25T15:43:48Z</time>
      </trkpt>
      <trkpt lat="45.21766" lon="5.07988">
        <ele>306.39</ele>
        <time>2017-02-25T15:43:49Z</time>
      </trkpt>
      <trkpt lat="45.2177" lon="5.08002">
        <ele>306.77</ele>
        <time>2017-02-25T15:43:50Z</time>
      </trkpt>
      <trkpt lat="45.21775" lon="5.08017">
        <ele>306.85</ele>
        <time>2017-02-25T15:43:51Z</time>
      </trkpt>
      <trkpt lat="45.21781" lon="5.08033">
        <ele>306.94</ele>
        <time>2017-02-25T15:43:52Z</time>
      </trkpt>
      <trkpt lat="45.21786" lon="5.08049">
        <ele>307.2</ele>
        <time>2017-02-25T15:43:53Z</time>
      </trkpt>
      <trkpt lat="45.21791" lon="5.08066">
        <ele>307.25</ele>
        <time>2017-02-25T15:43:54Z</time>
      </trkpt>
      <trkpt lat="45.21797" lon="5.08083">
        <ele>307.34</ele>
        <time>2017-02-25T15:43:55Z</time>
      </trkpt>
      <trkpt lat="45.21803" lon="5.08101">
        <ele>307.68</ele>
        <time>2017-02-25T15:43:56Z</time>
      </trkpt>
      <trkpt lat="45.21808" lon="5.08119">
        <ele>307.99</ele>
        <time>2017-02-25T15:43:57Z</time>
      </trkpt>
      <trkpt lat="45.21813" lon="5.08135">
        <ele>308.69</ele>
        <time>2017-02-25T15:43:58Z</time>
      </trkpt>
      <trkpt lat="45.21818" lon="5.08151">
        <ele>309.39</ele>
        <time>2017-02-25T15:43:59Z</time>
      </trkpt>
      <trkpt lat="45.21824" lon="5.08169">
        <ele>310.01</ele>
        <time>2017-02-25T15:44:00Z</time>
      </trkpt>
      <trkpt lat="45.21829" lon="5.0819">
        <ele>310.54</ele>
        <time>2017-02-25T15:44:01Z</time>
      </trkpt>
      <trkpt lat="45.21835" lon="5.08214">
        <ele>310.88</ele>
        <time>2017-02-25T15:44:02Z</time>
      </trkpt>
      <trkpt lat="45.2184" lon="5.0824">
        <ele>311.35</ele>
        <time>2017-02-25T15:44:03Z</time>
      </trkpt>
      <trkpt lat="45.21843" lon="5.08267">
        <ele>311.68</ele>
        <time>2017-02-25T15:44:04Z</time>
      </trkpt>
      <trkpt lat="45.21845" lon="5.08295">
        <ele>311.99</ele>
        <time>2017-02-25T15:44:05Z</time>
      </trkpt>
      <trkpt lat="45.21845" lon="5.08325">
        <ele>312.45</ele>
        <time>2017-02-25T15:44:06Z</time>
      </trkpt>
      <trkpt lat="45.21843" lon="5.08356">
        <ele>313.1</ele>
        <time>2017-02-25T15:44:07Z</time>
      </trkpt>
      <trkpt lat="45.2184" lon="5.08387">
        <ele>313.79</ele>
        <time>2017-02-25T15:44:08Z</time>
      </trkpt>
      <trkpt lat="45.21836" lon="5.08419">
        <ele>314.33</ele>
        <time>2017-02-25T15:44:09Z</time>
      </trkpt>
      <trkpt lat="45.21833" lon="5.08453">
        <ele>314.68</ele>
        <time>2017-02-25T15:44:10Z</time>
      </trkpt>
      <trkpt lat="45.2183" lon="5.08486">
        <ele>314.99</ele>
        <time>2017-02-25T15:44:11Z</time>
      </trkpt>
      <trkpt lat="45.21826" lon="5.08518">
        <ele>315.37</ele>
        <time>2017-02-25T15:44:12Z</time>
      </trkpt>
      <trkpt lat="45.21823" lon="5.08551">
        <ele>316.17</ele>
        <time>2017-02-25T15:44:13Z</time>
      </trkpt>
      <trkpt lat="45.2182" lon="5.08582">
        <ele>317.13</ele>
        <time>2017-02-25T15:44:14Z</time>
      </trkpt>
      <trkpt lat="45.21817" lon="5.08613">
        <ele>318.36</ele>
        <time>2017-02-25T15:44:15Z</time>
      </trkpt>
      <trkpt lat="45.21814" lon="5.08643">
        <ele>319.49</ele>
        <time>2017-02-25T15:44:16Z</time>
      </trkpt>
      <trkpt lat="45.21811" lon="5.08672">
        <ele>320.51</ele>
        <time>2017-02-25T15:44:17Z</time>
      </trkpt>
      <trkpt lat="45.21808" lon="5.087">
        <ele>321.6</ele>
        <time>2017-02-25T15:44:18Z</time>
      </trkpt>
      <trkpt lat="45.21806" lon="5.08726">
        <ele>322.69</ele>
        <time>2017-02-25T15:44:19Z</time>
      </trkpt>
      <trkpt lat="45.21803" lon="5.08749">
        <ele>323.71</ele>
        <time>2017-02-25T15:44:20Z</time>
      </trkpt>
      <trkpt lat="45.21801" lon="5.0877">
        <ele>324.8</ele>
        <time>2017-02-25T15:44:21Z</time>
      </trkpt>
      <trkpt lat="45.21799" lon="5.0879">
        <ele>325.57</ele>
        <time>2017-02-25T15:44:22Z</time>
      </trkpt>
      <trkpt lat="45.21797" lon="5.0881">
        <ele>326.05</ele>
        <time>2017-02-25T15:44:23Z</time>
      </trkpt>
      <trkpt lat="45.21797" lon="5.08831">
        <ele>326.46</ele>
        <time>2017-02-25T15:44:24Z</time>
      </trkpt>
      <trkpt lat="45.21798" lon="5.08852">
        <ele>326.31</ele>
        <time>2017-02-25T15:44:25Z</time>
      </trkpt>
      <trkpt lat="45.21801" lon="5.08874">
        <ele>326.11</ele>
        <time>2017-02-25T15:44:26Z</time>
      </trkpt>
      <trkpt lat="45.21806" lon="5.08896">
        <ele>325.84</ele>
        <time>2017-02-25T15:44:27Z</time>
      </trkpt>
      <trkpt lat="45.21814" lon="5.08918">
        <ele>325.22</ele>
        <time>2017-02-25T15:44:28Z</time>
      </trkpt>
      <trkpt lat="45.21822" lon="5.08941">
        <ele>324.54</ele>
        <time>2017-02-25T15:44:29Z</time>
      </trkpt>
      <trkpt lat="45.2183" lon="5.08965">
        <ele>323.52</ele>
        <time>2017-02-25T15:44:30Z</time>
      </trkpt>
      <trkpt lat="45.21839" lon="5.08989">
        <ele>322.6</ele>
        <time>2017-02-25T15:44:31Z</time>
      </trkpt>
      <trkpt lat="45.21848" lon="5.09013">
        <ele>322.09</ele>
        <time>2017-02-25T15:44:32Z</time>
      </trkpt>
      <trkpt lat="45.21858" lon="5.09038">
        <ele>321.59</ele>
        <time>2017-02-25T15:44:33Z</time>
      </trkpt>
      <trkpt lat="45.21867" lon="5.09062">
        <ele>321.17</ele>
        <time>2017-02-25T15:44:34Z</time>
      </trkpt>
      <trkpt lat="45.21876" lon="5.09086">
        <ele>321.17</ele>
        <time>2017-02-25T15:44:35Z</time>
      </trkpt>
      <trkpt lat="45.21885" lon="5.09109">
        <ele>321.09</ele>
        <time>2017-02-25T15:44:36Z</time>
      </trkpt>
      <trkpt lat="45.21893" lon="5.0913">
        <ele>320.59</ele>
        <time>2017-02-25T15:44:37Z</time>
      </trkpt>
      <trkpt lat="45.21901" lon="5.0915">
        <ele>320.17</ele>
        <time>2017-02-25T15:44:38Z</time>
      </trkpt>
      <trkpt lat="45.21909" lon="5.09169">
        <ele>319.93</ele>
        <time>2017-02-25T15:44:39Z</time>
      </trkpt>
      <trkpt lat="45.21916" lon="5.09189">
        <ele>319.72</ele>
        <time>2017-02-25T15:44:40Z</time>
      </trkpt>
      <trkpt lat="45.21923" lon="5.0921">
        <ele>319.68</ele>
        <time>2017-02-25T15:44:41Z</time>
      </trkpt>
      <trkpt lat="45.21928" lon="5.09234">
        <ele>319.75</ele>
        <time>2017-02-25T15:44:42Z</time>
      </trkpt>
      <trkpt lat="45.21932" lon="5.09258">
        <ele>320.08</ele>
        <time>2017-02-25T15:44:43Z</time>
      </trkpt>
      <trkpt lat="45.21936" lon="5.09283">
        <ele>320.79</ele>
        <time>2017-02-25T15:44:44Z</time>
      </trkpt>
      <trkpt lat="45.21939" lon="5.09307">
        <ele>321.73</ele>
        <time>2017-02-25T15:44:45Z</time>
      </trkpt>
      <trkpt lat="45.21942" lon="5.09332">
        <ele>322.4</ele>
        <time>2017-02-25T15:44:46Z</time>
      </trkpt>
      <trkpt lat="45.21943" lon="5.09357">
        <ele>323.17</ele>
        <time>2017-02-25T15:44:47Z</time>
      </trkpt>
      <trkpt lat="45.21943" lon="5.09382">
        <ele>323.97</ele>
        <time>2017-02-25T15:44:48Z</time>
      </trkpt>
      <trkpt lat="45.21939" lon="5.09408">
        <ele>325.09</ele>
        <time>2017-02-25T15:44:49Z</time>
      </trkpt>
      <trkpt lat="45.21934" lon="5.09434">
        <ele>326.11</ele>
        <time>2017-02-25T15:44:50Z</time>
      </trkpt>
      <trkpt lat="45.21929" lon="5.09461">
        <ele>327.28</ele>
        <time>2017-02-25T15:44:51Z</time>
      </trkpt>
      <trkpt lat="45.21925" lon="5.09488">
        <ele>328.23</ele>
        <time>2017-02-25T15:44:52Z</time>
      </trkpt>
      <trkpt lat="45.2192" lon="5.09515">
        <ele>329.06</ele>
        <time>2017-02-25T15:44:53Z</time>
      </trkpt>
      <trkpt lat="45.21915" lon="5.09542">
        <ele>330.19</ele>
        <time>2017-02-25T15:44:54Z</time>
      </trkpt>
      <trkpt lat="45.2191" lon="5.09569">
        <ele>331.45</ele>
        <time>2017-02-25T15:44:55Z</time>
      </trkpt>
      <trkpt lat="45.21907" lon="5.09596">
        <ele>332.98</ele>
        <time>2017-02-25T15:44:56Z</time>
      </trkpt>
      <trkpt lat="45.21904" lon="5.09623">
        <ele>334.09</ele>
        <time>2017-02-25T15:44:57Z</time>
      </trkpt>
      <trkpt lat="45.21902" lon="5.09652">
        <ele>334.95</ele>
        <time>2017-02-25T15:44:58Z</time>
      </trkpt>
      <trkpt lat="45.21902" lon="5.09682">
        <ele>335.92</ele>
        <time>2017-02-25T15:44:59Z</time>
      </trkpt>
      <trkpt lat="45.21902" lon="5.09712">
        <ele>337.16</ele>
        <time>2017-02-25T15:45:00Z</time>
      </trkpt>
      <trkpt lat="45.21901" lon="5.09742">
        <ele>338.45</ele>
        <time>2017-02-25T15:45:01Z</time>
      </trkpt>
      <trkpt lat="45.219" lon="5.09771">
        <ele>339.9</ele>
        <time>2017-02-25T15:45:02Z</time>
      </trkpt>
      <trkpt lat="45.21899" lon="5.09798">
        <ele>340.99</ele>
        <time>2017-02-25T15:45:03Z</time>
      </trkpt>
      <trkpt lat="45.21897" lon="5.09823">
        <ele>342.09</ele>
        <time>2017-02-25T15:45:04Z</time>
      </trkpt>
      <trkpt lat="45.21897" lon="5.09847">
        <ele>343.19</ele>
        <time>2017-02-25T15:45:05Z</time>
      </trkpt>
      <trkpt lat="45.21897" lon="5.09871">
        <ele>343.97</ele>
        <time>2017-02-25T15:45:06Z</time>
      </trkpt>
      <trkpt lat="45.21897" lon="5.09896">
        <ele>344.61</ele>
        <time>2017-02-25T15:45:07Z</time>
      </trkpt>
      <trkpt lat="45.21898" lon="5.09922">
        <ele>345.06</ele>
        <time>2017-02-25T15:45:08Z</time>
      </trkpt>
      <trkpt lat="45.21899" lon="5.09949">
        <ele>345.54</ele>
        <time>2017-02-25T15:45:09Z</time>
      </trkpt>
      <trkpt lat="45.219" lon="5.09977">
        <ele>346.28</ele>
        <time>2017-02-25T15:45:10Z</time>
      </trkpt>
      <trkpt lat="45.21902" lon="5.10004">
        <ele>347.15</ele>
        <time>2017-02-25T15:45:11Z</time>
      </trkpt>
      <trkpt lat="45.21904" lon="5.10031">
        <ele>347.8</ele>
        <time>2017-02-25T15:45:12Z</time>
      </trkpt>
      <trkpt lat="45.21905" lon="5.10059">
        <ele>348.33</ele>
        <time>2017-02-25T15:45:13Z</time>
      </trkpt>
      <trkpt lat="45.21906" lon="5.10086">
        <ele>348.76</ele>
        <time>2017-02-25T15:45:14Z</time>
      </trkpt>
      <trkpt lat="45.21907" lon="5.10113">
        <ele>349.17</ele>
        <time>2017-02-25T15:45:15Z</time>
      </trkpt>
      <trkpt lat="45.21907" lon="5.10138">
        <ele>349.41</ele>
        <time>2017-02-25T15:45:16Z</time>
      </trkpt>
      <trkpt lat="45.21907" lon="5.10162">
        <ele>350.01</ele>
        <time>2017-02-25T15:45:17Z</time>
      </trkpt>
      <trkpt lat="45.21908" lon="5.10185">
        <ele>349.9</ele>
        <time>2017-02-25T15:45:18Z</time>
      </trkpt>
      <trkpt lat="45.21909" lon="5.10208">
        <ele>349.87</ele>
        <time>2017-02-25T15:45:19Z</time>
      </trkpt>
      <trkpt lat="45.21912" lon="5.10231">
        <ele>350.43</ele>
        <time>2017-02-25T15:45:20Z</time>
      </trkpt>
      <trkpt lat="45.21916" lon="5.10256">
        <ele>350.86</ele>
        <time>2017-02-25T15:45:21Z</time>
      </trkpt>
      <trkpt lat="45.21923" lon="5.10281">
        <ele>351.59</ele>
        <time>2017-02-25T15:45:22Z</time>
      </trkpt>
      <trkpt lat="45.2193" lon="5.10307">
        <ele>352.53</ele>
        <time>2017-02-25T15:45:23Z</time>
      </trkpt>
      <trkpt lat="45.21938" lon="5.10333">
        <ele>353.76</ele>
        <time>2017-02-25T15:45:24Z</time>
      </trkpt>
      <trkpt lat="45.21947" lon="5.10359">
        <ele>355.29</ele>
        <time>2017-02-25T15:45:25Z</time>
      </trkpt>
      <trkpt lat="45.21956" lon="5.10386">
        <ele>356.79</ele>
        <time>2017-02-25T15:45:26Z</time>
      </trkpt>
      <trkpt lat="45.21964" lon="5.10413">
        <ele>358.13</ele>
        <time>2017-02-25T15:45:27Z</time>
      </trkpt>
      <trkpt lat="45.21973" lon="5.10439">
        <ele>359.28</ele>
        <time>2017-02-25T15:45:28Z</time>
      </trkpt>
      <trkpt lat="45.21981" lon="5.10466">
        <ele>360.15</ele>
        <time>2017-02-25T15:45:29Z</time>
      </trkpt>
      <trkpt lat="45.21989" lon="5.10493">
        <ele>360.56</ele>
        <time>2017-02-25T15:45:30Z</time>
      </trkpt>
      <trkpt lat="45.21998" lon="5.10521">
        <ele>360.89</ele>
        <time>2017-02-25T15:45:31Z</time>
      </trkpt>
      <trkpt lat="45.22007" lon="5.10549">
        <ele>361.11</ele>
        <time>2017-02-25T15:45:32Z</time>
      </trkpt>
      <trkpt lat="45.22016" lon="5.10577">
        <ele>361.88</ele>
        <time>2017-02-25T15:45:33Z</time>
      </trkpt>
      <trkpt lat="45.22025" lon="5.10606">
        <ele>362.51</ele>
        <time>2017-02-25T15:45:34Z</time>
      </trkpt>
      <trkpt lat="45.22034" lon="5.10635">
        <ele>363.2</ele>
        <time>2017-02-25T15:45:35Z</time>
      </trkpt>
      <trkpt lat="45.22043" lon="5.10665">
        <ele>364.29</ele>
        <time>2017-02-25T15:45:36Z</time>
      </trkpt>
      <trkpt lat="45.2205" lon="5.10694">
        <ele>365.23</ele>
        <time>2017-02-25T15:45:37Z</time>
      </trkpt>
      <trkpt lat="45.22057" lon="5.10724">
        <ele>365.82</ele>
        <time>2017-02-25T15:45:38Z</time>
      </trkpt>
      <trkpt lat="45.22062" lon="5.10754">
        <ele>366.18</ele>
        <time>2017-02-25T15:45:39Z</time>
      </trkpt>
      <trkpt lat="45.22068" lon="5.10784">
        <ele>366.49</ele>
        <time>2017-02-25T15:45:40Z</time>
      </trkpt>
      <trkpt lat="45.22073" lon="5.10811">
        <ele>366.87</ele>
        <time>2017-02-25T15:45:41Z</time>
      </trkpt>
      <trkpt lat="45.22078" lon="5.10837">
        <ele>367.19</ele>
        <time>2017-02-25T15:45:42Z</time>
      </trkpt>
      <trkpt lat="45.22083" lon="5.10862">
        <ele>367.57</ele>
        <time>2017-02-25T15:45:43Z</time>
      </trkpt>
      <trkpt lat="45.22088" lon="5.10888">
        <ele>368.13</ele>
        <time>2017-02-25T15:45:44Z</time>
      </trkpt>
      <trkpt lat="45.22093" lon="5.10913">
        <ele>368.72</ele>
        <time>2017-02-25T15:45:45Z</time>
      </trkpt>
      <trkpt lat="45.22099" lon="5.10938">
        <ele>369.16</ele>
        <time>2017-02-25T15:45:46Z</time>
      </trkpt>
      <trkpt lat="45.22104" lon="5.10963">
        <ele>369.57</ele>
        <time>2017-02-25T15:45:47Z</time>
      </trkpt>
      <trkpt lat="45.22109" lon="5.10987">
        <ele>369.81</ele>
        <time>2017-02-25T15:45:48Z</time>
      </trkpt>
      <trkpt lat="45.22115" lon="5.11011">
        <ele>370.01</ele>
        <time>2017-02-25T15:45:49Z</time>
      </trkpt>
      <trkpt lat="45.2212" lon="5.11035">
        <ele>370.22</ele>
        <time>2017-02-25T15:45:50Z</time>
      </trkpt>
      <trkpt lat="45.22126" lon="5.11059">
        <ele>370.34</ele>
        <time>2017-02-25T15:45:51Z</time>
      </trkpt>
      <trkpt lat="45.22133" lon="5.11082">
        <ele>370.12</ele>
        <time>2017-02-25T15:45:52Z</time>
      </trkpt>
      <trkpt lat="45.22141" lon="5.11105">
        <ele>369.92</ele>
        <time>2017-02-25T15:45:53Z</time>
      </trkpt>
      <trkpt lat="45.2215" lon="5.11129">
        <ele>369.56</ele>
        <time>2017-02-25T15:45:54Z</time>
      </trkpt>
      <trkpt lat="45.2216" lon="5.11153">
        <ele>369.41</ele>
        <time>2017-02-25T15:45:55Z</time>
      </trkpt>
      <trkpt lat="45.22169" lon="5.11178">
        <ele>369.13</ele>
        <time>2017-02-25T15:45:56Z</time>
      </trkpt>
      <trkpt lat="45.22179" lon="5.11202">
        <ele>368.92</ele>
        <time>2017-02-25T15:45:57Z</time>
      </trkpt>
      <trkpt lat="45.2219" lon="5.11225">
        <ele>368.48</ele>
        <time>2017-02-25T15:45:58Z</time>
      </trkpt>
      <trkpt lat="45.22201" lon="5.11248">
        <ele>368.63</ele>
        <time>2017-02-25T15:45:59Z</time>
      </trkpt>
      <trkpt lat="45.22213" lon="5.11269">
        <ele>368.66</ele>
        <time>2017-02-25T15:46:00Z</time>
      </trkpt>
      <trkpt lat="45.22224" lon="5.11288">
        <ele>368.67</ele>
        <time>2017-02-25T15:46:01Z</time>
      </trkpt>
      <trkpt lat="45.22236" lon="5.11306">
        <ele>368.75</ele>
        <time>2017-02-25T15:46:02Z</time>
      </trkpt>
      <trkpt lat="45.22248" lon="5.11324">
        <ele>368.52</ele>
        <time>2017-02-25T15:46:03Z</time>
      </trkpt>
      <trkpt lat="45.22261" lon="5.11339">
        <ele>368.16</ele>
        <time>2017-02-25T15:46:04Z</time>
      </trkpt>
      <trkpt lat="45.22272" lon="5.11352">
        <ele>367.85</ele>
        <time>2017-02-25T15:46:05Z</time>
      </trkpt>
      <trkpt lat="45.22283" lon="5.11365">
        <ele>367.38</ele>
        <time>2017-02-25T15:46:06Z</time>
      </trkpt>
      <trkpt lat="45.22293" lon="5.1138">
        <ele>366.97</ele>
        <time>2017-02-25T15:46:07Z</time>
      </trkpt>
      <trkpt lat="45.223" lon="5.11396">
        <ele>365.93</ele>
        <time>2017-02-25T15:46:08Z</time>
      </trkpt>
      <trkpt lat="45.22304" lon="5.11415">
        <ele>364.84</ele>
        <time>2017-02-25T15:46:09Z</time>
      </trkpt>
      <trkpt lat="45.22305" lon="5.11434">
        <ele>363.98</ele>
        <time>2017-02-25T15:46:10Z</time>
      </trkpt>
      <trkpt lat="45.223" lon="5.11454">
        <ele>363.17</ele>
        <time>2017-02-25T15:46:11Z</time>
      </trkpt>
      <trkpt lat="45.22293" lon="5.11473">
        <ele>362.77</ele>
        <time>2017-02-25T15:46:12Z</time>
      </trkpt>
      <trkpt lat="45.22282" lon="5.11488">
        <ele>362.93</ele>
        <time>2017-02-25T15:46:13Z</time>
      </trkpt>
      <trkpt lat="45.22268" lon="5.11501">
        <ele>363.04</ele>
        <time>2017-02-25T15:46:14Z</time>
      </trkpt>
      <trkpt lat="45.22252" lon="5.11511">
        <ele>362.98</ele>
        <time>2017-02-25T15:46:15Z</time>
      </trkpt>
      <trkpt lat="45.22235" lon="5.11519">
        <ele>363.29</ele>
        <time>2017-02-25T15:46:16Z</time>
      </trkpt>
      <trkpt lat="45.22218" lon="5.11529">
        <ele>363.99</ele>
        <time>2017-02-25T15:46:17Z</time>
      </trkpt>
      <trkpt lat="45.22204" lon="5.11539">
        <ele>364.85</ele>
        <time>2017-02-25T15:46:18Z</time>
      </trkpt>
      <trkpt lat="45.22192" lon="5.11553">
        <ele>365.9</ele>
        <time>2017-02-25T15:46:19Z</time>
      </trkpt>
      <trkpt lat="45.22183" lon="5.11572">
        <ele>367.31</ele>
        <time>2017-02-25T15:46:20Z</time>
      </trkpt>
      <trkpt lat="45.22175" lon="5.11592">
        <ele>368.72</ele>
        <time>2017-02-25T15:46:21Z</time>
      </trkpt>
      <trkpt lat="45.22168" lon="5.11613">
        <ele>370.12</ele>
        <time>2017-02-25T15:46:22Z</time>
      </trkpt>
      <trkpt lat="45.22161" lon="5.11636">
        <ele>371.44</ele>
        <time>2017-02-25T15:46:23Z</time>
      </trkpt>
      <trkpt lat="45.22155" lon="5.11658">
        <ele>372.74</ele>
        <time>2017-02-25T15:46:24Z</time>
      </trkpt>
      <trkpt lat="45.22147" lon="5.11681">
        <ele>374.28</ele>
        <time>2017-02-25T15:46:25Z</time>
      </trkpt>
      <trkpt lat="45.22141" lon="5.11703">
        <ele>376.19</ele>
        <time>2017-02-25T15:46:26Z</time>
      </trkpt>
      <trkpt lat="45.22134" lon="5.11724">
        <ele>377.85</ele>
        <time>2017-02-25T15:46:27Z</time>
      </trkpt>
      <trkpt lat="45.22127" lon="5.11744">
        <ele>379.62</ele>
        <time>2017-02-25T15:46:28Z</time>
      </trkpt>
      <trkpt lat="45.2212" lon="5.11764">
        <ele>381.18</ele>
        <time>2017-02-25T15:46:29Z</time>
      </trkpt>
      <trkpt lat="45.22113" lon="5.11784">
        <ele>382.85</ele>
        <time>2017-02-25T15:46:30Z</time>
      </trkpt>
      <trkpt lat="45.22106" lon="5.11805">
        <ele>384.38</ele>
        <time>2017-02-25T15:46:31Z</time>
      </trkpt>
      <trkpt lat="45.221" lon="5.11825">
        <ele>385.73</ele>
        <time>2017-02-25T15:46:32Z</time>
      </trkpt>
      <trkpt lat="45.22095" lon="5.11846">
        <ele>387.12</ele>
        <time>2017-02-25T15:46:33Z</time>
      </trkpt>
      <trkpt lat="45.2209" lon="5.11868">
        <ele>388.6</ele>
        <time>2017-02-25T15:46:34Z</time>
      </trkpt>
      <trkpt lat="45.22087" lon="5.1189">
        <ele>389.85</ele>
        <time>2017-02-25T15:46:35Z</time>
      </trkpt>
      <trkpt lat="45.22083" lon="5.11914">
        <ele>391.22</ele>
        <time>2017-02-25T15:46:36Z</time>
      </trkpt>
      <trkpt lat="45.2208" lon="5.11939">
        <ele>392.7</ele>
        <time>2017-02-25T15:46:37Z</time>
      </trkpt>
      <trkpt lat="45.22076" lon="5.11963">
        <ele>394.03</ele>
        <time>2017-02-25T15:46:38Z</time>
      </trkpt>
      <trkpt lat="45.22072" lon="5.11988">
        <ele>395.34</ele>
        <time>2017-02-25T15:46:39Z</time>
      </trkpt>
      <trkpt lat="45.22068" lon="5.12013">
        <ele>396.8</ele>
        <time>2017-02-25T15:46:40Z</time>
      </trkpt>
      <trkpt lat="45.22063" lon="5.12039">
        <ele>398.45</ele>
        <time>2017-02-25T15:46:41Z</time>
      </trkpt>
      <trkpt lat="45.22059" lon="5.12065">
        <ele>400.22</ele>
        <time>2017-02-25T15:46:42Z</time>
      </trkpt>
      <trkpt lat="45.22055" lon="5.12092">
        <ele>401.86</ele>
        <time>2017-02-25T15:46:43Z</time>
      </trkpt>
      <trkpt lat="45.22051" lon="5.12118">
        <ele>403.47</ele>
        <time>2017-02-25T15:46:44Z</time>
      </trkpt>
      <trkpt lat="45.22046" lon="5.12145">
        <ele>404.99</ele>
        <time>2017-02-25T15:46:45Z</time>
      </trkpt>
      <trkpt lat="45.22042" lon="5.12171">
        <ele>406.73</ele>
        <time>2017-02-25T15:46:46Z</time>
      </trkpt>
      <trkpt lat="45.22038" lon="5.12196">
        <ele>408.44</ele>
        <time>2017-02-25T15:46:47Z</time>
      </trkpt>
      <trkpt lat="45.22033" lon="5.1222">
        <ele>410.22</ele>
        <time>2017-02-25T15:46:48Z</time>
      </trkpt>
      <trkpt lat="45.22029" lon="5.12242">
        <ele>411.86</ele>
        <time>2017-02-25T15:46:49Z</time>
      </trkpt>
      <trkpt lat="45.22026" lon="5.12262">
        <ele>413.55</ele>
        <time>2017-02-25T15:46:50Z</time>
      </trkpt>
      <trkpt lat="45.22023" lon="5.12281">
        <ele>415.24</ele>
        <time>2017-02-25T15:46:51Z</time>
      </trkpt>
      <trkpt lat="45.22021" lon="5.123">
        <ele>416.86</ele>
        <time>2017-02-25T15:46:52Z</time>
      </trkpt>
      <trkpt lat="45.22021" lon="5.1232">
        <ele>418.39</ele>
        <time>2017-02-25T15:46:53Z</time>
      </trkpt>
      <trkpt lat="45.22022" lon="5.12342">
        <ele>419.65</ele>
        <time>2017-02-25T15:46:54Z</time>
      </trkpt>
      <trkpt lat="45.22023" lon="5.12364">
        <ele>420.78</ele>
        <time>2017-02-25T15:46:55Z</time>
      </trkpt>
      <trkpt lat="45.22025" lon="5.12387">
        <ele>422.05</ele>
        <time>2017-02-25T15:46:56Z</time>
      </trkpt>
      <trkpt lat="45.22028" lon="5.1241">
        <ele>423.18</ele>
        <time>2017-02-25T15:46:57Z</time>
      </trkpt>
      <trkpt lat="45.22031" lon="5.12432">
        <ele>423.81</ele>
        <time>2017-02-25T15:46:58Z</time>
      </trkpt>
      <trkpt lat="45.22035" lon="5.12454">
        <ele>424.5</ele>
        <time>2017-02-25T15:46:59Z</time>
      </trkpt>
      <trkpt lat="45.22042" lon="5.12476">
        <ele>425.35</ele>
        <time>2017-02-25T15:47:00Z</time>
      </trkpt>
      <trkpt lat="45.2205" lon="5.12496">
        <ele>426.48</ele>
        <time>2017-02-25T15:47:01Z</time>
      </trkpt>
      <trkpt lat="45.2206" lon="5.12516">
        <ele>427.67</ele>
        <time>2017-02-25T15:47:02Z</time>
      </trkpt>
      <trkpt lat="45.22069" lon="5.12537">
        <ele>428.87</ele>
        <time>2017-02-25T15:47:03Z</time>
      </trkpt>
      <trkpt lat="45.22076" lon="5.12559">
        <ele>429.91</ele>
        <time>2017-02-25T15:47:04Z</time>
      </trkpt>
      <trkpt lat="45.22082" lon="5.12582">
        <ele>431.08</ele>
        <time>2017-02-25T15:47:05Z</time>
      </trkpt>
      <trkpt lat="45.22085" lon="5.12607">
        <ele>432.27</ele>
        <time>2017-02-25T15:47:06Z</time>
      </trkpt>
      <trkpt lat="45.22088" lon="5.12632">
        <ele>433.47</ele>
        <time>2017-02-25T15:47:07Z</time>
      </trkpt>
      <trkpt lat="45.2209" lon="5.12657">
        <ele>434.67</ele>
        <time>2017-02-25T15:47:08Z</time>
      </trkpt>
      <trkpt lat="45.2209" lon="5.12683">
        <ele>435.87</ele>
        <time>2017-02-25T15:47:09Z</time>
      </trkpt>
      <trkpt lat="45.22092" lon="5.12708">
        <ele>437.07</ele>
        <time>2017-02-25T15:47:10Z</time>
      </trkpt>
      <trkpt lat="45.22094" lon="5.12734">
        <ele>438.27</ele>
        <time>2017-02-25T15:47:11Z</time>
      </trkpt>
      <trkpt lat="45.22097" lon="5.12759">
        <ele>439.55</ele>
        <time>2017-02-25T15:47:12Z</time>
      </trkpt>
      <trkpt lat="45.22101" lon="5.12783">
        <ele>440.6</ele>
        <time>2017-02-25T15:47:13Z</time>
      </trkpt>
      <trkpt lat="45.22106" lon="5.12805">
        <ele>441.69</ele>
        <time>2017-02-25T15:47:14Z</time>
      </trkpt>
      <trkpt lat="45.22112" lon="5.12827">
        <ele>442.63</ele>
        <time>2017-02-25T15:47:15Z</time>
      </trkpt>
      <trkpt lat="45.22119" lon="5.12848">
        <ele>444.18</ele>
        <time>2017-02-25T15:47:16Z</time>
      </trkpt>
      <trkpt lat="45.22129" lon="5.12867">
        <ele>445.69</ele>
        <time>2017-02-25T15:47:17Z</time>
      </trkpt>
      <trkpt lat="45.2214" lon="5.12884">
        <ele>447.35</ele>
        <time>2017-02-25T15:47:18Z</time>
      </trkpt>
      <trkpt lat="45.22151" lon="5.12898">
        <ele>448.88</ele>
        <time>2017-02-25T15:47:19Z</time>
      </trkpt>
      <trkpt lat="45.22163" lon="5.12912">
        <ele>450.23</ele>
        <time>2017-02-25T15:47:20Z</time>
      </trkpt>
      <trkpt lat="45.22176" lon="5.12923">
        <ele>451.62</ele>
        <time>2017-02-25T15:47:21Z</time>
      </trkpt>
      <trkpt lat="45.22192" lon="5.12933">
        <ele>452.7</ele>
        <time>2017-02-25T15:47:22Z</time>
      </trkpt>
      <trkpt lat="45.22208" lon="5.12944">
        <ele>453.15</ele>
        <time>2017-02-25T15:47:23Z</time>
      </trkpt>
      <trkpt lat="45.22224" lon="5.12955">
        <ele>453.64</ele>
        <time>2017-02-25T15:47:24Z</time>
      </trkpt>
      <trkpt lat="45.22239" lon="5.12967">
        <ele>453.98</ele>
        <time>2017-02-25T15:47:25Z</time>
      </trkpt>
      <trkpt lat="45.22254" lon="5.12979">
        <ele>454.29</ele>
        <time>2017-02-25T15:47:26Z</time>
      </trkpt>
      <trkpt lat="45.22268" lon="5.1299">
        <ele>454.51</ele>
        <time>2017-02-25T15:47:27Z</time>
      </trkpt>
      <trkpt lat="45.2228" lon="5.12999">
        <ele>454.72</ele>
        <time>2017-02-25T15:47:28Z</time>
      </trkpt>
      <trkpt lat="45.22293" lon="5.13006">
        <ele>455</ele>
        <time>2017-02-25T15:47:29Z</time>
      </trkpt>
      <trkpt lat="45.22305" lon="5.13012">
        <ele>455.13</ele>
        <time>2017-02-25T15:47:30Z</time>
      </trkpt>
      <trkpt lat="45.22317" lon="5.13015">
        <ele>455.32</ele>
        <time>2017-02-25T15:47:31Z</time>
      </trkpt>
      <trkpt lat="45.22329" lon="5.13017">
        <ele>455.36</ele>
        <time>2017-02-25T15:47:32Z</time>
      </trkpt>
      <trkpt lat="45.22339" lon="5.13019">
        <ele>455.61</ele>
        <time>2017-02-25T15:47:33Z</time>
      </trkpt>
      <trkpt lat="45.22349" lon="5.1302">
        <ele>455.49</ele>
        <time>2017-02-25T15:47:34Z</time>
      </trkpt>
      <trkpt lat="45.22358" lon="5.13023">
        <ele>455.31</ele>
        <time>2017-02-25T15:47:35Z</time>
      </trkpt>
      <trkpt lat="45.22366" lon="5.13025">
        <ele>455.12</ele>
        <time>2017-02-25T15:47:36Z</time>
      </trkpt>
      <trkpt lat="45.22373" lon="5.13028">
        <ele>455.08</ele>
        <time>2017-02-25T15:47:37Z</time>
      </trkpt>
      <trkpt lat="45.2238" lon="5.13031">
        <ele>455.15</ele>
        <time>2017-02-25T15:47:38Z</time>
      </trkpt>
      <trkpt lat="45.22386" lon="5.13036">
        <ele>455.08</ele>
        <time>2017-02-25T15:47:39Z</time>
      </trkpt>
      <trkpt lat="45.22392" lon="5.13042">
        <ele>455.15</ele>
        <time>2017-02-25T15:47:40Z</time>
      </trkpt>
      <trkpt lat="45.22398" lon="5.1305">
        <ele>455.32</ele>
        <time>2017-02-25T15:47:41Z</time>
      </trkpt>
      <trkpt lat="45.22403" lon="5.13059">
        <ele>455.44</ele>
        <time>2017-02-25T15:47:42Z</time>
      </trkpt>
      <trkpt lat="45.22407" lon="5.1307">
        <ele>455.54</ele>
        <time>2017-02-25T15:47:43Z</time>
      </trkpt>
      <trkpt lat="45.2241" lon="5.13083">
        <ele>455.56</ele>
        <time>2017-02-25T15:47:44Z</time>
      </trkpt>
      <trkpt lat="45.22411" lon="5.13096">
        <ele>455.73</ele>
        <time>2017-02-25T15:47:45Z</time>
      </trkpt>
      <trkpt lat="45.2241" lon="5.1311">
        <ele>455.68</ele>
        <time>2017-02-25T15:47:46Z</time>
      </trkpt>
      <trkpt lat="45.22407" lon="5.13124">
        <ele>455.51</ele>
        <time>2017-02-25T15:47:47Z</time>
      </trkpt>
      <trkpt lat="45.22407" lon="5.13138">
        <ele>455.08</ele>
        <time>2017-02-25T15:47:48Z</time>
      </trkpt>
      <trkpt lat="45.22407" lon="5.13151">
        <ele>454.75</ele>
        <time>2017-02-25T15:47:49Z</time>
      </trkpt>
      <trkpt lat="45.22408" lon="5.13164">
        <ele>454.12</ele>
        <time>2017-02-25T15:47:50Z</time>
      </trkpt>
      <trkpt lat="45.22407" lon="5.13173">
        <ele>453.2</ele>
        <time>2017-02-25T15:47:51Z</time>
      </trkpt>
      <trkpt lat="45.22406" lon="5.1318">
        <ele>452.93</ele>
        <time>2017-02-25T15:47:52Z</time>
      </trkpt>
      <trkpt lat="45.22405" lon="5.13183">
        <ele>452.96</ele>
        <time>2017-02-25T15:47:53Z</time>
      </trkpt>
      <trkpt lat="45.22404" lon="5.13184">
        <ele>453.05</ele>
        <time>2017-02-25T15:47:54Z</time>
      </trkpt>
      <trkpt lat="45.22404" lon="5.13183">
        <ele>453.38</ele>
        <time>2017-02-25T15:47:55Z</time>
      </trkpt>
      <trkpt lat="45.22404" lon="5.13182">
        <ele>453.53</ele>
        <time>2017-02-25T15:47:56Z</time>
      </trkpt>
      <trkpt lat="45.22404" lon="5.13182">
        <ele>453.56</ele>
        <time>2017-02-25T15:47:57Z</time>
      </trkpt>
      <trkpt lat="45.22404" lon="5.13182">
        <ele>453.57</ele>
        <time>2017-02-25T15:47:58Z</time>
      </trkpt>
      <trkpt lat="45.22404" lon="5.13182">
        <ele>453.57</ele>
        <time>2017-02-25T15:47:59Z</time>
      </trkpt>
      <trkpt lat="45.22404" lon="5.13182">
        <ele>453.57</ele>
        <time>2017-02-25T15:48:00Z</time>
      </trkpt>
      <trkpt lat="45.22404" lon="5.13182">
        <ele>453.57</ele>
        <time>2017-02-25T15:48:01Z</time>
      </trkpt>
      <trkpt lat="45.22404" lon="5.13182">
        <ele>453.57</ele>
        <time>2017-02-25T15:48:02Z</time>
      </trkpt>
      <trkpt lat="45.22404" lon="5.13182">
        <ele>453.57</ele>
        <time>2017-02-25T15:48:03Z</time>
      </trkpt>
      <trkpt lat="45.22404" lon="5.13182">
        <ele>453.57</ele>
        <time>2017-02-25T15:48:04Z</time>
      </trkpt>
      <trkpt lat="45.22404" lon="5.13182">
        <ele>453.57</ele>
        <time>2017-02-25T15:48:05Z</time>
      </trkpt>
      <trkpt lat="45.22404" lon="5.13182">
        <ele>453.57</ele>
        <time>2017-02-25T15:48:06Z</time>
      </trkpt>
      <trkpt lat="45.22404" lon="5.13182">
        <ele>453.57</ele>
        <time>2017-02-25T15:48:07Z</time>
      </trkpt>
      <trkpt lat="45.22404" lon="5.13182">
        <ele>453.57</ele>
        <time>2017-02-25T15:48:08Z</time>
      </trkpt>
      <trkpt lat="45.22404" lon="5.13182">
        <ele>453.57</ele>
        <time>2017-02-25T15:48:09Z</time>
      </trkpt>
      <trkpt lat="45.22404" lon="5.13182">
        <ele>453.57</ele>
        <time>2017-02-25T15:48:10Z</time>
      </trkpt>
      <trkpt lat="45.22404" lon="5.13182">
        <ele>453.57</ele>
        <time>2017-02-25T15:48:11Z</time>
      </trkpt>
      <trkpt lat="45.22404" lon="5.13182">
        <ele>453.57</ele>
        <time>2017-02-25T15:48:12Z</time>
      </trkpt>
      <trkpt lat="45.22404" lon="5.13182">
        <ele>453.57</ele>
        <time>2017-02-25T15:48:13Z</time>
      </trkpt>
      <trkpt lat="45.22404" lon="5.13182">
        <ele>453.57</ele>
        <time>2017-02-25T15:48:14Z</time>
      </trkpt>
      <trkpt lat="45.22404" lon="5.13182">
        <ele>453.57</ele>
        <time>2017-02-25T15:48:15Z</time>
      </trkpt>
      <trkpt lat="45.22404" lon="5.13182">
        <ele>453.57</ele>
        <time>2017-02-25T15:48:16Z</time>
      </trkpt>
      <trkpt lat="45.22404" lon="5.13182">
        <ele>453.57</ele>
        <time>2017-02-25T15:48:17Z</time>
      </trkpt>
      <trkpt lat="45.22404" lon="5.13182">
        <ele>453.57</ele>
        <time>2017-02-25T15:48:18Z</time>
      </trkpt>
      <trkpt lat="45.22404" lon="5.13182">
        <ele>453.57</ele>
        <time>2017-02-25T15:48:19Z</time>
      </trkpt>
      <trkpt lat="45.22404" lon="5.13182">
        <ele>453.57</ele>
        <time>2017-02-25T15:48:20Z</time>
      </trkpt>
      <trkpt lat="45.22404" lon="5.13182">
        <ele>453.57</ele>
        <time>2017-02-25T15:48:21Z</time>
      </trkpt>
      <trkpt lat="45.22404" lon="5.13182">
        <ele>453.57</ele>
        <time>2017-02-25T15:48:22Z</time>
      </trkpt>
      <trkpt lat="45.22404" lon="5.13182">
        <ele>453.57</ele>
        <time>2017-02-25T15:48:23Z</time>
      </trkpt>
      <trkpt lat="45.22404" lon="5.13182">
        <ele>453.57</ele>
        <time>2017-02-25T15:48:24Z</time>
      </trkpt>
      <trkpt lat="45.22404" lon="5.13182">
        <ele>453.57</ele>
        <time>2017-02-25T15:48:25Z</time>
      </trkpt>
      <trkpt lat="45.22404" lon="5.13182">
        <ele>453.57</ele>
        <time>2017-02-25T15:48:26Z</time>
      </trkpt>
      <trkpt lat="45.22404" lon="5.13182">
        <ele>453.57</ele>
        <time>2017-02-25T15:48:27Z</time>
      </trkpt>
      <trkpt lat="45.22404" lon="5.13182">
        <ele>453.57</ele>
        <time>2017-02-25T15:48:28Z</time>
      </trkpt>
      <trkpt lat="45.22404" lon="5.13182">
        <ele>453.57</ele>
        <time>2017-02-25T15:48:29Z</time>
      </trkpt>
      <trkpt lat="45.22404" lon="5.13182">
        <ele>453.57</ele>
        <time>2017-02-25T15:48:30Z</time>
      </trkpt>
      <trkpt lat="45.22404" lon="5.13182">
        <ele>453.57</ele>
        <time>2017-02-25T15:48:31Z</time>
      </trkpt>
      <trkpt lat="45.22404" lon="5.13182">
        <ele>453.57</ele>
        <time>2017-02-25T15:48:32Z</time>
      </trkpt>
      <trkpt lat="45.22404" lon="5.13182">
        <ele>453.57</ele>
        <time>2017-02-25T15:48:33Z</time>
      </trkpt>
      <trkpt lat="45.22404" lon="5.13182">
        <ele>453.57</ele>
        <time>2017-02-25T15:48:34Z</time>
      </trkpt>
      <trkpt lat="45.22404" lon="5.13182">
        <ele>453.57</ele>
        <time>2017-02-25T15:48:35Z</time>
      </trkpt>
      <trkpt lat="45.22404" lon="5.13182">
        <ele>453.57</ele>
        <time>2017-02-25T15:48:36Z</time>
      </trkpt>
      <trkpt lat="45.22404" lon="5.13182">
        <ele>453.57</ele>
        <time>2017-02-25T15:48:37Z</time>
      </trkpt>
      <trkpt lat="45.22404" lon="5.13182">
        <ele>453.57</ele>
        <time>2017-02-25T15:48:38Z</time>
      </trkpt>
      <trkpt lat="45.22404" lon="5.13182">
        <ele>453.57</ele>
        <time>2017-02-25T15:48:39Z</time>
      </trkpt>
      <trkpt lat="45.22404" lon="5.13182">
        <ele>453.57</ele>
        <time>2017-02-25T15:48:40Z</time>
      </trkpt>
      <trkpt lat="45.22404" lon="5.13182">
        <ele>453.57</ele>
        <time>2017-02-25T15:48:41Z</time>
      </trkpt>
      <trkpt lat="45.22404" lon="5.13182">
        <ele>453.57</ele>
        <time>2017-02-25T15:48:42Z</time>
      </trkpt>
      <trkpt lat="45.22404" lon="5.13182">
        <ele>453.57</ele>
        <time>2017-02-25T15:48:43Z</time>
      </trkpt>
      <trkpt lat="45.22404" lon="5.13182">
        <ele>453.57</ele>
        <time>2017-02-25T15:48:44Z</time>
      </trkpt>
      <trkpt lat="45.22404" lon="5.13182">
        <ele>453.57</ele>
        <time>2017-02-25T15:48:45Z</time>
      </trkpt>
      <trkpt lat="45.22404" lon="5.13182">
        <ele>453.57</ele>
        <time>2017-02-25T15:48:46Z</time>
      </trkpt>
      <trkpt lat="45.22404" lon="5.13182">
        <ele>453.57</ele>
        <time>2017-02-25T15:48:47Z</time>
      </trkpt>
      <trkpt lat="45.22404" lon="5.13182">
        <ele>453.57</ele>
        <time>2017-02-25T15:48:48Z</time>
      </trkpt>
      <trkpt lat="45.22402" lon="5.13181">
        <ele>453.17</ele>
        <time>2017-02-25T15:48:49Z</time>
      </trkpt>
      <trkpt lat="45.22396" lon="5.13177">
        <ele>453.17</ele>
        <time>2017-02-25T15:48:50Z</time>
      </trkpt>
      <trkpt lat="45.2239" lon="5.13172">
        <ele>453.25</ele>
        <time>2017-02-25T15:48:51Z</time>
      </trkpt>
      <trkpt lat="45.22382" lon="5.13166">
        <ele>453.34</ele>
        <time>2017-02-25T15:48:52Z</time>
      </trkpt>
      <trkpt lat="45.22374" lon="5.13159">
        <ele>453.44</ele>
        <time>2017-02-25T15:48:53Z</time>
      </trkpt>
      <trkpt lat="45.22364" lon="5.13153">
        <ele>453.3</ele>
        <time>2017-02-25T15:48:54Z</time>
      </trkpt>
      <trkpt lat="45.22354" lon="5.13148">
        <ele>453.11</ele>
        <time>2017-02-25T15:48:55Z</time>
      </trkpt>
      <trkpt lat="45.22345" lon="5.13147">
        <ele>452.68</ele>
        <time>2017-02-25T15:48:56Z</time>
      </trkpt>
      <trkpt lat="45.22336" lon="5.13147">
        <ele>452.43</ele>
        <time>2017-02-25T15:48:57Z</time>
      </trkpt>
      <trkpt lat="45.22327" lon="5.13149">
        <ele>452.22</ele>
        <time>2017-02-25T15:48:58Z</time>
      </trkpt>
      <trkpt lat="45.22318" lon="5.13153">
        <ele>451.94</ele>
        <time>2017-02-25T15:48:59Z</time>
      </trkpt>
      <trkpt lat="45.22309" lon="5.13164">
        <ele>451.4</ele>
        <time>2017-02-25T15:49:00Z</time>
      </trkpt>
      <trkpt lat="45.223" lon="5.13174">
        <ele>450.97</ele>
        <time>2017-02-25T15:49:01Z</time>
      </trkpt>
      <trkpt lat="45.2229" lon="5.13188">
        <ele>450.49</ele>
        <time>2017-02-25T15:49:02Z</time>
      </trkpt>
      <trkpt lat="45.22279" lon="5.13202">
        <ele>449.75</ele>
        <time>2017-02-25T15:49:03Z</time>
      </trkpt>
      <trkpt lat="45.22268" lon="5.13215">
        <ele>448.96</ele>
        <time>2017-02-25T15:49:04Z</time>
      </trkpt>
      <trkpt lat="45.22257" lon="5.13224">
        <ele>448.25</ele>
        <time>2017-02-25T15:49:05Z</time>
      </trkpt>
      <trkpt lat="45.22246" lon="5.13231">
        <ele>447.54</ele>
        <time>2017-02-25T15:49:06Z</time>
      </trkpt>
      <trkpt lat="45.22233" lon="5.13235">
        <ele>447</ele>
        <time>2017-02-25T15:49:07Z</time>
      </trkpt>
      <trkpt lat="45.22219" lon="5.13237">
        <ele>446.73</ele>
        <time>2017-02-25T15:49:08Z</time>
      </trkpt>
      <trkpt lat="45.22205" lon="5.13238">
        <ele>446.28</ele>
        <time>2017-02-25T15:49:09Z</time>
      </trkpt>
      <trkpt lat="45.22189" lon="5.13238">
        <ele>445.95</ele>
        <time>2017-02-25T15:49:10Z</time>
      </trkpt>
      <trkpt lat="45.22174" lon="5.13237">
        <ele>445.56</ele>
        <time>2017-02-25T15:49:11Z</time>
      </trkpt>
      <trkpt lat="45.22159" lon="5.13236">
        <ele>444.93</ele>
        <time>2017-02-25T15:49:12Z</time>
      </trkpt>
      <trkpt lat="45.22145" lon="5.13236">
        <ele>444.08</ele>
        <time>2017-02-25T15:49:13Z</time>
      </trkpt>
      <trkpt lat="45.22131" lon="5.13235">
        <ele>443.03</ele>
        <time>2017-02-25T15:49:14Z</time>
      </trkpt>
      <trkpt lat="45.22118" lon="5.13235">
        <ele>441.78</ele>
        <time>2017-02-25T15:49:15Z</time>
      </trkpt>
      <trkpt lat="45.22105" lon="5.13235">
        <ele>440.65</ele>
        <time>2017-02-25T15:49:16Z</time>
      </trkpt>
      <trkpt lat="45.22093" lon="5.13234">
        <ele>439.46</ele>
        <time>2017-02-25T15:49:17Z</time>
      </trkpt>
      <trkpt lat="45.2208" lon="5.13233">
        <ele>438.11</ele>
        <time>2017-02-25T15:49:18Z</time>
      </trkpt>
      <trkpt lat="45.22068" lon="5.13231">
        <ele>436.63</ele>
        <time>2017-02-25T15:49:19Z</time>
      </trkpt>
      <trkpt lat="45.22056" lon="5.13228">
        <ele>435.14</ele>
        <time>2017-02-25T15:49:20Z</time>
      </trkpt>
      <trkpt lat="45.22043" lon="5.13224">
        <ele>433.48</ele>
        <time>2017-02-25T15:49:21Z</time>
      </trkpt>
      <trkpt lat="45.22031" lon="5.13219">
        <ele>432.11</ele>
        <time>2017-02-25T15:49:22Z</time>
      </trkpt>
      <trkpt lat="45.22019" lon="5.13214">
        <ele>430.72</ele>
        <time>2017-02-25T15:49:23Z</time>
      </trkpt>
      <trkpt lat="45.22008" lon="5.13208">
        <ele>429.32</ele>
        <time>2017-02-25T15:49:24Z</time>
      </trkpt>
      <trkpt lat="45.21997" lon="5.13203">
        <ele>428.08</ele>
        <time>2017-02-25T15:49:25Z</time>
      </trkpt>
      <trkpt lat="45.21987" lon="5.13198">
        <ele>426.87</ele>
        <time>2017-02-25T15:49:26Z</time>
      </trkpt>
      <trkpt lat="45.21977" lon="5.13193">
        <ele>425.59</ele>
        <time>2017-02-25T15:49:27Z</time>
      </trkpt>
      <trkpt lat="45.21967" lon="5.13189">
        <ele>424.29</ele>
        <time>2017-02-25T15:49:28Z</time>
      </trkpt>
      <trkpt lat="45.21957" lon="5.13185">
        <ele>422.91</ele>
        <time>2017-02-25T15:49:29Z</time>
      </trkpt>
      <trkpt lat="45.21947" lon="5.1318">
        <ele>421.6</ele>
        <time>2017-02-25T15:49:30Z</time>
      </trkpt>
      <trkpt lat="45.21937" lon="5.13175">
        <ele>420.45</ele>
        <time>2017-02-25T15:49:31Z</time>
      </trkpt>
      <trkpt lat="45.21927" lon="5.13168">
        <ele>419.34</ele>
        <time>2017-02-25T15:49:32Z</time>
      </trkpt>
      <trkpt lat="45.21917" lon="5.1316">
        <ele>418.4</ele>
        <time>2017-02-25T15:49:33Z</time>
      </trkpt>
      <trkpt lat="45.21909" lon="5.13151">
        <ele>417.49</ele>
        <time>2017-02-25T15:49:34Z</time>
      </trkpt>
      <trkpt lat="45.21901" lon="5.13142">
        <ele>416.59</ele>
        <time>2017-02-25T15:49:35Z</time>
      </trkpt>
      <trkpt lat="45.21893" lon="5.13134">
        <ele>415.77</ele>
        <time>2017-02-25T15:49:36Z</time>
      </trkpt>
      <trkpt lat="45.21887" lon="5.13126">
        <ele>414.97</ele>
        <time>2017-02-25T15:49:37Z</time>
      </trkpt>
      <trkpt lat="45.21881" lon="5.13119">
        <ele>413.93</ele>
        <time>2017-02-25T15:49:38Z</time>
      </trkpt>
      <trkpt lat="45.21877" lon="5.13115">
        <ele>412.84</ele>
        <time>2017-02-25T15:49:39Z</time>
      </trkpt>
      <trkpt lat="45.21873" lon="5.13113">
        <ele>411.98</ele>
        <time>2017-02-25T15:49:40Z</time>
      </trkpt>
      <trkpt lat="45.21872" lon="5.13115">
        <ele>411.09</ele>
        <time>2017-02-25T15:49:41Z</time>
      </trkpt>
      <trkpt lat="45.21872" lon="5.13121">
        <ele>410.35</ele>
        <time>2017-02-25T15:49:42Z</time>
      </trkpt>
      <trkpt lat="45.21873" lon="5.13128">
        <ele>409.32</ele>
        <time>2017-02-25T15:49:43Z</time>
      </trkpt>
      <trkpt lat="45.21875" lon="5.13137">
        <ele>408.32</ele>
        <time>2017-02-25T15:49:44Z</time>
      </trkpt>
      <trkpt lat="45.21878" lon="5.13147">
        <ele>407.56</ele>
        <time>2017-02-25T15:49:45Z</time>
      </trkpt>
      <trkpt lat="45.21882" lon="5.13158">
        <ele>406.61</ele>
        <time>2017-02-25T15:49:46Z</time>
      </trkpt>
      <trkpt lat="45.21885" lon="5.1317">
        <ele>405.61</ele>
        <time>2017-02-25T15:49:47Z</time>
      </trkpt>
      <trkpt lat="45.21887" lon="5.13183">
        <ele>404.86</ele>
        <time>2017-02-25T15:49:48Z</time>
      </trkpt>
      <trkpt lat="45.2189" lon="5.13196">
        <ele>403.98</ele>
        <time>2017-02-25T15:49:49Z</time>
      </trkpt>
      <trkpt lat="45.21893" lon="5.1321">
        <ele>403.25</ele>
        <time>2017-02-25T15:49:50Z</time>
      </trkpt>
      <trkpt lat="45.21897" lon="5.13223">
        <ele>402.3</ele>
        <time>2017-02-25T15:49:51Z</time>
      </trkpt>
      <trkpt lat="45.21901" lon="5.13237">
        <ele>401.23</ele>
        <time>2017-02-25T15:49:52Z</time>
      </trkpt>
      <trkpt lat="45.21906" lon="5.13251">
        <ele>400.3</ele>
        <time>2017-02-25T15:49:53Z</time>
      </trkpt>
      <trkpt lat="45.21911" lon="5.13265">
        <ele>399.47</ele>
        <time>2017-02-25T15:49:54Z</time>
      </trkpt>
      <trkpt lat="45.21916" lon="5.1328">
        <ele>398.51</ele>
        <time>2017-02-25T15:49:55Z</time>
      </trkpt>
      <trkpt lat="45.21922" lon="5.13294">
        <ele>397.44</ele>
        <time>2017-02-25T15:49:56Z</time>
      </trkpt>
      <trkpt lat="45.21927" lon="5.13309">
        <ele>396.34</ele>
        <time>2017-02-25T15:49:57Z</time>
      </trkpt>
      <trkpt lat="45.21932" lon="5.13324">
        <ele>395</ele>
        <time>2017-02-25T15:49:58Z</time>
      </trkpt>
      <trkpt lat="45.21936" lon="5.1334">
        <ele>393.77</ele>
        <time>2017-02-25T15:49:59Z</time>
      </trkpt>
      <trkpt lat="45.21939" lon="5.13357">
        <ele>392.65</ele>
        <time>2017-02-25T15:50:00Z</time>
      </trkpt>
      <trkpt lat="45.21941" lon="5.13375">
        <ele>391.46</ele>
        <time>2017-02-25T15:50:01Z</time>
      </trkpt>
      <trkpt lat="45.21943" lon="5.13392">
        <ele>390.27</ele>
        <time>2017-02-25T15:50:02Z</time>
      </trkpt>
      <trkpt lat="45.21945" lon="5.1341">
        <ele>388.83</ele>
        <time>2017-02-25T15:50:03Z</time>
      </trkpt>
      <trkpt lat="45.21945" lon="5.13429">
        <ele>387.66</ele>
        <time>2017-02-25T15:50:04Z</time>
      </trkpt>
      <trkpt lat="45.21944" lon="5.13448">
        <ele>386.63</ele>
        <time>2017-02-25T15:50:05Z</time>
      </trkpt>
      <trkpt lat="45.21941" lon="5.13468">
        <ele>385.78</ele>
        <time>2017-02-25T15:50:06Z</time>
      </trkpt>
      <trkpt lat="45.21937" lon="5.13489">
        <ele>384.57</ele>
        <time>2017-02-25T15:50:07Z</time>
      </trkpt>
      <trkpt lat="45.21934" lon="5.13512">
        <ele>383.13</ele>
        <time>2017-02-25T15:50:08Z</time>
      </trkpt>
      <trkpt lat="45.21932" lon="5.13536">
        <ele>381.72</ele>
        <time>2017-02-25T15:50:09Z</time>
      </trkpt>
      <trkpt lat="45.21931" lon="5.1356">
        <ele>380.4</ele>
        <time>2017-02-25T15:50:10Z</time>
      </trkpt>
      <trkpt lat="45.21931" lon="5.13585">
        <ele>379.17</ele>
        <time>2017-02-25T15:50:11Z</time>
      </trkpt>
      <trkpt lat="45.21932" lon="5.13608">
        <ele>377.89</ele>
        <time>2017-02-25T15:50:12Z</time>
      </trkpt>
      <trkpt lat="45.21932" lon="5.13631">
        <ele>376.59</ele>
        <time>2017-02-25T15:50:13Z</time>
      </trkpt>
      <trkpt lat="45.21932" lon="5.13654">
        <ele>375.13</ele>
        <time>2017-02-25T15:50:14Z</time>
      </trkpt>
      <trkpt lat="45.2193" lon="5.13678">
        <ele>373.72</ele>
        <time>2017-02-25T15:50:15Z</time>
      </trkpt>
      <trkpt lat="45.21927" lon="5.13702">
        <ele>372.24</ele>
        <time>2017-02-25T15:50:16Z</time>
      </trkpt>
      <trkpt lat="45.21922" lon="5.13726">
        <ele>370.66</ele>
        <time>2017-02-25T15:50:17Z</time>
      </trkpt>
      <trkpt lat="45.21918" lon="5.13751">
        <ele>369.23</ele>
        <time>2017-02-25T15:50:18Z</time>
      </trkpt>
      <trkpt lat="45.21913" lon="5.13775">
        <ele>367.58</ele>
        <time>2017-02-25T15:50:19Z</time>
      </trkpt>
      <trkpt lat="45.21909" lon="5.138">
        <ele>366.21</ele>
        <time>2017-02-25T15:50:20Z</time>
      </trkpt>
      <trkpt lat="45.21905" lon="5.13824">
        <ele>364.5</ele>
        <time>2017-02-25T15:50:21Z</time>
      </trkpt>
      <trkpt lat="45.21902" lon="5.13847">
        <ele>363.03</ele>
        <time>2017-02-25T15:50:22Z</time>
      </trkpt>
      <trkpt lat="45.21899" lon="5.13869">
        <ele>361.54</ele>
        <time>2017-02-25T15:50:23Z</time>
      </trkpt>
      <trkpt lat="45.21896" lon="5.1389">
        <ele>359.96</ele>
        <time>2017-02-25T15:50:24Z</time>
      </trkpt>
      <trkpt lat="45.21894" lon="5.13908">
        <ele>358.45</ele>
        <time>2017-02-25T15:50:25Z</time>
      </trkpt>
      <trkpt lat="45.21892" lon="5.13925">
        <ele>357.18</ele>
        <time>2017-02-25T15:50:26Z</time>
      </trkpt>
      <trkpt lat="45.21892" lon="5.13941">
        <ele>355.89</ele>
        <time>2017-02-25T15:50:27Z</time>
      </trkpt>
      <trkpt lat="45.21892" lon="5.13956">
        <ele>354.83</ele>
        <time>2017-02-25T15:50:28Z</time>
      </trkpt>
      <trkpt lat="45.21892" lon="5.13971">
        <ele>353.9</ele>
        <time>2017-02-25T15:50:29Z</time>
      </trkpt>
      <trkpt lat="45.21889" lon="5.13982">
        <ele>352.91</ele>
        <time>2017-02-25T15:50:30Z</time>
      </trkpt>
      <trkpt lat="45.21885" lon="5.13992">
        <ele>352.16</ele>
        <time>2017-02-25T15:50:31Z</time>
      </trkpt>
      <trkpt lat="45.21882" lon="5.14001">
        <ele>351.68</ele>
        <time>2017-02-25T15:50:32Z</time>
      </trkpt>
      <trkpt lat="45.2188" lon="5.14012">
        <ele>351.51</ele>
        <time>2017-02-25T15:50:33Z</time>
      </trkpt>
      <trkpt lat="45.21878" lon="5.14026">
        <ele>351.4</ele>
        <time>2017-02-25T15:50:34Z</time>
      </trkpt>
      <trkpt lat="45.21877" lon="5.14042">
        <ele>351.05</ele>
        <time>2017-02-25T15:50:35Z</time>
      </trkpt>
      <trkpt lat="45.21876" lon="5.14059">
        <ele>350.5</ele>
        <time>2017-02-25T15:50:36Z</time>
      </trkpt>
      <trkpt lat="45.21874" lon="5.14077">
        <ele>349.83</ele>
        <time>2017-02-25T15:50:37Z</time>
      </trkpt>
      <trkpt lat="45.21871" lon="5.14097">
        <ele>349.22</ele>
        <time>2017-02-25T15:50:38Z</time>
      </trkpt>
      <trkpt lat="45.21868" lon="5.14118">
        <ele>348.62</ele>
        <time>2017-02-25T15:50:39Z</time>
      </trkpt>
      <trkpt lat="45.21864" lon="5.14139">
        <ele>348.1</ele>
        <time>2017-02-25T15:50:40Z</time>
      </trkpt>
      <trkpt lat="45.21859" lon="5.1416">
        <ele>347.67</ele>
        <time>2017-02-25T15:50:41Z</time>
      </trkpt>
      <trkpt lat="45.21853" lon="5.14182">
        <ele>347.43</ele>
        <time>2017-02-25T15:50:42Z</time>
      </trkpt>
      <trkpt lat="45.21846" lon="5.14204">
        <ele>347.62</ele>
        <time>2017-02-25T15:50:43Z</time>
      </trkpt>
      <trkpt lat="45.21839" lon="5.14226">
        <ele>347.98</ele>
        <time>2017-02-25T15:50:44Z</time>
      </trkpt>
      <trkpt lat="45.21832" lon="5.14249">
        <ele>348.45</ele>
        <time>2017-02-25T15:50:45Z</time>
      </trkpt>
      <trkpt lat="45.21825" lon="5.14273">
        <ele>349.18</ele>
        <time>2017-02-25T15:50:46Z</time>
      </trkpt>
      <trkpt lat="45.21819" lon="5.14298">
        <ele>350.05</ele>
        <time>2017-02-25T15:50:47Z</time>
      </trkpt>
      <trkpt lat="45.21812" lon="5.14323">
        <ele>350.7</ele>
        <time>2017-02-25T15:50:48Z</time>
      </trkpt>
      <trkpt lat="45.21805" lon="5.14348">
        <ele>351.15</ele>
        <time>2017-02-25T15:50:49Z</time>
      </trkpt>
      <trkpt lat="45.218" lon="5.14373">
        <ele>351.56</ele>
        <time>2017-02-25T15:50:50Z</time>
      </trkpt>
      <trkpt lat="45.21798" lon="5.14398">
        <ele>351.89</ele>
        <time>2017-02-25T15:50:51Z</time>
      </trkpt>
      <trkpt lat="45.21797" lon="5.14425">
        <ele>352.27</ele>
        <time>2017-02-25T15:50:52Z</time>
      </trkpt>
      <trkpt lat="45.21798" lon="5.14453">
        <ele>352.67</ele>
        <time>2017-02-25T15:50:53Z</time>
      </trkpt>
      <trkpt lat="45.21801" lon="5.14481">
        <ele>353.31</ele>
        <time>2017-02-25T15:50:54Z</time>
      </trkpt>
      <trkpt lat="45.21803" lon="5.14507">
        <ele>353.68</ele>
        <time>2017-02-25T15:50:55Z</time>
      </trkpt>
      <trkpt lat="45.21805" lon="5.14532">
        <ele>354.07</ele>
        <time>2017-02-25T15:50:56Z</time>
      </trkpt>
      <trkpt lat="45.21806" lon="5.14555">
        <ele>354.79</ele>
        <time>2017-02-25T15:50:57Z</time>
      </trkpt>
      <trkpt lat="45.21807" lon="5.14577">
        <ele>355.57</ele>
        <time>2017-02-25T15:50:58Z</time>
      </trkpt>
      <trkpt lat="45.21807" lon="5.14596">
        <ele>356.45</ele>
        <time>2017-02-25T15:50:59Z</time>
      </trkpt>
      <trkpt lat="45.21806" lon="5.14614">
        <ele>357.26</ele>
        <time>2017-02-25T15:51:00Z</time>
      </trkpt>
      <trkpt lat="45.21805" lon="5.14632">
        <ele>358.07</ele>
        <time>2017-02-25T15:51:01Z</time>
      </trkpt>
      <trkpt lat="45.21802" lon="5.14648">
        <ele>358.63</ele>
        <time>2017-02-25T15:51:02Z</time>
      </trkpt>
      <trkpt lat="45.21798" lon="5.14666">
        <ele>358.98</ele>
        <time>2017-02-25T15:51:03Z</time>
      </trkpt>
      <trkpt lat="45.21795" lon="5.14684">
        <ele>359.21</ele>
        <time>2017-02-25T15:51:04Z</time>
      </trkpt>
      <trkpt lat="45.21793" lon="5.14704">
        <ele>359.42</ele>
        <time>2017-02-25T15:51:05Z</time>
      </trkpt>
      <trkpt lat="45.21792" lon="5.14726">
        <ele>359.46</ele>
        <time>2017-02-25T15:51:06Z</time>
      </trkpt>
      <trkpt lat="45.21793" lon="5.1475">
        <ele>359.46</ele>
        <time>2017-02-25T15:51:07Z</time>
      </trkpt>
      <trkpt lat="45.21795" lon="5.14775">
        <ele>359.55</ele>
        <time>2017-02-25T15:51:08Z</time>
      </trkpt>
      <trkpt lat="45.21799" lon="5.148">
        <ele>359.56</ele>
        <time>2017-02-25T15:51:09Z</time>
      </trkpt>
      <trkpt lat="45.21804" lon="5.14825">
        <ele>359.89</ele>
        <time>2017-02-25T15:51:10Z</time>
      </trkpt>
      <trkpt lat="45.2181" lon="5.1485">
        <ele>360.03</ele>
        <time>2017-02-25T15:51:11Z</time>
      </trkpt>
      <trkpt lat="45.21816" lon="5.14875">
        <ele>360.06</ele>
        <time>2017-02-25T15:51:12Z</time>
      </trkpt>
      <trkpt lat="45.21823" lon="5.149">
        <ele>359.99</ele>
        <time>2017-02-25T15:51:13Z</time>
      </trkpt>
      <trkpt lat="45.21829" lon="5.14925">
        <ele>359.89</ele>
        <time>2017-02-25T15:51:14Z</time>
      </trkpt>
      <trkpt lat="45.21836" lon="5.14951">
        <ele>359.95</ele>
        <time>2017-02-25T15:51:15Z</time>
      </trkpt>
      <trkpt lat="45.21842" lon="5.14977">
        <ele>359.96</ele>
        <time>2017-02-25T15:51:16Z</time>
      </trkpt>
      <trkpt lat="45.21849" lon="5.15003">
        <ele>360.37</ele>
        <time>2017-02-25T15:51:17Z</time>
      </trkpt>
      <trkpt lat="45.21855" lon="5.15031">
        <ele>360.69</ele>
        <time>2017-02-25T15:51:18Z</time>
      </trkpt>
      <trkpt lat="45.21862" lon="5.15059">
        <ele>361.15</ele>
        <time>2017-02-25T15:51:19Z</time>
      </trkpt>
      <trkpt lat="45.21868" lon="5.15087">
        <ele>361.8</ele>
        <time>2017-02-25T15:51:20Z</time>
      </trkpt>
      <trkpt lat="45.21875" lon="5.15116">
        <ele>362.49</ele>
        <time>2017-02-25T15:51:21Z</time>
      </trkpt>
      <trkpt lat="45.21882" lon="5.15146">
        <ele>363.11</ele>
        <time>2017-02-25T15:51:22Z</time>
      </trkpt>
      <trkpt lat="45.21889" lon="5.15175">
        <ele>363.56</ele>
        <time>2017-02-25T15:51:23Z</time>
      </trkpt>
      <trkpt lat="45.21895" lon="5.15205">
        <ele>364.28</ele>
        <time>2017-02-25T15:51:24Z</time>
      </trkpt>
      <trkpt lat="45.21901" lon="5.15235">
        <ele>364.83</ele>
        <time>2017-02-25T15:51:25Z</time>
      </trkpt>
      <trkpt lat="45.21906" lon="5.15265">
        <ele>365.42</ele>
        <time>2017-02-25T15:51:26Z</time>
      </trkpt>
      <trkpt lat="45.2191" lon="5.15296">
        <ele>366.5</ele>
        <time>2017-02-25T15:51:27Z</time>
      </trkpt>
      <trkpt lat="45.21914" lon="5.15327">
        <ele>366.95</ele>
        <time>2017-02-25T15:51:28Z</time>
      </trkpt>
      <trkpt lat="45.21918" lon="5.15359">
        <ele>367.44</ele>
        <time>2017-02-25T15:51:29Z</time>
      </trkpt>
      <trkpt lat="45.21922" lon="5.15391">
        <ele>367.38</ele>
        <time>2017-02-25T15:51:30Z</time>
      </trkpt>
      <trkpt lat="45.21925" lon="5.15423">
        <ele>367.45</ele>
        <time>2017-02-25T15:51:31Z</time>
      </trkpt>
      <trkpt lat="45.21928" lon="5.15456">
        <ele>367.46</ele>
        <time>2017-02-25T15:51:32Z</time>
      </trkpt>
      <trkpt lat="45.21931" lon="5.15489">
        <ele>367.63</ele>
        <time>2017-02-25T15:51:33Z</time>
      </trkpt>
      <trkpt lat="45.21934" lon="5.15522">
        <ele>368.14</ele>
        <time>2017-02-25T15:51:34Z</time>
      </trkpt>
      <trkpt lat="45.21937" lon="5.15556">
        <ele>368.96</ele>
        <time>2017-02-25T15:51:35Z</time>
      </trkpt>
      <trkpt lat="45.2194" lon="5.15589">
        <ele>370.01</ele>
        <time>2017-02-25T15:51:36Z</time>
      </trkpt>
      <trkpt lat="45.21943" lon="5.15622">
        <ele>371.25</ele>
        <time>2017-02-25T15:51:37Z</time>
      </trkpt>
      <trkpt lat="45.21946" lon="5.15656">
        <ele>372.14</ele>
        <time>2017-02-25T15:51:38Z</time>
      </trkpt>
      <trkpt lat="45.21949" lon="5.1569">
        <ele>372.96</ele>
        <time>2017-02-25T15:51:39Z</time>
      </trkpt>
      <trkpt lat="45.21952" lon="5.15723">
        <ele>373.93</ele>
        <time>2017-02-25T15:51:40Z</time>
      </trkpt>
      <trkpt lat="45.21955" lon="5.15756">
        <ele>374.68</ele>
        <time>2017-02-25T15:51:41Z</time>
      </trkpt>
      <trkpt lat="45.21958" lon="5.15787">
        <ele>375.87</ele>
        <time>2017-02-25T15:51:42Z</time>
      </trkpt>
      <trkpt lat="45.21962" lon="5.15818">
        <ele>377.31</ele>
        <time>2017-02-25T15:51:43Z</time>
      </trkpt>
      <trkpt lat="45.21967" lon="5.1585">
        <ele>378.56</ele>
        <time>2017-02-25T15:51:44Z</time>
      </trkpt>
      <trkpt lat="45.21975" lon="5.15883">
        <ele>379.6</ele>
        <time>2017-02-25T15:51:45Z</time>
      </trkpt>
      <trkpt lat="45.21983" lon="5.15915">
        <ele>380.69</ele>
        <time>2017-02-25T15:51:46Z</time>
      </trkpt>
      <trkpt lat="45.21991" lon="5.15949">
        <ele>381.63</ele>
        <time>2017-02-25T15:51:47Z</time>
      </trkpt>
      <trkpt lat="45.21999" lon="5.15983">
        <ele>382.38</ele>
        <time>2017-02-25T15:51:48Z</time>
      </trkpt>
      <trkpt lat="45.22007" lon="5.16019">
        <ele>383.25</ele>
        <time>2017-02-25T15:51:49Z</time>
      </trkpt>
      <trkpt lat="45.22016" lon="5.16056">
        <ele>383.98</ele>
        <time>2017-02-25T15:51:50Z</time>
      </trkpt>
      <trkpt lat="45.22025" lon="5.16094">
        <ele>385.17</ele>
        <time>2017-02-25T15:51:51Z</time>
      </trkpt>
      <trkpt lat="45.22034" lon="5.16133">
        <ele>385.73</ele>
        <time>2017-02-25T15:51:52Z</time>
      </trkpt>
      <trkpt lat="45.22043" lon="5.16172">
        <ele>386.48</ele>
        <time>2017-02-25T15:51:53Z</time>
      </trkpt>
      <trkpt lat="45.22053" lon="5.1621">
        <ele>387.11</ele>
        <time>2017-02-25T15:51:54Z</time>
      </trkpt>
      <trkpt lat="45.22062" lon="5.16248">
        <ele>387.88</ele>
        <time>2017-02-25T15:51:55Z</time>
      </trkpt>
      <trkpt lat="45.22071" lon="5.16285">
        <ele>388.27</ele>
        <time>2017-02-25T15:51:56Z</time>
      </trkpt>
      <trkpt lat="45.22079" lon="5.16321">
        <ele>388.91</ele>
        <time>2017-02-25T15:51:57Z</time>
      </trkpt>
      <trkpt lat="45.22088" lon="5.16356">
        <ele>389.44</ele>
        <time>2017-02-25T15:51:58Z</time>
      </trkpt>
      <trkpt lat="45.22096" lon="5.1639">
        <ele>389.94</ele>
        <time>2017-02-25T15:51:59Z</time>
      </trkpt>
      <trkpt lat="45.22105" lon="5.16424">
        <ele>390.76</ele>
        <time>2017-02-25T15:52:00Z</time>
      </trkpt>
      <trkpt lat="45.22113" lon="5.16457">
        <ele>391.65</ele>
        <time>2017-02-25T15:52:01Z</time>
      </trkpt>
      <trkpt lat="45.22121" lon="5.16489">
        <ele>392.22</ele>
        <time>2017-02-25T15:52:02Z</time>
      </trkpt>
      <trkpt lat="45.22128" lon="5.16521">
        <ele>392.74</ele>
        <time>2017-02-25T15:52:03Z</time>
      </trkpt>
      <trkpt lat="45.22136" lon="5.16551">
        <ele>393.16</ele>
        <time>2017-02-25T15:52:04Z</time>
      </trkpt>
      <trkpt lat="45.22143" lon="5.1658">
        <ele>393.97</ele>
        <time>2017-02-25T15:52:05Z</time>
      </trkpt>
      <trkpt lat="45.2215" lon="5.16608">
        <ele>395.01</ele>
        <time>2017-02-25T15:52:06Z</time>
      </trkpt>
      <trkpt lat="45.22156" lon="5.16635">
        <ele>396.09</ele>
        <time>2017-02-25T15:52:07Z</time>
      </trkpt>
      <trkpt lat="45.22163" lon="5.16662">
        <ele>397.35</ele>
        <time>2017-02-25T15:52:08Z</time>
      </trkpt>
      <trkpt lat="45.22169" lon="5.16689">
        <ele>398.48</ele>
        <time>2017-02-25T15:52:09Z</time>
      </trkpt>
      <trkpt lat="45.22176" lon="5.16716">
        <ele>399.59</ele>
        <time>2017-02-25T15:52:10Z</time>
      </trkpt>
      <trkpt lat="45.22182" lon="5.16743">
        <ele>400.37</ele>
        <time>2017-02-25T15:52:11Z</time>
      </trkpt>
      <trkpt lat="45.22189" lon="5.1677">
        <ele>401.01</ele>
        <time>2017-02-25T15:52:12Z</time>
      </trkpt>
      <trkpt lat="45.22195" lon="5.16796">
        <ele>401.54</ele>
        <time>2017-02-25T15:52:13Z</time>
      </trkpt>
      <trkpt lat="45.22202" lon="5.16824">
        <ele>401.88</ele>
        <time>2017-02-25T15:52:14Z</time>
      </trkpt>
      <trkpt lat="45.22207" lon="5.16852">
        <ele>402.35</ele>
        <time>2017-02-25T15:52:15Z</time>
      </trkpt>
      <trkpt lat="45.22212" lon="5.16882">
        <ele>402.68</ele>
        <time>2017-02-25T15:52:16Z</time>
      </trkpt>
      <trkpt lat="45.22216" lon="5.16912">
        <ele>402.99</ele>
        <time>2017-02-25T15:52:17Z</time>
      </trkpt>
      <trkpt lat="45.22219" lon="5.16943">
        <ele>403.53</ele>
        <time>2017-02-25T15:52:18Z</time>
      </trkpt>
      <trkpt lat="45.22221" lon="5.16973">
        <ele>403.96</ele>
        <time>2017-02-25T15:52:19Z</time>
      </trkpt>
      <trkpt lat="45.22224" lon="5.17005">
        <ele>404.29</ele>
        <time>2017-02-25T15:52:20Z</time>
      </trkpt>
      <trkpt lat="45.22227" lon="5.17036">
        <ele>404.51</ele>
        <time>2017-02-25T15:52:21Z</time>
      </trkpt>
      <trkpt lat="45.2223" lon="5.17068">
        <ele>404.56</ele>
        <time>2017-02-25T15:52:22Z</time>
      </trkpt>
      <trkpt lat="45.22233" lon="5.17099">
        <ele>404.56</ele>
        <time>2017-02-25T15:52:23Z</time>
      </trkpt>
      <trkpt lat="45.22237" lon="5.1713">
        <ele>404.65</ele>
        <time>2017-02-25T15:52:24Z</time>
      </trkpt>
      <trkpt lat="45.22239" lon="5.17161">
        <ele>404.58</ele>
        <time>2017-02-25T15:52:25Z</time>
      </trkpt>
      <trkpt lat="45.22242" lon="5.17192">
        <ele>404.65</ele>
        <time>2017-02-25T15:52:26Z</time>
      </trkpt>
      <trkpt lat="45.22245" lon="5.17223">
        <ele>404.9</ele>
        <time>2017-02-25T15:52:27Z</time>
      </trkpt>
      <trkpt lat="45.22248" lon="5.17255">
        <ele>405.11</ele>
        <time>2017-02-25T15:52:28Z</time>
      </trkpt>
      <trkpt lat="45.22251" lon="5.17285">
        <ele>405.4</ele>
        <time>2017-02-25T15:52:29Z</time>
      </trkpt>
      <trkpt lat="45.22253" lon="5.17316">
        <ele>405.45</ele>
        <time>2017-02-25T15:52:30Z</time>
      </trkpt>
      <trkpt lat="45.22256" lon="5.17344">
        <ele>405.54</ele>
        <time>2017-02-25T15:52:31Z</time>
      </trkpt>
      <trkpt lat="45.22259" lon="5.17371">
        <ele>405.64</ele>
        <time>2017-02-25T15:52:32Z</time>
      </trkpt>
      <trkpt lat="45.22262" lon="5.17398">
        <ele>405.66</ele>
        <time>2017-02-25T15:52:33Z</time>
      </trkpt>
      <trkpt lat="45.22265" lon="5.17425">
        <ele>405.75</ele>
        <time>2017-02-25T15:52:34Z</time>
      </trkpt>
      <trkpt lat="45.22267" lon="5.17452">
        <ele>405.84</ele>
        <time>2017-02-25T15:52:35Z</time>
      </trkpt>
      <trkpt lat="45.2227" lon="5.1748">
        <ele>406.1</ele>
        <time>2017-02-25T15:52:36Z</time>
      </trkpt>
      <trkpt lat="45.22273" lon="5.17507">
        <ele>406.31</ele>
        <time>2017-02-25T15:52:37Z</time>
      </trkpt>
      <trkpt lat="45.22275" lon="5.17534">
        <ele>406.52</ele>
        <time>2017-02-25T15:52:38Z</time>
      </trkpt>
      <trkpt lat="45.22278" lon="5.17559">
        <ele>406.72</ele>
        <time>2017-02-25T15:52:39Z</time>
      </trkpt>
      <trkpt lat="45.22281" lon="5.17583">
        <ele>407</ele>
        <time>2017-02-25T15:52:40Z</time>
      </trkpt>
      <trkpt lat="45.22283" lon="5.17607">
        <ele>407.21</ele>
        <time>2017-02-25T15:52:41Z</time>
      </trkpt>
      <trkpt lat="45.22286" lon="5.17632">
        <ele>407.58</ele>
        <time>2017-02-25T15:52:42Z</time>
      </trkpt>
      <trkpt lat="45.22288" lon="5.17658">
        <ele>407.97</ele>
        <time>2017-02-25T15:52:43Z</time>
      </trkpt>
      <trkpt lat="45.22289" lon="5.17686">
        <ele>408.53</ele>
        <time>2017-02-25T15:52:44Z</time>
      </trkpt>
      <trkpt lat="45.22292" lon="5.17713">
        <ele>408.88</ele>
        <time>2017-02-25T15:52:45Z</time>
      </trkpt>
      <trkpt lat="45.22294" lon="5.1774">
        <ele>409.27</ele>
        <time>2017-02-25T15:52:46Z</time>
      </trkpt>
      <trkpt lat="45.22296" lon="5.17765">
        <ele>409.75</ele>
        <time>2017-02-25T15:52:47Z</time>
      </trkpt>
      <trkpt lat="45.22299" lon="5.1779">
        <ele>410.32</ele>
        <time>2017-02-25T15:52:48Z</time>
      </trkpt>
      <trkpt lat="45.22302" lon="5.17815">
        <ele>410.84</ele>
        <time>2017-02-25T15:52:49Z</time>
      </trkpt>
      <trkpt lat="45.22305" lon="5.17841">
        <ele>411.18</ele>
        <time>2017-02-25T15:52:50Z</time>
      </trkpt>
      <trkpt lat="45.22307" lon="5.17866">
        <ele>411.33</ele>
        <time>2017-02-25T15:52:51Z</time>
      </trkpt>
      <trkpt lat="45.2231" lon="5.17893">
        <ele>411.68</ele>
        <time>2017-02-25T15:52:52Z</time>
      </trkpt>
      <trkpt lat="45.22312" lon="5.17919">
        <ele>411.91</ele>
        <time>2017-02-25T15:52:53Z</time>
      </trkpt>
      <trkpt lat="45.22314" lon="5.17945">
        <ele>412.2</ele>
        <time>2017-02-25T15:52:54Z</time>
      </trkpt>
      <trkpt lat="45.22317" lon="5.17971">
        <ele>412.41</ele>
        <time>2017-02-25T15:52:55Z</time>
      </trkpt>
      <trkpt lat="45.2232" lon="5.17996">
        <ele>412.62</ele>
        <time>2017-02-25T15:52:56Z</time>
      </trkpt>
      <trkpt lat="45.22323" lon="5.1802">
        <ele>412.74</ele>
        <time>2017-02-25T15:52:57Z</time>
      </trkpt>
      <trkpt lat="45.22326" lon="5.18044">
        <ele>412.92</ele>
        <time>2017-02-25T15:52:58Z</time>
      </trkpt>
      <trkpt lat="45.22328" lon="5.1807">
        <ele>413.36</ele>
        <time>2017-02-25T15:52:59Z</time>
      </trkpt>
      <trkpt lat="45.2233" lon="5.18096">
        <ele>413.61</ele>
        <time>2017-02-25T15:53:00Z</time>
      </trkpt>
      <trkpt lat="45.22332" lon="5.18122">
        <ele>413.81</ele>
        <time>2017-02-25T15:53:01Z</time>
      </trkpt>
      <trkpt lat="45.22335" lon="5.18149">
        <ele>414.02</ele>
        <time>2017-02-25T15:53:02Z</time>
      </trkpt>
      <trkpt lat="45.22339" lon="5.18176">
        <ele>414.38</ele>
        <time>2017-02-25T15:53:03Z</time>
      </trkpt>
      <trkpt lat="45.22343" lon="5.18201">
        <ele>414.85</ele>
        <time>2017-02-25T15:53:04Z</time>
      </trkpt>
      <trkpt lat="45.22348" lon="5.18225">
        <ele>415.34</ele>
        <time>2017-02-25T15:53:05Z</time>
      </trkpt>
      <trkpt lat="45.22352" lon="5.18246">
        <ele>415.76</ele>
        <time>2017-02-25T15:53:06Z</time>
      </trkpt>
      <trkpt lat="45.22356" lon="5.18268">
        <ele>416.01</ele>
        <time>2017-02-25T15:53:07Z</time>
      </trkpt>
      <trkpt lat="45.2236" lon="5.18291">
        <ele>416.05</ele>
        <time>2017-02-25T15:53:08Z</time>
      </trkpt>
      <trkpt lat="45.22364" lon="5.18314">
        <ele>416.06</ele>
        <time>2017-02-25T15:53:09Z</time>
      </trkpt>
      <trkpt lat="45.22369" lon="5.18338">
        <ele>416.31</ele>
        <time>2017-02-25T15:53:10Z</time>
      </trkpt>
      <trkpt lat="45.22374" lon="5.18363">
        <ele>416.83</ele>
        <time>2017-02-25T15:53:11Z</time>
      </trkpt>
      <trkpt lat="45.2238" lon="5.1839">
        <ele>417.42</ele>
        <time>2017-02-25T15:53:12Z</time>
      </trkpt>
      <trkpt lat="45.22385" lon="5.18417">
        <ele>417.94</ele>
        <time>2017-02-25T15:53:13Z</time>
      </trkpt>
      <trkpt lat="45.2239" lon="5.18445">
        <ele>418.28</ele>
        <time>2017-02-25T15:53:14Z</time>
      </trkpt>
      <trkpt lat="45.22396" lon="5.18473">
        <ele>418.67</ele>
        <time>2017-02-25T15:53:15Z</time>
      </trkpt>
      <trkpt lat="45.22401" lon="5.185">
        <ele>418.99</ele>
        <time>2017-02-25T15:53:16Z</time>
      </trkpt>
      <trkpt lat="45.22406" lon="5.18526">
        <ele>419.45</ele>
        <time>2017-02-25T15:53:17Z</time>
      </trkpt>
      <trkpt lat="45.22411" lon="5.1855">
        <ele>419.86</ele>
        <time>2017-02-25T15:53:18Z</time>
      </trkpt>
      <trkpt lat="45.22415" lon="5.18571">
        <ele>419.87</ele>
        <time>2017-02-25T15:53:19Z</time>
      </trkpt>
      <trkpt lat="45.22419" lon="5.18591">
        <ele>420.03</ele>
        <time>2017-02-25T15:53:20Z</time>
      </trkpt>
      <trkpt lat="45.22424" lon="5.1861">
        <ele>420.3</ele>
        <time>2017-02-25T15:53:21Z</time>
      </trkpt>
      <trkpt lat="45.22431" lon="5.18629">
        <ele>420.67</ele>
        <time>2017-02-25T15:53:22Z</time>
      </trkpt>
      <trkpt lat="45.22443" lon="5.18648">
        <ele>421.15</ele>
        <time>2017-02-25T15:53:23Z</time>
      </trkpt>
      <trkpt lat="45.22455" lon="5.1867">
        <ele>421.64</ele>
        <time>2017-02-25T15:53:24Z</time>
      </trkpt>
      <trkpt lat="45.22469" lon="5.18693">
        <ele>421.82</ele>
        <time>2017-02-25T15:53:25Z</time>
      </trkpt>
      <trkpt lat="45.22484" lon="5.18718">
        <ele>421.94</ele>
        <time>2017-02-25T15:53:26Z</time>
      </trkpt>
      <trkpt lat="45.225" lon="5.18744">
        <ele>422.44</ele>
        <time>2017-02-25T15:53:27Z</time>
      </trkpt>
      <trkpt lat="45.22517" lon="5.1877">
        <ele>423.18</ele>
        <time>2017-02-25T15:53:28Z</time>
      </trkpt>
      <trkpt lat="45.22534" lon="5.18797">
        <ele>423.97</ele>
        <time>2017-02-25T15:53:29Z</time>
      </trkpt>
      <trkpt lat="45.22551" lon="5.18824">
        <ele>424.85</ele>
        <time>2017-02-25T15:53:30Z</time>
      </trkpt>
      <trkpt lat="45.22568" lon="5.18852">
        <ele>425.82</ele>
        <time>2017-02-25T15:53:31Z</time>
      </trkpt>
      <trkpt lat="45.22585" lon="5.18879">
        <ele>426.66</ele>
        <time>2017-02-25T15:53:32Z</time>
      </trkpt>
      <trkpt lat="45.22602" lon="5.18907">
        <ele>427.55</ele>
        <time>2017-02-25T15:53:33Z</time>
      </trkpt>
      <trkpt lat="45.22619" lon="5.18933">
        <ele>428.12</ele>
        <time>2017-02-25T15:53:34Z</time>
      </trkpt>
      <trkpt lat="45.22636" lon="5.18959">
        <ele>428.88</ele>
        <time>2017-02-25T15:53:35Z</time>
      </trkpt>
      <trkpt lat="45.22651" lon="5.18984">
        <ele>429.51</ele>
        <time>2017-02-25T15:53:36Z</time>
      </trkpt>
      <trkpt lat="45.22666" lon="5.19008">
        <ele>429.72</ele>
        <time>2017-02-25T15:53:37Z</time>
      </trkpt>
      <trkpt lat="45.2268" lon="5.19032">
        <ele>429.92</ele>
        <time>2017-02-25T15:53:38Z</time>
      </trkpt>
      <trkpt lat="45.22694" lon="5.19055">
        <ele>430.2</ele>
        <time>2017-02-25T15:53:39Z</time>
      </trkpt>
      <trkpt lat="45.22708" lon="5.19078">
        <ele>430.57</ele>
        <time>2017-02-25T15:53:40Z</time>
      </trkpt>
      <trkpt lat="45.22722" lon="5.19101">
        <ele>430.89</ele>
        <time>2017-02-25T15:53:41Z</time>
      </trkpt>
      <trkpt lat="45.22735" lon="5.19123">
        <ele>431.03</ele>
        <time>2017-02-25T15:53:42Z</time>
      </trkpt>
      <trkpt lat="45.22749" lon="5.19143">
        <ele>431.46</ele>
        <time>2017-02-25T15:53:43Z</time>
      </trkpt>
      <trkpt lat="45.22764" lon="5.1916">
        <ele>432.03</ele>
        <time>2017-02-25T15:53:44Z</time>
      </trkpt>
      <trkpt lat="45.2278" lon="5.19174">
        <ele>432.7</ele>
        <time>2017-02-25T15:53:45Z</time>
      </trkpt>
      <trkpt lat="45.22798" lon="5.19185">
        <ele>433.39</ele>
        <time>2017-02-25T15:53:46Z</time>
      </trkpt>
      <trkpt lat="45.22816" lon="5.19193">
        <ele>434.25</ele>
        <time>2017-02-25T15:53:47Z</time>
      </trkpt>
      <trkpt lat="45.22838" lon="5.19195">
        <ele>435.46</ele>
        <time>2017-02-25T15:53:48Z</time>
      </trkpt>
      <trkpt lat="45.22859" lon="5.19194">
        <ele>436.43</ele>
        <time>2017-02-25T15:53:49Z</time>
      </trkpt>
      <trkpt lat="45.22881" lon="5.19192">
        <ele>437.18</ele>
        <time>2017-02-25T15:53:50Z</time>
      </trkpt>
      <trkpt lat="45.22902" lon="5.19188">
        <ele>437.81</ele>
        <time>2017-02-25T15:53:51Z</time>
      </trkpt>
      <trkpt lat="45.22925" lon="5.19183">
        <ele>438.26</ele>
        <time>2017-02-25T15:53:52Z</time>
      </trkpt>
      <trkpt lat="45.22948" lon="5.19177">
        <ele>438.9</ele>
        <time>2017-02-25T15:53:53Z</time>
      </trkpt>
      <trkpt lat="45.22971" lon="5.19172">
        <ele>439.67</ele>
        <time>2017-02-25T15:53:54Z</time>
      </trkpt>
      <trkpt lat="45.22994" lon="5.19167">
        <ele>440.55</ele>
        <time>2017-02-25T15:53:55Z</time>
      </trkpt>
      <trkpt lat="45.23017" lon="5.19162">
        <ele>441.2</ele>
        <time>2017-02-25T15:53:56Z</time>
      </trkpt>
      <trkpt lat="45.23041" lon="5.19157">
        <ele>441.97</ele>
        <time>2017-02-25T15:53:57Z</time>
      </trkpt>
      <trkpt lat="45.23064" lon="5.19151">
        <ele>442.85</ele>
        <time>2017-02-25T15:53:58Z</time>
      </trkpt>
      <trkpt lat="45.23087" lon="5.19146">
        <ele>443.9</ele>
        <time>2017-02-25T15:53:59Z</time>
      </trkpt>
      <trkpt lat="45.2311" lon="5.1914">
        <ele>444.75</ele>
        <time>2017-02-25T15:54:00Z</time>
      </trkpt>
      <trkpt lat="45.23132" lon="5.19135">
        <ele>445.48</ele>
        <time>2017-02-25T15:54:01Z</time>
      </trkpt>
      <trkpt lat="45.23154" lon="5.1913">
        <ele>446.19</ele>
        <time>2017-02-25T15:54:02Z</time>
      </trkpt>
      <trkpt lat="45.23177" lon="5.19127">
        <ele>446.97</ele>
        <time>2017-02-25T15:54:03Z</time>
      </trkpt>
      <trkpt lat="45.23199" lon="5.19128">
        <ele>447.85</ele>
        <time>2017-02-25T15:54:04Z</time>
      </trkpt>
      <trkpt lat="45.2322" lon="5.19132">
        <ele>448.42</ele>
        <time>2017-02-25T15:54:05Z</time>
      </trkpt>
      <trkpt lat="45.23242" lon="5.19138">
        <ele>449.18</ele>
        <time>2017-02-25T15:54:06Z</time>
      </trkpt>
      <trkpt lat="45.23264" lon="5.19145">
        <ele>449.89</ele>
        <time>2017-02-25T15:54:07Z</time>
      </trkpt>
      <trkpt lat="45.23285" lon="5.19151">
        <ele>450.43</ele>
        <time>2017-02-25T15:54:08Z</time>
      </trkpt>
      <trkpt lat="45.23306" lon="5.19157">
        <ele>451.1</ele>
        <time>2017-02-25T15:54:09Z</time>
      </trkpt>
      <trkpt lat="45.23327" lon="5.19162">
        <ele>451.71</ele>
        <time>2017-02-25T15:54:10Z</time>
      </trkpt>
      <trkpt lat="45.23347" lon="5.19167">
        <ele>452.32</ele>
        <time>2017-02-25T15:54:11Z</time>
      </trkpt>
      <trkpt lat="45.23367" lon="5.19173">
        <ele>453</ele>
        <time>2017-02-25T15:54:12Z</time>
      </trkpt>
      <trkpt lat="45.23386" lon="5.19181">
        <ele>453.69</ele>
        <time>2017-02-25T15:54:13Z</time>
      </trkpt>
      <trkpt lat="45.23405" lon="5.19191">
        <ele>454.47</ele>
        <time>2017-02-25T15:54:14Z</time>
      </trkpt>
      <trkpt lat="45.23423" lon="5.19204">
        <ele>455.19</ele>
        <time>2017-02-25T15:54:15Z</time>
      </trkpt>
      <trkpt lat="45.23442" lon="5.19219">
        <ele>456.05</ele>
        <time>2017-02-25T15:54:16Z</time>
      </trkpt>
      <trkpt lat="45.2346" lon="5.19233">
        <ele>456.86</ele>
        <time>2017-02-25T15:54:17Z</time>
      </trkpt>
      <trkpt lat="45.23479" lon="5.19248">
        <ele>457.75</ele>
        <time>2017-02-25T15:54:18Z</time>
      </trkpt>
      <trkpt lat="45.23497" lon="5.19263">
        <ele>458.64</ele>
        <time>2017-02-25T15:54:19Z</time>
      </trkpt>
      <trkpt lat="45.23515" lon="5.1928">
        <ele>459.22</ele>
        <time>2017-02-25T15:54:20Z</time>
      </trkpt>
      <trkpt lat="45.23532" lon="5.19299">
        <ele>459.82</ele>
        <time>2017-02-25T15:54:21Z</time>
      </trkpt>
      <trkpt lat="45.23549" lon="5.19318">
        <ele>460.42</ele>
        <time>2017-02-25T15:54:22Z</time>
      </trkpt>
      <trkpt lat="45.23565" lon="5.19337">
        <ele>460.94</ele>
        <time>2017-02-25T15:54:23Z</time>
      </trkpt>
      <trkpt lat="45.23581" lon="5.19356">
        <ele>461.52</ele>
        <time>2017-02-25T15:54:24Z</time>
      </trkpt>
      <trkpt lat="45.23595" lon="5.19375">
        <ele>462.12</ele>
        <time>2017-02-25T15:54:25Z</time>
      </trkpt>
      <trkpt lat="45.23607" lon="5.19395">
        <ele>462.8</ele>
        <time>2017-02-25T15:54:26Z</time>
      </trkpt>
      <trkpt lat="45.23621" lon="5.19414">
        <ele>463.57</ele>
        <time>2017-02-25T15:54:27Z</time>
      </trkpt>
      <trkpt lat="45.23633" lon="5.19434">
        <ele>464.61</ele>
        <time>2017-02-25T15:54:28Z</time>
      </trkpt>
      <trkpt lat="45.23645" lon="5.19456">
        <ele>465.46</ele>
        <time>2017-02-25T15:54:29Z</time>
      </trkpt>
      <trkpt lat="45.23655" lon="5.19478">
        <ele>466.18</ele>
        <time>2017-02-25T15:54:30Z</time>
      </trkpt>
      <trkpt lat="45.23661" lon="5.19504">
        <ele>467.37</ele>
        <time>2017-02-25T15:54:31Z</time>
      </trkpt>
      <trkpt lat="45.23665" lon="5.19529">
        <ele>468.65</ele>
        <time>2017-02-25T15:54:32Z</time>
      </trkpt>
      <trkpt lat="45.23671" lon="5.19553">
        <ele>469.94</ele>
        <time>2017-02-25T15:54:33Z</time>
      </trkpt>
      <trkpt lat="45.23677" lon="5.19577">
        <ele>471</ele>
        <time>2017-02-25T15:54:34Z</time>
      </trkpt>
      <trkpt lat="45.23683" lon="5.19602">
        <ele>471.93</ele>
        <time>2017-02-25T15:54:35Z</time>
      </trkpt>
      <trkpt lat="45.23688" lon="5.19628">
        <ele>472.6</ele>
        <time>2017-02-25T15:54:36Z</time>
      </trkpt>
      <trkpt lat="45.23692" lon="5.19656">
        <ele>472.97</ele>
        <time>2017-02-25T15:54:37Z</time>
      </trkpt>
      <trkpt lat="45.23696" lon="5.19684">
        <ele>473.37</ele>
        <time>2017-02-25T15:54:38Z</time>
      </trkpt>
      <trkpt lat="45.23699" lon="5.19715">
        <ele>473.77</ele>
        <time>2017-02-25T15:54:39Z</time>
      </trkpt>
      <trkpt lat="45.237" lon="5.19747">
        <ele>474.25</ele>
        <time>2017-02-25T15:54:40Z</time>
      </trkpt>
      <trkpt lat="45.23684" lon="5.1979">
        <ele>475.38</ele>
        <time>2017-02-25T15:54:41Z</time>
      </trkpt>
      <trkpt lat="45.23681" lon="5.19822">
        <ele>476.17</ele>
        <time>2017-02-25T15:54:42Z</time>
      </trkpt>
      <trkpt lat="45.23671" lon="5.19853">
        <ele>476.33</ele>
        <time>2017-02-25T15:54:43Z</time>
      </trkpt>
      <trkpt lat="45.23655" lon="5.19887">
        <ele>475.48</ele>
        <time>2017-02-25T15:54:44Z</time>
      </trkpt>
      <trkpt lat="45.23644" lon="5.19916">
        <ele>475.15</ele>
        <time>2017-02-25T15:54:45Z</time>
      </trkpt>
      <trkpt lat="45.23635" lon="5.19943">
        <ele>475.24</ele>
        <time>2017-02-25T15:54:46Z</time>
      </trkpt>
      <trkpt lat="45.2363" lon="5.19963">
        <ele>475.74</ele>
        <time>2017-02-25T15:54:47Z</time>
      </trkpt>
      <trkpt lat="45.23628" lon="5.19982">
        <ele>476.4</ele>
        <time>2017-02-25T15:54:48Z</time>
      </trkpt>
      <trkpt lat="45.23627" lon="5.2">
        <ele>477.09</ele>
        <time>2017-02-25T15:54:49Z</time>
      </trkpt>
      <trkpt lat="45.23627" lon="5.20019">
        <ele>477.79</ele>
        <time>2017-02-25T15:54:50Z</time>
      </trkpt>
      <trkpt lat="45.2363" lon="5.20037">
        <ele>478.57</ele>
        <time>2017-02-25T15:54:51Z</time>
      </trkpt>
      <trkpt lat="45.23637" lon="5.20056">
        <ele>479.13</ele>
        <time>2017-02-25T15:54:52Z</time>
      </trkpt>
      <trkpt lat="45.23645" lon="5.20075">
        <ele>479.56</ele>
        <time>2017-02-25T15:54:53Z</time>
      </trkpt>
      <trkpt lat="45.23653" lon="5.20094">
        <ele>480.05</ele>
        <time>2017-02-25T15:54:54Z</time>
      </trkpt>
      <trkpt lat="45.23662" lon="5.20114">
        <ele>480.62</ele>
        <time>2017-02-25T15:54:55Z</time>
      </trkpt>
      <trkpt lat="45.23673" lon="5.20133">
        <ele>481.22</ele>
        <time>2017-02-25T15:54:56Z</time>
      </trkpt>
      <trkpt lat="45.23683" lon="5.20153">
        <ele>482.14</ele>
        <time>2017-02-25T15:54:57Z</time>
      </trkpt>
      <trkpt lat="45.23692" lon="5.20175">
        <ele>483.04</ele>
        <time>2017-02-25T15:54:58Z</time>
      </trkpt>
      <trkpt lat="45.23702" lon="5.20196">
        <ele>484.58</ele>
        <time>2017-02-25T15:54:59Z</time>
      </trkpt>
      <trkpt lat="45.2371" lon="5.2022">
        <ele>486.49</ele>
        <time>2017-02-25T15:55:00Z</time>
      </trkpt>
      <trkpt lat="45.23715" lon="5.20245">
        <ele>487.83</ele>
        <time>2017-02-25T15:55:01Z</time>
      </trkpt>
      <trkpt lat="45.23719" lon="5.2027">
        <ele>489.54</ele>
        <time>2017-02-25T15:55:02Z</time>
      </trkpt>
      <trkpt lat="45.23721" lon="5.20295">
        <ele>491</ele>
        <time>2017-02-25T15:55:03Z</time>
      </trkpt>
      <trkpt lat="45.23719" lon="5.20321">
        <ele>492.33</ele>
        <time>2017-02-25T15:55:04Z</time>
      </trkpt>
      <trkpt lat="45.23715" lon="5.20345">
        <ele>493.32</ele>
        <time>2017-02-25T15:55:05Z</time>
      </trkpt>
      <trkpt lat="45.23709" lon="5.20369">
        <ele>494.08</ele>
        <time>2017-02-25T15:55:06Z</time>
      </trkpt>
      <trkpt lat="45.23703" lon="5.20391">
        <ele>495.03</ele>
        <time>2017-02-25T15:55:07Z</time>
      </trkpt>
      <trkpt lat="45.23696" lon="5.20411">
        <ele>496.02</ele>
        <time>2017-02-25T15:55:08Z</time>
      </trkpt>
      <trkpt lat="45.23688" lon="5.20426">
        <ele>496.94</ele>
        <time>2017-02-25T15:55:09Z</time>
      </trkpt>
      <trkpt lat="45.23679" lon="5.20441">
        <ele>497.68</ele>
        <time>2017-02-25T15:55:10Z</time>
      </trkpt>
      <trkpt lat="45.23673" lon="5.20457">
        <ele>498.47</ele>
        <time>2017-02-25T15:55:11Z</time>
      </trkpt>
      <trkpt lat="45.2367" lon="5.20474">
        <ele>499.35</ele>
        <time>2017-02-25T15:55:12Z</time>
      </trkpt>
      <trkpt lat="45.2367" lon="5.20492">
        <ele>499.76</ele>
        <time>2017-02-25T15:55:13Z</time>
      </trkpt>
      <trkpt lat="45.23673" lon="5.20509">
        <ele>500.25</ele>
        <time>2017-02-25T15:55:14Z</time>
      </trkpt>
      <trkpt lat="45.23678" lon="5.20526">
        <ele>500.66</ele>
        <time>2017-02-25T15:55:15Z</time>
      </trkpt>
      <trkpt lat="45.23684" lon="5.20542">
        <ele>501.31</ele>
        <time>2017-02-25T15:55:16Z</time>
      </trkpt>
      <trkpt lat="45.23692" lon="5.20559">
        <ele>502.15</ele>
        <time>2017-02-25T15:55:17Z</time>
      </trkpt>
      <trkpt lat="45.23698" lon="5.20576">
        <ele>502.96</ele>
        <time>2017-02-25T15:55:18Z</time>
      </trkpt>
      <trkpt lat="45.23703" lon="5.20594">
        <ele>503.93</ele>
        <time>2017-02-25T15:55:19Z</time>
      </trkpt>
      <trkpt lat="45.23707" lon="5.20612">
        <ele>504.92</ele>
        <time>2017-02-25T15:55:20Z</time>
      </trkpt>
      <trkpt lat="45.23711" lon="5.2063">
        <ele>506</ele>
        <time>2017-02-25T15:55:21Z</time>
      </trkpt>
      <trkpt lat="45.23715" lon="5.20648">
        <ele>507.09</ele>
        <time>2017-02-25T15:55:22Z</time>
      </trkpt>
      <trkpt lat="45.23718" lon="5.20665">
        <ele>507.71</ele>
        <time>2017-02-25T15:55:23Z</time>
      </trkpt>
      <trkpt lat="45.23723" lon="5.20679">
        <ele>508.72</ele>
        <time>2017-02-25T15:55:24Z</time>
      </trkpt>
      <trkpt lat="45.23728" lon="5.20692">
        <ele>509.64</ele>
        <time>2017-02-25T15:55:25Z</time>
      </trkpt>
      <trkpt lat="45.23738" lon="5.20698">
        <ele>510.7</ele>
        <time>2017-02-25T15:55:26Z</time>
      </trkpt>
      <trkpt lat="45.23748" lon="5.20702">
        <ele>511.79</ele>
        <time>2017-02-25T15:55:27Z</time>
      </trkpt>
      <trkpt lat="45.23759" lon="5.20705">
        <ele>512.73</ele>
        <time>2017-02-25T15:55:28Z</time>
      </trkpt>
      <trkpt lat="45.23774" lon="5.20705">
        <ele>513.56</ele>
        <time>2017-02-25T15:55:29Z</time>
      </trkpt>
      <trkpt lat="45.23792" lon="5.20703">
        <ele>514.37</ele>
        <time>2017-02-25T15:55:30Z</time>
      </trkpt>
      <trkpt lat="45.2381" lon="5.20701">
        <ele>515.17</ele>
        <time>2017-02-25T15:55:31Z</time>
      </trkpt>
      <trkpt lat="45.23829" lon="5.20698">
        <ele>515.57</ele>
        <time>2017-02-25T15:55:32Z</time>
      </trkpt>
      <trkpt lat="45.23847" lon="5.20697">
        <ele>515.65</ele>
        <time>2017-02-25T15:55:33Z</time>
      </trkpt>
      <trkpt lat="45.23865" lon="5.20696">
        <ele>515.1</ele>
        <time>2017-02-25T15:55:34Z</time>
      </trkpt>
      <trkpt lat="45.23882" lon="5.20695">
        <ele>514.35</ele>
        <time>2017-02-25T15:55:35Z</time>
      </trkpt>
      <trkpt lat="45.23898" lon="5.20694">
        <ele>513.48</ele>
        <time>2017-02-25T15:55:36Z</time>
      </trkpt>
      <trkpt lat="45.23913" lon="5.20692">
        <ele>512.75</ele>
        <time>2017-02-25T15:55:37Z</time>
      </trkpt>
      <trkpt lat="45.23928" lon="5.20686">
        <ele>512.28</ele>
        <time>2017-02-25T15:55:38Z</time>
      </trkpt>
      <trkpt lat="45.23941" lon="5.20677">
        <ele>511.71</ele>
        <time>2017-02-25T15:55:39Z</time>
      </trkpt>
      <trkpt lat="45.23954" lon="5.20668">
        <ele>511.2</ele>
        <time>2017-02-25T15:55:40Z</time>
      </trkpt>
      <trkpt lat="45.23966" lon="5.20661">
        <ele>510.45</ele>
        <time>2017-02-25T15:55:41Z</time>
      </trkpt>
      <trkpt lat="45.23979" lon="5.20659">
        <ele>509.5</ele>
        <time>2017-02-25T15:55:42Z</time>
      </trkpt>
      <trkpt lat="45.23994" lon="5.20661">
        <ele>508.67</ele>
        <time>2017-02-25T15:55:43Z</time>
      </trkpt>
      <trkpt lat="45.24008" lon="5.20668">
        <ele>507.79</ele>
        <time>2017-02-25T15:55:44Z</time>
      </trkpt>
      <trkpt lat="45.24023" lon="5.20678">
        <ele>506.89</ele>
        <time>2017-02-25T15:55:45Z</time>
      </trkpt>
      <trkpt lat="45.24038" lon="5.20691">
        <ele>506.15</ele>
        <time>2017-02-25T15:55:46Z</time>
      </trkpt>
      <trkpt lat="45.24052" lon="5.20705">
        <ele>505.36</ele>
        <time>2017-02-25T15:55:47Z</time>
      </trkpt>
      <trkpt lat="45.24066" lon="5.20719">
        <ele>504.81</ele>
        <time>2017-02-25T15:55:48Z</time>
      </trkpt>
      <trkpt lat="45.24078" lon="5.20732">
        <ele>504.13</ele>
        <time>2017-02-25T15:55:49Z</time>
      </trkpt>
      <trkpt lat="45.24088" lon="5.20745">
        <ele>503.52</ele>
        <time>2017-02-25T15:55:50Z</time>
      </trkpt>
      <trkpt lat="45.24097" lon="5.20758">
        <ele>502.68</ele>
        <time>2017-02-25T15:55:51Z</time>
      </trkpt>
      <trkpt lat="45.24103" lon="5.20771">
        <ele>501.95</ele>
        <time>2017-02-25T15:55:52Z</time>
      </trkpt>
      <trkpt lat="45.24108" lon="5.20783">
        <ele>501.24</ele>
        <time>2017-02-25T15:55:53Z</time>
      </trkpt>
      <trkpt lat="45.24108" lon="5.20799">
        <ele>500.7</ele>
        <time>2017-02-25T15:55:54Z</time>
      </trkpt>
      <trkpt lat="45.24103" lon="5.20818">
        <ele>500.11</ele>
        <time>2017-02-25T15:55:55Z</time>
      </trkpt>
      <trkpt lat="45.24102" lon="5.20836">
        <ele>499.36</ele>
        <time>2017-02-25T15:55:56Z</time>
      </trkpt>
      <trkpt lat="45.24103" lon="5.20857">
        <ele>498.56</ele>
        <time>2017-02-25T15:55:57Z</time>
      </trkpt>
      <trkpt lat="45.24106" lon="5.20879">
        <ele>497.61</ele>
        <time>2017-02-25T15:55:58Z</time>
      </trkpt>
      <trkpt lat="45.2411" lon="5.20902">
        <ele>496.77</ele>
        <time>2017-02-25T15:55:59Z</time>
      </trkpt>
      <trkpt lat="45.24111" lon="5.20928">
        <ele>496.13</ele>
        <time>2017-02-25T15:56:00Z</time>
      </trkpt>
      <trkpt lat="45.24116" lon="5.20949">
        <ele>495.36</ele>
        <time>2017-02-25T15:56:01Z</time>
      </trkpt>
      <trkpt lat="45.24119" lon="5.20971">
        <ele>494.49</ele>
        <time>2017-02-25T15:56:02Z</time>
      </trkpt>
      <trkpt lat="45.24122" lon="5.20992">
        <ele>493.59</ele>
        <time>2017-02-25T15:56:03Z</time>
      </trkpt>
      <trkpt lat="45.24123" lon="5.21016">
        <ele>492.85</ele>
        <time>2017-02-25T15:56:04Z</time>
      </trkpt>
      <trkpt lat="45.24123" lon="5.21036">
        <ele>492.06</ele>
        <time>2017-02-25T15:56:05Z</time>
      </trkpt>
      <trkpt lat="45.24123" lon="5.21053">
        <ele>491.27</ele>
        <time>2017-02-25T15:56:06Z</time>
      </trkpt>
      <trkpt lat="45.24123" lon="5.21066">
        <ele>490.47</ele>
        <time>2017-02-25T15:56:07Z</time>
      </trkpt>
      <trkpt lat="45.24123" lon="5.21078">
        <ele>489.67</ele>
        <time>2017-02-25T15:56:08Z</time>
      </trkpt>
      <trkpt lat="45.24125" lon="5.21089">
        <ele>488.87</ele>
        <time>2017-02-25T15:56:09Z</time>
      </trkpt>
      <trkpt lat="45.24129" lon="5.21099">
        <ele>487.99</ele>
        <time>2017-02-25T15:56:10Z</time>
      </trkpt>
      <trkpt lat="45.24133" lon="5.21106">
        <ele>487.09</ele>
        <time>2017-02-25T15:56:11Z</time>
      </trkpt>
      <trkpt lat="45.24141" lon="5.21106">
        <ele>486.11</ele>
        <time>2017-02-25T15:56:12Z</time>
      </trkpt>
      <trkpt lat="45.24149" lon="5.21102">
        <ele>485.28</ele>
        <time>2017-02-25T15:56:13Z</time>
      </trkpt>
      <trkpt lat="45.24157" lon="5.21094">
        <ele>484.23</ele>
        <time>2017-02-25T15:56:14Z</time>
      </trkpt>
      <trkpt lat="45.24165" lon="5.21083">
        <ele>483.46</ele>
        <time>2017-02-25T15:56:15Z</time>
      </trkpt>
      <trkpt lat="45.24173" lon="5.21071">
        <ele>482.75</ele>
        <time>2017-02-25T15:56:16Z</time>
      </trkpt>
      <trkpt lat="45.24182" lon="5.21063">
        <ele>482.2</ele>
        <time>2017-02-25T15:56:17Z</time>
      </trkpt>
      <trkpt lat="45.24192" lon="5.21058">
        <ele>481.45</ele>
        <time>2017-02-25T15:56:18Z</time>
      </trkpt>
      <trkpt lat="45.24202" lon="5.21056">
        <ele>480.74</ele>
        <time>2017-02-25T15:56:19Z</time>
      </trkpt>
      <trkpt lat="45.24214" lon="5.21058">
        <ele>480.2</ele>
        <time>2017-02-25T15:56:20Z</time>
      </trkpt>
      <trkpt lat="45.24226" lon="5.21061">
        <ele>479.77</ele>
        <time>2017-02-25T15:56:21Z</time>
      </trkpt>
      <trkpt lat="45.24239" lon="5.21067">
        <ele>479.13</ele>
        <time>2017-02-25T15:56:22Z</time>
      </trkpt>
      <trkpt lat="45.24252" lon="5.21076">
        <ele>478.68</ele>
        <time>2017-02-25T15:56:23Z</time>
      </trkpt>
      <trkpt lat="45.24265" lon="5.21085">
        <ele>478.11</ele>
        <time>2017-02-25T15:56:24Z</time>
      </trkpt>
      <trkpt lat="45.24279" lon="5.21096">
        <ele>477.68</ele>
        <time>2017-02-25T15:56:25Z</time>
      </trkpt>
      <trkpt lat="45.24292" lon="5.21111">
        <ele>476.95</ele>
        <time>2017-02-25T15:56:26Z</time>
      </trkpt>
      <trkpt lat="45.24307" lon="5.21127">
        <ele>476.72</ele>
        <time>2017-02-25T15:56:27Z</time>
      </trkpt>
      <trkpt lat="45.24322" lon="5.21145">
        <ele>477</ele>
        <time>2017-02-25T15:56:28Z</time>
      </trkpt>
      <trkpt lat="45.24336" lon="5.21162">
        <ele>477.69</ele>
        <time>2017-02-25T15:56:29Z</time>
      </trkpt>
      <trkpt lat="45.24351" lon="5.2118">
        <ele>479.03</ele>
        <time>2017-02-25T15:56:30Z</time>
      </trkpt>
      <trkpt lat="45.24364" lon="5.21197">
        <ele>480.5</ele>
        <time>2017-02-25T15:56:31Z</time>
      </trkpt>
      <trkpt lat="45.24377" lon="5.21213">
        <ele>482.07</ele>
        <time>2017-02-25T15:56:32Z</time>
      </trkpt>
      <trkpt lat="45.24391" lon="5.21227">
        <ele>483.67</ele>
        <time>2017-02-25T15:56:33Z</time>
      </trkpt>
      <trkpt lat="45.24406" lon="5.21238">
        <ele>485.19</ele>
        <time>2017-02-25T15:56:34Z</time>
      </trkpt>
      <trkpt lat="45.24422" lon="5.21247">
        <ele>486.69</ele>
        <time>2017-02-25T15:56:35Z</time>
      </trkpt>
      <trkpt lat="45.24441" lon="5.2125">
        <ele>488.51</ele>
        <time>2017-02-25T15:56:36Z</time>
      </trkpt>
      <trkpt lat="45.2446" lon="5.21252">
        <ele>489.92</ele>
        <time>2017-02-25T15:56:37Z</time>
      </trkpt>
      <trkpt lat="45.24481" lon="5.21254">
        <ele>491.32</ele>
        <time>2017-02-25T15:56:38Z</time>
      </trkpt>
      <trkpt lat="45.24503" lon="5.21256">
        <ele>492.64</ele>
        <time>2017-02-25T15:56:39Z</time>
      </trkpt>
      <trkpt lat="45.24526" lon="5.21256">
        <ele>494.1</ele>
        <time>2017-02-25T15:56:40Z</time>
      </trkpt>
      <trkpt lat="45.24549" lon="5.21256">
        <ele>495.51</ele>
        <time>2017-02-25T15:56:41Z</time>
      </trkpt>
      <trkpt lat="45.24571" lon="5.21255">
        <ele>496.68</ele>
        <time>2017-02-25T15:56:42Z</time>
      </trkpt>
      <trkpt lat="45.24592" lon="5.21254">
        <ele>497.87</ele>
        <time>2017-02-25T15:56:43Z</time>
      </trkpt>
      <trkpt lat="45.24614" lon="5.21255">
        <ele>499.07</ele>
        <time>2017-02-25T15:56:44Z</time>
      </trkpt>
      <trkpt lat="45.24636" lon="5.21258">
        <ele>500.51</ele>
        <time>2017-02-25T15:56:45Z</time>
      </trkpt>
      <trkpt lat="45.24658" lon="5.21265">
        <ele>501.84</ele>
        <time>2017-02-25T15:56:46Z</time>
      </trkpt>
      <trkpt lat="45.2468" lon="5.21272">
        <ele>502.82</ele>
        <time>2017-02-25T15:56:47Z</time>
      </trkpt>
      <trkpt lat="45.24702" lon="5.21278">
        <ele>503.98</ele>
        <time>2017-02-25T15:56:48Z</time>
      </trkpt>
      <trkpt lat="45.24724" lon="5.21284">
        <ele>505.09</ele>
        <time>2017-02-25T15:56:49Z</time>
      </trkpt>
      <trkpt lat="45.24745" lon="5.21289">
        <ele>506.35</ele>
        <time>2017-02-25T15:56:50Z</time>
      </trkpt>
      <trkpt lat="45.24765" lon="5.21294">
        <ele>507.56</ele>
        <time>2017-02-25T15:56:51Z</time>
      </trkpt>
      <trkpt lat="45.24783" lon="5.21298">
        <ele>508.69</ele>
        <time>2017-02-25T15:56:52Z</time>
      </trkpt>
      <trkpt lat="45.24797" lon="5.21306">
        <ele>509.39</ele>
        <time>2017-02-25T15:56:53Z</time>
      </trkpt>
      <trkpt lat="45.24809" lon="5.21319">
        <ele>510.01</ele>
        <time>2017-02-25T15:56:54Z</time>
      </trkpt>
      <trkpt lat="45.24819" lon="5.21336">
        <ele>510.62</ele>
        <time>2017-02-25T15:56:55Z</time>
      </trkpt>
      <trkpt lat="45.24828" lon="5.21357">
        <ele>510.9</ele>
        <time>2017-02-25T15:56:56Z</time>
      </trkpt>
      <trkpt lat="45.24837" lon="5.21379">
        <ele>511.11</ele>
        <time>2017-02-25T15:56:57Z</time>
      </trkpt>
      <trkpt lat="45.24847" lon="5.21402">
        <ele>511.24</ele>
        <time>2017-02-25T15:56:58Z</time>
      </trkpt>
      <trkpt lat="45.24859" lon="5.21424">
        <ele>511.34</ele>
        <time>2017-02-25T15:56:59Z</time>
      </trkpt>
      <trkpt lat="45.24871" lon="5.21446">
        <ele>512</ele>
        <time>2017-02-25T15:57:00Z</time>
      </trkpt>
      <trkpt lat="45.24885" lon="5.21467">
        <ele>512.61</ele>
        <time>2017-02-25T15:57:01Z</time>
      </trkpt>
      <trkpt lat="45.24901" lon="5.21487">
        <ele>513.3</ele>
        <time>2017-02-25T15:57:02Z</time>
      </trkpt>
      <trkpt lat="45.24917" lon="5.21507">
        <ele>514.23</ele>
        <time>2017-02-25T15:57:03Z</time>
      </trkpt>
      <trkpt lat="45.24933" lon="5.21528">
        <ele>515.22</ele>
        <time>2017-02-25T15:57:04Z</time>
      </trkpt>
      <trkpt lat="45.2495" lon="5.21549">
        <ele>516.14</ele>
        <time>2017-02-25T15:57:05Z</time>
      </trkpt>
      <trkpt lat="45.24966" lon="5.21571">
        <ele>517.2</ele>
        <time>2017-02-25T15:57:06Z</time>
      </trkpt>
      <trkpt lat="45.24983" lon="5.21592">
        <ele>518.45</ele>
        <time>2017-02-25T15:57:07Z</time>
      </trkpt>
      <trkpt lat="45.25" lon="5.21612">
        <ele>519.66</ele>
        <time>2017-02-25T15:57:08Z</time>
      </trkpt>
      <trkpt lat="45.25016" lon="5.21632">
        <ele>520.87</ele>
        <time>2017-02-25T15:57:09Z</time>
      </trkpt>
      <trkpt lat="45.25032" lon="5.21653">
        <ele>522.07</ele>
        <time>2017-02-25T15:57:10Z</time>
      </trkpt>
      <trkpt lat="45.25048" lon="5.21672">
        <ele>522.87</ele>
        <time>2017-02-25T15:57:11Z</time>
      </trkpt>
      <trkpt lat="45.25064" lon="5.21691">
        <ele>523.51</ele>
        <time>2017-02-25T15:57:12Z</time>
      </trkpt>
      <trkpt lat="45.25079" lon="5.21709">
        <ele>524.11</ele>
        <time>2017-02-25T15:57:13Z</time>
      </trkpt>
      <trkpt lat="45.25094" lon="5.21727">
        <ele>524.4</ele>
        <time>2017-02-25T15:57:14Z</time>
      </trkpt>
      <trkpt lat="45.25108" lon="5.21745">
        <ele>524.45</ele>
        <time>2017-02-25T15:57:15Z</time>
      </trkpt>
      <trkpt lat="45.25122" lon="5.21763">
        <ele>524.46</ele>
        <time>2017-02-25T15:57:16Z</time>
      </trkpt>
      <trkpt lat="45.25136" lon="5.21781">
        <ele>524.47</ele>
        <time>2017-02-25T15:57:17Z</time>
      </trkpt>
      <trkpt lat="45.2515" lon="5.21797">
        <ele>524.47</ele>
        <time>2017-02-25T15:57:18Z</time>
      </trkpt>
      <trkpt lat="45.25163" lon="5.21813">
        <ele>524.63</ele>
        <time>2017-02-25T15:57:19Z</time>
      </trkpt>
      <trkpt lat="45.25178" lon="5.21826">
        <ele>524.66</ele>
        <time>2017-02-25T15:57:20Z</time>
      </trkpt>
      <trkpt lat="45.25193" lon="5.21836">
        <ele>524.83</ele>
        <time>2017-02-25T15:57:21Z</time>
      </trkpt>
      <trkpt lat="45.25212" lon="5.21841">
        <ele>525.1</ele>
        <time>2017-02-25T15:57:22Z</time>
      </trkpt>
      <trkpt lat="45.25231" lon="5.21844">
        <ele>525.47</ele>
        <time>2017-02-25T15:57:23Z</time>
      </trkpt>
      <trkpt lat="45.25252" lon="5.21847">
        <ele>525.79</ele>
        <time>2017-02-25T15:57:24Z</time>
      </trkpt>
      <trkpt lat="45.25274" lon="5.2185">
        <ele>526.17</ele>
        <time>2017-02-25T15:57:25Z</time>
      </trkpt>
      <trkpt lat="45.25296" lon="5.21853">
        <ele>526.25</ele>
        <time>2017-02-25T15:57:26Z</time>
      </trkpt>
      <trkpt lat="45.25318" lon="5.21857">
        <ele>526.02</ele>
        <time>2017-02-25T15:57:27Z</time>
      </trkpt>
      <trkpt lat="45.25339" lon="5.21862">
        <ele>525.58</ele>
        <time>2017-02-25T15:57:28Z</time>
      </trkpt>
      <trkpt lat="45.25361" lon="5.21869">
        <ele>524.77</ele>
        <time>2017-02-25T15:57:29Z</time>
      </trkpt>
      <trkpt lat="45.25381" lon="5.21876">
        <ele>523.81</ele>
        <time>2017-02-25T15:57:30Z</time>
      </trkpt>
      <trkpt lat="45.254" lon="5.21885">
        <ele>523.06</ele>
        <time>2017-02-25T15:57:31Z</time>
      </trkpt>
      <trkpt lat="45.25419" lon="5.21894">
        <ele>522.18</ele>
        <time>2017-02-25T15:57:32Z</time>
      </trkpt>
      <trkpt lat="45.25437" lon="5.21905">
        <ele>521.37</ele>
        <time>2017-02-25T15:57:33Z</time>
      </trkpt>
      <trkpt lat="45.25455" lon="5.21916">
        <ele>520.81</ele>
        <time>2017-02-25T15:57:34Z</time>
      </trkpt>
      <trkpt lat="45.25473" lon="5.21928">
        <ele>520.3</ele>
        <time>2017-02-25T15:57:35Z</time>
      </trkpt>
      <trkpt lat="45.25489" lon="5.21942">
        <ele>519.71</ele>
        <time>2017-02-25T15:57:36Z</time>
      </trkpt>
      <trkpt lat="45.25505" lon="5.21957">
        <ele>519.36</ele>
        <time>2017-02-25T15:57:37Z</time>
      </trkpt>
      <trkpt lat="45.25519" lon="5.21974">
        <ele>519.04</ele>
        <time>2017-02-25T15:57:38Z</time>
      </trkpt>
      <trkpt lat="45.25531" lon="5.21993">
        <ele>518.5</ele>
        <time>2017-02-25T15:57:39Z</time>
      </trkpt>
      <trkpt lat="45.25539" lon="5.22013">
        <ele>517.75</ele>
        <time>2017-02-25T15:57:40Z</time>
      </trkpt>
      <trkpt lat="45.25546" lon="5.22036">
        <ele>516.88</ele>
        <time>2017-02-25T15:57:41Z</time>
      </trkpt>
      <trkpt lat="45.25551" lon="5.2206">
        <ele>516.07</ele>
        <time>2017-02-25T15:57:42Z</time>
      </trkpt>
      <trkpt lat="45.25554" lon="5.22085">
        <ele>515.43</ele>
        <time>2017-02-25T15:57:43Z</time>
      </trkpt>
      <trkpt lat="45.25554" lon="5.22112">
        <ele>514.42</ele>
        <time>2017-02-25T15:57:44Z</time>
      </trkpt>
      <trkpt lat="45.25555" lon="5.22136">
        <ele>513.74</ele>
        <time>2017-02-25T15:57:45Z</time>
      </trkpt>
      <trkpt lat="45.25554" lon="5.22158">
        <ele>513.04</ele>
        <time>2017-02-25T15:57:46Z</time>
      </trkpt>
      <trkpt lat="45.2555" lon="5.2218">
        <ele>512.58</ele>
        <time>2017-02-25T15:57:47Z</time>
      </trkpt>
      <trkpt lat="45.25542" lon="5.22202">
        <ele>512.17</ele>
        <time>2017-02-25T15:57:48Z</time>
      </trkpt>
      <trkpt lat="45.25531" lon="5.22222">
        <ele>511.45</ele>
        <time>2017-02-25T15:57:49Z</time>
      </trkpt>
      <trkpt lat="45.25518" lon="5.22243">
        <ele>510.34</ele>
        <time>2017-02-25T15:57:50Z</time>
      </trkpt>
      <trkpt lat="45.25505" lon="5.22264">
        <ele>509.16</ele>
        <time>2017-02-25T15:57:51Z</time>
      </trkpt>
      <trkpt lat="45.25492" lon="5.22285">
        <ele>508.05</ele>
        <time>2017-02-25T15:57:52Z</time>
      </trkpt>
      <trkpt lat="45.25479" lon="5.22304">
        <ele>507.1</ele>
        <time>2017-02-25T15:57:53Z</time>
      </trkpt>
      <trkpt lat="45.25467" lon="5.22323">
        <ele>506.35</ele>
        <time>2017-02-25T15:57:54Z</time>
      </trkpt>
      <trkpt lat="45.25456" lon="5.22342">
        <ele>505.56</ele>
        <time>2017-02-25T15:57:55Z</time>
      </trkpt>
      <trkpt lat="45.25444" lon="5.22361">
        <ele>504.77</ele>
        <time>2017-02-25T15:57:56Z</time>
      </trkpt>
      <trkpt lat="45.25433" lon="5.22379">
        <ele>504.13</ele>
        <time>2017-02-25T15:57:57Z</time>
      </trkpt>
      <trkpt lat="45.25423" lon="5.22398">
        <ele>503.52</ele>
        <time>2017-02-25T15:57:58Z</time>
      </trkpt>
      <trkpt lat="45.25415" lon="5.22416">
        <ele>502.84</ele>
        <time>2017-02-25T15:57:59Z</time>
      </trkpt>
      <trkpt lat="45.25408" lon="5.22436">
        <ele>502.22</ele>
        <time>2017-02-25T15:58:00Z</time>
      </trkpt>
      <trkpt lat="45.25405" lon="5.22457">
        <ele>501.54</ele>
        <time>2017-02-25T15:58:01Z</time>
      </trkpt>
      <trkpt lat="45.25409" lon="5.2248">
        <ele>500.92</ele>
        <time>2017-02-25T15:58:02Z</time>
      </trkpt>
      <trkpt lat="45.25414" lon="5.22503">
        <ele>500</ele>
        <time>2017-02-25T15:58:03Z</time>
      </trkpt>
      <trkpt lat="45.25421" lon="5.22526">
        <ele>498.93</ele>
        <time>2017-02-25T15:58:04Z</time>
      </trkpt>
      <trkpt lat="45.25429" lon="5.2255">
        <ele>497.84</ele>
        <time>2017-02-25T15:58:05Z</time>
      </trkpt>
      <trkpt lat="45.25436" lon="5.22574">
        <ele>496.74</ele>
        <time>2017-02-25T15:58:06Z</time>
      </trkpt>
      <trkpt lat="45.25443" lon="5.22598">
        <ele>495.88</ele>
        <time>2017-02-25T15:58:07Z</time>
      </trkpt>
      <trkpt lat="45.25447" lon="5.22619">
        <ele>494.99</ele>
        <time>2017-02-25T15:58:08Z</time>
      </trkpt>
      <trkpt lat="45.2545" lon="5.22639">
        <ele>494.25</ele>
        <time>2017-02-25T15:58:09Z</time>
      </trkpt>
      <trkpt lat="45.25451" lon="5.22656">
        <ele>493.54</ele>
        <time>2017-02-25T15:58:10Z</time>
      </trkpt>
      <trkpt lat="45.25447" lon="5.2267">
        <ele>493</ele>
        <time>2017-02-25T15:58:11Z</time>
      </trkpt>
      <trkpt lat="45.25438" lon="5.22681">
        <ele>492.17</ele>
        <time>2017-02-25T15:58:12Z</time>
      </trkpt>
      <trkpt lat="45.25427" lon="5.22688">
        <ele>491.69</ele>
        <time>2017-02-25T15:58:13Z</time>
      </trkpt>
      <trkpt lat="45.25414" lon="5.22694">
        <ele>491.19</ele>
        <time>2017-02-25T15:58:14Z</time>
      </trkpt>
      <trkpt lat="45.25402" lon="5.22701">
        <ele>490.69</ele>
        <time>2017-02-25T15:58:15Z</time>
      </trkpt>
      <trkpt lat="45.25394" lon="5.22711">
        <ele>489.95</ele>
        <time>2017-02-25T15:58:16Z</time>
      </trkpt>
      <trkpt lat="45.25388" lon="5.22724">
        <ele>489.16</ele>
        <time>2017-02-25T15:58:17Z</time>
      </trkpt>
      <trkpt lat="45.25384" lon="5.22741">
        <ele>488.45</ele>
        <time>2017-02-25T15:58:18Z</time>
      </trkpt>
      <trkpt lat="45.25384" lon="5.22757">
        <ele>487.5</ele>
        <time>2017-02-25T15:58:19Z</time>
      </trkpt>
      <trkpt lat="45.25381" lon="5.22773">
        <ele>486.43</ele>
        <time>2017-02-25T15:58:20Z</time>
      </trkpt>
      <trkpt lat="45.25377" lon="5.22787">
        <ele>485.42</ele>
        <time>2017-02-25T15:58:21Z</time>
      </trkpt>
      <trkpt lat="45.25372" lon="5.22801">
        <ele>484.34</ele>
        <time>2017-02-25T15:58:22Z</time>
      </trkpt>
      <trkpt lat="45.25368" lon="5.22815">
        <ele>483.32</ele>
        <time>2017-02-25T15:58:23Z</time>
      </trkpt>
      <trkpt lat="45.25365" lon="5.22832">
        <ele>482.4</ele>
        <time>2017-02-25T15:58:24Z</time>
      </trkpt>
      <trkpt lat="45.25364" lon="5.22849">
        <ele>481.33</ele>
        <time>2017-02-25T15:58:25Z</time>
      </trkpt>
      <trkpt lat="45.25367" lon="5.22862">
        <ele>480.08</ele>
        <time>2017-02-25T15:58:26Z</time>
      </trkpt>
      <trkpt lat="45.25372" lon="5.22875">
        <ele>478.87</ele>
        <time>2017-02-25T15:58:27Z</time>
      </trkpt>
      <trkpt lat="45.25388" lon="5.22878">
        <ele>477.51</ele>
        <time>2017-02-25T15:58:28Z</time>
      </trkpt>
      <trkpt lat="45.25397" lon="5.22891">
        <ele>475.88</ele>
        <time>2017-02-25T15:58:29Z</time>
      </trkpt>
      <trkpt lat="45.25404" lon="5.22905">
        <ele>474.51</ele>
        <time>2017-02-25T15:58:30Z</time>
      </trkpt>
      <trkpt lat="45.25405" lon="5.22924">
        <ele>473.04</ele>
        <time>2017-02-25T15:58:31Z</time>
      </trkpt>
      <trkpt lat="45.25406" lon="5.22943">
        <ele>471.54</ele>
        <time>2017-02-25T15:58:32Z</time>
      </trkpt>
      <trkpt lat="45.25403" lon="5.22961">
        <ele>471.08</ele>
        <time>2017-02-25T15:58:33Z</time>
      </trkpt>
      <trkpt lat="45.25397" lon="5.22979">
        <ele>471.07</ele>
        <time>2017-02-25T15:58:34Z</time>
      </trkpt>
      <trkpt lat="45.25388" lon="5.22996">
        <ele>470.91</ele>
        <time>2017-02-25T15:58:35Z</time>
      </trkpt>
      <trkpt lat="45.25379" lon="5.23013">
        <ele>470.64</ele>
        <time>2017-02-25T15:58:36Z</time>
      </trkpt>
      <trkpt lat="45.25371" lon="5.2303">
        <ele>470.5</ele>
        <time>2017-02-25T15:58:37Z</time>
      </trkpt>
      <trkpt lat="45.25362" lon="5.23048">
        <ele>470.23</ele>
        <time>2017-02-25T15:58:38Z</time>
      </trkpt>
      <trkpt lat="45.25356" lon="5.23068">
        <ele>470.02</ele>
        <time>2017-02-25T15:58:39Z</time>
      </trkpt>
      <trkpt lat="45.25352" lon="5.23089">
        <ele>469.58</ele>
        <time>2017-02-25T15:58:40Z</time>
      </trkpt>
      <trkpt lat="45.25351" lon="5.23109">
        <ele>469.01</ele>
        <time>2017-02-25T15:58:41Z</time>
      </trkpt>
      <trkpt lat="45.25354" lon="5.23129">
        <ele>468.34</ele>
        <time>2017-02-25T15:58:42Z</time>
      </trkpt>
      <trkpt lat="45.25364" lon="5.23142">
        <ele>467.8</ele>
        <time>2017-02-25T15:58:43Z</time>
      </trkpt>
      <trkpt lat="45.25375" lon="5.23152">
        <ele>467.37</ele>
        <time>2017-02-25T15:58:44Z</time>
      </trkpt>
      <trkpt lat="45.2539" lon="5.23153">
        <ele>467.45</ele>
        <time>2017-02-25T15:58:45Z</time>
      </trkpt>
      <trkpt lat="45.25405" lon="5.23151">
        <ele>467.54</ele>
        <time>2017-02-25T15:58:46Z</time>
      </trkpt>
      <trkpt lat="45.25419" lon="5.23148">
        <ele>467.72</ele>
        <time>2017-02-25T15:58:47Z</time>
      </trkpt>
      <trkpt lat="45.25431" lon="5.2315">
        <ele>468.16</ele>
        <time>2017-02-25T15:58:48Z</time>
      </trkpt>
      <trkpt lat="45.25441" lon="5.23157">
        <ele>468.41</ele>
        <time>2017-02-25T15:58:49Z</time>
      </trkpt>
      <trkpt lat="45.25448" lon="5.23167">
        <ele>468.85</ele>
        <time>2017-02-25T15:58:50Z</time>
      </trkpt>
      <trkpt lat="45.25453" lon="5.23178">
        <ele>469.1</ele>
        <time>2017-02-25T15:58:51Z</time>
      </trkpt>
      <trkpt lat="45.25454" lon="5.23192">
        <ele>469.31</ele>
        <time>2017-02-25T15:58:52Z</time>
      </trkpt>
      <trkpt lat="45.25453" lon="5.23209">
        <ele>469.6</ele>
        <time>2017-02-25T15:58:53Z</time>
      </trkpt>
      <trkpt lat="45.25452" lon="5.23225">
        <ele>469.49</ele>
        <time>2017-02-25T15:58:54Z</time>
      </trkpt>
      <trkpt lat="45.25453" lon="5.2324">
        <ele>469.15</ele>
        <time>2017-02-25T15:58:55Z</time>
      </trkpt>
      <trkpt lat="45.25457" lon="5.2325">
        <ele>469.16</ele>
        <time>2017-02-25T15:58:56Z</time>
      </trkpt>
      <trkpt lat="45.25466" lon="5.23254">
        <ele>469.89</ele>
        <time>2017-02-25T15:58:57Z</time>
      </trkpt>
      <trkpt lat="45.25476" lon="5.23254">
        <ele>469.71</ele>
        <time>2017-02-25T15:58:58Z</time>
      </trkpt>
      <trkpt lat="45.25488" lon="5.23251">
        <ele>469.2</ele>
        <time>2017-02-25T15:58:59Z</time>
      </trkpt>
      <trkpt lat="45.25503" lon="5.23248">
        <ele>468.45</ele>
        <time>2017-02-25T15:59:00Z</time>
      </trkpt>
      <trkpt lat="45.25518" lon="5.23245">
        <ele>467.66</ele>
        <time>2017-02-25T15:59:01Z</time>
      </trkpt>
      <trkpt lat="45.25533" lon="5.23242">
        <ele>466.79</ele>
        <time>2017-02-25T15:59:02Z</time>
      </trkpt>
      <trkpt lat="45.25547" lon="5.23239">
        <ele>465.89</ele>
        <time>2017-02-25T15:59:03Z</time>
      </trkpt>
      <trkpt lat="45.25561" lon="5.23237">
        <ele>465.47</ele>
        <time>2017-02-25T15:59:04Z</time>
      </trkpt>
      <trkpt lat="45.25574" lon="5.23236">
        <ele>464.99</ele>
        <time>2017-02-25T15:59:05Z</time>
      </trkpt>
      <trkpt lat="45.25586" lon="5.23236">
        <ele>464.57</ele>
        <time>2017-02-25T15:59:06Z</time>
      </trkpt>
      <trkpt lat="45.25594" lon="5.23243">
        <ele>463.93</ele>
        <time>2017-02-25T15:59:07Z</time>
      </trkpt>
      <trkpt lat="45.25602" lon="5.23255">
        <ele>463</ele>
        <time>2017-02-25T15:59:08Z</time>
      </trkpt>
      <trkpt lat="45.25608" lon="5.2327">
        <ele>462.01</ele>
        <time>2017-02-25T15:59:09Z</time>
      </trkpt>
      <trkpt lat="45.25611" lon="5.2329">
        <ele>461.42</ele>
        <time>2017-02-25T15:59:10Z</time>
      </trkpt>
      <trkpt lat="45.25614" lon="5.23311">
        <ele>460.58</ele>
        <time>2017-02-25T15:59:11Z</time>
      </trkpt>
      <trkpt lat="45.25617" lon="5.23333">
        <ele>459.93</ele>
        <time>2017-02-25T15:59:12Z</time>
      </trkpt>
      <trkpt lat="45.2562" lon="5.23356">
        <ele>459.48</ele>
        <time>2017-02-25T15:59:13Z</time>
      </trkpt>
      <trkpt lat="45.25623" lon="5.2338">
        <ele>458.91</ele>
        <time>2017-02-25T15:59:14Z</time>
      </trkpt>
      <trkpt lat="45.25627" lon="5.23404">
        <ele>458.16</ele>
        <time>2017-02-25T15:59:15Z</time>
      </trkpt>
      <trkpt lat="45.25631" lon="5.23427">
        <ele>457.52</ele>
        <time>2017-02-25T15:59:16Z</time>
      </trkpt>
      <trkpt lat="45.25637" lon="5.2345">
        <ele>456.84</ele>
        <time>2017-02-25T15:59:17Z</time>
      </trkpt>
      <trkpt lat="45.25644" lon="5.23473">
        <ele>456.06</ele>
        <time>2017-02-25T15:59:18Z</time>
      </trkpt>
      <trkpt lat="45.25651" lon="5.23496">
        <ele>455.03</ele>
        <time>2017-02-25T15:59:19Z</time>
      </trkpt>
      <trkpt lat="45.25658" lon="5.23519">
        <ele>454.1</ele>
        <time>2017-02-25T15:59:20Z</time>
      </trkpt>
      <trkpt lat="45.25664" lon="5.23541">
        <ele>453.35</ele>
        <time>2017-02-25T15:59:21Z</time>
      </trkpt>
      <trkpt lat="45.25671" lon="5.23563">
        <ele>452.56</ele>
        <time>2017-02-25T15:59:22Z</time>
      </trkpt>
      <trkpt lat="45.25677" lon="5.23584">
        <ele>451.85</ele>
        <time>2017-02-25T15:59:23Z</time>
      </trkpt>
      <trkpt lat="45.25683" lon="5.23604">
        <ele>451.14</ele>
        <time>2017-02-25T15:59:24Z</time>
      </trkpt>
      <trkpt lat="45.25689" lon="5.23622">
        <ele>450.36</ele>
        <time>2017-02-25T15:59:25Z</time>
      </trkpt>
      <trkpt lat="45.25693" lon="5.23638">
        <ele>449.41</ele>
        <time>2017-02-25T15:59:26Z</time>
      </trkpt>
      <trkpt lat="45.25697" lon="5.23649">
        <ele>448.57</ele>
        <time>2017-02-25T15:59:27Z</time>
      </trkpt>
      <trkpt lat="45.25699" lon="5.23655">
        <ele>447.93</ele>
        <time>2017-02-25T15:59:28Z</time>
      </trkpt>
      <trkpt lat="45.257" lon="5.23657">
        <ele>447.8</ele>
        <time>2017-02-25T15:59:29Z</time>
      </trkpt>
      <trkpt lat="45.25699" lon="5.23657">
        <ele>447.61</ele>
        <time>2017-02-25T15:59:30Z</time>
      </trkpt>
      <trkpt lat="45.25699" lon="5.23656">
        <ele>447.58</ele>
        <time>2017-02-25T15:59:31Z</time>
      </trkpt>
      <trkpt lat="45.25699" lon="5.23656">
        <ele>447.57</ele>
        <time>2017-02-25T15:59:32Z</time>
      </trkpt>
      <trkpt lat="45.25699" lon="5.23656">
        <ele>447.57</ele>
        <time>2017-02-25T15:59:33Z</time>
      </trkpt>
      <trkpt lat="45.25699" lon="5.23656">
        <ele>447.57</ele>
        <time>2017-02-25T15:59:34Z</time>
      </trkpt>
      <trkpt lat="45.25699" lon="5.23656">
        <ele>447.57</ele>
        <time>2017-02-25T15:59:35Z</time>
      </trkpt>
      <trkpt lat="45.25699" lon="5.23656">
        <ele>447.57</ele>
        <time>2017-02-25T15:59:36Z</time>
      </trkpt>
      <trkpt lat="45.25699" lon="5.23656">
        <ele>447.57</ele>
        <time>2017-02-25T15:59:37Z</time>
      </trkpt>
      <trkpt lat="45.25699" lon="5.23656">
        <ele>447.57</ele>
        <time>2017-02-25T15:59:38Z</time>
      </trkpt>
      <trkpt lat="45.25699" lon="5.23656">
        <ele>447.57</ele>
        <time>2017-02-25T15:59:39Z</time>
      </trkpt>
      <trkpt lat="45.25699" lon="5.23656">
        <ele>447.57</ele>
        <time>2017-02-25T15:59:40Z</time>
      </trkpt>
      <trkpt lat="45.25699" lon="5.23656">
        <ele>447.57</ele>
        <time>2017-02-25T15:59:41Z</time>
      </trkpt>
      <trkpt lat="45.25699" lon="5.23656">
        <ele>447.57</ele>
        <time>2017-02-25T15:59:42Z</time>
      </trkpt>
      <trkpt lat="45.25699" lon="5.23656">
        <ele>447.57</ele>
        <time>2017-02-25T15:59:43Z</time>
      </trkpt>
      <trkpt lat="45.25699" lon="5.23656">
        <ele>447.57</ele>
        <time>2017-02-25T15:59:44Z</time>
      </trkpt>
      <trkpt lat="45.25699" lon="5.23656">
        <ele>447.57</ele>
        <time>2017-02-25T15:59:45Z</time>
      </trkpt>
      <trkpt lat="45.25699" lon="5.23656">
        <ele>447.57</ele>
        <time>2017-02-25T15:59:46Z</time>
      </trkpt>
      <trkpt lat="45.25699" lon="5.23656">
        <ele>447.57</ele>
        <time>2017-02-25T15:59:47Z</time>
      </trkpt>
      <trkpt lat="45.25699" lon="5.23656">
        <ele>447.57</ele>
        <time>2017-02-25T15:59:48Z</time>
      </trkpt>
      <trkpt lat="45.25699" lon="5.23656">
        <ele>447.57</ele>
        <time>2017-02-25T15:59:49Z</time>
      </trkpt>
      <trkpt lat="45.25699" lon="5.23656">
        <ele>447.57</ele>
        <time>2017-02-25T15:59:50Z</time>
      </trkpt>
      <trkpt lat="45.25699" lon="5.23656">
        <ele>447.57</ele>
        <time>2017-02-25T15:59:51Z</time>
      </trkpt>
      <trkpt lat="45.25699" lon="5.23656">
        <ele>447.57</ele>
        <time>2017-02-25T15:59:52Z</time>
      </trkpt>
      <trkpt lat="45.25699" lon="5.23656">
        <ele>447.57</ele>
        <time>2017-02-25T15:59:53Z</time>
      </trkpt>
      <trkpt lat="45.25699" lon="5.23656">
        <ele>447.57</ele>
        <time>2017-02-25T15:59:54Z</time>
      </trkpt>
      <trkpt lat="45.25699" lon="5.23656">
        <ele>447.57</ele>
        <time>2017-02-25T15:59:55Z</time>
      </trkpt>
      <trkpt lat="45.25699" lon="5.23656">
        <ele>447.57</ele>
        <time>2017-02-25T15:59:56Z</time>
      </trkpt>
      <trkpt lat="45.257" lon="5.23661">
        <ele>448.21</ele>
        <time>2017-02-25T15:59:57Z</time>
      </trkpt>
      <trkpt lat="45.25703" lon="5.23669">
        <ele>448.02</ele>
        <time>2017-02-25T15:59:58Z</time>
      </trkpt>
      <trkpt lat="45.25705" lon="5.2368">
        <ele>447.74</ele>
        <time>2017-02-25T15:59:59Z</time>
      </trkpt>
      <trkpt lat="45.25708" lon="5.23694">
        <ele>447.36</ele>
        <time>2017-02-25T16:00:00Z</time>
      </trkpt>
      <trkpt lat="45.25711" lon="5.2371">
        <ele>446.97</ele>
        <time>2017-02-25T16:00:01Z</time>
      </trkpt>
      <trkpt lat="45.25714" lon="5.23727">
        <ele>446.49</ele>
        <time>2017-02-25T16:00:02Z</time>
      </trkpt>
      <trkpt lat="45.25718" lon="5.23746">
        <ele>445.91</ele>
        <time>2017-02-25T16:00:03Z</time>
      </trkpt>
      <trkpt lat="45.25722" lon="5.23765">
        <ele>445.16</ele>
        <time>2017-02-25T16:00:04Z</time>
      </trkpt>
      <trkpt lat="45.25727" lon="5.23786">
        <ele>444.2</ele>
        <time>2017-02-25T16:00:05Z</time>
      </trkpt>
      <trkpt lat="45.25732" lon="5.23807">
        <ele>443.53</ele>
        <time>2017-02-25T16:00:06Z</time>
      </trkpt>
      <trkpt lat="45.25738" lon="5.23829">
        <ele>442.84</ele>
        <time>2017-02-25T16:00:07Z</time>
      </trkpt>
      <trkpt lat="45.25745" lon="5.23851">
        <ele>442.7</ele>
        <time>2017-02-25T16:00:08Z</time>
      </trkpt>
      <trkpt lat="45.25751" lon="5.23872">
        <ele>442.91</ele>
        <time>2017-02-25T16:00:09Z</time>
      </trkpt>
      <trkpt lat="45.25758" lon="5.23892">
        <ele>443.12</ele>
        <time>2017-02-25T16:00:10Z</time>
      </trkpt>
      <trkpt lat="45.25764" lon="5.23911">
        <ele>443.16</ele>
        <time>2017-02-25T16:00:11Z</time>
      </trkpt>
      <trkpt lat="45.2577" lon="5.2393">
        <ele>443.24</ele>
        <time>2017-02-25T16:00:12Z</time>
      </trkpt>
      <trkpt lat="45.25776" lon="5.23947">
        <ele>443.34</ele>
        <time>2017-02-25T16:00:13Z</time>
      </trkpt>
      <trkpt lat="45.25781" lon="5.23963">
        <ele>443.6</ele>
        <time>2017-02-25T16:00:14Z</time>
      </trkpt>
      <trkpt lat="45.25786" lon="5.23978">
        <ele>443.65</ele>
        <time>2017-02-25T16:00:15Z</time>
      </trkpt>
      <trkpt lat="45.25791" lon="5.23993">
        <ele>443.82</ele>
        <time>2017-02-25T16:00:16Z</time>
      </trkpt>
      <trkpt lat="45.25796" lon="5.24009">
        <ele>443.94</ele>
        <time>2017-02-25T16:00:17Z</time>
      </trkpt>
      <trkpt lat="45.258" lon="5.24024">
        <ele>443.88</ele>
        <time>2017-02-25T16:00:18Z</time>
      </trkpt>
      <trkpt lat="45.25805" lon="5.24039">
        <ele>443.87</ele>
        <time>2017-02-25T16:00:19Z</time>
      </trkpt>
      <trkpt lat="45.25809" lon="5.24053">
        <ele>444.11</ele>
        <time>2017-02-25T16:00:20Z</time>
      </trkpt>
      <trkpt lat="45.25813" lon="5.24065">
        <ele>444.24</ele>
        <time>2017-02-25T16:00:21Z</time>
      </trkpt>
      <trkpt lat="45.25816" lon="5.24077">
        <ele>444.18</ele>
        <time>2017-02-25T16:00:22Z</time>
      </trkpt>
      <trkpt lat="45.2582" lon="5.24087">
        <ele>444.41</ele>
        <time>2017-02-25T16:00:23Z</time>
      </trkpt>
      <trkpt lat="45.25823" lon="5.24096">
        <ele>444.62</ele>
        <time>2017-02-25T16:00:24Z</time>
      </trkpt>
      <trkpt lat="45.25826" lon="5.24103">
        <ele>445.46</ele>
        <time>2017-02-25T16:00:25Z</time>
      </trkpt>
      <trkpt lat="45.25829" lon="5.2411">
        <ele>445.86</ele>
        <time>2017-02-25T16:00:26Z</time>
      </trkpt>
      <trkpt lat="45.25831" lon="5.24117">
        <ele>446.27</ele>
        <time>2017-02-25T16:00:27Z</time>
      </trkpt>
      <trkpt lat="45.25833" lon="5.24124">
        <ele>446.51</ele>
        <time>2017-02-25T16:00:28Z</time>
      </trkpt>
      <trkpt lat="45.25835" lon="5.24131">
        <ele>446.87</ele>
        <time>2017-02-25T16:00:29Z</time>
      </trkpt>
      <trkpt lat="45.25837" lon="5.24137">
        <ele>447.11</ele>
        <time>2017-02-25T16:00:30Z</time>
      </trkpt>
      <trkpt lat="45.25838" lon="5.24141">
        <ele>447.32</ele>
        <time>2017-02-25T16:00:31Z</time>
      </trkpt>
      <trkpt lat="45.25839" lon="5.24144">
        <ele>447.36</ele>
        <time>2017-02-25T16:00:32Z</time>
      </trkpt>
      <trkpt lat="45.25839" lon="5.24144">
        <ele>447.36</ele>
        <time>2017-02-25T16:00:33Z</time>
      </trkpt>
      <trkpt lat="45.25839" lon="5.24144">
        <ele>447.37</ele>
        <time>2017-02-25T16:00:34Z</time>
      </trkpt>
      <trkpt lat="45.25839" lon="5.24144">
        <ele>447.37</ele>
        <time>2017-02-25T16:00:35Z</time>
      </trkpt>
      <trkpt lat="45.25839" lon="5.24144">
        <ele>447.37</ele>
        <time>2017-02-25T16:00:36Z</time>
      </trkpt>
      <trkpt lat="45.25839" lon="5.24144">
        <ele>447.37</ele>
        <time>2017-02-25T16:00:37Z</time>
      </trkpt>
      <trkpt lat="45.25839" lon="5.24144">
        <ele>447.37</ele>
        <time>2017-02-25T16:00:38Z</time>
      </trkpt>
      <trkpt lat="45.25839" lon="5.24144">
        <ele>447.37</ele>
        <time>2017-02-25T16:00:39Z</time>
      </trkpt>
      <trkpt lat="45.25839" lon="5.24144">
        <ele>447.37</ele>
        <time>2017-02-25T16:00:40Z</time>
      </trkpt>
      <trkpt lat="45.25839" lon="5.24144">
        <ele>447.37</ele>
        <time>2017-02-25T16:00:41Z</time>
      </trkpt>
      <trkpt lat="45.25839" lon="5.24144">
        <ele>447.37</ele>
        <time>2017-02-25T16:00:42Z</time>
      </trkpt>
      <trkpt lat="45.25839" lon="5.24144">
        <ele>447.37</ele>
        <time>2017-02-25T16:00:43Z</time>
      </trkpt>
      <trkpt lat="45.25839" lon="5.24144">
        <ele>447.37</ele>
        <time>2017-02-25T16:00:44Z</time>
      </trkpt>
      <trkpt lat="45.25839" lon="5.24144">
        <ele>447.37</ele>
        <time>2017-02-25T16:00:45Z</time>
      </trkpt>
      <trkpt lat="45.25839" lon="5.24144">
        <ele>447.37</ele>
        <time>2017-02-25T16:00:46Z</time>
      </trkpt>
      <trkpt lat="45.25839" lon="5.24144">
        <ele>447.37</ele>
        <time>2017-02-25T16:00:47Z</time>
      </trkpt>
      <trkpt lat="45.25839" lon="5.24144">
        <ele>447.37</ele>
        <time>2017-02-25T16:00:48Z</time>
      </trkpt>
      <trkpt lat="45.25839" lon="5.24144">
        <ele>447.37</ele>
        <time>2017-02-25T16:00:49Z</time>
      </trkpt>
      <trkpt lat="45.25839" lon="5.24144">
        <ele>447.37</ele>
        <time>2017-02-25T16:00:50Z</time>
      </trkpt>
      <trkpt lat="45.25839" lon="5.24144">
        <ele>447.37</ele>
        <time>2017-02-25T16:00:51Z</time>
      </trkpt>
      <trkpt lat="45.25839" lon="5.24144">
        <ele>447.37</ele>
        <time>2017-02-25T16:00:52Z</time>
      </trkpt>
      <trkpt lat="45.25839" lon="5.24144">
        <ele>447.37</ele>
        <time>2017-02-25T16:00:53Z</time>
      </trkpt>
      <trkpt lat="45.25839" lon="5.24144">
        <ele>447.37</ele>
        <time>2017-02-25T16:00:54Z</time>
      </trkpt>
      <trkpt lat="45.25839" lon="5.24144">
        <ele>447.37</ele>
        <time>2017-02-25T16:00:55Z</time>
      </trkpt>
      <trkpt lat="45.25839" lon="5.24144">
        <ele>447.37</ele>
        <time>2017-02-25T16:00:56Z</time>
      </trkpt>
      <trkpt lat="45.25839" lon="5.24144">
        <ele>447.37</ele>
        <time>2017-02-25T16:00:57Z</time>
      </trkpt>
      <trkpt lat="45.25839" lon="5.24144">
        <ele>447.37</ele>
        <time>2017-02-25T16:00:58Z</time>
      </trkpt>
      <trkpt lat="45.25839" lon="5.24144">
        <ele>447.37</ele>
        <time>2017-02-25T16:00:59Z</time>
      </trkpt>
      <trkpt lat="45.25839" lon="5.24144">
        <ele>447.37</ele>
        <time>2017-02-25T16:01:00Z</time>
      </trkpt>
      <trkpt lat="45.25839" lon="5.24144">
        <ele>447.37</ele>
        <time>2017-02-25T16:01:01Z</time>
      </trkpt>
      <trkpt lat="45.25839" lon="5.24144">
        <ele>447.37</ele>
        <time>2017-02-25T16:01:02Z</time>
      </trkpt>
      <trkpt lat="45.25839" lon="5.24144">
        <ele>447.37</ele>
        <time>2017-02-25T16:01:03Z</time>
      </trkpt>
      <trkpt lat="45.25839" lon="5.24144">
        <ele>447.37</ele>
        <time>2017-02-25T16:01:04Z</time>
      </trkpt>
      <trkpt lat="45.25839" lon="5.24144">
        <ele>447.37</ele>
        <time>2017-02-25T16:01:05Z</time>
      </trkpt>
      <trkpt lat="45.25839" lon="5.24144">
        <ele>447.37</ele>
        <time>2017-02-25T16:01:06Z</time>
      </trkpt>
      <trkpt lat="45.25839" lon="5.24144">
        <ele>447.37</ele>
        <time>2017-02-25T16:01:07Z</time>
      </trkpt>
      <trkpt lat="45.25839" lon="5.24144">
        <ele>447.37</ele>
        <time>2017-02-25T16:01:08Z</time>
      </trkpt>
      <trkpt lat="45.25839" lon="5.24144">
        <ele>447.37</ele>
        <time>2017-02-25T16:01:09Z</time>
      </trkpt>
      <trkpt lat="45.25839" lon="5.24144">
        <ele>447.37</ele>
        <time>2017-02-25T16:01:10Z</time>
      </trkpt>
      <trkpt lat="45.25839" lon="5.24144">
        <ele>447.37</ele>
        <time>2017-02-25T16:01:11Z</time>
      </trkpt>
      <trkpt lat="45.25839" lon="5.24144">
        <ele>447.37</ele>
        <time>2017-02-25T16:01:12Z</time>
      </trkpt>
      <trkpt lat="45.2584" lon="5.24148">
        <ele>447.37</ele>
        <time>2017-02-25T16:01:13Z</time>
      </trkpt>
      <trkpt lat="45.25842" lon="5.24154">
        <ele>447.53</ele>
        <time>2017-02-25T16:01:14Z</time>
      </trkpt>
      <trkpt lat="45.25844" lon="5.24162">
        <ele>447.88</ele>
        <time>2017-02-25T16:01:15Z</time>
      </trkpt>
      <trkpt lat="45.25847" lon="5.24171">
        <ele>448.19</ele>
        <time>2017-02-25T16:01:16Z</time>
      </trkpt>
      <trkpt lat="45.25849" lon="5.2418">
        <ele>448.57</ele>
        <time>2017-02-25T16:01:17Z</time>
      </trkpt>
      <trkpt lat="45.25852" lon="5.24189">
        <ele>448.89</ele>
        <time>2017-02-25T16:01:18Z</time>
      </trkpt>
      <trkpt lat="45.25854" lon="5.24199">
        <ele>449.27</ele>
        <time>2017-02-25T16:01:19Z</time>
      </trkpt>
      <trkpt lat="45.25856" lon="5.24207">
        <ele>449.75</ele>
        <time>2017-02-25T16:01:20Z</time>
      </trkpt>
      <trkpt lat="45.25859" lon="5.24214">
        <ele>450.32</ele>
        <time>2017-02-25T16:01:21Z</time>
      </trkpt>
      <trkpt lat="45.25861" lon="5.2422">
        <ele>450.84</ele>
        <time>2017-02-25T16:01:22Z</time>
      </trkpt>
      <trkpt lat="45.25862" lon="5.24224">
        <ele>451.26</ele>
        <time>2017-02-25T16:01:23Z</time>
      </trkpt>
      <trkpt lat="45.25863" lon="5.24226">
        <ele>451.43</ele>
        <time>2017-02-25T16:01:24Z</time>
      </trkpt>
      <trkpt lat="45.25864" lon="5.24226">
        <ele>451.62</ele>
        <time>2017-02-25T16:01:25Z</time>
      </trkpt>
      <trkpt lat="45.25864" lon="5.24226">
        <ele>451.82</ele>
        <time>2017-02-25T16:01:26Z</time>
      </trkpt>
      <trkpt lat="45.25864" lon="5.24225">
        <ele>452.02</ele>
        <time>2017-02-25T16:01:27Z</time>
      </trkpt>
      <trkpt lat="45.25864" lon="5.24225">
        <ele>452.06</ele>
        <time>2017-02-25T16:01:28Z</time>
      </trkpt>
      <trkpt lat="45.25864" lon="5.24225">
        <ele>452.07</ele>
        <time>2017-02-25T16:01:29Z</time>
      </trkpt>
      <trkpt lat="45.25864" lon="5.24225">
        <ele>452.07</ele>
        <time>2017-02-25T16:01:30Z</time>
      </trkpt>
      <trkpt lat="45.25865" lon="5.24224">
        <ele>452.47</ele>
        <time>2017-02-25T16:01:31Z</time>
      </trkpt>
      <trkpt lat="45.25866" lon="5.24222">
        <ele>452.55</ele>
        <time>2017-02-25T16:01:32Z</time>
      </trkpt>
      <trkpt lat="45.25866" lon="5.24218">
        <ele>452.64</ele>
        <time>2017-02-25T16:01:33Z</time>
      </trkpt>
      <trkpt lat="45.25867" lon="5.24212">
        <ele>452.82</ele>
        <time>2017-02-25T16:01:34Z</time>
      </trkpt>
      <trkpt lat="45.25868" lon="5.24208">
        <ele>452.94</ele>
        <time>2017-02-25T16:01:35Z</time>
      </trkpt>
      <trkpt lat="45.25869" lon="5.24204">
        <ele>452.96</ele>
        <time>2017-02-25T16:01:36Z</time>
      </trkpt>
      <trkpt lat="45.2587" lon="5.24202">
        <ele>452.97</ele>
        <time>2017-02-25T16:01:37Z</time>
      </trkpt>
      <trkpt lat="45.25873" lon="5.242">
        <ele>452.89</ele>
        <time>2017-02-25T16:01:38Z</time>
      </trkpt>
      <trkpt lat="45.25875" lon="5.24199">
        <ele>452.87</ele>
        <time>2017-02-25T16:01:39Z</time>
      </trkpt>
      <trkpt lat="45.25877" lon="5.24199">
        <ele>452.79</ele>
        <time>2017-02-25T16:01:40Z</time>
      </trkpt>
      <trkpt lat="45.25878" lon="5.24198">
        <ele>452.85</ele>
        <time>2017-02-25T16:01:41Z</time>
      </trkpt>
      <trkpt lat="45.25879" lon="5.24197">
        <ele>452.86</ele>
        <time>2017-02-25T16:01:42Z</time>
      </trkpt>
      <trkpt lat="45.25879" lon="5.24197">
        <ele>452.87</ele>
        <time>2017-02-25T16:01:43Z</time>
      </trkpt>
      <trkpt lat="45.25879" lon="5.24197">
        <ele>453.03</ele>
        <time>2017-02-25T16:01:44Z</time>
      </trkpt>
      <trkpt lat="45.25879" lon="5.24197">
        <ele>453.06</ele>
        <time>2017-02-25T16:01:45Z</time>
      </trkpt>
      <trkpt lat="45.25879" lon="5.24197">
        <ele>453.07</ele>
        <time>2017-02-25T16:01:46Z</time>
      </trkpt>
      <trkpt lat="45.25879" lon="5.24197">
        <ele>453.07</ele>
        <time>2017-02-25T16:01:47Z</time>
      </trkpt>
      <trkpt lat="45.25879" lon="5.24197">
        <ele>453.07</ele>
        <time>2017-02-25T16:01:48Z</time>
      </trkpt>
      <trkpt lat="45.25879" lon="5.24197">
        <ele>453.07</ele>
        <time>2017-02-25T16:01:49Z</time>
      </trkpt>
      <trkpt lat="45.25879" lon="5.24197">
        <ele>453.07</ele>
        <time>2017-02-25T16:01:50Z</time>
      </trkpt>
      <trkpt lat="45.25879" lon="5.24197">
        <ele>453.07</ele>
        <time>2017-02-25T16:01:51Z</time>
      </trkpt>
      <trkpt lat="45.25879" lon="5.24197">
        <ele>453.07</ele>
        <time>2017-02-25T16:01:52Z</time>
      </trkpt>
      <trkpt lat="45.25879" lon="5.24197">
        <ele>453.07</ele>
        <time>2017-02-25T16:01:53Z</time>
      </trkpt>
      <trkpt lat="45.25879" lon="5.24197">
        <ele>453.07</ele>
        <time>2017-02-25T16:01:54Z</time>
      </trkpt>
      <trkpt lat="45.25879" lon="5.24197">
        <ele>453.07</ele>
        <time>2017-02-25T16:01:55Z</time>
      </trkpt>
      <trkpt lat="45.25879" lon="5.24197">
        <ele>453.07</ele>
        <time>2017-02-25T16:01:56Z</time>
      </trkpt>
      <trkpt lat="45.25879" lon="5.24197">
        <ele>453.07</ele>
        <time>2017-02-25T16:01:57Z</time>
      </trkpt>
      <trkpt lat="45.25879" lon="5.24197">
        <ele>453.07</ele>
        <time>2017-02-25T16:01:58Z</time>
      </trkpt>
      <trkpt lat="45.25879" lon="5.24197">
        <ele>453.07</ele>
        <time>2017-02-25T16:01:59Z</time>
      </trkpt>
      <trkpt lat="45.25879" lon="5.24197">
        <ele>453.07</ele>
        <time>2017-02-25T16:02:00Z</time>
      </trkpt>
      <trkpt lat="45.25879" lon="5.24197">
        <ele>453.07</ele>
        <time>2017-02-25T16:02:01Z</time>
      </trkpt>
      <trkpt lat="45.25879" lon="5.24197">
        <ele>453.07</ele>
        <time>2017-02-25T16:02:02Z</time>
      </trkpt>
      <trkpt lat="45.25879" lon="5.24197">
        <ele>453.07</ele>
        <time>2017-02-25T16:02:03Z</time>
      </trkpt>
      <trkpt lat="45.25879" lon="5.24197">
        <ele>453.07</ele>
        <time>2017-02-25T16:02:04Z</time>
      </trkpt>
      <trkpt lat="45.25879" lon="5.24197">
        <ele>453.07</ele>
        <time>2017-02-25T16:02:05Z</time>
      </trkpt>
      <trkpt lat="45.25879" lon="5.24197">
        <ele>453.07</ele>
        <time>2017-02-25T16:02:06Z</time>
      </trkpt>
      <trkpt lat="45.25879" lon="5.24197">
        <ele>453.07</ele>
        <time>2017-02-25T16:02:07Z</time>
      </trkpt>
      <trkpt lat="45.25879" lon="5.24197">
        <ele>453.07</ele>
        <time>2017-02-25T16:02:08Z</time>
      </trkpt>
      <trkpt lat="45.25879" lon="5.24197">
        <ele>453.07</ele>
        <time>2017-02-25T16:02:09Z</time>
      </trkpt>
      <trkpt lat="45.25879" lon="5.24197">
        <ele>453.07</ele>
        <time>2017-02-25T16:02:10Z</time>
      </trkpt>
      <trkpt lat="45.25879" lon="5.24197">
        <ele>453.07</ele>
        <time>2017-02-25T16:02:11Z</time>
      </trkpt>
      <trkpt lat="45.25879" lon="5.24197">
        <ele>453.07</ele>
        <time>2017-02-25T16:02:12Z</time>
      </trkpt>
      <trkpt lat="45.25879" lon="5.24197">
        <ele>453.07</ele>
        <time>2017-02-25T16:02:13Z</time>
      </trkpt>
      <trkpt lat="45.25879" lon="5.24197">
        <ele>453.07</ele>
        <time>2017-02-25T16:02:14Z</time>
      </trkpt>
      <trkpt lat="45.25879" lon="5.24197">
        <ele>453.07</ele>
        <time>2017-02-25T16:02:15Z</time>
      </trkpt>
      <trkpt lat="45.25879" lon="5.24197">
        <ele>453.07</ele>
        <time>2017-02-25T16:02:16Z</time>
      </trkpt>
      <trkpt lat="45.25879" lon="5.24197">
        <ele>453.07</ele>
        <time>2017-02-25T16:02:17Z</time>
      </trkpt>
      <trkpt lat="45.25879" lon="5.24197">
        <ele>453.07</ele>
        <time>2017-02-25T16:02:18Z</time>
      </trkpt>
      <trkpt lat="45.25879" lon="5.24197">
        <ele>453.07</ele>
        <time>2017-02-25T16:02:19Z</time>
      </trkpt>
      <trkpt lat="45.25879" lon="5.24197">
        <ele>453.07</ele>
        <time>2017-02-25T16:02:20Z</time>
      </trkpt>
      <trkpt lat="45.25879" lon="5.24197">
        <ele>453.07</ele>
        <time>2017-02-25T16:02:21Z</time>
      </trkpt>
      <trkpt lat="45.25879" lon="5.24197">
        <ele>453.07</ele>
        <time>2017-02-25T16:02:22Z</time>
      </trkpt>
      <trkpt lat="45.25879" lon="5.24197">
        <ele>453.07</ele>
        <time>2017-02-25T16:02:23Z</time>
      </trkpt>
      <trkpt lat="45.25879" lon="5.24197">
        <ele>453.07</ele>
        <time>2017-02-25T16:02:24Z</time>
      </trkpt>
      <trkpt lat="45.25879" lon="5.24197">
        <ele>453.07</ele>
        <time>2017-02-25T16:02:25Z</time>
      </trkpt>
      <trkpt lat="45.25879" lon="5.24197">
        <ele>453.07</ele>
        <time>2017-02-25T16:02:26Z</time>
      </trkpt>
      <trkpt lat="45.25879" lon="5.24197">
        <ele>453.07</ele>
        <time>2017-02-25T16:02:27Z</time>
      </trkpt>
      <trkpt lat="45.25879" lon="5.24197">
        <ele>453.07</ele>
        <time>2017-02-25T16:02:28Z</time>
      </trkpt>
      <trkpt lat="45.25879" lon="5.24197">
        <ele>453.07</ele>
        <time>2017-02-25T16:02:29Z</time>
      </trkpt>
      <trkpt lat="45.25879" lon="5.24197">
        <ele>453.07</ele>
        <time>2017-02-25T16:02:30Z</time>
      </trkpt>
      <trkpt lat="45.25879" lon="5.24197">
        <ele>453.07</ele>
        <time>2017-02-25T16:02:31Z</time>
      </trkpt>
      <trkpt lat="45.25879" lon="5.24197">
        <ele>453.07</ele>
        <time>2017-02-25T16:02:32Z</time>
      </trkpt>
      <trkpt lat="45.25879" lon="5.24197">
        <ele>453.07</ele>
        <time>2017-02-25T16:02:33Z</time>
      </trkpt>
      <trkpt lat="45.25879" lon="5.24197">
        <ele>453.07</ele>
        <time>2017-02-25T16:02:34Z</time>
      </trkpt>
      <trkpt lat="45.25879" lon="5.24197">
        <ele>453.07</ele>
        <time>2017-02-25T16:02:35Z</time>
      </trkpt>
      <trkpt lat="45.25879" lon="5.24197">
        <ele>453.07</ele>
        <time>2017-02-25T16:02:36Z</time>
      </trkpt>
      <trkpt lat="45.25879" lon="5.24197">
        <ele>453.07</ele>
        <time>2017-02-25T16:02:37Z</time>
      </trkpt>
      <trkpt lat="45.25879" lon="5.24197">
        <ele>453.07</ele>
        <time>2017-02-25T16:02:38Z</time>
      </trkpt>
      <trkpt lat="45.25879" lon="5.24197">
        <ele>453.07</ele>
        <time>2017-02-25T16:02:39Z</time>
      </trkpt>
      <trkpt lat="45.25879" lon="5.24197">
        <ele>453.07</ele>
        <time>2017-02-25T16:02:40Z</time>
      </trkpt>
      <trkpt lat="45.25879" lon="5.24197">
        <ele>453.07</ele>
        <time>2017-02-25T16:02:41Z</time>
      </trkpt>
      <trkpt lat="45.25879" lon="5.24197">
        <ele>453.07</ele>
        <time>2017-02-25T16:02:42Z</time>
      </trkpt>
      <trkpt lat="45.25879" lon="5.24197">
        <ele>453.07</ele>
        <time>2017-02-25T16:02:43Z</time>
      </trkpt>
      <trkpt lat="45.25879" lon="5.24197">
        <ele>453.07</ele>
        <time>2017-02-25T16:02:44Z</time>
      </trkpt>
      <trkpt lat="45.25879" lon="5.24197">
        <ele>453.07</ele>
        <time>2017-02-25T16:02:45Z</time>
      </trkpt>
      <trkpt lat="45.25879" lon="5.24197">
        <ele>453.07</ele>
        <time>2017-02-25T16:02:46Z</time>
      </trkpt>
      <trkpt lat="45.25879" lon="5.24197">
        <ele>453.07</ele>
        <time>2017-02-25T16:02:47Z</time>
      </trkpt>
      <trkpt lat="45.25879" lon="5.24197">
        <ele>453.07</ele>
        <time>2017-02-25T16:02:48Z</time>
      </trkpt>
      <trkpt lat="45.25879" lon="5.24197">
        <ele>453.07</ele>
        <time>2017-02-25T16:02:49Z</time>
      </trkpt>
      <trkpt lat="45.25879" lon="5.24197">
        <ele>453.07</ele>
        <time>2017-02-25T16:02:50Z</time>
      </trkpt>
      <trkpt lat="45.25879" lon="5.24197">
        <ele>453.07</ele>
        <time>2017-02-25T16:02:51Z</time>
      </trkpt>
      <trkpt lat="45.25879" lon="5.24197">
        <ele>453.07</ele>
        <time>2017-02-25T16:02:52Z</time>
      </trkpt>
      <trkpt lat="45.25879" lon="5.24197">
        <ele>453.07</ele>
        <time>2017-02-25T16:02:53Z</time>
      </trkpt>
      <trkpt lat="45.25879" lon="5.24197">
        <ele>453.07</ele>
        <time>2017-02-25T16:02:54Z</time>
      </trkpt>
      <trkpt lat="45.25879" lon="5.24197">
        <ele>453.07</ele>
        <time>2017-02-25T16:02:55Z</time>
      </trkpt>
      <trkpt lat="45.25879" lon="5.24197">
        <ele>453.07</ele>
        <time>2017-02-25T16:02:56Z</time>
      </trkpt>
      <trkpt lat="45.25879" lon="5.24197">
        <ele>453.07</ele>
        <time>2017-02-25T16:02:57Z</time>
      </trkpt>
      <trkpt lat="45.25879" lon="5.24197">
        <ele>453.07</ele>
        <time>2017-02-25T16:02:58Z</time>
      </trkpt>
      <trkpt lat="45.25879" lon="5.24197">
        <ele>453.07</ele>
        <time>2017-02-25T16:02:59Z</time>
      </trkpt>
      <trkpt lat="45.25879" lon="5.24197">
        <ele>453.07</ele>
        <time>2017-02-25T16:03:00Z</time>
      </trkpt>
      <trkpt lat="45.25879" lon="5.24197">
        <ele>453.07</ele>
        <time>2017-02-25T16:03:01Z</time>
      </trkpt>
      <trkpt lat="45.25879" lon="5.24197">
        <ele>453.07</ele>
        <time>2017-02-25T16:03:02Z</time>
      </trkpt>
      <trkpt lat="45.25879" lon="5.24197">
        <ele>453.07</ele>
        <time>2017-02-25T16:03:03Z</time>
      </trkpt>
      <trkpt lat="45.25879" lon="5.24197">
        <ele>453.07</ele>
        <time>2017-02-25T16:03:04Z</time>
      </trkpt>
      <trkpt lat="45.25879" lon="5.24197">
        <ele>453.07</ele>
        <time>2017-02-25T16:03:05Z</time>
      </trkpt>
      <trkpt lat="45.25879" lon="5.24197">
        <ele>453.07</ele>
        <time>2017-02-25T16:03:06Z</time>
      </trkpt>
      <trkpt lat="45.25879" lon="5.24197">
        <ele>453.07</ele>
        <time>2017-02-25T16:03:07Z</time>
      </trkpt>
      <trkpt lat="45.25879" lon="5.24197">
        <ele>453.07</ele>
        <time>2017-02-25T16:03:08Z</time>
      </trkpt>
      <trkpt lat="45.25879" lon="5.24197">
        <ele>453.07</ele>
        <time>2017-02-25T16:03:09Z</time>
      </trkpt>
      <trkpt lat="45.25879" lon="5.24197">
        <ele>453.07</ele>
        <time>2017-02-25T16:03:10Z</time>
      </trkpt>
      <trkpt lat="45.25879" lon="5.24197">
        <ele>453.07</ele>
        <time>2017-02-25T16:03:11Z</time>
      </trkpt>
      <trkpt lat="45.25879" lon="5.24197">
        <ele>453.07</ele>
        <time>2017-02-25T16:03:12Z</time>
      </trkpt>
      <trkpt lat="45.25879" lon="5.24197">
        <ele>453.07</ele>
        <time>2017-02-25T16:03:13Z</time>
      </trkpt>
      <trkpt lat="45.25879" lon="5.24197">
        <ele>453.07</ele>
        <time>2017-02-25T16:03:14Z</time>
      </trkpt>
      <trkpt lat="45.25879" lon="5.24197">
        <ele>453.07</ele>
        <time>2017-02-25T16:03:15Z</time>
      </trkpt>
      <trkpt lat="45.25879" lon="5.24197">
        <ele>453.07</ele>
        <time>2017-02-25T16:03:16Z</time>
      </trkpt>
      <trkpt lat="45.25879" lon="5.24197">
        <ele>453.07</ele>
        <time>2017-02-25T16:03:17Z</time>
      </trkpt>
      <trkpt lat="45.25879" lon="5.24197">
        <ele>453.07</ele>
        <time>2017-02-25T16:03:18Z</time>
      </trkpt>
      <trkpt lat="45.25879" lon="5.24197">
        <ele>453.07</ele>
        <time>2017-02-25T16:03:19Z</time>
      </trkpt>
      <trkpt lat="45.25879" lon="5.24197">
        <ele>453.07</ele>
        <time>2017-02-25T16:03:20Z</time>
      </trkpt>
      <trkpt lat="45.25879" lon="5.24197">
        <ele>453.07</ele>
        <time>2017-02-25T16:03:21Z</time>
      </trkpt>
      <trkpt lat="45.25879" lon="5.24197">
        <ele>453.07</ele>
        <time>2017-02-25T16:03:22Z</time>
      </trkpt>
      <trkpt lat="45.25879" lon="5.24197">
        <ele>453.07</ele>
        <time>2017-02-25T16:03:23Z</time>
      </trkpt>
      <trkpt lat="45.25879" lon="5.24197">
        <ele>453.07</ele>
        <time>2017-02-25T16:03:24Z</time>
      </trkpt>
      <trkpt lat="45.25879" lon="5.24197">
        <ele>453.07</ele>
        <time>2017-02-25T16:03:25Z</time>
      </trkpt>
      <trkpt lat="45.25879" lon="5.24197">
        <ele>453.07</ele>
        <time>2017-02-25T16:03:26Z</time>
      </trkpt>
      <trkpt lat="45.25879" lon="5.24197">
        <ele>453.07</ele>
        <time>2017-02-25T16:03:27Z</time>
      </trkpt>
      <trkpt lat="45.25879" lon="5.24197">
        <ele>453.07</ele>
        <time>2017-02-25T16:03:28Z</time>
      </trkpt>
      <trkpt lat="45.25879" lon="5.24197">
        <ele>453.07</ele>
        <time>2017-02-25T16:03:29Z</time>
      </trkpt>
      <trkpt lat="45.25879" lon="5.24197">
        <ele>453.07</ele>
        <time>2017-02-25T16:03:30Z</time>
      </trkpt>
      <trkpt lat="45.25879" lon="5.24197">
        <ele>453.07</ele>
        <time>2017-02-25T16:03:31Z</time>
      </trkpt>
      <trkpt lat="45.25879" lon="5.24197">
        <ele>453.07</ele>
        <time>2017-02-25T16:03:32Z</time>
      </trkpt>
      <trkpt lat="45.25879" lon="5.24197">
        <ele>453.07</ele>
        <time>2017-02-25T16:03:33Z</time>
      </trkpt>
      <trkpt lat="45.25879" lon="5.24197">
        <ele>453.07</ele>
        <time>2017-02-25T16:03:34Z</time>
      </trkpt>
      <trkpt lat="45.25879" lon="5.24197">
        <ele>453.07</ele>
        <time>2017-02-25T16:03:35Z</time>
      </trkpt>
      <trkpt lat="45.25879" lon="5.24197">
        <ele>453.07</ele>
        <time>2017-02-25T16:03:36Z</time>
      </trkpt>
      <trkpt lat="45.25879" lon="5.24197">
        <ele>453.07</ele>
        <time>2017-02-25T16:03:37Z</time>
      </trkpt>
      <trkpt lat="45.25879" lon="5.24197">
        <ele>453.07</ele>
        <time>2017-02-25T16:03:38Z</time>
      </trkpt>
      <trkpt lat="45.25879" lon="5.24197">
        <ele>453.07</ele>
        <time>2017-02-25T16:03:39Z</time>
      </trkpt>
      <trkpt lat="45.25879" lon="5.24197">
        <ele>453.07</ele>
        <time>2017-02-25T16:03:40Z</time>
      </trkpt>
      <trkpt lat="45.25879" lon="5.24197">
        <ele>453.07</ele>
        <time>2017-02-25T16:03:41Z</time>
      </trkpt>
      <trkpt lat="45.25879" lon="5.24197">
        <ele>453.07</ele>
        <time>2017-02-25T16:03:42Z</time>
      </trkpt>
      <trkpt lat="45.25879" lon="5.24197">
        <ele>453.07</ele>
        <time>2017-02-25T16:03:43Z</time>
      </trkpt>
      <trkpt lat="45.25879" lon="5.24197">
        <ele>453.07</ele>
        <time>2017-02-25T16:03:44Z</time>
      </trkpt>
      <trkpt lat="45.25879" lon="5.24197">
        <ele>453.07</ele>
        <time>2017-02-25T16:03:45Z</time>
      </trkpt>
      <trkpt lat="45.25879" lon="5.24197">
        <ele>453.07</ele>
        <time>2017-02-25T16:03:46Z</time>
      </trkpt>
      <trkpt lat="45.25879" lon="5.24197">
        <ele>453.07</ele>
        <time>2017-02-25T16:03:47Z</time>
      </trkpt>
      <trkpt lat="45.25879" lon="5.24197">
        <ele>453.07</ele>
        <time>2017-02-25T16:03:48Z</time>
      </trkpt>
      <trkpt lat="45.25879" lon="5.24197">
        <ele>453.07</ele>
        <time>2017-02-25T16:03:49Z</time>
      </trkpt>
      <trkpt lat="45.25879" lon="5.24197">
        <ele>453.07</ele>
        <time>2017-02-25T16:03:50Z</time>
      </trkpt>
      <trkpt lat="45.25879" lon="5.24197">
        <ele>453.07</ele>
        <time>2017-02-25T16:03:51Z</time>
      </trkpt>
      <trkpt lat="45.25879" lon="5.24197">
        <ele>453.07</ele>
        <time>2017-02-25T16:03:52Z</time>
      </trkpt>
      <trkpt lat="45.25879" lon="5.24197">
        <ele>453.07</ele>
        <time>2017-02-25T16:03:53Z</time>
      </trkpt>
      <trkpt lat="45.25879" lon="5.24197">
        <ele>453.07</ele>
        <time>2017-02-25T16:03:54Z</time>
      </trkpt>
      <trkpt lat="45.25879" lon="5.24197">
        <ele>453.07</ele>
        <time>2017-02-25T16:03:55Z</time>
      </trkpt>
      <trkpt lat="45.25879" lon="5.24197">
        <ele>453.07</ele>
        <time>2017-02-25T16:03:56Z</time>
      </trkpt>
      <trkpt lat="45.25879" lon="5.24197">
        <ele>453.07</ele>
        <time>2017-02-25T16:03:57Z</time>
      </trkpt>
      <trkpt lat="45.25879" lon="5.24197">
        <ele>453.07</ele>
        <time>2017-02-25T16:03:58Z</time>
      </trkpt>
      <trkpt lat="45.25879" lon="5.24197">
        <ele>453.07</ele>
        <time>2017-02-25T16:03:59Z</time>
      </trkpt>
      <trkpt lat="45.25879" lon="5.24197">
        <ele>453.07</ele>
        <time>2017-02-25T16:04:00Z</time>
      </trkpt>
      <trkpt lat="45.25879" lon="5.24197">
        <ele>453.07</ele>
        <time>2017-02-25T16:04:01Z</time>
      </trkpt>
      <trkpt lat="45.25879" lon="5.24197">
        <ele>453.07</ele>
        <time>2017-02-25T16:04:02Z</time>
      </trkpt>
      <trkpt lat="45.25879" lon="5.24197">
        <ele>453.07</ele>
        <time>2017-02-25T16:04:03Z</time>
      </trkpt>
      <trkpt lat="45.25879" lon="5.24197">
        <ele>453.07</ele>
        <time>2017-02-25T16:04:04Z</time>
      </trkpt>
      <trkpt lat="45.25879" lon="5.24197">
        <ele>453.07</ele>
        <time>2017-02-25T16:04:05Z</time>
      </trkpt>
      <trkpt lat="45.25879" lon="5.24197">
        <ele>453.07</ele>
        <time>2017-02-25T16:04:06Z</time>
      </trkpt>
      <trkpt lat="45.25879" lon="5.24197">
        <ele>453.07</ele>
        <time>2017-02-25T16:04:07Z</time>
      </trkpt>
      <trkpt lat="45.25879" lon="5.24197">
        <ele>453.07</ele>
        <time>2017-02-25T16:04:08Z</time>
      </trkpt>
      <trkpt lat="45.25879" lon="5.24197">
        <ele>453.07</ele>
        <time>2017-02-25T16:04:09Z</time>
      </trkpt>
      <trkpt lat="45.25879" lon="5.24197">
        <ele>453.07</ele>
        <time>2017-02-25T16:04:10Z</time>
      </trkpt>
      <trkpt lat="45.25879" lon="5.24197">
        <ele>453.07</ele>
        <time>2017-02-25T16:04:11Z</time>
      </trkpt>
      <trkpt lat="45.25879" lon="5.24197">
        <ele>453.07</ele>
        <time>2017-02-25T16:04:12Z</time>
      </trkpt>
      <trkpt lat="45.25879" lon="5.24197">
        <ele>453.07</ele>
        <time>2017-02-25T16:04:13Z</time>
      </trkpt>
      <trkpt lat="45.25879" lon="5.24197">
        <ele>453.07</ele>
        <time>2017-02-25T16:04:14Z</time>
      </trkpt>
      <trkpt lat="45.25879" lon="5.24197">
        <ele>453.07</ele>
        <time>2017-02-25T16:04:15Z</time>
      </trkpt>
      <trkpt lat="45.25879" lon="5.24197">
        <ele>453.07</ele>
        <time>2017-02-25T16:04:16Z</time>
      </trkpt>
      <trkpt lat="45.25879" lon="5.24197">
        <ele>453.07</ele>
        <time>2017-02-25T16:04:17Z</time>
      </trkpt>
      <trkpt lat="45.25879" lon="5.24197">
        <ele>453.07</ele>
        <time>2017-02-25T16:04:18Z</time>
      </trkpt>
      <trkpt lat="45.25879" lon="5.24197">
        <ele>453.07</ele>
        <time>2017-02-25T16:04:19Z</time>
      </trkpt>
      <trkpt lat="45.25879" lon="5.24197">
        <ele>453.07</ele>
        <time>2017-02-25T16:04:20Z</time>
      </trkpt>
      <trkpt lat="45.25879" lon="5.24197">
        <ele>453.07</ele>
        <time>2017-02-25T16:04:21Z</time>
      </trkpt>
      <trkpt lat="45.25879" lon="5.24197">
        <ele>453.07</ele>
        <time>2017-02-25T16:04:22Z</time>
      </trkpt>
      <trkpt lat="45.25879" lon="5.24197">
        <ele>453.07</ele>
        <time>2017-02-25T16:04:23Z</time>
      </trkpt>
      <trkpt lat="45.25879" lon="5.24197">
        <ele>453.07</ele>
        <time>2017-02-25T16:04:24Z</time>
      </trkpt>
      <trkpt lat="45.25879" lon="5.24197">
        <ele>453.07</ele>
        <time>2017-02-25T16:04:25Z</time>
      </trkpt>
      <trkpt lat="45.25879" lon="5.24197">
        <ele>453.07</ele>
        <time>2017-02-25T16:04:26Z</time>
      </trkpt>
      <trkpt lat="45.25879" lon="5.24197">
        <ele>453.07</ele>
        <time>2017-02-25T16:04:27Z</time>
      </trkpt>
      <trkpt lat="45.25879" lon="5.24197">
        <ele>453.07</ele>
        <time>2017-02-25T16:04:28Z</time>
      </trkpt>
      <trkpt lat="45.25879" lon="5.24197">
        <ele>453.07</ele>
        <time>2017-02-25T16:04:29Z</time>
      </trkpt>
      <trkpt lat="45.25879" lon="5.24197">
        <ele>453.07</ele>
        <time>2017-02-25T16:04:30Z</time>
      </trkpt>
      <trkpt lat="45.25879" lon="5.24197">
        <ele>453.07</ele>
        <time>2017-02-25T16:04:31Z</time>
      </trkpt>
      <trkpt lat="45.25879" lon="5.24197">
        <ele>453.07</ele>
        <time>2017-02-25T16:04:32Z</time>
      </trkpt>
      <trkpt lat="45.25879" lon="5.24197">
        <ele>453.07</ele>
        <time>2017-02-25T16:04:33Z</time>
      </trkpt>
      <trkpt lat="45.25879" lon="5.24197">
        <ele>453.07</ele>
        <time>2017-02-25T16:04:34Z</time>
      </trkpt>
      <trkpt lat="45.25879" lon="5.24197">
        <ele>453.07</ele>
        <time>2017-02-25T16:04:35Z</time>
      </trkpt>
      <trkpt lat="45.25879" lon="5.24197">
        <ele>453.07</ele>
        <time>2017-02-25T16:04:36Z</time>
      </trkpt>
      <trkpt lat="45.25879" lon="5.24197">
        <ele>453.07</ele>
        <time>2017-02-25T16:04:37Z</time>
      </trkpt>
      <trkpt lat="45.25879" lon="5.24197">
        <ele>453.07</ele>
        <time>2017-02-25T16:04:38Z</time>
      </trkpt>
      <trkpt lat="45.2588" lon="5.24194">
        <ele>453.31</ele>
        <time>2017-02-25T16:04:39Z</time>
      </trkpt>
      <trkpt lat="45.25881" lon="5.24192">
        <ele>453.36</ele>
        <time>2017-02-25T16:04:40Z</time>
      </trkpt>
      <trkpt lat="45.25881" lon="5.24189">
        <ele>453.36</ele>
        <time>2017-02-25T16:04:41Z</time>
      </trkpt>
      <trkpt lat="45.2588" lon="5.24187">
        <ele>453.37</ele>
        <time>2017-02-25T16:04:42Z</time>
      </trkpt>
      <trkpt lat="45.25879" lon="5.24185">
        <ele>453.29</ele>
        <time>2017-02-25T16:04:43Z</time>
      </trkpt>
      <trkpt lat="45.25877" lon="5.24185">
        <ele>453.27</ele>
        <time>2017-02-25T16:04:44Z</time>
      </trkpt>
      <trkpt lat="45.25876" lon="5.24186">
        <ele>453.27</ele>
        <time>2017-02-25T16:04:45Z</time>
      </trkpt>
      <trkpt lat="45.25876" lon="5.24188">
        <ele>453.19</ele>
        <time>2017-02-25T16:04:46Z</time>
      </trkpt>
      <trkpt lat="45.25875" lon="5.2419">
        <ele>453.09</ele>
        <time>2017-02-25T16:04:47Z</time>
      </trkpt>
      <trkpt lat="45.25874" lon="5.24193">
        <ele>452.99</ele>
        <time>2017-02-25T16:04:48Z</time>
      </trkpt>
      <trkpt lat="45.25873" lon="5.24196">
        <ele>452.97</ele>
        <time>2017-02-25T16:04:49Z</time>
      </trkpt>
      <trkpt lat="45.25872" lon="5.24199">
        <ele>452.97</ele>
        <time>2017-02-25T16:04:50Z</time>
      </trkpt>
      <trkpt lat="45.25871" lon="5.24203">
        <ele>452.57</ele>
        <time>2017-02-25T16:04:51Z</time>
      </trkpt>
      <trkpt lat="45.2587" lon="5.24208">
        <ele>452.17</ele>
        <time>2017-02-25T16:04:52Z</time>
      </trkpt>
      <trkpt lat="45.2587" lon="5.24212">
        <ele>451.69</ele>
        <time>2017-02-25T16:04:53Z</time>
      </trkpt>
      <trkpt lat="45.25869" lon="5.24217">
        <ele>451.35</ele>
        <time>2017-02-25T16:04:54Z</time>
      </trkpt>
      <trkpt lat="45.25869" lon="5.24221">
        <ele>451.12</ele>
        <time>2017-02-25T16:04:55Z</time>
      </trkpt>
      <trkpt lat="45.25868" lon="5.24225">
        <ele>451</ele>
        <time>2017-02-25T16:04:56Z</time>
      </trkpt>
      <trkpt lat="45.25868" lon="5.2423">
        <ele>450.65</ele>
        <time>2017-02-25T16:04:57Z</time>
      </trkpt>
      <trkpt lat="45.2587" lon="5.24238">
        <ele>449.7</ele>
        <time>2017-02-25T16:04:58Z</time>
      </trkpt>
      <trkpt lat="45.25873" lon="5.24245">
        <ele>449.19</ele>
        <time>2017-02-25T16:04:59Z</time>
      </trkpt>
      <trkpt lat="45.25876" lon="5.24252">
        <ele>448.93</ele>
        <time>2017-02-25T16:05:00Z</time>
      </trkpt>
      <trkpt lat="45.2588" lon="5.24259">
        <ele>448.64</ele>
        <time>2017-02-25T16:05:01Z</time>
      </trkpt>
      <trkpt lat="45.25884" lon="5.24264">
        <ele>448.42</ele>
        <time>2017-02-25T16:05:02Z</time>
      </trkpt>
      <trkpt lat="45.25887" lon="5.24269">
        <ele>448.22</ele>
        <time>2017-02-25T16:05:03Z</time>
      </trkpt>
      <trkpt lat="45.2589" lon="5.24272">
        <ele>447.94</ele>
        <time>2017-02-25T16:05:04Z</time>
      </trkpt>
      <trkpt lat="45.25892" lon="5.24274">
        <ele>447.72</ele>
        <time>2017-02-25T16:05:05Z</time>
      </trkpt>
      <trkpt lat="45.25893" lon="5.24277">
        <ele>447.52</ele>
        <time>2017-02-25T16:05:06Z</time>
      </trkpt>
      <trkpt lat="45.25893" lon="5.24281">
        <ele>447.32</ele>
        <time>2017-02-25T16:05:07Z</time>
      </trkpt>
      <trkpt lat="45.25893" lon="5.24285">
        <ele>447.68</ele>
        <time>2017-02-25T16:05:08Z</time>
      </trkpt>
      <trkpt lat="45.25894" lon="5.24288">
        <ele>448.23</ele>
        <time>2017-02-25T16:05:09Z</time>
      </trkpt>
      <trkpt lat="45.25895" lon="5.24291">
        <ele>448.58</ele>
        <time>2017-02-25T16:05:10Z</time>
      </trkpt>
      <trkpt lat="45.25896" lon="5.24293">
        <ele>448.65</ele>
        <time>2017-02-25T16:05:11Z</time>
      </trkpt>
      <trkpt lat="45.25897" lon="5.24295">
        <ele>448.58</ele>
        <time>2017-02-25T16:05:12Z</time>
      </trkpt>
      <trkpt lat="45.25899" lon="5.24297">
        <ele>448.65</ele>
        <time>2017-02-25T16:05:13Z</time>
      </trkpt>
      <trkpt lat="45.25902" lon="5.24301">
        <ele>448.82</ele>
        <time>2017-02-25T16:05:14Z</time>
      </trkpt>
      <trkpt lat="45.25907" lon="5.24305">
        <ele>448.86</ele>
        <time>2017-02-25T16:05:15Z</time>
      </trkpt>
      <trkpt lat="45.25912" lon="5.24309">
        <ele>448.79</ele>
        <time>2017-02-25T16:05:16Z</time>
      </trkpt>
      <trkpt lat="45.25917" lon="5.24314">
        <ele>448.85</ele>
        <time>2017-02-25T16:05:17Z</time>
      </trkpt>
      <trkpt lat="45.25922" lon="5.2432">
        <ele>448.94</ele>
        <time>2017-02-25T16:05:18Z</time>
      </trkpt>
      <trkpt lat="45.25929" lon="5.24326">
        <ele>448.96</ele>
        <time>2017-02-25T16:05:19Z</time>
      </trkpt>
      <trkpt lat="45.25937" lon="5.24332">
        <ele>449.53</ele>
        <time>2017-02-25T16:05:20Z</time>
      </trkpt>
      <trkpt lat="45.25944" lon="5.2434">
        <ele>450.12</ele>
        <time>2017-02-25T16:05:21Z</time>
      </trkpt>
      <trkpt lat="45.25951" lon="5.24349">
        <ele>450.64</ele>
        <time>2017-02-25T16:05:22Z</time>
      </trkpt>
      <trkpt lat="45.25957" lon="5.24358">
        <ele>450.98</ele>
        <time>2017-02-25T16:05:23Z</time>
      </trkpt>
      <trkpt lat="45.25963" lon="5.24368">
        <ele>451.37</ele>
        <time>2017-02-25T16:05:24Z</time>
      </trkpt>
      <trkpt lat="45.25971" lon="5.24377">
        <ele>452.01</ele>
        <time>2017-02-25T16:05:25Z</time>
      </trkpt>
      <trkpt lat="45.25979" lon="5.24387">
        <ele>452.7</ele>
        <time>2017-02-25T16:05:26Z</time>
      </trkpt>
      <trkpt lat="45.25988" lon="5.24399">
        <ele>453.15</ele>
        <time>2017-02-25T16:05:27Z</time>
      </trkpt>
      <trkpt lat="45.25997" lon="5.24411">
        <ele>453.88</ele>
        <time>2017-02-25T16:05:28Z</time>
      </trkpt>
      <trkpt lat="45.26005" lon="5.24424">
        <ele>454.67</ele>
        <time>2017-02-25T16:05:29Z</time>
      </trkpt>
      <trkpt lat="45.26013" lon="5.24438">
        <ele>455.63</ele>
        <time>2017-02-25T16:05:30Z</time>
      </trkpt>
      <trkpt lat="45.26021" lon="5.24452">
        <ele>456.7</ele>
        <time>2017-02-25T16:05:31Z</time>
      </trkpt>
      <trkpt lat="45.26028" lon="5.24466">
        <ele>457.95</ele>
        <time>2017-02-25T16:05:32Z</time>
      </trkpt>
      <trkpt lat="45.26034" lon="5.2448">
        <ele>459.16</ele>
        <time>2017-02-25T16:05:33Z</time>
      </trkpt>
      <trkpt lat="45.26039" lon="5.24495">
        <ele>460.61</ele>
        <time>2017-02-25T16:05:34Z</time>
      </trkpt>
      <trkpt lat="45.26042" lon="5.24509">
        <ele>462.17</ele>
        <time>2017-02-25T16:05:35Z</time>
      </trkpt>
      <trkpt lat="45.26044" lon="5.24524">
        <ele>463.45</ele>
        <time>2017-02-25T16:05:36Z</time>
      </trkpt>
      <trkpt lat="45.26047" lon="5.24537">
        <ele>464.58</ele>
        <time>2017-02-25T16:05:37Z</time>
      </trkpt>
      <trkpt lat="45.26049" lon="5.24549">
        <ele>465.69</ele>
        <time>2017-02-25T16:05:38Z</time>
      </trkpt>
      <trkpt lat="45.26052" lon="5.24561">
        <ele>467.11</ele>
        <time>2017-02-25T16:05:39Z</time>
      </trkpt>
      <trkpt lat="45.26054" lon="5.24572">
        <ele>468.52</ele>
        <time>2017-02-25T16:05:40Z</time>
      </trkpt>
      <trkpt lat="45.26057" lon="5.24583">
        <ele>469.6</ele>
        <time>2017-02-25T16:05:41Z</time>
      </trkpt>
      <trkpt lat="45.26058" lon="5.24593">
        <ele>470.77</ele>
        <time>2017-02-25T16:05:42Z</time>
      </trkpt>
      <trkpt lat="45.2606" lon="5.24602">
        <ele>471.89</ele>
        <time>2017-02-25T16:05:43Z</time>
      </trkpt>
      <trkpt lat="45.26061" lon="5.24609">
        <ele>472.67</ele>
        <time>2017-02-25T16:05:44Z</time>
      </trkpt>
      <trkpt lat="45.26061" lon="5.24615">
        <ele>473.39</ele>
        <time>2017-02-25T16:05:45Z</time>
      </trkpt>
      <trkpt lat="45.26061" lon="5.24619">
        <ele>473.77</ele>
        <time>2017-02-25T16:05:46Z</time>
      </trkpt>
      <trkpt lat="45.26061" lon="5.24622">
        <ele>474.09</ele>
        <time>2017-02-25T16:05:47Z</time>
      </trkpt>
      <trkpt lat="45.26062" lon="5.24627">
        <ele>474.23</ele>
        <time>2017-02-25T16:05:48Z</time>
      </trkpt>
      <trkpt lat="45.26063" lon="5.24633">
        <ele>474.66</ele>
        <time>2017-02-25T16:05:49Z</time>
      </trkpt>
      <trkpt lat="45.26066" lon="5.2464">
        <ele>475.07</ele>
        <time>2017-02-25T16:05:50Z</time>
      </trkpt>
      <trkpt lat="45.26071" lon="5.24649">
        <ele>474.91</ele>
        <time>2017-02-25T16:05:51Z</time>
      </trkpt>
      <trkpt lat="45.26077" lon="5.24658">
        <ele>475.03</ele>
        <time>2017-02-25T16:05:52Z</time>
      </trkpt>
      <trkpt lat="45.26083" lon="5.24669">
        <ele>474.82</ele>
        <time>2017-02-25T16:05:53Z</time>
      </trkpt>
      <trkpt lat="45.2609" lon="5.24679">
        <ele>474.54</ele>
        <time>2017-02-25T16:05:54Z</time>
      </trkpt>
      <trkpt lat="45.26096" lon="5.24689">
        <ele>474.4</ele>
        <time>2017-02-25T16:05:55Z</time>
      </trkpt>
      <trkpt lat="45.26103" lon="5.24698">
        <ele>474.45</ele>
        <time>2017-02-25T16:05:56Z</time>
      </trkpt>
      <trkpt lat="45.2611" lon="5.24709">
        <ele>474.54</ele>
        <time>2017-02-25T16:05:57Z</time>
      </trkpt>
      <trkpt lat="45.26117" lon="5.2472">
        <ele>474.56</ele>
        <time>2017-02-25T16:05:58Z</time>
      </trkpt>
      <trkpt lat="45.26125" lon="5.24733">
        <ele>474.49</ele>
        <time>2017-02-25T16:05:59Z</time>
      </trkpt>
      <trkpt lat="45.26134" lon="5.24745">
        <ele>474.39</ele>
        <time>2017-02-25T16:06:00Z</time>
      </trkpt>
      <trkpt lat="45.26145" lon="5.24757">
        <ele>474.29</ele>
        <time>2017-02-25T16:06:01Z</time>
      </trkpt>
      <trkpt lat="45.26156" lon="5.24771">
        <ele>474.03</ele>
        <time>2017-02-25T16:06:02Z</time>
      </trkpt>
      <trkpt lat="45.26168" lon="5.24785">
        <ele>473.66</ele>
        <time>2017-02-25T16:06:03Z</time>
      </trkpt>
      <trkpt lat="45.26181" lon="5.248">
        <ele>473.19</ele>
        <time>2017-02-25T16:06:04Z</time>
      </trkpt>
      <trkpt lat="45.26193" lon="5.24815">
        <ele>472.93</ele>
        <time>2017-02-25T16:06:05Z</time>
      </trkpt>
      <trkpt lat="45.26206" lon="5.2483">
        <ele>472.64</ele>
        <time>2017-02-25T16:06:06Z</time>
      </trkpt>
      <trkpt lat="45.26219" lon="5.24846">
        <ele>472.34</ele>
        <time>2017-02-25T16:06:07Z</time>
      </trkpt>
      <trkpt lat="45.26233" lon="5.24862">
        <ele>471.88</ele>
        <time>2017-02-25T16:06:08Z</time>
      </trkpt>
      <trkpt lat="45.26247" lon="5.24878">
        <ele>471.71</ele>
        <time>2017-02-25T16:06:09Z</time>
      </trkpt>
      <trkpt lat="45.26258" lon="5.24895">
        <ele>471.44</ele>
        <time>2017-02-25T16:06:10Z</time>
      </trkpt>
      <trkpt lat="45.26267" lon="5.24913">
        <ele>471.3</ele>
        <time>2017-02-25T16:06:11Z</time>
      </trkpt>
      <trkpt lat="45.26273" lon="5.24934">
        <ele>471.03</ele>
        <time>2017-02-25T16:06:12Z</time>
      </trkpt>
      <trkpt lat="45.26276" lon="5.24957">
        <ele>470.82</ele>
        <time>2017-02-25T16:06:13Z</time>
      </trkpt>
      <trkpt lat="45.26276" lon="5.24978">
        <ele>470.62</ele>
        <time>2017-02-25T16:06:14Z</time>
      </trkpt>
      <trkpt lat="45.26272" lon="5.24999">
        <ele>470.58</ele>
        <time>2017-02-25T16:06:15Z</time>
      </trkpt>
      <trkpt lat="45.26265" lon="5.2502">
        <ele>470.57</ele>
        <time>2017-02-25T16:06:16Z</time>
      </trkpt>
      <trkpt lat="45.26258" lon="5.25043">
        <ele>470.41</ele>
        <time>2017-02-25T16:06:17Z</time>
      </trkpt>
      <trkpt lat="45.26252" lon="5.25068">
        <ele>470.14</ele>
        <time>2017-02-25T16:06:18Z</time>
      </trkpt>
      <trkpt lat="45.26246" lon="5.25093">
        <ele>470</ele>
        <time>2017-02-25T16:06:19Z</time>
      </trkpt>
      <trkpt lat="45.26243" lon="5.2512">
        <ele>469.89</ele>
        <time>2017-02-25T16:06:20Z</time>
      </trkpt>
      <trkpt lat="45.26241" lon="5.25147">
        <ele>470.03</ele>
        <time>2017-02-25T16:06:21Z</time>
      </trkpt>
      <trkpt lat="45.26238" lon="5.25173">
        <ele>470.14</ele>
        <time>2017-02-25T16:06:22Z</time>
      </trkpt>
      <trkpt lat="45.26233" lon="5.252">
        <ele>470.16</ele>
        <time>2017-02-25T16:06:23Z</time>
      </trkpt>
      <trkpt lat="45.26227" lon="5.25226">
        <ele>470.25</ele>
        <time>2017-02-25T16:06:24Z</time>
      </trkpt>
      <trkpt lat="45.2622" lon="5.2525">
        <ele>470.18</ele>
        <time>2017-02-25T16:06:25Z</time>
      </trkpt>
      <trkpt lat="45.26215" lon="5.25275">
        <ele>470.09</ele>
        <time>2017-02-25T16:06:26Z</time>
      </trkpt>
      <trkpt lat="45.26212" lon="5.25302">
        <ele>470.07</ele>
        <time>2017-02-25T16:06:27Z</time>
      </trkpt>
      <trkpt lat="45.26211" lon="5.25328">
        <ele>470.07</ele>
        <time>2017-02-25T16:06:28Z</time>
      </trkpt>
      <trkpt lat="45.26211" lon="5.25353">
        <ele>470.07</ele>
        <time>2017-02-25T16:06:29Z</time>
      </trkpt>
      <trkpt lat="45.26212" lon="5.25375">
        <ele>470.15</ele>
        <time>2017-02-25T16:06:30Z</time>
      </trkpt>
      <trkpt lat="45.26216" lon="5.25396">
        <ele>469.92</ele>
        <time>2017-02-25T16:06:31Z</time>
      </trkpt>
      <trkpt lat="45.26223" lon="5.25415">
        <ele>469.96</ele>
        <time>2017-02-25T16:06:32Z</time>
      </trkpt>
      <trkpt lat="45.26232" lon="5.25434">
        <ele>469.81</ele>
        <time>2017-02-25T16:06:33Z</time>
      </trkpt>
      <trkpt lat="45.26244" lon="5.25451">
        <ele>469.45</ele>
        <time>2017-02-25T16:06:34Z</time>
      </trkpt>
      <trkpt lat="45.26258" lon="5.25467">
        <ele>468.82</ele>
        <time>2017-02-25T16:06:35Z</time>
      </trkpt>
      <trkpt lat="45.26271" lon="5.25484">
        <ele>468.22</ele>
        <time>2017-02-25T16:06:36Z</time>
      </trkpt>
      <trkpt lat="45.26283" lon="5.25502">
        <ele>468.18</ele>
        <time>2017-02-25T16:06:37Z</time>
      </trkpt>
      <trkpt lat="45.26293" lon="5.25521">
        <ele>468.65</ele>
        <time>2017-02-25T16:06:38Z</time>
      </trkpt>
      <trkpt lat="45.26299" lon="5.25541">
        <ele>469.22</ele>
        <time>2017-02-25T16:06:39Z</time>
      </trkpt>
      <trkpt lat="45.26304" lon="5.25563">
        <ele>469.74</ele>
        <time>2017-02-25T16:06:40Z</time>
      </trkpt>
      <trkpt lat="45.26304" lon="5.25588">
        <ele>469.92</ele>
        <time>2017-02-25T16:06:41Z</time>
      </trkpt>
      <trkpt lat="45.26299" lon="5.25616">
        <ele>470.2</ele>
        <time>2017-02-25T16:06:42Z</time>
      </trkpt>
      <trkpt lat="45.26292" lon="5.25645">
        <ele>470.41</ele>
        <time>2017-02-25T16:06:43Z</time>
      </trkpt>
      <trkpt lat="45.26287" lon="5.25676">
        <ele>471.02</ele>
        <time>2017-02-25T16:06:44Z</time>
      </trkpt>
      <trkpt lat="45.26282" lon="5.25707">
        <ele>471.62</ele>
        <time>2017-02-25T16:06:45Z</time>
      </trkpt>
      <trkpt lat="45.26277" lon="5.25738">
        <ele>472.78</ele>
        <time>2017-02-25T16:06:46Z</time>
      </trkpt>
      <trkpt lat="45.26272" lon="5.25769">
        <ele>473.97</ele>
        <time>2017-02-25T16:06:47Z</time>
      </trkpt>
      <trkpt lat="45.26268" lon="5.258">
        <ele>475.09</ele>
        <time>2017-02-25T16:06:48Z</time>
      </trkpt>
      <trkpt lat="45.26264" lon="5.25831">
        <ele>476.43</ele>
        <time>2017-02-25T16:06:49Z</time>
      </trkpt>
      <trkpt lat="45.26259" lon="5.25861">
        <ele>477.74</ele>
        <time>2017-02-25T16:06:50Z</time>
      </trkpt>
      <trkpt lat="45.26255" lon="5.25892">
        <ele>478.8</ele>
        <time>2017-02-25T16:06:51Z</time>
      </trkpt>
      <trkpt lat="45.2625" lon="5.25924">
        <ele>479.73</ele>
        <time>2017-02-25T16:06:52Z</time>
      </trkpt>
      <trkpt lat="45.26244" lon="5.25956">
        <ele>480.72</ele>
        <time>2017-02-25T16:06:53Z</time>
      </trkpt>
      <trkpt lat="45.26239" lon="5.25988">
        <ele>481.96</ele>
        <time>2017-02-25T16:06:54Z</time>
      </trkpt>
      <trkpt lat="45.26235" lon="5.26021">
        <ele>483.09</ele>
        <time>2017-02-25T16:06:55Z</time>
      </trkpt>
      <trkpt lat="45.2623" lon="5.26053">
        <ele>484.43</ele>
        <time>2017-02-25T16:06:56Z</time>
      </trkpt>
      <trkpt lat="45.26225" lon="5.26087">
        <ele>485.82</ele>
        <time>2017-02-25T16:06:57Z</time>
      </trkpt>
      <trkpt lat="45.26219" lon="5.2612">
        <ele>487.14</ele>
        <time>2017-02-25T16:06:58Z</time>
      </trkpt>
      <trkpt lat="45.26213" lon="5.26155">
        <ele>488.36</ele>
        <time>2017-02-25T16:06:59Z</time>
      </trkpt>
      <trkpt lat="45.26206" lon="5.26191">
        <ele>489.57</ele>
        <time>2017-02-25T16:07:00Z</time>
      </trkpt>
      <trkpt lat="45.262" lon="5.26228">
        <ele>490.61</ele>
        <time>2017-02-25T16:07:01Z</time>
      </trkpt>
      <trkpt lat="45.26193" lon="5.26266">
        <ele>491.69</ele>
        <time>2017-02-25T16:07:02Z</time>
      </trkpt>
      <trkpt lat="45.26186" lon="5.26304">
        <ele>493.11</ele>
        <time>2017-02-25T16:07:03Z</time>
      </trkpt>
      <trkpt lat="45.2618" lon="5.26341">
        <ele>494.6</ele>
        <time>2017-02-25T16:07:04Z</time>
      </trkpt>
      <trkpt lat="45.26173" lon="5.26376">
        <ele>496.57</ele>
        <time>2017-02-25T16:07:05Z</time>
      </trkpt>
      <trkpt lat="45.26167" lon="5.26409">
        <ele>498.33</ele>
        <time>2017-02-25T16:07:06Z</time>
      </trkpt>
      <trkpt lat="45.26159" lon="5.26441">
        <ele>500.04</ele>
        <time>2017-02-25T16:07:07Z</time>
      </trkpt>
      <trkpt lat="45.26148" lon="5.26467">
        <ele>501.58</ele>
        <time>2017-02-25T16:07:08Z</time>
      </trkpt>
      <trkpt lat="45.26136" lon="5.2649">
        <ele>503.01</ele>
        <time>2017-02-25T16:07:09Z</time>
      </trkpt>
      <trkpt lat="45.26125" lon="5.26512">
        <ele>504.34</ele>
        <time>2017-02-25T16:07:10Z</time>
      </trkpt>
      <trkpt lat="45.26117" lon="5.26536">
        <ele>505.72</ele>
        <time>2017-02-25T16:07:11Z</time>
      </trkpt>
      <trkpt lat="45.26112" lon="5.26561">
        <ele>507.28</ele>
        <time>2017-02-25T16:07:12Z</time>
      </trkpt>
      <trkpt lat="45.2611" lon="5.26589">
        <ele>508.63</ele>
        <time>2017-02-25T16:07:13Z</time>
      </trkpt>
      <trkpt lat="45.26108" lon="5.26616">
        <ele>510.1</ele>
        <time>2017-02-25T16:07:14Z</time>
      </trkpt>
      <trkpt lat="45.26106" lon="5.2664">
        <ele>511.59</ele>
        <time>2017-02-25T16:07:15Z</time>
      </trkpt>
      <trkpt lat="45.26106" lon="5.26661">
        <ele>512.85</ele>
        <time>2017-02-25T16:07:16Z</time>
      </trkpt>
      <trkpt lat="45.26111" lon="5.26677">
        <ele>514.3</ele>
        <time>2017-02-25T16:07:17Z</time>
      </trkpt>
      <trkpt lat="45.26116" lon="5.2669">
        <ele>515.87</ele>
        <time>2017-02-25T16:07:18Z</time>
      </trkpt>
      <trkpt lat="45.26123" lon="5.26701">
        <ele>516.83</ele>
        <time>2017-02-25T16:07:19Z</time>
      </trkpt>
      <trkpt lat="45.26133" lon="5.2671">
        <ele>518.06</ele>
        <time>2017-02-25T16:07:20Z</time>
      </trkpt>
      <trkpt lat="45.26142" lon="5.26721">
        <ele>518.79</ele>
        <time>2017-02-25T16:07:21Z</time>
      </trkpt>
      <trkpt lat="45.26149" lon="5.26733">
        <ele>519.65</ele>
        <time>2017-02-25T16:07:22Z</time>
      </trkpt>
      <trkpt lat="45.26149" lon="5.26748">
        <ele>520.62</ele>
        <time>2017-02-25T16:07:23Z</time>
      </trkpt>
      <trkpt lat="45.26147" lon="5.26763">
        <ele>521.86</ele>
        <time>2017-02-25T16:07:24Z</time>
      </trkpt>
      <trkpt lat="45.26137" lon="5.26775">
        <ele>523.31</ele>
        <time>2017-02-25T16:07:25Z</time>
      </trkpt>
      <trkpt lat="45.26127" lon="5.2679">
        <ele>524.15</ele>
        <time>2017-02-25T16:07:26Z</time>
      </trkpt>
      <trkpt lat="45.26118" lon="5.26808">
        <ele>525.12</ele>
        <time>2017-02-25T16:07:27Z</time>
      </trkpt>
      <trkpt lat="45.26112" lon="5.26829">
        <ele>525.72</ele>
        <time>2017-02-25T16:07:28Z</time>
      </trkpt>
      <trkpt lat="45.26107" lon="5.26854">
        <ele>526.24</ele>
        <time>2017-02-25T16:07:29Z</time>
      </trkpt>
      <trkpt lat="45.26105" lon="5.26881">
        <ele>526.82</ele>
        <time>2017-02-25T16:07:30Z</time>
      </trkpt>
      <trkpt lat="45.26105" lon="5.26905">
        <ele>526.78</ele>
        <time>2017-02-25T16:07:31Z</time>
      </trkpt>
      <trkpt lat="45.26108" lon="5.26929">
        <ele>526.93</ele>
        <time>2017-02-25T16:07:32Z</time>
      </trkpt>
      <trkpt lat="45.26111" lon="5.2695">
        <ele>527.28</ele>
        <time>2017-02-25T16:07:33Z</time>
      </trkpt>
      <trkpt lat="45.26112" lon="5.26971">
        <ele>527.67</ele>
        <time>2017-02-25T16:07:34Z</time>
      </trkpt>
      <trkpt lat="45.26105" lon="5.26988">
        <ele>528.31</ele>
        <time>2017-02-25T16:07:35Z</time>
      </trkpt>
      <trkpt lat="45.26095" lon="5.27004">
        <ele>529.16</ele>
        <time>2017-02-25T16:07:36Z</time>
      </trkpt>
      <trkpt lat="45.26085" lon="5.27021">
        <ele>529.96</ele>
        <time>2017-02-25T16:07:37Z</time>
      </trkpt>
      <trkpt lat="45.26077" lon="5.27039">
        <ele>530.69</ele>
        <time>2017-02-25T16:07:38Z</time>
      </trkpt>
      <trkpt lat="45.26075" lon="5.27061">
        <ele>531.47</ele>
        <time>2017-02-25T16:07:39Z</time>
      </trkpt>
      <trkpt lat="45.26076" lon="5.27082">
        <ele>531.87</ele>
        <time>2017-02-25T16:07:40Z</time>
      </trkpt>
      <trkpt lat="45.26081" lon="5.27103">
        <ele>532.03</ele>
        <time>2017-02-25T16:07:41Z</time>
      </trkpt>
      <trkpt lat="45.26089" lon="5.27121">
        <ele>532.22</ele>
        <time>2017-02-25T16:07:42Z</time>
      </trkpt>
      <trkpt lat="45.26095" lon="5.2714">
        <ele>532.26</ele>
        <time>2017-02-25T16:07:43Z</time>
      </trkpt>
      <trkpt lat="45.26098" lon="5.27158">
        <ele>532.99</ele>
        <time>2017-02-25T16:07:44Z</time>
      </trkpt>
      <trkpt lat="45.26095" lon="5.27178">
        <ele>533.69</ele>
        <time>2017-02-25T16:07:45Z</time>
      </trkpt>
      <trkpt lat="45.26088" lon="5.27196">
        <ele>534.55</ele>
        <time>2017-02-25T16:07:46Z</time>
      </trkpt>
      <trkpt lat="45.26081" lon="5.27216">
        <ele>535.36</ele>
        <time>2017-02-25T16:07:47Z</time>
      </trkpt>
      <trkpt lat="45.26076" lon="5.27237">
        <ele>536.17</ele>
        <time>2017-02-25T16:07:48Z</time>
      </trkpt>
      <trkpt lat="45.26075" lon="5.27262">
        <ele>536.81</ele>
        <time>2017-02-25T16:07:49Z</time>
      </trkpt>
      <trkpt lat="45.26074" lon="5.2729">
        <ele>537.57</ele>
        <time>2017-02-25T16:07:50Z</time>
      </trkpt>
      <trkpt lat="45.26074" lon="5.27319">
        <ele>538.21</ele>
        <time>2017-02-25T16:07:51Z</time>
      </trkpt>
      <trkpt lat="45.26075" lon="5.27348">
        <ele>539.22</ele>
        <time>2017-02-25T16:07:52Z</time>
      </trkpt>
      <trkpt lat="45.26077" lon="5.27377">
        <ele>540.06</ele>
        <time>2017-02-25T16:07:53Z</time>
      </trkpt>
      <trkpt lat="45.26079" lon="5.27407">
        <ele>540.86</ele>
        <time>2017-02-25T16:07:54Z</time>
      </trkpt>
      <trkpt lat="45.26083" lon="5.27436">
        <ele>541.59</ele>
        <time>2017-02-25T16:07:55Z</time>
      </trkpt>
      <trkpt lat="45.26088" lon="5.27464">
        <ele>542.29</ele>
        <time>2017-02-25T16:07:56Z</time>
      </trkpt>
      <trkpt lat="45.26092" lon="5.2749">
        <ele>543.23</ele>
        <time>2017-02-25T16:07:57Z</time>
      </trkpt>
      <trkpt lat="45.26096" lon="5.27514">
        <ele>544.14</ele>
        <time>2017-02-25T16:07:58Z</time>
      </trkpt>
      <trkpt lat="45.261" lon="5.27538">
        <ele>544.64</ele>
        <time>2017-02-25T16:07:59Z</time>
      </trkpt>
      <trkpt lat="45.26104" lon="5.27562">
        <ele>545.3</ele>
        <time>2017-02-25T16:08:00Z</time>
      </trkpt>
      <trkpt lat="45.26108" lon="5.27586">
        <ele>545.99</ele>
        <time>2017-02-25T16:08:01Z</time>
      </trkpt>
      <trkpt lat="45.26113" lon="5.27609">
        <ele>546.69</ele>
        <time>2017-02-25T16:08:02Z</time>
      </trkpt>
      <trkpt lat="45.26118" lon="5.27631">
        <ele>547.15</ele>
        <time>2017-02-25T16:08:03Z</time>
      </trkpt>
      <trkpt lat="45.26124" lon="5.27651">
        <ele>547.88</ele>
        <time>2017-02-25T16:08:04Z</time>
      </trkpt>
      <trkpt lat="45.26131" lon="5.2767">
        <ele>548.67</ele>
        <time>2017-02-25T16:08:05Z</time>
      </trkpt>
      <trkpt lat="45.26137" lon="5.27688">
        <ele>549.55</ele>
        <time>2017-02-25T16:08:06Z</time>
      </trkpt>
      <trkpt lat="45.26141" lon="5.27706">
        <ele>550.28</ele>
        <time>2017-02-25T16:08:07Z</time>
      </trkpt>
      <trkpt lat="45.26144" lon="5.27725">
        <ele>551.15</ele>
        <time>2017-02-25T16:08:08Z</time>
      </trkpt>
      <trkpt lat="45.26143" lon="5.27744">
        <ele>551.72</ele>
        <time>2017-02-25T16:08:09Z</time>
      </trkpt>
      <trkpt lat="45.26133" lon="5.27767">
        <ele>552.08</ele>
        <time>2017-02-25T16:08:10Z</time>
      </trkpt>
      <trkpt lat="45.26126" lon="5.27789">
        <ele>552.47</ele>
        <time>2017-02-25T16:08:11Z</time>
      </trkpt>
      <trkpt lat="45.26122" lon="5.2781">
        <ele>552.87</ele>
        <time>2017-02-25T16:08:12Z</time>
      </trkpt>
      <trkpt lat="45.2612" lon="5.27831">
        <ele>553.27</ele>
        <time>2017-02-25T16:08:13Z</time>
      </trkpt>
      <trkpt lat="45.26124" lon="5.27851">
        <ele>553.83</ele>
        <time>2017-02-25T16:08:14Z</time>
      </trkpt>
      <trkpt lat="45.2613" lon="5.27872">
        <ele>554.42</ele>
        <time>2017-02-25T16:08:15Z</time>
      </trkpt>
      <trkpt lat="45.26138" lon="5.27892">
        <ele>554.7</ele>
        <time>2017-02-25T16:08:16Z</time>
      </trkpt>
      <trkpt lat="45.26147" lon="5.27913">
        <ele>554.83</ele>
        <time>2017-02-25T16:08:17Z</time>
      </trkpt>
      <trkpt lat="45.26158" lon="5.27931">
        <ele>554.94</ele>
        <time>2017-02-25T16:08:18Z</time>
      </trkpt>
      <trkpt lat="45.26171" lon="5.27949">
        <ele>555.2</ele>
        <time>2017-02-25T16:08:19Z</time>
      </trkpt>
      <trkpt lat="45.26185" lon="5.27966">
        <ele>555.17</ele>
        <time>2017-02-25T16:08:20Z</time>
      </trkpt>
      <trkpt lat="45.26199" lon="5.27981">
        <ele>555.33</ele>
        <time>2017-02-25T16:08:21Z</time>
      </trkpt>
      <trkpt lat="45.26213" lon="5.27996">
        <ele>555.6</ele>
        <time>2017-02-25T16:08:22Z</time>
      </trkpt>
      <trkpt lat="45.26229" lon="5.2801">
        <ele>556.13</ele>
        <time>2017-02-25T16:08:23Z</time>
      </trkpt>
      <trkpt lat="45.26245" lon="5.28024">
        <ele>556.96</ele>
        <time>2017-02-25T16:08:24Z</time>
      </trkpt>
      <trkpt lat="45.26261" lon="5.28037">
        <ele>557.45</ele>
        <time>2017-02-25T16:08:25Z</time>
      </trkpt>
      <trkpt lat="45.26277" lon="5.28049">
        <ele>557.86</ele>
        <time>2017-02-25T16:08:26Z</time>
      </trkpt>
      <trkpt lat="45.26294" lon="5.2806">
        <ele>558.35</ele>
        <time>2017-02-25T16:08:27Z</time>
      </trkpt>
      <trkpt lat="45.26313" lon="5.28068">
        <ele>559.4</ele>
        <time>2017-02-25T16:08:28Z</time>
      </trkpt>
      <trkpt lat="45.2633" lon="5.28079">
        <ele>560.33</ele>
        <time>2017-02-25T16:08:29Z</time>
      </trkpt>
      <trkpt lat="45.26348" lon="5.28092">
        <ele>561.16</ele>
        <time>2017-02-25T16:08:30Z</time>
      </trkpt>
      <trkpt lat="45.26364" lon="5.28106">
        <ele>562.05</ele>
        <time>2017-02-25T16:08:31Z</time>
      </trkpt>
      <trkpt lat="45.2638" lon="5.28123">
        <ele>562.86</ele>
        <time>2017-02-25T16:08:32Z</time>
      </trkpt>
      <trkpt lat="45.26396" lon="5.2814">
        <ele>563.83</ele>
        <time>2017-02-25T16:08:33Z</time>
      </trkpt>
      <trkpt lat="45.26411" lon="5.28157">
        <ele>564.66</ele>
        <time>2017-02-25T16:08:34Z</time>
      </trkpt>
      <trkpt lat="45.26424" lon="5.28177">
        <ele>565.31</ele>
        <time>2017-02-25T16:08:35Z</time>
      </trkpt>
      <trkpt lat="45.26437" lon="5.28198">
        <ele>565.91</ele>
        <time>2017-02-25T16:08:36Z</time>
      </trkpt>
      <trkpt lat="45.26448" lon="5.28218">
        <ele>566.52</ele>
        <time>2017-02-25T16:08:37Z</time>
      </trkpt>
      <trkpt lat="45.2646" lon="5.28239">
        <ele>567.04</ele>
        <time>2017-02-25T16:08:38Z</time>
      </trkpt>
      <trkpt lat="45.26471" lon="5.28258">
        <ele>567.54</ele>
        <time>2017-02-25T16:08:39Z</time>
      </trkpt>
      <trkpt lat="45.26483" lon="5.28277">
        <ele>568.2</ele>
        <time>2017-02-25T16:08:40Z</time>
      </trkpt>
      <trkpt lat="45.26494" lon="5.28296">
        <ele>568.81</ele>
        <time>2017-02-25T16:08:41Z</time>
      </trkpt>
      <trkpt lat="45.26505" lon="5.28314">
        <ele>569.58</ele>
        <time>2017-02-25T16:08:42Z</time>
      </trkpt>
      <trkpt lat="45.26517" lon="5.28332">
        <ele>570.21</ele>
        <time>2017-02-25T16:08:43Z</time>
      </trkpt>
      <trkpt lat="45.26528" lon="5.28348">
        <ele>570.9</ele>
        <time>2017-02-25T16:08:44Z</time>
      </trkpt>
      <trkpt lat="45.26539" lon="5.2836">
        <ele>571.67</ele>
        <time>2017-02-25T16:08:45Z</time>
      </trkpt>
      <trkpt lat="45.26551" lon="5.28369">
        <ele>572.47</ele>
        <time>2017-02-25T16:08:46Z</time>
      </trkpt>
      <trkpt lat="45.26561" lon="5.28377">
        <ele>573.83</ele>
        <time>2017-02-25T16:08:47Z</time>
      </trkpt>
      <trkpt lat="45.26568" lon="5.2838">
        <ele>574.9</ele>
        <time>2017-02-25T16:08:48Z</time>
      </trkpt>
      <trkpt lat="45.26575" lon="5.28381">
        <ele>576.47</ele>
        <time>2017-02-25T16:08:49Z</time>
      </trkpt>
      <trkpt lat="45.26579" lon="5.28383">
        <ele>577.91</ele>
        <time>2017-02-25T16:08:50Z</time>
      </trkpt>
      <trkpt lat="45.26583" lon="5.28383">
        <ele>579</ele>
        <time>2017-02-25T16:08:51Z</time>
      </trkpt>
      <trkpt lat="45.26585" lon="5.28383">
        <ele>580.09</ele>
        <time>2017-02-25T16:08:52Z</time>
      </trkpt>
      <trkpt lat="45.26587" lon="5.28383">
        <ele>581.11</ele>
        <time>2017-02-25T16:08:53Z</time>
      </trkpt>
      <trkpt lat="45.26587" lon="5.28383">
        <ele>582.04</ele>
        <time>2017-02-25T16:08:54Z</time>
      </trkpt>
      <trkpt lat="45.26587" lon="5.28382">
        <ele>582.78</ele>
        <time>2017-02-25T16:08:55Z</time>
      </trkpt>
      <trkpt lat="45.26587" lon="5.28383">
        <ele>583.33</ele>
        <time>2017-02-25T16:08:56Z</time>
      </trkpt>
      <trkpt lat="45.26587" lon="5.28383">
        <ele>583.44</ele>
        <time>2017-02-25T16:08:57Z</time>
      </trkpt>
      <trkpt lat="45.26587" lon="5.28383">
        <ele>583.46</ele>
        <time>2017-02-25T16:08:58Z</time>
      </trkpt>
      <trkpt lat="45.26587" lon="5.28383">
        <ele>583.47</ele>
        <time>2017-02-25T16:08:59Z</time>
      </trkpt>
      <trkpt lat="45.26587" lon="5.28383">
        <ele>583.47</ele>
        <time>2017-02-25T16:09:00Z</time>
      </trkpt>
      <trkpt lat="45.26587" lon="5.28383">
        <ele>583.47</ele>
        <time>2017-02-25T16:09:01Z</time>
      </trkpt>
      <trkpt lat="45.2659" lon="5.28384">
        <ele>583.31</ele>
        <time>2017-02-25T16:09:02Z</time>
      </trkpt>
      <trkpt lat="45.26596" lon="5.28387">
        <ele>583.35</ele>
        <time>2017-02-25T16:09:03Z</time>
      </trkpt>
      <trkpt lat="45.26604" lon="5.2839">
        <ele>583.76</ele>
        <time>2017-02-25T16:09:04Z</time>
      </trkpt>
      <trkpt lat="45.26614" lon="5.28393">
        <ele>584.41</ele>
        <time>2017-02-25T16:09:05Z</time>
      </trkpt>
      <trkpt lat="45.26625" lon="5.28396">
        <ele>584.77</ele>
        <time>2017-02-25T16:09:06Z</time>
      </trkpt>
      <trkpt lat="45.26638" lon="5.284">
        <ele>585.17</ele>
        <time>2017-02-25T16:09:07Z</time>
      </trkpt>
      <trkpt lat="45.26652" lon="5.28405">
        <ele>585.33</ele>
        <time>2017-02-25T16:09:08Z</time>
      </trkpt>
      <trkpt lat="45.26666" lon="5.2841">
        <ele>585.04</ele>
        <time>2017-02-25T16:09:09Z</time>
      </trkpt>
      <trkpt lat="45.2668" lon="5.28414">
        <ele>584.74</ele>
        <time>2017-02-25T16:09:10Z</time>
      </trkpt>
      <trkpt lat="45.26694" lon="5.28418">
        <ele>584.6</ele>
        <time>2017-02-25T16:09:11Z</time>
      </trkpt>
      <trkpt lat="45.26708" lon="5.28423">
        <ele>584.41</ele>
        <time>2017-02-25T16:09:12Z</time>
      </trkpt>
      <trkpt lat="45.26724" lon="5.28427">
        <ele>584.3</ele>
        <time>2017-02-25T16:09:13Z</time>
      </trkpt>
      <trkpt lat="45.26739" lon="5.28432">
        <ele>584.19</ele>
        <time>2017-02-25T16:09:14Z</time>
      </trkpt>
      <trkpt lat="45.26755" lon="5.28437">
        <ele>584.17</ele>
        <time>2017-02-25T16:09:15Z</time>
      </trkpt>
      <trkpt lat="45.2677" lon="5.28442">
        <ele>583.85</ele>
        <time>2017-02-25T16:09:16Z</time>
      </trkpt>
      <trkpt lat="45.26785" lon="5.28448">
        <ele>583.22</ele>
        <time>2017-02-25T16:09:17Z</time>
      </trkpt>
      <trkpt lat="45.26799" lon="5.28456">
        <ele>582.7</ele>
        <time>2017-02-25T16:09:18Z</time>
      </trkpt>
      <trkpt lat="45.26812" lon="5.28467">
        <ele>582.03</ele>
        <time>2017-02-25T16:09:19Z</time>
      </trkpt>
      <trkpt lat="45.26825" lon="5.28481">
        <ele>581.66</ele>
        <time>2017-02-25T16:09:20Z</time>
      </trkpt>
      <trkpt lat="45.26836" lon="5.28498">
        <ele>581.59</ele>
        <time>2017-02-25T16:09:21Z</time>
      </trkpt>
      <trkpt lat="45.26845" lon="5.28517">
        <ele>581.25</ele>
        <time>2017-02-25T16:09:22Z</time>
      </trkpt>
      <trkpt lat="45.26852" lon="5.28538">
        <ele>581.18</ele>
        <time>2017-02-25T16:09:23Z</time>
      </trkpt>
      <trkpt lat="45.26858" lon="5.28559">
        <ele>581.17</ele>
        <time>2017-02-25T16:09:24Z</time>
      </trkpt>
      <trkpt lat="45.26864" lon="5.28579">
        <ele>581.09</ele>
        <time>2017-02-25T16:09:25Z</time>
      </trkpt>
      <trkpt lat="45.26868" lon="5.28597">
        <ele>580.99</ele>
        <time>2017-02-25T16:09:26Z</time>
      </trkpt>
      <trkpt lat="45.26872" lon="5.28614">
        <ele>580.81</ele>
        <time>2017-02-25T16:09:27Z</time>
      </trkpt>
      <trkpt lat="45.26874" lon="5.28631">
        <ele>580.7</ele>
        <time>2017-02-25T16:09:28Z</time>
      </trkpt>
      <trkpt lat="45.26875" lon="5.28647">
        <ele>580.43</ele>
        <time>2017-02-25T16:09:29Z</time>
      </trkpt>
      <trkpt lat="45.26875" lon="5.28664">
        <ele>579.82</ele>
        <time>2017-02-25T16:09:30Z</time>
      </trkpt>
      <trkpt lat="45.26875" lon="5.28681">
        <ele>579.54</ele>
        <time>2017-02-25T16:09:31Z</time>
      </trkpt>
      <trkpt lat="45.26875" lon="5.28697">
        <ele>579.32</ele>
        <time>2017-02-25T16:09:32Z</time>
      </trkpt>
      <trkpt lat="45.26874" lon="5.28715">
        <ele>579.28</ele>
        <time>2017-02-25T16:09:33Z</time>
      </trkpt>
      <trkpt lat="45.26874" lon="5.28732">
        <ele>579.11</ele>
        <time>2017-02-25T16:09:34Z</time>
      </trkpt>
      <trkpt lat="45.26873" lon="5.28751">
        <ele>579.4</ele>
        <time>2017-02-25T16:09:35Z</time>
      </trkpt>
      <trkpt lat="45.26873" lon="5.28771">
        <ele>579.53</ele>
        <time>2017-02-25T16:09:36Z</time>
      </trkpt>
      <trkpt lat="45.26873" lon="5.28792">
        <ele>580.12</ele>
        <time>2017-02-25T16:09:37Z</time>
      </trkpt>
      <trkpt lat="45.26872" lon="5.28814">
        <ele>580.32</ele>
        <time>2017-02-25T16:09:38Z</time>
      </trkpt>
      <trkpt lat="45.26871" lon="5.28838">
        <ele>580.52</ele>
        <time>2017-02-25T16:09:39Z</time>
      </trkpt>
      <trkpt lat="45.2687" lon="5.28863">
        <ele>580.8</ele>
        <time>2017-02-25T16:09:40Z</time>
      </trkpt>
      <trkpt lat="45.2687" lon="5.28888">
        <ele>580.93</ele>
        <time>2017-02-25T16:09:41Z</time>
      </trkpt>
      <trkpt lat="45.2687" lon="5.28913">
        <ele>580.96</ele>
        <time>2017-02-25T16:09:42Z</time>
      </trkpt>
      <trkpt lat="45.2687" lon="5.28936">
        <ele>581.05</ele>
        <time>2017-02-25T16:09:43Z</time>
      </trkpt>
      <trkpt lat="45.26871" lon="5.2896">
        <ele>581.06</ele>
        <time>2017-02-25T16:09:44Z</time>
      </trkpt>
      <trkpt lat="45.26874" lon="5.28984">
        <ele>581.39</ele>
        <time>2017-02-25T16:09:45Z</time>
      </trkpt>
      <trkpt lat="45.2688" lon="5.29006">
        <ele>581.85</ele>
        <time>2017-02-25T16:09:46Z</time>
      </trkpt>
      <trkpt lat="45.26888" lon="5.29029">
        <ele>582.1</ele>
        <time>2017-02-25T16:09:47Z</time>
      </trkpt>
      <trkpt lat="45.26896" lon="5.29052">
        <ele>582.31</ele>
        <time>2017-02-25T16:09:48Z</time>
      </trkpt>
      <trkpt lat="45.26905" lon="5.29074">
        <ele>582.6</ele>
        <time>2017-02-25T16:09:49Z</time>
      </trkpt>
      <trkpt lat="45.26913" lon="5.29097">
        <ele>583.13</ele>
        <time>2017-02-25T16:09:50Z</time>
      </trkpt>
      <trkpt lat="45.26922" lon="5.29119">
        <ele>583.64</ele>
        <time>2017-02-25T16:09:51Z</time>
      </trkpt>
      <trkpt lat="45.26929" lon="5.2914">
        <ele>583.98</ele>
        <time>2017-02-25T16:09:52Z</time>
      </trkpt>
      <trkpt lat="45.26937" lon="5.2916">
        <ele>584.37</ele>
        <time>2017-02-25T16:09:53Z</time>
      </trkpt>
      <trkpt lat="45.26943" lon="5.29178">
        <ele>585.33</ele>
        <time>2017-02-25T16:09:54Z</time>
      </trkpt>
      <trkpt lat="45.26948" lon="5.29195">
        <ele>586.08</ele>
        <time>2017-02-25T16:09:55Z</time>
      </trkpt>
      <trkpt lat="45.26953" lon="5.29209">
        <ele>586.63</ele>
        <time>2017-02-25T16:09:56Z</time>
      </trkpt>
      <trkpt lat="45.26958" lon="5.29221">
        <ele>587.3</ele>
        <time>2017-02-25T16:09:57Z</time>
      </trkpt>
      <trkpt lat="45.26964" lon="5.29229">
        <ele>587.59</ele>
        <time>2017-02-25T16:09:58Z</time>
      </trkpt>
      <trkpt lat="45.26971" lon="5.29232">
        <ele>587.57</ele>
        <time>2017-02-25T16:09:59Z</time>
      </trkpt>
      <trkpt lat="45.26979" lon="5.29233">
        <ele>587.73</ele>
        <time>2017-02-25T16:10:00Z</time>
      </trkpt>
      <trkpt lat="45.26987" lon="5.29232">
        <ele>587.76</ele>
        <time>2017-02-25T16:10:01Z</time>
      </trkpt>
      <trkpt lat="45.26996" lon="5.29229">
        <ele>587.69</ele>
        <time>2017-02-25T16:10:02Z</time>
      </trkpt>
      <trkpt lat="45.27004" lon="5.29225">
        <ele>587.75</ele>
        <time>2017-02-25T16:10:03Z</time>
      </trkpt>
      <trkpt lat="45.27011" lon="5.29215">
        <ele>587.84</ele>
        <time>2017-02-25T16:10:04Z</time>
      </trkpt>
      <trkpt lat="45.27018" lon="5.29201">
        <ele>587.62</ele>
        <time>2017-02-25T16:10:05Z</time>
      </trkpt>
      <trkpt lat="45.27024" lon="5.29185">
        <ele>587.58</ele>
        <time>2017-02-25T16:10:06Z</time>
      </trkpt>
      <trkpt lat="45.2703" lon="5.29166">
        <ele>587.65</ele>
        <time>2017-02-25T16:10:07Z</time>
      </trkpt>
      <trkpt lat="45.27035" lon="5.29147">
        <ele>587.82</ele>
        <time>2017-02-25T16:10:08Z</time>
      </trkpt>
      <trkpt lat="45.2704" lon="5.29127">
        <ele>587.94</ele>
        <time>2017-02-25T16:10:09Z</time>
      </trkpt>
      <trkpt lat="45.27046" lon="5.29109">
        <ele>588.04</ele>
        <time>2017-02-25T16:10:10Z</time>
      </trkpt>
      <trkpt lat="45.27052" lon="5.29089">
        <ele>587.74</ele>
        <time>2017-02-25T16:10:11Z</time>
      </trkpt>
      <trkpt lat="45.2706" lon="5.29069">
        <ele>587.76</ele>
        <time>2017-02-25T16:10:12Z</time>
      </trkpt>
      <trkpt lat="45.27065" lon="5.29051">
        <ele>587.93</ele>
        <time>2017-02-25T16:10:13Z</time>
      </trkpt>
      <trkpt lat="45.2707" lon="5.29035">
        <ele>588.04</ele>
        <time>2017-02-25T16:10:14Z</time>
      </trkpt>
      <trkpt lat="45.27074" lon="5.2902">
        <ele>588.06</ele>
        <time>2017-02-25T16:10:15Z</time>
      </trkpt>
      <trkpt lat="45.27079" lon="5.29006">
        <ele>588.07</ele>
        <time>2017-02-25T16:10:16Z</time>
      </trkpt>
      <trkpt lat="45.27084" lon="5.28991">
        <ele>588.07</ele>
        <time>2017-02-25T16:10:17Z</time>
      </trkpt>
      <trkpt lat="45.27089" lon="5.28977">
        <ele>587.91</ele>
        <time>2017-02-25T16:10:18Z</time>
      </trkpt>
      <trkpt lat="45.27094" lon="5.28962">
        <ele>587.64</ele>
        <time>2017-02-25T16:10:19Z</time>
      </trkpt>
      <trkpt lat="45.27099" lon="5.28946">
        <ele>587.34</ele>
        <time>2017-02-25T16:10:20Z</time>
      </trkpt>
      <trkpt lat="45.27104" lon="5.28932">
        <ele>587.44</ele>
        <time>2017-02-25T16:10:21Z</time>
      </trkpt>
      <trkpt lat="45.27108" lon="5.28919">
        <ele>587.38</ele>
        <time>2017-02-25T16:10:22Z</time>
      </trkpt>
      <trkpt lat="45.27112" lon="5.28906">
        <ele>587.05</ele>
        <time>2017-02-25T16:10:23Z</time>
      </trkpt>
      <trkpt lat="45.27116" lon="5.28893">
        <ele>586.82</ele>
        <time>2017-02-25T16:10:24Z</time>
      </trkpt>
      <trkpt lat="45.2712" lon="5.28881">
        <ele>586.54</ele>
        <time>2017-02-25T16:10:25Z</time>
      </trkpt>
      <trkpt lat="45.27125" lon="5.28868">
        <ele>586.4</ele>
        <time>2017-02-25T16:10:26Z</time>
      </trkpt>
      <trkpt lat="45.27129" lon="5.28856">
        <ele>586.29</ele>
        <time>2017-02-25T16:10:27Z</time>
      </trkpt>
      <trkpt lat="45.27132" lon="5.28846">
        <ele>586.11</ele>
        <time>2017-02-25T16:10:28Z</time>
      </trkpt>
      <trkpt lat="45.27136" lon="5.28836">
        <ele>586.16</ele>
        <time>2017-02-25T16:10:29Z</time>
      </trkpt>
      <trkpt lat="45.27139" lon="5.28826">
        <ele>586.16</ele>
        <time>2017-02-25T16:10:30Z</time>
      </trkpt>
      <trkpt lat="45.27142" lon="5.28818">
        <ele>586.25</ele>
        <time>2017-02-25T16:10:31Z</time>
      </trkpt>
      <trkpt lat="45.27144" lon="5.28812">
        <ele>586.42</ele>
        <time>2017-02-25T16:10:32Z</time>
      </trkpt>
      <trkpt lat="45.27145" lon="5.28806">
        <ele>586.46</ele>
        <time>2017-02-25T16:10:33Z</time>
      </trkpt>
      <trkpt lat="45.27145" lon="5.28803">
        <ele>586.55</ele>
        <time>2017-02-25T16:10:34Z</time>
      </trkpt>
      <trkpt lat="45.27145" lon="5.28801">
        <ele>587.12</ele>
        <time>2017-02-25T16:10:35Z</time>
      </trkpt>
      <trkpt lat="45.27145" lon="5.288">
        <ele>587.8</ele>
        <time>2017-02-25T16:10:36Z</time>
      </trkpt>
      <trkpt lat="45.27144" lon="5.288">
        <ele>588.17</ele>
        <time>2017-02-25T16:10:37Z</time>
      </trkpt>
      <trkpt lat="45.27144" lon="5.28799">
        <ele>588.17</ele>
        <time>2017-02-25T16:10:38Z</time>
      </trkpt>
      <trkpt lat="45.27144" lon="5.28799">
        <ele>588.17</ele>
        <time>2017-02-25T16:10:39Z</time>
      </trkpt>
      <trkpt lat="45.27144" lon="5.28799">
        <ele>588.17</ele>
        <time>2017-02-25T16:10:40Z</time>
      </trkpt>
      <trkpt lat="45.27144" lon="5.28799">
        <ele>588.17</ele>
        <time>2017-02-25T16:10:41Z</time>
      </trkpt>
      <trkpt lat="45.27144" lon="5.28799">
        <ele>588.17</ele>
        <time>2017-02-25T16:10:42Z</time>
      </trkpt>
      <trkpt lat="45.27144" lon="5.28799">
        <ele>588.17</ele>
        <time>2017-02-25T16:10:43Z</time>
      </trkpt>
      <trkpt lat="45.27144" lon="5.28799">
        <ele>588.17</ele>
        <time>2017-02-25T16:10:44Z</time>
      </trkpt>
      <trkpt lat="45.27144" lon="5.28799">
        <ele>588.17</ele>
        <time>2017-02-25T16:10:45Z</time>
      </trkpt>
      <trkpt lat="45.27144" lon="5.28799">
        <ele>588.17</ele>
        <time>2017-02-25T16:10:46Z</time>
      </trkpt>
      <trkpt lat="45.27144" lon="5.28799">
        <ele>588.17</ele>
        <time>2017-02-25T16:10:47Z</time>
      </trkpt>
      <trkpt lat="45.27144" lon="5.28799">
        <ele>588.17</ele>
        <time>2017-02-25T16:10:48Z</time>
      </trkpt>
      <trkpt lat="45.27144" lon="5.28799">
        <ele>588.17</ele>
        <time>2017-02-25T16:10:49Z</time>
      </trkpt>
      <trkpt lat="45.27144" lon="5.28799">
        <ele>588.17</ele>
        <time>2017-02-25T16:10:50Z</time>
      </trkpt>
      <trkpt lat="45.27144" lon="5.28799">
        <ele>588.17</ele>
        <time>2017-02-25T16:10:51Z</time>
      </trkpt>
      <trkpt lat="45.27144" lon="5.28799">
        <ele>588.17</ele>
        <time>2017-02-25T16:10:52Z</time>
      </trkpt>
      <trkpt lat="45.27144" lon="5.28799">
        <ele>588.17</ele>
        <time>2017-02-25T16:10:53Z</time>
      </trkpt>
      <trkpt lat="45.27144" lon="5.28799">
        <ele>588.17</ele>
        <time>2017-02-25T16:10:54Z</time>
      </trkpt>
      <trkpt lat="45.27144" lon="5.28799">
        <ele>588.17</ele>
        <time>2017-02-25T16:10:55Z</time>
      </trkpt>
      <trkpt lat="45.27144" lon="5.28799">
        <ele>588.17</ele>
        <time>2017-02-25T16:10:56Z</time>
      </trkpt>
      <trkpt lat="45.27144" lon="5.28799">
        <ele>588.17</ele>
        <time>2017-02-25T16:10:57Z</time>
      </trkpt>
      <trkpt lat="45.27144" lon="5.28799">
        <ele>588.17</ele>
        <time>2017-02-25T16:10:58Z</time>
      </trkpt>
      <trkpt lat="45.27144" lon="5.28799">
        <ele>588.17</ele>
        <time>2017-02-25T16:10:59Z</time>
      </trkpt>
      <trkpt lat="45.27144" lon="5.28799">
        <ele>588.17</ele>
        <time>2017-02-25T16:11:00Z</time>
      </trkpt>
      <trkpt lat="45.27144" lon="5.28799">
        <ele>588.17</ele>
        <time>2017-02-25T16:11:01Z</time>
      </trkpt>
      <trkpt lat="45.27144" lon="5.28799">
        <ele>588.17</ele>
        <time>2017-02-25T16:11:02Z</time>
      </trkpt>
      <trkpt lat="45.27144" lon="5.28799">
        <ele>588.17</ele>
        <time>2017-02-25T16:11:03Z</time>
      </trkpt>
      <trkpt lat="45.27144" lon="5.28799">
        <ele>588.17</ele>
        <time>2017-02-25T16:11:04Z</time>
      </trkpt>
      <trkpt lat="45.27144" lon="5.28799">
        <ele>588.17</ele>
        <time>2017-02-25T16:11:05Z</time>
      </trkpt>
      <trkpt lat="45.27144" lon="5.28799">
        <ele>588.17</ele>
        <time>2017-02-25T16:11:06Z</time>
      </trkpt>
      <trkpt lat="45.27144" lon="5.28799">
        <ele>588.17</ele>
        <time>2017-02-25T16:11:07Z</time>
      </trkpt>
      <trkpt lat="45.27144" lon="5.28799">
        <ele>588.17</ele>
        <time>2017-02-25T16:11:08Z</time>
      </trkpt>
      <trkpt lat="45.27144" lon="5.28799">
        <ele>588.17</ele>
        <time>2017-02-25T16:11:09Z</time>
      </trkpt>
      <trkpt lat="45.27144" lon="5.28799">
        <ele>588.17</ele>
        <time>2017-02-25T16:11:10Z</time>
      </trkpt>
      <trkpt lat="45.27144" lon="5.28799">
        <ele>588.17</ele>
        <time>2017-02-25T16:11:11Z</time>
      </trkpt>
      <trkpt lat="45.27144" lon="5.28799">
        <ele>588.17</ele>
        <time>2017-02-25T16:11:12Z</time>
      </trkpt>
      <trkpt lat="45.27144" lon="5.28799">
        <ele>588.17</ele>
        <time>2017-02-25T16:11:13Z</time>
      </trkpt>
      <trkpt lat="45.27144" lon="5.28799">
        <ele>588.17</ele>
        <time>2017-02-25T16:11:14Z</time>
      </trkpt>
      <trkpt lat="45.27144" lon="5.28799">
        <ele>588.17</ele>
        <time>2017-02-25T16:11:15Z</time>
      </trkpt>
      <trkpt lat="45.27144" lon="5.28799">
        <ele>588.17</ele>
        <time>2017-02-25T16:11:16Z</time>
      </trkpt>
      <trkpt lat="45.27144" lon="5.28799">
        <ele>588.17</ele>
        <time>2017-02-25T16:11:17Z</time>
      </trkpt>
      <trkpt lat="45.27144" lon="5.28799">
        <ele>588.17</ele>
        <time>2017-02-25T16:11:18Z</time>
      </trkpt>
      <trkpt lat="45.27144" lon="5.28799">
        <ele>588.17</ele>
        <time>2017-02-25T16:11:19Z</time>
      </trkpt>
      <trkpt lat="45.27144" lon="5.28799">
        <ele>588.17</ele>
        <time>2017-02-25T16:11:20Z</time>
      </trkpt>
      <trkpt lat="45.27144" lon="5.28799">
        <ele>588.17</ele>
        <time>2017-02-25T16:11:21Z</time>
      </trkpt>
      <trkpt lat="45.27144" lon="5.28799">
        <ele>588.17</ele>
        <time>2017-02-25T16:11:22Z</time>
      </trkpt>
      <trkpt lat="45.27144" lon="5.28799">
        <ele>588.17</ele>
        <time>2017-02-25T16:11:23Z</time>
      </trkpt>
      <trkpt lat="45.27144" lon="5.28799">
        <ele>588.17</ele>
        <time>2017-02-25T16:11:24Z</time>
      </trkpt>
      <trkpt lat="45.27144" lon="5.28799">
        <ele>588.17</ele>
        <time>2017-02-25T16:11:25Z</time>
      </trkpt>
      <trkpt lat="45.27144" lon="5.28799">
        <ele>588.17</ele>
        <time>2017-02-25T16:11:26Z</time>
      </trkpt>
      <trkpt lat="45.27144" lon="5.28799">
        <ele>588.17</ele>
        <time>2017-02-25T16:11:27Z</time>
      </trkpt>
      <trkpt lat="45.27144" lon="5.28799">
        <ele>588.17</ele>
        <time>2017-02-25T16:11:28Z</time>
      </trkpt>
      <trkpt lat="45.27144" lon="5.28799">
        <ele>588.17</ele>
        <time>2017-02-25T16:11:29Z</time>
      </trkpt>
      <trkpt lat="45.27144" lon="5.28799">
        <ele>588.17</ele>
        <time>2017-02-25T16:11:30Z</time>
      </trkpt>
      <trkpt lat="45.27144" lon="5.28799">
        <ele>588.17</ele>
        <time>2017-02-25T16:11:31Z</time>
      </trkpt>
      <trkpt lat="45.27144" lon="5.28799">
        <ele>588.17</ele>
        <time>2017-02-25T16:11:32Z</time>
      </trkpt>
      <trkpt lat="45.27144" lon="5.28799">
        <ele>588.17</ele>
        <time>2017-02-25T16:11:33Z</time>
      </trkpt>
      <trkpt lat="45.27144" lon="5.28799">
        <ele>588.17</ele>
        <time>2017-02-25T16:11:34Z</time>
      </trkpt>
      <trkpt lat="45.27144" lon="5.28799">
        <ele>588.17</ele>
        <time>2017-02-25T16:11:35Z</time>
      </trkpt>
      <trkpt lat="45.27144" lon="5.28799">
        <ele>588.17</ele>
        <time>2017-02-25T16:11:36Z</time>
      </trkpt>
      <trkpt lat="45.27144" lon="5.28799">
        <ele>588.17</ele>
        <time>2017-02-25T16:11:37Z</time>
      </trkpt>
      <trkpt lat="45.27144" lon="5.28799">
        <ele>588.17</ele>
        <time>2017-02-25T16:11:38Z</time>
      </trkpt>
      <trkpt lat="45.27144" lon="5.28799">
        <ele>588.17</ele>
        <time>2017-02-25T16:11:39Z</time>
      </trkpt>
      <trkpt lat="45.27144" lon="5.28799">
        <ele>588.17</ele>
        <time>2017-02-25T16:11:40Z</time>
      </trkpt>
      <trkpt lat="45.27144" lon="5.28799">
        <ele>588.17</ele>
        <time>2017-02-25T16:11:41Z</time>
      </trkpt>
      <trkpt lat="45.27144" lon="5.28799">
        <ele>588.17</ele>
        <time>2017-02-25T16:11:42Z</time>
      </trkpt>
      <trkpt lat="45.27144" lon="5.28799">
        <ele>588.17</ele>
        <time>2017-02-25T16:11:43Z</time>
      </trkpt>
      <trkpt lat="45.27144" lon="5.28799">
        <ele>588.17</ele>
        <time>2017-02-25T16:11:44Z</time>
      </trkpt>
      <trkpt lat="45.27144" lon="5.28799">
        <ele>588.17</ele>
        <time>2017-02-25T16:11:45Z</time>
      </trkpt>
      <trkpt lat="45.27144" lon="5.28799">
        <ele>588.17</ele>
        <time>2017-02-25T16:11:46Z</time>
      </trkpt>
      <trkpt lat="45.27144" lon="5.28799">
        <ele>588.17</ele>
        <time>2017-02-25T16:11:47Z</time>
      </trkpt>
      <trkpt lat="45.27144" lon="5.28799">
        <ele>588.17</ele>
        <time>2017-02-25T16:11:48Z</time>
      </trkpt>
      <trkpt lat="45.27144" lon="5.28799">
        <ele>588.17</ele>
        <time>2017-02-25T16:11:49Z</time>
      </trkpt>
      <trkpt lat="45.27144" lon="5.28799">
        <ele>588.17</ele>
        <time>2017-02-25T16:11:50Z</time>
      </trkpt>
      <trkpt lat="45.27144" lon="5.28799">
        <ele>588.17</ele>
        <time>2017-02-25T16:11:51Z</time>
      </trkpt>
      <trkpt lat="45.27144" lon="5.28799">
        <ele>588.17</ele>
        <time>2017-02-25T16:11:52Z</time>
      </trkpt>
      <trkpt lat="45.27144" lon="5.28799">
        <ele>588.17</ele>
        <time>2017-02-25T16:11:53Z</time>
      </trkpt>
      <trkpt lat="45.27144" lon="5.28799">
        <ele>588.17</ele>
        <time>2017-02-25T16:11:54Z</time>
      </trkpt>
      <trkpt lat="45.27144" lon="5.28799">
        <ele>588.17</ele>
        <time>2017-02-25T16:11:55Z</time>
      </trkpt>
      <trkpt lat="45.27144" lon="5.28799">
        <ele>588.17</ele>
        <time>2017-02-25T16:11:56Z</time>
      </trkpt>
      <trkpt lat="45.27144" lon="5.28799">
        <ele>588.17</ele>
        <time>2017-02-25T16:11:57Z</time>
      </trkpt>
      <trkpt lat="45.27144" lon="5.28799">
        <ele>588.17</ele>
        <time>2017-02-25T16:11:58Z</time>
      </trkpt>
      <trkpt lat="45.27144" lon="5.28799">
        <ele>588.17</ele>
        <time>2017-02-25T16:11:59Z</time>
      </trkpt>
      <trkpt lat="45.27144" lon="5.28799">
        <ele>588.17</ele>
        <time>2017-02-25T16:12:00Z</time>
      </trkpt>
      <trkpt lat="45.27144" lon="5.28799">
        <ele>588.17</ele>
        <time>2017-02-25T16:12:01Z</time>
      </trkpt>
      <trkpt lat="45.27144" lon="5.28799">
        <ele>588.17</ele>
        <time>2017-02-25T16:12:02Z</time>
      </trkpt>
      <trkpt lat="45.27144" lon="5.28799">
        <ele>588.17</ele>
        <time>2017-02-25T16:12:03Z</time>
      </trkpt>
      <trkpt lat="45.27144" lon="5.28799">
        <ele>588.17</ele>
        <time>2017-02-25T16:12:04Z</time>
      </trkpt>
      <trkpt lat="45.27144" lon="5.28799">
        <ele>588.17</ele>
        <time>2017-02-25T16:12:05Z</time>
      </trkpt>
      <trkpt lat="45.27144" lon="5.28799">
        <ele>588.17</ele>
        <time>2017-02-25T16:12:06Z</time>
      </trkpt>
      <trkpt lat="45.27144" lon="5.28799">
        <ele>588.17</ele>
        <time>2017-02-25T16:12:07Z</time>
      </trkpt>
      <trkpt lat="45.27144" lon="5.28799">
        <ele>588.17</ele>
        <time>2017-02-25T16:12:08Z</time>
      </trkpt>
      <trkpt lat="45.27144" lon="5.28799">
        <ele>588.17</ele>
        <time>2017-02-25T16:12:09Z</time>
      </trkpt>
      <trkpt lat="45.27144" lon="5.28799">
        <ele>588.17</ele>
        <time>2017-02-25T16:12:10Z</time>
      </trkpt>
      <trkpt lat="45.27144" lon="5.28799">
        <ele>588.17</ele>
        <time>2017-02-25T16:12:11Z</time>
      </trkpt>
      <trkpt lat="45.27144" lon="5.28799">
        <ele>588.17</ele>
        <time>2017-02-25T16:12:12Z</time>
      </trkpt>
      <trkpt lat="45.27144" lon="5.28799">
        <ele>588.17</ele>
        <time>2017-02-25T16:12:13Z</time>
      </trkpt>
      <trkpt lat="45.27144" lon="5.28799">
        <ele>588.17</ele>
        <time>2017-02-25T16:12:14Z</time>
      </trkpt>
      <trkpt lat="45.27144" lon="5.28799">
        <ele>588.17</ele>
        <time>2017-02-25T16:12:15Z</time>
      </trkpt>
      <trkpt lat="45.27144" lon="5.28799">
        <ele>588.17</ele>
        <time>2017-02-25T16:12:16Z</time>
      </trkpt>
      <trkpt lat="45.27144" lon="5.28799">
        <ele>588.17</ele>
        <time>2017-02-25T16:12:17Z</time>
      </trkpt>
      <trkpt lat="45.27144" lon="5.28799">
        <ele>588.17</ele>
        <time>2017-02-25T16:12:18Z</time>
      </trkpt>
      <trkpt lat="45.27144" lon="5.28799">
        <ele>588.17</ele>
        <time>2017-02-25T16:12:19Z</time>
      </trkpt>
      <trkpt lat="45.27144" lon="5.28799">
        <ele>588.17</ele>
        <time>2017-02-25T16:12:20Z</time>
      </trkpt>
      <trkpt lat="45.27144" lon="5.28799">
        <ele>588.17</ele>
        <time>2017-02-25T16:12:21Z</time>
      </trkpt>
      <trkpt lat="45.27144" lon="5.28799">
        <ele>588.17</ele>
        <time>2017-02-25T16:12:22Z</time>
      </trkpt>
      <trkpt lat="45.27144" lon="5.28799">
        <ele>588.17</ele>
        <time>2017-02-25T16:12:23Z</time>
      </trkpt>
      <trkpt lat="45.27144" lon="5.28799">
        <ele>588.17</ele>
        <time>2017-02-25T16:12:24Z</time>
      </trkpt>
      <trkpt lat="45.27144" lon="5.28799">
        <ele>588.17</ele>
        <time>2017-02-25T16:12:25Z</time>
      </trkpt>
      <trkpt lat="45.27144" lon="5.28799">
        <ele>588.17</ele>
        <time>2017-02-25T16:12:26Z</time>
      </trkpt>
      <trkpt lat="45.27144" lon="5.28799">
        <ele>588.17</ele>
        <time>2017-02-25T16:12:27Z</time>
      </trkpt>
      <trkpt lat="45.27144" lon="5.28799">
        <ele>588.17</ele>
        <time>2017-02-25T16:12:28Z</time>
      </trkpt>
      <trkpt lat="45.27144" lon="5.28799">
        <ele>588.17</ele>
        <time>2017-02-25T16:12:29Z</time>
      </trkpt>
      <trkpt lat="45.27144" lon="5.28799">
        <ele>588.17</ele>
        <time>2017-02-25T16:12:30Z</time>
      </trkpt>
      <trkpt lat="45.27144" lon="5.28799">
        <ele>588.17</ele>
        <time>2017-02-25T16:12:31Z</time>
      </trkpt>
      <trkpt lat="45.27144" lon="5.28799">
        <ele>588.17</ele>
        <time>2017-02-25T16:12:32Z</time>
      </trkpt>
      <trkpt lat="45.27144" lon="5.28799">
        <ele>588.17</ele>
        <time>2017-02-25T16:12:33Z</time>
      </trkpt>
      <trkpt lat="45.27144" lon="5.28799">
        <ele>588.17</ele>
        <time>2017-02-25T16:12:34Z</time>
      </trkpt>
      <trkpt lat="45.27144" lon="5.28799">
        <ele>588.17</ele>
        <time>2017-02-25T16:12:35Z</time>
      </trkpt>
      <trkpt lat="45.27144" lon="5.28799">
        <ele>588.17</ele>
        <time>2017-02-25T16:12:36Z</time>
      </trkpt>
      <trkpt lat="45.27144" lon="5.28799">
        <ele>588.17</ele>
        <time>2017-02-25T16:12:37Z</time>
      </trkpt>
      <trkpt lat="45.27144" lon="5.28799">
        <ele>588.17</ele>
        <time>2017-02-25T16:12:38Z</time>
      </trkpt>
      <trkpt lat="45.27144" lon="5.28799">
        <ele>588.17</ele>
        <time>2017-02-25T16:12:39Z</time>
      </trkpt>
      <trkpt lat="45.27144" lon="5.28799">
        <ele>588.17</ele>
        <time>2017-02-25T16:12:40Z</time>
      </trkpt>
      <trkpt lat="45.27144" lon="5.28799">
        <ele>588.17</ele>
        <time>2017-02-25T16:12:41Z</time>
      </trkpt>
      <trkpt lat="45.27144" lon="5.28799">
        <ele>588.17</ele>
        <time>2017-02-25T16:12:42Z</time>
      </trkpt>
      <trkpt lat="45.27144" lon="5.28799">
        <ele>588.17</ele>
        <time>2017-02-25T16:12:43Z</time>
      </trkpt>
      <trkpt lat="45.27144" lon="5.28799">
        <ele>588.17</ele>
        <time>2017-02-25T16:12:44Z</time>
      </trkpt>
      <trkpt lat="45.27144" lon="5.28799">
        <ele>588.17</ele>
        <time>2017-02-25T16:12:45Z</time>
      </trkpt>
      <trkpt lat="45.27144" lon="5.28799">
        <ele>588.17</ele>
        <time>2017-02-25T16:12:46Z</time>
      </trkpt>
      <trkpt lat="45.27144" lon="5.28799">
        <ele>588.17</ele>
        <time>2017-02-25T16:12:47Z</time>
      </trkpt>
      <trkpt lat="45.27144" lon="5.28799">
        <ele>588.17</ele>
        <time>2017-02-25T16:12:48Z</time>
      </trkpt>
      <trkpt lat="45.27144" lon="5.28799">
        <ele>588.17</ele>
        <time>2017-02-25T16:12:49Z</time>
      </trkpt>
      <trkpt lat="45.27144" lon="5.28799">
        <ele>588.17</ele>
        <time>2017-02-25T16:12:50Z</time>
      </trkpt>
      <trkpt lat="45.27144" lon="5.28799">
        <ele>588.17</ele>
        <time>2017-02-25T16:12:51Z</time>
      </trkpt>
      <trkpt lat="45.27144" lon="5.28799">
        <ele>588.17</ele>
        <time>2017-02-25T16:12:52Z</time>
      </trkpt>
      <trkpt lat="45.27144" lon="5.28799">
        <ele>588.17</ele>
        <time>2017-02-25T16:12:53Z</time>
      </trkpt>
      <trkpt lat="45.27144" lon="5.28799">
        <ele>588.17</ele>
        <time>2017-02-25T16:12:54Z</time>
      </trkpt>
      <trkpt lat="45.27144" lon="5.28799">
        <ele>588.17</ele>
        <time>2017-02-25T16:12:55Z</time>
      </trkpt>
      <trkpt lat="45.27144" lon="5.28799">
        <ele>588.17</ele>
        <time>2017-02-25T16:12:56Z</time>
      </trkpt>
      <trkpt lat="45.27144" lon="5.28799">
        <ele>588.17</ele>
        <time>2017-02-25T16:12:57Z</time>
      </trkpt>
      <trkpt lat="45.27144" lon="5.28799">
        <ele>588.17</ele>
        <time>2017-02-25T16:12:58Z</time>
      </trkpt>
      <trkpt lat="45.27144" lon="5.28799">
        <ele>588.17</ele>
        <time>2017-02-25T16:12:59Z</time>
      </trkpt>
      <trkpt lat="45.27144" lon="5.28799">
        <ele>588.17</ele>
        <time>2017-02-25T16:13:00Z</time>
      </trkpt>
      <trkpt lat="45.27144" lon="5.28799">
        <ele>588.17</ele>
        <time>2017-02-25T16:13:01Z</time>
      </trkpt>
      <trkpt lat="45.27144" lon="5.28799">
        <ele>588.17</ele>
        <time>2017-02-25T16:13:02Z</time>
      </trkpt>
      <trkpt lat="45.27144" lon="5.28799">
        <ele>588.17</ele>
        <time>2017-02-25T16:13:03Z</time>
      </trkpt>
      <trkpt lat="45.27144" lon="5.28799">
        <ele>588.17</ele>
        <time>2017-02-25T16:13:04Z</time>
      </trkpt>
      <trkpt lat="45.27144" lon="5.28799">
        <ele>588.17</ele>
        <time>2017-02-25T16:13:05Z</time>
      </trkpt>
      <trkpt lat="45.27144" lon="5.28799">
        <ele>588.17</ele>
        <time>2017-02-25T16:13:06Z</time>
      </trkpt>
      <trkpt lat="45.27144" lon="5.28799">
        <ele>588.17</ele>
        <time>2017-02-25T16:13:07Z</time>
      </trkpt>
      <trkpt lat="45.27144" lon="5.28799">
        <ele>588.17</ele>
        <time>2017-02-25T16:13:08Z</time>
      </trkpt>
      <trkpt lat="45.27144" lon="5.28799">
        <ele>588.17</ele>
        <time>2017-02-25T16:13:09Z</time>
      </trkpt>
      <trkpt lat="45.27144" lon="5.28799">
        <ele>588.17</ele>
        <time>2017-02-25T16:13:10Z</time>
      </trkpt>
      <trkpt lat="45.27144" lon="5.28799">
        <ele>588.17</ele>
        <time>2017-02-25T16:13:11Z</time>
      </trkpt>
      <trkpt lat="45.27144" lon="5.28799">
        <ele>588.17</ele>
        <time>2017-02-25T16:13:12Z</time>
      </trkpt>
      <trkpt lat="45.27144" lon="5.28799">
        <ele>588.17</ele>
        <time>2017-02-25T16:13:13Z</time>
      </trkpt>
      <trkpt lat="45.27144" lon="5.28799">
        <ele>588.17</ele>
        <time>2017-02-25T16:13:14Z</time>
      </trkpt>
      <trkpt lat="45.27144" lon="5.28799">
        <ele>588.17</ele>
        <time>2017-02-25T16:13:15Z</time>
      </trkpt>
      <trkpt lat="45.27144" lon="5.28799">
        <ele>588.17</ele>
        <time>2017-02-25T16:13:16Z</time>
      </trkpt>
      <trkpt lat="45.27144" lon="5.28799">
        <ele>588.17</ele>
        <time>2017-02-25T16:13:17Z</time>
      </trkpt>
      <trkpt lat="45.27144" lon="5.28799">
        <ele>588.17</ele>
        <time>2017-02-25T16:13:18Z</time>
      </trkpt>
      <trkpt lat="45.27144" lon="5.28799">
        <ele>588.17</ele>
        <time>2017-02-25T16:13:19Z</time>
      </trkpt>
      <trkpt lat="45.27144" lon="5.28799">
        <ele>588.17</ele>
        <time>2017-02-25T16:13:20Z</time>
      </trkpt>
      <trkpt lat="45.27144" lon="5.28799">
        <ele>588.17</ele>
        <time>2017-02-25T16:13:21Z</time>
      </trkpt>
      <trkpt lat="45.27144" lon="5.28799">
        <ele>588.17</ele>
        <time>2017-02-25T16:13:22Z</time>
      </trkpt>
      <trkpt lat="45.27144" lon="5.28799">
        <ele>588.17</ele>
        <time>2017-02-25T16:13:23Z</time>
      </trkpt>
      <trkpt lat="45.27144" lon="5.28799">
        <ele>588.17</ele>
        <time>2017-02-25T16:13:24Z</time>
      </trkpt>
      <trkpt lat="45.27144" lon="5.28799">
        <ele>588.17</ele>
        <time>2017-02-25T16:13:25Z</time>
      </trkpt>
      <trkpt lat="45.27144" lon="5.28799">
        <ele>588.17</ele>
        <time>2017-02-25T16:13:26Z</time>
      </trkpt>
      <trkpt lat="45.27144" lon="5.28799">
        <ele>588.17</ele>
        <time>2017-02-25T16:13:27Z</time>
      </trkpt>
      <trkpt lat="45.27144" lon="5.28799">
        <ele>588.17</ele>
        <time>2017-02-25T16:13:28Z</time>
      </trkpt>
      <trkpt lat="45.27144" lon="5.28799">
        <ele>588.17</ele>
        <time>2017-02-25T16:13:29Z</time>
      </trkpt>
      <trkpt lat="45.27144" lon="5.28799">
        <ele>588.17</ele>
        <time>2017-02-25T16:13:30Z</time>
      </trkpt>
      <trkpt lat="45.27144" lon="5.28799">
        <ele>588.17</ele>
        <time>2017-02-25T16:13:31Z</time>
      </trkpt>
      <trkpt lat="45.27144" lon="5.28799">
        <ele>588.17</ele>
        <time>2017-02-25T16:13:32Z</time>
      </trkpt>
      <trkpt lat="45.27144" lon="5.28799">
        <ele>588.17</ele>
        <time>2017-02-25T16:13:33Z</time>
      </trkpt>
      <trkpt lat="45.27144" lon="5.28799">
        <ele>588.17</ele>
        <time>2017-02-25T16:13:34Z</time>
      </trkpt>
      <trkpt lat="45.27144" lon="5.28799">
        <ele>588.17</ele>
        <time>2017-02-25T16:13:35Z</time>
      </trkpt>
      <trkpt lat="45.27144" lon="5.28799">
        <ele>588.17</ele>
        <time>2017-02-25T16:13:36Z</time>
      </trkpt>
      <trkpt lat="45.27144" lon="5.28799">
        <ele>588.17</ele>
        <time>2017-02-25T16:13:37Z</time>
      </trkpt>
      <trkpt lat="45.27144" lon="5.28799">
        <ele>588.17</ele>
        <time>2017-02-25T16:13:38Z</time>
      </trkpt>
      <trkpt lat="45.27144" lon="5.28799">
        <ele>588.17</ele>
        <time>2017-02-25T16:13:39Z</time>
      </trkpt>
      <trkpt lat="45.27144" lon="5.28799">
        <ele>588.17</ele>
        <time>2017-02-25T16:13:40Z</time>
      </trkpt>
      <trkpt lat="45.27144" lon="5.28799">
        <ele>588.17</ele>
        <time>2017-02-25T16:13:41Z</time>
      </trkpt>
      <trkpt lat="45.27144" lon="5.28799">
        <ele>588.17</ele>
        <time>2017-02-25T16:13:42Z</time>
      </trkpt>
      <trkpt lat="45.27144" lon="5.28799">
        <ele>588.17</ele>
        <time>2017-02-25T16:13:43Z</time>
      </trkpt>
      <trkpt lat="45.27144" lon="5.28799">
        <ele>588.17</ele>
        <time>2017-02-25T16:13:44Z</time>
      </trkpt>
      <trkpt lat="45.27144" lon="5.28799">
        <ele>588.17</ele>
        <time>2017-02-25T16:13:45Z</time>
      </trkpt>
      <trkpt lat="45.27144" lon="5.28799">
        <ele>588.17</ele>
        <time>2017-02-25T16:13:46Z</time>
      </trkpt>
      <trkpt lat="45.27144" lon="5.28799">
        <ele>588.17</ele>
        <time>2017-02-25T16:13:47Z</time>
      </trkpt>
      <trkpt lat="45.27144" lon="5.28799">
        <ele>588.17</ele>
        <time>2017-02-25T16:13:48Z</time>
      </trkpt>
      <trkpt lat="45.27144" lon="5.28799">
        <ele>588.17</ele>
        <time>2017-02-25T16:13:49Z</time>
      </trkpt>
      <trkpt lat="45.27144" lon="5.28799">
        <ele>588.17</ele>
        <time>2017-02-25T16:13:50Z</time>
      </trkpt>
      <trkpt lat="45.27144" lon="5.28799">
        <ele>588.17</ele>
        <time>2017-02-25T16:13:51Z</time>
      </trkpt>
      <trkpt lat="45.27144" lon="5.28799">
        <ele>588.17</ele>
        <time>2017-02-25T16:13:52Z</time>
      </trkpt>
      <trkpt lat="45.27144" lon="5.28799">
        <ele>588.17</ele>
        <time>2017-02-25T16:13:53Z</time>
      </trkpt>
      <trkpt lat="45.27144" lon="5.28799">
        <ele>588.17</ele>
        <time>2017-02-25T16:13:54Z</time>
      </trkpt>
      <trkpt lat="45.27144" lon="5.28799">
        <ele>588.17</ele>
        <time>2017-02-25T16:13:55Z</time>
      </trkpt>
      <trkpt lat="45.27144" lon="5.28799">
        <ele>588.17</ele>
        <time>2017-02-25T16:13:56Z</time>
      </trkpt>
      <trkpt lat="45.27144" lon="5.28799">
        <ele>588.17</ele>
        <time>2017-02-25T16:13:57Z</time>
      </trkpt>
      <trkpt lat="45.27144" lon="5.28799">
        <ele>588.17</ele>
        <time>2017-02-25T16:13:58Z</time>
      </trkpt>
      <trkpt lat="45.27144" lon="5.28799">
        <ele>588.17</ele>
        <time>2017-02-25T16:13:59Z</time>
      </trkpt>
      <trkpt lat="45.27144" lon="5.28799">
        <ele>588.17</ele>
        <time>2017-02-25T16:14:00Z</time>
      </trkpt>
      <trkpt lat="45.27144" lon="5.28799">
        <ele>588.17</ele>
        <time>2017-02-25T16:14:01Z</time>
      </trkpt>
      <trkpt lat="45.27144" lon="5.28799">
        <ele>588.17</ele>
        <time>2017-02-25T16:14:02Z</time>
      </trkpt>
      <trkpt lat="45.27144" lon="5.28799">
        <ele>588.17</ele>
        <time>2017-02-25T16:14:03Z</time>
      </trkpt>
      <trkpt lat="45.27144" lon="5.28799">
        <ele>588.17</ele>
        <time>2017-02-25T16:14:04Z</time>
      </trkpt>
      <trkpt lat="45.27144" lon="5.28799">
        <ele>588.17</ele>
        <time>2017-02-25T16:14:05Z</time>
      </trkpt>
      <trkpt lat="45.27144" lon="5.28799">
        <ele>588.17</ele>
        <time>2017-02-25T16:14:06Z</time>
      </trkpt>
      <trkpt lat="45.27144" lon="5.28799">
        <ele>588.17</ele>
        <time>2017-02-25T16:14:07Z</time>
      </trkpt>
      <trkpt lat="45.27144" lon="5.28799">
        <ele>588.17</ele>
        <time>2017-02-25T16:14:08Z</time>
      </trkpt>
      <trkpt lat="45.27144" lon="5.28799">
        <ele>588.17</ele>
        <time>2017-02-25T16:14:09Z</time>
      </trkpt>
      <trkpt lat="45.27144" lon="5.28799">
        <ele>588.17</ele>
        <time>2017-02-25T16:14:10Z</time>
      </trkpt>
      <trkpt lat="45.27144" lon="5.28799">
        <ele>588.17</ele>
        <time>2017-02-25T16:14:11Z</time>
      </trkpt>
      <trkpt lat="45.27144" lon="5.28799">
        <ele>588.17</ele>
        <time>2017-02-25T16:14:12Z</time>
      </trkpt>
      <trkpt lat="45.27144" lon="5.28799">
        <ele>588.17</ele>
        <time>2017-02-25T16:14:13Z</time>
      </trkpt>
      <trkpt lat="45.27144" lon="5.28799">
        <ele>588.17</ele>
        <time>2017-02-25T16:14:14Z</time>
      </trkpt>
      <trkpt lat="45.27144" lon="5.28799">
        <ele>588.17</ele>
        <time>2017-02-25T16:14:15Z</time>
      </trkpt>
      <trkpt lat="45.27144" lon="5.28799">
        <ele>588.17</ele>
        <time>2017-02-25T16:14:16Z</time>
      </trkpt>
      <trkpt lat="45.27144" lon="5.28799">
        <ele>588.17</ele>
        <time>2017-02-25T16:14:17Z</time>
      </trkpt>
      <trkpt lat="45.27144" lon="5.28799">
        <ele>588.17</ele>
        <time>2017-02-25T16:14:18Z</time>
      </trkpt>
      <trkpt lat="45.27144" lon="5.28799">
        <ele>588.17</ele>
        <time>2017-02-25T16:14:19Z</time>
      </trkpt>
      <trkpt lat="45.27144" lon="5.28799">
        <ele>588.17</ele>
        <time>2017-02-25T16:14:20Z</time>
      </trkpt>
      <trkpt lat="45.27144" lon="5.28799">
        <ele>588.17</ele>
        <time>2017-02-25T16:14:21Z</time>
      </trkpt>
      <trkpt lat="45.27144" lon="5.28799">
        <ele>588.17</ele>
        <time>2017-02-25T16:14:22Z</time>
      </trkpt>
      <trkpt lat="45.27144" lon="5.28799">
        <ele>588.17</ele>
        <time>2017-02-25T16:14:23Z</time>
      </trkpt>
      <trkpt lat="45.27144" lon="5.28799">
        <ele>588.17</ele>
        <time>2017-02-25T16:14:24Z</time>
      </trkpt>
      <trkpt lat="45.27144" lon="5.28799">
        <ele>588.17</ele>
        <time>2017-02-25T16:14:25Z</time>
      </trkpt>
      <trkpt lat="45.27144" lon="5.28799">
        <ele>588.17</ele>
        <time>2017-02-25T16:14:26Z</time>
      </trkpt>
      <trkpt lat="45.27144" lon="5.28799">
        <ele>588.17</ele>
        <time>2017-02-25T16:14:27Z</time>
      </trkpt>
      <trkpt lat="45.27144" lon="5.28799">
        <ele>588.17</ele>
        <time>2017-02-25T16:14:28Z</time>
      </trkpt>
      <trkpt lat="45.27144" lon="5.28799">
        <ele>588.17</ele>
        <time>2017-02-25T16:14:29Z</time>
      </trkpt>
      <trkpt lat="45.27144" lon="5.28799">
        <ele>588.17</ele>
        <time>2017-02-25T16:14:30Z</time>
      </trkpt>
      <trkpt lat="45.27144" lon="5.28799">
        <ele>588.17</ele>
        <time>2017-02-25T16:14:31Z</time>
      </trkpt>
      <trkpt lat="45.27144" lon="5.28799">
        <ele>588.17</ele>
        <time>2017-02-25T16:14:32Z</time>
      </trkpt>
      <trkpt lat="45.27144" lon="5.28799">
        <ele>588.17</ele>
        <time>2017-02-25T16:14:33Z</time>
      </trkpt>
      <trkpt lat="45.27144" lon="5.28799">
        <ele>588.17</ele>
        <time>2017-02-25T16:14:34Z</time>
      </trkpt>
      <trkpt lat="45.27144" lon="5.28799">
        <ele>588.17</ele>
        <time>2017-02-25T16:14:35Z</time>
      </trkpt>
      <trkpt lat="45.27144" lon="5.28799">
        <ele>588.17</ele>
        <time>2017-02-25T16:14:36Z</time>
      </trkpt>
      <trkpt lat="45.27144" lon="5.28799">
        <ele>588.17</ele>
        <time>2017-02-25T16:14:37Z</time>
      </trkpt>
      <trkpt lat="45.27144" lon="5.28799">
        <ele>588.17</ele>
        <time>2017-02-25T16:14:38Z</time>
      </trkpt>
      <trkpt lat="45.27144" lon="5.28799">
        <ele>588.17</ele>
        <time>2017-02-25T16:14:39Z</time>
      </trkpt>
      <trkpt lat="45.27144" lon="5.28799">
        <ele>588.17</ele>
        <time>2017-02-25T16:14:40Z</time>
      </trkpt>
      <trkpt lat="45.27144" lon="5.28799">
        <ele>588.17</ele>
        <time>2017-02-25T16:14:41Z</time>
      </trkpt>
      <trkpt lat="45.27144" lon="5.28799">
        <ele>588.17</ele>
        <time>2017-02-25T16:14:42Z</time>
      </trkpt>
      <trkpt lat="45.27144" lon="5.28799">
        <ele>588.17</ele>
        <time>2017-02-25T16:14:43Z</time>
      </trkpt>
      <trkpt lat="45.27144" lon="5.28799">
        <ele>588.17</ele>
        <time>2017-02-25T16:14:44Z</time>
      </trkpt>
      <trkpt lat="45.27144" lon="5.28799">
        <ele>588.17</ele>
        <time>2017-02-25T16:14:45Z</time>
      </trkpt>
      <trkpt lat="45.27144" lon="5.28799">
        <ele>588.17</ele>
        <time>2017-02-25T16:14:46Z</time>
      </trkpt>
      <trkpt lat="45.27144" lon="5.28799">
        <ele>588.17</ele>
        <time>2017-02-25T16:14:47Z</time>
      </trkpt>
      <trkpt lat="45.27144" lon="5.28799">
        <ele>588.17</ele>
        <time>2017-02-25T16:14:48Z</time>
      </trkpt>
      <trkpt lat="45.27144" lon="5.28799">
        <ele>588.17</ele>
        <time>2017-02-25T16:14:49Z</time>
      </trkpt>
      <trkpt lat="45.27144" lon="5.28799">
        <ele>588.17</ele>
        <time>2017-02-25T16:14:50Z</time>
      </trkpt>
      <trkpt lat="45.27144" lon="5.28799">
        <ele>588.17</ele>
        <time>2017-02-25T16:14:51Z</time>
      </trkpt>
      <trkpt lat="45.27144" lon="5.28799">
        <ele>588.17</ele>
        <time>2017-02-25T16:14:52Z</time>
      </trkpt>
      <trkpt lat="45.27144" lon="5.28799">
        <ele>588.17</ele>
        <time>2017-02-25T16:14:53Z</time>
      </trkpt>
      <trkpt lat="45.27144" lon="5.28799">
        <ele>588.17</ele>
        <time>2017-02-25T16:14:54Z</time>
      </trkpt>
      <trkpt lat="45.27144" lon="5.28799">
        <ele>588.17</ele>
        <time>2017-02-25T16:14:55Z</time>
      </trkpt>
      <trkpt lat="45.27144" lon="5.28799">
        <ele>588.17</ele>
        <time>2017-02-25T16:14:56Z</time>
      </trkpt>
      <trkpt lat="45.27144" lon="5.28799">
        <ele>588.17</ele>
        <time>2017-02-25T16:14:57Z</time>
      </trkpt>
      <trkpt lat="45.27144" lon="5.28799">
        <ele>588.17</ele>
        <time>2017-02-25T16:14:58Z</time>
      </trkpt>
      <trkpt lat="45.27144" lon="5.28799">
        <ele>588.17</ele>
        <time>2017-02-25T16:14:59Z</time>
      </trkpt>
      <trkpt lat="45.27144" lon="5.28799">
        <ele>588.17</ele>
        <time>2017-02-25T16:15:00Z</time>
      </trkpt>
      <trkpt lat="45.27144" lon="5.28799">
        <ele>588.17</ele>
        <time>2017-02-25T16:15:01Z</time>
      </trkpt>
      <trkpt lat="45.27144" lon="5.28799">
        <ele>588.17</ele>
        <time>2017-02-25T16:15:02Z</time>
      </trkpt>
      <trkpt lat="45.27144" lon="5.28799">
        <ele>588.17</ele>
        <time>2017-02-25T16:15:03Z</time>
      </trkpt>
      <trkpt lat="45.27144" lon="5.28799">
        <ele>588.17</ele>
        <time>2017-02-25T16:15:04Z</time>
      </trkpt>
      <trkpt lat="45.27144" lon="5.28799">
        <ele>588.17</ele>
        <time>2017-02-25T16:15:05Z</time>
      </trkpt>
      <trkpt lat="45.27144" lon="5.28799">
        <ele>588.17</ele>
        <time>2017-02-25T16:15:06Z</time>
      </trkpt>
      <trkpt lat="45.27144" lon="5.28799">
        <ele>588.17</ele>
        <time>2017-02-25T16:15:07Z</time>
      </trkpt>
      <trkpt lat="45.27144" lon="5.28799">
        <ele>588.17</ele>
        <time>2017-02-25T16:15:08Z</time>
      </trkpt>
      <trkpt lat="45.27144" lon="5.28799">
        <ele>588.17</ele>
        <time>2017-02-25T16:15:09Z</time>
      </trkpt>
      <trkpt lat="45.27144" lon="5.28799">
        <ele>588.17</ele>
        <time>2017-02-25T16:15:10Z</time>
      </trkpt>
      <trkpt lat="45.27144" lon="5.28799">
        <ele>588.17</ele>
        <time>2017-02-25T16:15:11Z</time>
      </trkpt>
      <trkpt lat="45.27144" lon="5.28799">
        <ele>588.17</ele>
        <time>2017-02-25T16:15:12Z</time>
      </trkpt>
      <trkpt lat="45.27144" lon="5.28799">
        <ele>588.17</ele>
        <time>2017-02-25T16:15:13Z</time>
      </trkpt>
      <trkpt lat="45.27144" lon="5.28799">
        <ele>588.17</ele>
        <time>2017-02-25T16:15:14Z</time>
      </trkpt>
      <trkpt lat="45.27144" lon="5.28799">
        <ele>588.17</ele>
        <time>2017-02-25T16:15:15Z</time>
      </trkpt>
      <trkpt lat="45.27144" lon="5.28799">
        <ele>588.17</ele>
        <time>2017-02-25T16:15:16Z</time>
      </trkpt>
      <trkpt lat="45.27144" lon="5.28799">
        <ele>588.17</ele>
        <time>2017-02-25T16:15:17Z</time>
      </trkpt>
      <trkpt lat="45.27144" lon="5.28799">
        <ele>588.17</ele>
        <time>2017-02-25T16:15:18Z</time>
      </trkpt>
      <trkpt lat="45.27144" lon="5.28799">
        <ele>588.17</ele>
        <time>2017-02-25T16:15:19Z</time>
      </trkpt>
      <trkpt lat="45.27144" lon="5.28799">
        <ele>588.17</ele>
        <time>2017-02-25T16:15:20Z</time>
      </trkpt>
      <trkpt lat="45.27144" lon="5.28799">
        <ele>588.17</ele>
        <time>2017-02-25T16:15:21Z</time>
      </trkpt>
      <trkpt lat="45.27144" lon="5.28799">
        <ele>588.17</ele>
        <time>2017-02-25T16:15:22Z</time>
      </trkpt>
      <trkpt lat="45.27144" lon="5.28799">
        <ele>588.17</ele>
        <time>2017-02-25T16:15:23Z</time>
      </trkpt>
      <trkpt lat="45.27144" lon="5.28799">
        <ele>588.17</ele>
        <time>2017-02-25T16:15:24Z</time>
      </trkpt>
      <trkpt lat="45.27144" lon="5.28799">
        <ele>588.17</ele>
        <time>2017-02-25T16:15:25Z</time>
      </trkpt>
      <trkpt lat="45.27144" lon="5.28799">
        <ele>588.17</ele>
        <time>2017-02-25T16:15:26Z</time>
      </trkpt>
      <trkpt lat="45.27144" lon="5.28799">
        <ele>588.17</ele>
        <time>2017-02-25T16:15:27Z</time>
      </trkpt>
      <trkpt lat="45.27144" lon="5.28799">
        <ele>588.17</ele>
        <time>2017-02-25T16:15:28Z</time>
      </trkpt>
      <trkpt lat="45.27144" lon="5.28799">
        <ele>588.17</ele>
        <time>2017-02-25T16:15:29Z</time>
      </trkpt>
      <trkpt lat="45.27144" lon="5.28799">
        <ele>588.17</ele>
        <time>2017-02-25T16:15:30Z</time>
      </trkpt>
      <trkpt lat="45.27144" lon="5.28799">
        <ele>588.17</ele>
        <time>2017-02-25T16:15:31Z</time>
      </trkpt>
      <trkpt lat="45.27144" lon="5.28799">
        <ele>588.17</ele>
        <time>2017-02-25T16:15:32Z</time>
      </trkpt>
      <trkpt lat="45.27144" lon="5.28799">
        <ele>588.17</ele>
        <time>2017-02-25T16:15:33Z</time>
      </trkpt>
      <trkpt lat="45.27144" lon="5.28799">
        <ele>588.17</ele>
        <time>2017-02-25T16:15:34Z</time>
      </trkpt>
      <trkpt lat="45.27144" lon="5.28799">
        <ele>588.17</ele>
        <time>2017-02-25T16:15:35Z</time>
      </trkpt>
      <trkpt lat="45.27144" lon="5.28799">
        <ele>588.17</ele>
        <time>2017-02-25T16:15:36Z</time>
      </trkpt>
      <trkpt lat="45.27144" lon="5.28799">
        <ele>588.17</ele>
        <time>2017-02-25T16:15:37Z</time>
      </trkpt>
      <trkpt lat="45.27144" lon="5.28799">
        <ele>588.17</ele>
        <time>2017-02-25T16:15:38Z</time>
      </trkpt>
      <trkpt lat="45.27144" lon="5.28799">
        <ele>588.17</ele>
        <time>2017-02-25T16:15:39Z</time>
      </trkpt>
      <trkpt lat="45.27144" lon="5.28799">
        <ele>588.17</ele>
        <time>2017-02-25T16:15:40Z</time>
      </trkpt>
      <trkpt lat="45.27144" lon="5.28799">
        <ele>588.17</ele>
        <time>2017-02-25T16:15:41Z</time>
      </trkpt>
      <trkpt lat="45.27144" lon="5.28799">
        <ele>588.17</ele>
        <time>2017-02-25T16:15:42Z</time>
      </trkpt>
      <trkpt lat="45.27144" lon="5.28799">
        <ele>588.17</ele>
        <time>2017-02-25T16:15:43Z</time>
      </trkpt>
      <trkpt lat="45.27144" lon="5.28799">
        <ele>588.17</ele>
        <time>2017-02-25T16:15:44Z</time>
      </trkpt>
      <trkpt lat="45.27144" lon="5.28799">
        <ele>588.17</ele>
        <time>2017-02-25T16:15:45Z</time>
      </trkpt>
      <trkpt lat="45.27144" lon="5.28799">
        <ele>588.17</ele>
        <time>2017-02-25T16:15:46Z</time>
      </trkpt>
      <trkpt lat="45.27144" lon="5.28799">
        <ele>588.17</ele>
        <time>2017-02-25T16:15:47Z</time>
      </trkpt>
      <trkpt lat="45.27144" lon="5.28799">
        <ele>588.17</ele>
        <time>2017-02-25T16:15:48Z</time>
      </trkpt>
      <trkpt lat="45.27144" lon="5.28799">
        <ele>588.17</ele>
        <time>2017-02-25T16:15:49Z</time>
      </trkpt>
      <trkpt lat="45.27144" lon="5.28799">
        <ele>588.17</ele>
        <time>2017-02-25T16:15:50Z</time>
      </trkpt>
      <trkpt lat="45.27144" lon="5.28799">
        <ele>588.17</ele>
        <time>2017-02-25T16:15:51Z</time>
      </trkpt>
      <trkpt lat="45.27144" lon="5.28799">
        <ele>588.17</ele>
        <time>2017-02-25T16:15:52Z</time>
      </trkpt>
      <trkpt lat="45.27144" lon="5.28799">
        <ele>588.17</ele>
        <time>2017-02-25T16:15:53Z</time>
      </trkpt>
      <trkpt lat="45.27144" lon="5.28799">
        <ele>588.17</ele>
        <time>2017-02-25T16:15:54Z</time>
      </trkpt>
      <trkpt lat="45.27144" lon="5.28799">
        <ele>588.17</ele>
        <time>2017-02-25T16:15:55Z</time>
      </trkpt>
      <trkpt lat="45.27144" lon="5.28799">
        <ele>588.17</ele>
        <time>2017-02-25T16:15:56Z</time>
      </trkpt>
      <trkpt lat="45.27144" lon="5.28799">
        <ele>588.17</ele>
        <time>2017-02-25T16:15:57Z</time>
      </trkpt>
      <trkpt lat="45.27144" lon="5.28799">
        <ele>588.17</ele>
        <time>2017-02-25T16:15:58Z</time>
      </trkpt>
      <trkpt lat="45.27144" lon="5.28799">
        <ele>588.17</ele>
        <time>2017-02-25T16:15:59Z</time>
      </trkpt>
      <trkpt lat="45.27144" lon="5.28799">
        <ele>588.17</ele>
        <time>2017-02-25T16:16:00Z</time>
      </trkpt>
      <trkpt lat="45.27144" lon="5.28799">
        <ele>588.17</ele>
        <time>2017-02-25T16:16:01Z</time>
      </trkpt>
      <trkpt lat="45.27144" lon="5.28799">
        <ele>588.17</ele>
        <time>2017-02-25T16:16:02Z</time>
      </trkpt>
      <trkpt lat="45.27144" lon="5.28799">
        <ele>588.17</ele>
        <time>2017-02-25T16:16:03Z</time>
      </trkpt>
      <trkpt lat="45.27144" lon="5.28799">
        <ele>588.17</ele>
        <time>2017-02-25T16:16:04Z</time>
      </trkpt>
      <trkpt lat="45.27144" lon="5.28799">
        <ele>588.17</ele>
        <time>2017-02-25T16:16:05Z</time>
      </trkpt>
      <trkpt lat="45.27144" lon="5.28799">
        <ele>588.17</ele>
        <time>2017-02-25T16:16:06Z</time>
      </trkpt>
      <trkpt lat="45.27144" lon="5.28799">
        <ele>588.17</ele>
        <time>2017-02-25T16:16:07Z</time>
      </trkpt>
      <trkpt lat="45.27144" lon="5.28799">
        <ele>588.17</ele>
        <time>2017-02-25T16:16:08Z</time>
      </trkpt>
      <trkpt lat="45.27144" lon="5.28799">
        <ele>588.17</ele>
        <time>2017-02-25T16:16:09Z</time>
      </trkpt>
      <trkpt lat="45.27144" lon="5.28799">
        <ele>588.17</ele>
        <time>2017-02-25T16:16:10Z</time>
      </trkpt>
      <trkpt lat="45.27144" lon="5.28799">
        <ele>588.17</ele>
        <time>2017-02-25T16:16:11Z</time>
      </trkpt>
      <trkpt lat="45.27144" lon="5.28799">
        <ele>588.17</ele>
        <time>2017-02-25T16:16:12Z</time>
      </trkpt>
      <trkpt lat="45.27144" lon="5.28799">
        <ele>588.17</ele>
        <time>2017-02-25T16:16:13Z</time>
      </trkpt>
      <trkpt lat="45.27144" lon="5.28799">
        <ele>588.17</ele>
        <time>2017-02-25T16:16:14Z</time>
      </trkpt>
      <trkpt lat="45.27144" lon="5.28799">
        <ele>588.17</ele>
        <time>2017-02-25T16:16:15Z</time>
      </trkpt>
      <trkpt lat="45.27144" lon="5.28799">
        <ele>588.17</ele>
        <time>2017-02-25T16:16:16Z</time>
      </trkpt>
      <trkpt lat="45.27144" lon="5.28799">
        <ele>588.17</ele>
        <time>2017-02-25T16:16:17Z</time>
      </trkpt>
      <trkpt lat="45.27144" lon="5.28799">
        <ele>588.17</ele>
        <time>2017-02-25T16:16:18Z</time>
      </trkpt>
      <trkpt lat="45.27144" lon="5.28799">
        <ele>588.17</ele>
        <time>2017-02-25T16:16:19Z</time>
      </trkpt>
      <trkpt lat="45.27144" lon="5.28799">
        <ele>588.17</ele>
        <time>2017-02-25T16:16:20Z</time>
      </trkpt>
      <trkpt lat="45.27144" lon="5.28799">
        <ele>588.17</ele>
        <time>2017-02-25T16:16:21Z</time>
      </trkpt>
      <trkpt lat="45.27144" lon="5.28799">
        <ele>588.17</ele>
        <time>2017-02-25T16:16:22Z</time>
      </trkpt>
      <trkpt lat="45.27144" lon="5.28799">
        <ele>588.17</ele>
        <time>2017-02-25T16:16:23Z</time>
      </trkpt>
      <trkpt lat="45.27144" lon="5.28799">
        <ele>588.17</ele>
        <time>2017-02-25T16:16:24Z</time>
      </trkpt>
      <trkpt lat="45.27144" lon="5.28799">
        <ele>588.17</ele>
        <time>2017-02-25T16:16:25Z</time>
      </trkpt>
      <trkpt lat="45.27144" lon="5.28799">
        <ele>588.17</ele>
        <time>2017-02-25T16:16:26Z</time>
      </trkpt>
      <trkpt lat="45.27144" lon="5.28799">
        <ele>588.17</ele>
        <time>2017-02-25T16:16:27Z</time>
      </trkpt>
      <trkpt lat="45.27144" lon="5.28799">
        <ele>588.17</ele>
        <time>2017-02-25T16:16:28Z</time>
      </trkpt>
      <trkpt lat="45.27144" lon="5.28799">
        <ele>588.17</ele>
        <time>2017-02-25T16:16:29Z</time>
      </trkpt>
      <trkpt lat="45.27144" lon="5.28799">
        <ele>588.17</ele>
        <time>2017-02-25T16:16:30Z</time>
      </trkpt>
      <trkpt lat="45.27144" lon="5.28799">
        <ele>588.17</ele>
        <time>2017-02-25T16:16:31Z</time>
      </trkpt>
      <trkpt lat="45.27144" lon="5.28799">
        <ele>588.17</ele>
        <time>2017-02-25T16:16:32Z</time>
      </trkpt>
      <trkpt lat="45.27144" lon="5.28799">
        <ele>588.17</ele>
        <time>2017-02-25T16:16:33Z</time>
      </trkpt>
      <trkpt lat="45.27144" lon="5.28799">
        <ele>588.17</ele>
        <time>2017-02-25T16:16:34Z</time>
      </trkpt>
      <trkpt lat="45.27144" lon="5.28799">
        <ele>588.17</ele>
        <time>2017-02-25T16:16:35Z</time>
      </trkpt>
      <trkpt lat="45.27144" lon="5.28799">
        <ele>588.17</ele>
        <time>2017-02-25T16:16:36Z</time>
      </trkpt>
      <trkpt lat="45.27144" lon="5.28799">
        <ele>588.17</ele>
        <time>2017-02-25T16:16:37Z</time>
      </trkpt>
      <trkpt lat="45.27144" lon="5.28799">
        <ele>588.17</ele>
        <time>2017-02-25T16:16:38Z</time>
      </trkpt>
      <trkpt lat="45.27144" lon="5.28799">
        <ele>588.17</ele>
        <time>2017-02-25T16:16:39Z</time>
      </trkpt>
      <trkpt lat="45.27144" lon="5.28799">
        <ele>588.17</ele>
        <time>2017-02-25T16:16:40Z</time>
      </trkpt>
      <trkpt lat="45.27144" lon="5.28799">
        <ele>588.17</ele>
        <time>2017-02-25T16:16:41Z</time>
      </trkpt>
      <trkpt lat="45.27144" lon="5.28799">
        <ele>588.17</ele>
        <time>2017-02-25T16:16:42Z</time>
      </trkpt>
      <trkpt lat="45.27144" lon="5.28799">
        <ele>588.17</ele>
        <time>2017-02-25T16:16:43Z</time>
      </trkpt>
      <trkpt lat="45.27144" lon="5.28799">
        <ele>588.17</ele>
        <time>2017-02-25T16:16:44Z</time>
      </trkpt>
      <trkpt lat="45.27144" lon="5.28799">
        <ele>588.17</ele>
        <time>2017-02-25T16:16:45Z</time>
      </trkpt>
      <trkpt lat="45.27144" lon="5.28799">
        <ele>588.17</ele>
        <time>2017-02-25T16:16:46Z</time>
      </trkpt>
      <trkpt lat="45.27144" lon="5.28799">
        <ele>588.17</ele>
        <time>2017-02-25T16:16:47Z</time>
      </trkpt>
      <trkpt lat="45.27144" lon="5.28799">
        <ele>588.17</ele>
        <time>2017-02-25T16:16:48Z</time>
      </trkpt>
      <trkpt lat="45.27144" lon="5.28799">
        <ele>588.17</ele>
        <time>2017-02-25T16:16:49Z</time>
      </trkpt>
      <trkpt lat="45.27144" lon="5.28799">
        <ele>588.17</ele>
        <time>2017-02-25T16:16:50Z</time>
      </trkpt>
      <trkpt lat="45.27144" lon="5.28799">
        <ele>588.17</ele>
        <time>2017-02-25T16:16:51Z</time>
      </trkpt>
      <trkpt lat="45.27144" lon="5.28799">
        <ele>588.17</ele>
        <time>2017-02-25T16:16:52Z</time>
      </trkpt>
      <trkpt lat="45.27144" lon="5.28799">
        <ele>588.17</ele>
        <time>2017-02-25T16:16:53Z</time>
      </trkpt>
      <trkpt lat="45.27144" lon="5.28799">
        <ele>588.17</ele>
        <time>2017-02-25T16:16:54Z</time>
      </trkpt>
      <trkpt lat="45.27144" lon="5.28799">
        <ele>588.17</ele>
        <time>2017-02-25T16:16:55Z</time>
      </trkpt>
      <trkpt lat="45.27144" lon="5.28799">
        <ele>588.17</ele>
        <time>2017-02-25T16:16:56Z</time>
      </trkpt>
      <trkpt lat="45.27144" lon="5.28799">
        <ele>588.17</ele>
        <time>2017-02-25T16:16:57Z</time>
      </trkpt>
      <trkpt lat="45.27144" lon="5.28799">
        <ele>588.17</ele>
        <time>2017-02-25T16:16:58Z</time>
      </trkpt>
      <trkpt lat="45.27144" lon="5.28799">
        <ele>588.17</ele>
        <time>2017-02-25T16:16:59Z</time>
      </trkpt>
      <trkpt lat="45.27144" lon="5.28799">
        <ele>588.17</ele>
        <time>2017-02-25T16:17:00Z</time>
      </trkpt>
      <trkpt lat="45.27144" lon="5.28799">
        <ele>588.17</ele>
        <time>2017-02-25T16:17:01Z</time>
      </trkpt>
      <trkpt lat="45.27144" lon="5.28799">
        <ele>588.17</ele>
        <time>2017-02-25T16:17:02Z</time>
      </trkpt>
      <trkpt lat="45.27144" lon="5.28799">
        <ele>588.17</ele>
        <time>2017-02-25T16:17:03Z</time>
      </trkpt>
      <trkpt lat="45.27144" lon="5.28799">
        <ele>588.17</ele>
        <time>2017-02-25T16:17:04Z</time>
      </trkpt>
      <trkpt lat="45.27144" lon="5.28799">
        <ele>588.17</ele>
        <time>2017-02-25T16:17:05Z</time>
      </trkpt>
      <trkpt lat="45.27144" lon="5.28799">
        <ele>588.17</ele>
        <time>2017-02-25T16:17:06Z</time>
      </trkpt>
      <trkpt lat="45.27144" lon="5.28799">
        <ele>588.17</ele>
        <time>2017-02-25T16:17:07Z</time>
      </trkpt>
      <trkpt lat="45.27144" lon="5.28799">
        <ele>588.17</ele>
        <time>2017-02-25T16:17:08Z</time>
      </trkpt>
      <trkpt lat="45.27144" lon="5.28799">
        <ele>588.17</ele>
        <time>2017-02-25T16:17:09Z</time>
      </trkpt>
      <trkpt lat="45.27144" lon="5.28799">
        <ele>588.17</ele>
        <time>2017-02-25T16:17:10Z</time>
      </trkpt>
      <trkpt lat="45.27144" lon="5.28799">
        <ele>588.17</ele>
        <time>2017-02-25T16:17:11Z</time>
      </trkpt>
      <trkpt lat="45.27144" lon="5.28799">
        <ele>588.17</ele>
        <time>2017-02-25T16:17:12Z</time>
      </trkpt>
      <trkpt lat="45.27144" lon="5.28799">
        <ele>588.17</ele>
        <time>2017-02-25T16:17:13Z</time>
      </trkpt>
      <trkpt lat="45.27144" lon="5.28799">
        <ele>588.17</ele>
        <time>2017-02-25T16:17:14Z</time>
      </trkpt>
      <trkpt lat="45.27144" lon="5.28799">
        <ele>588.17</ele>
        <time>2017-02-25T16:17:15Z</time>
      </trkpt>
      <trkpt lat="45.27144" lon="5.28799">
        <ele>588.17</ele>
        <time>2017-02-25T16:17:16Z</time>
      </trkpt>
      <trkpt lat="45.27144" lon="5.28799">
        <ele>588.17</ele>
        <time>2017-02-25T16:17:17Z</time>
      </trkpt>
      <trkpt lat="45.27144" lon="5.28799">
        <ele>588.17</ele>
        <time>2017-02-25T16:17:18Z</time>
      </trkpt>
      <trkpt lat="45.27144" lon="5.28799">
        <ele>588.17</ele>
        <time>2017-02-25T16:17:19Z</time>
      </trkpt>
      <trkpt lat="45.27144" lon="5.28799">
        <ele>588.17</ele>
        <time>2017-02-25T16:17:20Z</time>
      </trkpt>
      <trkpt lat="45.27144" lon="5.28799">
        <ele>588.17</ele>
        <time>2017-02-25T16:17:21Z</time>
      </trkpt>
      <trkpt lat="45.27144" lon="5.28799">
        <ele>588.17</ele>
        <time>2017-02-25T16:17:22Z</time>
      </trkpt>
      <trkpt lat="45.27144" lon="5.28799">
        <ele>588.17</ele>
        <time>2017-02-25T16:17:23Z</time>
      </trkpt>
      <trkpt lat="45.27144" lon="5.28799">
        <ele>588.17</ele>
        <time>2017-02-25T16:17:24Z</time>
      </trkpt>
      <trkpt lat="45.27144" lon="5.28799">
        <ele>588.17</ele>
        <time>2017-02-25T16:17:25Z</time>
      </trkpt>
      <trkpt lat="45.27144" lon="5.28799">
        <ele>588.17</ele>
        <time>2017-02-25T16:17:26Z</time>
      </trkpt>
      <trkpt lat="45.27144" lon="5.28799">
        <ele>588.17</ele>
        <time>2017-02-25T16:17:27Z</time>
      </trkpt>
      <trkpt lat="45.27144" lon="5.28799">
        <ele>588.17</ele>
        <time>2017-02-25T16:17:28Z</time>
      </trkpt>
      <trkpt lat="45.27144" lon="5.28799">
        <ele>588.17</ele>
        <time>2017-02-25T16:17:29Z</time>
      </trkpt>
      <trkpt lat="45.27144" lon="5.28799">
        <ele>588.17</ele>
        <time>2017-02-25T16:17:30Z</time>
      </trkpt>
      <trkpt lat="45.27144" lon="5.28799">
        <ele>588.17</ele>
        <time>2017-02-25T16:17:31Z</time>
      </trkpt>
      <trkpt lat="45.27144" lon="5.28799">
        <ele>588.17</ele>
        <time>2017-02-25T16:17:32Z</time>
      </trkpt>
      <trkpt lat="45.27144" lon="5.28799">
        <ele>588.17</ele>
        <time>2017-02-25T16:17:33Z</time>
      </trkpt>
      <trkpt lat="45.27144" lon="5.28799">
        <ele>588.17</ele>
        <time>2017-02-25T16:17:34Z</time>
      </trkpt>
      <trkpt lat="45.27144" lon="5.28799">
        <ele>588.17</ele>
        <time>2017-02-25T16:17:35Z</time>
      </trkpt>
      <trkpt lat="45.27144" lon="5.28799">
        <ele>588.17</ele>
        <time>2017-02-25T16:17:36Z</time>
      </trkpt>
      <trkpt lat="45.27144" lon="5.28799">
        <ele>588.17</ele>
        <time>2017-02-25T16:17:37Z</time>
      </trkpt>
      <trkpt lat="45.27144" lon="5.28799">
        <ele>588.17</ele>
        <time>2017-02-25T16:17:38Z</time>
      </trkpt>
      <trkpt lat="45.27144" lon="5.28799">
        <ele>588.17</ele>
        <time>2017-02-25T16:17:39Z</time>
      </trkpt>
      <trkpt lat="45.27144" lon="5.28799">
        <ele>588.17</ele>
        <time>2017-02-25T16:17:40Z</time>
      </trkpt>
      <trkpt lat="45.27144" lon="5.28799">
        <ele>588.17</ele>
        <time>2017-02-25T16:17:41Z</time>
      </trkpt>
      <trkpt lat="45.27144" lon="5.28799">
        <ele>588.17</ele>
        <time>2017-02-25T16:17:42Z</time>
      </trkpt>
      <trkpt lat="45.27144" lon="5.28799">
        <ele>588.17</ele>
        <time>2017-02-25T16:17:43Z</time>
      </trkpt>
      <trkpt lat="45.27144" lon="5.28799">
        <ele>588.17</ele>
        <time>2017-02-25T16:17:44Z</time>
      </trkpt>
      <trkpt lat="45.27144" lon="5.28799">
        <ele>588.17</ele>
        <time>2017-02-25T16:17:45Z</time>
      </trkpt>
      <trkpt lat="45.27144" lon="5.28799">
        <ele>588.17</ele>
        <time>2017-02-25T16:17:46Z</time>
      </trkpt>
      <trkpt lat="45.27144" lon="5.28799">
        <ele>588.17</ele>
        <time>2017-02-25T16:17:47Z</time>
      </trkpt>
      <trkpt lat="45.27144" lon="5.28799">
        <ele>588.17</ele>
        <time>2017-02-25T16:17:48Z</time>
      </trkpt>
      <trkpt lat="45.27144" lon="5.28799">
        <ele>588.17</ele>
        <time>2017-02-25T16:17:49Z</time>
      </trkpt>
      <trkpt lat="45.27144" lon="5.28799">
        <ele>588.17</ele>
        <time>2017-02-25T16:17:50Z</time>
      </trkpt>
      <trkpt lat="45.27144" lon="5.28799">
        <ele>588.17</ele>
        <time>2017-02-25T16:17:51Z</time>
      </trkpt>
      <trkpt lat="45.27144" lon="5.28799">
        <ele>588.17</ele>
        <time>2017-02-25T16:17:52Z</time>
      </trkpt>
      <trkpt lat="45.27144" lon="5.28799">
        <ele>588.17</ele>
        <time>2017-02-25T16:17:53Z</time>
      </trkpt>
      <trkpt lat="45.27144" lon="5.28799">
        <ele>588.17</ele>
        <time>2017-02-25T16:17:54Z</time>
      </trkpt>
      <trkpt lat="45.27144" lon="5.28799">
        <ele>588.17</ele>
        <time>2017-02-25T16:17:55Z</time>
      </trkpt>
      <trkpt lat="45.27144" lon="5.28799">
        <ele>588.17</ele>
        <time>2017-02-25T16:17:56Z</time>
      </trkpt>
      <trkpt lat="45.27144" lon="5.28799">
        <ele>588.17</ele>
        <time>2017-02-25T16:17:57Z</time>
      </trkpt>
      <trkpt lat="45.27144" lon="5.28799">
        <ele>588.17</ele>
        <time>2017-02-25T16:17:58Z</time>
      </trkpt>
      <trkpt lat="45.27144" lon="5.28799">
        <ele>588.17</ele>
        <time>2017-02-25T16:17:59Z</time>
      </trkpt>
      <trkpt lat="45.27144" lon="5.28799">
        <ele>588.17</ele>
        <time>2017-02-25T16:18:00Z</time>
      </trkpt>
      <trkpt lat="45.27144" lon="5.28799">
        <ele>588.17</ele>
        <time>2017-02-25T16:18:01Z</time>
      </trkpt>
      <trkpt lat="45.27144" lon="5.28799">
        <ele>588.17</ele>
        <time>2017-02-25T16:18:02Z</time>
      </trkpt>
      <trkpt lat="45.27144" lon="5.28799">
        <ele>588.17</ele>
        <time>2017-02-25T16:18:03Z</time>
      </trkpt>
      <trkpt lat="45.27144" lon="5.28799">
        <ele>588.17</ele>
        <time>2017-02-25T16:18:04Z</time>
      </trkpt>
      <trkpt lat="45.27144" lon="5.28799">
        <ele>588.17</ele>
        <time>2017-02-25T16:18:05Z</time>
      </trkpt>
      <trkpt lat="45.27144" lon="5.28799">
        <ele>588.17</ele>
        <time>2017-02-25T16:18:06Z</time>
      </trkpt>
      <trkpt lat="45.27144" lon="5.28799">
        <ele>588.17</ele>
        <time>2017-02-25T16:18:07Z</time>
      </trkpt>
      <trkpt lat="45.27144" lon="5.28799">
        <ele>588.17</ele>
        <time>2017-02-25T16:18:08Z</time>
      </trkpt>
      <trkpt lat="45.27144" lon="5.28799">
        <ele>588.17</ele>
        <time>2017-02-25T16:18:09Z</time>
      </trkpt>
      <trkpt lat="45.27144" lon="5.28799">
        <ele>588.17</ele>
        <time>2017-02-25T16:18:10Z</time>
      </trkpt>
      <trkpt lat="45.27144" lon="5.28799">
        <ele>588.17</ele>
        <time>2017-02-25T16:18:11Z</time>
      </trkpt>
      <trkpt lat="45.27144" lon="5.28799">
        <ele>588.17</ele>
        <time>2017-02-25T16:18:12Z</time>
      </trkpt>
      <trkpt lat="45.27144" lon="5.28799">
        <ele>588.17</ele>
        <time>2017-02-25T16:18:13Z</time>
      </trkpt>
      <trkpt lat="45.27144" lon="5.28799">
        <ele>588.17</ele>
        <time>2017-02-25T16:18:14Z</time>
      </trkpt>
      <trkpt lat="45.27144" lon="5.28799">
        <ele>588.17</ele>
        <time>2017-02-25T16:18:15Z</time>
      </trkpt>
      <trkpt lat="45.27144" lon="5.28799">
        <ele>588.17</ele>
        <time>2017-02-25T16:18:16Z</time>
      </trkpt>
      <trkpt lat="45.27144" lon="5.28799">
        <ele>588.17</ele>
        <time>2017-02-25T16:18:17Z</time>
      </trkpt>
      <trkpt lat="45.27144" lon="5.28799">
        <ele>588.17</ele>
        <time>2017-02-25T16:18:18Z</time>
      </trkpt>
      <trkpt lat="45.27144" lon="5.28799">
        <ele>588.17</ele>
        <time>2017-02-25T16:18:19Z</time>
      </trkpt>
      <trkpt lat="45.27144" lon="5.28799">
        <ele>588.17</ele>
        <time>2017-02-25T16:18:20Z</time>
      </trkpt>
      <trkpt lat="45.27144" lon="5.28799">
        <ele>588.17</ele>
        <time>2017-02-25T16:18:21Z</time>
      </trkpt>
      <trkpt lat="45.27144" lon="5.28799">
        <ele>588.17</ele>
        <time>2017-02-25T16:18:22Z</time>
      </trkpt>
      <trkpt lat="45.27144" lon="5.28799">
        <ele>588.17</ele>
        <time>2017-02-25T16:18:23Z</time>
      </trkpt>
      <trkpt lat="45.27144" lon="5.28799">
        <ele>588.17</ele>
        <time>2017-02-25T16:18:24Z</time>
      </trkpt>
      <trkpt lat="45.27144" lon="5.28799">
        <ele>588.17</ele>
        <time>2017-02-25T16:18:25Z</time>
      </trkpt>
      <trkpt lat="45.27144" lon="5.28799">
        <ele>588.17</ele>
        <time>2017-02-25T16:18:26Z</time>
      </trkpt>
      <trkpt lat="45.27144" lon="5.28799">
        <ele>588.17</ele>
        <time>2017-02-25T16:18:27Z</time>
      </trkpt>
      <trkpt lat="45.27144" lon="5.28799">
        <ele>588.17</ele>
        <time>2017-02-25T16:18:28Z</time>
      </trkpt>
      <trkpt lat="45.27144" lon="5.28799">
        <ele>588.17</ele>
        <time>2017-02-25T16:18:29Z</time>
      </trkpt>
      <trkpt lat="45.27144" lon="5.28799">
        <ele>588.17</ele>
        <time>2017-02-25T16:18:30Z</time>
      </trkpt>
      <trkpt lat="45.27144" lon="5.28799">
        <ele>588.17</ele>
        <time>2017-02-25T16:18:31Z</time>
      </trkpt>
      <trkpt lat="45.27144" lon="5.28799">
        <ele>588.17</ele>
        <time>2017-02-25T16:18:32Z</time>
      </trkpt>
      <trkpt lat="45.27144" lon="5.28799">
        <ele>588.17</ele>
        <time>2017-02-25T16:18:33Z</time>
      </trkpt>
      <trkpt lat="45.27144" lon="5.28799">
        <ele>588.17</ele>
        <time>2017-02-25T16:18:34Z</time>
      </trkpt>
      <trkpt lat="45.27144" lon="5.28799">
        <ele>588.17</ele>
        <time>2017-02-25T16:18:35Z</time>
      </trkpt>
      <trkpt lat="45.27144" lon="5.28799">
        <ele>588.17</ele>
        <time>2017-02-25T16:18:36Z</time>
      </trkpt>
      <trkpt lat="45.27144" lon="5.28799">
        <ele>588.17</ele>
        <time>2017-02-25T16:18:37Z</time>
      </trkpt>
      <trkpt lat="45.27144" lon="5.28799">
        <ele>588.17</ele>
        <time>2017-02-25T16:18:38Z</time>
      </trkpt>
      <trkpt lat="45.27144" lon="5.28799">
        <ele>588.17</ele>
        <time>2017-02-25T16:18:39Z</time>
      </trkpt>
      <trkpt lat="45.27144" lon="5.28799">
        <ele>588.17</ele>
        <time>2017-02-25T16:18:40Z</time>
      </trkpt>
      <trkpt lat="45.27144" lon="5.28799">
        <ele>588.17</ele>
        <time>2017-02-25T16:18:41Z</time>
      </trkpt>
      <trkpt lat="45.27144" lon="5.28799">
        <ele>588.17</ele>
        <time>2017-02-25T16:18:42Z</time>
      </trkpt>
      <trkpt lat="45.27144" lon="5.28799">
        <ele>588.17</ele>
        <time>2017-02-25T16:18:43Z</time>
      </trkpt>
      <trkpt lat="45.27144" lon="5.28799">
        <ele>588.17</ele>
        <time>2017-02-25T16:18:44Z</time>
      </trkpt>
      <trkpt lat="45.27144" lon="5.28799">
        <ele>588.17</ele>
        <time>2017-02-25T16:18:45Z</time>
      </trkpt>
      <trkpt lat="45.27144" lon="5.28799">
        <ele>588.17</ele>
        <time>2017-02-25T16:18:46Z</time>
      </trkpt>
      <trkpt lat="45.27144" lon="5.28799">
        <ele>588.17</ele>
        <time>2017-02-25T16:18:47Z</time>
      </trkpt>
      <trkpt lat="45.27144" lon="5.28799">
        <ele>588.17</ele>
        <time>2017-02-25T16:18:48Z</time>
      </trkpt>
      <trkpt lat="45.27144" lon="5.28799">
        <ele>588.17</ele>
        <time>2017-02-25T16:18:49Z</time>
      </trkpt>
      <trkpt lat="45.27144" lon="5.28799">
        <ele>588.17</ele>
        <time>2017-02-25T16:18:50Z</time>
      </trkpt>
      <trkpt lat="45.27144" lon="5.28799">
        <ele>588.17</ele>
        <time>2017-02-25T16:18:51Z</time>
      </trkpt>
      <trkpt lat="45.27144" lon="5.28799">
        <ele>588.17</ele>
        <time>2017-02-25T16:18:52Z</time>
      </trkpt>
      <trkpt lat="45.27144" lon="5.28799">
        <ele>588.17</ele>
        <time>2017-02-25T16:18:53Z</time>
      </trkpt>
      <trkpt lat="45.27144" lon="5.28799">
        <ele>588.17</ele>
        <time>2017-02-25T16:18:54Z</time>
      </trkpt>
      <trkpt lat="45.27144" lon="5.28799">
        <ele>588.17</ele>
        <time>2017-02-25T16:18:55Z</time>
      </trkpt>
      <trkpt lat="45.27144" lon="5.28799">
        <ele>588.17</ele>
        <time>2017-02-25T16:18:56Z</time>
      </trkpt>
      <trkpt lat="45.27144" lon="5.28799">
        <ele>588.17</ele>
        <time>2017-02-25T16:18:57Z</time>
      </trkpt>
      <trkpt lat="45.27144" lon="5.28799">
        <ele>588.17</ele>
        <time>2017-02-25T16:18:58Z</time>
      </trkpt>
      <trkpt lat="45.27144" lon="5.28799">
        <ele>588.17</ele>
        <time>2017-02-25T16:18:59Z</time>
      </trkpt>
      <trkpt lat="45.27144" lon="5.28799">
        <ele>588.17</ele>
        <time>2017-02-25T16:19:00Z</time>
      </trkpt>
      <trkpt lat="45.27144" lon="5.28799">
        <ele>588.17</ele>
        <time>2017-02-25T16:19:01Z</time>
      </trkpt>
      <trkpt lat="45.27144" lon="5.28799">
        <ele>588.17</ele>
        <time>2017-02-25T16:19:02Z</time>
      </trkpt>
      <trkpt lat="45.27144" lon="5.28799">
        <ele>588.17</ele>
        <time>2017-02-25T16:19:03Z</time>
      </trkpt>
      <trkpt lat="45.27144" lon="5.28799">
        <ele>588.17</ele>
        <time>2017-02-25T16:19:04Z</time>
      </trkpt>
      <trkpt lat="45.27144" lon="5.28799">
        <ele>588.17</ele>
        <time>2017-02-25T16:19:05Z</time>
      </trkpt>
      <trkpt lat="45.27144" lon="5.28799">
        <ele>588.17</ele>
        <time>2017-02-25T16:19:06Z</time>
      </trkpt>
      <trkpt lat="45.27144" lon="5.28799">
        <ele>588.17</ele>
        <time>2017-02-25T16:19:07Z</time>
      </trkpt>
      <trkpt lat="45.27144" lon="5.28799">
        <ele>588.17</ele>
        <time>2017-02-25T16:19:08Z</time>
      </trkpt>
      <trkpt lat="45.27144" lon="5.28799">
        <ele>588.17</ele>
        <time>2017-02-25T16:19:09Z</time>
      </trkpt>
      <trkpt lat="45.27144" lon="5.28799">
        <ele>588.17</ele>
        <time>2017-02-25T16:19:10Z</time>
      </trkpt>
      <trkpt lat="45.27144" lon="5.28799">
        <ele>588.17</ele>
        <time>2017-02-25T16:19:11Z</time>
      </trkpt>
      <trkpt lat="45.27144" lon="5.28799">
        <ele>588.17</ele>
        <time>2017-02-25T16:19:12Z</time>
      </trkpt>
      <trkpt lat="45.27144" lon="5.28799">
        <ele>588.17</ele>
        <time>2017-02-25T16:19:13Z</time>
      </trkpt>
      <trkpt lat="45.27144" lon="5.28799">
        <ele>588.17</ele>
        <time>2017-02-25T16:19:14Z</time>
      </trkpt>
      <trkpt lat="45.27144" lon="5.28799">
        <ele>588.17</ele>
        <time>2017-02-25T16:19:15Z</time>
      </trkpt>
      <trkpt lat="45.27144" lon="5.28799">
        <ele>588.17</ele>
        <time>2017-02-25T16:19:16Z</time>
      </trkpt>
      <trkpt lat="45.27144" lon="5.28799">
        <ele>588.17</ele>
        <time>2017-02-25T16:19:17Z</time>
      </trkpt>
      <trkpt lat="45.27144" lon="5.28799">
        <ele>588.17</ele>
        <time>2017-02-25T16:19:18Z</time>
      </trkpt>
      <trkpt lat="45.27144" lon="5.28799">
        <ele>588.17</ele>
        <time>2017-02-25T16:19:19Z</time>
      </trkpt>
      <trkpt lat="45.27144" lon="5.28799">
        <ele>588.17</ele>
        <time>2017-02-25T16:19:20Z</time>
      </trkpt>
      <trkpt lat="45.27144" lon="5.28799">
        <ele>588.17</ele>
        <time>2017-02-25T16:19:21Z</time>
      </trkpt>
      <trkpt lat="45.27144" lon="5.28799">
        <ele>588.17</ele>
        <time>2017-02-25T16:19:22Z</time>
      </trkpt>
      <trkpt lat="45.27144" lon="5.28799">
        <ele>588.17</ele>
        <time>2017-02-25T16:19:23Z</time>
      </trkpt>
      <trkpt lat="45.27144" lon="5.28799">
        <ele>588.17</ele>
        <time>2017-02-25T16:19:24Z</time>
      </trkpt>
      <trkpt lat="45.27144" lon="5.28799">
        <ele>588.17</ele>
        <time>2017-02-25T16:19:25Z</time>
      </trkpt>
      <trkpt lat="45.27144" lon="5.28799">
        <ele>588.17</ele>
        <time>2017-02-25T16:19:26Z</time>
      </trkpt>
      <trkpt lat="45.27144" lon="5.28799">
        <ele>588.17</ele>
        <time>2017-02-25T16:19:27Z</time>
      </trkpt>
      <trkpt lat="45.27144" lon="5.28799">
        <ele>588.17</ele>
        <time>2017-02-25T16:19:28Z</time>
      </trkpt>
      <trkpt lat="45.27144" lon="5.28799">
        <ele>588.17</ele>
        <time>2017-02-25T16:19:29Z</time>
      </trkpt>
      <trkpt lat="45.27144" lon="5.28799">
        <ele>588.17</ele>
        <time>2017-02-25T16:19:30Z</time>
      </trkpt>
      <trkpt lat="45.27144" lon="5.28799">
        <ele>588.17</ele>
        <time>2017-02-25T16:19:31Z</time>
      </trkpt>
      <trkpt lat="45.27144" lon="5.28799">
        <ele>588.17</ele>
        <time>2017-02-25T16:19:32Z</time>
      </trkpt>
      <trkpt lat="45.27144" lon="5.28799">
        <ele>588.17</ele>
        <time>2017-02-25T16:19:33Z</time>
      </trkpt>
      <trkpt lat="45.27144" lon="5.28799">
        <ele>588.17</ele>
        <time>2017-02-25T16:19:34Z</time>
      </trkpt>
      <trkpt lat="45.27144" lon="5.28799">
        <ele>588.17</ele>
        <time>2017-02-25T16:19:35Z</time>
      </trkpt>
      <trkpt lat="45.27144" lon="5.28799">
        <ele>588.17</ele>
        <time>2017-02-25T16:19:36Z</time>
      </trkpt>
      <trkpt lat="45.27144" lon="5.28799">
        <ele>588.17</ele>
        <time>2017-02-25T16:19:37Z</time>
      </trkpt>
      <trkpt lat="45.27144" lon="5.28799">
        <ele>588.17</ele>
        <time>2017-02-25T16:19:38Z</time>
      </trkpt>
      <trkpt lat="45.27144" lon="5.28799">
        <ele>588.17</ele>
        <time>2017-02-25T16:19:39Z</time>
      </trkpt>
      <trkpt lat="45.27144" lon="5.28799">
        <ele>588.17</ele>
        <time>2017-02-25T16:19:40Z</time>
      </trkpt>
      <trkpt lat="45.27144" lon="5.28799">
        <ele>588.17</ele>
        <time>2017-02-25T16:19:41Z</time>
      </trkpt>
      <trkpt lat="45.27144" lon="5.28799">
        <ele>588.17</ele>
        <time>2017-02-25T16:19:42Z</time>
      </trkpt>
      <trkpt lat="45.27144" lon="5.28799">
        <ele>588.17</ele>
        <time>2017-02-25T16:19:43Z</time>
      </trkpt>
      <trkpt lat="45.27144" lon="5.28799">
        <ele>588.17</ele>
        <time>2017-02-25T16:19:44Z</time>
      </trkpt>
      <trkpt lat="45.27144" lon="5.28799">
        <ele>588.17</ele>
        <time>2017-02-25T16:19:45Z</time>
      </trkpt>
      <trkpt lat="45.27144" lon="5.28799">
        <ele>588.17</ele>
        <time>2017-02-25T16:19:46Z</time>
      </trkpt>
      <trkpt lat="45.27144" lon="5.28799">
        <ele>588.17</ele>
        <time>2017-02-25T16:19:47Z</time>
      </trkpt>
      <trkpt lat="45.27144" lon="5.28799">
        <ele>588.17</ele>
        <time>2017-02-25T16:19:48Z</time>
      </trkpt>
      <trkpt lat="45.27144" lon="5.28799">
        <ele>588.17</ele>
        <time>2017-02-25T16:19:49Z</time>
      </trkpt>
      <trkpt lat="45.27144" lon="5.28799">
        <ele>588.17</ele>
        <time>2017-02-25T16:19:50Z</time>
      </trkpt>
      <trkpt lat="45.27144" lon="5.28799">
        <ele>588.17</ele>
        <time>2017-02-25T16:19:51Z</time>
      </trkpt>
      <trkpt lat="45.27144" lon="5.28799">
        <ele>588.17</ele>
        <time>2017-02-25T16:19:52Z</time>
      </trkpt>
      <trkpt lat="45.27144" lon="5.28799">
        <ele>588.17</ele>
        <time>2017-02-25T16:19:53Z</time>
      </trkpt>
      <trkpt lat="45.27144" lon="5.28799">
        <ele>588.17</ele>
        <time>2017-02-25T16:19:54Z</time>
      </trkpt>
      <trkpt lat="45.27144" lon="5.28799">
        <ele>588.17</ele>
        <time>2017-02-25T16:19:55Z</time>
      </trkpt>
      <trkpt lat="45.27144" lon="5.28799">
        <ele>588.17</ele>
        <time>2017-02-25T16:19:56Z</time>
      </trkpt>
      <trkpt lat="45.27144" lon="5.28799">
        <ele>588.17</ele>
        <time>2017-02-25T16:19:57Z</time>
      </trkpt>
      <trkpt lat="45.27144" lon="5.28799">
        <ele>588.17</ele>
        <time>2017-02-25T16:19:58Z</time>
      </trkpt>
      <trkpt lat="45.27144" lon="5.28799">
        <ele>588.17</ele>
        <time>2017-02-25T16:19:59Z</time>
      </trkpt>
      <trkpt lat="45.27144" lon="5.28799">
        <ele>588.17</ele>
        <time>2017-02-25T16:20:00Z</time>
      </trkpt>
      <trkpt lat="45.27144" lon="5.28799">
        <ele>588.17</ele>
        <time>2017-02-25T16:20:01Z</time>
      </trkpt>
      <trkpt lat="45.27144" lon="5.28799">
        <ele>588.17</ele>
        <time>2017-02-25T16:20:02Z</time>
      </trkpt>
      <trkpt lat="45.27144" lon="5.28799">
        <ele>588.17</ele>
        <time>2017-02-25T16:20:03Z</time>
      </trkpt>
      <trkpt lat="45.27144" lon="5.28799">
        <ele>588.17</ele>
        <time>2017-02-25T16:20:04Z</time>
      </trkpt>
      <trkpt lat="45.27144" lon="5.28799">
        <ele>588.17</ele>
        <time>2017-02-25T16:20:05Z</time>
      </trkpt>
      <trkpt lat="45.27144" lon="5.28799">
        <ele>588.17</ele>
        <time>2017-02-25T16:20:06Z</time>
      </trkpt>
      <trkpt lat="45.27144" lon="5.28799">
        <ele>588.17</ele>
        <time>2017-02-25T16:20:07Z</time>
      </trkpt>
      <trkpt lat="45.27144" lon="5.28799">
        <ele>588.17</ele>
        <time>2017-02-25T16:20:08Z</time>
      </trkpt>
      <trkpt lat="45.27144" lon="5.28799">
        <ele>588.17</ele>
        <time>2017-02-25T16:20:09Z</time>
      </trkpt>
      <trkpt lat="45.27144" lon="5.28799">
        <ele>588.17</ele>
        <time>2017-02-25T16:20:10Z</time>
      </trkpt>
      <trkpt lat="45.27144" lon="5.28799">
        <ele>588.17</ele>
        <time>2017-02-25T16:20:11Z</time>
      </trkpt>
      <trkpt lat="45.27144" lon="5.28799">
        <ele>588.17</ele>
        <time>2017-02-25T16:20:12Z</time>
      </trkpt>
      <trkpt lat="45.27144" lon="5.28799">
        <ele>588.17</ele>
        <time>2017-02-25T16:20:13Z</time>
      </trkpt>
      <trkpt lat="45.27144" lon="5.28799">
        <ele>588.17</ele>
        <time>2017-02-25T16:20:14Z</time>
      </trkpt>
      <trkpt lat="45.27144" lon="5.28799">
        <ele>588.17</ele>
        <time>2017-02-25T16:20:15Z</time>
      </trkpt>
      <trkpt lat="45.27144" lon="5.28799">
        <ele>588.17</ele>
        <time>2017-02-25T16:20:16Z</time>
      </trkpt>
      <trkpt lat="45.27144" lon="5.28799">
        <ele>588.17</ele>
        <time>2017-02-25T16:20:17Z</time>
      </trkpt>
      <trkpt lat="45.27144" lon="5.28799">
        <ele>588.17</ele>
        <time>2017-02-25T16:20:18Z</time>
      </trkpt>
      <trkpt lat="45.27144" lon="5.28799">
        <ele>588.17</ele>
        <time>2017-02-25T16:20:19Z</time>
      </trkpt>
      <trkpt lat="45.27144" lon="5.28799">
        <ele>588.17</ele>
        <time>2017-02-25T16:20:20Z</time>
      </trkpt>
      <trkpt lat="45.27144" lon="5.28799">
        <ele>588.17</ele>
        <time>2017-02-25T16:20:21Z</time>
      </trkpt>
      <trkpt lat="45.27144" lon="5.28799">
        <ele>588.17</ele>
        <time>2017-02-25T16:20:22Z</time>
      </trkpt>
      <trkpt lat="45.27144" lon="5.28799">
        <ele>588.17</ele>
        <time>2017-02-25T16:20:23Z</time>
      </trkpt>
      <trkpt lat="45.27144" lon="5.28799">
        <ele>588.17</ele>
        <time>2017-02-25T16:20:24Z</time>
      </trkpt>
      <trkpt lat="45.27144" lon="5.28799">
        <ele>588.17</ele>
        <time>2017-02-25T16:20:25Z</time>
      </trkpt>
      <trkpt lat="45.27144" lon="5.28799">
        <ele>588.17</ele>
        <time>2017-02-25T16:20:26Z</time>
      </trkpt>
      <trkpt lat="45.27144" lon="5.28799">
        <ele>588.17</ele>
        <time>2017-02-25T16:20:27Z</time>
      </trkpt>
      <trkpt lat="45.27144" lon="5.28799">
        <ele>588.17</ele>
        <time>2017-02-25T16:20:28Z</time>
      </trkpt>
      <trkpt lat="45.27144" lon="5.28799">
        <ele>588.17</ele>
        <time>2017-02-25T16:20:29Z</time>
      </trkpt>
      <trkpt lat="45.27144" lon="5.28799">
        <ele>588.17</ele>
        <time>2017-02-25T16:20:30Z</time>
      </trkpt>
      <trkpt lat="45.27144" lon="5.28799">
        <ele>588.17</ele>
        <time>2017-02-25T16:20:31Z</time>
      </trkpt>
      <trkpt lat="45.27144" lon="5.28799">
        <ele>588.17</ele>
        <time>2017-02-25T16:20:32Z</time>
      </trkpt>
      <trkpt lat="45.27144" lon="5.28799">
        <ele>588.17</ele>
        <time>2017-02-25T16:20:33Z</time>
      </trkpt>
      <trkpt lat="45.27144" lon="5.28799">
        <ele>588.17</ele>
        <time>2017-02-25T16:20:34Z</time>
      </trkpt>
      <trkpt lat="45.27144" lon="5.28799">
        <ele>588.17</ele>
        <time>2017-02-25T16:20:35Z</time>
      </trkpt>
      <trkpt lat="45.27144" lon="5.28799">
        <ele>588.17</ele>
        <time>2017-02-25T16:20:36Z</time>
      </trkpt>
      <trkpt lat="45.27144" lon="5.28799">
        <ele>588.17</ele>
        <time>2017-02-25T16:20:37Z</time>
      </trkpt>
      <trkpt lat="45.27144" lon="5.28799">
        <ele>588.17</ele>
        <time>2017-02-25T16:20:38Z</time>
      </trkpt>
      <trkpt lat="45.27144" lon="5.28799">
        <ele>588.17</ele>
        <time>2017-02-25T16:20:39Z</time>
      </trkpt>
      <trkpt lat="45.27144" lon="5.28799">
        <ele>588.17</ele>
        <time>2017-02-25T16:20:40Z</time>
      </trkpt>
      <trkpt lat="45.27144" lon="5.28799">
        <ele>588.17</ele>
        <time>2017-02-25T16:20:41Z</time>
      </trkpt>
      <trkpt lat="45.27144" lon="5.28799">
        <ele>588.17</ele>
        <time>2017-02-25T16:20:42Z</time>
      </trkpt>
      <trkpt lat="45.27144" lon="5.28799">
        <ele>588.17</ele>
        <time>2017-02-25T16:20:43Z</time>
      </trkpt>
      <trkpt lat="45.27144" lon="5.28799">
        <ele>588.17</ele>
        <time>2017-02-25T16:20:44Z</time>
      </trkpt>
      <trkpt lat="45.27144" lon="5.28799">
        <ele>588.17</ele>
        <time>2017-02-25T16:20:45Z</time>
      </trkpt>
      <trkpt lat="45.27144" lon="5.28799">
        <ele>588.17</ele>
        <time>2017-02-25T16:20:46Z</time>
      </trkpt>
      <trkpt lat="45.27144" lon="5.28799">
        <ele>588.17</ele>
        <time>2017-02-25T16:20:47Z</time>
      </trkpt>
      <trkpt lat="45.27144" lon="5.28799">
        <ele>588.17</ele>
        <time>2017-02-25T16:20:48Z</time>
      </trkpt>
      <trkpt lat="45.27144" lon="5.28799">
        <ele>588.17</ele>
        <time>2017-02-25T16:20:49Z</time>
      </trkpt>
      <trkpt lat="45.27144" lon="5.28799">
        <ele>588.17</ele>
        <time>2017-02-25T16:20:50Z</time>
      </trkpt>
      <trkpt lat="45.27144" lon="5.28799">
        <ele>588.17</ele>
        <time>2017-02-25T16:20:51Z</time>
      </trkpt>
      <trkpt lat="45.27144" lon="5.28799">
        <ele>588.17</ele>
        <time>2017-02-25T16:20:52Z</time>
      </trkpt>
      <trkpt lat="45.27144" lon="5.28799">
        <ele>588.17</ele>
        <time>2017-02-25T16:20:53Z</time>
      </trkpt>
      <trkpt lat="45.27144" lon="5.28799">
        <ele>588.17</ele>
        <time>2017-02-25T16:20:54Z</time>
      </trkpt>
      <trkpt lat="45.27144" lon="5.28799">
        <ele>588.17</ele>
        <time>2017-02-25T16:20:55Z</time>
      </trkpt>
      <trkpt lat="45.27144" lon="5.28799">
        <ele>588.17</ele>
        <time>2017-02-25T16:20:56Z</time>
      </trkpt>
      <trkpt lat="45.27144" lon="5.28799">
        <ele>588.17</ele>
        <time>2017-02-25T16:20:57Z</time>
      </trkpt>
      <trkpt lat="45.27144" lon="5.28799">
        <ele>588.17</ele>
        <time>2017-02-25T16:20:58Z</time>
      </trkpt>
      <trkpt lat="45.27144" lon="5.28799">
        <ele>588.17</ele>
        <time>2017-02-25T16:20:59Z</time>
      </trkpt>
      <trkpt lat="45.27144" lon="5.28799">
        <ele>588.17</ele>
        <time>2017-02-25T16:21:00Z</time>
      </trkpt>
      <trkpt lat="45.27144" lon="5.28799">
        <ele>588.17</ele>
        <time>2017-02-25T16:21:01Z</time>
      </trkpt>
      <trkpt lat="45.27144" lon="5.28799">
        <ele>588.17</ele>
        <time>2017-02-25T16:21:02Z</time>
      </trkpt>
      <trkpt lat="45.27144" lon="5.28799">
        <ele>588.17</ele>
        <time>2017-02-25T16:21:03Z</time>
      </trkpt>
      <trkpt lat="45.27144" lon="5.28799">
        <ele>588.17</ele>
        <time>2017-02-25T16:21:04Z</time>
      </trkpt>
      <trkpt lat="45.27144" lon="5.28799">
        <ele>588.17</ele>
        <time>2017-02-25T16:21:05Z</time>
      </trkpt>
      <trkpt lat="45.27144" lon="5.28799">
        <ele>588.17</ele>
        <time>2017-02-25T16:21:06Z</time>
      </trkpt>
      <trkpt lat="45.27144" lon="5.28799">
        <ele>588.17</ele>
        <time>2017-02-25T16:21:07Z</time>
      </trkpt>
      <trkpt lat="45.27144" lon="5.28799">
        <ele>588.17</ele>
        <time>2017-02-25T16:21:08Z</time>
      </trkpt>
      <trkpt lat="45.27144" lon="5.28799">
        <ele>588.17</ele>
        <time>2017-02-25T16:21:09Z</time>
      </trkpt>
      <trkpt lat="45.27144" lon="5.28799">
        <ele>588.17</ele>
        <time>2017-02-25T16:21:10Z</time>
      </trkpt>
      <trkpt lat="45.27144" lon="5.28799">
        <ele>588.17</ele>
        <time>2017-02-25T16:21:11Z</time>
      </trkpt>
      <trkpt lat="45.27144" lon="5.28799">
        <ele>588.17</ele>
        <time>2017-02-25T16:21:12Z</time>
      </trkpt>
      <trkpt lat="45.27144" lon="5.28799">
        <ele>588.17</ele>
        <time>2017-02-25T16:21:13Z</time>
      </trkpt>
      <trkpt lat="45.27144" lon="5.28799">
        <ele>588.17</ele>
        <time>2017-02-25T16:21:14Z</time>
      </trkpt>
      <trkpt lat="45.27144" lon="5.28799">
        <ele>588.17</ele>
        <time>2017-02-25T16:21:15Z</time>
      </trkpt>
      <trkpt lat="45.27144" lon="5.28799">
        <ele>588.17</ele>
        <time>2017-02-25T16:21:16Z</time>
      </trkpt>
      <trkpt lat="45.27144" lon="5.28799">
        <ele>588.17</ele>
        <time>2017-02-25T16:21:17Z</time>
      </trkpt>
      <trkpt lat="45.27144" lon="5.28799">
        <ele>588.17</ele>
        <time>2017-02-25T16:21:18Z</time>
      </trkpt>
      <trkpt lat="45.27143" lon="5.28808">
        <ele>586.25</ele>
        <time>2017-02-25T16:21:19Z</time>
      </trkpt>
      <trkpt lat="45.27141" lon="5.28812">
        <ele>585.94</ele>
        <time>2017-02-25T16:21:20Z</time>
      </trkpt>
      <trkpt lat="45.27139" lon="5.28818">
        <ele>585.88</ele>
        <time>2017-02-25T16:21:21Z</time>
      </trkpt>
      <trkpt lat="45.27137" lon="5.28825">
        <ele>585.87</ele>
        <time>2017-02-25T16:21:22Z</time>
      </trkpt>
      <trkpt lat="45.27134" lon="5.28833">
        <ele>585.95</ele>
        <time>2017-02-25T16:21:23Z</time>
      </trkpt>
      <trkpt lat="45.27131" lon="5.28842">
        <ele>586.12</ele>
        <time>2017-02-25T16:21:24Z</time>
      </trkpt>
      <trkpt lat="45.27127" lon="5.28853">
        <ele>586.24</ele>
        <time>2017-02-25T16:21:25Z</time>
      </trkpt>
      <trkpt lat="45.27124" lon="5.28864">
        <ele>586.42</ele>
        <time>2017-02-25T16:21:26Z</time>
      </trkpt>
      <trkpt lat="45.2712" lon="5.28876">
        <ele>586.62</ele>
        <time>2017-02-25T16:21:27Z</time>
      </trkpt>
      <trkpt lat="45.27116" lon="5.28889">
        <ele>586.9</ele>
        <time>2017-02-25T16:21:28Z</time>
      </trkpt>
      <trkpt lat="45.27111" lon="5.28903">
        <ele>587.11</ele>
        <time>2017-02-25T16:21:29Z</time>
      </trkpt>
      <trkpt lat="45.27107" lon="5.28918">
        <ele>587.24</ele>
        <time>2017-02-25T16:21:30Z</time>
      </trkpt>
      <trkpt lat="45.27102" lon="5.28934">
        <ele>587.42</ele>
        <time>2017-02-25T16:21:31Z</time>
      </trkpt>
      <trkpt lat="45.27097" lon="5.28949">
        <ele>587.62</ele>
        <time>2017-02-25T16:21:32Z</time>
      </trkpt>
      <trkpt lat="45.27092" lon="5.28965">
        <ele>587.82</ele>
        <time>2017-02-25T16:21:33Z</time>
      </trkpt>
      <trkpt lat="45.27087" lon="5.28981">
        <ele>587.86</ele>
        <time>2017-02-25T16:21:34Z</time>
      </trkpt>
      <trkpt lat="45.27082" lon="5.28997">
        <ele>587.95</ele>
        <time>2017-02-25T16:21:35Z</time>
      </trkpt>
      <trkpt lat="45.27077" lon="5.29014">
        <ele>587.72</ele>
        <time>2017-02-25T16:21:36Z</time>
      </trkpt>
      <trkpt lat="45.27071" lon="5.29031">
        <ele>587.36</ele>
        <time>2017-02-25T16:21:37Z</time>
      </trkpt>
      <trkpt lat="45.27066" lon="5.29048">
        <ele>586.89</ele>
        <time>2017-02-25T16:21:38Z</time>
      </trkpt>
      <trkpt lat="45.27061" lon="5.29065">
        <ele>586.47</ele>
        <time>2017-02-25T16:21:39Z</time>
      </trkpt>
      <trkpt lat="45.27056" lon="5.29082">
        <ele>586.07</ele>
        <time>2017-02-25T16:21:40Z</time>
      </trkpt>
      <trkpt lat="45.27051" lon="5.29098">
        <ele>585.75</ele>
        <time>2017-02-25T16:21:41Z</time>
      </trkpt>
      <trkpt lat="45.27046" lon="5.29113">
        <ele>585.36</ele>
        <time>2017-02-25T16:21:42Z</time>
      </trkpt>
      <trkpt lat="45.27041" lon="5.29128">
        <ele>584.89</ele>
        <time>2017-02-25T16:21:43Z</time>
      </trkpt>
      <trkpt lat="45.27036" lon="5.29143">
        <ele>584.31</ele>
        <time>2017-02-25T16:21:44Z</time>
      </trkpt>
      <trkpt lat="45.27031" lon="5.29158">
        <ele>583.72</ele>
        <time>2017-02-25T16:21:45Z</time>
      </trkpt>
      <trkpt lat="45.27026" lon="5.29172">
        <ele>583.2</ele>
        <time>2017-02-25T16:21:46Z</time>
      </trkpt>
      <trkpt lat="45.27021" lon="5.29185">
        <ele>582.77</ele>
        <time>2017-02-25T16:21:47Z</time>
      </trkpt>
      <trkpt lat="45.27016" lon="5.29197">
        <ele>582.29</ele>
        <time>2017-02-25T16:21:48Z</time>
      </trkpt>
      <trkpt lat="45.2701" lon="5.29207">
        <ele>581.95</ele>
        <time>2017-02-25T16:21:49Z</time>
      </trkpt>
      <trkpt lat="45.27004" lon="5.29214">
        <ele>581.72</ele>
        <time>2017-02-25T16:21:50Z</time>
      </trkpt>
      <trkpt lat="45.26997" lon="5.29219">
        <ele>581.36</ele>
        <time>2017-02-25T16:21:51Z</time>
      </trkpt>
      <trkpt lat="45.26989" lon="5.29221">
        <ele>581.21</ele>
        <time>2017-02-25T16:21:52Z</time>
      </trkpt>
      <trkpt lat="45.26982" lon="5.29224">
        <ele>581.01</ele>
        <time>2017-02-25T16:21:53Z</time>
      </trkpt>
      <trkpt lat="45.26976" lon="5.29226">
        <ele>580.82</ele>
        <time>2017-02-25T16:21:54Z</time>
      </trkpt>
      <trkpt lat="45.26972" lon="5.29227">
        <ele>580.7</ele>
        <time>2017-02-25T16:21:55Z</time>
      </trkpt>
      <trkpt lat="45.26971" lon="5.2923">
        <ele>580.51</ele>
        <time>2017-02-25T16:21:56Z</time>
      </trkpt>
      <trkpt lat="45.2697" lon="5.29233">
        <ele>580.32</ele>
        <time>2017-02-25T16:21:57Z</time>
      </trkpt>
      <trkpt lat="45.26971" lon="5.29238">
        <ele>580.12</ele>
        <time>2017-02-25T16:21:58Z</time>
      </trkpt>
      <trkpt lat="45.26972" lon="5.29243">
        <ele>579.92</ele>
        <time>2017-02-25T16:21:59Z</time>
      </trkpt>
      <trkpt lat="45.26974" lon="5.29249">
        <ele>579.72</ele>
        <time>2017-02-25T16:22:00Z</time>
      </trkpt>
      <trkpt lat="45.26978" lon="5.29257">
        <ele>579.44</ele>
        <time>2017-02-25T16:22:01Z</time>
      </trkpt>
      <trkpt lat="45.26983" lon="5.29266">
        <ele>579.22</ele>
        <time>2017-02-25T16:22:02Z</time>
      </trkpt>
      <trkpt lat="45.26987" lon="5.29274">
        <ele>579.1</ele>
        <time>2017-02-25T16:22:03Z</time>
      </trkpt>
      <trkpt lat="45.26992" lon="5.29283">
        <ele>578.99</ele>
        <time>2017-02-25T16:22:04Z</time>
      </trkpt>
      <trkpt lat="45.26996" lon="5.29292">
        <ele>578.97</ele>
        <time>2017-02-25T16:22:05Z</time>
      </trkpt>
      <trkpt lat="45.27" lon="5.29303">
        <ele>578.81</ele>
        <time>2017-02-25T16:22:06Z</time>
      </trkpt>
      <trkpt lat="45.27005" lon="5.29314">
        <ele>578.46</ele>
        <time>2017-02-25T16:22:07Z</time>
      </trkpt>
      <trkpt lat="45.27011" lon="5.29326">
        <ele>578.3</ele>
        <time>2017-02-25T16:22:08Z</time>
      </trkpt>
      <trkpt lat="45.27018" lon="5.29337">
        <ele>578.19</ele>
        <time>2017-02-25T16:22:09Z</time>
      </trkpt>
      <trkpt lat="45.27024" lon="5.29347">
        <ele>577.93</ele>
        <time>2017-02-25T16:22:10Z</time>
      </trkpt>
      <trkpt lat="45.27029" lon="5.29358">
        <ele>577.88</ele>
        <time>2017-02-25T16:22:11Z</time>
      </trkpt>
      <trkpt lat="45.27034" lon="5.29368">
        <ele>578.03</ele>
        <time>2017-02-25T16:22:12Z</time>
      </trkpt>
      <trkpt lat="45.27039" lon="5.29377">
        <ele>578.14</ele>
        <time>2017-02-25T16:22:13Z</time>
      </trkpt>
      <trkpt lat="45.27043" lon="5.29386">
        <ele>578.32</ele>
        <time>2017-02-25T16:22:14Z</time>
      </trkpt>
      <trkpt lat="45.27046" lon="5.29392">
        <ele>578.6</ele>
        <time>2017-02-25T16:22:15Z</time>
      </trkpt>
      <trkpt lat="45.27049" lon="5.29398">
        <ele>578.97</ele>
        <time>2017-02-25T16:22:16Z</time>
      </trkpt>
      <trkpt lat="45.27051" lon="5.29402">
        <ele>579.37</ele>
        <time>2017-02-25T16:22:17Z</time>
      </trkpt>
      <trkpt lat="45.27054" lon="5.29404">
        <ele>579.53</ele>
        <time>2017-02-25T16:22:18Z</time>
      </trkpt>
      <trkpt lat="45.27055" lon="5.29404">
        <ele>579.48</ele>
        <time>2017-02-25T16:22:19Z</time>
      </trkpt>
      <trkpt lat="45.27056" lon="5.29403">
        <ele>579.63</ele>
        <time>2017-02-25T16:22:20Z</time>
      </trkpt>
      <trkpt lat="45.27055" lon="5.29403">
        <ele>579.82</ele>
        <time>2017-02-25T16:22:21Z</time>
      </trkpt>
      <trkpt lat="45.27055" lon="5.29403">
        <ele>580.42</ele>
        <time>2017-02-25T16:22:22Z</time>
      </trkpt>
      <trkpt lat="45.27055" lon="5.29403">
        <ele>580.54</ele>
        <time>2017-02-25T16:22:23Z</time>
      </trkpt>
      <trkpt lat="45.27055" lon="5.29403">
        <ele>580.56</ele>
        <time>2017-02-25T16:22:24Z</time>
      </trkpt>
      <trkpt lat="45.27055" lon="5.29403">
        <ele>580.57</ele>
        <time>2017-02-25T16:22:25Z</time>
      </trkpt>
      <trkpt lat="45.27055" lon="5.29403">
        <ele>580.57</ele>
        <time>2017-02-25T16:22:26Z</time>
      </trkpt>
      <trkpt lat="45.27055" lon="5.29403">
        <ele>580.57</ele>
        <time>2017-02-25T16:22:27Z</time>
      </trkpt>
      <trkpt lat="45.27053" lon="5.29397">
        <ele>581.53</ele>
        <time>2017-02-25T16:22:28Z</time>
      </trkpt>
      <trkpt lat="45.27051" lon="5.29391">
        <ele>581.8</ele>
        <time>2017-02-25T16:22:29Z</time>
      </trkpt>
      <trkpt lat="45.27047" lon="5.29385">
        <ele>581.85</ele>
        <time>2017-02-25T16:22:30Z</time>
      </trkpt>
      <trkpt lat="45.27043" lon="5.29377">
        <ele>581.78</ele>
        <time>2017-02-25T16:22:31Z</time>
      </trkpt>
      <trkpt lat="45.27038" lon="5.29368">
        <ele>581.69</ele>
        <time>2017-02-25T16:22:32Z</time>
      </trkpt>
      <trkpt lat="45.27033" lon="5.29359">
        <ele>581.67</ele>
        <time>2017-02-25T16:22:33Z</time>
      </trkpt>
      <trkpt lat="45.27027" lon="5.29349">
        <ele>581.75</ele>
        <time>2017-02-25T16:22:34Z</time>
      </trkpt>
      <trkpt lat="45.27022" lon="5.29338">
        <ele>581.68</ele>
        <time>2017-02-25T16:22:35Z</time>
      </trkpt>
      <trkpt lat="45.27016" lon="5.29328">
        <ele>581.59</ele>
        <time>2017-02-25T16:22:36Z</time>
      </trkpt>
      <trkpt lat="45.2701" lon="5.29317">
        <ele>581.57</ele>
        <time>2017-02-25T16:22:37Z</time>
      </trkpt>
      <trkpt lat="45.27005" lon="5.29307">
        <ele>581.41</ele>
        <time>2017-02-25T16:22:38Z</time>
      </trkpt>
      <trkpt lat="45.27" lon="5.29298">
        <ele>581.3</ele>
        <time>2017-02-25T16:22:39Z</time>
      </trkpt>
      <trkpt lat="45.26996" lon="5.29289">
        <ele>581.83</ele>
        <time>2017-02-25T16:22:40Z</time>
      </trkpt>
      <trkpt lat="45.26993" lon="5.29283">
        <ele>581.94</ele>
        <time>2017-02-25T16:22:41Z</time>
      </trkpt>
      <trkpt lat="45.26989" lon="5.2928">
        <ele>582.28</ele>
        <time>2017-02-25T16:22:42Z</time>
      </trkpt>
      <trkpt lat="45.26987" lon="5.29279">
        <ele>582.35</ele>
        <time>2017-02-25T16:22:43Z</time>
      </trkpt>
      <trkpt lat="45.26985" lon="5.29279">
        <ele>582.36</ele>
        <time>2017-02-25T16:22:44Z</time>
      </trkpt>
      <trkpt lat="45.26984" lon="5.29282">
        <ele>582.45</ele>
        <time>2017-02-25T16:22:45Z</time>
      </trkpt>
      <trkpt lat="45.26982" lon="5.29284">
        <ele>582.62</ele>
        <time>2017-02-25T16:22:46Z</time>
      </trkpt>
      <trkpt lat="45.2698" lon="5.29288">
        <ele>582.82</ele>
        <time>2017-02-25T16:22:47Z</time>
      </trkpt>
      <trkpt lat="45.26978" lon="5.29293">
        <ele>582.86</ele>
        <time>2017-02-25T16:22:48Z</time>
      </trkpt>
      <trkpt lat="45.26976" lon="5.29298">
        <ele>582.79</ele>
        <time>2017-02-25T16:22:49Z</time>
      </trkpt>
      <trkpt lat="45.26974" lon="5.29303">
        <ele>582.77</ele>
        <time>2017-02-25T16:22:50Z</time>
      </trkpt>
      <trkpt lat="45.26972" lon="5.29308">
        <ele>582.69</ele>
        <time>2017-02-25T16:22:51Z</time>
      </trkpt>
      <trkpt lat="45.26969" lon="5.29312">
        <ele>582.51</ele>
        <time>2017-02-25T16:22:52Z</time>
      </trkpt>
      <trkpt lat="45.26966" lon="5.29318">
        <ele>582.4</ele>
        <time>2017-02-25T16:22:53Z</time>
      </trkpt>
      <trkpt lat="45.26963" lon="5.29324">
        <ele>582.37</ele>
        <time>2017-02-25T16:22:54Z</time>
      </trkpt>
      <trkpt lat="45.26961" lon="5.29329">
        <ele>582.37</ele>
        <time>2017-02-25T16:22:55Z</time>
      </trkpt>
      <trkpt lat="45.26959" lon="5.29335">
        <ele>582.45</ele>
        <time>2017-02-25T16:22:56Z</time>
      </trkpt>
      <trkpt lat="45.26958" lon="5.2934">
        <ele>582.38</ele>
        <time>2017-02-25T16:22:57Z</time>
      </trkpt>
      <trkpt lat="45.26956" lon="5.29346">
        <ele>582.29</ele>
        <time>2017-02-25T16:22:58Z</time>
      </trkpt>
      <trkpt lat="45.26955" lon="5.29352">
        <ele>582.11</ele>
        <time>2017-02-25T16:22:59Z</time>
      </trkpt>
      <trkpt lat="45.26954" lon="5.29359">
        <ele>582</ele>
        <time>2017-02-25T16:23:00Z</time>
      </trkpt>
      <trkpt lat="45.26953" lon="5.29364">
        <ele>581.97</ele>
        <time>2017-02-25T16:23:01Z</time>
      </trkpt>
      <trkpt lat="45.26952" lon="5.29369">
        <ele>581.97</ele>
        <time>2017-02-25T16:23:02Z</time>
      </trkpt>
      <trkpt lat="45.26952" lon="5.29373">
        <ele>581.97</ele>
        <time>2017-02-25T16:23:03Z</time>
      </trkpt>
      <trkpt lat="45.26951" lon="5.29378">
        <ele>581.97</ele>
        <time>2017-02-25T16:23:04Z</time>
      </trkpt>
      <trkpt lat="45.26951" lon="5.29383">
        <ele>582.13</ele>
        <time>2017-02-25T16:23:05Z</time>
      </trkpt>
      <trkpt lat="45.26951" lon="5.29387">
        <ele>582.16</ele>
        <time>2017-02-25T16:23:06Z</time>
      </trkpt>
      <trkpt lat="45.26951" lon="5.2939">
        <ele>582.17</ele>
        <time>2017-02-25T16:23:07Z</time>
      </trkpt>
      <trkpt lat="45.2695" lon="5.29393">
        <ele>582.17</ele>
        <time>2017-02-25T16:23:08Z</time>
      </trkpt>
      <trkpt lat="45.2695" lon="5.29395">
        <ele>582.09</ele>
        <time>2017-02-25T16:23:09Z</time>
      </trkpt>
      <trkpt lat="45.26949" lon="5.29399">
        <ele>582.07</ele>
        <time>2017-02-25T16:23:10Z</time>
      </trkpt>
      <trkpt lat="45.26949" lon="5.29402">
        <ele>581.99</ele>
        <time>2017-02-25T16:23:11Z</time>
      </trkpt>
      <trkpt lat="45.26948" lon="5.29405">
        <ele>582.05</ele>
        <time>2017-02-25T16:23:12Z</time>
      </trkpt>
      <trkpt lat="45.26948" lon="5.29408">
        <ele>582.14</ele>
        <time>2017-02-25T16:23:13Z</time>
      </trkpt>
      <trkpt lat="45.26947" lon="5.29411">
        <ele>582.24</ele>
        <time>2017-02-25T16:23:14Z</time>
      </trkpt>
      <trkpt lat="45.26947" lon="5.29415">
        <ele>582.26</ele>
        <time>2017-02-25T16:23:15Z</time>
      </trkpt>
      <trkpt lat="45.26947" lon="5.29418">
        <ele>582.43</ele>
        <time>2017-02-25T16:23:16Z</time>
      </trkpt>
      <trkpt lat="45.26946" lon="5.29421">
        <ele>582.38</ele>
        <time>2017-02-25T16:23:17Z</time>
      </trkpt>
      <trkpt lat="45.26946" lon="5.29424">
        <ele>582.29</ele>
        <time>2017-02-25T16:23:18Z</time>
      </trkpt>
      <trkpt lat="45.26945" lon="5.29426">
        <ele>582.19</ele>
        <time>2017-02-25T16:23:19Z</time>
      </trkpt>
      <trkpt lat="45.26944" lon="5.29428">
        <ele>582.09</ele>
        <time>2017-02-25T16:23:20Z</time>
      </trkpt>
      <trkpt lat="45.26944" lon="5.29431">
        <ele>582.07</ele>
        <time>2017-02-25T16:23:21Z</time>
      </trkpt>
      <trkpt lat="45.26942" lon="5.29435">
        <ele>581.99</ele>
        <time>2017-02-25T16:23:22Z</time>
      </trkpt>
      <trkpt lat="45.26941" lon="5.2944">
        <ele>581.97</ele>
        <time>2017-02-25T16:23:23Z</time>
      </trkpt>
      <trkpt lat="45.26939" lon="5.29446">
        <ele>581.97</ele>
        <time>2017-02-25T16:23:24Z</time>
      </trkpt>
      <trkpt lat="45.26938" lon="5.29452">
        <ele>581.97</ele>
        <time>2017-02-25T16:23:25Z</time>
      </trkpt>
      <trkpt lat="45.26937" lon="5.29456">
        <ele>582.05</ele>
        <time>2017-02-25T16:23:26Z</time>
      </trkpt>
      <trkpt lat="45.26936" lon="5.29459">
        <ele>582.14</ele>
        <time>2017-02-25T16:23:27Z</time>
      </trkpt>
      <trkpt lat="45.26935" lon="5.29463">
        <ele>582.24</ele>
        <time>2017-02-25T16:23:28Z</time>
      </trkpt>
      <trkpt lat="45.26935" lon="5.29465">
        <ele>582.34</ele>
        <time>2017-02-25T16:23:29Z</time>
      </trkpt>
      <trkpt lat="45.26935" lon="5.29467">
        <ele>582.36</ele>
        <time>2017-02-25T16:23:30Z</time>
      </trkpt>
      <trkpt lat="45.26936" lon="5.29467">
        <ele>582.37</ele>
        <time>2017-02-25T16:23:31Z</time>
      </trkpt>
      <trkpt lat="45.26935" lon="5.29471">
        <ele>582.37</ele>
        <time>2017-02-25T16:23:32Z</time>
      </trkpt>
      <trkpt lat="45.26935" lon="5.29471">
        <ele>582.45</ele>
        <time>2017-02-25T16:23:33Z</time>
      </trkpt>
      <trkpt lat="45.26935" lon="5.29471">
        <ele>582.46</ele>
        <time>2017-02-25T16:23:34Z</time>
      </trkpt>
      <trkpt lat="45.26935" lon="5.29471">
        <ele>582.47</ele>
        <time>2017-02-25T16:23:35Z</time>
      </trkpt>
      <trkpt lat="45.26935" lon="5.29471">
        <ele>582.47</ele>
        <time>2017-02-25T16:23:36Z</time>
      </trkpt>
      <trkpt lat="45.26935" lon="5.29471">
        <ele>582.47</ele>
        <time>2017-02-25T16:23:37Z</time>
      </trkpt>
      <trkpt lat="45.26935" lon="5.29471">
        <ele>582.47</ele>
        <time>2017-02-25T16:23:38Z</time>
      </trkpt>
      <trkpt lat="45.26935" lon="5.29471">
        <ele>582.47</ele>
        <time>2017-02-25T16:23:39Z</time>
      </trkpt>
      <trkpt lat="45.26936" lon="5.29471">
        <ele>583.19</ele>
        <time>2017-02-25T16:23:40Z</time>
      </trkpt>
      <trkpt lat="45.26937" lon="5.29468">
        <ele>583.57</ele>
        <time>2017-02-25T16:23:41Z</time>
      </trkpt>
      <trkpt lat="45.26939" lon="5.29461">
        <ele>583.81</ele>
        <time>2017-02-25T16:23:42Z</time>
      </trkpt>
      <trkpt lat="45.26941" lon="5.29455">
        <ele>584.58</ele>
        <time>2017-02-25T16:23:43Z</time>
      </trkpt>
      <trkpt lat="45.26942" lon="5.29447">
        <ele>585.13</ele>
        <time>2017-02-25T16:23:44Z</time>
      </trkpt>
      <trkpt lat="45.26944" lon="5.29439">
        <ele>585.4</ele>
        <time>2017-02-25T16:23:45Z</time>
      </trkpt>
      <trkpt lat="45.26945" lon="5.29431">
        <ele>585.45</ele>
        <time>2017-02-25T16:23:46Z</time>
      </trkpt>
      <trkpt lat="45.26946" lon="5.29422">
        <ele>585.46</ele>
        <time>2017-02-25T16:23:47Z</time>
      </trkpt>
      <trkpt lat="45.26946" lon="5.29414">
        <ele>585.63</ele>
        <time>2017-02-25T16:23:48Z</time>
      </trkpt>
      <trkpt lat="45.26947" lon="5.29405">
        <ele>585.58</ele>
        <time>2017-02-25T16:23:49Z</time>
      </trkpt>
      <trkpt lat="45.26948" lon="5.29396">
        <ele>585.57</ele>
        <time>2017-02-25T16:23:50Z</time>
      </trkpt>
      <trkpt lat="45.26948" lon="5.29388">
        <ele>585.65</ele>
        <time>2017-02-25T16:23:51Z</time>
      </trkpt>
      <trkpt lat="45.26948" lon="5.29379">
        <ele>585.98</ele>
        <time>2017-02-25T16:23:52Z</time>
      </trkpt>
      <trkpt lat="45.26949" lon="5.29371">
        <ele>586.13</ele>
        <time>2017-02-25T16:23:53Z</time>
      </trkpt>
      <trkpt lat="45.2695" lon="5.29363">
        <ele>586.56</ele>
        <time>2017-02-25T16:23:54Z</time>
      </trkpt>
      <trkpt lat="45.26951" lon="5.29355">
        <ele>586.73</ele>
        <time>2017-02-25T16:23:55Z</time>
      </trkpt>
      <trkpt lat="45.26952" lon="5.29348">
        <ele>586.92</ele>
        <time>2017-02-25T16:23:56Z</time>
      </trkpt>
      <trkpt lat="45.26954" lon="5.29341">
        <ele>586.96</ele>
        <time>2017-02-25T16:23:57Z</time>
      </trkpt>
      <trkpt lat="45.26956" lon="5.29334">
        <ele>586.97</ele>
        <time>2017-02-25T16:23:58Z</time>
      </trkpt>
      <trkpt lat="45.26958" lon="5.29328">
        <ele>587.05</ele>
        <time>2017-02-25T16:23:59Z</time>
      </trkpt>
      <trkpt lat="45.26961" lon="5.29324">
        <ele>586.82</ele>
        <time>2017-02-25T16:24:00Z</time>
      </trkpt>
      <trkpt lat="45.26963" lon="5.2932">
        <ele>586.62</ele>
        <time>2017-02-25T16:24:01Z</time>
      </trkpt>
      <trkpt lat="45.26966" lon="5.29315">
        <ele>586.5</ele>
        <time>2017-02-25T16:24:02Z</time>
      </trkpt>
      <trkpt lat="45.26969" lon="5.29311">
        <ele>586.39</ele>
        <time>2017-02-25T16:24:03Z</time>
      </trkpt>
      <trkpt lat="45.26972" lon="5.29307">
        <ele>586.13</ele>
        <time>2017-02-25T16:24:04Z</time>
      </trkpt>
      <trkpt lat="45.26975" lon="5.29303">
        <ele>585.92</ele>
        <time>2017-02-25T16:24:05Z</time>
      </trkpt>
      <trkpt lat="45.26977" lon="5.29298">
        <ele>585.8</ele>
        <time>2017-02-25T16:24:06Z</time>
      </trkpt>
      <trkpt lat="45.26979" lon="5.29294">
        <ele>585.69</ele>
        <time>2017-02-25T16:24:07Z</time>
      </trkpt>
      <trkpt lat="45.26981" lon="5.29291">
        <ele>585.67</ele>
        <time>2017-02-25T16:24:08Z</time>
      </trkpt>
      <trkpt lat="45.26983" lon="5.29287">
        <ele>585.59</ele>
        <time>2017-02-25T16:24:09Z</time>
      </trkpt>
      <trkpt lat="45.26985" lon="5.29285">
        <ele>585.81</ele>
        <time>2017-02-25T16:24:10Z</time>
      </trkpt>
      <trkpt lat="45.26986" lon="5.29283">
        <ele>585.86</ele>
        <time>2017-02-25T16:24:11Z</time>
      </trkpt>
      <trkpt lat="45.26988" lon="5.29282">
        <ele>586.02</ele>
        <time>2017-02-25T16:24:12Z</time>
      </trkpt>
      <trkpt lat="45.26989" lon="5.2928">
        <ele>585.82</ele>
        <time>2017-02-25T16:24:13Z</time>
      </trkpt>
      <trkpt lat="45.26991" lon="5.2928">
        <ele>585.54</ele>
        <time>2017-02-25T16:24:14Z</time>
      </trkpt>
      <trkpt lat="45.26993" lon="5.29281">
        <ele>585.4</ele>
        <time>2017-02-25T16:24:15Z</time>
      </trkpt>
      <trkpt lat="45.26995" lon="5.29285">
        <ele>585.13</ele>
        <time>2017-02-25T16:24:16Z</time>
      </trkpt>
      <trkpt lat="45.26997" lon="5.29289">
        <ele>585.08</ele>
        <time>2017-02-25T16:24:17Z</time>
      </trkpt>
      <trkpt lat="45.27" lon="5.29295">
        <ele>584.91</ele>
        <time>2017-02-25T16:24:18Z</time>
      </trkpt>
      <trkpt lat="45.27003" lon="5.29302">
        <ele>584.72</ele>
        <time>2017-02-25T16:24:19Z</time>
      </trkpt>
      <trkpt lat="45.27006" lon="5.29309">
        <ele>584.44</ele>
        <time>2017-02-25T16:24:20Z</time>
      </trkpt>
      <trkpt lat="45.27008" lon="5.29315">
        <ele>584.14</ele>
        <time>2017-02-25T16:24:21Z</time>
      </trkpt>
      <trkpt lat="45.27011" lon="5.29321">
        <ele>583.84</ele>
        <time>2017-02-25T16:24:22Z</time>
      </trkpt>
      <trkpt lat="45.27013" lon="5.29326">
        <ele>583.62</ele>
        <time>2017-02-25T16:24:23Z</time>
      </trkpt>
      <trkpt lat="45.27015" lon="5.2933">
        <ele>583.5</ele>
        <time>2017-02-25T16:24:24Z</time>
      </trkpt>
      <trkpt lat="45.27017" lon="5.29334">
        <ele>583.31</ele>
        <time>2017-02-25T16:24:25Z</time>
      </trkpt>
      <trkpt lat="45.27019" lon="5.29338">
        <ele>583.2</ele>
        <time>2017-02-25T16:24:26Z</time>
      </trkpt>
      <trkpt lat="45.27021" lon="5.29343">
        <ele>583.09</ele>
        <time>2017-02-25T16:24:27Z</time>
      </trkpt>
      <trkpt lat="45.27024" lon="5.29347">
        <ele>583.07</ele>
        <time>2017-02-25T16:24:28Z</time>
      </trkpt>
      <trkpt lat="45.27026" lon="5.29351">
        <ele>583.31</ele>
        <time>2017-02-25T16:24:29Z</time>
      </trkpt>
      <trkpt lat="45.27028" lon="5.29354">
        <ele>583.28</ele>
        <time>2017-02-25T16:24:30Z</time>
      </trkpt>
      <trkpt lat="45.27029" lon="5.29356">
        <ele>583.43</ele>
        <time>2017-02-25T16:24:31Z</time>
      </trkpt>
      <trkpt lat="45.27029" lon="5.29358">
        <ele>583.38</ele>
        <time>2017-02-25T16:24:32Z</time>
      </trkpt>
      <trkpt lat="45.27029" lon="5.29358">
        <ele>583.37</ele>
        <time>2017-02-25T16:24:33Z</time>
      </trkpt>
      <trkpt lat="45.27029" lon="5.29358">
        <ele>583.53</ele>
        <time>2017-02-25T16:24:34Z</time>
      </trkpt>
      <trkpt lat="45.27029" lon="5.29358">
        <ele>583.56</ele>
        <time>2017-02-25T16:24:35Z</time>
      </trkpt>
      <trkpt lat="45.27029" lon="5.29358">
        <ele>583.57</ele>
        <time>2017-02-25T16:24:36Z</time>
      </trkpt>
      <trkpt lat="45.27029" lon="5.29358">
        <ele>583.57</ele>
        <time>2017-02-25T16:24:37Z</time>
      </trkpt>
      <trkpt lat="45.27029" lon="5.29358">
        <ele>583.57</ele>
        <time>2017-02-25T16:24:38Z</time>
      </trkpt>
      <trkpt lat="45.27029" lon="5.29358">
        <ele>583.57</ele>
        <time>2017-02-25T16:24:39Z</time>
      </trkpt>
      <trkpt lat="45.27029" lon="5.29358">
        <ele>583.57</ele>
        <time>2017-02-25T16:24:40Z</time>
      </trkpt>
      <trkpt lat="45.27029" lon="5.29358">
        <ele>583.57</ele>
        <time>2017-02-25T16:24:41Z</time>
      </trkpt>
      <trkpt lat="45.27029" lon="5.29358">
        <ele>583.57</ele>
        <time>2017-02-25T16:24:42Z</time>
      </trkpt>
      <trkpt lat="45.27029" lon="5.29358">
        <ele>583.57</ele>
        <time>2017-02-25T16:24:43Z</time>
      </trkpt>
      <trkpt lat="45.27029" lon="5.29358">
        <ele>583.57</ele>
        <time>2017-02-25T16:24:44Z</time>
      </trkpt>
      <trkpt lat="45.27029" lon="5.29358">
        <ele>583.57</ele>
        <time>2017-02-25T16:24:45Z</time>
      </trkpt>
      <trkpt lat="45.27029" lon="5.29358">
        <ele>583.57</ele>
        <time>2017-02-25T16:24:46Z</time>
      </trkpt>
      <trkpt lat="45.27029" lon="5.29358">
        <ele>583.57</ele>
        <time>2017-02-25T16:24:47Z</time>
      </trkpt>
      <trkpt lat="45.27029" lon="5.29358">
        <ele>583.57</ele>
        <time>2017-02-25T16:24:48Z</time>
      </trkpt>
      <trkpt lat="45.27029" lon="5.29358">
        <ele>583.57</ele>
        <time>2017-02-25T16:24:49Z</time>
      </trkpt>
      <trkpt lat="45.27029" lon="5.29358">
        <ele>583.57</ele>
        <time>2017-02-25T16:24:50Z</time>
      </trkpt>
      <trkpt lat="45.27029" lon="5.29358">
        <ele>583.57</ele>
        <time>2017-02-25T16:24:51Z</time>
      </trkpt>
      <trkpt lat="45.27029" lon="5.29358">
        <ele>583.57</ele>
        <time>2017-02-25T16:24:52Z</time>
      </trkpt>
      <trkpt lat="45.27029" lon="5.29358">
        <ele>583.57</ele>
        <time>2017-02-25T16:24:53Z</time>
      </trkpt>
      <trkpt lat="45.27029" lon="5.29358">
        <ele>583.57</ele>
        <time>2017-02-25T16:24:54Z</time>
      </trkpt>
      <trkpt lat="45.27029" lon="5.29358">
        <ele>583.57</ele>
        <time>2017-02-25T16:24:55Z</time>
      </trkpt>
      <trkpt lat="45.27029" lon="5.29358">
        <ele>583.57</ele>
        <time>2017-02-25T16:24:56Z</time>
      </trkpt>
      <trkpt lat="45.27029" lon="5.29358">
        <ele>583.57</ele>
        <time>2017-02-25T16:24:57Z</time>
      </trkpt>
      <trkpt lat="45.27029" lon="5.29358">
        <ele>583.57</ele>
        <time>2017-02-25T16:24:58Z</time>
      </trkpt>
      <trkpt lat="45.27029" lon="5.29358">
        <ele>583.57</ele>
        <time>2017-02-25T16:24:59Z</time>
      </trkpt>
      <trkpt lat="45.27029" lon="5.29358">
        <ele>583.57</ele>
        <time>2017-02-25T16:25:00Z</time>
      </trkpt>
      <trkpt lat="45.27029" lon="5.29358">
        <ele>583.57</ele>
        <time>2017-02-25T16:25:01Z</time>
      </trkpt>
      <trkpt lat="45.27029" lon="5.29358">
        <ele>583.57</ele>
        <time>2017-02-25T16:25:02Z</time>
      </trkpt>
      <trkpt lat="45.27029" lon="5.29358">
        <ele>583.57</ele>
        <time>2017-02-25T16:25:03Z</time>
      </trkpt>
      <trkpt lat="45.27029" lon="5.29358">
        <ele>583.57</ele>
        <time>2017-02-25T16:25:04Z</time>
      </trkpt>
      <trkpt lat="45.27029" lon="5.29358">
        <ele>583.57</ele>
        <time>2017-02-25T16:25:05Z</time>
      </trkpt>
      <trkpt lat="45.27029" lon="5.29358">
        <ele>583.57</ele>
        <time>2017-02-25T16:25:06Z</time>
      </trkpt>
      <trkpt lat="45.27029" lon="5.29358">
        <ele>583.57</ele>
        <time>2017-02-25T16:25:07Z</time>
      </trkpt>
      <trkpt lat="45.27029" lon="5.29358">
        <ele>583.57</ele>
        <time>2017-02-25T16:25:08Z</time>
      </trkpt>
      <trkpt lat="45.27029" lon="5.29358">
        <ele>583.57</ele>
        <time>2017-02-25T16:25:09Z</time>
      </trkpt>
      <trkpt lat="45.27029" lon="5.29358">
        <ele>583.57</ele>
        <time>2017-02-25T16:25:10Z</time>
      </trkpt>
      <trkpt lat="45.27029" lon="5.29358">
        <ele>583.57</ele>
        <time>2017-02-25T16:25:11Z</time>
      </trkpt>
      <trkpt lat="45.27029" lon="5.29358">
        <ele>583.57</ele>
        <time>2017-02-25T16:25:12Z</time>
      </trkpt>
      <trkpt lat="45.27029" lon="5.29358">
        <ele>583.57</ele>
        <time>2017-02-25T16:25:13Z</time>
      </trkpt>
      <trkpt lat="45.27029" lon="5.29358">
        <ele>583.57</ele>
        <time>2017-02-25T16:25:14Z</time>
      </trkpt>
      <trkpt lat="45.27029" lon="5.29358">
        <ele>583.57</ele>
        <time>2017-02-25T16:25:15Z</time>
      </trkpt>
      <trkpt lat="45.27029" lon="5.29358">
        <ele>583.57</ele>
        <time>2017-02-25T16:25:16Z</time>
      </trkpt>
      <trkpt lat="45.27029" lon="5.29358">
        <ele>583.57</ele>
        <time>2017-02-25T16:25:17Z</time>
      </trkpt>
      <trkpt lat="45.27029" lon="5.29358">
        <ele>583.57</ele>
        <time>2017-02-25T16:25:18Z</time>
      </trkpt>
      <trkpt lat="45.27029" lon="5.29358">
        <ele>583.57</ele>
        <time>2017-02-25T16:25:19Z</time>
      </trkpt>
      <trkpt lat="45.27029" lon="5.29358">
        <ele>583.57</ele>
        <time>2017-02-25T16:25:20Z</time>
      </trkpt>
      <trkpt lat="45.27029" lon="5.29358">
        <ele>583.57</ele>
        <time>2017-02-25T16:25:21Z</time>
      </trkpt>
      <trkpt lat="45.27029" lon="5.29358">
        <ele>583.57</ele>
        <time>2017-02-25T16:25:22Z</time>
      </trkpt>
      <trkpt lat="45.27029" lon="5.29358">
        <ele>583.57</ele>
        <time>2017-02-25T16:25:23Z</time>
      </trkpt>
      <trkpt lat="45.27029" lon="5.29358">
        <ele>583.57</ele>
        <time>2017-02-25T16:25:24Z</time>
      </trkpt>
      <trkpt lat="45.27029" lon="5.29358">
        <ele>583.57</ele>
        <time>2017-02-25T16:25:25Z</time>
      </trkpt>
      <trkpt lat="45.27029" lon="5.29358">
        <ele>583.57</ele>
        <time>2017-02-25T16:25:26Z</time>
      </trkpt>
      <trkpt lat="45.27029" lon="5.29358">
        <ele>583.57</ele>
        <time>2017-02-25T16:25:27Z</time>
      </trkpt>
      <trkpt lat="45.27029" lon="5.29358">
        <ele>583.57</ele>
        <time>2017-02-25T16:25:28Z</time>
      </trkpt>
      <trkpt lat="45.27029" lon="5.29358">
        <ele>583.57</ele>
        <time>2017-02-25T16:25:29Z</time>
      </trkpt>
      <trkpt lat="45.27029" lon="5.29358">
        <ele>583.57</ele>
        <time>2017-02-25T16:25:30Z</time>
      </trkpt>
      <trkpt lat="45.27029" lon="5.29358">
        <ele>583.57</ele>
        <time>2017-02-25T16:25:31Z</time>
      </trkpt>
      <trkpt lat="45.27029" lon="5.29358">
        <ele>583.57</ele>
        <time>2017-02-25T16:25:32Z</time>
      </trkpt>
      <trkpt lat="45.27029" lon="5.29358">
        <ele>583.57</ele>
        <time>2017-02-25T16:25:33Z</time>
      </trkpt>
      <trkpt lat="45.27029" lon="5.29358">
        <ele>583.57</ele>
        <time>2017-02-25T16:25:34Z</time>
      </trkpt>
      <trkpt lat="45.27029" lon="5.29358">
        <ele>583.57</ele>
        <time>2017-02-25T16:25:35Z</time>
      </trkpt>
      <trkpt lat="45.27029" lon="5.29358">
        <ele>583.57</ele>
        <time>2017-02-25T16:25:36Z</time>
      </trkpt>
      <trkpt lat="45.27029" lon="5.29358">
        <ele>583.57</ele>
        <time>2017-02-25T16:25:37Z</time>
      </trkpt>
      <trkpt lat="45.27029" lon="5.29358">
        <ele>583.57</ele>
        <time>2017-02-25T16:25:38Z</time>
      </trkpt>
      <trkpt lat="45.27029" lon="5.29358">
        <ele>583.57</ele>
        <time>2017-02-25T16:25:39Z</time>
      </trkpt>
      <trkpt lat="45.27029" lon="5.29358">
        <ele>583.57</ele>
        <time>2017-02-25T16:25:40Z</time>
      </trkpt>
      <trkpt lat="45.27029" lon="5.29358">
        <ele>583.57</ele>
        <time>2017-02-25T16:25:41Z</time>
      </trkpt>
      <trkpt lat="45.27029" lon="5.29358">
        <ele>583.57</ele>
        <time>2017-02-25T16:25:42Z</time>
      </trkpt>
      <trkpt lat="45.27029" lon="5.29358">
        <ele>583.57</ele>
        <time>2017-02-25T16:25:43Z</time>
      </trkpt>
      <trkpt lat="45.27029" lon="5.29358">
        <ele>583.57</ele>
        <time>2017-02-25T16:25:44Z</time>
      </trkpt>
      <trkpt lat="45.27029" lon="5.29358">
        <ele>583.57</ele>
        <time>2017-02-25T16:25:45Z</time>
      </trkpt>
      <trkpt lat="45.27029" lon="5.29358">
        <ele>583.57</ele>
        <time>2017-02-25T16:25:46Z</time>
      </trkpt>
      <trkpt lat="45.27029" lon="5.29358">
        <ele>583.57</ele>
        <time>2017-02-25T16:25:47Z</time>
      </trkpt>
      <trkpt lat="45.27029" lon="5.29358">
        <ele>583.57</ele>
        <time>2017-02-25T16:25:48Z</time>
      </trkpt>
      <trkpt lat="45.27029" lon="5.29358">
        <ele>583.57</ele>
        <time>2017-02-25T16:25:49Z</time>
      </trkpt>
      <trkpt lat="45.27029" lon="5.29358">
        <ele>583.57</ele>
        <time>2017-02-25T16:25:50Z</time>
      </trkpt>
      <trkpt lat="45.27029" lon="5.29358">
        <ele>583.57</ele>
        <time>2017-02-25T16:25:51Z</time>
      </trkpt>
      <trkpt lat="45.27029" lon="5.29358">
        <ele>583.57</ele>
        <time>2017-02-25T16:25:52Z</time>
      </trkpt>
      <trkpt lat="45.27029" lon="5.29358">
        <ele>583.57</ele>
        <time>2017-02-25T16:25:53Z</time>
      </trkpt>
      <trkpt lat="45.27029" lon="5.29358">
        <ele>583.57</ele>
        <time>2017-02-25T16:25:54Z</time>
      </trkpt>
      <trkpt lat="45.27029" lon="5.29358">
        <ele>583.57</ele>
        <time>2017-02-25T16:25:55Z</time>
      </trkpt>
      <trkpt lat="45.27029" lon="5.29358">
        <ele>583.57</ele>
        <time>2017-02-25T16:25:56Z</time>
      </trkpt>
      <trkpt lat="45.27029" lon="5.29358">
        <ele>583.57</ele>
        <time>2017-02-25T16:25:57Z</time>
      </trkpt>
      <trkpt lat="45.27029" lon="5.29358">
        <ele>583.57</ele>
        <time>2017-02-25T16:25:58Z</time>
      </trkpt>
      <trkpt lat="45.27029" lon="5.29358">
        <ele>583.57</ele>
        <time>2017-02-25T16:25:59Z</time>
      </trkpt>
      <trkpt lat="45.27029" lon="5.29358">
        <ele>583.57</ele>
        <time>2017-02-25T16:26:00Z</time>
      </trkpt>
      <trkpt lat="45.27029" lon="5.29358">
        <ele>583.57</ele>
        <time>2017-02-25T16:26:01Z</time>
      </trkpt>
      <trkpt lat="45.27029" lon="5.29358">
        <ele>583.57</ele>
        <time>2017-02-25T16:26:02Z</time>
      </trkpt>
      <trkpt lat="45.27029" lon="5.29358">
        <ele>583.57</ele>
        <time>2017-02-25T16:26:03Z</time>
      </trkpt>
      <trkpt lat="45.27029" lon="5.29358">
        <ele>583.57</ele>
        <time>2017-02-25T16:26:04Z</time>
      </trkpt>
      <trkpt lat="45.27029" lon="5.29358">
        <ele>583.57</ele>
        <time>2017-02-25T16:26:05Z</time>
      </trkpt>
      <trkpt lat="45.27029" lon="5.29358">
        <ele>583.57</ele>
        <time>2017-02-25T16:26:06Z</time>
      </trkpt>
      <trkpt lat="45.27029" lon="5.29358">
        <ele>583.57</ele>
        <time>2017-02-25T16:26:07Z</time>
      </trkpt>
      <trkpt lat="45.27029" lon="5.29358">
        <ele>583.57</ele>
        <time>2017-02-25T16:26:08Z</time>
      </trkpt>
      <trkpt lat="45.27029" lon="5.29358">
        <ele>583.57</ele>
        <time>2017-02-25T16:26:09Z</time>
      </trkpt>
      <trkpt lat="45.27029" lon="5.29358">
        <ele>583.57</ele>
        <time>2017-02-25T16:26:10Z</time>
      </trkpt>
      <trkpt lat="45.27029" lon="5.29358">
        <ele>583.57</ele>
        <time>2017-02-25T16:26:11Z</time>
      </trkpt>
      <trkpt lat="45.27029" lon="5.29358">
        <ele>583.57</ele>
        <time>2017-02-25T16:26:12Z</time>
      </trkpt>
      <trkpt lat="45.27029" lon="5.29358">
        <ele>583.57</ele>
        <time>2017-02-25T16:26:13Z</time>
      </trkpt>
      <trkpt lat="45.27029" lon="5.29358">
        <ele>583.57</ele>
        <time>2017-02-25T16:26:14Z</time>
      </trkpt>
      <trkpt lat="45.27029" lon="5.29358">
        <ele>583.57</ele>
        <time>2017-02-25T16:26:15Z</time>
      </trkpt>
      <trkpt lat="45.27029" lon="5.29358">
        <ele>583.57</ele>
        <time>2017-02-25T16:26:16Z</time>
      </trkpt>
      <trkpt lat="45.27029" lon="5.29358">
        <ele>583.57</ele>
        <time>2017-02-25T16:26:17Z</time>
      </trkpt>
      <trkpt lat="45.27029" lon="5.29358">
        <ele>583.57</ele>
        <time>2017-02-25T16:26:18Z</time>
      </trkpt>
      <trkpt lat="45.27029" lon="5.29358">
        <ele>583.57</ele>
        <time>2017-02-25T16:26:19Z</time>
      </trkpt>
      <trkpt lat="45.27029" lon="5.29358">
        <ele>583.57</ele>
        <time>2017-02-25T16:26:20Z</time>
      </trkpt>
      <trkpt lat="45.27029" lon="5.29358">
        <ele>583.57</ele>
        <time>2017-02-25T16:26:21Z</time>
      </trkpt>
      <trkpt lat="45.27029" lon="5.29358">
        <ele>583.57</ele>
        <time>2017-02-25T16:26:22Z</time>
      </trkpt>
      <trkpt lat="45.27029" lon="5.29358">
        <ele>583.57</ele>
        <time>2017-02-25T16:26:23Z</time>
      </trkpt>
      <trkpt lat="45.27029" lon="5.29358">
        <ele>583.57</ele>
        <time>2017-02-25T16:26:24Z</time>
      </trkpt>
      <trkpt lat="45.27029" lon="5.29358">
        <ele>583.57</ele>
        <time>2017-02-25T16:26:25Z</time>
      </trkpt>
      <trkpt lat="45.27029" lon="5.29358">
        <ele>583.57</ele>
        <time>2017-02-25T16:26:26Z</time>
      </trkpt>
      <trkpt lat="45.27029" lon="5.29358">
        <ele>583.57</ele>
        <time>2017-02-25T16:26:27Z</time>
      </trkpt>
      <trkpt lat="45.27029" lon="5.29358">
        <ele>583.57</ele>
        <time>2017-02-25T16:26:28Z</time>
      </trkpt>
      <trkpt lat="45.27029" lon="5.29358">
        <ele>583.57</ele>
        <time>2017-02-25T16:26:29Z</time>
      </trkpt>
      <trkpt lat="45.27029" lon="5.29358">
        <ele>583.57</ele>
        <time>2017-02-25T16:26:30Z</time>
      </trkpt>
      <trkpt lat="45.27029" lon="5.29358">
        <ele>583.57</ele>
        <time>2017-02-25T16:26:31Z</time>
      </trkpt>
      <trkpt lat="45.27029" lon="5.29358">
        <ele>583.57</ele>
        <time>2017-02-25T16:26:32Z</time>
      </trkpt>
      <trkpt lat="45.27029" lon="5.29358">
        <ele>583.57</ele>
        <time>2017-02-25T16:26:33Z</time>
      </trkpt>
      <trkpt lat="45.27029" lon="5.29358">
        <ele>583.57</ele>
        <time>2017-02-25T16:26:34Z</time>
      </trkpt>
      <trkpt lat="45.27029" lon="5.29358">
        <ele>583.57</ele>
        <time>2017-02-25T16:26:35Z</time>
      </trkpt>
      <trkpt lat="45.27029" lon="5.29358">
        <ele>583.57</ele>
        <time>2017-02-25T16:26:36Z</time>
      </trkpt>
      <trkpt lat="45.27029" lon="5.29358">
        <ele>583.57</ele>
        <time>2017-02-25T16:26:37Z</time>
      </trkpt>
      <trkpt lat="45.27029" lon="5.29358">
        <ele>583.57</ele>
        <time>2017-02-25T16:26:38Z</time>
      </trkpt>
      <trkpt lat="45.27029" lon="5.29358">
        <ele>583.57</ele>
        <time>2017-02-25T16:26:39Z</time>
      </trkpt>
      <trkpt lat="45.27029" lon="5.29358">
        <ele>583.57</ele>
        <time>2017-02-25T16:26:40Z</time>
      </trkpt>
      <trkpt lat="45.27029" lon="5.29358">
        <ele>583.57</ele>
        <time>2017-02-25T16:26:41Z</time>
      </trkpt>
      <trkpt lat="45.27029" lon="5.29358">
        <ele>583.57</ele>
        <time>2017-02-25T16:26:42Z</time>
      </trkpt>
      <trkpt lat="45.27029" lon="5.29358">
        <ele>583.57</ele>
        <time>2017-02-25T16:26:43Z</time>
      </trkpt>
      <trkpt lat="45.27029" lon="5.29358">
        <ele>583.57</ele>
        <time>2017-02-25T16:26:44Z</time>
      </trkpt>
      <trkpt lat="45.27029" lon="5.29358">
        <ele>583.57</ele>
        <time>2017-02-25T16:26:45Z</time>
      </trkpt>
      <trkpt lat="45.27029" lon="5.29358">
        <ele>583.57</ele>
        <time>2017-02-25T16:26:46Z</time>
      </trkpt>
      <trkpt lat="45.27029" lon="5.29358">
        <ele>583.57</ele>
        <time>2017-02-25T16:26:47Z</time>
      </trkpt>
      <trkpt lat="45.27029" lon="5.29358">
        <ele>583.57</ele>
        <time>2017-02-25T16:26:48Z</time>
      </trkpt>
      <trkpt lat="45.27029" lon="5.29358">
        <ele>583.57</ele>
        <time>2017-02-25T16:26:49Z</time>
      </trkpt>
      <trkpt lat="45.27029" lon="5.29358">
        <ele>583.57</ele>
        <time>2017-02-25T16:26:50Z</time>
      </trkpt>
      <trkpt lat="45.27029" lon="5.29358">
        <ele>583.57</ele>
        <time>2017-02-25T16:26:51Z</time>
      </trkpt>
      <trkpt lat="45.27029" lon="5.29358">
        <ele>583.57</ele>
        <time>2017-02-25T16:26:52Z</time>
      </trkpt>
      <trkpt lat="45.27029" lon="5.29358">
        <ele>583.57</ele>
        <time>2017-02-25T16:26:53Z</time>
      </trkpt>
      <trkpt lat="45.27029" lon="5.29358">
        <ele>583.57</ele>
        <time>2017-02-25T16:26:54Z</time>
      </trkpt>
      <trkpt lat="45.27029" lon="5.29358">
        <ele>583.57</ele>
        <time>2017-02-25T16:26:55Z</time>
      </trkpt>
      <trkpt lat="45.27029" lon="5.29358">
        <ele>583.57</ele>
        <time>2017-02-25T16:26:56Z</time>
      </trkpt>
      <trkpt lat="45.27029" lon="5.29358">
        <ele>583.57</ele>
        <time>2017-02-25T16:26:57Z</time>
      </trkpt>
      <trkpt lat="45.27029" lon="5.29358">
        <ele>583.57</ele>
        <time>2017-02-25T16:26:58Z</time>
      </trkpt>
      <trkpt lat="45.27029" lon="5.29358">
        <ele>583.57</ele>
        <time>2017-02-25T16:26:59Z</time>
      </trkpt>
      <trkpt lat="45.27029" lon="5.29358">
        <ele>583.57</ele>
        <time>2017-02-25T16:27:00Z</time>
      </trkpt>
      <trkpt lat="45.27029" lon="5.29358">
        <ele>583.57</ele>
        <time>2017-02-25T16:27:01Z</time>
      </trkpt>
      <trkpt lat="45.27029" lon="5.29358">
        <ele>583.57</ele>
        <time>2017-02-25T16:27:02Z</time>
      </trkpt>
      <trkpt lat="45.27029" lon="5.29358">
        <ele>583.57</ele>
        <time>2017-02-25T16:27:03Z</time>
      </trkpt>
      <trkpt lat="45.27029" lon="5.29358">
        <ele>583.57</ele>
        <time>2017-02-25T16:27:04Z</time>
      </trkpt>
      <trkpt lat="45.27029" lon="5.29358">
        <ele>583.57</ele>
        <time>2017-02-25T16:27:05Z</time>
      </trkpt>
      <trkpt lat="45.27029" lon="5.29358">
        <ele>583.57</ele>
        <time>2017-02-25T16:27:06Z</time>
      </trkpt>
      <trkpt lat="45.27029" lon="5.29358">
        <ele>583.57</ele>
        <time>2017-02-25T16:27:07Z</time>
      </trkpt>
      <trkpt lat="45.27029" lon="5.29358">
        <ele>583.57</ele>
        <time>2017-02-25T16:27:08Z</time>
      </trkpt>
      <trkpt lat="45.27029" lon="5.29358">
        <ele>583.57</ele>
        <time>2017-02-25T16:27:09Z</time>
      </trkpt>
      <trkpt lat="45.27029" lon="5.29358">
        <ele>583.57</ele>
        <time>2017-02-25T16:27:10Z</time>
      </trkpt>
      <trkpt lat="45.27029" lon="5.29358">
        <ele>583.57</ele>
        <time>2017-02-25T16:27:11Z</time>
      </trkpt>
      <trkpt lat="45.27029" lon="5.29358">
        <ele>583.57</ele>
        <time>2017-02-25T16:27:12Z</time>
      </trkpt>
      <trkpt lat="45.27029" lon="5.29358">
        <ele>583.57</ele>
        <time>2017-02-25T16:27:13Z</time>
      </trkpt>
      <trkpt lat="45.27029" lon="5.29358">
        <ele>583.57</ele>
        <time>2017-02-25T16:27:14Z</time>
      </trkpt>
      <trkpt lat="45.27029" lon="5.29358">
        <ele>583.57</ele>
        <time>2017-02-25T16:27:15Z</time>
      </trkpt>
      <trkpt lat="45.27029" lon="5.29358">
        <ele>583.57</ele>
        <time>2017-02-25T16:27:16Z</time>
      </trkpt>
      <trkpt lat="45.27029" lon="5.29358">
        <ele>583.57</ele>
        <time>2017-02-25T16:27:17Z</time>
      </trkpt>
      <trkpt lat="45.27029" lon="5.29358">
        <ele>583.57</ele>
        <time>2017-02-25T16:27:18Z</time>
      </trkpt>
      <trkpt lat="45.27029" lon="5.29358">
        <ele>583.57</ele>
        <time>2017-02-25T16:27:19Z</time>
      </trkpt>
      <trkpt lat="45.27029" lon="5.29358">
        <ele>583.57</ele>
        <time>2017-02-25T16:27:20Z</time>
      </trkpt>
      <trkpt lat="45.27029" lon="5.29358">
        <ele>583.57</ele>
        <time>2017-02-25T16:27:21Z</time>
      </trkpt>
      <trkpt lat="45.27029" lon="5.29358">
        <ele>583.57</ele>
        <time>2017-02-25T16:27:22Z</time>
      </trkpt>
      <trkpt lat="45.27029" lon="5.29358">
        <ele>583.57</ele>
        <time>2017-02-25T16:27:23Z</time>
      </trkpt>
      <trkpt lat="45.27029" lon="5.29358">
        <ele>583.57</ele>
        <time>2017-02-25T16:27:24Z</time>
      </trkpt>
      <trkpt lat="45.27029" lon="5.29358">
        <ele>583.57</ele>
        <time>2017-02-25T16:27:25Z</time>
      </trkpt>
      <trkpt lat="45.27029" lon="5.29358">
        <ele>583.57</ele>
        <time>2017-02-25T16:27:26Z</time>
      </trkpt>
      <trkpt lat="45.27029" lon="5.29358">
        <ele>583.57</ele>
        <time>2017-02-25T16:27:27Z</time>
      </trkpt>
      <trkpt lat="45.27029" lon="5.29358">
        <ele>583.57</ele>
        <time>2017-02-25T16:27:28Z</time>
      </trkpt>
      <trkpt lat="45.27029" lon="5.29358">
        <ele>583.57</ele>
        <time>2017-02-25T16:27:29Z</time>
      </trkpt>
      <trkpt lat="45.27029" lon="5.29358">
        <ele>583.57</ele>
        <time>2017-02-25T16:27:30Z</time>
      </trkpt>
      <trkpt lat="45.27029" lon="5.29358">
        <ele>583.57</ele>
        <time>2017-02-25T16:27:31Z</time>
      </trkpt>
      <trkpt lat="45.27029" lon="5.29358">
        <ele>583.57</ele>
        <time>2017-02-25T16:27:32Z</time>
      </trkpt>
      <trkpt lat="45.27029" lon="5.29358">
        <ele>583.57</ele>
        <time>2017-02-25T16:27:33Z</time>
      </trkpt>
      <trkpt lat="45.27029" lon="5.29358">
        <ele>583.57</ele>
        <time>2017-02-25T16:27:34Z</time>
      </trkpt>
      <trkpt lat="45.27029" lon="5.29358">
        <ele>583.57</ele>
        <time>2017-02-25T16:27:35Z</time>
      </trkpt>
      <trkpt lat="45.27029" lon="5.29358">
        <ele>583.57</ele>
        <time>2017-02-25T16:27:36Z</time>
      </trkpt>
      <trkpt lat="45.27029" lon="5.29358">
        <ele>583.57</ele>
        <time>2017-02-25T16:27:37Z</time>
      </trkpt>
      <trkpt lat="45.27029" lon="5.29358">
        <ele>583.57</ele>
        <time>2017-02-25T16:27:38Z</time>
      </trkpt>
      <trkpt lat="45.27029" lon="5.29358">
        <ele>583.57</ele>
        <time>2017-02-25T16:27:39Z</time>
      </trkpt>
      <trkpt lat="45.27029" lon="5.29358">
        <ele>583.57</ele>
        <time>2017-02-25T16:27:40Z</time>
      </trkpt>
      <trkpt lat="45.27029" lon="5.29358">
        <ele>583.57</ele>
        <time>2017-02-25T16:27:41Z</time>
      </trkpt>
      <trkpt lat="45.27029" lon="5.29358">
        <ele>583.57</ele>
        <time>2017-02-25T16:27:42Z</time>
      </trkpt>
      <trkpt lat="45.27029" lon="5.29358">
        <ele>583.57</ele>
        <time>2017-02-25T16:27:43Z</time>
      </trkpt>
      <trkpt lat="45.27029" lon="5.29358">
        <ele>583.57</ele>
        <time>2017-02-25T16:27:44Z</time>
      </trkpt>
      <trkpt lat="45.27029" lon="5.29358">
        <ele>583.57</ele>
        <time>2017-02-25T16:27:45Z</time>
      </trkpt>
      <trkpt lat="45.27029" lon="5.29358">
        <ele>583.57</ele>
        <time>2017-02-25T16:27:46Z</time>
      </trkpt>
      <trkpt lat="45.27029" lon="5.29358">
        <ele>583.57</ele>
        <time>2017-02-25T16:27:47Z</time>
      </trkpt>
      <trkpt lat="45.27029" lon="5.29358">
        <ele>583.57</ele>
        <time>2017-02-25T16:27:48Z</time>
      </trkpt>
      <trkpt lat="45.27029" lon="5.29358">
        <ele>583.57</ele>
        <time>2017-02-25T16:27:49Z</time>
      </trkpt>
      <trkpt lat="45.27029" lon="5.29358">
        <ele>583.57</ele>
        <time>2017-02-25T16:27:50Z</time>
      </trkpt>
      <trkpt lat="45.27029" lon="5.29358">
        <ele>583.57</ele>
        <time>2017-02-25T16:27:51Z</time>
      </trkpt>
      <trkpt lat="45.27029" lon="5.29358">
        <ele>583.57</ele>
        <time>2017-02-25T16:27:52Z</time>
      </trkpt>
      <trkpt lat="45.27029" lon="5.29358">
        <ele>583.57</ele>
        <time>2017-02-25T16:27:53Z</time>
      </trkpt>
      <trkpt lat="45.27029" lon="5.29358">
        <ele>583.57</ele>
        <time>2017-02-25T16:27:54Z</time>
      </trkpt>
      <trkpt lat="45.27029" lon="5.29358">
        <ele>583.57</ele>
        <time>2017-02-25T16:27:55Z</time>
      </trkpt>
      <trkpt lat="45.27029" lon="5.29358">
        <ele>583.57</ele>
        <time>2017-02-25T16:27:56Z</time>
      </trkpt>
      <trkpt lat="45.27029" lon="5.29358">
        <ele>583.57</ele>
        <time>2017-02-25T16:27:57Z</time>
      </trkpt>
      <trkpt lat="45.27029" lon="5.29358">
        <ele>583.57</ele>
        <time>2017-02-25T16:27:58Z</time>
      </trkpt>
      <trkpt lat="45.27029" lon="5.29358">
        <ele>583.57</ele>
        <time>2017-02-25T16:27:59Z</time>
      </trkpt>
      <trkpt lat="45.27029" lon="5.29358">
        <ele>583.57</ele>
        <time>2017-02-25T16:28:00Z</time>
      </trkpt>
      <trkpt lat="45.27029" lon="5.29358">
        <ele>583.57</ele>
        <time>2017-02-25T16:28:01Z</time>
      </trkpt>
      <trkpt lat="45.27029" lon="5.29358">
        <ele>583.57</ele>
        <time>2017-02-25T16:28:02Z</time>
      </trkpt>
      <trkpt lat="45.27029" lon="5.29358">
        <ele>583.57</ele>
        <time>2017-02-25T16:28:03Z</time>
      </trkpt>
      <trkpt lat="45.27029" lon="5.29358">
        <ele>583.57</ele>
        <time>2017-02-25T16:28:04Z</time>
      </trkpt>
      <trkpt lat="45.27029" lon="5.29358">
        <ele>583.57</ele>
        <time>2017-02-25T16:28:05Z</time>
      </trkpt>
      <trkpt lat="45.27029" lon="5.29358">
        <ele>583.57</ele>
        <time>2017-02-25T16:28:06Z</time>
      </trkpt>
      <trkpt lat="45.27029" lon="5.29358">
        <ele>583.57</ele>
        <time>2017-02-25T16:28:07Z</time>
      </trkpt>
      <trkpt lat="45.27029" lon="5.29358">
        <ele>583.57</ele>
        <time>2017-02-25T16:28:08Z</time>
      </trkpt>
      <trkpt lat="45.27029" lon="5.29358">
        <ele>583.57</ele>
        <time>2017-02-25T16:28:09Z</time>
      </trkpt>
      <trkpt lat="45.27029" lon="5.29358">
        <ele>583.57</ele>
        <time>2017-02-25T16:28:10Z</time>
      </trkpt>
      <trkpt lat="45.27029" lon="5.29358">
        <ele>583.57</ele>
        <time>2017-02-25T16:28:11Z</time>
      </trkpt>
      <trkpt lat="45.27029" lon="5.29358">
        <ele>583.57</ele>
        <time>2017-02-25T16:28:12Z</time>
      </trkpt>
      <trkpt lat="45.27029" lon="5.29358">
        <ele>583.57</ele>
        <time>2017-02-25T16:28:13Z</time>
      </trkpt>
      <trkpt lat="45.27029" lon="5.29358">
        <ele>583.57</ele>
        <time>2017-02-25T16:28:14Z</time>
      </trkpt>
      <trkpt lat="45.27029" lon="5.29358">
        <ele>583.57</ele>
        <time>2017-02-25T16:28:15Z</time>
      </trkpt>
      <trkpt lat="45.27029" lon="5.29358">
        <ele>583.57</ele>
        <time>2017-02-25T16:28:16Z</time>
      </trkpt>
      <trkpt lat="45.27029" lon="5.29358">
        <ele>583.57</ele>
        <time>2017-02-25T16:28:17Z</time>
      </trkpt>
      <trkpt lat="45.27029" lon="5.29358">
        <ele>583.57</ele>
        <time>2017-02-25T16:28:18Z</time>
      </trkpt>
      <trkpt lat="45.27029" lon="5.29358">
        <ele>583.57</ele>
        <time>2017-02-25T16:28:19Z</time>
      </trkpt>
      <trkpt lat="45.27029" lon="5.29358">
        <ele>583.57</ele>
        <time>2017-02-25T16:28:20Z</time>
      </trkpt>
      <trkpt lat="45.27029" lon="5.29358">
        <ele>583.57</ele>
        <time>2017-02-25T16:28:21Z</time>
      </trkpt>
      <trkpt lat="45.27029" lon="5.29358">
        <ele>583.57</ele>
        <time>2017-02-25T16:28:22Z</time>
      </trkpt>
      <trkpt lat="45.27029" lon="5.29358">
        <ele>583.57</ele>
        <time>2017-02-25T16:28:23Z</time>
      </trkpt>
      <trkpt lat="45.27029" lon="5.29358">
        <ele>583.57</ele>
        <time>2017-02-25T16:28:24Z</time>
      </trkpt>
      <trkpt lat="45.27029" lon="5.29358">
        <ele>583.57</ele>
        <time>2017-02-25T16:28:25Z</time>
      </trkpt>
      <trkpt lat="45.27029" lon="5.29358">
        <ele>583.57</ele>
        <time>2017-02-25T16:28:26Z</time>
      </trkpt>
      <trkpt lat="45.27029" lon="5.29358">
        <ele>583.57</ele>
        <time>2017-02-25T16:28:27Z</time>
      </trkpt>
      <trkpt lat="45.27029" lon="5.29358">
        <ele>583.57</ele>
        <time>2017-02-25T16:28:28Z</time>
      </trkpt>
      <trkpt lat="45.27029" lon="5.29358">
        <ele>583.57</ele>
        <time>2017-02-25T16:28:29Z</time>
      </trkpt>
      <trkpt lat="45.27029" lon="5.29358">
        <ele>583.57</ele>
        <time>2017-02-25T16:28:30Z</time>
      </trkpt>
      <trkpt lat="45.27029" lon="5.29358">
        <ele>583.57</ele>
        <time>2017-02-25T16:28:31Z</time>
      </trkpt>
      <trkpt lat="45.27029" lon="5.29358">
        <ele>583.57</ele>
        <time>2017-02-25T16:28:32Z</time>
      </trkpt>
      <trkpt lat="45.27029" lon="5.29358">
        <ele>583.57</ele>
        <time>2017-02-25T16:28:33Z</time>
      </trkpt>
      <trkpt lat="45.27029" lon="5.29358">
        <ele>583.57</ele>
        <time>2017-02-25T16:28:34Z</time>
      </trkpt>
      <trkpt lat="45.27029" lon="5.29358">
        <ele>583.57</ele>
        <time>2017-02-25T16:28:35Z</time>
      </trkpt>
      <trkpt lat="45.27029" lon="5.29358">
        <ele>583.57</ele>
        <time>2017-02-25T16:28:36Z</time>
      </trkpt>
      <trkpt lat="45.27029" lon="5.29358">
        <ele>583.57</ele>
        <time>2017-02-25T16:28:37Z</time>
      </trkpt>
      <trkpt lat="45.27032" lon="5.29361">
        <ele>584.69</ele>
        <time>2017-02-25T16:28:38Z</time>
      </trkpt>
      <trkpt lat="45.27035" lon="5.29367">
        <ele>585.39</ele>
        <time>2017-02-25T16:28:39Z</time>
      </trkpt>
      <trkpt lat="45.27039" lon="5.29375">
        <ele>585.93</ele>
        <time>2017-02-25T16:28:40Z</time>
      </trkpt>
      <trkpt lat="45.27045" lon="5.29384">
        <ele>586.44</ele>
        <time>2017-02-25T16:28:41Z</time>
      </trkpt>
      <trkpt lat="45.27051" lon="5.29395">
        <ele>586.86</ele>
        <time>2017-02-25T16:28:42Z</time>
      </trkpt>
      <trkpt lat="45.27057" lon="5.29406">
        <ele>587.35</ele>
        <time>2017-02-25T16:28:43Z</time>
      </trkpt>
      <trkpt lat="45.27064" lon="5.29419">
        <ele>587.76</ele>
        <time>2017-02-25T16:28:44Z</time>
      </trkpt>
      <trkpt lat="45.27072" lon="5.29433">
        <ele>588.17</ele>
        <time>2017-02-25T16:28:45Z</time>
      </trkpt>
      <trkpt lat="45.2708" lon="5.29448">
        <ele>588.73</ele>
        <time>2017-02-25T16:28:46Z</time>
      </trkpt>
      <trkpt lat="45.27089" lon="5.29462">
        <ele>589.16</ele>
        <time>2017-02-25T16:28:47Z</time>
      </trkpt>
      <trkpt lat="45.27097" lon="5.29477">
        <ele>589.57</ele>
        <time>2017-02-25T16:28:48Z</time>
      </trkpt>
      <trkpt lat="45.27106" lon="5.29493">
        <ele>589.97</ele>
        <time>2017-02-25T16:28:49Z</time>
      </trkpt>
      <trkpt lat="45.27115" lon="5.29508">
        <ele>590.53</ele>
        <time>2017-02-25T16:28:50Z</time>
      </trkpt>
      <trkpt lat="45.27124" lon="5.29524">
        <ele>590.64</ele>
        <time>2017-02-25T16:28:51Z</time>
      </trkpt>
      <trkpt lat="45.27133" lon="5.29541">
        <ele>590.82</ele>
        <time>2017-02-25T16:28:52Z</time>
      </trkpt>
      <trkpt lat="45.27143" lon="5.29558">
        <ele>591.18</ele>
        <time>2017-02-25T16:28:53Z</time>
      </trkpt>
      <trkpt lat="45.27152" lon="5.29575">
        <ele>591.57</ele>
        <time>2017-02-25T16:28:54Z</time>
      </trkpt>
      <trkpt lat="45.27162" lon="5.29592">
        <ele>592.13</ele>
        <time>2017-02-25T16:28:55Z</time>
      </trkpt>
      <trkpt lat="45.27172" lon="5.2961">
        <ele>592.48</ele>
        <time>2017-02-25T16:28:56Z</time>
      </trkpt>
      <trkpt lat="45.27182" lon="5.29628">
        <ele>592.87</ele>
        <time>2017-02-25T16:28:57Z</time>
      </trkpt>
      <trkpt lat="45.27192" lon="5.29646">
        <ele>593.59</ele>
        <time>2017-02-25T16:28:58Z</time>
      </trkpt>
      <trkpt lat="45.27203" lon="5.29664">
        <ele>594.21</ele>
        <time>2017-02-25T16:28:59Z</time>
      </trkpt>
      <trkpt lat="45.27214" lon="5.29684">
        <ele>594.74</ele>
        <time>2017-02-25T16:29:00Z</time>
      </trkpt>
      <trkpt lat="45.27225" lon="5.29704">
        <ele>595.4</ele>
        <time>2017-02-25T16:29:01Z</time>
      </trkpt>
      <trkpt lat="45.27236" lon="5.29723">
        <ele>596.01</ele>
        <time>2017-02-25T16:29:02Z</time>
      </trkpt>
      <trkpt lat="45.27247" lon="5.29743">
        <ele>596.54</ele>
        <time>2017-02-25T16:29:03Z</time>
      </trkpt>
      <trkpt lat="45.27257" lon="5.29762">
        <ele>596.96</ele>
        <time>2017-02-25T16:29:04Z</time>
      </trkpt>
      <trkpt lat="45.27269" lon="5.29781">
        <ele>597.37</ele>
        <time>2017-02-25T16:29:05Z</time>
      </trkpt>
      <trkpt lat="45.27279" lon="5.29799">
        <ele>597.85</ele>
        <time>2017-02-25T16:29:06Z</time>
      </trkpt>
      <trkpt lat="45.2729" lon="5.29819">
        <ele>597.94</ele>
        <time>2017-02-25T16:29:07Z</time>
      </trkpt>
      <trkpt lat="45.27301" lon="5.29838">
        <ele>598.28</ele>
        <time>2017-02-25T16:29:08Z</time>
      </trkpt>
      <trkpt lat="45.27312" lon="5.29858">
        <ele>598.75</ele>
        <time>2017-02-25T16:29:09Z</time>
      </trkpt>
      <trkpt lat="45.27323" lon="5.29877">
        <ele>599.24</ele>
        <time>2017-02-25T16:29:10Z</time>
      </trkpt>
      <trkpt lat="45.27335" lon="5.29896">
        <ele>599.66</ele>
        <time>2017-02-25T16:29:11Z</time>
      </trkpt>
      <trkpt lat="45.27345" lon="5.29915">
        <ele>599.91</ele>
        <time>2017-02-25T16:29:12Z</time>
      </trkpt>
      <trkpt lat="45.27356" lon="5.29934">
        <ele>600.19</ele>
        <time>2017-02-25T16:29:13Z</time>
      </trkpt>
      <trkpt lat="45.27366" lon="5.29953">
        <ele>600.57</ele>
        <time>2017-02-25T16:29:14Z</time>
      </trkpt>
      <trkpt lat="45.27375" lon="5.29972">
        <ele>600.89</ele>
        <time>2017-02-25T16:29:15Z</time>
      </trkpt>
      <trkpt lat="45.27384" lon="5.29991">
        <ele>601.27</ele>
        <time>2017-02-25T16:29:16Z</time>
      </trkpt>
      <trkpt lat="45.27391" lon="5.30013">
        <ele>601.59</ele>
        <time>2017-02-25T16:29:17Z</time>
      </trkpt>
      <trkpt lat="45.27396" lon="5.30037">
        <ele>601.97</ele>
        <time>2017-02-25T16:29:18Z</time>
      </trkpt>
      <trkpt lat="45.274" lon="5.30062">
        <ele>602.37</ele>
        <time>2017-02-25T16:29:19Z</time>
      </trkpt>
      <trkpt lat="45.27403" lon="5.30088">
        <ele>602.53</ele>
        <time>2017-02-25T16:29:20Z</time>
      </trkpt>
      <trkpt lat="45.27404" lon="5.30114">
        <ele>602.56</ele>
        <time>2017-02-25T16:29:21Z</time>
      </trkpt>
      <trkpt lat="45.27406" lon="5.30139">
        <ele>602.17</ele>
        <time>2017-02-25T16:29:22Z</time>
      </trkpt>
      <trkpt lat="45.27407" lon="5.30163">
        <ele>601.93</ele>
        <time>2017-02-25T16:29:23Z</time>
      </trkpt>
      <trkpt lat="45.27406" lon="5.30187">
        <ele>601.72</ele>
        <time>2017-02-25T16:29:24Z</time>
      </trkpt>
      <trkpt lat="45.27404" lon="5.30213">
        <ele>601.44</ele>
        <time>2017-02-25T16:29:25Z</time>
      </trkpt>
      <trkpt lat="45.27401" lon="5.30239">
        <ele>601.22</ele>
        <time>2017-02-25T16:29:26Z</time>
      </trkpt>
      <trkpt lat="45.27399" lon="5.30266">
        <ele>600.94</ele>
        <time>2017-02-25T16:29:27Z</time>
      </trkpt>
      <trkpt lat="45.27396" lon="5.30293">
        <ele>600.72</ele>
        <time>2017-02-25T16:29:28Z</time>
      </trkpt>
      <trkpt lat="45.27393" lon="5.3032">
        <ele>600.36</ele>
        <time>2017-02-25T16:29:29Z</time>
      </trkpt>
      <trkpt lat="45.27392" lon="5.30347">
        <ele>599.73</ele>
        <time>2017-02-25T16:29:30Z</time>
      </trkpt>
      <trkpt lat="45.27392" lon="5.30376">
        <ele>599.36</ele>
        <time>2017-02-25T16:29:31Z</time>
      </trkpt>
      <trkpt lat="45.27393" lon="5.30406">
        <ele>598.89</ele>
        <time>2017-02-25T16:29:32Z</time>
      </trkpt>
      <trkpt lat="45.27394" lon="5.30436">
        <ele>598.31</ele>
        <time>2017-02-25T16:29:33Z</time>
      </trkpt>
      <trkpt lat="45.27396" lon="5.30465">
        <ele>597.56</ele>
        <time>2017-02-25T16:29:34Z</time>
      </trkpt>
      <trkpt lat="45.27398" lon="5.30495">
        <ele>596.92</ele>
        <time>2017-02-25T16:29:35Z</time>
      </trkpt>
      <trkpt lat="45.274" lon="5.30525">
        <ele>596.4</ele>
        <time>2017-02-25T16:29:36Z</time>
      </trkpt>
      <trkpt lat="45.27403" lon="5.30554">
        <ele>596.05</ele>
        <time>2017-02-25T16:29:37Z</time>
      </trkpt>
      <trkpt lat="45.27405" lon="5.30583">
        <ele>595.82</ele>
        <time>2017-02-25T16:29:38Z</time>
      </trkpt>
      <trkpt lat="45.27407" lon="5.30611">
        <ele>595.14</ele>
        <time>2017-02-25T16:29:39Z</time>
      </trkpt>
      <trkpt lat="45.27409" lon="5.30637">
        <ele>594.28</ele>
        <time>2017-02-25T16:29:40Z</time>
      </trkpt>
      <trkpt lat="45.2741" lon="5.30663">
        <ele>593.71</ele>
        <time>2017-02-25T16:29:41Z</time>
      </trkpt>
      <trkpt lat="45.27412" lon="5.30687">
        <ele>593.12</ele>
        <time>2017-02-25T16:29:42Z</time>
      </trkpt>
      <trkpt lat="45.27412" lon="5.30712">
        <ele>592.52</ele>
        <time>2017-02-25T16:29:43Z</time>
      </trkpt>
      <trkpt lat="45.27411" lon="5.30737">
        <ele>591.84</ele>
        <time>2017-02-25T16:29:44Z</time>
      </trkpt>
      <trkpt lat="45.27411" lon="5.30762">
        <ele>590.98</ele>
        <time>2017-02-25T16:29:45Z</time>
      </trkpt>
      <trkpt lat="45.27411" lon="5.30788">
        <ele>590.17</ele>
        <time>2017-02-25T16:29:46Z</time>
      </trkpt>
      <trkpt lat="45.27411" lon="5.30815">
        <ele>589.45</ele>
        <time>2017-02-25T16:29:47Z</time>
      </trkpt>
      <trkpt lat="45.2741" lon="5.30842">
        <ele>588.58</ele>
        <time>2017-02-25T16:29:48Z</time>
      </trkpt>
      <trkpt lat="45.27409" lon="5.3087">
        <ele>588.25</ele>
        <time>2017-02-25T16:29:49Z</time>
      </trkpt>
      <trkpt lat="45.27408" lon="5.30897">
        <ele>588.26</ele>
        <time>2017-02-25T16:29:50Z</time>
      </trkpt>
      <trkpt lat="45.27407" lon="5.30924">
        <ele>588.35</ele>
        <time>2017-02-25T16:29:51Z</time>
      </trkpt>
      <trkpt lat="45.27405" lon="5.30951">
        <ele>588.92</ele>
        <time>2017-02-25T16:29:52Z</time>
      </trkpt>
      <trkpt lat="45.27404" lon="5.30975">
        <ele>589.36</ele>
        <time>2017-02-25T16:29:53Z</time>
      </trkpt>
      <trkpt lat="45.27404" lon="5.30997">
        <ele>589.53</ele>
        <time>2017-02-25T16:29:54Z</time>
      </trkpt>
      <trkpt lat="45.27407" lon="5.31017">
        <ele>590.2</ele>
        <time>2017-02-25T16:29:55Z</time>
      </trkpt>
      <trkpt lat="45.27412" lon="5.31037">
        <ele>591.05</ele>
        <time>2017-02-25T16:29:56Z</time>
      </trkpt>
      <trkpt lat="45.27423" lon="5.31054">
        <ele>591.62</ele>
        <time>2017-02-25T16:29:57Z</time>
      </trkpt>
      <trkpt lat="45.27433" lon="5.31071">
        <ele>591.98</ele>
        <time>2017-02-25T16:29:58Z</time>
      </trkpt>
      <trkpt lat="45.27443" lon="5.3109">
        <ele>591.81</ele>
        <time>2017-02-25T16:29:59Z</time>
      </trkpt>
      <trkpt lat="45.27453" lon="5.31112">
        <ele>592.42</ele>
        <time>2017-02-25T16:30:00Z</time>
      </trkpt>
      <trkpt lat="45.27462" lon="5.31134">
        <ele>593.18</ele>
        <time>2017-02-25T16:30:01Z</time>
      </trkpt>
      <trkpt lat="45.27471" lon="5.31158">
        <ele>593.97</ele>
        <time>2017-02-25T16:30:02Z</time>
      </trkpt>
      <trkpt lat="45.27479" lon="5.31181">
        <ele>594.69</ele>
        <time>2017-02-25T16:30:03Z</time>
      </trkpt>
      <trkpt lat="45.27485" lon="5.31204">
        <ele>595.31</ele>
        <time>2017-02-25T16:30:04Z</time>
      </trkpt>
      <trkpt lat="45.27487" lon="5.31227">
        <ele>595.52</ele>
        <time>2017-02-25T16:30:05Z</time>
      </trkpt>
      <trkpt lat="45.27488" lon="5.31251">
        <ele>596.2</ele>
        <time>2017-02-25T16:30:06Z</time>
      </trkpt>
      <trkpt lat="45.27487" lon="5.31275">
        <ele>597.05</ele>
        <time>2017-02-25T16:30:07Z</time>
      </trkpt>
      <trkpt lat="45.27488" lon="5.31298">
        <ele>597.78</ele>
        <time>2017-02-25T16:30:08Z</time>
      </trkpt>
      <trkpt lat="45.27489" lon="5.31321">
        <ele>598.33</ele>
        <time>2017-02-25T16:30:09Z</time>
      </trkpt>
      <trkpt lat="45.27489" lon="5.31345">
        <ele>598.84</ele>
        <time>2017-02-25T16:30:10Z</time>
      </trkpt>
      <trkpt lat="45.27489" lon="5.31369">
        <ele>599.34</ele>
        <time>2017-02-25T16:30:11Z</time>
      </trkpt>
      <trkpt lat="45.27488" lon="5.31393">
        <ele>599.92</ele>
        <time>2017-02-25T16:30:12Z</time>
      </trkpt>
      <trkpt lat="45.27484" lon="5.31414">
        <ele>600.44</ele>
        <time>2017-02-25T16:30:13Z</time>
      </trkpt>
      <trkpt lat="45.27482" lon="5.31432">
        <ele>601.5</ele>
        <time>2017-02-25T16:30:14Z</time>
      </trkpt>
      <trkpt lat="45.27482" lon="5.31452">
        <ele>602.59</ele>
        <time>2017-02-25T16:30:15Z</time>
      </trkpt>
      <trkpt lat="45.27485" lon="5.31472">
        <ele>603.37</ele>
        <time>2017-02-25T16:30:16Z</time>
      </trkpt>
      <trkpt lat="45.2749" lon="5.31491">
        <ele>604.09</ele>
        <time>2017-02-25T16:30:17Z</time>
      </trkpt>
      <trkpt lat="45.27495" lon="5.31512">
        <ele>604.63</ele>
        <time>2017-02-25T16:30:18Z</time>
      </trkpt>
      <trkpt lat="45.27499" lon="5.31533">
        <ele>605.22</ele>
        <time>2017-02-25T16:30:19Z</time>
      </trkpt>
      <trkpt lat="45.27502" lon="5.31556">
        <ele>605.98</ele>
        <time>2017-02-25T16:30:20Z</time>
      </trkpt>
      <trkpt lat="45.27502" lon="5.3158">
        <ele>606.77</ele>
        <time>2017-02-25T16:30:21Z</time>
      </trkpt>
      <trkpt lat="45.27501" lon="5.31603">
        <ele>607.57</ele>
        <time>2017-02-25T16:30:22Z</time>
      </trkpt>
      <trkpt lat="45.27494" lon="5.31623">
        <ele>608.21</ele>
        <time>2017-02-25T16:30:23Z</time>
      </trkpt>
      <trkpt lat="45.27487" lon="5.31643">
        <ele>609.38</ele>
        <time>2017-02-25T16:30:24Z</time>
      </trkpt>
      <trkpt lat="45.27481" lon="5.3166">
        <ele>610.17</ele>
        <time>2017-02-25T16:30:25Z</time>
      </trkpt>
      <trkpt lat="45.27477" lon="5.31678">
        <ele>611.45</ele>
        <time>2017-02-25T16:30:26Z</time>
      </trkpt>
      <trkpt lat="45.27475" lon="5.31696">
        <ele>612.34</ele>
        <time>2017-02-25T16:30:27Z</time>
      </trkpt>
      <trkpt lat="45.27475" lon="5.31717">
        <ele>613.4</ele>
        <time>2017-02-25T16:30:28Z</time>
      </trkpt>
      <trkpt lat="45.27477" lon="5.31739">
        <ele>614.25</ele>
        <time>2017-02-25T16:30:29Z</time>
      </trkpt>
      <trkpt lat="45.27481" lon="5.31759">
        <ele>615.62</ele>
        <time>2017-02-25T16:30:30Z</time>
      </trkpt>
      <trkpt lat="45.27485" lon="5.31779">
        <ele>616.78</ele>
        <time>2017-02-25T16:30:31Z</time>
      </trkpt>
      <trkpt lat="45.27491" lon="5.31796">
        <ele>617.57</ele>
        <time>2017-02-25T16:30:32Z</time>
      </trkpt>
      <trkpt lat="45.27499" lon="5.31812">
        <ele>618.37</ele>
        <time>2017-02-25T16:30:33Z</time>
      </trkpt>
      <trkpt lat="45.27511" lon="5.31828">
        <ele>618.85</ele>
        <time>2017-02-25T16:30:34Z</time>
      </trkpt>
      <trkpt lat="45.27526" lon="5.31841">
        <ele>619.18</ele>
        <time>2017-02-25T16:30:35Z</time>
      </trkpt>
      <trkpt lat="45.2754" lon="5.31855">
        <ele>619.81</ele>
        <time>2017-02-25T16:30:36Z</time>
      </trkpt>
      <trkpt lat="45.27553" lon="5.3187">
        <ele>620.5</ele>
        <time>2017-02-25T16:30:37Z</time>
      </trkpt>
      <trkpt lat="45.27566" lon="5.31886">
        <ele>621.19</ele>
        <time>2017-02-25T16:30:38Z</time>
      </trkpt>
      <trkpt lat="45.27577" lon="5.31904">
        <ele>622.05</ele>
        <time>2017-02-25T16:30:39Z</time>
      </trkpt>
      <trkpt lat="45.27588" lon="5.31924">
        <ele>622.94</ele>
        <time>2017-02-25T16:30:40Z</time>
      </trkpt>
      <trkpt lat="45.27599" lon="5.31944">
        <ele>624.32</ele>
        <time>2017-02-25T16:30:41Z</time>
      </trkpt>
      <trkpt lat="45.27608" lon="5.31964">
        <ele>626.04</ele>
        <time>2017-02-25T16:30:42Z</time>
      </trkpt>
      <trkpt lat="45.27612" lon="5.31987">
        <ele>627.66</ele>
        <time>2017-02-25T16:30:43Z</time>
      </trkpt>
      <trkpt lat="45.27615" lon="5.32011">
        <ele>629.27</ele>
        <time>2017-02-25T16:30:44Z</time>
      </trkpt>
      <trkpt lat="45.27618" lon="5.32034">
        <ele>630.63</ele>
        <time>2017-02-25T16:30:45Z</time>
      </trkpt>
      <trkpt lat="45.27624" lon="5.32057">
        <ele>632.02</ele>
        <time>2017-02-25T16:30:46Z</time>
      </trkpt>
      <trkpt lat="45.27631" lon="5.3208">
        <ele>633.58</ele>
        <time>2017-02-25T16:30:47Z</time>
      </trkpt>
      <trkpt lat="45.27639" lon="5.32102">
        <ele>634.93</ele>
        <time>2017-02-25T16:30:48Z</time>
      </trkpt>
      <trkpt lat="45.27648" lon="5.32125">
        <ele>636.32</ele>
        <time>2017-02-25T16:30:49Z</time>
      </trkpt>
      <trkpt lat="45.27657" lon="5.32148">
        <ele>637.72</ele>
        <time>2017-02-25T16:30:50Z</time>
      </trkpt>
      <trkpt lat="45.27667" lon="5.32171">
        <ele>639.2</ele>
        <time>2017-02-25T16:30:51Z</time>
      </trkpt>
      <trkpt lat="45.27676" lon="5.32194">
        <ele>640.93</ele>
        <time>2017-02-25T16:30:52Z</time>
      </trkpt>
      <trkpt lat="45.27685" lon="5.32218">
        <ele>642.72</ele>
        <time>2017-02-25T16:30:53Z</time>
      </trkpt>
      <trkpt lat="45.27694" lon="5.32242">
        <ele>644.44</ele>
        <time>2017-02-25T16:30:54Z</time>
      </trkpt>
      <trkpt lat="45.27704" lon="5.32265">
        <ele>646.14</ele>
        <time>2017-02-25T16:30:55Z</time>
      </trkpt>
      <trkpt lat="45.27713" lon="5.32289">
        <ele>647.84</ele>
        <time>2017-02-25T16:30:56Z</time>
      </trkpt>
      <trkpt lat="45.27723" lon="5.32312">
        <ele>649.62</ele>
        <time>2017-02-25T16:30:57Z</time>
      </trkpt>
      <trkpt lat="45.27733" lon="5.32337">
        <ele>651.26</ele>
        <time>2017-02-25T16:30:58Z</time>
      </trkpt>
      <trkpt lat="45.27742" lon="5.32361">
        <ele>652.95</ele>
        <time>2017-02-25T16:30:59Z</time>
      </trkpt>
      <trkpt lat="45.27751" lon="5.32387">
        <ele>654.56</ele>
        <time>2017-02-25T16:31:00Z</time>
      </trkpt>
      <trkpt lat="45.2776" lon="5.32412">
        <ele>656.41</ele>
        <time>2017-02-25T16:31:01Z</time>
      </trkpt>
      <trkpt lat="45.27768" lon="5.32439">
        <ele>658.21</ele>
        <time>2017-02-25T16:31:02Z</time>
      </trkpt>
      <trkpt lat="45.27776" lon="5.32467">
        <ele>660.02</ele>
        <time>2017-02-25T16:31:03Z</time>
      </trkpt>
      <trkpt lat="45.27785" lon="5.32495">
        <ele>661.66</ele>
        <time>2017-02-25T16:31:04Z</time>
      </trkpt>
      <trkpt lat="45.27793" lon="5.32523">
        <ele>663.34</ele>
        <time>2017-02-25T16:31:05Z</time>
      </trkpt>
      <trkpt lat="45.27802" lon="5.32551">
        <ele>664.96</ele>
        <time>2017-02-25T16:31:06Z</time>
      </trkpt>
      <trkpt lat="45.2781" lon="5.32578">
        <ele>666.49</ele>
        <time>2017-02-25T16:31:07Z</time>
      </trkpt>
      <trkpt lat="45.27819" lon="5.32606">
        <ele>667.27</ele>
        <time>2017-02-25T16:31:08Z</time>
      </trkpt>
      <trkpt lat="45.27827" lon="5.32635">
        <ele>668.39</ele>
        <time>2017-02-25T16:31:09Z</time>
      </trkpt>
      <trkpt lat="45.27835" lon="5.32664">
        <ele>667.65</ele>
        <time>2017-02-25T16:31:10Z</time>
      </trkpt>
      <trkpt lat="45.27843" lon="5.32693">
        <ele>668.14</ele>
        <time>2017-02-25T16:31:11Z</time>
      </trkpt>
      <trkpt lat="45.27851" lon="5.32723">
        <ele>668.4</ele>
        <time>2017-02-25T16:31:12Z</time>
      </trkpt>
      <trkpt lat="45.27859" lon="5.32752">
        <ele>669.17</ele>
        <time>2017-02-25T16:31:13Z</time>
      </trkpt>
      <trkpt lat="45.27867" lon="5.32781">
        <ele>670.21</ele>
        <time>2017-02-25T16:31:14Z</time>
      </trkpt>
      <trkpt lat="45.27875" lon="5.32811">
        <ele>671.38</ele>
        <time>2017-02-25T16:31:15Z</time>
      </trkpt>
      <trkpt lat="45.27884" lon="5.3284">
        <ele>672.81</ele>
        <time>2017-02-25T16:31:16Z</time>
      </trkpt>
      <trkpt lat="45.27892" lon="5.32869">
        <ele>674.38</ele>
        <time>2017-02-25T16:31:17Z</time>
      </trkpt>
      <trkpt lat="45.27901" lon="5.32899">
        <ele>675.97</ele>
        <time>2017-02-25T16:31:18Z</time>
      </trkpt>
      <trkpt lat="45.27909" lon="5.32928">
        <ele>677.09</ele>
        <time>2017-02-25T16:31:19Z</time>
      </trkpt>
      <trkpt lat="45.27918" lon="5.32957">
        <ele>678.11</ele>
        <time>2017-02-25T16:31:20Z</time>
      </trkpt>
      <trkpt lat="45.27927" lon="5.32986">
        <ele>679.2</ele>
        <time>2017-02-25T16:31:21Z</time>
      </trkpt>
      <trkpt lat="45.27934" lon="5.33016">
        <ele>679.81</ele>
        <time>2017-02-25T16:31:22Z</time>
      </trkpt>
      <trkpt lat="45.27943" lon="5.33046">
        <ele>680.66</ele>
        <time>2017-02-25T16:31:23Z</time>
      </trkpt>
      <trkpt lat="45.27952" lon="5.33075">
        <ele>681.46</ele>
        <time>2017-02-25T16:31:24Z</time>
      </trkpt>
      <trkpt lat="45.27961" lon="5.33103">
        <ele>682.11</ele>
        <time>2017-02-25T16:31:25Z</time>
      </trkpt>
      <trkpt lat="45.27969" lon="5.33132">
        <ele>682.63</ele>
        <time>2017-02-25T16:31:26Z</time>
      </trkpt>
      <trkpt lat="45.27978" lon="5.3316">
        <ele>682.98</ele>
        <time>2017-02-25T16:31:27Z</time>
      </trkpt>
      <trkpt lat="45.27986" lon="5.33187">
        <ele>683.85</ele>
        <time>2017-02-25T16:31:28Z</time>
      </trkpt>
      <trkpt lat="45.27993" lon="5.33213">
        <ele>683.22</ele>
        <time>2017-02-25T16:31:29Z</time>
      </trkpt>
      <trkpt lat="45.27999" lon="5.33237">
        <ele>683.02</ele>
        <time>2017-02-25T16:31:30Z</time>
      </trkpt>
      <trkpt lat="45.28006" lon="5.3326">
        <ele>683.22</ele>
        <time>2017-02-25T16:31:31Z</time>
      </trkpt>
      <trkpt lat="45.28011" lon="5.3328">
        <ele>683.42</ele>
        <time>2017-02-25T16:31:32Z</time>
      </trkpt>
      <trkpt lat="45.28017" lon="5.33299">
        <ele>683.38</ele>
        <time>2017-02-25T16:31:33Z</time>
      </trkpt>
      <trkpt lat="45.28023" lon="5.33315">
        <ele>682.97</ele>
        <time>2017-02-25T16:31:34Z</time>
      </trkpt>
      <trkpt lat="45.28029" lon="5.33328">
        <ele>682.25</ele>
        <time>2017-02-25T16:31:35Z</time>
      </trkpt>
      <trkpt lat="45.28037" lon="5.33339">
        <ele>681.46</ele>
        <time>2017-02-25T16:31:36Z</time>
      </trkpt>
      <trkpt lat="45.28043" lon="5.33347">
        <ele>678.51</ele>
        <time>2017-02-25T16:31:37Z</time>
      </trkpt>
      <trkpt lat="45.28053" lon="5.33354">
        <ele>676.47</ele>
        <time>2017-02-25T16:31:38Z</time>
      </trkpt>
      <trkpt lat="45.28067" lon="5.33361">
        <ele>674.55</ele>
        <time>2017-02-25T16:31:39Z</time>
      </trkpt>
      <trkpt lat="45.28083" lon="5.3337">
        <ele>672.88</ele>
        <time>2017-02-25T16:31:40Z</time>
      </trkpt>
      <trkpt lat="45.28099" lon="5.33378">
        <ele>671.35</ele>
        <time>2017-02-25T16:31:41Z</time>
      </trkpt>
      <trkpt lat="45.28116" lon="5.33387">
        <ele>669.52</ele>
        <time>2017-02-25T16:31:42Z</time>
      </trkpt>
      <trkpt lat="45.28133" lon="5.33397">
        <ele>667.96</ele>
        <time>2017-02-25T16:31:43Z</time>
      </trkpt>
      <trkpt lat="45.2815" lon="5.33408">
        <ele>666.29</ele>
        <time>2017-02-25T16:31:44Z</time>
      </trkpt>
      <trkpt lat="45.28166" lon="5.33421">
        <ele>664.91</ele>
        <time>2017-02-25T16:31:45Z</time>
      </trkpt>
      <trkpt lat="45.28182" lon="5.33434">
        <ele>663.52</ele>
        <time>2017-02-25T16:31:46Z</time>
      </trkpt>
      <trkpt lat="45.28198" lon="5.33448">
        <ele>662.2</ele>
        <time>2017-02-25T16:31:47Z</time>
      </trkpt>
      <trkpt lat="45.28215" lon="5.33463">
        <ele>660.65</ele>
        <time>2017-02-25T16:31:48Z</time>
      </trkpt>
      <trkpt lat="45.28232" lon="5.33478">
        <ele>658.98</ele>
        <time>2017-02-25T16:31:49Z</time>
      </trkpt>
      <trkpt lat="45.28248" lon="5.33493">
        <ele>657.13</ele>
        <time>2017-02-25T16:31:50Z</time>
      </trkpt>
      <trkpt lat="45.28263" lon="5.33509">
        <ele>655.24</ele>
        <time>2017-02-25T16:31:51Z</time>
      </trkpt>
      <trkpt lat="45.28276" lon="5.33526">
        <ele>653.42</ele>
        <time>2017-02-25T16:31:52Z</time>
      </trkpt>
      <trkpt lat="45.28288" lon="5.3354">
        <ele>651.38</ele>
        <time>2017-02-25T16:31:53Z</time>
      </trkpt>
      <trkpt lat="45.28296" lon="5.33557">
        <ele>649.37</ele>
        <time>2017-02-25T16:31:54Z</time>
      </trkpt>
      <trkpt lat="45.28303" lon="5.33575">
        <ele>647.85</ele>
        <time>2017-02-25T16:31:55Z</time>
      </trkpt>
      <trkpt lat="45.28305" lon="5.33596">
        <ele>646.42</ele>
        <time>2017-02-25T16:31:56Z</time>
      </trkpt>
      <trkpt lat="45.28305" lon="5.33617">
        <ele>645.1</ele>
        <time>2017-02-25T16:31:57Z</time>
      </trkpt>
      <trkpt lat="45.28299" lon="5.3364">
        <ele>643.71</ele>
        <time>2017-02-25T16:31:58Z</time>
      </trkpt>
      <trkpt lat="45.28294" lon="5.33661">
        <ele>642.72</ele>
        <time>2017-02-25T16:31:59Z</time>
      </trkpt>
      <trkpt lat="45.2829" lon="5.33682">
        <ele>641.48</ele>
        <time>2017-02-25T16:32:00Z</time>
      </trkpt>
      <trkpt lat="45.28287" lon="5.33703">
        <ele>640.35</ele>
        <time>2017-02-25T16:32:01Z</time>
      </trkpt>
      <trkpt lat="45.28287" lon="5.33725">
        <ele>639.24</ele>
        <time>2017-02-25T16:32:02Z</time>
      </trkpt>
      <trkpt lat="45.2829" lon="5.33749">
        <ele>638.14</ele>
        <time>2017-02-25T16:32:03Z</time>
      </trkpt>
      <trkpt lat="45.28295" lon="5.33775">
        <ele>636.96</ele>
        <time>2017-02-25T16:32:04Z</time>
      </trkpt>
      <trkpt lat="45.28299" lon="5.33801">
        <ele>635.53</ele>
        <time>2017-02-25T16:32:05Z</time>
      </trkpt>
      <trkpt lat="45.28304" lon="5.33827">
        <ele>634.12</ele>
        <time>2017-02-25T16:32:06Z</time>
      </trkpt>
      <trkpt lat="45.28309" lon="5.33854">
        <ele>632.72</ele>
        <time>2017-02-25T16:32:07Z</time>
      </trkpt>
      <trkpt lat="45.28314" lon="5.33881">
        <ele>631.32</ele>
        <time>2017-02-25T16:32:08Z</time>
      </trkpt>
      <trkpt lat="45.28319" lon="5.33908">
        <ele>630</ele>
        <time>2017-02-25T16:32:09Z</time>
      </trkpt>
      <trkpt lat="45.28323" lon="5.33934">
        <ele>628.85</ele>
        <time>2017-02-25T16:32:10Z</time>
      </trkpt>
      <trkpt lat="45.28327" lon="5.33959">
        <ele>627.42</ele>
        <time>2017-02-25T16:32:11Z</time>
      </trkpt>
      <trkpt lat="45.28329" lon="5.33985">
        <ele>626.26</ele>
        <time>2017-02-25T16:32:12Z</time>
      </trkpt>
      <trkpt lat="45.28329" lon="5.34011">
        <ele>625.15</ele>
        <time>2017-02-25T16:32:13Z</time>
      </trkpt>
      <trkpt lat="45.28328" lon="5.34036">
        <ele>624.28</ele>
        <time>2017-02-25T16:32:14Z</time>
      </trkpt>
      <trkpt lat="45.28326" lon="5.34062">
        <ele>623.39</ele>
        <time>2017-02-25T16:32:15Z</time>
      </trkpt>
      <trkpt lat="45.28324" lon="5.34088">
        <ele>622.41</ele>
        <time>2017-02-25T16:32:16Z</time>
      </trkpt>
      <trkpt lat="45.28321" lon="5.34114">
        <ele>621.26</ele>
        <time>2017-02-25T16:32:17Z</time>
      </trkpt>
      <trkpt lat="45.28316" lon="5.3414">
        <ele>619.98</ele>
        <time>2017-02-25T16:32:18Z</time>
      </trkpt>
      <trkpt lat="45.2831" lon="5.34166">
        <ele>618.77</ele>
        <time>2017-02-25T16:32:19Z</time>
      </trkpt>
      <trkpt lat="45.283" lon="5.34192">
        <ele>617.41</ele>
        <time>2017-02-25T16:32:20Z</time>
      </trkpt>
      <trkpt lat="45.28291" lon="5.34217">
        <ele>616.02</ele>
        <time>2017-02-25T16:32:21Z</time>
      </trkpt>
      <trkpt lat="45.28282" lon="5.34243">
        <ele>614.7</ele>
        <time>2017-02-25T16:32:22Z</time>
      </trkpt>
      <trkpt lat="45.28273" lon="5.34269">
        <ele>613.39</ele>
        <time>2017-02-25T16:32:23Z</time>
      </trkpt>
      <trkpt lat="45.28262" lon="5.34295">
        <ele>612.17</ele>
        <time>2017-02-25T16:32:24Z</time>
      </trkpt>
      <trkpt lat="45.28252" lon="5.34318">
        <ele>610.97</ele>
        <time>2017-02-25T16:32:25Z</time>
      </trkpt>
      <trkpt lat="45.28241" lon="5.3434">
        <ele>610.01</ele>
        <time>2017-02-25T16:32:26Z</time>
      </trkpt>
      <trkpt lat="45.28231" lon="5.3436">
        <ele>609.1</ele>
        <time>2017-02-25T16:32:27Z</time>
      </trkpt>
      <trkpt lat="45.28222" lon="5.34378">
        <ele>608.11</ele>
        <time>2017-02-25T16:32:28Z</time>
      </trkpt>
      <trkpt lat="45.28215" lon="5.34397">
        <ele>607.36</ele>
        <time>2017-02-25T16:32:29Z</time>
      </trkpt>
      <trkpt lat="45.2821" lon="5.34417">
        <ele>606.64</ele>
        <time>2017-02-25T16:32:30Z</time>
      </trkpt>
      <trkpt lat="45.28205" lon="5.34439">
        <ele>606.5</ele>
        <time>2017-02-25T16:32:31Z</time>
      </trkpt>
      <trkpt lat="45.282" lon="5.34463">
        <ele>606.31</ele>
        <time>2017-02-25T16:32:32Z</time>
      </trkpt>
      <trkpt lat="45.28195" lon="5.34487">
        <ele>605.8</ele>
        <time>2017-02-25T16:32:33Z</time>
      </trkpt>
      <trkpt lat="45.28191" lon="5.34513">
        <ele>605.29</ele>
        <time>2017-02-25T16:32:34Z</time>
      </trkpt>
      <trkpt lat="45.28187" lon="5.34539">
        <ele>604.71</ele>
        <time>2017-02-25T16:32:35Z</time>
      </trkpt>
      <trkpt lat="45.28181" lon="5.34566">
        <ele>604.12</ele>
        <time>2017-02-25T16:32:36Z</time>
      </trkpt>
      <trkpt lat="45.28175" lon="5.34592">
        <ele>603.52</ele>
        <time>2017-02-25T16:32:37Z</time>
      </trkpt>
      <trkpt lat="45.28168" lon="5.34617">
        <ele>602.84</ele>
        <time>2017-02-25T16:32:38Z</time>
      </trkpt>
      <trkpt lat="45.28159" lon="5.34638">
        <ele>602.14</ele>
        <time>2017-02-25T16:32:39Z</time>
      </trkpt>
      <trkpt lat="45.28152" lon="5.34658">
        <ele>602.24</ele>
        <time>2017-02-25T16:32:40Z</time>
      </trkpt>
      <trkpt lat="45.28145" lon="5.34679">
        <ele>602.02</ele>
        <time>2017-02-25T16:32:41Z</time>
      </trkpt>
      <trkpt lat="45.28142" lon="5.34699">
        <ele>601.9</ele>
        <time>2017-02-25T16:32:42Z</time>
      </trkpt>
      <trkpt lat="45.28143" lon="5.34719">
        <ele>601.39</ele>
        <time>2017-02-25T16:32:43Z</time>
      </trkpt>
      <trkpt lat="45.28145" lon="5.34739">
        <ele>600.73</ele>
        <time>2017-02-25T16:32:44Z</time>
      </trkpt>
      <trkpt lat="45.28146" lon="5.34758">
        <ele>600.12</ele>
        <time>2017-02-25T16:32:45Z</time>
      </trkpt>
      <trkpt lat="45.28142" lon="5.34775">
        <ele>599.44</ele>
        <time>2017-02-25T16:32:46Z</time>
      </trkpt>
      <trkpt lat="45.28135" lon="5.34791">
        <ele>598.74</ele>
        <time>2017-02-25T16:32:47Z</time>
      </trkpt>
      <trkpt lat="45.28125" lon="5.34806">
        <ele>597.8</ele>
        <time>2017-02-25T16:32:48Z</time>
      </trkpt>
      <trkpt lat="45.28114" lon="5.34821">
        <ele>596.73</ele>
        <time>2017-02-25T16:32:49Z</time>
      </trkpt>
      <trkpt lat="45.28104" lon="5.34838">
        <ele>595.64</ele>
        <time>2017-02-25T16:32:50Z</time>
      </trkpt>
      <trkpt lat="45.28094" lon="5.34855">
        <ele>594.94</ele>
        <time>2017-02-25T16:32:51Z</time>
      </trkpt>
      <trkpt lat="45.28087" lon="5.34871">
        <ele>594.4</ele>
        <time>2017-02-25T16:32:52Z</time>
      </trkpt>
      <trkpt lat="45.28082" lon="5.34886">
        <ele>593.81</ele>
        <time>2017-02-25T16:32:53Z</time>
      </trkpt>
      <trkpt lat="45.28081" lon="5.349">
        <ele>593.46</ele>
        <time>2017-02-25T16:32:54Z</time>
      </trkpt>
      <trkpt lat="45.28086" lon="5.34912">
        <ele>592.98</ele>
        <time>2017-02-25T16:32:55Z</time>
      </trkpt>
      <trkpt lat="45.28092" lon="5.34923">
        <ele>592.57</ele>
        <time>2017-02-25T16:32:56Z</time>
      </trkpt>
      <trkpt lat="45.28099" lon="5.34933">
        <ele>592.01</ele>
        <time>2017-02-25T16:32:57Z</time>
      </trkpt>
      <trkpt lat="45.28113" lon="5.34938">
        <ele>591.42</ele>
        <time>2017-02-25T16:32:58Z</time>
      </trkpt>
      <trkpt lat="45.28127" lon="5.34947">
        <ele>590.66</ele>
        <time>2017-02-25T16:32:59Z</time>
      </trkpt>
      <trkpt lat="45.28141" lon="5.34958">
        <ele>589.54</ele>
        <time>2017-02-25T16:33:00Z</time>
      </trkpt>
      <trkpt lat="45.28156" lon="5.34971">
        <ele>588.44</ele>
        <time>2017-02-25T16:33:01Z</time>
      </trkpt>
      <trkpt lat="45.28171" lon="5.34985">
        <ele>587.34</ele>
        <time>2017-02-25T16:33:02Z</time>
      </trkpt>
      <trkpt lat="45.28188" lon="5.34997">
        <ele>586.56</ele>
        <time>2017-02-25T16:33:03Z</time>
      </trkpt>
      <trkpt lat="45.28206" lon="5.35008">
        <ele>586.09</ele>
        <time>2017-02-25T16:33:04Z</time>
      </trkpt>
      <trkpt lat="45.28223" lon="5.35017">
        <ele>585.51</ele>
        <time>2017-02-25T16:33:05Z</time>
      </trkpt>
      <trkpt lat="45.28241" lon="5.35024">
        <ele>584.6</ele>
        <time>2017-02-25T16:33:06Z</time>
      </trkpt>
      <trkpt lat="45.28258" lon="5.35032">
        <ele>583.45</ele>
        <time>2017-02-25T16:33:07Z</time>
      </trkpt>
      <trkpt lat="45.28273" lon="5.35041">
        <ele>582.98</ele>
        <time>2017-02-25T16:33:08Z</time>
      </trkpt>
      <trkpt lat="45.28287" lon="5.35052">
        <ele>582.25</ele>
        <time>2017-02-25T16:33:09Z</time>
      </trkpt>
      <trkpt lat="45.28299" lon="5.35065">
        <ele>581.78</ele>
        <time>2017-02-25T16:33:10Z</time>
      </trkpt>
      <trkpt lat="45.2831" lon="5.3508">
        <ele>581.37</ele>
        <time>2017-02-25T16:33:11Z</time>
      </trkpt>
      <trkpt lat="45.28319" lon="5.35098">
        <ele>580.97</ele>
        <time>2017-02-25T16:33:12Z</time>
      </trkpt>
      <trkpt lat="45.28327" lon="5.35115">
        <ele>580.73</ele>
        <time>2017-02-25T16:33:13Z</time>
      </trkpt>
      <trkpt lat="45.28335" lon="5.35133">
        <ele>580.92</ele>
        <time>2017-02-25T16:33:14Z</time>
      </trkpt>
      <trkpt lat="45.28343" lon="5.35146">
        <ele>580.88</ele>
        <time>2017-02-25T16:33:15Z</time>
      </trkpt>
      <trkpt lat="45.28352" lon="5.35153">
        <ele>580.71</ele>
        <time>2017-02-25T16:33:16Z</time>
      </trkpt>
      <trkpt lat="45.28363" lon="5.35157">
        <ele>580.36</ele>
        <time>2017-02-25T16:33:17Z</time>
      </trkpt>
      <trkpt lat="45.28374" lon="5.35158">
        <ele>579.8</ele>
        <time>2017-02-25T16:33:18Z</time>
      </trkpt>
      <trkpt lat="45.28384" lon="5.35161">
        <ele>579.45</ele>
        <time>2017-02-25T16:33:19Z</time>
      </trkpt>
      <trkpt lat="45.28392" lon="5.35168">
        <ele>579.06</ele>
        <time>2017-02-25T16:33:20Z</time>
      </trkpt>
      <trkpt lat="45.28399" lon="5.35178">
        <ele>578.91</ele>
        <time>2017-02-25T16:33:21Z</time>
      </trkpt>
      <trkpt lat="45.28403" lon="5.35191">
        <ele>578.87</ele>
        <time>2017-02-25T16:33:22Z</time>
      </trkpt>
      <trkpt lat="45.28407" lon="5.35204">
        <ele>578.95</ele>
        <time>2017-02-25T16:33:23Z</time>
      </trkpt>
      <trkpt lat="45.28409" lon="5.35216">
        <ele>578.72</ele>
        <time>2017-02-25T16:33:24Z</time>
      </trkpt>
      <trkpt lat="45.28411" lon="5.35226">
        <ele>578.36</ele>
        <time>2017-02-25T16:33:25Z</time>
      </trkpt>
      <trkpt lat="45.28413" lon="5.35233">
        <ele>578.53</ele>
        <time>2017-02-25T16:33:26Z</time>
      </trkpt>
      <trkpt lat="45.28413" lon="5.35238">
        <ele>578.56</ele>
        <time>2017-02-25T16:33:27Z</time>
      </trkpt>
      <trkpt lat="45.28412" lon="5.35241">
        <ele>578.49</ele>
        <time>2017-02-25T16:33:28Z</time>
      </trkpt>
      <trkpt lat="45.2841" lon="5.35242">
        <ele>578.31</ele>
        <time>2017-02-25T16:33:29Z</time>
      </trkpt>
      <trkpt lat="45.28408" lon="5.35243">
        <ele>578.2</ele>
        <time>2017-02-25T16:33:30Z</time>
      </trkpt>
      <trkpt lat="45.28405" lon="5.35242">
        <ele>578.25</ele>
        <time>2017-02-25T16:33:31Z</time>
      </trkpt>
      <trkpt lat="45.28399" lon="5.3524">
        <ele>577.78</ele>
        <time>2017-02-25T16:33:32Z</time>
      </trkpt>
      <trkpt lat="45.28388" lon="5.35236">
        <ele>577.45</ele>
        <time>2017-02-25T16:33:33Z</time>
      </trkpt>
      <trkpt lat="45.28378" lon="5.35233">
        <ele>576.9</ele>
        <time>2017-02-25T16:33:34Z</time>
      </trkpt>
      <trkpt lat="45.28367" lon="5.35229">
        <ele>576.55</ele>
        <time>2017-02-25T16:33:35Z</time>
      </trkpt>
      <trkpt lat="45.28356" lon="5.35222">
        <ele>576</ele>
        <time>2017-02-25T16:33:36Z</time>
      </trkpt>
      <trkpt lat="45.28346" lon="5.35213">
        <ele>575.57</ele>
        <time>2017-02-25T16:33:37Z</time>
      </trkpt>
      <trkpt lat="45.28337" lon="5.35202">
        <ele>575.17</ele>
        <time>2017-02-25T16:33:38Z</time>
      </trkpt>
      <trkpt lat="45.28327" lon="5.35186">
        <ele>574.21</ele>
        <time>2017-02-25T16:33:39Z</time>
      </trkpt>
      <trkpt lat="45.28318" lon="5.35167">
        <ele>573.54</ele>
        <time>2017-02-25T16:33:40Z</time>
      </trkpt>
      <trkpt lat="45.28308" lon="5.35148">
        <ele>573</ele>
        <time>2017-02-25T16:33:41Z</time>
      </trkpt>
      <trkpt lat="45.28295" lon="5.3513">
        <ele>572.17</ele>
        <time>2017-02-25T16:33:42Z</time>
      </trkpt>
      <trkpt lat="45.28281" lon="5.35114">
        <ele>571.37</ele>
        <time>2017-02-25T16:33:43Z</time>
      </trkpt>
      <trkpt lat="45.28266" lon="5.35099">
        <ele>570.41</ele>
        <time>2017-02-25T16:33:44Z</time>
      </trkpt>
      <trkpt lat="45.28247" lon="5.35088">
        <ele>569.74</ele>
        <time>2017-02-25T16:33:45Z</time>
      </trkpt>
      <trkpt lat="45.28226" lon="5.3508">
        <ele>568.8</ele>
        <time>2017-02-25T16:33:46Z</time>
      </trkpt>
      <trkpt lat="45.28203" lon="5.35074">
        <ele>567.89</ele>
        <time>2017-02-25T16:33:47Z</time>
      </trkpt>
      <trkpt lat="45.28181" lon="5.35069">
        <ele>566.99</ele>
        <time>2017-02-25T16:33:48Z</time>
      </trkpt>
      <trkpt lat="45.28159" lon="5.35065">
        <ele>565.85</ele>
        <time>2017-02-25T16:33:49Z</time>
      </trkpt>
      <trkpt lat="45.28137" lon="5.3506">
        <ele>564.42</ele>
        <time>2017-02-25T16:33:50Z</time>
      </trkpt>
      <trkpt lat="45.28114" lon="5.35055">
        <ele>562.94</ele>
        <time>2017-02-25T16:33:51Z</time>
      </trkpt>
      <trkpt lat="45.28092" lon="5.35049">
        <ele>561.2</ele>
        <time>2017-02-25T16:33:52Z</time>
      </trkpt>
      <trkpt lat="45.2807" lon="5.35045">
        <ele>559.65</ele>
        <time>2017-02-25T16:33:53Z</time>
      </trkpt>
      <trkpt lat="45.28049" lon="5.35042">
        <ele>558.22</ele>
        <time>2017-02-25T16:33:54Z</time>
      </trkpt>
      <trkpt lat="45.28029" lon="5.35042">
        <ele>556.74</ele>
        <time>2017-02-25T16:33:55Z</time>
      </trkpt>
      <trkpt lat="45.2801" lon="5.35042">
        <ele>555.16</ele>
        <time>2017-02-25T16:33:56Z</time>
      </trkpt>
      <trkpt lat="45.27992" lon="5.35041">
        <ele>553.57</ele>
        <time>2017-02-25T16:33:57Z</time>
      </trkpt>
      <trkpt lat="45.27974" lon="5.35036">
        <ele>551.97</ele>
        <time>2017-02-25T16:33:58Z</time>
      </trkpt>
      <trkpt lat="45.2796" lon="5.35025">
        <ele>550.37</ele>
        <time>2017-02-25T16:33:59Z</time>
      </trkpt>
      <trkpt lat="45.27948" lon="5.3501">
        <ele>548.77</ele>
        <time>2017-02-25T16:34:00Z</time>
      </trkpt>
      <trkpt lat="45.27939" lon="5.34992">
        <ele>546.93</ele>
        <time>2017-02-25T16:34:01Z</time>
      </trkpt>
      <trkpt lat="45.27932" lon="5.34973">
        <ele>544.72</ele>
        <time>2017-02-25T16:34:02Z</time>
      </trkpt>
      <trkpt lat="45.27928" lon="5.34954">
        <ele>542.92</ele>
        <time>2017-02-25T16:34:03Z</time>
      </trkpt>
      <trkpt lat="45.27928" lon="5.34935">
        <ele>540.88</ele>
        <time>2017-02-25T16:34:04Z</time>
      </trkpt>
      <trkpt lat="45.27939" lon="5.34914">
        <ele>539.27</ele>
        <time>2017-02-25T16:34:05Z</time>
      </trkpt>
      <trkpt lat="45.27945" lon="5.34891">
        <ele>537.59</ele>
        <time>2017-02-25T16:34:06Z</time>
      </trkpt>
      <trkpt lat="45.27949" lon="5.34866">
        <ele>535.57</ele>
        <time>2017-02-25T16:34:07Z</time>
      </trkpt>
      <trkpt lat="45.27949" lon="5.34839">
        <ele>533.97</ele>
        <time>2017-02-25T16:34:08Z</time>
      </trkpt>
      <trkpt lat="45.2795" lon="5.34812">
        <ele>532.37</ele>
        <time>2017-02-25T16:34:09Z</time>
      </trkpt>
      <trkpt lat="45.27948" lon="5.34787">
        <ele>530.69</ele>
        <time>2017-02-25T16:34:10Z</time>
      </trkpt>
      <trkpt lat="45.27943" lon="5.34764">
        <ele>529.47</ele>
        <time>2017-02-25T16:34:11Z</time>
      </trkpt>
      <trkpt lat="45.27936" lon="5.34746">
        <ele>528.43</ele>
        <time>2017-02-25T16:34:12Z</time>
      </trkpt>
      <trkpt lat="45.27926" lon="5.34731">
        <ele>527.66</ele>
        <time>2017-02-25T16:34:13Z</time>
      </trkpt>
      <trkpt lat="45.27915" lon="5.34719">
        <ele>526.71</ele>
        <time>2017-02-25T16:34:14Z</time>
      </trkpt>
      <trkpt lat="45.27906" lon="5.34706">
        <ele>525.47</ele>
        <time>2017-02-25T16:34:15Z</time>
      </trkpt>
      <trkpt lat="45.279" lon="5.3469">
        <ele>524.11</ele>
        <time>2017-02-25T16:34:16Z</time>
      </trkpt>
      <trkpt lat="45.27897" lon="5.34672">
        <ele>522.8</ele>
        <time>2017-02-25T16:34:17Z</time>
      </trkpt>
      <trkpt lat="45.27895" lon="5.34653">
        <ele>521.65</ele>
        <time>2017-02-25T16:34:18Z</time>
      </trkpt>
      <trkpt lat="45.27899" lon="5.34628">
        <ele>520.46</ele>
        <time>2017-02-25T16:34:19Z</time>
      </trkpt>
      <trkpt lat="45.27902" lon="5.34601">
        <ele>519.35</ele>
        <time>2017-02-25T16:34:20Z</time>
      </trkpt>
      <trkpt lat="45.27906" lon="5.34571">
        <ele>518.4</ele>
        <time>2017-02-25T16:34:21Z</time>
      </trkpt>
      <trkpt lat="45.27912" lon="5.34539">
        <ele>517.41</ele>
        <time>2017-02-25T16:34:22Z</time>
      </trkpt>
      <trkpt lat="45.27917" lon="5.34508">
        <ele>516.18</ele>
        <time>2017-02-25T16:34:23Z</time>
      </trkpt>
      <trkpt lat="45.27924" lon="5.34479">
        <ele>515.05</ele>
        <time>2017-02-25T16:34:24Z</time>
      </trkpt>
      <trkpt lat="45.27931" lon="5.34453">
        <ele>513.7</ele>
        <time>2017-02-25T16:34:25Z</time>
      </trkpt>
      <trkpt lat="45.2794" lon="5.34429">
        <ele>512.63</ele>
        <time>2017-02-25T16:34:26Z</time>
      </trkpt>
      <trkpt lat="45.27949" lon="5.34407">
        <ele>511.54</ele>
        <time>2017-02-25T16:34:27Z</time>
      </trkpt>
      <trkpt lat="45.27955" lon="5.34387">
        <ele>510.44</ele>
        <time>2017-02-25T16:34:28Z</time>
      </trkpt>
      <trkpt lat="45.27958" lon="5.34368">
        <ele>509.5</ele>
        <time>2017-02-25T16:34:29Z</time>
      </trkpt>
      <trkpt lat="45.27956" lon="5.34353">
        <ele>508.51</ele>
        <time>2017-02-25T16:34:30Z</time>
      </trkpt>
      <trkpt lat="45.27951" lon="5.34342">
        <ele>507.76</ele>
        <time>2017-02-25T16:34:31Z</time>
      </trkpt>
      <trkpt lat="45.27943" lon="5.34336">
        <ele>506.88</ele>
        <time>2017-02-25T16:34:32Z</time>
      </trkpt>
      <trkpt lat="45.27934" lon="5.34342">
        <ele>505.99</ele>
        <time>2017-02-25T16:34:33Z</time>
      </trkpt>
      <trkpt lat="45.27924" lon="5.34353">
        <ele>505.09</ele>
        <time>2017-02-25T16:34:34Z</time>
      </trkpt>
      <trkpt lat="45.27912" lon="5.34368">
        <ele>504.27</ele>
        <time>2017-02-25T16:34:35Z</time>
      </trkpt>
      <trkpt lat="45.27901" lon="5.34386">
        <ele>503.55</ele>
        <time>2017-02-25T16:34:36Z</time>
      </trkpt>
      <trkpt lat="45.27888" lon="5.34406">
        <ele>502.84</ele>
        <time>2017-02-25T16:34:37Z</time>
      </trkpt>
      <trkpt lat="45.27874" lon="5.34427">
        <ele>501.98</ele>
        <time>2017-02-25T16:34:38Z</time>
      </trkpt>
      <trkpt lat="45.27858" lon="5.34447">
        <ele>501.01</ele>
        <time>2017-02-25T16:34:39Z</time>
      </trkpt>
      <trkpt lat="45.27842" lon="5.34468">
        <ele>500.1</ele>
        <time>2017-02-25T16:34:40Z</time>
      </trkpt>
      <trkpt lat="45.27825" lon="5.34488">
        <ele>499.19</ele>
        <time>2017-02-25T16:34:41Z</time>
      </trkpt>
      <trkpt lat="45.27807" lon="5.34509">
        <ele>498.37</ele>
        <time>2017-02-25T16:34:42Z</time>
      </trkpt>
      <trkpt lat="45.2779" lon="5.3453">
        <ele>497.49</ele>
        <time>2017-02-25T16:34:43Z</time>
      </trkpt>
      <trkpt lat="45.27774" lon="5.34549">
        <ele>496.75</ele>
        <time>2017-02-25T16:34:44Z</time>
      </trkpt>
      <trkpt lat="45.27757" lon="5.34565">
        <ele>495.88</ele>
        <time>2017-02-25T16:34:45Z</time>
      </trkpt>
      <trkpt lat="45.27738" lon="5.34577">
        <ele>494.99</ele>
        <time>2017-02-25T16:34:46Z</time>
      </trkpt>
      <trkpt lat="45.27719" lon="5.34588">
        <ele>494.09</ele>
        <time>2017-02-25T16:34:47Z</time>
      </trkpt>
      <trkpt lat="45.27701" lon="5.34598">
        <ele>493.27</ele>
        <time>2017-02-25T16:34:48Z</time>
      </trkpt>
      <trkpt lat="45.27684" lon="5.34606">
        <ele>492.55</ele>
        <time>2017-02-25T16:34:49Z</time>
      </trkpt>
      <trkpt lat="45.27666" lon="5.34612">
        <ele>491.84</ele>
        <time>2017-02-25T16:34:50Z</time>
      </trkpt>
      <trkpt lat="45.27649" lon="5.34614">
        <ele>491.22</ele>
        <time>2017-02-25T16:34:51Z</time>
      </trkpt>
      <trkpt lat="45.27629" lon="5.34609">
        <ele>491.1</ele>
        <time>2017-02-25T16:34:52Z</time>
      </trkpt>
      <trkpt lat="45.27609" lon="5.34604">
        <ele>491.07</ele>
        <time>2017-02-25T16:34:53Z</time>
      </trkpt>
      <trkpt lat="45.27588" lon="5.346">
        <ele>490.75</ele>
        <time>2017-02-25T16:34:54Z</time>
      </trkpt>
      <trkpt lat="45.27566" lon="5.34596">
        <ele>490.44</ele>
        <time>2017-02-25T16:34:55Z</time>
      </trkpt>
      <trkpt lat="45.27544" lon="5.34597">
        <ele>489.98</ele>
        <time>2017-02-25T16:34:56Z</time>
      </trkpt>
      <trkpt lat="45.27522" lon="5.346">
        <ele>489.41</ele>
        <time>2017-02-25T16:34:57Z</time>
      </trkpt>
      <trkpt lat="45.27501" lon="5.34605">
        <ele>488.74</ele>
        <time>2017-02-25T16:34:58Z</time>
      </trkpt>
      <trkpt lat="45.27482" lon="5.34609">
        <ele>488.04</ele>
        <time>2017-02-25T16:34:59Z</time>
      </trkpt>
      <trkpt lat="45.27465" lon="5.34611">
        <ele>487.66</ele>
        <time>2017-02-25T16:35:00Z</time>
      </trkpt>
      <trkpt lat="45.27451" lon="5.34608">
        <ele>487.27</ele>
        <time>2017-02-25T16:35:01Z</time>
      </trkpt>
      <trkpt lat="45.27439" lon="5.34599">
        <ele>486.87</ele>
        <time>2017-02-25T16:35:02Z</time>
      </trkpt>
      <trkpt lat="45.27428" lon="5.34586">
        <ele>486.47</ele>
        <time>2017-02-25T16:35:03Z</time>
      </trkpt>
      <trkpt lat="45.27419" lon="5.34567">
        <ele>485.91</ele>
        <time>2017-02-25T16:35:04Z</time>
      </trkpt>
      <trkpt lat="45.2741" lon="5.34546">
        <ele>485.48</ele>
        <time>2017-02-25T16:35:05Z</time>
      </trkpt>
      <trkpt lat="45.27402" lon="5.34523">
        <ele>485.07</ele>
        <time>2017-02-25T16:35:06Z</time>
      </trkpt>
      <trkpt lat="45.27396" lon="5.34497">
        <ele>484.59</ele>
        <time>2017-02-25T16:35:07Z</time>
      </trkpt>
      <trkpt lat="45.27391" lon="5.34472">
        <ele>483.69</ele>
        <time>2017-02-25T16:35:08Z</time>
      </trkpt>
      <trkpt lat="45.27387" lon="5.34449">
        <ele>482.87</ele>
        <time>2017-02-25T16:35:09Z</time>
      </trkpt>
      <trkpt lat="45.2738" lon="5.34429">
        <ele>483.27</ele>
        <time>2017-02-25T16:35:10Z</time>
      </trkpt>
      <trkpt lat="45.2737" lon="5.34415">
        <ele>483.51</ele>
        <time>2017-02-25T16:35:11Z</time>
      </trkpt>
      <trkpt lat="45.27358" lon="5.34407">
        <ele>483.64</ele>
        <time>2017-02-25T16:35:12Z</time>
      </trkpt>
      <trkpt lat="45.27345" lon="5.34405">
        <ele>483.74</ele>
        <time>2017-02-25T16:35:13Z</time>
      </trkpt>
      <trkpt lat="45.27332" lon="5.34407">
        <ele>483.76</ele>
        <time>2017-02-25T16:35:14Z</time>
      </trkpt>
      <trkpt lat="45.27321" lon="5.34414">
        <ele>483.53</ele>
        <time>2017-02-25T16:35:15Z</time>
      </trkpt>
      <trkpt lat="45.27312" lon="5.3443">
        <ele>483.08</ele>
        <time>2017-02-25T16:35:16Z</time>
      </trkpt>
      <trkpt lat="45.27304" lon="5.34449">
        <ele>482.59</ele>
        <time>2017-02-25T16:35:17Z</time>
      </trkpt>
      <trkpt lat="45.273" lon="5.34473">
        <ele>481.77</ele>
        <time>2017-02-25T16:35:18Z</time>
      </trkpt>
      <trkpt lat="45.27297" lon="5.34498">
        <ele>481.05</ele>
        <time>2017-02-25T16:35:19Z</time>
      </trkpt>
      <trkpt lat="45.27291" lon="5.34522">
        <ele>480.5</ele>
        <time>2017-02-25T16:35:20Z</time>
      </trkpt>
      <trkpt lat="45.27285" lon="5.34542">
        <ele>480.07</ele>
        <time>2017-02-25T16:35:21Z</time>
      </trkpt>
      <trkpt lat="45.27277" lon="5.34556">
        <ele>479.67</ele>
        <time>2017-02-25T16:35:22Z</time>
      </trkpt>
      <trkpt lat="45.27266" lon="5.3456">
        <ele>479.83</ele>
        <time>2017-02-25T16:35:23Z</time>
      </trkpt>
      <trkpt lat="45.27251" lon="5.3456">
        <ele>479.62</ele>
        <time>2017-02-25T16:35:24Z</time>
      </trkpt>
      <trkpt lat="45.27234" lon="5.34559">
        <ele>479.18</ele>
        <time>2017-02-25T16:35:25Z</time>
      </trkpt>
      <trkpt lat="45.27216" lon="5.34557">
        <ele>478.85</ele>
        <time>2017-02-25T16:35:26Z</time>
      </trkpt>
      <trkpt lat="45.27196" lon="5.34556">
        <ele>477.98</ele>
        <time>2017-02-25T16:35:27Z</time>
      </trkpt>
      <trkpt lat="45.27177" lon="5.34554">
        <ele>477.65</ele>
        <time>2017-02-25T16:35:28Z</time>
      </trkpt>
      <trkpt lat="45.27158" lon="5.34553">
        <ele>477.82</ele>
        <time>2017-02-25T16:35:29Z</time>
      </trkpt>
      <trkpt lat="45.2714" lon="5.34551">
        <ele>477.86</ele>
        <time>2017-02-25T16:35:30Z</time>
      </trkpt>
      <trkpt lat="45.27123" lon="5.34548">
        <ele>477.87</ele>
        <time>2017-02-25T16:35:31Z</time>
      </trkpt>
      <trkpt lat="45.27107" lon="5.34544">
        <ele>477.95</ele>
        <time>2017-02-25T16:35:32Z</time>
      </trkpt>
      <trkpt lat="45.27093" lon="5.34538">
        <ele>478.12</ele>
        <time>2017-02-25T16:35:33Z</time>
      </trkpt>
      <trkpt lat="45.27083" lon="5.34529">
        <ele>478.88</ele>
        <time>2017-02-25T16:35:34Z</time>
      </trkpt>
      <trkpt lat="45.27074" lon="5.34521">
        <ele>478.95</ele>
        <time>2017-02-25T16:35:35Z</time>
      </trkpt>
      <trkpt lat="45.27065" lon="5.34516">
        <ele>478.4</ele>
        <time>2017-02-25T16:35:36Z</time>
      </trkpt>
      <trkpt lat="45.27054" lon="5.34514">
        <ele>478.37</ele>
        <time>2017-02-25T16:35:37Z</time>
      </trkpt>
      <trkpt lat="45.27041" lon="5.34515">
        <ele>478.45</ele>
        <time>2017-02-25T16:35:38Z</time>
      </trkpt>
      <trkpt lat="45.27028" lon="5.34518">
        <ele>478.54</ele>
        <time>2017-02-25T16:35:39Z</time>
      </trkpt>
      <trkpt lat="45.27017" lon="5.34523">
        <ele>478.64</ele>
        <time>2017-02-25T16:35:40Z</time>
      </trkpt>
      <trkpt lat="45.27009" lon="5.34528">
        <ele>478.82</ele>
        <time>2017-02-25T16:35:41Z</time>
      </trkpt>
      <trkpt lat="45.27004" lon="5.34531">
        <ele>479.1</ele>
        <time>2017-02-25T16:35:42Z</time>
      </trkpt>
      <trkpt lat="45.27002" lon="5.34533">
        <ele>479.39</ele>
        <time>2017-02-25T16:35:43Z</time>
      </trkpt>
      <trkpt lat="45.27002" lon="5.34534">
        <ele>479.85</ele>
        <time>2017-02-25T16:35:44Z</time>
      </trkpt>
      <trkpt lat="45.27002" lon="5.34533">
        <ele>480.74</ele>
        <time>2017-02-25T16:35:45Z</time>
      </trkpt>
      <trkpt lat="45.27003" lon="5.34533">
        <ele>481.32</ele>
        <time>2017-02-25T16:35:46Z</time>
      </trkpt>
      <trkpt lat="45.27003" lon="5.34533">
        <ele>481.44</ele>
        <time>2017-02-25T16:35:47Z</time>
      </trkpt>
      <trkpt lat="45.27003" lon="5.34533">
        <ele>481.46</ele>
        <time>2017-02-25T16:35:48Z</time>
      </trkpt>
      <trkpt lat="45.27003" lon="5.34533">
        <ele>481.47</ele>
        <time>2017-02-25T16:35:49Z</time>
      </trkpt>
      <trkpt lat="45.27003" lon="5.34533">
        <ele>481.47</ele>
        <time>2017-02-25T16:35:50Z</time>
      </trkpt>
      <trkpt lat="45.27003" lon="5.34533">
        <ele>481.47</ele>
        <time>2017-02-25T16:35:51Z</time>
      </trkpt>
      <trkpt lat="45.27003" lon="5.34533">
        <ele>481.47</ele>
        <time>2017-02-25T16:35:52Z</time>
      </trkpt>
      <trkpt lat="45.27003" lon="5.34533">
        <ele>481.47</ele>
        <time>2017-02-25T16:35:53Z</time>
      </trkpt>
      <trkpt lat="45.27003" lon="5.34533">
        <ele>481.47</ele>
        <time>2017-02-25T16:35:54Z</time>
      </trkpt>
      <trkpt lat="45.27003" lon="5.34533">
        <ele>481.47</ele>
        <time>2017-02-25T16:35:55Z</time>
      </trkpt>
      <trkpt lat="45.27003" lon="5.34533">
        <ele>481.47</ele>
        <time>2017-02-25T16:35:56Z</time>
      </trkpt>
      <trkpt lat="45.27003" lon="5.34533">
        <ele>481.47</ele>
        <time>2017-02-25T16:35:57Z</time>
      </trkpt>
      <trkpt lat="45.27003" lon="5.34533">
        <ele>481.47</ele>
        <time>2017-02-25T16:35:58Z</time>
      </trkpt>
      <trkpt lat="45.27003" lon="5.34533">
        <ele>481.47</ele>
        <time>2017-02-25T16:35:59Z</time>
      </trkpt>
      <trkpt lat="45.27003" lon="5.34533">
        <ele>481.47</ele>
        <time>2017-02-25T16:36:00Z</time>
      </trkpt>
      <trkpt lat="45.27003" lon="5.34533">
        <ele>481.47</ele>
        <time>2017-02-25T16:36:01Z</time>
      </trkpt>
      <trkpt lat="45.27003" lon="5.34533">
        <ele>481.47</ele>
        <time>2017-02-25T16:36:02Z</time>
      </trkpt>
      <trkpt lat="45.27003" lon="5.34533">
        <ele>481.47</ele>
        <time>2017-02-25T16:36:03Z</time>
      </trkpt>
      <trkpt lat="45.27003" lon="5.34533">
        <ele>481.47</ele>
        <time>2017-02-25T16:36:04Z</time>
      </trkpt>
      <trkpt lat="45.27003" lon="5.34533">
        <ele>481.47</ele>
        <time>2017-02-25T16:36:05Z</time>
      </trkpt>
      <trkpt lat="45.27003" lon="5.34533">
        <ele>481.47</ele>
        <time>2017-02-25T16:36:06Z</time>
      </trkpt>
      <trkpt lat="45.27003" lon="5.34533">
        <ele>481.47</ele>
        <time>2017-02-25T16:36:07Z</time>
      </trkpt>
      <trkpt lat="45.27003" lon="5.34533">
        <ele>481.47</ele>
        <time>2017-02-25T16:36:08Z</time>
      </trkpt>
      <trkpt lat="45.27003" lon="5.34533">
        <ele>481.47</ele>
        <time>2017-02-25T16:36:09Z</time>
      </trkpt>
      <trkpt lat="45.27003" lon="5.34533">
        <ele>481.47</ele>
        <time>2017-02-25T16:36:10Z</time>
      </trkpt>
      <trkpt lat="45.27003" lon="5.34533">
        <ele>481.47</ele>
        <time>2017-02-25T16:36:11Z</time>
      </trkpt>
      <trkpt lat="45.27003" lon="5.34533">
        <ele>481.47</ele>
        <time>2017-02-25T16:36:12Z</time>
      </trkpt>
      <trkpt lat="45.27003" lon="5.34533">
        <ele>481.47</ele>
        <time>2017-02-25T16:36:13Z</time>
      </trkpt>
      <trkpt lat="45.27003" lon="5.34533">
        <ele>481.47</ele>
        <time>2017-02-25T16:36:14Z</time>
      </trkpt>
      <trkpt lat="45.27003" lon="5.34533">
        <ele>481.47</ele>
        <time>2017-02-25T16:36:15Z</time>
      </trkpt>
      <trkpt lat="45.27003" lon="5.34533">
        <ele>481.47</ele>
        <time>2017-02-25T16:36:16Z</time>
      </trkpt>
      <trkpt lat="45.27003" lon="5.34533">
        <ele>481.47</ele>
        <time>2017-02-25T16:36:17Z</time>
      </trkpt>
      <trkpt lat="45.27003" lon="5.34533">
        <ele>481.47</ele>
        <time>2017-02-25T16:36:18Z</time>
      </trkpt>
      <trkpt lat="45.27003" lon="5.34533">
        <ele>481.47</ele>
        <time>2017-02-25T16:36:19Z</time>
      </trkpt>
      <trkpt lat="45.27003" lon="5.34533">
        <ele>481.47</ele>
        <time>2017-02-25T16:36:20Z</time>
      </trkpt>
      <trkpt lat="45.27003" lon="5.34533">
        <ele>481.47</ele>
        <time>2017-02-25T16:36:21Z</time>
      </trkpt>
      <trkpt lat="45.27003" lon="5.34533">
        <ele>481.47</ele>
        <time>2017-02-25T16:36:22Z</time>
      </trkpt>
      <trkpt lat="45.27003" lon="5.34533">
        <ele>481.47</ele>
        <time>2017-02-25T16:36:23Z</time>
      </trkpt>
      <trkpt lat="45.27003" lon="5.34533">
        <ele>481.47</ele>
        <time>2017-02-25T16:36:24Z</time>
      </trkpt>
      <trkpt lat="45.27003" lon="5.34533">
        <ele>481.47</ele>
        <time>2017-02-25T16:36:25Z</time>
      </trkpt>
      <trkpt lat="45.27003" lon="5.34533">
        <ele>481.47</ele>
        <time>2017-02-25T16:36:26Z</time>
      </trkpt>
      <trkpt lat="45.27003" lon="5.34533">
        <ele>481.47</ele>
        <time>2017-02-25T16:36:27Z</time>
      </trkpt>
      <trkpt lat="45.27003" lon="5.34533">
        <ele>481.47</ele>
        <time>2017-02-25T16:36:28Z</time>
      </trkpt>
      <trkpt lat="45.27003" lon="5.34533">
        <ele>481.47</ele>
        <time>2017-02-25T16:36:29Z</time>
      </trkpt>
      <trkpt lat="45.27" lon="5.34536">
        <ele>482.51</ele>
        <time>2017-02-25T16:36:30Z</time>
      </trkpt>
      <trkpt lat="45.26994" lon="5.3454">
        <ele>482.39</ele>
        <time>2017-02-25T16:36:31Z</time>
      </trkpt>
      <trkpt lat="45.26987" lon="5.34546">
        <ele>481.97</ele>
        <time>2017-02-25T16:36:32Z</time>
      </trkpt>
      <trkpt lat="45.26979" lon="5.34553">
        <ele>481.49</ele>
        <time>2017-02-25T16:36:33Z</time>
      </trkpt>
      <trkpt lat="45.26969" lon="5.3456">
        <ele>481.07</ele>
        <time>2017-02-25T16:36:34Z</time>
      </trkpt>
      <trkpt lat="45.26958" lon="5.34567">
        <ele>480.51</ele>
        <time>2017-02-25T16:36:35Z</time>
      </trkpt>
      <trkpt lat="45.26947" lon="5.34573">
        <ele>480</ele>
        <time>2017-02-25T16:36:36Z</time>
      </trkpt>
      <trkpt lat="45.26933" lon="5.3458">
        <ele>479.49</ele>
        <time>2017-02-25T16:36:37Z</time>
      </trkpt>
      <trkpt lat="45.26919" lon="5.34584">
        <ele>478.91</ele>
        <time>2017-02-25T16:36:38Z</time>
      </trkpt>
      <trkpt lat="45.26904" lon="5.3459">
        <ele>478.32</ele>
        <time>2017-02-25T16:36:39Z</time>
      </trkpt>
      <trkpt lat="45.26891" lon="5.34596">
        <ele>477.72</ele>
        <time>2017-02-25T16:36:40Z</time>
      </trkpt>
      <trkpt lat="45.26878" lon="5.34604">
        <ele>477.04</ele>
        <time>2017-02-25T16:36:41Z</time>
      </trkpt>
      <trkpt lat="45.26866" lon="5.34612">
        <ele>476.42</ele>
        <time>2017-02-25T16:36:42Z</time>
      </trkpt>
      <trkpt lat="45.26856" lon="5.34621">
        <ele>475.82</ele>
        <time>2017-02-25T16:36:43Z</time>
      </trkpt>
      <trkpt lat="45.26848" lon="5.34631">
        <ele>475.22</ele>
        <time>2017-02-25T16:36:44Z</time>
      </trkpt>
      <trkpt lat="45.26854" lon="5.34657">
        <ele>474.46</ele>
        <time>2017-02-25T16:36:45Z</time>
      </trkpt>
      <trkpt lat="45.26856" lon="5.34677">
        <ele>473.9</ele>
        <time>2017-02-25T16:36:46Z</time>
      </trkpt>
      <trkpt lat="45.26859" lon="5.34695">
        <ele>473.31</ele>
        <time>2017-02-25T16:36:47Z</time>
      </trkpt>
      <trkpt lat="45.26863" lon="5.34712">
        <ele>472.64</ele>
        <time>2017-02-25T16:36:48Z</time>
      </trkpt>
      <trkpt lat="45.26868" lon="5.34729">
        <ele>472.02</ele>
        <time>2017-02-25T16:36:49Z</time>
      </trkpt>
      <trkpt lat="45.26873" lon="5.34746">
        <ele>471.42</ele>
        <time>2017-02-25T16:36:50Z</time>
      </trkpt>
      <trkpt lat="45.26879" lon="5.34764">
        <ele>470.74</ele>
        <time>2017-02-25T16:36:51Z</time>
      </trkpt>
      <trkpt lat="45.2688" lon="5.34783">
        <ele>470.2</ele>
        <time>2017-02-25T16:36:52Z</time>
      </trkpt>
      <trkpt lat="45.26878" lon="5.348">
        <ele>469.61</ele>
        <time>2017-02-25T16:36:53Z</time>
      </trkpt>
      <trkpt lat="45.26871" lon="5.34817">
        <ele>469.02</ele>
        <time>2017-02-25T16:36:54Z</time>
      </trkpt>
      <trkpt lat="45.26861" lon="5.34834">
        <ele>468.26</ele>
        <time>2017-02-25T16:36:55Z</time>
      </trkpt>
      <trkpt lat="45.2685" lon="5.34851">
        <ele>467.38</ele>
        <time>2017-02-25T16:36:56Z</time>
      </trkpt>
      <trkpt lat="45.26838" lon="5.34869">
        <ele>466.57</ele>
        <time>2017-02-25T16:36:57Z</time>
      </trkpt>
      <trkpt lat="45.26824" lon="5.34888">
        <ele>465.69</ele>
        <time>2017-02-25T16:36:58Z</time>
      </trkpt>
      <trkpt lat="45.26809" lon="5.34905">
        <ele>464.71</ele>
        <time>2017-02-25T16:36:59Z</time>
      </trkpt>
      <trkpt lat="45.26792" lon="5.3492">
        <ele>463.8</ele>
        <time>2017-02-25T16:37:00Z</time>
      </trkpt>
      <trkpt lat="45.26774" lon="5.34933">
        <ele>462.89</ele>
        <time>2017-02-25T16:37:01Z</time>
      </trkpt>
      <trkpt lat="45.26752" lon="5.3494">
        <ele>461.67</ele>
        <time>2017-02-25T16:37:02Z</time>
      </trkpt>
      <trkpt lat="45.2673" lon="5.34947">
        <ele>460.47</ele>
        <time>2017-02-25T16:37:03Z</time>
      </trkpt>
      <trkpt lat="45.26708" lon="5.34954">
        <ele>459.43</ele>
        <time>2017-02-25T16:37:04Z</time>
      </trkpt>
      <trkpt lat="45.26686" lon="5.34954">
        <ele>458.18</ele>
        <time>2017-02-25T16:37:05Z</time>
      </trkpt>
      <trkpt lat="45.26663" lon="5.34953">
        <ele>457.13</ele>
        <time>2017-02-25T16:37:06Z</time>
      </trkpt>
      <trkpt lat="45.2664" lon="5.3495">
        <ele>456.2</ele>
        <time>2017-02-25T16:37:07Z</time>
      </trkpt>
      <trkpt lat="45.26617" lon="5.34947">
        <ele>455.21</ele>
        <time>2017-02-25T16:37:08Z</time>
      </trkpt>
      <trkpt lat="45.26595" lon="5.34943">
        <ele>454.22</ele>
        <time>2017-02-25T16:37:09Z</time>
      </trkpt>
      <trkpt lat="45.26574" lon="5.34938">
        <ele>453.22</ele>
        <time>2017-02-25T16:37:10Z</time>
      </trkpt>
      <trkpt lat="45.26554" lon="5.34933">
        <ele>452.22</ele>
        <time>2017-02-25T16:37:11Z</time>
      </trkpt>
      <trkpt lat="45.26535" lon="5.34931">
        <ele>451.14</ele>
        <time>2017-02-25T16:37:12Z</time>
      </trkpt>
      <trkpt lat="45.26516" lon="5.34931">
        <ele>450.04</ele>
        <time>2017-02-25T16:37:13Z</time>
      </trkpt>
      <trkpt lat="45.26497" lon="5.34934">
        <ele>449.02</ele>
        <time>2017-02-25T16:37:14Z</time>
      </trkpt>
      <trkpt lat="45.26479" lon="5.34938">
        <ele>448.18</ele>
        <time>2017-02-25T16:37:15Z</time>
      </trkpt>
      <trkpt lat="45.26461" lon="5.34943">
        <ele>447.29</ele>
        <time>2017-02-25T16:37:16Z</time>
      </trkpt>
      <trkpt lat="45.26445" lon="5.3495">
        <ele>446.23</ele>
        <time>2017-02-25T16:37:17Z</time>
      </trkpt>
      <trkpt lat="45.26435" lon="5.3497">
        <ele>445.06</ele>
        <time>2017-02-25T16:37:18Z</time>
      </trkpt>
      <trkpt lat="45.26433" lon="5.34996">
        <ele>443.71</ele>
        <time>2017-02-25T16:37:19Z</time>
      </trkpt>
      <trkpt lat="45.2643" lon="5.35023">
        <ele>442.31</ele>
        <time>2017-02-25T16:37:20Z</time>
      </trkpt>
      <trkpt lat="45.26429" lon="5.35054">
        <ele>440.92</ele>
        <time>2017-02-25T16:37:21Z</time>
      </trkpt>
      <trkpt lat="45.26428" lon="5.35087">
        <ele>439.68</ele>
        <time>2017-02-25T16:37:22Z</time>
      </trkpt>
      <trkpt lat="45.26428" lon="5.35126">
        <ele>437.83</ele>
        <time>2017-02-25T16:37:23Z</time>
      </trkpt>
      <trkpt lat="45.26428" lon="5.35165">
        <ele>435.86</ele>
        <time>2017-02-25T16:37:24Z</time>
      </trkpt>
      <trkpt lat="45.26428" lon="5.35205">
        <ele>434.11</ele>
        <time>2017-02-25T16:37:25Z</time>
      </trkpt>
      <trkpt lat="45.26428" lon="5.35246">
        <ele>431.83</ele>
        <time>2017-02-25T16:37:26Z</time>
      </trkpt>
      <trkpt lat="45.26427" lon="5.35285">
        <ele>429.94</ele>
        <time>2017-02-25T16:37:27Z</time>
      </trkpt>
      <trkpt lat="45.26425" lon="5.35322">
        <ele>428.6</ele>
        <time>2017-02-25T16:37:28Z</time>
      </trkpt>
      <trkpt lat="45.26423" lon="5.35359">
        <ele>427.45</ele>
        <time>2017-02-25T16:37:29Z</time>
      </trkpt>
      <trkpt lat="45.26422" lon="5.35397">
        <ele>426.34</ele>
        <time>2017-02-25T16:37:30Z</time>
      </trkpt>
      <trkpt lat="45.2642" lon="5.35434">
        <ele>425.08</ele>
        <time>2017-02-25T16:37:31Z</time>
      </trkpt>
      <trkpt lat="45.26419" lon="5.35471">
        <ele>423.47</ele>
        <time>2017-02-25T16:37:32Z</time>
      </trkpt>
      <trkpt lat="45.26417" lon="5.35508">
        <ele>422.03</ele>
        <time>2017-02-25T16:37:33Z</time>
      </trkpt>
      <trkpt lat="45.26416" lon="5.35542">
        <ele>420.7</ele>
        <time>2017-02-25T16:37:34Z</time>
      </trkpt>
      <trkpt lat="45.26414" lon="5.35575">
        <ele>419.07</ele>
        <time>2017-02-25T16:37:35Z</time>
      </trkpt>
      <trkpt lat="45.26412" lon="5.35606">
        <ele>417.71</ele>
        <time>2017-02-25T16:37:36Z</time>
      </trkpt>
      <trkpt lat="45.26407" lon="5.35633">
        <ele>415.92</ele>
        <time>2017-02-25T16:37:37Z</time>
      </trkpt>
      <trkpt lat="45.264" lon="5.35658">
        <ele>414.12</ele>
        <time>2017-02-25T16:37:38Z</time>
      </trkpt>
      <trkpt lat="45.2639" lon="5.35682">
        <ele>412.56</ele>
        <time>2017-02-25T16:37:39Z</time>
      </trkpt>
      <trkpt lat="45.26377" lon="5.35705">
        <ele>411.12</ele>
        <time>2017-02-25T16:37:40Z</time>
      </trkpt>
      <trkpt lat="45.26363" lon="5.35729">
        <ele>409.8</ele>
        <time>2017-02-25T16:37:41Z</time>
      </trkpt>
      <trkpt lat="45.26348" lon="5.35753">
        <ele>408.41</ele>
        <time>2017-02-25T16:37:42Z</time>
      </trkpt>
      <trkpt lat="45.26333" lon="5.35778">
        <ele>406.94</ele>
        <time>2017-02-25T16:37:43Z</time>
      </trkpt>
      <trkpt lat="45.26316" lon="5.35802">
        <ele>405.44</ele>
        <time>2017-02-25T16:37:44Z</time>
      </trkpt>
      <trkpt lat="45.26299" lon="5.35824">
        <ele>403.94</ele>
        <time>2017-02-25T16:37:45Z</time>
      </trkpt>
      <trkpt lat="45.26281" lon="5.35845">
        <ele>402.44</ele>
        <time>2017-02-25T16:37:46Z</time>
      </trkpt>
      <trkpt lat="45.26261" lon="5.35865">
        <ele>400.7</ele>
        <time>2017-02-25T16:37:47Z</time>
      </trkpt>
      <trkpt lat="45.26241" lon="5.35885">
        <ele>398.99</ele>
        <time>2017-02-25T16:37:48Z</time>
      </trkpt>
      <trkpt lat="45.26221" lon="5.35904">
        <ele>397.21</ele>
        <time>2017-02-25T16:37:49Z</time>
      </trkpt>
      <trkpt lat="45.26202" lon="5.3592">
        <ele>395.58</ele>
        <time>2017-02-25T16:37:50Z</time>
      </trkpt>
      <trkpt lat="45.26183" lon="5.35935">
        <ele>394.13</ele>
        <time>2017-02-25T16:37:51Z</time>
      </trkpt>
      <trkpt lat="45.26165" lon="5.35947">
        <ele>392.8</ele>
        <time>2017-02-25T16:37:52Z</time>
      </trkpt>
      <trkpt lat="45.26149" lon="5.35958">
        <ele>391.49</ele>
        <time>2017-02-25T16:37:53Z</time>
      </trkpt>
      <trkpt lat="45.26135" lon="5.35966">
        <ele>390.35</ele>
        <time>2017-02-25T16:37:54Z</time>
      </trkpt>
      <trkpt lat="45.26122" lon="5.35976">
        <ele>389.24</ele>
        <time>2017-02-25T16:37:55Z</time>
      </trkpt>
      <trkpt lat="45.26114" lon="5.35991">
        <ele>388.22</ele>
        <time>2017-02-25T16:37:56Z</time>
      </trkpt>
      <trkpt lat="45.26106" lon="5.36007">
        <ele>387.3</ele>
        <time>2017-02-25T16:37:57Z</time>
      </trkpt>
      <trkpt lat="45.26099" lon="5.36024">
        <ele>386.87</ele>
        <time>2017-02-25T16:37:58Z</time>
      </trkpt>
      <trkpt lat="45.26092" lon="5.36043">
        <ele>386.55</ele>
        <time>2017-02-25T16:37:59Z</time>
      </trkpt>
      <trkpt lat="45.26093" lon="5.36069">
        <ele>386.48</ele>
        <time>2017-02-25T16:38:00Z</time>
      </trkpt>
      <trkpt lat="45.26095" lon="5.36098">
        <ele>386.23</ele>
        <time>2017-02-25T16:38:01Z</time>
      </trkpt>
      <trkpt lat="45.26093" lon="5.36126">
        <ele>385.62</ele>
        <time>2017-02-25T16:38:02Z</time>
      </trkpt>
      <trkpt lat="45.2609" lon="5.36155">
        <ele>385.26</ele>
        <time>2017-02-25T16:38:03Z</time>
      </trkpt>
      <trkpt lat="45.26085" lon="5.36184">
        <ele>384.55</ele>
        <time>2017-02-25T16:38:04Z</time>
      </trkpt>
      <trkpt lat="45.2608" lon="5.36212">
        <ele>383.68</ele>
        <time>2017-02-25T16:38:05Z</time>
      </trkpt>
      <trkpt lat="45.26075" lon="5.3624">
        <ele>382.79</ele>
        <time>2017-02-25T16:38:06Z</time>
      </trkpt>
      <trkpt lat="45.26071" lon="5.36265">
        <ele>381.73</ele>
        <time>2017-02-25T16:38:07Z</time>
      </trkpt>
      <trkpt lat="45.26068" lon="5.36289">
        <ele>380.96</ele>
        <time>2017-02-25T16:38:08Z</time>
      </trkpt>
      <trkpt lat="45.26068" lon="5.36314">
        <ele>380.41</ele>
        <time>2017-02-25T16:38:09Z</time>
      </trkpt>
      <trkpt lat="45.26072" lon="5.36338">
        <ele>379.73</ele>
        <time>2017-02-25T16:38:10Z</time>
      </trkpt>
      <trkpt lat="45.26078" lon="5.36362">
        <ele>379.28</ele>
        <time>2017-02-25T16:38:11Z</time>
      </trkpt>
      <trkpt lat="45.26086" lon="5.36383">
        <ele>378.63</ele>
        <time>2017-02-25T16:38:12Z</time>
      </trkpt>
      <trkpt lat="45.26095" lon="5.36403">
        <ele>378.18</ele>
        <time>2017-02-25T16:38:13Z</time>
      </trkpt>
      <trkpt lat="45.26103" lon="5.36422">
        <ele>377.29</ele>
        <time>2017-02-25T16:38:14Z</time>
      </trkpt>
      <trkpt lat="45.2611" lon="5.3644">
        <ele>376.31</ele>
        <time>2017-02-25T16:38:15Z</time>
      </trkpt>
      <trkpt lat="45.26114" lon="5.36458">
        <ele>375.24</ele>
        <time>2017-02-25T16:38:16Z</time>
      </trkpt>
      <trkpt lat="45.26112" lon="5.36477">
        <ele>374.46</ele>
        <time>2017-02-25T16:38:17Z</time>
      </trkpt>
      <trkpt lat="45.26109" lon="5.36497">
        <ele>373.75</ele>
        <time>2017-02-25T16:38:18Z</time>
      </trkpt>
      <trkpt lat="45.26103" lon="5.36519">
        <ele>373.12</ele>
        <time>2017-02-25T16:38:19Z</time>
      </trkpt>
      <trkpt lat="45.26096" lon="5.36542">
        <ele>372.6</ele>
        <time>2017-02-25T16:38:20Z</time>
      </trkpt>
      <trkpt lat="45.26087" lon="5.36568">
        <ele>372.17</ele>
        <time>2017-02-25T16:38:21Z</time>
      </trkpt>
      <trkpt lat="45.26078" lon="5.36595">
        <ele>371.85</ele>
        <time>2017-02-25T16:38:22Z</time>
      </trkpt>
      <trkpt lat="45.2607" lon="5.36622">
        <ele>371.7</ele>
        <time>2017-02-25T16:38:23Z</time>
      </trkpt>
      <trkpt lat="45.2606" lon="5.36649">
        <ele>371.35</ele>
        <time>2017-02-25T16:38:24Z</time>
      </trkpt>
      <trkpt lat="45.26051" lon="5.36676">
        <ele>371.52</ele>
        <time>2017-02-25T16:38:25Z</time>
      </trkpt>
      <trkpt lat="45.26043" lon="5.36702">
        <ele>371.72</ele>
        <time>2017-02-25T16:38:26Z</time>
      </trkpt>
      <trkpt lat="45.26035" lon="5.36729">
        <ele>371.68</ele>
        <time>2017-02-25T16:38:27Z</time>
      </trkpt>
      <trkpt lat="45.26029" lon="5.36756">
        <ele>371.59</ele>
        <time>2017-02-25T16:38:28Z</time>
      </trkpt>
      <trkpt lat="45.26027" lon="5.36785">
        <ele>371.25</ele>
        <time>2017-02-25T16:38:29Z</time>
      </trkpt>
      <trkpt lat="45.26027" lon="5.36815">
        <ele>371.74</ele>
        <time>2017-02-25T16:38:30Z</time>
      </trkpt>
      <trkpt lat="45.26027" lon="5.36845">
        <ele>371.6</ele>
        <time>2017-02-25T16:38:31Z</time>
      </trkpt>
      <trkpt lat="45.26028" lon="5.36875">
        <ele>371.65</ele>
        <time>2017-02-25T16:38:32Z</time>
      </trkpt>
      <trkpt lat="45.26027" lon="5.36905">
        <ele>371.42</ele>
        <time>2017-02-25T16:38:33Z</time>
      </trkpt>
      <trkpt lat="45.26026" lon="5.36933">
        <ele>371.38</ele>
        <time>2017-02-25T16:38:34Z</time>
      </trkpt>
      <trkpt lat="45.26023" lon="5.3696">
        <ele>371.05</ele>
        <time>2017-02-25T16:38:35Z</time>
      </trkpt>
      <trkpt lat="45.26018" lon="5.36988">
        <ele>370.58</ele>
        <time>2017-02-25T16:38:36Z</time>
      </trkpt>
      <trkpt lat="45.26004" lon="5.37011">
        <ele>370.09</ele>
        <time>2017-02-25T16:38:37Z</time>
      </trkpt>
      <trkpt lat="45.25992" lon="5.37036">
        <ele>369.51</ele>
        <time>2017-02-25T16:38:38Z</time>
      </trkpt>
      <trkpt lat="45.25979" lon="5.3706">
        <ele>368.84</ele>
        <time>2017-02-25T16:38:39Z</time>
      </trkpt>
      <trkpt lat="45.25965" lon="5.37083">
        <ele>368.14</ele>
        <time>2017-02-25T16:38:40Z</time>
      </trkpt>
      <trkpt lat="45.25951" lon="5.37103">
        <ele>367.28</ele>
        <time>2017-02-25T16:38:41Z</time>
      </trkpt>
      <trkpt lat="45.25937" lon="5.37122">
        <ele>366.39</ele>
        <time>2017-02-25T16:38:42Z</time>
      </trkpt>
      <trkpt lat="45.25925" lon="5.3714">
        <ele>365.73</ele>
        <time>2017-02-25T16:38:43Z</time>
      </trkpt>
      <trkpt lat="45.25914" lon="5.37159">
        <ele>365.2</ele>
        <time>2017-02-25T16:38:44Z</time>
      </trkpt>
      <trkpt lat="45.25904" lon="5.37178">
        <ele>364.77</ele>
        <time>2017-02-25T16:38:45Z</time>
      </trkpt>
      <trkpt lat="45.25893" lon="5.37196">
        <ele>364.69</ele>
        <time>2017-02-25T16:38:46Z</time>
      </trkpt>
      <trkpt lat="45.25883" lon="5.37215">
        <ele>364.67</ele>
        <time>2017-02-25T16:38:47Z</time>
      </trkpt>
      <trkpt lat="45.25874" lon="5.37234">
        <ele>364.51</ele>
        <time>2017-02-25T16:38:48Z</time>
      </trkpt>
      <trkpt lat="45.25867" lon="5.37252">
        <ele>364.88</ele>
        <time>2017-02-25T16:38:49Z</time>
      </trkpt>
      <trkpt lat="45.25861" lon="5.3727">
        <ele>364.47</ele>
        <time>2017-02-25T16:38:50Z</time>
      </trkpt>
      <trkpt lat="45.25854" lon="5.37287">
        <ele>364.07</ele>
        <time>2017-02-25T16:38:51Z</time>
      </trkpt>
      <trkpt lat="45.25847" lon="5.37305">
        <ele>363.67</ele>
        <time>2017-02-25T16:38:52Z</time>
      </trkpt>
      <trkpt lat="45.25839" lon="5.37322">
        <ele>363.27</ele>
        <time>2017-02-25T16:38:53Z</time>
      </trkpt>
      <trkpt lat="45.25831" lon="5.37339">
        <ele>362.95</ele>
        <time>2017-02-25T16:38:54Z</time>
      </trkpt>
      <trkpt lat="45.25823" lon="5.37354">
        <ele>362.88</ele>
        <time>2017-02-25T16:38:55Z</time>
      </trkpt>
      <trkpt lat="45.25816" lon="5.37368">
        <ele>362.79</ele>
        <time>2017-02-25T16:38:56Z</time>
      </trkpt>
      <trkpt lat="45.25808" lon="5.37382">
        <ele>363.17</ele>
        <time>2017-02-25T16:38:57Z</time>
      </trkpt>
      <trkpt lat="45.25803" lon="5.37396">
        <ele>363.73</ele>
        <time>2017-02-25T16:38:58Z</time>
      </trkpt>
      <trkpt lat="45.25801" lon="5.37413">
        <ele>364</ele>
        <time>2017-02-25T16:38:59Z</time>
      </trkpt>
      <trkpt lat="45.25804" lon="5.37433">
        <ele>364.21</ele>
        <time>2017-02-25T16:39:00Z</time>
      </trkpt>
      <trkpt lat="45.25805" lon="5.37452">
        <ele>364.26</ele>
        <time>2017-02-25T16:39:01Z</time>
      </trkpt>
      <trkpt lat="45.25805" lon="5.3747">
        <ele>364.34</ele>
        <time>2017-02-25T16:39:02Z</time>
      </trkpt>
      <trkpt lat="45.25805" lon="5.37489">
        <ele>364.44</ele>
        <time>2017-02-25T16:39:03Z</time>
      </trkpt>
      <trkpt lat="45.25805" lon="5.37507">
        <ele>364.38</ele>
        <time>2017-02-25T16:39:04Z</time>
      </trkpt>
      <trkpt lat="45.25805" lon="5.37526">
        <ele>364.21</ele>
        <time>2017-02-25T16:39:05Z</time>
      </trkpt>
      <trkpt lat="45.25804" lon="5.37544">
        <ele>364.02</ele>
        <time>2017-02-25T16:39:06Z</time>
      </trkpt>
      <trkpt lat="45.258" lon="5.37562">
        <ele>363.1</ele>
        <time>2017-02-25T16:39:07Z</time>
      </trkpt>
      <trkpt lat="45.25797" lon="5.37581">
        <ele>362.35</ele>
        <time>2017-02-25T16:39:08Z</time>
      </trkpt>
      <trkpt lat="45.25794" lon="5.37599">
        <ele>361.88</ele>
        <time>2017-02-25T16:39:09Z</time>
      </trkpt>
      <trkpt lat="45.25791" lon="5.37616">
        <ele>361.63</ele>
        <time>2017-02-25T16:39:10Z</time>
      </trkpt>
      <trkpt lat="45.25789" lon="5.37634">
        <ele>361.26</ele>
        <time>2017-02-25T16:39:11Z</time>
      </trkpt>
      <trkpt lat="45.25785" lon="5.37651">
        <ele>360.79</ele>
        <time>2017-02-25T16:39:12Z</time>
      </trkpt>
      <trkpt lat="45.25782" lon="5.37669">
        <ele>360.45</ele>
        <time>2017-02-25T16:39:13Z</time>
      </trkpt>
      <trkpt lat="45.25777" lon="5.37687">
        <ele>360.14</ele>
        <time>2017-02-25T16:39:14Z</time>
      </trkpt>
      <trkpt lat="45.2577" lon="5.37706">
        <ele>359.68</ele>
        <time>2017-02-25T16:39:15Z</time>
      </trkpt>
      <trkpt lat="45.25763" lon="5.37727">
        <ele>359.19</ele>
        <time>2017-02-25T16:39:16Z</time>
      </trkpt>
      <trkpt lat="45.25755" lon="5.37748">
        <ele>358.77</ele>
        <time>2017-02-25T16:39:17Z</time>
      </trkpt>
      <trkpt lat="45.25746" lon="5.37769">
        <ele>358.29</ele>
        <time>2017-02-25T16:39:18Z</time>
      </trkpt>
      <trkpt lat="45.25735" lon="5.37789">
        <ele>357.79</ele>
        <time>2017-02-25T16:39:19Z</time>
      </trkpt>
      <trkpt lat="45.25723" lon="5.37808">
        <ele>357.29</ele>
        <time>2017-02-25T16:39:20Z</time>
      </trkpt>
      <trkpt lat="45.25711" lon="5.37828">
        <ele>356.63</ele>
        <time>2017-02-25T16:39:21Z</time>
      </trkpt>
      <trkpt lat="45.25698" lon="5.37846">
        <ele>356.66</ele>
        <time>2017-02-25T16:39:22Z</time>
      </trkpt>
      <trkpt lat="45.25686" lon="5.37867">
        <ele>356.35</ele>
        <time>2017-02-25T16:39:23Z</time>
      </trkpt>
      <trkpt lat="45.25676" lon="5.37888">
        <ele>356.12</ele>
        <time>2017-02-25T16:39:24Z</time>
      </trkpt>
      <trkpt lat="45.25667" lon="5.37911">
        <ele>356</ele>
        <time>2017-02-25T16:39:25Z</time>
      </trkpt>
      <trkpt lat="45.2566" lon="5.37934">
        <ele>355.89</ele>
        <time>2017-02-25T16:39:26Z</time>
      </trkpt>
      <trkpt lat="45.25653" lon="5.37957">
        <ele>355.87</ele>
        <time>2017-02-25T16:39:27Z</time>
      </trkpt>
      <trkpt lat="45.25648" lon="5.37979">
        <ele>355.79</ele>
        <time>2017-02-25T16:39:28Z</time>
      </trkpt>
      <trkpt lat="45.25642" lon="5.38001">
        <ele>355.53</ele>
        <time>2017-02-25T16:39:29Z</time>
      </trkpt>
      <trkpt lat="45.25633" lon="5.38021">
        <ele>355.16</ele>
        <time>2017-02-25T16:39:30Z</time>
      </trkpt>
      <trkpt lat="45.25622" lon="5.38039">
        <ele>354.85</ele>
        <time>2017-02-25T16:39:31Z</time>
      </trkpt>
      <trkpt lat="45.25609" lon="5.38053">
        <ele>354.46</ele>
        <time>2017-02-25T16:39:32Z</time>
      </trkpt>
      <trkpt lat="45.25595" lon="5.38068">
        <ele>354.07</ele>
        <time>2017-02-25T16:39:33Z</time>
      </trkpt>
      <trkpt lat="45.25581" lon="5.38083">
        <ele>353.67</ele>
        <time>2017-02-25T16:39:34Z</time>
      </trkpt>
      <trkpt lat="45.25567" lon="5.38098">
        <ele>353.35</ele>
        <time>2017-02-25T16:39:35Z</time>
      </trkpt>
      <trkpt lat="45.25553" lon="5.38113">
        <ele>352.88</ele>
        <time>2017-02-25T16:39:36Z</time>
      </trkpt>
      <trkpt lat="45.2554" lon="5.38127">
        <ele>352.47</ele>
        <time>2017-02-25T16:39:37Z</time>
      </trkpt>
      <trkpt lat="45.25526" lon="5.38138">
        <ele>352.07</ele>
        <time>2017-02-25T16:39:38Z</time>
      </trkpt>
      <trkpt lat="45.25509" lon="5.38146">
        <ele>351.59</ele>
        <time>2017-02-25T16:39:39Z</time>
      </trkpt>
      <trkpt lat="45.25492" lon="5.38152">
        <ele>351.09</ele>
        <time>2017-02-25T16:39:40Z</time>
      </trkpt>
      <trkpt lat="45.25475" lon="5.38154">
        <ele>350.67</ele>
        <time>2017-02-25T16:39:41Z</time>
      </trkpt>
      <trkpt lat="45.25459" lon="5.38158">
        <ele>350.35</ele>
        <time>2017-02-25T16:39:42Z</time>
      </trkpt>
      <trkpt lat="45.25444" lon="5.38162">
        <ele>349.96</ele>
        <time>2017-02-25T16:39:43Z</time>
      </trkpt>
      <trkpt lat="45.2543" lon="5.38168">
        <ele>349.49</ele>
        <time>2017-02-25T16:39:44Z</time>
      </trkpt>
      <trkpt lat="45.25418" lon="5.38177">
        <ele>349.23</ele>
        <time>2017-02-25T16:39:45Z</time>
      </trkpt>
      <trkpt lat="45.25411" lon="5.38194">
        <ele>348.94</ele>
        <time>2017-02-25T16:39:46Z</time>
      </trkpt>
      <trkpt lat="45.25402" lon="5.38213">
        <ele>348.56</ele>
        <time>2017-02-25T16:39:47Z</time>
      </trkpt>
      <trkpt lat="45.25392" lon="5.38233">
        <ele>348.17</ele>
        <time>2017-02-25T16:39:48Z</time>
      </trkpt>
      <trkpt lat="45.25378" lon="5.3825">
        <ele>347.77</ele>
        <time>2017-02-25T16:39:49Z</time>
      </trkpt>
      <trkpt lat="45.25362" lon="5.38265">
        <ele>347.21</ele>
        <time>2017-02-25T16:39:50Z</time>
      </trkpt>
      <trkpt lat="45.25345" lon="5.38279">
        <ele>346.61</ele>
        <time>2017-02-25T16:39:51Z</time>
      </trkpt>
      <trkpt lat="45.25329" lon="5.38294">
        <ele>345.94</ele>
        <time>2017-02-25T16:39:52Z</time>
      </trkpt>
      <trkpt lat="45.25312" lon="5.38309">
        <ele>345.4</ele>
        <time>2017-02-25T16:39:53Z</time>
      </trkpt>
      <trkpt lat="45.25295" lon="5.38323">
        <ele>344.97</ele>
        <time>2017-02-25T16:39:54Z</time>
      </trkpt>
      <trkpt lat="45.25279" lon="5.38337">
        <ele>344.57</ele>
        <time>2017-02-25T16:39:55Z</time>
      </trkpt>
      <trkpt lat="45.25262" lon="5.38349">
        <ele>344.17</ele>
        <time>2017-02-25T16:39:56Z</time>
      </trkpt>
      <trkpt lat="45.25244" lon="5.3836">
        <ele>343.77</ele>
        <time>2017-02-25T16:39:57Z</time>
      </trkpt>
      <trkpt lat="45.25226" lon="5.38371">
        <ele>343.37</ele>
        <time>2017-02-25T16:39:58Z</time>
      </trkpt>
      <trkpt lat="45.25208" lon="5.38381">
        <ele>343.13</ele>
        <time>2017-02-25T16:39:59Z</time>
      </trkpt>
      <trkpt lat="45.25189" lon="5.3839">
        <ele>342.84</ele>
        <time>2017-02-25T16:40:00Z</time>
      </trkpt>
      <trkpt lat="45.2517" lon="5.38397">
        <ele>342.38</ele>
        <time>2017-02-25T16:40:01Z</time>
      </trkpt>
      <trkpt lat="45.25151" lon="5.38402">
        <ele>342.05</ele>
        <time>2017-02-25T16:40:02Z</time>
      </trkpt>
      <trkpt lat="45.25131" lon="5.38406">
        <ele>341.74</ele>
        <time>2017-02-25T16:40:03Z</time>
      </trkpt>
      <trkpt lat="45.25111" lon="5.38407">
        <ele>341.44</ele>
        <time>2017-02-25T16:40:04Z</time>
      </trkpt>
      <trkpt lat="45.25089" lon="5.384">
        <ele>341.14</ele>
        <time>2017-02-25T16:40:05Z</time>
      </trkpt>
      <trkpt lat="45.25068" lon="5.38396">
        <ele>340.92</ele>
        <time>2017-02-25T16:40:06Z</time>
      </trkpt>
      <trkpt lat="45.25045" lon="5.38393">
        <ele>340.64</ele>
        <time>2017-02-25T16:40:07Z</time>
      </trkpt>
      <trkpt lat="45.25023" lon="5.38392">
        <ele>340.18</ele>
        <time>2017-02-25T16:40:08Z</time>
      </trkpt>
      <trkpt lat="45.25" lon="5.38391">
        <ele>339.69</ele>
        <time>2017-02-25T16:40:09Z</time>
      </trkpt>
      <trkpt lat="45.24978" lon="5.3839">
        <ele>339.19</ele>
        <time>2017-02-25T16:40:10Z</time>
      </trkpt>
      <trkpt lat="45.24954" lon="5.38386">
        <ele>338.53</ele>
        <time>2017-02-25T16:40:11Z</time>
      </trkpt>
      <trkpt lat="45.24931" lon="5.3838">
        <ele>338</ele>
        <time>2017-02-25T16:40:12Z</time>
      </trkpt>
      <trkpt lat="45.24907" lon="5.38374">
        <ele>337.65</ele>
        <time>2017-02-25T16:40:13Z</time>
      </trkpt>
      <trkpt lat="45.24885" lon="5.38366">
        <ele>337.18</ele>
        <time>2017-02-25T16:40:14Z</time>
      </trkpt>
      <trkpt lat="45.24864" lon="5.3836">
        <ele>336.69</ele>
        <time>2017-02-25T16:40:15Z</time>
      </trkpt>
      <trkpt lat="45.24844" lon="5.38356">
        <ele>336.11</ele>
        <time>2017-02-25T16:40:16Z</time>
      </trkpt>
      <trkpt lat="45.24823" lon="5.38355">
        <ele>335.36</ele>
        <time>2017-02-25T16:40:17Z</time>
      </trkpt>
      <trkpt lat="45.24802" lon="5.38356">
        <ele>334.64</ele>
        <time>2017-02-25T16:40:18Z</time>
      </trkpt>
      <trkpt lat="45.2478" lon="5.38358">
        <ele>333.7</ele>
        <time>2017-02-25T16:40:19Z</time>
      </trkpt>
      <trkpt lat="45.24757" lon="5.38361">
        <ele>332.79</ele>
        <time>2017-02-25T16:40:20Z</time>
      </trkpt>
      <trkpt lat="45.24734" lon="5.38363">
        <ele>332.05</ele>
        <time>2017-02-25T16:40:21Z</time>
      </trkpt>
      <trkpt lat="45.24712" lon="5.38364">
        <ele>331.1</ele>
        <time>2017-02-25T16:40:22Z</time>
      </trkpt>
      <trkpt lat="45.24689" lon="5.38366">
        <ele>330.19</ele>
        <time>2017-02-25T16:40:23Z</time>
      </trkpt>
      <trkpt lat="45.24665" lon="5.38368">
        <ele>329.21</ele>
        <time>2017-02-25T16:40:24Z</time>
      </trkpt>
      <trkpt lat="45.24642" lon="5.3837">
        <ele>328.38</ele>
        <time>2017-02-25T16:40:25Z</time>
      </trkpt>
      <trkpt lat="45.24617" lon="5.38372">
        <ele>327.89</ele>
        <time>2017-02-25T16:40:26Z</time>
      </trkpt>
      <trkpt lat="45.24593" lon="5.38372">
        <ele>327.47</ele>
        <time>2017-02-25T16:40:27Z</time>
      </trkpt>
      <trkpt lat="45.2457" lon="5.38372">
        <ele>327.07</ele>
        <time>2017-02-25T16:40:28Z</time>
      </trkpt>
      <trkpt lat="45.24547" lon="5.38369">
        <ele>326.59</ele>
        <time>2017-02-25T16:40:29Z</time>
      </trkpt>
      <trkpt lat="45.24526" lon="5.38365">
        <ele>326.33</ele>
        <time>2017-02-25T16:40:30Z</time>
      </trkpt>
      <trkpt lat="45.24505" lon="5.38362">
        <ele>326.2</ele>
        <time>2017-02-25T16:40:31Z</time>
      </trkpt>
      <trkpt lat="45.24486" lon="5.38359">
        <ele>325.93</ele>
        <time>2017-02-25T16:40:32Z</time>
      </trkpt>
      <trkpt lat="45.24468" lon="5.38358">
        <ele>325.64</ele>
        <time>2017-02-25T16:40:33Z</time>
      </trkpt>
      <trkpt lat="45.24449" lon="5.38361">
        <ele>325.26</ele>
        <time>2017-02-25T16:40:34Z</time>
      </trkpt>
      <trkpt lat="45.2443" lon="5.38367">
        <ele>324.71</ele>
        <time>2017-02-25T16:40:35Z</time>
      </trkpt>
      <trkpt lat="45.24411" lon="5.38376">
        <ele>323.79</ele>
        <time>2017-02-25T16:40:36Z</time>
      </trkpt>
      <trkpt lat="45.24392" lon="5.38381">
        <ele>322.97</ele>
        <time>2017-02-25T16:40:37Z</time>
      </trkpt>
      <trkpt lat="45.2437" lon="5.38383">
        <ele>322.09</ele>
        <time>2017-02-25T16:40:38Z</time>
      </trkpt>
      <trkpt lat="45.24348" lon="5.38382">
        <ele>321.19</ele>
        <time>2017-02-25T16:40:39Z</time>
      </trkpt>
      <trkpt lat="45.24325" lon="5.3838">
        <ele>320.21</ele>
        <time>2017-02-25T16:40:40Z</time>
      </trkpt>
      <trkpt lat="45.24304" lon="5.38378">
        <ele>319.06</ele>
        <time>2017-02-25T16:40:41Z</time>
      </trkpt>
      <trkpt lat="45.24282" lon="5.38377">
        <ele>317.78</ele>
        <time>2017-02-25T16:40:42Z</time>
      </trkpt>
      <trkpt lat="45.24262" lon="5.38376">
        <ele>316.57</ele>
        <time>2017-02-25T16:40:43Z</time>
      </trkpt>
      <trkpt lat="45.24241" lon="5.38376">
        <ele>315.29</ele>
        <time>2017-02-25T16:40:44Z</time>
      </trkpt>
      <trkpt lat="45.24221" lon="5.38377">
        <ele>313.99</ele>
        <time>2017-02-25T16:40:45Z</time>
      </trkpt>
      <trkpt lat="45.24201" lon="5.38379">
        <ele>312.93</ele>
        <time>2017-02-25T16:40:46Z</time>
      </trkpt>
      <trkpt lat="45.24182" lon="5.38386">
        <ele>311.68</ele>
        <time>2017-02-25T16:40:47Z</time>
      </trkpt>
      <trkpt lat="45.24165" lon="5.38393">
        <ele>310.55</ele>
        <time>2017-02-25T16:40:48Z</time>
      </trkpt>
      <trkpt lat="45.24149" lon="5.38397">
        <ele>309.44</ele>
        <time>2017-02-25T16:40:49Z</time>
      </trkpt>
      <trkpt lat="45.24132" lon="5.38399">
        <ele>308.42</ele>
        <time>2017-02-25T16:40:50Z</time>
      </trkpt>
      <trkpt lat="45.24115" lon="5.38398">
        <ele>307.34</ele>
        <time>2017-02-25T16:40:51Z</time>
      </trkpt>
      <trkpt lat="45.24098" lon="5.38394">
        <ele>306.56</ele>
        <time>2017-02-25T16:40:52Z</time>
      </trkpt>
      <trkpt lat="45.24081" lon="5.38388">
        <ele>306.25</ele>
        <time>2017-02-25T16:40:53Z</time>
      </trkpt>
      <trkpt lat="45.24063" lon="5.38382">
        <ele>307.06</ele>
        <time>2017-02-25T16:40:54Z</time>
      </trkpt>
      <trkpt lat="45.24046" lon="5.38377">
        <ele>307.23</ele>
        <time>2017-02-25T16:40:55Z</time>
      </trkpt>
      <trkpt lat="45.24027" lon="5.38376">
        <ele>307.34</ele>
        <time>2017-02-25T16:40:56Z</time>
      </trkpt>
      <trkpt lat="45.24008" lon="5.38377">
        <ele>307.2</ele>
        <time>2017-02-25T16:40:57Z</time>
      </trkpt>
      <trkpt lat="45.23987" lon="5.3838">
        <ele>306.85</ele>
        <time>2017-02-25T16:40:58Z</time>
      </trkpt>
      <trkpt lat="45.23968" lon="5.38386">
        <ele>306.46</ele>
        <time>2017-02-25T16:40:59Z</time>
      </trkpt>
      <trkpt lat="45.23949" lon="5.38393">
        <ele>306.07</ele>
        <time>2017-02-25T16:41:00Z</time>
      </trkpt>
      <trkpt lat="45.2393" lon="5.38405">
        <ele>305.75</ele>
        <time>2017-02-25T16:41:01Z</time>
      </trkpt>
      <trkpt lat="45.23911" lon="5.38422">
        <ele>305.44</ele>
        <time>2017-02-25T16:41:02Z</time>
      </trkpt>
      <trkpt lat="45.23891" lon="5.38438">
        <ele>305.14</ele>
        <time>2017-02-25T16:41:03Z</time>
      </trkpt>
      <trkpt lat="45.23871" lon="5.38455">
        <ele>304.84</ele>
        <time>2017-02-25T16:41:04Z</time>
      </trkpt>
      <trkpt lat="45.23851" lon="5.38471">
        <ele>304.54</ele>
        <time>2017-02-25T16:41:05Z</time>
      </trkpt>
      <trkpt lat="45.23831" lon="5.38486">
        <ele>304.24</ele>
        <time>2017-02-25T16:41:06Z</time>
      </trkpt>
      <trkpt lat="45.23811" lon="5.38501">
        <ele>303.86</ele>
        <time>2017-02-25T16:41:07Z</time>
      </trkpt>
      <trkpt lat="45.23792" lon="5.38514">
        <ele>303.55</ele>
        <time>2017-02-25T16:41:08Z</time>
      </trkpt>
      <trkpt lat="45.23774" lon="5.38526">
        <ele>303.24</ele>
        <time>2017-02-25T16:41:09Z</time>
      </trkpt>
      <trkpt lat="45.23755" lon="5.38538">
        <ele>302.86</ele>
        <time>2017-02-25T16:41:10Z</time>
      </trkpt>
      <trkpt lat="45.23738" lon="5.38548">
        <ele>302.55</ele>
        <time>2017-02-25T16:41:11Z</time>
      </trkpt>
      <trkpt lat="45.23722" lon="5.38558">
        <ele>302.24</ele>
        <time>2017-02-25T16:41:12Z</time>
      </trkpt>
      <trkpt lat="45.23707" lon="5.38569">
        <ele>301.86</ele>
        <time>2017-02-25T16:41:13Z</time>
      </trkpt>
      <trkpt lat="45.23694" lon="5.3858">
        <ele>301.47</ele>
        <time>2017-02-25T16:41:14Z</time>
      </trkpt>
      <trkpt lat="45.23682" lon="5.38592">
        <ele>301.07</ele>
        <time>2017-02-25T16:41:15Z</time>
      </trkpt>
      <trkpt lat="45.2367" lon="5.38606">
        <ele>300.67</ele>
        <time>2017-02-25T16:41:16Z</time>
      </trkpt>
      <trkpt lat="45.23658" lon="5.38624">
        <ele>300.51</ele>
        <time>2017-02-25T16:41:17Z</time>
      </trkpt>
      <trkpt lat="45.23647" lon="5.38643">
        <ele>300.39</ele>
        <time>2017-02-25T16:41:18Z</time>
      </trkpt>
      <trkpt lat="45.23636" lon="5.38665">
        <ele>300.37</ele>
        <time>2017-02-25T16:41:19Z</time>
      </trkpt>
      <trkpt lat="45.2363" lon="5.38693">
        <ele>300.45</ele>
        <time>2017-02-25T16:41:20Z</time>
      </trkpt>
      <trkpt lat="45.23621" lon="5.3872">
        <ele>300.46</ele>
        <time>2017-02-25T16:41:21Z</time>
      </trkpt>
      <trkpt lat="45.23612" lon="5.38747">
        <ele>300.07</ele>
        <time>2017-02-25T16:41:22Z</time>
      </trkpt>
      <trkpt lat="45.23605" lon="5.38777">
        <ele>299.75</ele>
        <time>2017-02-25T16:41:23Z</time>
      </trkpt>
      <trkpt lat="45.23599" lon="5.38807">
        <ele>299.44</ele>
        <time>2017-02-25T16:41:24Z</time>
      </trkpt>
      <trkpt lat="45.23594" lon="5.38837">
        <ele>299.38</ele>
        <time>2017-02-25T16:41:25Z</time>
      </trkpt>
      <trkpt lat="45.2359" lon="5.38869">
        <ele>299.29</ele>
        <time>2017-02-25T16:41:26Z</time>
      </trkpt>
      <trkpt lat="45.23587" lon="5.38899">
        <ele>299.35</ele>
        <time>2017-02-25T16:41:27Z</time>
      </trkpt>
      <trkpt lat="45.23583" lon="5.38931">
        <ele>299.28</ele>
        <time>2017-02-25T16:41:28Z</time>
      </trkpt>
      <trkpt lat="45.23579" lon="5.38961">
        <ele>299.19</ele>
        <time>2017-02-25T16:41:29Z</time>
      </trkpt>
      <trkpt lat="45.23574" lon="5.3899">
        <ele>299.01</ele>
        <time>2017-02-25T16:41:30Z</time>
      </trkpt>
      <trkpt lat="45.23568" lon="5.39018">
        <ele>298.82</ele>
        <time>2017-02-25T16:41:31Z</time>
      </trkpt>
      <trkpt lat="45.23563" lon="5.39044">
        <ele>298.46</ele>
        <time>2017-02-25T16:41:32Z</time>
      </trkpt>
      <trkpt lat="45.23558" lon="5.39068">
        <ele>298.06</ele>
        <time>2017-02-25T16:41:33Z</time>
      </trkpt>
      <trkpt lat="45.23552" lon="5.3909">
        <ele>297.59</ele>
        <time>2017-02-25T16:41:34Z</time>
      </trkpt>
      <trkpt lat="45.23546" lon="5.39113">
        <ele>296.77</ele>
        <time>2017-02-25T16:41:35Z</time>
      </trkpt>
      <trkpt lat="45.23534" lon="5.39131">
        <ele>295.89</ele>
        <time>2017-02-25T16:41:36Z</time>
      </trkpt>
      <trkpt lat="45.23519" lon="5.39147">
        <ele>295.07</ele>
        <time>2017-02-25T16:41:37Z</time>
      </trkpt>
      <trkpt lat="45.23503" lon="5.39162">
        <ele>294.27</ele>
        <time>2017-02-25T16:41:38Z</time>
      </trkpt>
      <trkpt lat="45.23486" lon="5.39174">
        <ele>293.63</ele>
        <time>2017-02-25T16:41:39Z</time>
      </trkpt>
      <trkpt lat="45.23466" lon="5.39183">
        <ele>293.02</ele>
        <time>2017-02-25T16:41:40Z</time>
      </trkpt>
      <trkpt lat="45.23445" lon="5.3919">
        <ele>292.34</ele>
        <time>2017-02-25T16:41:41Z</time>
      </trkpt>
      <trkpt lat="45.23423" lon="5.39195">
        <ele>291.72</ele>
        <time>2017-02-25T16:41:42Z</time>
      </trkpt>
      <trkpt lat="45.23401" lon="5.392">
        <ele>290.96</ele>
        <time>2017-02-25T16:41:43Z</time>
      </trkpt>
      <trkpt lat="45.23379" lon="5.39204">
        <ele>290.17</ele>
        <time>2017-02-25T16:41:44Z</time>
      </trkpt>
      <trkpt lat="45.23356" lon="5.39206">
        <ele>289.37</ele>
        <time>2017-02-25T16:41:45Z</time>
      </trkpt>
      <trkpt lat="45.23335" lon="5.39209">
        <ele>288.57</ele>
        <time>2017-02-25T16:41:46Z</time>
      </trkpt>
      <trkpt lat="45.23314" lon="5.39213">
        <ele>287.77</ele>
        <time>2017-02-25T16:41:47Z</time>
      </trkpt>
      <trkpt lat="45.23294" lon="5.39219">
        <ele>286.89</ele>
        <time>2017-02-25T16:41:48Z</time>
      </trkpt>
      <trkpt lat="45.23273" lon="5.39227">
        <ele>285.99</ele>
        <time>2017-02-25T16:41:49Z</time>
      </trkpt>
      <trkpt lat="45.23252" lon="5.39238">
        <ele>284.93</ele>
        <time>2017-02-25T16:41:50Z</time>
      </trkpt>
      <trkpt lat="45.23231" lon="5.39249">
        <ele>283.84</ele>
        <time>2017-02-25T16:41:51Z</time>
      </trkpt>
      <trkpt lat="45.2321" lon="5.3926">
        <ele>282.66</ele>
        <time>2017-02-25T16:41:52Z</time>
      </trkpt>
      <trkpt lat="45.2319" lon="5.39273">
        <ele>281.39</ele>
        <time>2017-02-25T16:41:53Z</time>
      </trkpt>
      <trkpt lat="45.23171" lon="5.39287">
        <ele>280.01</ele>
        <time>2017-02-25T16:41:54Z</time>
      </trkpt>
      <trkpt lat="45.23152" lon="5.39304">
        <ele>278.54</ele>
        <time>2017-02-25T16:41:55Z</time>
      </trkpt>
      <trkpt lat="45.23134" lon="5.39323">
        <ele>277.04</ele>
        <time>2017-02-25T16:41:56Z</time>
      </trkpt>
      <trkpt lat="45.23116" lon="5.39342">
        <ele>275.7</ele>
        <time>2017-02-25T16:41:57Z</time>
      </trkpt>
      <trkpt lat="45.23096" lon="5.3936">
        <ele>274.63</ele>
        <time>2017-02-25T16:41:58Z</time>
      </trkpt>
      <trkpt lat="45.23076" lon="5.39375">
        <ele>273.54</ele>
        <time>2017-02-25T16:41:59Z</time>
      </trkpt>
      <trkpt lat="45.23055" lon="5.39387">
        <ele>272.28</ele>
        <time>2017-02-25T16:42:00Z</time>
      </trkpt>
      <trkpt lat="45.23036" lon="5.39399">
        <ele>270.99</ele>
        <time>2017-02-25T16:42:01Z</time>
      </trkpt>
      <trkpt lat="45.23017" lon="5.39411">
        <ele>269.77</ele>
        <time>2017-02-25T16:42:02Z</time>
      </trkpt>
      <trkpt lat="45.23002" lon="5.39422">
        <ele>268.57</ele>
        <time>2017-02-25T16:42:03Z</time>
      </trkpt>
      <trkpt lat="45.22989" lon="5.39433">
        <ele>267.53</ele>
        <time>2017-02-25T16:42:04Z</time>
      </trkpt>
      <trkpt lat="45.22976" lon="5.39445">
        <ele>266.6</ele>
        <time>2017-02-25T16:42:05Z</time>
      </trkpt>
      <trkpt lat="45.22963" lon="5.39462">
        <ele>266.89</ele>
        <time>2017-02-25T16:42:06Z</time>
      </trkpt>
      <trkpt lat="45.22952" lon="5.39481">
        <ele>266.47</ele>
        <time>2017-02-25T16:42:07Z</time>
      </trkpt>
      <trkpt lat="45.22944" lon="5.39505">
        <ele>265.91</ele>
        <time>2017-02-25T16:42:08Z</time>
      </trkpt>
      <trkpt lat="45.22935" lon="5.39531">
        <ele>265.08</ele>
        <time>2017-02-25T16:42:09Z</time>
      </trkpt>
      <trkpt lat="45.22927" lon="5.39559">
        <ele>264.27</ele>
        <time>2017-02-25T16:42:10Z</time>
      </trkpt>
      <trkpt lat="45.22919" lon="5.39588">
        <ele>263.55</ele>
        <time>2017-02-25T16:42:11Z</time>
      </trkpt>
      <trkpt lat="45.22911" lon="5.39618">
        <ele>262.92</ele>
        <time>2017-02-25T16:42:12Z</time>
      </trkpt>
      <trkpt lat="45.22904" lon="5.39648">
        <ele>262.48</ele>
        <time>2017-02-25T16:42:13Z</time>
      </trkpt>
      <trkpt lat="45.22897" lon="5.39678">
        <ele>262.07</ele>
        <time>2017-02-25T16:42:14Z</time>
      </trkpt>
      <trkpt lat="45.22889" lon="5.39707">
        <ele>261.51</ele>
        <time>2017-02-25T16:42:15Z</time>
      </trkpt>
      <trkpt lat="45.22883" lon="5.39738">
        <ele>261.24</ele>
        <time>2017-02-25T16:42:16Z</time>
      </trkpt>
      <trkpt lat="45.22877" lon="5.3977">
        <ele>260.94</ele>
        <time>2017-02-25T16:42:17Z</time>
      </trkpt>
      <trkpt lat="45.2287" lon="5.39801">
        <ele>260.72</ele>
        <time>2017-02-25T16:42:18Z</time>
      </trkpt>
      <trkpt lat="45.22862" lon="5.39831">
        <ele>260.2</ele>
        <time>2017-02-25T16:42:19Z</time>
      </trkpt>
      <trkpt lat="45.22854" lon="5.39861">
        <ele>259.53</ele>
        <time>2017-02-25T16:42:20Z</time>
      </trkpt>
      <trkpt lat="45.22846" lon="5.3989">
        <ele>258.76</ele>
        <time>2017-02-25T16:42:21Z</time>
      </trkpt>
      <trkpt lat="45.22839" lon="5.39917">
        <ele>258.05</ele>
        <time>2017-02-25T16:42:22Z</time>
      </trkpt>
      <trkpt lat="45.22831" lon="5.39943">
        <ele>257.18</ele>
        <time>2017-02-25T16:42:23Z</time>
      </trkpt>
      <trkpt lat="45.22823" lon="5.39968">
        <ele>256.45</ele>
        <time>2017-02-25T16:42:24Z</time>
      </trkpt>
      <trkpt lat="45.22814" lon="5.39991">
        <ele>255.66</ele>
        <time>2017-02-25T16:42:25Z</time>
      </trkpt>
      <trkpt lat="45.22805" lon="5.40014">
        <ele>255.11</ele>
        <time>2017-02-25T16:42:26Z</time>
      </trkpt>
      <trkpt lat="45.22796" lon="5.40037">
        <ele>254.59</ele>
        <time>2017-02-25T16:42:27Z</time>
      </trkpt>
      <trkpt lat="45.22786" lon="5.4006">
        <ele>254.89</ele>
        <time>2017-02-25T16:42:28Z</time>
      </trkpt>
      <trkpt lat="45.22777" lon="5.40083">
        <ele>255.43</ele>
        <time>2017-02-25T16:42:29Z</time>
      </trkpt>
      <trkpt lat="45.22768" lon="5.40106">
        <ele>256.66</ele>
        <time>2017-02-25T16:42:30Z</time>
      </trkpt>
      <trkpt lat="45.2276" lon="5.40128">
        <ele>257.55</ele>
        <time>2017-02-25T16:42:31Z</time>
      </trkpt>
      <trkpt lat="45.22752" lon="5.4015">
        <ele>257.8</ele>
        <time>2017-02-25T16:42:32Z</time>
      </trkpt>
      <trkpt lat="45.22744" lon="5.40171">
        <ele>257.37</ele>
        <time>2017-02-25T16:42:33Z</time>
      </trkpt>
      <trkpt lat="45.22736" lon="5.40188">
        <ele>256.97</ele>
        <time>2017-02-25T16:42:34Z</time>
      </trkpt>
      <trkpt lat="45.22727" lon="5.40203">
        <ele>256.49</ele>
        <time>2017-02-25T16:42:35Z</time>
      </trkpt>
      <trkpt lat="45.22716" lon="5.40215">
        <ele>256.15</ele>
        <time>2017-02-25T16:42:36Z</time>
      </trkpt>
      <trkpt lat="45.22703" lon="5.40223">
        <ele>256.08</ele>
        <time>2017-02-25T16:42:37Z</time>
      </trkpt>
      <trkpt lat="45.22687" lon="5.40231">
        <ele>255.35</ele>
        <time>2017-02-25T16:42:38Z</time>
      </trkpt>
      <trkpt lat="45.22671" lon="5.40241">
        <ele>254.4</ele>
        <time>2017-02-25T16:42:39Z</time>
      </trkpt>
      <trkpt lat="45.22654" lon="5.40252">
        <ele>253.41</ele>
        <time>2017-02-25T16:42:40Z</time>
      </trkpt>
      <trkpt lat="45.22635" lon="5.40265">
        <ele>252.5</ele>
        <time>2017-02-25T16:42:41Z</time>
      </trkpt>
      <trkpt lat="45.22616" lon="5.40278">
        <ele>251.67</ele>
        <time>2017-02-25T16:42:42Z</time>
      </trkpt>
      <trkpt lat="45.22597" lon="5.40294">
        <ele>250.87</ele>
        <time>2017-02-25T16:42:43Z</time>
      </trkpt>
      <trkpt lat="45.22578" lon="5.4031">
        <ele>250.07</ele>
        <time>2017-02-25T16:42:44Z</time>
      </trkpt>
      <trkpt lat="45.22559" lon="5.40326">
        <ele>249.35</ele>
        <time>2017-02-25T16:42:45Z</time>
      </trkpt>
      <trkpt lat="45.2254" lon="5.40342">
        <ele>248.8</ele>
        <time>2017-02-25T16:42:46Z</time>
      </trkpt>
      <trkpt lat="45.22521" lon="5.40356">
        <ele>248.45</ele>
        <time>2017-02-25T16:42:47Z</time>
      </trkpt>
      <trkpt lat="45.22503" lon="5.40369">
        <ele>247.9</ele>
        <time>2017-02-25T16:42:48Z</time>
      </trkpt>
      <trkpt lat="45.22483" lon="5.4038">
        <ele>247.31</ele>
        <time>2017-02-25T16:42:49Z</time>
      </trkpt>
      <trkpt lat="45.22461" lon="5.40386">
        <ele>246.88</ele>
        <time>2017-02-25T16:42:50Z</time>
      </trkpt>
      <trkpt lat="45.22439" lon="5.40392">
        <ele>246.23</ele>
        <time>2017-02-25T16:42:51Z</time>
      </trkpt>
      <trkpt lat="45.22417" lon="5.40399">
        <ele>245.46</ele>
        <time>2017-02-25T16:42:52Z</time>
      </trkpt>
      <trkpt lat="45.22395" lon="5.40407">
        <ele>244.51</ele>
        <time>2017-02-25T16:42:53Z</time>
      </trkpt>
      <trkpt lat="45.22374" lon="5.40418">
        <ele>243.35</ele>
        <time>2017-02-25T16:42:54Z</time>
      </trkpt>
      <trkpt lat="45.22353" lon="5.40429">
        <ele>242.32</ele>
        <time>2017-02-25T16:42:55Z</time>
      </trkpt>
      <trkpt lat="45.22333" lon="5.4044">
        <ele>241.48</ele>
        <time>2017-02-25T16:42:56Z</time>
      </trkpt>
      <trkpt lat="45.22312" lon="5.40449">
        <ele>240.75</ele>
        <time>2017-02-25T16:42:57Z</time>
      </trkpt>
      <trkpt lat="45.2229" lon="5.40457">
        <ele>240.36</ele>
        <time>2017-02-25T16:42:58Z</time>
      </trkpt>
      <trkpt lat="45.22268" lon="5.40462">
        <ele>239.89</ele>
        <time>2017-02-25T16:42:59Z</time>
      </trkpt>
      <trkpt lat="45.22246" lon="5.40464">
        <ele>239.71</ele>
        <time>2017-02-25T16:43:00Z</time>
      </trkpt>
      <trkpt lat="45.22225" lon="5.40466">
        <ele>239.44</ele>
        <time>2017-02-25T16:43:01Z</time>
      </trkpt>
      <trkpt lat="45.22203" lon="5.40467">
        <ele>239.38</ele>
        <time>2017-02-25T16:43:02Z</time>
      </trkpt>
      <trkpt lat="45.22181" lon="5.40469">
        <ele>239.37</ele>
        <time>2017-02-25T16:43:03Z</time>
      </trkpt>
      <trkpt lat="45.22159" lon="5.4047">
        <ele>239.29</ele>
        <time>2017-02-25T16:43:04Z</time>
      </trkpt>
      <trkpt lat="45.22137" lon="5.40473">
        <ele>238.87</ele>
        <time>2017-02-25T16:43:05Z</time>
      </trkpt>
      <trkpt lat="45.22115" lon="5.40475">
        <ele>238.47</ele>
        <time>2017-02-25T16:43:06Z</time>
      </trkpt>
      <trkpt lat="45.22093" lon="5.40476">
        <ele>239.19</ele>
        <time>2017-02-25T16:43:07Z</time>
      </trkpt>
      <trkpt lat="45.2207" lon="5.40479">
        <ele>239.25</ele>
        <time>2017-02-25T16:43:08Z</time>
      </trkpt>
      <trkpt lat="45.22047" lon="5.4048">
        <ele>239.9</ele>
        <time>2017-02-25T16:43:09Z</time>
      </trkpt>
      <trkpt lat="45.22024" lon="5.40482">
        <ele>240.11</ele>
        <time>2017-02-25T16:43:10Z</time>
      </trkpt>
      <trkpt lat="45.22" lon="5.40482">
        <ele>240.48</ele>
        <time>2017-02-25T16:43:11Z</time>
      </trkpt>
      <trkpt lat="45.21975" lon="5.40481">
        <ele>241.27</ele>
        <time>2017-02-25T16:43:12Z</time>
      </trkpt>
      <trkpt lat="45.2195" lon="5.4048">
        <ele>242.07</ele>
        <time>2017-02-25T16:43:13Z</time>
      </trkpt>
      <trkpt lat="45.21926" lon="5.40477">
        <ele>243.03</ele>
        <time>2017-02-25T16:43:14Z</time>
      </trkpt>
      <trkpt lat="45.21903" lon="5.40475">
        <ele>243.78</ele>
        <time>2017-02-25T16:43:15Z</time>
      </trkpt>
      <trkpt lat="45.21881" lon="5.40473">
        <ele>244.41</ele>
        <time>2017-02-25T16:43:16Z</time>
      </trkpt>
      <trkpt lat="45.2186" lon="5.4047">
        <ele>244.94</ele>
        <time>2017-02-25T16:43:17Z</time>
      </trkpt>
      <trkpt lat="45.21841" lon="5.40465">
        <ele>245.28</ele>
        <time>2017-02-25T16:43:18Z</time>
      </trkpt>
      <trkpt lat="45.21821" lon="5.4046">
        <ele>245.59</ele>
        <time>2017-02-25T16:43:19Z</time>
      </trkpt>
      <trkpt lat="45.21802" lon="5.40451">
        <ele>245.89</ele>
        <time>2017-02-25T16:43:20Z</time>
      </trkpt>
      <trkpt lat="45.21783" lon="5.4044">
        <ele>246.11</ele>
        <time>2017-02-25T16:43:21Z</time>
      </trkpt>
      <trkpt lat="45.21765" lon="5.40427">
        <ele>246.48</ele>
        <time>2017-02-25T16:43:22Z</time>
      </trkpt>
      <trkpt lat="45.21747" lon="5.40412">
        <ele>246.63</ele>
        <time>2017-02-25T16:43:23Z</time>
      </trkpt>
      <trkpt lat="45.21733" lon="5.40396">
        <ele>246.66</ele>
        <time>2017-02-25T16:43:24Z</time>
      </trkpt>
      <trkpt lat="45.21718" lon="5.4038">
        <ele>246.51</ele>
        <time>2017-02-25T16:43:25Z</time>
      </trkpt>
      <trkpt lat="45.21702" lon="5.40366">
        <ele>245.99</ele>
        <time>2017-02-25T16:43:26Z</time>
      </trkpt>
      <trkpt lat="45.21686" lon="5.40355">
        <ele>245.81</ele>
        <time>2017-02-25T16:43:27Z</time>
      </trkpt>
      <trkpt lat="45.21668" lon="5.40346">
        <ele>245.3</ele>
        <time>2017-02-25T16:43:28Z</time>
      </trkpt>
      <trkpt lat="45.21651" lon="5.40335">
        <ele>245.11</ele>
        <time>2017-02-25T16:43:29Z</time>
      </trkpt>
      <trkpt lat="45.21635" lon="5.40323">
        <ele>244.84</ele>
        <time>2017-02-25T16:43:30Z</time>
      </trkpt>
      <trkpt lat="45.21618" lon="5.40309">
        <ele>245.18</ele>
        <time>2017-02-25T16:43:31Z</time>
      </trkpt>
      <trkpt lat="45.21602" lon="5.40294">
        <ele>245.41</ele>
        <time>2017-02-25T16:43:32Z</time>
      </trkpt>
      <trkpt lat="45.21586" lon="5.4028">
        <ele>245.3</ele>
        <time>2017-02-25T16:43:33Z</time>
      </trkpt>
      <trkpt lat="45.21571" lon="5.40268">
        <ele>245.19</ele>
        <time>2017-02-25T16:43:34Z</time>
      </trkpt>
      <trkpt lat="45.21556" lon="5.40258">
        <ele>245.17</ele>
        <time>2017-02-25T16:43:35Z</time>
      </trkpt>
      <trkpt lat="45.21542" lon="5.40247">
        <ele>244.77</ele>
        <time>2017-02-25T16:43:36Z</time>
      </trkpt>
      <trkpt lat="45.21528" lon="5.40233">
        <ele>244.37</ele>
        <time>2017-02-25T16:43:37Z</time>
      </trkpt>
      <trkpt lat="45.21516" lon="5.40216">
        <ele>244.37</ele>
        <time>2017-02-25T16:43:38Z</time>
      </trkpt>
      <trkpt lat="45.21505" lon="5.40192">
        <ele>244.37</ele>
        <time>2017-02-25T16:43:39Z</time>
      </trkpt>
      <trkpt lat="45.21494" lon="5.40168">
        <ele>243.97</ele>
        <time>2017-02-25T16:43:40Z</time>
      </trkpt>
      <trkpt lat="45.21482" lon="5.40144">
        <ele>243.57</ele>
        <time>2017-02-25T16:43:41Z</time>
      </trkpt>
      <trkpt lat="45.21469" lon="5.40122">
        <ele>243.01</ele>
        <time>2017-02-25T16:43:42Z</time>
      </trkpt>
      <trkpt lat="45.21456" lon="5.40102">
        <ele>242.41</ele>
        <time>2017-02-25T16:43:43Z</time>
      </trkpt>
      <trkpt lat="45.21442" lon="5.40084">
        <ele>241.74</ele>
        <time>2017-02-25T16:43:44Z</time>
      </trkpt>
      <trkpt lat="45.21426" lon="5.40068">
        <ele>240.88</ele>
        <time>2017-02-25T16:43:45Z</time>
      </trkpt>
      <trkpt lat="45.21408" lon="5.40056">
        <ele>240.07</ele>
        <time>2017-02-25T16:43:46Z</time>
      </trkpt>
      <trkpt lat="45.21391" lon="5.40045">
        <ele>239.27</ele>
        <time>2017-02-25T16:43:47Z</time>
      </trkpt>
      <trkpt lat="45.21373" lon="5.40037">
        <ele>238.39</ele>
        <time>2017-02-25T16:43:48Z</time>
      </trkpt>
      <trkpt lat="45.21355" lon="5.40031">
        <ele>237.65</ele>
        <time>2017-02-25T16:43:49Z</time>
      </trkpt>
      <trkpt lat="45.21339" lon="5.40028">
        <ele>236.86</ele>
        <time>2017-02-25T16:43:50Z</time>
      </trkpt>
      <trkpt lat="45.21323" lon="5.40026">
        <ele>236.15</ele>
        <time>2017-02-25T16:43:51Z</time>
      </trkpt>
      <trkpt lat="45.21308" lon="5.40026">
        <ele>235.36</ele>
        <time>2017-02-25T16:43:52Z</time>
      </trkpt>
      <trkpt lat="45.21294" lon="5.40027">
        <ele>234.97</ele>
        <time>2017-02-25T16:43:53Z</time>
      </trkpt>
      <trkpt lat="45.21281" lon="5.4003">
        <ele>234.41</ele>
        <time>2017-02-25T16:43:54Z</time>
      </trkpt>
      <trkpt lat="45.21269" lon="5.40034">
        <ele>233.81</ele>
        <time>2017-02-25T16:43:55Z</time>
      </trkpt>
      <trkpt lat="45.21257" lon="5.40037">
        <ele>233.22</ele>
        <time>2017-02-25T16:43:56Z</time>
      </trkpt>
      <trkpt lat="45.21246" lon="5.40041">
        <ele>232.7</ele>
        <time>2017-02-25T16:43:57Z</time>
      </trkpt>
      <trkpt lat="45.21235" lon="5.40043">
        <ele>232.03</ele>
        <time>2017-02-25T16:43:58Z</time>
      </trkpt>
      <trkpt lat="45.21225" lon="5.40046">
        <ele>231.5</ele>
        <time>2017-02-25T16:43:59Z</time>
      </trkpt>
      <trkpt lat="45.21215" lon="5.40049">
        <ele>230.91</ele>
        <time>2017-02-25T16:44:00Z</time>
      </trkpt>
      <trkpt lat="45.21206" lon="5.40053">
        <ele>230.24</ele>
        <time>2017-02-25T16:44:01Z</time>
      </trkpt>
      <trkpt lat="45.21196" lon="5.40056">
        <ele>229.54</ele>
        <time>2017-02-25T16:44:02Z</time>
      </trkpt>
      <trkpt lat="45.21188" lon="5.40059">
        <ele>228.92</ele>
        <time>2017-02-25T16:44:03Z</time>
      </trkpt>
      <trkpt lat="45.21179" lon="5.40064">
        <ele>227.84</ele>
        <time>2017-02-25T16:44:04Z</time>
      </trkpt>
      <trkpt lat="45.21171" lon="5.40068">
        <ele>226.58</ele>
        <time>2017-02-25T16:44:05Z</time>
      </trkpt>
      <trkpt lat="45.21163" lon="5.40073">
        <ele>225.21</ele>
        <time>2017-02-25T16:44:06Z</time>
      </trkpt>
      <trkpt lat="45.21155" lon="5.40077">
        <ele>223.82</ele>
        <time>2017-02-25T16:44:07Z</time>
      </trkpt>
      <trkpt lat="45.21147" lon="5.40082">
        <ele>222.82</ele>
        <time>2017-02-25T16:44:08Z</time>
      </trkpt>
      <trkpt lat="45.21139" lon="5.40086">
        <ele>222.22</ele>
        <time>2017-02-25T16:44:09Z</time>
      </trkpt>
      <trkpt lat="45.21132" lon="5.40089">
        <ele>221.3</ele>
        <time>2017-02-25T16:44:10Z</time>
      </trkpt>
      <trkpt lat="45.21125" lon="5.40093">
        <ele>220.31</ele>
        <time>2017-02-25T16:44:11Z</time>
      </trkpt>
      <trkpt lat="45.21118" lon="5.40095">
        <ele>219.32</ele>
        <time>2017-02-25T16:44:12Z</time>
      </trkpt>
      <trkpt lat="45.21111" lon="5.40097">
        <ele>218.48</ele>
        <time>2017-02-25T16:44:13Z</time>
      </trkpt>
      <trkpt lat="45.21104" lon="5.40097">
        <ele>218.15</ele>
        <time>2017-02-25T16:44:14Z</time>
      </trkpt>
      <trkpt lat="45.21098" lon="5.40099">
        <ele>217.2</ele>
        <time>2017-02-25T16:44:15Z</time>
      </trkpt>
      <trkpt lat="45.21091" lon="5.40101">
        <ele>216.29</ele>
        <time>2017-02-25T16:44:16Z</time>
      </trkpt>
      <trkpt lat="45.21085" lon="5.40105">
        <ele>215.31</ele>
        <time>2017-02-25T16:44:17Z</time>
      </trkpt>
      <trkpt lat="45.21079" lon="5.40109">
        <ele>214.32</ele>
        <time>2017-02-25T16:44:18Z</time>
      </trkpt>
      <trkpt lat="45.21073" lon="5.40113">
        <ele>213.8</ele>
        <time>2017-02-25T16:44:19Z</time>
      </trkpt>
      <trkpt lat="45.21067" lon="5.40117">
        <ele>213.21</ele>
        <time>2017-02-25T16:44:20Z</time>
      </trkpt>
      <trkpt lat="45.21061" lon="5.40121">
        <ele>212.46</ele>
        <time>2017-02-25T16:44:21Z</time>
      </trkpt>
      <trkpt lat="45.21055" lon="5.40125">
        <ele>211.74</ele>
        <time>2017-02-25T16:44:22Z</time>
      </trkpt>
      <trkpt lat="45.21049" lon="5.40128">
        <ele>211.04</ele>
        <time>2017-02-25T16:44:23Z</time>
      </trkpt>
      <trkpt lat="45.21045" lon="5.40131">
        <ele>210.34</ele>
        <time>2017-02-25T16:44:24Z</time>
      </trkpt>
      <trkpt lat="45.21041" lon="5.40134">
        <ele>209.64</ele>
        <time>2017-02-25T16:44:25Z</time>
      </trkpt>
      <trkpt lat="45.21035" lon="5.40135">
        <ele>210.06</ele>
        <time>2017-02-25T16:44:26Z</time>
      </trkpt>
      <trkpt lat="45.2103" lon="5.40136">
        <ele>210.47</ele>
        <time>2017-02-25T16:44:27Z</time>
      </trkpt>
      <trkpt lat="45.21025" lon="5.40138">
        <ele>211.03</ele>
        <time>2017-02-25T16:44:28Z</time>
      </trkpt>
      <trkpt lat="45.21022" lon="5.4014">
        <ele>210.98</ele>
        <time>2017-02-25T16:44:29Z</time>
      </trkpt>
      <trkpt lat="45.21019" lon="5.40142">
        <ele>210.73</ele>
        <time>2017-02-25T16:44:30Z</time>
      </trkpt>
      <trkpt lat="45.21017" lon="5.40144">
        <ele>210.04</ele>
        <time>2017-02-25T16:44:31Z</time>
      </trkpt>
      <trkpt lat="45.21014" lon="5.40145">
        <ele>209.42</ele>
        <time>2017-02-25T16:44:32Z</time>
      </trkpt>
      <trkpt lat="45.21013" lon="5.40148">
        <ele>209.14</ele>
        <time>2017-02-25T16:44:33Z</time>
      </trkpt>
      <trkpt lat="45.21011" lon="5.40151">
        <ele>208.92</ele>
        <time>2017-02-25T16:44:34Z</time>
      </trkpt>
      <trkpt lat="45.21009" lon="5.40154">
        <ele>209.04</ele>
        <time>2017-02-25T16:44:35Z</time>
      </trkpt>
      <trkpt lat="45.21008" lon="5.40157">
        <ele>209.7</ele>
        <time>2017-02-25T16:44:36Z</time>
      </trkpt>
      <trkpt lat="45.21007" lon="5.40159">
        <ele>210.15</ele>
        <time>2017-02-25T16:44:37Z</time>
      </trkpt>
      <trkpt lat="45.21007" lon="5.40161">
        <ele>210.48</ele>
        <time>2017-02-25T16:44:38Z</time>
      </trkpt>
      <trkpt lat="45.21007" lon="5.40162">
        <ele>210.71</ele>
        <time>2017-02-25T16:44:39Z</time>
      </trkpt>
      <trkpt lat="45.21007" lon="5.40162">
        <ele>210.76</ele>
        <time>2017-02-25T16:44:40Z</time>
      </trkpt>
      <trkpt lat="45.21007" lon="5.40162">
        <ele>210.76</ele>
        <time>2017-02-25T16:44:41Z</time>
      </trkpt>
      <trkpt lat="45.21007" lon="5.40162">
        <ele>210.77</ele>
        <time>2017-02-25T16:44:42Z</time>
      </trkpt>
      <trkpt lat="45.21007" lon="5.40162">
        <ele>210.77</ele>
        <time>2017-02-25T16:44:43Z</time>
      </trkpt>
      <trkpt lat="45.21007" lon="5.40162">
        <ele>210.77</ele>
        <time>2017-02-25T16:44:44Z</time>
      </trkpt>
      <trkpt lat="45.21007" lon="5.40162">
        <ele>210.77</ele>
        <time>2017-02-25T16:44:45Z</time>
      </trkpt>
      <trkpt lat="45.21007" lon="5.40162">
        <ele>210.77</ele>
        <time>2017-02-25T16:44:46Z</time>
      </trkpt>
      <trkpt lat="45.21008" lon="5.40171">
        <ele>211.01</ele>
        <time>2017-02-25T16:44:47Z</time>
      </trkpt>
      <trkpt lat="45.21006" lon="5.40174">
        <ele>211.21</ele>
        <time>2017-02-25T16:44:48Z</time>
      </trkpt>
      <trkpt lat="45.21003" lon="5.40178">
        <ele>211.5</ele>
        <time>2017-02-25T16:44:49Z</time>
      </trkpt>
      <trkpt lat="45.21" lon="5.40181">
        <ele>211.71</ele>
        <time>2017-02-25T16:44:50Z</time>
      </trkpt>
      <trkpt lat="45.20997" lon="5.40185">
        <ele>212</ele>
        <time>2017-02-25T16:44:51Z</time>
      </trkpt>
      <trkpt lat="45.20994" lon="5.40189">
        <ele>212.13</ele>
        <time>2017-02-25T16:44:52Z</time>
      </trkpt>
      <trkpt lat="45.20992" lon="5.40193">
        <ele>212.32</ele>
        <time>2017-02-25T16:44:53Z</time>
      </trkpt>
      <trkpt lat="45.20989" lon="5.40196">
        <ele>212.44</ele>
        <time>2017-02-25T16:44:54Z</time>
      </trkpt>
      <trkpt lat="45.20985" lon="5.40199">
        <ele>212.62</ele>
        <time>2017-02-25T16:44:55Z</time>
      </trkpt>
      <trkpt lat="45.20984" lon="5.40204">
        <ele>212.9</ele>
        <time>2017-02-25T16:44:56Z</time>
      </trkpt>
      <trkpt lat="45.20983" lon="5.40208">
        <ele>213.19</ele>
        <time>2017-02-25T16:44:57Z</time>
      </trkpt>
      <trkpt lat="45.2098" lon="5.40212">
        <ele>213.41</ele>
        <time>2017-02-25T16:44:58Z</time>
      </trkpt>
      <trkpt lat="45.20976" lon="5.40216">
        <ele>213.46</ele>
        <time>2017-02-25T16:44:59Z</time>
      </trkpt>
      <trkpt lat="45.20971" lon="5.40221">
        <ele>213.7</ele>
        <time>2017-02-25T16:45:00Z</time>
      </trkpt>
      <trkpt lat="45.20967" lon="5.40227">
        <ele>213.75</ele>
        <time>2017-02-25T16:45:01Z</time>
      </trkpt>
      <trkpt lat="45.20962" lon="5.40234">
        <ele>213.92</ele>
        <time>2017-02-25T16:45:02Z</time>
      </trkpt>
      <trkpt lat="45.20958" lon="5.40244">
        <ele>214.04</ele>
        <time>2017-02-25T16:45:03Z</time>
      </trkpt>
      <trkpt lat="45.20953" lon="5.40253">
        <ele>214.38</ele>
        <time>2017-02-25T16:45:04Z</time>
      </trkpt>
      <trkpt lat="45.2095" lon="5.40264">
        <ele>214.93</ele>
        <time>2017-02-25T16:45:05Z</time>
      </trkpt>
      <trkpt lat="45.20947" lon="5.40273">
        <ele>215.52</ele>
        <time>2017-02-25T16:45:06Z</time>
      </trkpt>
      <trkpt lat="45.20943" lon="5.40284">
        <ele>215.8</ele>
        <time>2017-02-25T16:45:07Z</time>
      </trkpt>
      <trkpt lat="45.20939" lon="5.40293">
        <ele>215.93</ele>
        <time>2017-02-25T16:45:08Z</time>
      </trkpt>
      <trkpt lat="45.20935" lon="5.40304">
        <ele>215.96</ele>
        <time>2017-02-25T16:45:09Z</time>
      </trkpt>
      <trkpt lat="45.20931" lon="5.40314">
        <ele>216.21</ele>
        <time>2017-02-25T16:45:10Z</time>
      </trkpt>
      <trkpt lat="45.20926" lon="5.40323">
        <ele>216.49</ele>
        <time>2017-02-25T16:45:11Z</time>
      </trkpt>
      <trkpt lat="45.20922" lon="5.40332">
        <ele>216.87</ele>
        <time>2017-02-25T16:45:12Z</time>
      </trkpt>
      <trkpt lat="45.20917" lon="5.40341">
        <ele>217.27</ele>
        <time>2017-02-25T16:45:13Z</time>
      </trkpt>
      <trkpt lat="45.20912" lon="5.4035">
        <ele>217.67</ele>
        <time>2017-02-25T16:45:14Z</time>
      </trkpt>
      <trkpt lat="45.20908" lon="5.4036">
        <ele>217.91</ele>
        <time>2017-02-25T16:45:15Z</time>
      </trkpt>
      <trkpt lat="45.20902" lon="5.4037">
        <ele>218.28</ele>
        <time>2017-02-25T16:45:16Z</time>
      </trkpt>
      <trkpt lat="45.20897" lon="5.4038">
        <ele>218.43</ele>
        <time>2017-02-25T16:45:17Z</time>
      </trkpt>
      <trkpt lat="45.20893" lon="5.4039">
        <ele>218.7</ele>
        <time>2017-02-25T16:45:18Z</time>
      </trkpt>
      <trkpt lat="45.20888" lon="5.404">
        <ele>218.83</ele>
        <time>2017-02-25T16:45:19Z</time>
      </trkpt>
      <trkpt lat="45.20882" lon="5.4041">
        <ele>218.78</ele>
        <time>2017-02-25T16:45:20Z</time>
      </trkpt>
      <trkpt lat="45.20877" lon="5.40419">
        <ele>218.61</ele>
        <time>2017-02-25T16:45:21Z</time>
      </trkpt>
      <trkpt lat="45.20872" lon="5.40429">
        <ele>218.74</ele>
        <time>2017-02-25T16:45:22Z</time>
      </trkpt>
      <trkpt lat="45.20867" lon="5.40438">
        <ele>218.84</ele>
        <time>2017-02-25T16:45:23Z</time>
      </trkpt>
      <trkpt lat="45.20861" lon="5.40447">
        <ele>217.98</ele>
        <time>2017-02-25T16:45:24Z</time>
      </trkpt>
      <trkpt lat="45.20856" lon="5.40454">
        <ele>216.93</ele>
        <time>2017-02-25T16:45:25Z</time>
      </trkpt>
      <trkpt lat="45.20851" lon="5.40461">
        <ele>216.32</ele>
        <time>2017-02-25T16:45:26Z</time>
      </trkpt>
      <trkpt lat="45.20846" lon="5.40466">
        <ele>216.2</ele>
        <time>2017-02-25T16:45:27Z</time>
      </trkpt>
      <trkpt lat="45.20842" lon="5.40471">
        <ele>216.81</ele>
        <time>2017-02-25T16:45:28Z</time>
      </trkpt>
      <trkpt lat="45.20838" lon="5.40477">
        <ele>217.1</ele>
        <time>2017-02-25T16:45:29Z</time>
      </trkpt>
      <trkpt lat="45.20834" lon="5.40484">
        <ele>216.99</ele>
        <time>2017-02-25T16:45:30Z</time>
      </trkpt>
      <trkpt lat="45.2083" lon="5.40491">
        <ele>216.73</ele>
        <time>2017-02-25T16:45:31Z</time>
      </trkpt>
      <trkpt lat="45.20824" lon="5.40499">
        <ele>217.08</ele>
        <time>2017-02-25T16:45:32Z</time>
      </trkpt>
      <trkpt lat="45.20819" lon="5.40509">
        <ele>216.67</ele>
        <time>2017-02-25T16:45:33Z</time>
      </trkpt>
      <trkpt lat="45.20813" lon="5.40519">
        <ele>216.19</ele>
        <time>2017-02-25T16:45:34Z</time>
      </trkpt>
      <trkpt lat="45.20807" lon="5.4053">
        <ele>215.69</ele>
        <time>2017-02-25T16:45:35Z</time>
      </trkpt>
      <trkpt lat="45.20801" lon="5.40542">
        <ele>215.43</ele>
        <time>2017-02-25T16:45:36Z</time>
      </trkpt>
      <trkpt lat="45.20794" lon="5.40553">
        <ele>215.22</ele>
        <time>2017-02-25T16:45:37Z</time>
      </trkpt>
      <trkpt lat="45.20788" lon="5.40565">
        <ele>215.02</ele>
        <time>2017-02-25T16:45:38Z</time>
      </trkpt>
      <trkpt lat="45.20781" lon="5.40576">
        <ele>215.06</ele>
        <time>2017-02-25T16:45:39Z</time>
      </trkpt>
      <trkpt lat="45.20774" lon="5.40588">
        <ele>215.07</ele>
        <time>2017-02-25T16:45:40Z</time>
      </trkpt>
      <trkpt lat="45.20766" lon="5.40601">
        <ele>214.83</ele>
        <time>2017-02-25T16:45:41Z</time>
      </trkpt>
      <trkpt lat="45.20759" lon="5.40613">
        <ele>214.7</ele>
        <time>2017-02-25T16:45:42Z</time>
      </trkpt>
      <trkpt lat="45.20751" lon="5.40625">
        <ele>214.35</ele>
        <time>2017-02-25T16:45:43Z</time>
      </trkpt>
      <trkpt lat="45.20744" lon="5.40638">
        <ele>213.88</ele>
        <time>2017-02-25T16:45:44Z</time>
      </trkpt>
      <trkpt lat="45.20736" lon="5.40651">
        <ele>213.47</ele>
        <time>2017-02-25T16:45:45Z</time>
      </trkpt>
      <trkpt lat="45.20728" lon="5.40664">
        <ele>212.91</ele>
        <time>2017-02-25T16:45:46Z</time>
      </trkpt>
      <trkpt lat="45.20721" lon="5.40677">
        <ele>212.64</ele>
        <time>2017-02-25T16:45:47Z</time>
      </trkpt>
      <trkpt lat="45.20713" lon="5.4069">
        <ele>212.34</ele>
        <time>2017-02-25T16:45:48Z</time>
      </trkpt>
      <trkpt lat="45.20705" lon="5.40702">
        <ele>211.88</ele>
        <time>2017-02-25T16:45:49Z</time>
      </trkpt>
      <trkpt lat="45.20698" lon="5.40713">
        <ele>211.63</ele>
        <time>2017-02-25T16:45:50Z</time>
      </trkpt>
      <trkpt lat="45.2069" lon="5.40724">
        <ele>211.42</ele>
        <time>2017-02-25T16:45:51Z</time>
      </trkpt>
      <trkpt lat="45.20683" lon="5.40734">
        <ele>211.14</ele>
        <time>2017-02-25T16:45:52Z</time>
      </trkpt>
      <trkpt lat="45.20676" lon="5.40744">
        <ele>210.84</ele>
        <time>2017-02-25T16:45:53Z</time>
      </trkpt>
      <trkpt lat="45.20669" lon="5.40754">
        <ele>210.62</ele>
        <time>2017-02-25T16:45:54Z</time>
      </trkpt>
      <trkpt lat="45.20663" lon="5.40764">
        <ele>210.34</ele>
        <time>2017-02-25T16:45:55Z</time>
      </trkpt>
      <trkpt lat="45.20656" lon="5.40775">
        <ele>210.04</ele>
        <time>2017-02-25T16:45:56Z</time>
      </trkpt>
      <trkpt lat="45.2065" lon="5.40786">
        <ele>209.74</ele>
        <time>2017-02-25T16:45:57Z</time>
      </trkpt>
      <trkpt lat="45.20645" lon="5.40796">
        <ele>209.6</ele>
        <time>2017-02-25T16:45:58Z</time>
      </trkpt>
      <trkpt lat="45.20639" lon="5.40807">
        <ele>209.49</ele>
        <time>2017-02-25T16:45:59Z</time>
      </trkpt>
      <trkpt lat="45.20634" lon="5.40818">
        <ele>209.39</ele>
        <time>2017-02-25T16:46:00Z</time>
      </trkpt>
      <trkpt lat="45.20628" lon="5.40828">
        <ele>209.45</ele>
        <time>2017-02-25T16:46:01Z</time>
      </trkpt>
      <trkpt lat="45.20623" lon="5.40837">
        <ele>209.54</ele>
        <time>2017-02-25T16:46:02Z</time>
      </trkpt>
      <trkpt lat="45.20618" lon="5.40847">
        <ele>209.8</ele>
        <time>2017-02-25T16:46:03Z</time>
      </trkpt>
      <trkpt lat="45.20613" lon="5.40856">
        <ele>210.01</ele>
        <time>2017-02-25T16:46:04Z</time>
      </trkpt>
      <trkpt lat="45.20608" lon="5.40864">
        <ele>210.3</ele>
        <time>2017-02-25T16:46:05Z</time>
      </trkpt>
      <trkpt lat="45.20603" lon="5.40874">
        <ele>210.51</ele>
        <time>2017-02-25T16:46:06Z</time>
      </trkpt>
      <trkpt lat="45.20597" lon="5.40885">
        <ele>210.64</ele>
        <time>2017-02-25T16:46:07Z</time>
      </trkpt>
      <trkpt lat="45.20591" lon="5.40897">
        <ele>210.66</ele>
        <time>2017-02-25T16:46:08Z</time>
      </trkpt>
      <trkpt lat="45.20584" lon="5.4091">
        <ele>210.43</ele>
        <time>2017-02-25T16:46:09Z</time>
      </trkpt>
      <trkpt lat="45.20578" lon="5.40924">
        <ele>210.14</ele>
        <time>2017-02-25T16:46:10Z</time>
      </trkpt>
      <trkpt lat="45.20572" lon="5.40939">
        <ele>209.92</ele>
        <time>2017-02-25T16:46:11Z</time>
      </trkpt>
      <trkpt lat="45.20566" lon="5.40953">
        <ele>209.72</ele>
        <time>2017-02-25T16:46:12Z</time>
      </trkpt>
      <trkpt lat="45.2056" lon="5.40968">
        <ele>209.68</ele>
        <time>2017-02-25T16:46:13Z</time>
      </trkpt>
      <trkpt lat="45.20554" lon="5.40983">
        <ele>209.59</ele>
        <time>2017-02-25T16:46:14Z</time>
      </trkpt>
      <trkpt lat="45.20549" lon="5.40997">
        <ele>209.49</ele>
        <time>2017-02-25T16:46:15Z</time>
      </trkpt>
      <trkpt lat="45.20542" lon="5.41011">
        <ele>209.23</ele>
        <time>2017-02-25T16:46:16Z</time>
      </trkpt>
      <trkpt lat="45.20535" lon="5.41024">
        <ele>208.62</ele>
        <time>2017-02-25T16:46:17Z</time>
      </trkpt>
      <trkpt lat="45.20527" lon="5.41036">
        <ele>207.94</ele>
        <time>2017-02-25T16:46:18Z</time>
      </trkpt>
      <trkpt lat="45.20517" lon="5.41047">
        <ele>207.24</ele>
        <time>2017-02-25T16:46:19Z</time>
      </trkpt>
      <trkpt lat="45.20507" lon="5.41057">
        <ele>206.86</ele>
        <time>2017-02-25T16:46:20Z</time>
      </trkpt>
      <trkpt lat="45.20496" lon="5.41067">
        <ele>206.47</ele>
        <time>2017-02-25T16:46:21Z</time>
      </trkpt>
      <trkpt lat="45.20484" lon="5.41077">
        <ele>205.99</ele>
        <time>2017-02-25T16:46:22Z</time>
      </trkpt>
      <trkpt lat="45.20472" lon="5.41087">
        <ele>205.57</ele>
        <time>2017-02-25T16:46:23Z</time>
      </trkpt>
      <trkpt lat="45.20459" lon="5.41096">
        <ele>205.33</ele>
        <time>2017-02-25T16:46:24Z</time>
      </trkpt>
      <trkpt lat="45.20445" lon="5.41105">
        <ele>205.04</ele>
        <time>2017-02-25T16:46:25Z</time>
      </trkpt>
      <trkpt lat="45.20432" lon="5.41114">
        <ele>204.58</ele>
        <time>2017-02-25T16:46:26Z</time>
      </trkpt>
      <trkpt lat="45.20419" lon="5.41125">
        <ele>204.09</ele>
        <time>2017-02-25T16:46:27Z</time>
      </trkpt>
      <trkpt lat="45.20406" lon="5.41137">
        <ele>204.07</ele>
        <time>2017-02-25T16:46:28Z</time>
      </trkpt>
      <trkpt lat="45.20394" lon="5.41151">
        <ele>203.75</ele>
        <time>2017-02-25T16:46:29Z</time>
      </trkpt>
      <trkpt lat="45.20383" lon="5.41166">
        <ele>203.76</ele>
        <time>2017-02-25T16:46:30Z</time>
      </trkpt>
      <trkpt lat="45.20373" lon="5.41182">
        <ele>203.61</ele>
        <time>2017-02-25T16:46:31Z</time>
      </trkpt>
      <trkpt lat="45.20363" lon="5.41198">
        <ele>203.49</ele>
        <time>2017-02-25T16:46:32Z</time>
      </trkpt>
      <trkpt lat="45.20354" lon="5.41214">
        <ele>203.23</ele>
        <time>2017-02-25T16:46:33Z</time>
      </trkpt>
      <trkpt lat="45.20345" lon="5.4123">
        <ele>203.1</ele>
        <time>2017-02-25T16:46:34Z</time>
      </trkpt>
      <trkpt lat="45.20336" lon="5.41246">
        <ele>202.99</ele>
        <time>2017-02-25T16:46:35Z</time>
      </trkpt>
      <trkpt lat="45.20327" lon="5.41262">
        <ele>202.89</ele>
        <time>2017-02-25T16:46:36Z</time>
      </trkpt>
      <trkpt lat="45.2032" lon="5.41276">
        <ele>202.71</ele>
        <time>2017-02-25T16:46:37Z</time>
      </trkpt>
      <trkpt lat="45.20312" lon="5.4129">
        <ele>202.6</ele>
        <time>2017-02-25T16:46:38Z</time>
      </trkpt>
      <trkpt lat="45.20306" lon="5.41304">
        <ele>202.41</ele>
        <time>2017-02-25T16:46:39Z</time>
      </trkpt>
      <trkpt lat="45.203" lon="5.41316">
        <ele>202.46</ele>
        <time>2017-02-25T16:46:40Z</time>
      </trkpt>
      <trkpt lat="45.20295" lon="5.41329">
        <ele>202.3</ele>
        <time>2017-02-25T16:46:41Z</time>
      </trkpt>
      <trkpt lat="45.2029" lon="5.4134">
        <ele>202.43</ele>
        <time>2017-02-25T16:46:42Z</time>
      </trkpt>
      <trkpt lat="45.20284" lon="5.41351">
        <ele>202.38</ele>
        <time>2017-02-25T16:46:43Z</time>
      </trkpt>
      <trkpt lat="45.20278" lon="5.41363">
        <ele>202.21</ele>
        <time>2017-02-25T16:46:44Z</time>
      </trkpt>
      <trkpt lat="45.20271" lon="5.41374">
        <ele>201.62</ele>
        <time>2017-02-25T16:46:45Z</time>
      </trkpt>
      <trkpt lat="45.20263" lon="5.41386">
        <ele>200.94</ele>
        <time>2017-02-25T16:46:46Z</time>
      </trkpt>
      <trkpt lat="45.20256" lon="5.41399">
        <ele>200.24</ele>
        <time>2017-02-25T16:46:47Z</time>
      </trkpt>
      <trkpt lat="45.20249" lon="5.41413">
        <ele>199.7</ele>
        <time>2017-02-25T16:46:48Z</time>
      </trkpt>
      <trkpt lat="45.20242" lon="5.41427">
        <ele>199.35</ele>
        <time>2017-02-25T16:46:49Z</time>
      </trkpt>
      <trkpt lat="45.20235" lon="5.41442">
        <ele>198.96</ele>
        <time>2017-02-25T16:46:50Z</time>
      </trkpt>
      <trkpt lat="45.20227" lon="5.41456">
        <ele>198.65</ele>
        <time>2017-02-25T16:46:51Z</time>
      </trkpt>
      <trkpt lat="45.20219" lon="5.41471">
        <ele>198.18</ele>
        <time>2017-02-25T16:46:52Z</time>
      </trkpt>
      <trkpt lat="45.2021" lon="5.41487">
        <ele>197.61</ele>
        <time>2017-02-25T16:46:53Z</time>
      </trkpt>
      <trkpt lat="45.20202" lon="5.41503">
        <ele>197.26</ele>
        <time>2017-02-25T16:46:54Z</time>
      </trkpt>
      <trkpt lat="45.20193" lon="5.41519">
        <ele>197.1</ele>
        <time>2017-02-25T16:46:55Z</time>
      </trkpt>
      <trkpt lat="45.20184" lon="5.41535">
        <ele>196.99</ele>
        <time>2017-02-25T16:46:56Z</time>
      </trkpt>
      <trkpt lat="45.20176" lon="5.41551">
        <ele>197.05</ele>
        <time>2017-02-25T16:46:57Z</time>
      </trkpt>
      <trkpt lat="45.20167" lon="5.41567">
        <ele>196.82</ele>
        <time>2017-02-25T16:46:58Z</time>
      </trkpt>
      <trkpt lat="45.20159" lon="5.41583">
        <ele>196.22</ele>
        <time>2017-02-25T16:46:59Z</time>
      </trkpt>
      <trkpt lat="45.20151" lon="5.41599">
        <ele>195.78</ele>
        <time>2017-02-25T16:47:00Z</time>
      </trkpt>
      <trkpt lat="45.20144" lon="5.41616">
        <ele>195.37</ele>
        <time>2017-02-25T16:47:01Z</time>
      </trkpt>
      <trkpt lat="45.20136" lon="5.41632">
        <ele>195.05</ele>
        <time>2017-02-25T16:47:02Z</time>
      </trkpt>
      <trkpt lat="45.20129" lon="5.41648">
        <ele>194.9</ele>
        <time>2017-02-25T16:47:03Z</time>
      </trkpt>
      <trkpt lat="45.20121" lon="5.41663">
        <ele>194.55</ele>
        <time>2017-02-25T16:47:04Z</time>
      </trkpt>
      <trkpt lat="45.20112" lon="5.41676">
        <ele>194.32</ele>
        <time>2017-02-25T16:47:05Z</time>
      </trkpt>
      <trkpt lat="45.20102" lon="5.41688">
        <ele>194.04</ele>
        <time>2017-02-25T16:47:06Z</time>
      </trkpt>
      <trkpt lat="45.20092" lon="5.41697">
        <ele>193.74</ele>
        <time>2017-02-25T16:47:07Z</time>
      </trkpt>
      <trkpt lat="45.20081" lon="5.41702">
        <ele>193.2</ele>
        <time>2017-02-25T16:47:08Z</time>
      </trkpt>
      <trkpt lat="45.2007" lon="5.41702">
        <ele>193.41</ele>
        <time>2017-02-25T16:47:09Z</time>
      </trkpt>
      <trkpt lat="45.2006" lon="5.41699">
        <ele>193.38</ele>
        <time>2017-02-25T16:47:10Z</time>
      </trkpt>
      <trkpt lat="45.2005" lon="5.41698">
        <ele>193.29</ele>
        <time>2017-02-25T16:47:11Z</time>
      </trkpt>
      <trkpt lat="45.20041" lon="5.417">
        <ele>193.67</ele>
        <time>2017-02-25T16:47:12Z</time>
      </trkpt>
      <trkpt lat="45.20033" lon="5.41708">
        <ele>193.99</ele>
        <time>2017-02-25T16:47:13Z</time>
      </trkpt>
      <trkpt lat="45.20026" lon="5.41718">
        <ele>194.37</ele>
        <time>2017-02-25T16:47:14Z</time>
      </trkpt>
      <trkpt lat="45.20021" lon="5.41729">
        <ele>194.37</ele>
        <time>2017-02-25T16:47:15Z</time>
      </trkpt>
      <trkpt lat="45.20018" lon="5.41744">
        <ele>194.13</ele>
        <time>2017-02-25T16:47:16Z</time>
      </trkpt>
      <trkpt lat="45.20014" lon="5.41758">
        <ele>194.16</ele>
        <time>2017-02-25T16:47:17Z</time>
      </trkpt>
      <trkpt lat="45.20009" lon="5.41773">
        <ele>194.25</ele>
        <time>2017-02-25T16:47:18Z</time>
      </trkpt>
      <trkpt lat="45.20002" lon="5.41787">
        <ele>194.34</ele>
        <time>2017-02-25T16:47:19Z</time>
      </trkpt>
      <trkpt lat="45.19996" lon="5.418">
        <ele>194.84</ele>
        <time>2017-02-25T16:47:20Z</time>
      </trkpt>
      <trkpt lat="45.19989" lon="5.41813">
        <ele>195.34</ele>
        <time>2017-02-25T16:47:21Z</time>
      </trkpt>
      <trkpt lat="45.19983" lon="5.41826">
        <ele>195.52</ele>
        <time>2017-02-25T16:47:22Z</time>
      </trkpt>
      <trkpt lat="45.19977" lon="5.4184">
        <ele>195.72</ele>
        <time>2017-02-25T16:47:23Z</time>
      </trkpt>
      <trkpt lat="45.19972" lon="5.41854">
        <ele>196.24</ele>
        <time>2017-02-25T16:47:24Z</time>
      </trkpt>
      <trkpt lat="45.19967" lon="5.41868">
        <ele>196.58</ele>
        <time>2017-02-25T16:47:25Z</time>
      </trkpt>
      <trkpt lat="45.19962" lon="5.41882">
        <ele>197.13</ele>
        <time>2017-02-25T16:47:26Z</time>
      </trkpt>
      <trkpt lat="45.19958" lon="5.41896">
        <ele>197.4</ele>
        <time>2017-02-25T16:47:27Z</time>
      </trkpt>
      <trkpt lat="45.19954" lon="5.41909">
        <ele>197.61</ele>
        <time>2017-02-25T16:47:28Z</time>
      </trkpt>
      <trkpt lat="45.1995" lon="5.4192">
        <ele>197.9</ele>
        <time>2017-02-25T16:47:29Z</time>
      </trkpt>
      <trkpt lat="45.19946" lon="5.4193">
        <ele>198.03</ele>
        <time>2017-02-25T16:47:30Z</time>
      </trkpt>
      <trkpt lat="45.19943" lon="5.41938">
        <ele>198.14</ele>
        <time>2017-02-25T16:47:31Z</time>
      </trkpt>
      <trkpt lat="45.19941" lon="5.41945">
        <ele>198.32</ele>
        <time>2017-02-25T16:47:32Z</time>
      </trkpt>
      <trkpt lat="45.1994" lon="5.41949">
        <ele>198.52</ele>
        <time>2017-02-25T16:47:33Z</time>
      </trkpt>
      <trkpt lat="45.19939" lon="5.41951">
        <ele>198.8</ele>
        <time>2017-02-25T16:47:34Z</time>
      </trkpt>
      <trkpt lat="45.19939" lon="5.41954">
        <ele>199.17</ele>
        <time>2017-02-25T16:47:35Z</time>
      </trkpt>
      <trkpt lat="45.19937" lon="5.41959">
        <ele>199.49</ele>
        <time>2017-02-25T16:47:36Z</time>
      </trkpt>
      <trkpt lat="45.19934" lon="5.41967">
        <ele>199.55</ele>
        <time>2017-02-25T16:47:37Z</time>
      </trkpt>
      <trkpt lat="45.1993" lon="5.41978">
        <ele>199.64</ele>
        <time>2017-02-25T16:47:38Z</time>
      </trkpt>
      <trkpt lat="45.19925" lon="5.41991">
        <ele>199.74</ele>
        <time>2017-02-25T16:47:39Z</time>
      </trkpt>
      <trkpt lat="45.1992" lon="5.42005">
        <ele>199.76</ele>
        <time>2017-02-25T16:47:40Z</time>
      </trkpt>
      <trkpt lat="45.19914" lon="5.4202">
        <ele>199.69</ele>
        <time>2017-02-25T16:47:41Z</time>
      </trkpt>
      <trkpt lat="45.19908" lon="5.42036">
        <ele>199.75</ele>
        <time>2017-02-25T16:47:42Z</time>
      </trkpt>
      <trkpt lat="45.19902" lon="5.42052">
        <ele>199.84</ele>
        <time>2017-02-25T16:47:43Z</time>
      </trkpt>
      <trkpt lat="45.19895" lon="5.42068">
        <ele>199.78</ele>
        <time>2017-02-25T16:47:44Z</time>
      </trkpt>
      <trkpt lat="45.19889" lon="5.42085">
        <ele>199.53</ele>
        <time>2017-02-25T16:47:45Z</time>
      </trkpt>
      <trkpt lat="45.19883" lon="5.42101">
        <ele>198.84</ele>
        <time>2017-02-25T16:47:46Z</time>
      </trkpt>
      <trkpt lat="45.19877" lon="5.42117">
        <ele>198.22</ele>
        <time>2017-02-25T16:47:47Z</time>
      </trkpt>
      <trkpt lat="45.19871" lon="5.42131">
        <ele>197.7</ele>
        <time>2017-02-25T16:47:48Z</time>
      </trkpt>
      <trkpt lat="45.19866" lon="5.42144">
        <ele>197.35</ele>
        <time>2017-02-25T16:47:49Z</time>
      </trkpt>
      <trkpt lat="45.19861" lon="5.42156">
        <ele>197.28</ele>
        <time>2017-02-25T16:47:50Z</time>
      </trkpt>
      <trkpt lat="45.19857" lon="5.42165">
        <ele>197.19</ele>
        <time>2017-02-25T16:47:51Z</time>
      </trkpt>
      <trkpt lat="45.19854" lon="5.42174">
        <ele>197.33</ele>
        <time>2017-02-25T16:47:52Z</time>
      </trkpt>
      <trkpt lat="45.19851" lon="5.42181">
        <ele>197.76</ele>
        <time>2017-02-25T16:47:53Z</time>
      </trkpt>
      <trkpt lat="45.19848" lon="5.42186">
        <ele>198.17</ele>
        <time>2017-02-25T16:47:54Z</time>
      </trkpt>
      <trkpt lat="45.19846" lon="5.42191">
        <ele>198.41</ele>
        <time>2017-02-25T16:47:55Z</time>
      </trkpt>
      <trkpt lat="45.19845" lon="5.42195">
        <ele>198.37</ele>
        <time>2017-02-25T16:47:56Z</time>
      </trkpt>
      <trkpt lat="45.19843" lon="5.42198">
        <ele>198.61</ele>
        <time>2017-02-25T16:47:57Z</time>
      </trkpt>
      <trkpt lat="45.19842" lon="5.42201">
        <ele>198.58</ele>
        <time>2017-02-25T16:47:58Z</time>
      </trkpt>
      <trkpt lat="45.19841" lon="5.42204">
        <ele>198.33</ele>
        <time>2017-02-25T16:47:59Z</time>
      </trkpt>
      <trkpt lat="45.1984" lon="5.42206">
        <ele>198.12</ele>
        <time>2017-02-25T16:48:00Z</time>
      </trkpt>
      <trkpt lat="45.19839" lon="5.42209">
        <ele>198</ele>
        <time>2017-02-25T16:48:01Z</time>
      </trkpt>
      <trkpt lat="45.19838" lon="5.4221">
        <ele>197.73</ele>
        <time>2017-02-25T16:48:02Z</time>
      </trkpt>
      <trkpt lat="45.19838" lon="5.42211">
        <ele>197.36</ele>
        <time>2017-02-25T16:48:03Z</time>
      </trkpt>
      <trkpt lat="45.19838" lon="5.4221">
        <ele>196.73</ele>
        <time>2017-02-25T16:48:04Z</time>
      </trkpt>
      <trkpt lat="45.19839" lon="5.4221">
        <ele>196.36</ele>
        <time>2017-02-25T16:48:05Z</time>
      </trkpt>
      <trkpt lat="45.19839" lon="5.4221">
        <ele>196.29</ele>
        <time>2017-02-25T16:48:06Z</time>
      </trkpt>
      <trkpt lat="45.19839" lon="5.4221">
        <ele>196.27</ele>
        <time>2017-02-25T16:48:07Z</time>
      </trkpt>
      <trkpt lat="45.19839" lon="5.4221">
        <ele>196.27</ele>
        <time>2017-02-25T16:48:08Z</time>
      </trkpt>
      <trkpt lat="45.19839" lon="5.4221">
        <ele>196.27</ele>
        <time>2017-02-25T16:48:09Z</time>
      </trkpt>
      <trkpt lat="45.19839" lon="5.4221">
        <ele>196.27</ele>
        <time>2017-02-25T16:48:10Z</time>
      </trkpt>
      <trkpt lat="45.19839" lon="5.4221">
        <ele>196.27</ele>
        <time>2017-02-25T16:48:11Z</time>
      </trkpt>
      <trkpt lat="45.19839" lon="5.4221">
        <ele>196.27</ele>
        <time>2017-02-25T16:48:12Z</time>
      </trkpt>
      <trkpt lat="45.19839" lon="5.4221">
        <ele>196.27</ele>
        <time>2017-02-25T16:48:13Z</time>
      </trkpt>
      <trkpt lat="45.19839" lon="5.4221">
        <ele>196.27</ele>
        <time>2017-02-25T16:48:14Z</time>
      </trkpt>
      <trkpt lat="45.19839" lon="5.4221">
        <ele>196.27</ele>
        <time>2017-02-25T16:48:15Z</time>
      </trkpt>
      <trkpt lat="45.19839" lon="5.4221">
        <ele>196.27</ele>
        <time>2017-02-25T16:48:16Z</time>
      </trkpt>
      <trkpt lat="45.19839" lon="5.4221">
        <ele>196.27</ele>
        <time>2017-02-25T16:48:17Z</time>
      </trkpt>
      <trkpt lat="45.19839" lon="5.4221">
        <ele>196.27</ele>
        <time>2017-02-25T16:48:18Z</time>
      </trkpt>
      <trkpt lat="45.19839" lon="5.4221">
        <ele>196.27</ele>
        <time>2017-02-25T16:48:19Z</time>
      </trkpt>
      <trkpt lat="45.19837" lon="5.42214">
        <ele>195.79</ele>
        <time>2017-02-25T16:48:20Z</time>
      </trkpt>
      <trkpt lat="45.19835" lon="5.4222">
        <ele>195.61</ele>
        <time>2017-02-25T16:48:21Z</time>
      </trkpt>
      <trkpt lat="45.19831" lon="5.42228">
        <ele>195.58</ele>
        <time>2017-02-25T16:48:22Z</time>
      </trkpt>
      <trkpt lat="45.19827" lon="5.42238">
        <ele>195.49</ele>
        <time>2017-02-25T16:48:23Z</time>
      </trkpt>
      <trkpt lat="45.19822" lon="5.42251">
        <ele>195.47</ele>
        <time>2017-02-25T16:48:24Z</time>
      </trkpt>
      <trkpt lat="45.19815" lon="5.42265">
        <ele>195.47</ele>
        <time>2017-02-25T16:48:25Z</time>
      </trkpt>
      <trkpt lat="45.19808" lon="5.4228">
        <ele>195.47</ele>
        <time>2017-02-25T16:48:26Z</time>
      </trkpt>
      <trkpt lat="45.198" lon="5.42297">
        <ele>195.55</ele>
        <time>2017-02-25T16:48:27Z</time>
      </trkpt>
      <trkpt lat="45.19792" lon="5.42315">
        <ele>195.56</ele>
        <time>2017-02-25T16:48:28Z</time>
      </trkpt>
      <trkpt lat="45.19784" lon="5.42333">
        <ele>195.65</ele>
        <time>2017-02-25T16:48:29Z</time>
      </trkpt>
      <trkpt lat="45.19777" lon="5.42351">
        <ele>195.58</ele>
        <time>2017-02-25T16:48:30Z</time>
      </trkpt>
      <trkpt lat="45.1977" lon="5.42369">
        <ele>195.49</ele>
        <time>2017-02-25T16:48:31Z</time>
      </trkpt>
      <trkpt lat="45.19767" lon="5.42389">
        <ele>195.07</ele>
        <time>2017-02-25T16:48:32Z</time>
      </trkpt>
      <trkpt lat="45.19767" lon="5.42408">
        <ele>194.67</ele>
        <time>2017-02-25T16:48:33Z</time>
      </trkpt>
      <trkpt lat="45.19771" lon="5.42426">
        <ele>194.35</ele>
        <time>2017-02-25T16:48:34Z</time>
      </trkpt>
      <trkpt lat="45.19778" lon="5.42442">
        <ele>193.88</ele>
        <time>2017-02-25T16:48:35Z</time>
      </trkpt>
      <trkpt lat="45.19785" lon="5.42456">
        <ele>193.31</ele>
        <time>2017-02-25T16:48:36Z</time>
      </trkpt>
      <trkpt lat="45.198" lon="5.42462">
        <ele>192.48</ele>
        <time>2017-02-25T16:48:37Z</time>
      </trkpt>
      <trkpt lat="45.19816" lon="5.42467">
        <ele>191.59</ele>
        <time>2017-02-25T16:48:38Z</time>
      </trkpt>
      <trkpt lat="45.19834" lon="5.42468">
        <ele>190.37</ele>
        <time>2017-02-25T16:48:39Z</time>
      </trkpt>
      <trkpt lat="45.19852" lon="5.4247">
        <ele>189.73</ele>
        <time>2017-02-25T16:48:40Z</time>
      </trkpt>
      <trkpt lat="45.19871" lon="5.42474">
        <ele>189.2</ele>
        <time>2017-02-25T16:48:41Z</time>
      </trkpt>
      <trkpt lat="45.1989" lon="5.42482">
        <ele>188.29</ele>
        <time>2017-02-25T16:48:42Z</time>
      </trkpt>
      <trkpt lat="45.19909" lon="5.42495">
        <ele>187.23</ele>
        <time>2017-02-25T16:48:43Z</time>
      </trkpt>
      <trkpt lat="45.19928" lon="5.42512">
        <ele>186.14</ele>
        <time>2017-02-25T16:48:44Z</time>
      </trkpt>
      <trkpt lat="45.19947" lon="5.42534">
        <ele>185.44</ele>
        <time>2017-02-25T16:48:45Z</time>
      </trkpt>
      <trkpt lat="45.19966" lon="5.42562">
        <ele>184.66</ele>
        <time>2017-02-25T16:48:46Z</time>
      </trkpt>
      <trkpt lat="45.19984" lon="5.42594">
        <ele>183.79</ele>
        <time>2017-02-25T16:48:47Z</time>
      </trkpt>
      <trkpt lat="45.20002" lon="5.42628">
        <ele>183.05</ele>
        <time>2017-02-25T16:48:48Z</time>
      </trkpt>
      <trkpt lat="45.20021" lon="5.42663">
        <ele>182.26</ele>
        <time>2017-02-25T16:48:49Z</time>
      </trkpt>
      <trkpt lat="45.2004" lon="5.42702">
        <ele>181.63</ele>
        <time>2017-02-25T16:48:50Z</time>
      </trkpt>
      <trkpt lat="45.20059" lon="5.42742">
        <ele>181.1</ele>
        <time>2017-02-25T16:48:51Z</time>
      </trkpt>
      <trkpt lat="45.20078" lon="5.42782">
        <ele>180.75</ele>
        <time>2017-02-25T16:48:52Z</time>
      </trkpt>
      <trkpt lat="45.20097" lon="5.42824">
        <ele>180.6</ele>
        <time>2017-02-25T16:48:53Z</time>
      </trkpt>
      <trkpt lat="45.20116" lon="5.42867">
        <ele>180.49</ele>
        <time>2017-02-25T16:48:54Z</time>
      </trkpt>
      <trkpt lat="45.20133" lon="5.42909">
        <ele>180.15</ele>
        <time>2017-02-25T16:48:55Z</time>
      </trkpt>
      <trkpt lat="45.2015" lon="5.42951">
        <ele>180.08</ele>
        <time>2017-02-25T16:48:56Z</time>
      </trkpt>
      <trkpt lat="45.20167" lon="5.42994">
        <ele>180.07</ele>
        <time>2017-02-25T16:48:57Z</time>
      </trkpt>
      <trkpt lat="45.20182" lon="5.43036">
        <ele>180.31</ele>
        <time>2017-02-25T16:48:58Z</time>
      </trkpt>
      <trkpt lat="45.20197" lon="5.43078">
        <ele>180.52</ele>
        <time>2017-02-25T16:48:59Z</time>
      </trkpt>
      <trkpt lat="45.20212" lon="5.4312">
        <ele>180.48</ele>
        <time>2017-02-25T16:49:00Z</time>
      </trkpt>
      <trkpt lat="45.20226" lon="5.43161">
        <ele>180.39</ele>
        <time>2017-02-25T16:49:01Z</time>
      </trkpt>
      <trkpt lat="45.20239" lon="5.43203">
        <ele>180.29</ele>
        <time>2017-02-25T16:49:02Z</time>
      </trkpt>
      <trkpt lat="45.20252" lon="5.43245">
        <ele>180.75</ele>
        <time>2017-02-25T16:49:03Z</time>
      </trkpt>
      <trkpt lat="45.20264" lon="5.43287">
        <ele>181.08</ele>
        <time>2017-02-25T16:49:04Z</time>
      </trkpt>
      <trkpt lat="45.20277" lon="5.43329">
        <ele>181.71</ele>
        <time>2017-02-25T16:49:05Z</time>
      </trkpt>
      <trkpt lat="45.20289" lon="5.43371">
        <ele>182.48</ele>
        <time>2017-02-25T16:49:06Z</time>
      </trkpt>
      <trkpt lat="45.20301" lon="5.43412">
        <ele>182.87</ele>
        <time>2017-02-25T16:49:07Z</time>
      </trkpt>
      <trkpt lat="45.20312" lon="5.43453">
        <ele>183.03</ele>
        <time>2017-02-25T16:49:08Z</time>
      </trkpt>
      <trkpt lat="45.20323" lon="5.43495">
        <ele>183.06</ele>
        <time>2017-02-25T16:49:09Z</time>
      </trkpt>
      <trkpt lat="45.20335" lon="5.43539">
        <ele>183.71</ele>
        <time>2017-02-25T16:49:10Z</time>
      </trkpt>
      <trkpt lat="45.20347" lon="5.43583">
        <ele>184.07</ele>
        <time>2017-02-25T16:49:11Z</time>
      </trkpt>
      <trkpt lat="45.20359" lon="5.43627">
        <ele>184.55</ele>
        <time>2017-02-25T16:49:12Z</time>
      </trkpt>
      <trkpt lat="45.20371" lon="5.43671">
        <ele>184.88</ele>
        <time>2017-02-25T16:49:13Z</time>
      </trkpt>
      <trkpt lat="45.20383" lon="5.43715">
        <ele>184.87</ele>
        <time>2017-02-25T16:49:14Z</time>
      </trkpt>
      <trkpt lat="45.20395" lon="5.43758">
        <ele>184.71</ele>
        <time>2017-02-25T16:49:15Z</time>
      </trkpt>
      <trkpt lat="45.20408" lon="5.43801">
        <ele>184.44</ele>
        <time>2017-02-25T16:49:16Z</time>
      </trkpt>
      <trkpt lat="45.20419" lon="5.43844">
        <ele>184.3</ele>
        <time>2017-02-25T16:49:17Z</time>
      </trkpt>
      <trkpt lat="45.20431" lon="5.43888">
        <ele>184.27</ele>
        <time>2017-02-25T16:49:18Z</time>
      </trkpt>
      <trkpt lat="45.20442" lon="5.43932">
        <ele>184.03</ele>
        <time>2017-02-25T16:49:19Z</time>
      </trkpt>
      <trkpt lat="45.20454" lon="5.43976">
        <ele>184.06</ele>
        <time>2017-02-25T16:49:20Z</time>
      </trkpt>
      <trkpt lat="45.20465" lon="5.4402">
        <ele>184.63</ele>
        <time>2017-02-25T16:49:21Z</time>
      </trkpt>
      <trkpt lat="45.20477" lon="5.44065">
        <ele>184.98</ele>
        <time>2017-02-25T16:49:22Z</time>
      </trkpt>
      <trkpt lat="45.20488" lon="5.44109">
        <ele>185.29</ele>
        <time>2017-02-25T16:49:23Z</time>
      </trkpt>
      <trkpt lat="45.205" lon="5.44153">
        <ele>185.35</ele>
        <time>2017-02-25T16:49:24Z</time>
      </trkpt>
      <trkpt lat="45.20512" lon="5.44198">
        <ele>185.12</ele>
        <time>2017-02-25T16:49:25Z</time>
      </trkpt>
      <trkpt lat="45.20524" lon="5.44242">
        <ele>184.68</ele>
        <time>2017-02-25T16:49:26Z</time>
      </trkpt>
      <trkpt lat="45.20535" lon="5.44286">
        <ele>184.27</ele>
        <time>2017-02-25T16:49:27Z</time>
      </trkpt>
      <trkpt lat="45.20547" lon="5.4433">
        <ele>184.03</ele>
        <time>2017-02-25T16:49:28Z</time>
      </trkpt>
      <trkpt lat="45.20559" lon="5.44374">
        <ele>183.74</ele>
        <time>2017-02-25T16:49:29Z</time>
      </trkpt>
      <trkpt lat="45.20571" lon="5.44418">
        <ele>183.2</ele>
        <time>2017-02-25T16:49:30Z</time>
      </trkpt>
      <trkpt lat="45.20583" lon="5.44462">
        <ele>183.09</ele>
        <time>2017-02-25T16:49:31Z</time>
      </trkpt>
      <trkpt lat="45.20595" lon="5.44506">
        <ele>183.07</ele>
        <time>2017-02-25T16:49:32Z</time>
      </trkpt>
      <trkpt lat="45.20606" lon="5.44549">
        <ele>182.83</ele>
        <time>2017-02-25T16:49:33Z</time>
      </trkpt>
      <trkpt lat="45.20618" lon="5.44593">
        <ele>182.78</ele>
        <time>2017-02-25T16:49:34Z</time>
      </trkpt>
      <trkpt lat="45.2063" lon="5.44636">
        <ele>182.53</ele>
        <time>2017-02-25T16:49:35Z</time>
      </trkpt>
      <trkpt lat="45.20642" lon="5.4468">
        <ele>182.48</ele>
        <time>2017-02-25T16:49:36Z</time>
      </trkpt>
      <trkpt lat="45.20654" lon="5.44723">
        <ele>182.39</ele>
        <time>2017-02-25T16:49:37Z</time>
      </trkpt>
      <trkpt lat="45.20666" lon="5.44766">
        <ele>182.21</ele>
        <time>2017-02-25T16:49:38Z</time>
      </trkpt>
      <trkpt lat="45.20677" lon="5.44809">
        <ele>181.94</ele>
        <time>2017-02-25T16:49:39Z</time>
      </trkpt>
      <trkpt lat="45.20689" lon="5.44852">
        <ele>181.88</ele>
        <time>2017-02-25T16:49:40Z</time>
      </trkpt>
      <trkpt lat="45.207" lon="5.44896">
        <ele>181.79</ele>
        <time>2017-02-25T16:49:41Z</time>
      </trkpt>
      <trkpt lat="45.20712" lon="5.44939">
        <ele>181.77</ele>
        <time>2017-02-25T16:49:42Z</time>
      </trkpt>
      <trkpt lat="45.20724" lon="5.44983">
        <ele>181.61</ele>
        <time>2017-02-25T16:49:43Z</time>
      </trkpt>
      <trkpt lat="45.20735" lon="5.45026">
        <ele>181.66</ele>
        <time>2017-02-25T16:49:44Z</time>
      </trkpt>
      <trkpt lat="45.20747" lon="5.45069">
        <ele>181.66</ele>
        <time>2017-02-25T16:49:45Z</time>
      </trkpt>
      <trkpt lat="45.20759" lon="5.45112">
        <ele>181.43</ele>
        <time>2017-02-25T16:49:46Z</time>
      </trkpt>
      <trkpt lat="45.2077" lon="5.45155">
        <ele>181.14</ele>
        <time>2017-02-25T16:49:47Z</time>
      </trkpt>
      <trkpt lat="45.20782" lon="5.45198">
        <ele>180.92</ele>
        <time>2017-02-25T16:49:48Z</time>
      </trkpt>
      <trkpt lat="45.20793" lon="5.45241">
        <ele>180.16</ele>
        <time>2017-02-25T16:49:49Z</time>
      </trkpt>
      <trkpt lat="45.20804" lon="5.45284">
        <ele>180.09</ele>
        <time>2017-02-25T16:49:50Z</time>
      </trkpt>
      <trkpt lat="45.20815" lon="5.45327">
        <ele>179.83</ele>
        <time>2017-02-25T16:49:51Z</time>
      </trkpt>
      <trkpt lat="45.20826" lon="5.45369">
        <ele>179.3</ele>
        <time>2017-02-25T16:49:52Z</time>
      </trkpt>
      <trkpt lat="45.20836" lon="5.45412">
        <ele>178.47</ele>
        <time>2017-02-25T16:49:53Z</time>
      </trkpt>
      <trkpt lat="45.20846" lon="5.45455">
        <ele>177.83</ele>
        <time>2017-02-25T16:49:54Z</time>
      </trkpt>
      <trkpt lat="45.20855" lon="5.45498">
        <ele>177.22</ele>
        <time>2017-02-25T16:49:55Z</time>
      </trkpt>
      <trkpt lat="45.20863" lon="5.45542">
        <ele>176.7</ele>
        <time>2017-02-25T16:49:56Z</time>
      </trkpt>
      <trkpt lat="45.20871" lon="5.45585">
        <ele>175.87</ele>
        <time>2017-02-25T16:49:57Z</time>
      </trkpt>
      <trkpt lat="45.20878" lon="5.45629">
        <ele>174.67</ele>
        <time>2017-02-25T16:49:58Z</time>
      </trkpt>
      <trkpt lat="45.20884" lon="5.45673">
        <ele>173.47</ele>
        <time>2017-02-25T16:49:59Z</time>
      </trkpt>
      <trkpt lat="45.2089" lon="5.45718">
        <ele>171.95</ele>
        <time>2017-02-25T16:50:00Z</time>
      </trkpt>
      <trkpt lat="45.20896" lon="5.45762">
        <ele>170.68</ele>
        <time>2017-02-25T16:50:01Z</time>
      </trkpt>
      <trkpt lat="45.20901" lon="5.45807">
        <ele>169.47</ele>
        <time>2017-02-25T16:50:02Z</time>
      </trkpt>
      <trkpt lat="45.20906" lon="5.45852">
        <ele>168.03</ele>
        <time>2017-02-25T16:50:03Z</time>
      </trkpt>
      <trkpt lat="45.20911" lon="5.45897">
        <ele>166.46</ele>
        <time>2017-02-25T16:50:04Z</time>
      </trkpt>
      <trkpt lat="45.20916" lon="5.45943">
        <ele>165.27</ele>
        <time>2017-02-25T16:50:05Z</time>
      </trkpt>
      <trkpt lat="45.20921" lon="5.45989">
        <ele>164.23</ele>
        <time>2017-02-25T16:50:06Z</time>
      </trkpt>
      <trkpt lat="45.20926" lon="5.46035">
        <ele>163.22</ele>
        <time>2017-02-25T16:50:07Z</time>
      </trkpt>
      <trkpt lat="45.20932" lon="5.46081">
        <ele>162.06</ele>
        <time>2017-02-25T16:50:08Z</time>
      </trkpt>
      <trkpt lat="45.20938" lon="5.46126">
        <ele>160.63</ele>
        <time>2017-02-25T16:50:09Z</time>
      </trkpt>
      <trkpt lat="45.20944" lon="5.46172">
        <ele>159.22</ele>
        <time>2017-02-25T16:50:10Z</time>
      </trkpt>
      <trkpt lat="45.20952" lon="5.46217">
        <ele>157.82</ele>
        <time>2017-02-25T16:50:11Z</time>
      </trkpt>
      <trkpt lat="45.2096" lon="5.46262">
        <ele>156.34</ele>
        <time>2017-02-25T16:50:12Z</time>
      </trkpt>
      <trkpt lat="45.20968" lon="5.46308">
        <ele>154.84</ele>
        <time>2017-02-25T16:50:13Z</time>
      </trkpt>
      <trkpt lat="45.20977" lon="5.46352">
        <ele>153.26</ele>
        <time>2017-02-25T16:50:14Z</time>
      </trkpt>
      <trkpt lat="45.20987" lon="5.46397">
        <ele>151.59</ele>
        <time>2017-02-25T16:50:15Z</time>
      </trkpt>
      <trkpt lat="45.20998" lon="5.46442">
        <ele>149.97</ele>
        <time>2017-02-25T16:50:16Z</time>
      </trkpt>
      <trkpt lat="45.21009" lon="5.46486">
        <ele>148.21</ele>
        <time>2017-02-25T16:50:17Z</time>
      </trkpt>
      <trkpt lat="45.2102" lon="5.4653">
        <ele>146.74</ele>
        <time>2017-02-25T16:50:18Z</time>
      </trkpt>
      <trkpt lat="45.21033" lon="5.46573">
        <ele>145.24</ele>
        <time>2017-02-25T16:50:19Z</time>
      </trkpt>
      <trkpt lat="45.21047" lon="5.46616">
        <ele>143.9</ele>
        <time>2017-02-25T16:50:20Z</time>
      </trkpt>
      <trkpt lat="45.2106" lon="5.46659">
        <ele>142.59</ele>
        <time>2017-02-25T16:50:21Z</time>
      </trkpt>
      <trkpt lat="45.21075" lon="5.46702">
        <ele>141.37</ele>
        <time>2017-02-25T16:50:22Z</time>
      </trkpt>
      <trkpt lat="45.21089" lon="5.46745">
        <ele>140.25</ele>
        <time>2017-02-25T16:50:23Z</time>
      </trkpt>
      <trkpt lat="45.21105" lon="5.46787">
        <ele>138.49</ele>
        <time>2017-02-25T16:50:24Z</time>
      </trkpt>
      <trkpt lat="45.21121" lon="5.46828">
        <ele>137.66</ele>
        <time>2017-02-25T16:50:25Z</time>
      </trkpt>
      <trkpt lat="45.21138" lon="5.46869">
        <ele>136.77</ele>
        <time>2017-02-25T16:50:26Z</time>
      </trkpt>
      <trkpt lat="45.21156" lon="5.46909">
        <ele>135.71</ele>
        <time>2017-02-25T16:50:27Z</time>
      </trkpt>
      <trkpt lat="45.21175" lon="5.46949">
        <ele>134.94</ele>
        <time>2017-02-25T16:50:28Z</time>
      </trkpt>
      <trkpt lat="45.21194" lon="5.46989">
        <ele>134.47</ele>
        <time>2017-02-25T16:50:29Z</time>
      </trkpt>
      <trkpt lat="45.21214" lon="5.47028">
        <ele>134.13</ele>
        <time>2017-02-25T16:50:30Z</time>
      </trkpt>
      <trkpt lat="45.21234" lon="5.47067">
        <ele>134.31</ele>
        <time>2017-02-25T16:50:31Z</time>
      </trkpt>
      <trkpt lat="45.21254" lon="5.47105">
        <ele>134.02</ele>
        <time>2017-02-25T16:50:32Z</time>
      </trkpt>
      <trkpt lat="45.21274" lon="5.47142">
        <ele>133.64</ele>
        <time>2017-02-25T16:50:33Z</time>
      </trkpt>
      <trkpt lat="45.21295" lon="5.4718">
        <ele>133.41</ele>
        <time>2017-02-25T16:50:34Z</time>
      </trkpt>
      <trkpt lat="45.21317" lon="5.47216">
        <ele>132.88</ele>
        <time>2017-02-25T16:50:35Z</time>
      </trkpt>
      <trkpt lat="45.21339" lon="5.47252">
        <ele>132.14</ele>
        <time>2017-02-25T16:50:36Z</time>
      </trkpt>
      <trkpt lat="45.21361" lon="5.47287">
        <ele>131.59</ele>
        <time>2017-02-25T16:50:37Z</time>
      </trkpt>
      <trkpt lat="45.21385" lon="5.47321">
        <ele>131.48</ele>
        <time>2017-02-25T16:50:38Z</time>
      </trkpt>
      <trkpt lat="45.21409" lon="5.47354">
        <ele>131.69</ele>
        <time>2017-02-25T16:50:39Z</time>
      </trkpt>
      <trkpt lat="45.21433" lon="5.47387">
        <ele>131.66</ele>
        <time>2017-02-25T16:50:40Z</time>
      </trkpt>
      <trkpt lat="45.21458" lon="5.47419">
        <ele>131.89</ele>
        <time>2017-02-25T16:50:41Z</time>
      </trkpt>
      <trkpt lat="45.21484" lon="5.4745">
        <ele>132.26</ele>
        <time>2017-02-25T16:50:42Z</time>
      </trkpt>
      <trkpt lat="45.21509" lon="5.4748">
        <ele>132.41</ele>
        <time>2017-02-25T16:50:43Z</time>
      </trkpt>
      <trkpt lat="45.21536" lon="5.47509">
        <ele>132.68</ele>
        <time>2017-02-25T16:50:44Z</time>
      </trkpt>
      <trkpt lat="45.21563" lon="5.47537">
        <ele>132.98</ele>
        <time>2017-02-25T16:50:45Z</time>
      </trkpt>
      <trkpt lat="45.2159" lon="5.47565">
        <ele>133.03</ele>
        <time>2017-02-25T16:50:46Z</time>
      </trkpt>
      <trkpt lat="45.21617" lon="5.47592">
        <ele>133.05</ele>
        <time>2017-02-25T16:50:47Z</time>
      </trkpt>
      <trkpt lat="45.21644" lon="5.47618">
        <ele>132.65</ele>
        <time>2017-02-25T16:50:48Z</time>
      </trkpt>
      <trkpt lat="45.21672" lon="5.47644">
        <ele>132.57</ele>
        <time>2017-02-25T16:50:49Z</time>
      </trkpt>
      <trkpt lat="45.217" lon="5.47669">
        <ele>132.55</ele>
        <time>2017-02-25T16:50:50Z</time>
      </trkpt>
      <trkpt lat="45.21728" lon="5.47694">
        <ele>132.39</ele>
        <time>2017-02-25T16:50:51Z</time>
      </trkpt>
      <trkpt lat="45.21757" lon="5.47719">
        <ele>132.44</ele>
        <time>2017-02-25T16:50:52Z</time>
      </trkpt>
      <trkpt lat="45.21785" lon="5.47744">
        <ele>132.53</ele>
        <time>2017-02-25T16:50:53Z</time>
      </trkpt>
      <trkpt lat="45.21813" lon="5.47769">
        <ele>132.54</ele>
        <time>2017-02-25T16:50:54Z</time>
      </trkpt>
      <trkpt lat="45.21841" lon="5.47794">
        <ele>132.47</ele>
        <time>2017-02-25T16:50:55Z</time>
      </trkpt>
      <trkpt lat="45.2187" lon="5.47819">
        <ele>132.61</ele>
        <time>2017-02-25T16:50:56Z</time>
      </trkpt>
      <trkpt lat="45.21898" lon="5.47843">
        <ele>132.64</ele>
        <time>2017-02-25T16:50:57Z</time>
      </trkpt>
      <trkpt lat="45.21927" lon="5.47866">
        <ele>132.57</ele>
        <time>2017-02-25T16:50:58Z</time>
      </trkpt>
      <trkpt lat="45.21956" lon="5.47888">
        <ele>132.55</ele>
        <time>2017-02-25T16:50:59Z</time>
      </trkpt>
      <trkpt lat="45.21985" lon="5.47909">
        <ele>132.79</ele>
        <time>2017-02-25T16:51:00Z</time>
      </trkpt>
      <trkpt lat="45.22014" lon="5.47929">
        <ele>133.16</ele>
        <time>2017-02-25T16:51:01Z</time>
      </trkpt>
      <trkpt lat="45.22044" lon="5.47948">
        <ele>133.55</ele>
        <time>2017-02-25T16:51:02Z</time>
      </trkpt>
      <trkpt lat="45.22074" lon="5.47966">
        <ele>133.87</ele>
        <time>2017-02-25T16:51:03Z</time>
      </trkpt>
      <trkpt lat="45.22103" lon="5.47984">
        <ele>134.17</ele>
        <time>2017-02-25T16:51:04Z</time>
      </trkpt>
      <trkpt lat="45.22133" lon="5.48001">
        <ele>134.55</ele>
        <time>2017-02-25T16:51:05Z</time>
      </trkpt>
      <trkpt lat="45.22163" lon="5.48017">
        <ele>134.79</ele>
        <time>2017-02-25T16:51:06Z</time>
      </trkpt>
      <trkpt lat="45.22193" lon="5.48032">
        <ele>135.08</ele>
        <time>2017-02-25T16:51:07Z</time>
      </trkpt>
      <trkpt lat="45.22223" lon="5.48046">
        <ele>135.29</ele>
        <time>2017-02-25T16:51:08Z</time>
      </trkpt>
      <trkpt lat="45.22253" lon="5.48059">
        <ele>135.5</ele>
        <time>2017-02-25T16:51:09Z</time>
      </trkpt>
      <trkpt lat="45.22284" lon="5.48072">
        <ele>135.54</ele>
        <time>2017-02-25T16:51:10Z</time>
      </trkpt>
      <trkpt lat="45.22314" lon="5.48084">
        <ele>135.55</ele>
        <time>2017-02-25T16:51:11Z</time>
      </trkpt>
      <trkpt lat="45.22345" lon="5.48095">
        <ele>135.55</ele>
        <time>2017-02-25T16:51:12Z</time>
      </trkpt>
      <trkpt lat="45.22376" lon="5.48106">
        <ele>135.55</ele>
        <time>2017-02-25T16:51:13Z</time>
      </trkpt>
      <trkpt lat="45.22407" lon="5.48115">
        <ele>135.39</ele>
        <time>2017-02-25T16:51:14Z</time>
      </trkpt>
      <trkpt lat="45.22439" lon="5.48123">
        <ele>135.36</ele>
        <time>2017-02-25T16:51:15Z</time>
      </trkpt>
      <trkpt lat="45.2247" lon="5.48131">
        <ele>135.35</ele>
        <time>2017-02-25T16:51:16Z</time>
      </trkpt>
      <trkpt lat="45.22502" lon="5.48138">
        <ele>135.43</ele>
        <time>2017-02-25T16:51:17Z</time>
      </trkpt>
      <trkpt lat="45.22533" lon="5.48145">
        <ele>135.45</ele>
        <time>2017-02-25T16:51:18Z</time>
      </trkpt>
      <trkpt lat="45.22565" lon="5.48152">
        <ele>135.37</ele>
        <time>2017-02-25T16:51:19Z</time>
      </trkpt>
      <trkpt lat="45.22597" lon="5.48159">
        <ele>135.51</ele>
        <time>2017-02-25T16:51:20Z</time>
      </trkpt>
      <trkpt lat="45.22628" lon="5.48166">
        <ele>135.3</ele>
        <time>2017-02-25T16:51:21Z</time>
      </trkpt>
      <trkpt lat="45.2266" lon="5.48173">
        <ele>135.1</ele>
        <time>2017-02-25T16:51:22Z</time>
      </trkpt>
      <trkpt lat="45.22692" lon="5.48181">
        <ele>134.98</ele>
        <time>2017-02-25T16:51:23Z</time>
      </trkpt>
      <trkpt lat="45.22723" lon="5.48189">
        <ele>134.64</ele>
        <time>2017-02-25T16:51:24Z</time>
      </trkpt>
      <trkpt lat="45.22755" lon="5.48198">
        <ele>134.41</ele>
        <time>2017-02-25T16:51:25Z</time>
      </trkpt>
      <trkpt lat="45.22787" lon="5.48209">
        <ele>134.44</ele>
        <time>2017-02-25T16:51:26Z</time>
      </trkpt>
      <trkpt lat="45.22818" lon="5.4822">
        <ele>134.37</ele>
        <time>2017-02-25T16:51:27Z</time>
      </trkpt>
      <trkpt lat="45.2285" lon="5.48232">
        <ele>134.11</ele>
        <time>2017-02-25T16:51:28Z</time>
      </trkpt>
      <trkpt lat="45.22881" lon="5.48245">
        <ele>133.74</ele>
        <time>2017-02-25T16:51:29Z</time>
      </trkpt>
      <trkpt lat="45.22912" lon="5.48259">
        <ele>133.27</ele>
        <time>2017-02-25T16:51:30Z</time>
      </trkpt>
      <trkpt lat="45.22943" lon="5.48274">
        <ele>133.09</ele>
        <time>2017-02-25T16:51:31Z</time>
      </trkpt>
      <trkpt lat="45.22974" lon="5.48291">
        <ele>132.82</ele>
        <time>2017-02-25T16:51:32Z</time>
      </trkpt>
      <trkpt lat="45.23005" lon="5.48308">
        <ele>132.52</ele>
        <time>2017-02-25T16:51:33Z</time>
      </trkpt>
      <trkpt lat="45.23036" lon="5.48325">
        <ele>132.06</ele>
        <time>2017-02-25T16:51:34Z</time>
      </trkpt>
      <trkpt lat="45.23066" lon="5.48344">
        <ele>131.57</ele>
        <time>2017-02-25T16:51:35Z</time>
      </trkpt>
      <trkpt lat="45.23096" lon="5.48364">
        <ele>130.99</ele>
        <time>2017-02-25T16:51:36Z</time>
      </trkpt>
      <trkpt lat="45.23126" lon="5.48384">
        <ele>130.56</ele>
        <time>2017-02-25T16:51:37Z</time>
      </trkpt>
      <trkpt lat="45.23156" lon="5.48406">
        <ele>130.47</ele>
        <time>2017-02-25T16:51:38Z</time>
      </trkpt>
      <trkpt lat="45.23185" lon="5.48429">
        <ele>130.53</ele>
        <time>2017-02-25T16:51:39Z</time>
      </trkpt>
      <trkpt lat="45.23214" lon="5.48453">
        <ele>130.71</ele>
        <time>2017-02-25T16:51:40Z</time>
      </trkpt>
      <trkpt lat="45.23243" lon="5.48477">
        <ele>130.98</ele>
        <time>2017-02-25T16:51:41Z</time>
      </trkpt>
      <trkpt lat="45.23271" lon="5.48502">
        <ele>131.12</ele>
        <time>2017-02-25T16:51:42Z</time>
      </trkpt>
      <trkpt lat="45.233" lon="5.48527">
        <ele>131.06</ele>
        <time>2017-02-25T16:51:43Z</time>
      </trkpt>
      <trkpt lat="45.23328" lon="5.48553">
        <ele>131.21</ele>
        <time>2017-02-25T16:51:44Z</time>
      </trkpt>
      <trkpt lat="45.23355" lon="5.4858">
        <ele>131.24</ele>
        <time>2017-02-25T16:51:45Z</time>
      </trkpt>
      <trkpt lat="45.23382" lon="5.48609">
        <ele>131.01</ele>
        <time>2017-02-25T16:51:46Z</time>
      </trkpt>
      <trkpt lat="45.23408" lon="5.48638">
        <ele>130.8</ele>
        <time>2017-02-25T16:51:47Z</time>
      </trkpt>
      <trkpt lat="45.23434" lon="5.48668">
        <ele>131</ele>
        <time>2017-02-25T16:51:48Z</time>
      </trkpt>
      <trkpt lat="45.2346" lon="5.48699">
        <ele>130.8</ele>
        <time>2017-02-25T16:51:49Z</time>
      </trkpt>
      <trkpt lat="45.23485" lon="5.4873">
        <ele>130.92</ele>
        <time>2017-02-25T16:51:50Z</time>
      </trkpt>
      <trkpt lat="45.23509" lon="5.48762">
        <ele>131.02</ele>
        <time>2017-02-25T16:51:51Z</time>
      </trkpt>
      <trkpt lat="45.23533" lon="5.48795">
        <ele>130.8</ele>
        <time>2017-02-25T16:51:52Z</time>
      </trkpt>
      <trkpt lat="45.23556" lon="5.48828">
        <ele>130.6</ele>
        <time>2017-02-25T16:51:53Z</time>
      </trkpt>
      <trkpt lat="45.23579" lon="5.48862">
        <ele>130.32</ele>
        <time>2017-02-25T16:51:54Z</time>
      </trkpt>
      <trkpt lat="45.23601" lon="5.48897">
        <ele>130.26</ele>
        <time>2017-02-25T16:51:55Z</time>
      </trkpt>
      <trkpt lat="45.23623" lon="5.48932">
        <ele>130.49</ele>
        <time>2017-02-25T16:51:56Z</time>
      </trkpt>
      <trkpt lat="45.23645" lon="5.48968">
        <ele>130.78</ele>
        <time>2017-02-25T16:51:57Z</time>
      </trkpt>
      <trkpt lat="45.23666" lon="5.49004">
        <ele>131.07</ele>
        <time>2017-02-25T16:51:58Z</time>
      </trkpt>
      <trkpt lat="45.23686" lon="5.49041">
        <ele>131.21</ele>
        <time>2017-02-25T16:51:59Z</time>
      </trkpt>
      <trkpt lat="45.23707" lon="5.49078">
        <ele>131.32</ele>
        <time>2017-02-25T16:52:00Z</time>
      </trkpt>
      <trkpt lat="45.23727" lon="5.49115">
        <ele>131.5</ele>
        <time>2017-02-25T16:52:01Z</time>
      </trkpt>
      <trkpt lat="45.23747" lon="5.49152">
        <ele>131.46</ele>
        <time>2017-02-25T16:52:02Z</time>
      </trkpt>
      <trkpt lat="45.23767" lon="5.49189">
        <ele>131.77</ele>
        <time>2017-02-25T16:52:03Z</time>
      </trkpt>
      <trkpt lat="45.23787" lon="5.49226">
        <ele>131.83</ele>
        <time>2017-02-25T16:52:04Z</time>
      </trkpt>
      <trkpt lat="45.23807" lon="5.49263">
        <ele>131.85</ele>
        <time>2017-02-25T16:52:05Z</time>
      </trkpt>
      <trkpt lat="45.23827" lon="5.49299">
        <ele>131.93</ele>
        <time>2017-02-25T16:52:06Z</time>
      </trkpt>
      <trkpt lat="45.23847" lon="5.49336">
        <ele>131.94</ele>
        <time>2017-02-25T16:52:07Z</time>
      </trkpt>
      <trkpt lat="45.23867" lon="5.49372">
        <ele>131.95</ele>
        <time>2017-02-25T16:52:08Z</time>
      </trkpt>
      <trkpt lat="45.23887" lon="5.49409">
        <ele>132.19</ele>
        <time>2017-02-25T16:52:09Z</time>
      </trkpt>
      <trkpt lat="45.23906" lon="5.49446">
        <ele>132.24</ele>
        <time>2017-02-25T16:52:10Z</time>
      </trkpt>
      <trkpt lat="45.23926" lon="5.49482">
        <ele>132.25</ele>
        <time>2017-02-25T16:52:11Z</time>
      </trkpt>
      <trkpt lat="45.23946" lon="5.49519">
        <ele>132.25</ele>
        <time>2017-02-25T16:52:12Z</time>
      </trkpt>
      <trkpt lat="45.23966" lon="5.49555">
        <ele>132.41</ele>
        <time>2017-02-25T16:52:13Z</time>
      </trkpt>
      <trkpt lat="45.23987" lon="5.49591">
        <ele>132.52</ele>
        <time>2017-02-25T16:52:14Z</time>
      </trkpt>
      <trkpt lat="45.24008" lon="5.49626">
        <ele>132.7</ele>
        <time>2017-02-25T16:52:15Z</time>
      </trkpt>
      <trkpt lat="45.2403" lon="5.4966">
        <ele>133.14</ele>
        <time>2017-02-25T16:52:16Z</time>
      </trkpt>
      <trkpt lat="45.24052" lon="5.49694">
        <ele>133.23</ele>
        <time>2017-02-25T16:52:17Z</time>
      </trkpt>
      <trkpt lat="45.24075" lon="5.49727">
        <ele>133.32</ele>
        <time>2017-02-25T16:52:18Z</time>
      </trkpt>
      <trkpt lat="45.24098" lon="5.4976">
        <ele>133.42</ele>
        <time>2017-02-25T16:52:19Z</time>
      </trkpt>
      <trkpt lat="45.24121" lon="5.49791">
        <ele>133.44</ele>
        <time>2017-02-25T16:52:20Z</time>
      </trkpt>
      <trkpt lat="45.24145" lon="5.49823">
        <ele>133.45</ele>
        <time>2017-02-25T16:52:21Z</time>
      </trkpt>
      <trkpt lat="45.2417" lon="5.49853">
        <ele>133.29</ele>
        <time>2017-02-25T16:52:22Z</time>
      </trkpt>
      <trkpt lat="45.24194" lon="5.49884">
        <ele>132.94</ele>
        <time>2017-02-25T16:52:23Z</time>
      </trkpt>
      <trkpt lat="45.2422" lon="5.49913">
        <ele>132.63</ele>
        <time>2017-02-25T16:52:24Z</time>
      </trkpt>
      <trkpt lat="45.24246" lon="5.49942">
        <ele>132.48</ele>
        <time>2017-02-25T16:52:25Z</time>
      </trkpt>
      <trkpt lat="45.24272" lon="5.4997">
        <ele>132.38</ele>
        <time>2017-02-25T16:52:26Z</time>
      </trkpt>
      <trkpt lat="45.24299" lon="5.49997">
        <ele>132.03</ele>
        <time>2017-02-25T16:52:27Z</time>
      </trkpt>
      <trkpt lat="45.24326" lon="5.50023">
        <ele>131.73</ele>
        <time>2017-02-25T16:52:28Z</time>
      </trkpt>
      <trkpt lat="45.24353" lon="5.50049">
        <ele>131.42</ele>
        <time>2017-02-25T16:52:29Z</time>
      </trkpt>
      <trkpt lat="45.24381" lon="5.50074">
        <ele>131.12</ele>
        <time>2017-02-25T16:52:30Z</time>
      </trkpt>
      <trkpt lat="45.24409" lon="5.50098">
        <ele>130.9</ele>
        <time>2017-02-25T16:52:31Z</time>
      </trkpt>
      <trkpt lat="45.24438" lon="5.50121">
        <ele>131.02</ele>
        <time>2017-02-25T16:52:32Z</time>
      </trkpt>
      <trkpt lat="45.24467" lon="5.50143">
        <ele>131.12</ele>
        <time>2017-02-25T16:52:33Z</time>
      </trkpt>
      <trkpt lat="45.24496" lon="5.50165">
        <ele>131.14</ele>
        <time>2017-02-25T16:52:34Z</time>
      </trkpt>
      <trkpt lat="45.24526" lon="5.50186">
        <ele>131.31</ele>
        <time>2017-02-25T16:52:35Z</time>
      </trkpt>
      <trkpt lat="45.24556" lon="5.50206">
        <ele>131.34</ele>
        <time>2017-02-25T16:52:36Z</time>
      </trkpt>
      <trkpt lat="45.24586" lon="5.50225">
        <ele>131.35</ele>
        <time>2017-02-25T16:52:37Z</time>
      </trkpt>
      <trkpt lat="45.24616" lon="5.50243">
        <ele>131.35</ele>
        <time>2017-02-25T16:52:38Z</time>
      </trkpt>
      <trkpt lat="45.24647" lon="5.50261">
        <ele>131.19</ele>
        <time>2017-02-25T16:52:39Z</time>
      </trkpt>
      <trkpt lat="45.24678" lon="5.50277">
        <ele>131.16</ele>
        <time>2017-02-25T16:52:40Z</time>
      </trkpt>
      <trkpt lat="45.24709" lon="5.50294">
        <ele>131.15</ele>
        <time>2017-02-25T16:52:41Z</time>
      </trkpt>
      <trkpt lat="45.2474" lon="5.5031">
        <ele>131.07</ele>
        <time>2017-02-25T16:52:42Z</time>
      </trkpt>
      <trkpt lat="45.24771" lon="5.50326">
        <ele>130.97</ele>
        <time>2017-02-25T16:52:43Z</time>
      </trkpt>
      <trkpt lat="45.24802" lon="5.50342">
        <ele>130.95</ele>
        <time>2017-02-25T16:52:44Z</time>
      </trkpt>
      <trkpt lat="45.24834" lon="5.50357">
        <ele>131.03</ele>
        <time>2017-02-25T16:52:45Z</time>
      </trkpt>
      <trkpt lat="45.24865" lon="5.50373">
        <ele>131.21</ele>
        <time>2017-02-25T16:52:46Z</time>
      </trkpt>
      <trkpt lat="45.24896" lon="5.50389">
        <ele>131.16</ele>
        <time>2017-02-25T16:52:47Z</time>
      </trkpt>
      <trkpt lat="45.24927" lon="5.50406">
        <ele>131.31</ele>
        <time>2017-02-25T16:52:48Z</time>
      </trkpt>
      <trkpt lat="45.24958" lon="5.50423">
        <ele>131.5</ele>
        <time>2017-02-25T16:52:49Z</time>
      </trkpt>
      <trkpt lat="45.24988" lon="5.50441">
        <ele>131.54</ele>
        <time>2017-02-25T16:52:50Z</time>
      </trkpt>
      <trkpt lat="45.25018" lon="5.50459">
        <ele>131.55</ele>
        <time>2017-02-25T16:52:51Z</time>
      </trkpt>
      <trkpt lat="45.25048" lon="5.50479">
        <ele>131.55</ele>
        <time>2017-02-25T16:52:52Z</time>
      </trkpt>
      <trkpt lat="45.25077" lon="5.50499">
        <ele>131.15</ele>
        <time>2017-02-25T16:52:53Z</time>
      </trkpt>
      <trkpt lat="45.25106" lon="5.5052">
        <ele>130.75</ele>
        <time>2017-02-25T16:52:54Z</time>
      </trkpt>
      <trkpt lat="45.25135" lon="5.50542">
        <ele>130.67</ele>
        <time>2017-02-25T16:52:55Z</time>
      </trkpt>
      <trkpt lat="45.25164" lon="5.50565">
        <ele>130.57</ele>
        <time>2017-02-25T16:52:56Z</time>
      </trkpt>
      <trkpt lat="45.25192" lon="5.5059">
        <ele>130.47</ele>
        <time>2017-02-25T16:52:57Z</time>
      </trkpt>
      <trkpt lat="45.25219" lon="5.50614">
        <ele>130.21</ele>
        <time>2017-02-25T16:52:58Z</time>
      </trkpt>
      <trkpt lat="45.25246" lon="5.50639">
        <ele>129.92</ele>
        <time>2017-02-25T16:52:59Z</time>
      </trkpt>
      <trkpt lat="45.25273" lon="5.50665">
        <ele>129.7</ele>
        <time>2017-02-25T16:53:00Z</time>
      </trkpt>
      <trkpt lat="45.25301" lon="5.50691">
        <ele>129.66</ele>
        <time>2017-02-25T16:53:01Z</time>
      </trkpt>
      <trkpt lat="45.25328" lon="5.50717">
        <ele>129.81</ele>
        <time>2017-02-25T16:53:02Z</time>
      </trkpt>
      <trkpt lat="45.25355" lon="5.50743">
        <ele>130.08</ele>
        <time>2017-02-25T16:53:03Z</time>
      </trkpt>
      <trkpt lat="45.25382" lon="5.50769">
        <ele>130.3</ele>
        <time>2017-02-25T16:53:04Z</time>
      </trkpt>
      <trkpt lat="45.25409" lon="5.50795">
        <ele>130.5</ele>
        <time>2017-02-25T16:53:05Z</time>
      </trkpt>
      <trkpt lat="45.25436" lon="5.5082">
        <ele>130.7</ele>
        <time>2017-02-25T16:53:06Z</time>
      </trkpt>
      <trkpt lat="45.25463" lon="5.50846">
        <ele>130.9</ele>
        <time>2017-02-25T16:53:07Z</time>
      </trkpt>
      <trkpt lat="45.2549" lon="5.50872">
        <ele>131.02</ele>
        <time>2017-02-25T16:53:08Z</time>
      </trkpt>
      <trkpt lat="45.25517" lon="5.50897">
        <ele>131.12</ele>
        <time>2017-02-25T16:53:09Z</time>
      </trkpt>
      <trkpt lat="45.25544" lon="5.50923">
        <ele>131.22</ele>
        <time>2017-02-25T16:53:10Z</time>
      </trkpt>
      <trkpt lat="45.25571" lon="5.50949">
        <ele>131.48</ele>
        <time>2017-02-25T16:53:11Z</time>
      </trkpt>
      <trkpt lat="45.25597" lon="5.50974">
        <ele>131.38</ele>
        <time>2017-02-25T16:53:12Z</time>
      </trkpt>
      <trkpt lat="45.25624" lon="5.50999">
        <ele>131.27</ele>
        <time>2017-02-25T16:53:13Z</time>
      </trkpt>
      <trkpt lat="45.2565" lon="5.51025">
        <ele>131.09</ele>
        <time>2017-02-25T16:53:14Z</time>
      </trkpt>
      <trkpt lat="45.25677" lon="5.5105">
        <ele>131.14</ele>
        <time>2017-02-25T16:53:15Z</time>
      </trkpt>
      <trkpt lat="45.25704" lon="5.51076">
        <ele>131.23</ele>
        <time>2017-02-25T16:53:16Z</time>
      </trkpt>
      <trkpt lat="45.25731" lon="5.51101">
        <ele>131.4</ele>
        <time>2017-02-25T16:53:17Z</time>
      </trkpt>
      <trkpt lat="45.25758" lon="5.51127">
        <ele>131.52</ele>
        <time>2017-02-25T16:53:18Z</time>
      </trkpt>
      <trkpt lat="45.25785" lon="5.51153">
        <ele>131.38</ele>
        <time>2017-02-25T16:53:19Z</time>
      </trkpt>
      <trkpt lat="45.25812" lon="5.5118">
        <ele>131.52</ele>
        <time>2017-02-25T16:53:20Z</time>
      </trkpt>
      <trkpt lat="45.25839" lon="5.51207">
        <ele>131.62</ele>
        <time>2017-02-25T16:53:21Z</time>
      </trkpt>
      <trkpt lat="45.25866" lon="5.51233">
        <ele>131.72</ele>
        <time>2017-02-25T16:53:22Z</time>
      </trkpt>
      <trkpt lat="45.25893" lon="5.51259">
        <ele>131.82</ele>
        <time>2017-02-25T16:53:23Z</time>
      </trkpt>
      <trkpt lat="45.25921" lon="5.51285">
        <ele>132</ele>
        <time>2017-02-25T16:53:24Z</time>
      </trkpt>
      <trkpt lat="45.25948" lon="5.51311">
        <ele>132.2</ele>
        <time>2017-02-25T16:53:25Z</time>
      </trkpt>
      <trkpt lat="45.25975" lon="5.51338">
        <ele>132.4</ele>
        <time>2017-02-25T16:53:26Z</time>
      </trkpt>
      <trkpt lat="45.26002" lon="5.51364">
        <ele>132.68</ele>
        <time>2017-02-25T16:53:27Z</time>
      </trkpt>
      <trkpt lat="45.26029" lon="5.5139">
        <ele>132.9</ele>
        <time>2017-02-25T16:53:28Z</time>
      </trkpt>
      <trkpt lat="45.26056" lon="5.51416">
        <ele>132.94</ele>
        <time>2017-02-25T16:53:29Z</time>
      </trkpt>
      <trkpt lat="45.26083" lon="5.51442">
        <ele>132.95</ele>
        <time>2017-02-25T16:53:30Z</time>
      </trkpt>
      <trkpt lat="45.2611" lon="5.51468">
        <ele>133.03</ele>
        <time>2017-02-25T16:53:31Z</time>
      </trkpt>
      <trkpt lat="45.26137" lon="5.51494">
        <ele>133.04</ele>
        <time>2017-02-25T16:53:32Z</time>
      </trkpt>
      <trkpt lat="45.26164" lon="5.5152">
        <ele>132.97</ele>
        <time>2017-02-25T16:53:33Z</time>
      </trkpt>
      <trkpt lat="45.26191" lon="5.51546">
        <ele>132.71</ele>
        <time>2017-02-25T16:53:34Z</time>
      </trkpt>
      <trkpt lat="45.26218" lon="5.51572">
        <ele>132.82</ele>
        <time>2017-02-25T16:53:35Z</time>
      </trkpt>
      <trkpt lat="45.26246" lon="5.51597">
        <ele>132.84</ele>
        <time>2017-02-25T16:53:36Z</time>
      </trkpt>
      <trkpt lat="45.26273" lon="5.51623">
        <ele>132.93</ele>
        <time>2017-02-25T16:53:37Z</time>
      </trkpt>
      <trkpt lat="45.26301" lon="5.51649">
        <ele>132.86</ele>
        <time>2017-02-25T16:53:38Z</time>
      </trkpt>
      <trkpt lat="45.26328" lon="5.51674">
        <ele>132.69</ele>
        <time>2017-02-25T16:53:39Z</time>
      </trkpt>
      <trkpt lat="45.26356" lon="5.51698">
        <ele>132.5</ele>
        <time>2017-02-25T16:53:40Z</time>
      </trkpt>
      <trkpt lat="45.26385" lon="5.51722">
        <ele>132.7</ele>
        <time>2017-02-25T16:53:41Z</time>
      </trkpt>
      <trkpt lat="45.26413" lon="5.51745">
        <ele>132.82</ele>
        <time>2017-02-25T16:53:42Z</time>
      </trkpt>
      <trkpt lat="45.26443" lon="5.51766">
        <ele>132.84</ele>
        <time>2017-02-25T16:53:43Z</time>
      </trkpt>
      <trkpt lat="45.26472" lon="5.51787">
        <ele>132.85</ele>
        <time>2017-02-25T16:53:44Z</time>
      </trkpt>
      <trkpt lat="45.26502" lon="5.51806">
        <ele>132.93</ele>
        <time>2017-02-25T16:53:45Z</time>
      </trkpt>
      <trkpt lat="45.26532" lon="5.51826">
        <ele>132.78</ele>
        <time>2017-02-25T16:53:46Z</time>
      </trkpt>
      <trkpt lat="45.26562" lon="5.51844">
        <ele>132.84</ele>
        <time>2017-02-25T16:53:47Z</time>
      </trkpt>
      <trkpt lat="45.26593" lon="5.51862">
        <ele>132.77</ele>
        <time>2017-02-25T16:53:48Z</time>
      </trkpt>
      <trkpt lat="45.26623" lon="5.51879">
        <ele>132.67</ele>
        <time>2017-02-25T16:53:49Z</time>
      </trkpt>
      <trkpt lat="45.26654" lon="5.51896">
        <ele>132.49</ele>
        <time>2017-02-25T16:53:50Z</time>
      </trkpt>
      <trkpt lat="45.26685" lon="5.51911">
        <ele>132.38</ele>
        <time>2017-02-25T16:53:51Z</time>
      </trkpt>
      <trkpt lat="45.26716" lon="5.51925">
        <ele>132.51</ele>
        <time>2017-02-25T16:53:52Z</time>
      </trkpt>
      <trkpt lat="45.26748" lon="5.51938">
        <ele>132.62</ele>
        <time>2017-02-25T16:53:53Z</time>
      </trkpt>
      <trkpt lat="45.2678" lon="5.51951">
        <ele>132.72</ele>
        <time>2017-02-25T16:53:54Z</time>
      </trkpt>
      <trkpt lat="45.26812" lon="5.51962">
        <ele>132.42</ele>
        <time>2017-02-25T16:53:55Z</time>
      </trkpt>
      <trkpt lat="45.26844" lon="5.51973">
        <ele>132.12</ele>
        <time>2017-02-25T16:53:56Z</time>
      </trkpt>
      <trkpt lat="45.26876" lon="5.51984">
        <ele>131.82</ele>
        <time>2017-02-25T16:53:57Z</time>
      </trkpt>
      <trkpt lat="45.26909" lon="5.51995">
        <ele>131.6</ele>
        <time>2017-02-25T16:53:58Z</time>
      </trkpt>
      <trkpt lat="45.26941" lon="5.52006">
        <ele>131.16</ele>
        <time>2017-02-25T16:53:59Z</time>
      </trkpt>
      <trkpt lat="45.26974" lon="5.52016">
        <ele>130.75</ele>
        <time>2017-02-25T16:54:00Z</time>
      </trkpt>
      <trkpt lat="45.27006" lon="5.52027">
        <ele>130.59</ele>
        <time>2017-02-25T16:54:01Z</time>
      </trkpt>
      <trkpt lat="45.27039" lon="5.52038">
        <ele>130.48</ele>
        <time>2017-02-25T16:54:02Z</time>
      </trkpt>
      <trkpt lat="45.27071" lon="5.52049">
        <ele>130.37</ele>
        <time>2017-02-25T16:54:03Z</time>
      </trkpt>
      <trkpt lat="45.27103" lon="5.5206">
        <ele>130.27</ele>
        <time>2017-02-25T16:54:04Z</time>
      </trkpt>
      <trkpt lat="45.27136" lon="5.52071">
        <ele>129.85</ele>
        <time>2017-02-25T16:54:05Z</time>
      </trkpt>
      <trkpt lat="45.27168" lon="5.52082">
        <ele>129.53</ele>
        <time>2017-02-25T16:54:06Z</time>
      </trkpt>
      <trkpt lat="45.272" lon="5.52093">
        <ele>129.23</ele>
        <time>2017-02-25T16:54:07Z</time>
      </trkpt>
      <trkpt lat="45.27233" lon="5.52104">
        <ele>129</ele>
        <time>2017-02-25T16:54:08Z</time>
      </trkpt>
      <trkpt lat="45.27265" lon="5.52114">
        <ele>128.64</ele>
        <time>2017-02-25T16:54:09Z</time>
      </trkpt>
      <trkpt lat="45.27297" lon="5.52125">
        <ele>128.49</ele>
        <time>2017-02-25T16:54:10Z</time>
      </trkpt>
      <trkpt lat="45.27329" lon="5.52136">
        <ele>128.22</ele>
        <time>2017-02-25T16:54:11Z</time>
      </trkpt>
      <trkpt lat="45.27361" lon="5.52147">
        <ele>127.84</ele>
        <time>2017-02-25T16:54:12Z</time>
      </trkpt>
      <trkpt lat="45.27393" lon="5.52158">
        <ele>127.77</ele>
        <time>2017-02-25T16:54:13Z</time>
      </trkpt>
      <trkpt lat="45.27425" lon="5.52169">
        <ele>127.91</ele>
        <time>2017-02-25T16:54:14Z</time>
      </trkpt>
      <trkpt lat="45.27457" lon="5.5218">
        <ele>128.02</ele>
        <time>2017-02-25T16:54:15Z</time>
      </trkpt>
      <trkpt lat="45.27489" lon="5.52191">
        <ele>128.04</ele>
        <time>2017-02-25T16:54:16Z</time>
      </trkpt>
      <trkpt lat="45.27521" lon="5.52203">
        <ele>128.29</ele>
        <time>2017-02-25T16:54:17Z</time>
      </trkpt>
      <trkpt lat="45.27552" lon="5.52214">
        <ele>128.26</ele>
        <time>2017-02-25T16:54:18Z</time>
      </trkpt>
      <trkpt lat="45.27584" lon="5.52224">
        <ele>128.41</ele>
        <time>2017-02-25T16:54:19Z</time>
      </trkpt>
      <trkpt lat="45.27616" lon="5.52235">
        <ele>128.6</ele>
        <time>2017-02-25T16:54:20Z</time>
      </trkpt>
      <trkpt lat="45.27647" lon="5.52246">
        <ele>128.72</ele>
        <time>2017-02-25T16:54:21Z</time>
      </trkpt>
      <trkpt lat="45.27679" lon="5.52257">
        <ele>128.98</ele>
        <time>2017-02-25T16:54:22Z</time>
      </trkpt>
      <trkpt lat="45.2771" lon="5.52268">
        <ele>129.12</ele>
        <time>2017-02-25T16:54:23Z</time>
      </trkpt>
      <trkpt lat="45.27742" lon="5.52279">
        <ele>129.3</ele>
        <time>2017-02-25T16:54:24Z</time>
      </trkpt>
      <trkpt lat="45.27773" lon="5.5229">
        <ele>129.42</ele>
        <time>2017-02-25T16:54:25Z</time>
      </trkpt>
      <trkpt lat="45.27805" lon="5.523">
        <ele>129.76</ele>
        <time>2017-02-25T16:54:26Z</time>
      </trkpt>
      <trkpt lat="45.27836" lon="5.5231">
        <ele>130.23</ele>
        <time>2017-02-25T16:54:27Z</time>
      </trkpt>
      <trkpt lat="45.27868" lon="5.52319">
        <ele>130.73</ele>
        <time>2017-02-25T16:54:28Z</time>
      </trkpt>
      <trkpt lat="45.27899" lon="5.52328">
        <ele>131.14</ele>
        <time>2017-02-25T16:54:29Z</time>
      </trkpt>
      <trkpt lat="45.27931" lon="5.52336">
        <ele>131.55</ele>
        <time>2017-02-25T16:54:30Z</time>
      </trkpt>
      <trkpt lat="45.27963" lon="5.52343">
        <ele>131.79</ele>
        <time>2017-02-25T16:54:31Z</time>
      </trkpt>
      <trkpt lat="45.27994" lon="5.52348">
        <ele>132</ele>
        <time>2017-02-25T16:54:32Z</time>
      </trkpt>
      <trkpt lat="45.28026" lon="5.52353">
        <ele>132.12</ele>
        <time>2017-02-25T16:54:33Z</time>
      </trkpt>
      <trkpt lat="45.28058" lon="5.52357">
        <ele>132.06</ele>
        <time>2017-02-25T16:54:34Z</time>
      </trkpt>
      <trkpt lat="45.2809" lon="5.52361">
        <ele>132.05</ele>
        <time>2017-02-25T16:54:35Z</time>
      </trkpt>
      <trkpt lat="45.28122" lon="5.52363">
        <ele>132.29</ele>
        <time>2017-02-25T16:54:36Z</time>
      </trkpt>
      <trkpt lat="45.28155" lon="5.52365">
        <ele>132.66</ele>
        <time>2017-02-25T16:54:37Z</time>
      </trkpt>
      <trkpt lat="45.28187" lon="5.52367">
        <ele>132.97</ele>
        <time>2017-02-25T16:54:38Z</time>
      </trkpt>
      <trkpt lat="45.28219" lon="5.52369">
        <ele>133.27</ele>
        <time>2017-02-25T16:54:39Z</time>
      </trkpt>
      <trkpt lat="45.28252" lon="5.5237">
        <ele>133.65</ele>
        <time>2017-02-25T16:54:40Z</time>
      </trkpt>
      <trkpt lat="45.28285" lon="5.52372">
        <ele>133.57</ele>
        <time>2017-02-25T16:54:41Z</time>
      </trkpt>
      <trkpt lat="45.28317" lon="5.52373">
        <ele>133.71</ele>
        <time>2017-02-25T16:54:42Z</time>
      </trkpt>
      <trkpt lat="45.2835" lon="5.52376">
        <ele>133.82</ele>
        <time>2017-02-25T16:54:43Z</time>
      </trkpt>
      <trkpt lat="45.28382" lon="5.52379">
        <ele>133.84</ele>
        <time>2017-02-25T16:54:44Z</time>
      </trkpt>
      <trkpt lat="45.28415" lon="5.52383">
        <ele>134.01</ele>
        <time>2017-02-25T16:54:45Z</time>
      </trkpt>
      <trkpt lat="45.28446" lon="5.52389">
        <ele>134.12</ele>
        <time>2017-02-25T16:54:46Z</time>
      </trkpt>
      <trkpt lat="45.28478" lon="5.52397">
        <ele>134.22</ele>
        <time>2017-02-25T16:54:47Z</time>
      </trkpt>
      <trkpt lat="45.28509" lon="5.52407">
        <ele>134.32</ele>
        <time>2017-02-25T16:54:48Z</time>
      </trkpt>
      <trkpt lat="45.2854" lon="5.52417">
        <ele>134.42</ele>
        <time>2017-02-25T16:54:49Z</time>
      </trkpt>
      <trkpt lat="45.28571" lon="5.52429">
        <ele>134.52</ele>
        <time>2017-02-25T16:54:50Z</time>
      </trkpt>
      <trkpt lat="45.28601" lon="5.52442">
        <ele>134.7</ele>
        <time>2017-02-25T16:54:51Z</time>
      </trkpt>
      <trkpt lat="45.28632" lon="5.52456">
        <ele>134.9</ele>
        <time>2017-02-25T16:54:52Z</time>
      </trkpt>
      <trkpt lat="45.28662" lon="5.52472">
        <ele>135.18</ele>
        <time>2017-02-25T16:54:53Z</time>
      </trkpt>
      <trkpt lat="45.28693" lon="5.52489">
        <ele>135.48</ele>
        <time>2017-02-25T16:54:54Z</time>
      </trkpt>
      <trkpt lat="45.28723" lon="5.52507">
        <ele>135.45</ele>
        <time>2017-02-25T16:54:55Z</time>
      </trkpt>
      <trkpt lat="45.28754" lon="5.52527">
        <ele>135.29</ele>
        <time>2017-02-25T16:54:56Z</time>
      </trkpt>
      <trkpt lat="45.28784" lon="5.52548">
        <ele>134.94</ele>
        <time>2017-02-25T16:54:57Z</time>
      </trkpt>
      <trkpt lat="45.28814" lon="5.52571">
        <ele>134.71</ele>
        <time>2017-02-25T16:54:58Z</time>
      </trkpt>
      <trkpt lat="45.28844" lon="5.52596">
        <ele>134.58</ele>
        <time>2017-02-25T16:54:59Z</time>
      </trkpt>
      <trkpt lat="45.28873" lon="5.52622">
        <ele>134.72</ele>
        <time>2017-02-25T16:55:00Z</time>
      </trkpt>
      <trkpt lat="45.28901" lon="5.52649">
        <ele>134.74</ele>
        <time>2017-02-25T16:55:01Z</time>
      </trkpt>
      <trkpt lat="45.28928" lon="5.52677">
        <ele>134.27</ele>
        <time>2017-02-25T16:55:02Z</time>
      </trkpt>
      <trkpt lat="45.28953" lon="5.52707">
        <ele>133.37</ele>
        <time>2017-02-25T16:55:03Z</time>
      </trkpt>
      <trkpt lat="45.28979" lon="5.52737">
        <ele>133.11</ele>
        <time>2017-02-25T16:55:04Z</time>
      </trkpt>
      <trkpt lat="45.29004" lon="5.52769">
        <ele>133.06</ele>
        <time>2017-02-25T16:55:05Z</time>
      </trkpt>
      <trkpt lat="45.29028" lon="5.52802">
        <ele>132.81</ele>
        <time>2017-02-25T16:55:06Z</time>
      </trkpt>
      <trkpt lat="45.29051" lon="5.52836">
        <ele>132.6</ele>
        <time>2017-02-25T16:55:07Z</time>
      </trkpt>
      <trkpt lat="45.29074" lon="5.52871">
        <ele>132.48</ele>
        <time>2017-02-25T16:55:08Z</time>
      </trkpt>
      <trkpt lat="45.29096" lon="5.52907">
        <ele>132.46</ele>
        <time>2017-02-25T16:55:09Z</time>
      </trkpt>
      <trkpt lat="45.29117" lon="5.52943">
        <ele>132.29</ele>
        <time>2017-02-25T16:55:10Z</time>
      </trkpt>
      <trkpt lat="45.29137" lon="5.52981">
        <ele>132.26</ele>
        <time>2017-02-25T16:55:11Z</time>
      </trkpt>
      <trkpt lat="45.29157" lon="5.5302">
        <ele>132.41</ele>
        <time>2017-02-25T16:55:12Z</time>
      </trkpt>
      <trkpt lat="45.29175" lon="5.53059">
        <ele>132.6</ele>
        <time>2017-02-25T16:55:13Z</time>
      </trkpt>
      <trkpt lat="45.29193" lon="5.53099">
        <ele>132.96</ele>
        <time>2017-02-25T16:55:14Z</time>
      </trkpt>
      <trkpt lat="45.2921" lon="5.5314">
        <ele>133.19</ele>
        <time>2017-02-25T16:55:15Z</time>
      </trkpt>
      <trkpt lat="45.29224" lon="5.53181">
        <ele>133.24</ele>
        <time>2017-02-25T16:55:16Z</time>
      </trkpt>
      <trkpt lat="45.29238" lon="5.53224">
        <ele>133.65</ele>
        <time>2017-02-25T16:55:17Z</time>
      </trkpt>
      <trkpt lat="45.29252" lon="5.53267">
        <ele>134.29</ele>
        <time>2017-02-25T16:55:18Z</time>
      </trkpt>
      <trkpt lat="45.29264" lon="5.53311">
        <ele>135.3</ele>
        <time>2017-02-25T16:55:19Z</time>
      </trkpt>
      <trkpt lat="45.29276" lon="5.53355">
        <ele>136.46</ele>
        <time>2017-02-25T16:55:20Z</time>
      </trkpt>
      <trkpt lat="45.29286" lon="5.53399">
        <ele>137.41</ele>
        <time>2017-02-25T16:55:21Z</time>
      </trkpt>
      <trkpt lat="45.29295" lon="5.53444">
        <ele>138.24</ele>
        <time>2017-02-25T16:55:22Z</time>
      </trkpt>
      <trkpt lat="45.29304" lon="5.53488">
        <ele>139.05</ele>
        <time>2017-02-25T16:55:23Z</time>
      </trkpt>
      <trkpt lat="45.29311" lon="5.53534">
        <ele>139.61</ele>
        <time>2017-02-25T16:55:24Z</time>
      </trkpt>
      <trkpt lat="45.29318" lon="5.53579">
        <ele>140.2</ele>
        <time>2017-02-25T16:55:25Z</time>
      </trkpt>
      <trkpt lat="45.29324" lon="5.53624">
        <ele>140.56</ele>
        <time>2017-02-25T16:55:26Z</time>
      </trkpt>
      <trkpt lat="45.2933" lon="5.5367">
        <ele>140.63</ele>
        <time>2017-02-25T16:55:27Z</time>
      </trkpt>
      <trkpt lat="45.29336" lon="5.53716">
        <ele>140.81</ele>
        <time>2017-02-25T16:55:28Z</time>
      </trkpt>
      <trkpt lat="45.29342" lon="5.53761">
        <ele>141</ele>
        <time>2017-02-25T16:55:29Z</time>
      </trkpt>
      <trkpt lat="45.29347" lon="5.53806">
        <ele>140.72</ele>
        <time>2017-02-25T16:55:30Z</time>
      </trkpt>
      <trkpt lat="45.29353" lon="5.53852">
        <ele>140.5</ele>
        <time>2017-02-25T16:55:31Z</time>
      </trkpt>
      <trkpt lat="45.29358" lon="5.53897">
        <ele>140.62</ele>
        <time>2017-02-25T16:55:32Z</time>
      </trkpt>
      <trkpt lat="45.29363" lon="5.53943">
        <ele>140.56</ele>
        <time>2017-02-25T16:55:33Z</time>
      </trkpt>
      <trkpt lat="45.29368" lon="5.53988">
        <ele>139.91</ele>
        <time>2017-02-25T16:55:34Z</time>
      </trkpt>
      <trkpt lat="45.29372" lon="5.54034">
        <ele>139.3</ele>
        <time>2017-02-25T16:55:35Z</time>
      </trkpt>
      <trkpt lat="45.29377" lon="5.5408">
        <ele>139.1</ele>
        <time>2017-02-25T16:55:36Z</time>
      </trkpt>
      <trkpt lat="45.29381" lon="5.54127">
        <ele>138.74</ele>
        <time>2017-02-25T16:55:37Z</time>
      </trkpt>
      <trkpt lat="45.29385" lon="5.54173">
        <ele>138.27</ele>
        <time>2017-02-25T16:55:38Z</time>
      </trkpt>
      <trkpt lat="45.29388" lon="5.5422">
        <ele>138.09</ele>
        <time>2017-02-25T16:55:39Z</time>
      </trkpt>
      <trkpt lat="45.29391" lon="5.54267">
        <ele>138.14</ele>
        <time>2017-02-25T16:55:40Z</time>
      </trkpt>
      <trkpt lat="45.29395" lon="5.54314">
        <ele>138.55</ele>
        <time>2017-02-25T16:55:41Z</time>
      </trkpt>
      <trkpt lat="45.29397" lon="5.5436">
        <ele>138.79</ele>
        <time>2017-02-25T16:55:42Z</time>
      </trkpt>
      <trkpt lat="45.29399" lon="5.54407">
        <ele>138.84</ele>
        <time>2017-02-25T16:55:43Z</time>
      </trkpt>
      <trkpt lat="45.29401" lon="5.54454">
        <ele>138.77</ele>
        <time>2017-02-25T16:55:44Z</time>
      </trkpt>
      <trkpt lat="45.29403" lon="5.54501">
        <ele>138.51</ele>
        <time>2017-02-25T16:55:45Z</time>
      </trkpt>
      <trkpt lat="45.29405" lon="5.54547">
        <ele>138.46</ele>
        <time>2017-02-25T16:55:46Z</time>
      </trkpt>
      <trkpt lat="45.29408" lon="5.54594">
        <ele>138.53</ele>
        <time>2017-02-25T16:55:47Z</time>
      </trkpt>
      <trkpt lat="45.2941" lon="5.5464">
        <ele>137.99</ele>
        <time>2017-02-25T16:55:48Z</time>
      </trkpt>
      <trkpt lat="45.29412" lon="5.54686">
        <ele>137.8</ele>
        <time>2017-02-25T16:55:49Z</time>
      </trkpt>
      <trkpt lat="45.29413" lon="5.54732">
        <ele>137.36</ele>
        <time>2017-02-25T16:55:50Z</time>
      </trkpt>
      <trkpt lat="45.29414" lon="5.54778">
        <ele>136.87</ele>
        <time>2017-02-25T16:55:51Z</time>
      </trkpt>
      <trkpt lat="45.29415" lon="5.54824">
        <ele>136.53</ele>
        <time>2017-02-25T16:55:52Z</time>
      </trkpt>
      <trkpt lat="45.29416" lon="5.5487">
        <ele>136.39</ele>
        <time>2017-02-25T16:55:53Z</time>
      </trkpt>
      <trkpt lat="45.29417" lon="5.54916">
        <ele>136.36</ele>
        <time>2017-02-25T16:55:54Z</time>
      </trkpt>
      <trkpt lat="45.29419" lon="5.54962">
        <ele>136.59</ele>
        <time>2017-02-25T16:55:55Z</time>
      </trkpt>
      <trkpt lat="45.2942" lon="5.55009">
        <ele>136.88</ele>
        <time>2017-02-25T16:55:56Z</time>
      </trkpt>
      <trkpt lat="45.29422" lon="5.55055">
        <ele>137.17</ele>
        <time>2017-02-25T16:55:57Z</time>
      </trkpt>
      <trkpt lat="45.29424" lon="5.55101">
        <ele>137.15</ele>
        <time>2017-02-25T16:55:58Z</time>
      </trkpt>
      <trkpt lat="45.29426" lon="5.55147">
        <ele>136.99</ele>
        <time>2017-02-25T16:55:59Z</time>
      </trkpt>
      <trkpt lat="45.29429" lon="5.55194">
        <ele>137.28</ele>
        <time>2017-02-25T16:56:00Z</time>
      </trkpt>
      <trkpt lat="45.29434" lon="5.5524">
        <ele>137.41</ele>
        <time>2017-02-25T16:56:01Z</time>
      </trkpt>
      <trkpt lat="45.29439" lon="5.55285">
        <ele>137.52</ele>
        <time>2017-02-25T16:56:02Z</time>
      </trkpt>
      <trkpt lat="45.29446" lon="5.55331">
        <ele>137.38</ele>
        <time>2017-02-25T16:56:03Z</time>
      </trkpt>
      <trkpt lat="45.29454" lon="5.55377">
        <ele>137.44</ele>
        <time>2017-02-25T16:56:04Z</time>
      </trkpt>
      <trkpt lat="45.29463" lon="5.55422">
        <ele>137.69</ele>
        <time>2017-02-25T16:56:05Z</time>
      </trkpt>
      <trkpt lat="45.29474" lon="5.55466">
        <ele>137.9</ele>
        <time>2017-02-25T16:56:06Z</time>
      </trkpt>
      <trkpt lat="45.29486" lon="5.5551">
        <ele>137.86</ele>
        <time>2017-02-25T16:56:07Z</time>
      </trkpt>
      <trkpt lat="45.29499" lon="5.55553">
        <ele>137.85</ele>
        <time>2017-02-25T16:56:08Z</time>
      </trkpt>
      <trkpt lat="45.29514" lon="5.55596">
        <ele>137.93</ele>
        <time>2017-02-25T16:56:09Z</time>
      </trkpt>
      <trkpt lat="45.29529" lon="5.55637">
        <ele>137.87</ele>
        <time>2017-02-25T16:56:10Z</time>
      </trkpt>
      <trkpt lat="45.29545" lon="5.55678">
        <ele>137.85</ele>
        <time>2017-02-25T16:56:11Z</time>
      </trkpt>
      <trkpt lat="45.29562" lon="5.55719">
        <ele>138.09</ele>
        <time>2017-02-25T16:56:12Z</time>
      </trkpt>
      <trkpt lat="45.2958" lon="5.55758">
        <ele>137.98</ele>
        <time>2017-02-25T16:56:13Z</time>
      </trkpt>
      <trkpt lat="45.296" lon="5.55796">
        <ele>138.19</ele>
        <time>2017-02-25T16:56:14Z</time>
      </trkpt>
      <trkpt lat="45.29619" lon="5.55834">
        <ele>138.32</ele>
        <time>2017-02-25T16:56:15Z</time>
      </trkpt>
      <trkpt lat="45.29639" lon="5.55871">
        <ele>138.5</ele>
        <time>2017-02-25T16:56:16Z</time>
      </trkpt>
      <trkpt lat="45.2966" lon="5.55908">
        <ele>138.54</ele>
        <time>2017-02-25T16:56:17Z</time>
      </trkpt>
      <trkpt lat="45.2968" lon="5.55945">
        <ele>138.47</ele>
        <time>2017-02-25T16:56:18Z</time>
      </trkpt>
      <trkpt lat="45.29701" lon="5.55982">
        <ele>138.45</ele>
        <time>2017-02-25T16:56:19Z</time>
      </trkpt>
      <trkpt lat="45.29721" lon="5.56019">
        <ele>138.53</ele>
        <time>2017-02-25T16:56:20Z</time>
      </trkpt>
      <trkpt lat="45.29741" lon="5.56057">
        <ele>138.63</ele>
        <time>2017-02-25T16:56:21Z</time>
      </trkpt>
      <trkpt lat="45.29761" lon="5.56094">
        <ele>138.64</ele>
        <time>2017-02-25T16:56:22Z</time>
      </trkpt>
      <trkpt lat="45.2978" lon="5.56133">
        <ele>138.49</ele>
        <time>2017-02-25T16:56:23Z</time>
      </trkpt>
      <trkpt lat="45.29799" lon="5.56172">
        <ele>138.62</ele>
        <time>2017-02-25T16:56:24Z</time>
      </trkpt>
      <trkpt lat="45.29817" lon="5.56212">
        <ele>138.56</ele>
        <time>2017-02-25T16:56:25Z</time>
      </trkpt>
      <trkpt lat="45.29834" lon="5.56252">
        <ele>138.39</ele>
        <time>2017-02-25T16:56:26Z</time>
      </trkpt>
      <trkpt lat="45.29849" lon="5.56294">
        <ele>138.12</ele>
        <time>2017-02-25T16:56:27Z</time>
      </trkpt>
      <trkpt lat="45.29864" lon="5.56336">
        <ele>137.98</ele>
        <time>2017-02-25T16:56:28Z</time>
      </trkpt>
      <trkpt lat="45.29877" lon="5.5638">
        <ele>137.64</ele>
        <time>2017-02-25T16:56:29Z</time>
      </trkpt>
      <trkpt lat="45.29888" lon="5.56424">
        <ele>137.73</ele>
        <time>2017-02-25T16:56:30Z</time>
      </trkpt>
      <trkpt lat="45.29897" lon="5.56469">
        <ele>137.98</ele>
        <time>2017-02-25T16:56:31Z</time>
      </trkpt>
      <trkpt lat="45.29906" lon="5.56515">
        <ele>138.28</ele>
        <time>2017-02-25T16:56:32Z</time>
      </trkpt>
      <trkpt lat="45.29914" lon="5.56561">
        <ele>138.65</ele>
        <time>2017-02-25T16:56:33Z</time>
      </trkpt>
      <trkpt lat="45.2992" lon="5.56607">
        <ele>138.89</ele>
        <time>2017-02-25T16:56:34Z</time>
      </trkpt>
      <trkpt lat="45.29925" lon="5.56654">
        <ele>139.42</ele>
        <time>2017-02-25T16:56:35Z</time>
      </trkpt>
      <trkpt lat="45.29928" lon="5.56702">
        <ele>139.92</ele>
        <time>2017-02-25T16:56:36Z</time>
      </trkpt>
      <trkpt lat="45.2993" lon="5.5675">
        <ele>140.34</ele>
        <time>2017-02-25T16:56:37Z</time>
      </trkpt>
      <trkpt lat="45.29931" lon="5.56798">
        <ele>140.35</ele>
        <time>2017-02-25T16:56:38Z</time>
      </trkpt>
      <trkpt lat="45.2993" lon="5.56846">
        <ele>140.27</ele>
        <time>2017-02-25T16:56:39Z</time>
      </trkpt>
      <trkpt lat="45.29927" lon="5.56893">
        <ele>139.93</ele>
        <time>2017-02-25T16:56:40Z</time>
      </trkpt>
      <trkpt lat="45.29923" lon="5.56941">
        <ele>139.63</ele>
        <time>2017-02-25T16:56:41Z</time>
      </trkpt>
      <trkpt lat="45.29918" lon="5.56988">
        <ele>139.8</ele>
        <time>2017-02-25T16:56:42Z</time>
      </trkpt>
      <trkpt lat="45.29911" lon="5.57035">
        <ele>140</ele>
        <time>2017-02-25T16:56:43Z</time>
      </trkpt>
      <trkpt lat="45.29903" lon="5.57081">
        <ele>140.2</ele>
        <time>2017-02-25T16:56:44Z</time>
      </trkpt>
      <trkpt lat="45.29895" lon="5.57128">
        <ele>140.24</ele>
        <time>2017-02-25T16:56:45Z</time>
      </trkpt>
      <trkpt lat="45.29887" lon="5.57174">
        <ele>139.85</ele>
        <time>2017-02-25T16:56:46Z</time>
      </trkpt>
      <trkpt lat="45.29878" lon="5.57219">
        <ele>139.45</ele>
        <time>2017-02-25T16:56:47Z</time>
      </trkpt>
      <trkpt lat="45.29868" lon="5.57265">
        <ele>138.97</ele>
        <time>2017-02-25T16:56:48Z</time>
      </trkpt>
      <trkpt lat="45.29859" lon="5.57311">
        <ele>138.39</ele>
        <time>2017-02-25T16:56:49Z</time>
      </trkpt>
      <trkpt lat="45.2985" lon="5.57357">
        <ele>138.04</ele>
        <time>2017-02-25T16:56:50Z</time>
      </trkpt>
      <trkpt lat="45.29841" lon="5.57403">
        <ele>137.81</ele>
        <time>2017-02-25T16:56:51Z</time>
      </trkpt>
      <trkpt lat="45.29834" lon="5.57449">
        <ele>137.84</ele>
        <time>2017-02-25T16:56:52Z</time>
      </trkpt>
      <trkpt lat="45.29827" lon="5.57495">
        <ele>138.01</ele>
        <time>2017-02-25T16:56:53Z</time>
      </trkpt>
      <trkpt lat="45.29821" lon="5.57541">
        <ele>138.2</ele>
        <time>2017-02-25T16:56:54Z</time>
      </trkpt>
      <trkpt lat="45.29817" lon="5.57588">
        <ele>138.72</ele>
        <time>2017-02-25T16:56:55Z</time>
      </trkpt>
      <trkpt lat="45.29813" lon="5.57635">
        <ele>138.9</ele>
        <time>2017-02-25T16:56:56Z</time>
      </trkpt>
      <trkpt lat="45.29811" lon="5.57682">
        <ele>139.18</ele>
        <time>2017-02-25T16:56:57Z</time>
      </trkpt>
      <trkpt lat="45.2981" lon="5.5773">
        <ele>139.4</ele>
        <time>2017-02-25T16:56:58Z</time>
      </trkpt>
      <trkpt lat="45.2981" lon="5.57777">
        <ele>139.12</ele>
        <time>2017-02-25T16:56:59Z</time>
      </trkpt>
      <trkpt lat="45.29813" lon="5.57825">
        <ele>138.9</ele>
        <time>2017-02-25T16:57:00Z</time>
      </trkpt>
      <trkpt lat="45.29816" lon="5.57872">
        <ele>138.7</ele>
        <time>2017-02-25T16:57:01Z</time>
      </trkpt>
      <trkpt lat="45.29821" lon="5.57919">
        <ele>138.42</ele>
        <time>2017-02-25T16:57:02Z</time>
      </trkpt>
      <trkpt lat="45.29827" lon="5.57966">
        <ele>138.12</ele>
        <time>2017-02-25T16:57:03Z</time>
      </trkpt>
      <trkpt lat="45.29835" lon="5.58013">
        <ele>138.06</ele>
        <time>2017-02-25T16:57:04Z</time>
      </trkpt>
      <trkpt lat="45.29843" lon="5.58059">
        <ele>138.13</ele>
        <time>2017-02-25T16:57:05Z</time>
      </trkpt>
      <trkpt lat="45.29854" lon="5.58104">
        <ele>138.23</ele>
        <time>2017-02-25T16:57:06Z</time>
      </trkpt>
      <trkpt lat="45.29865" lon="5.58149">
        <ele>138.56</ele>
        <time>2017-02-25T16:57:07Z</time>
      </trkpt>
      <trkpt lat="45.29879" lon="5.58193">
        <ele>138.87</ele>
        <time>2017-02-25T16:57:08Z</time>
      </trkpt>
      <trkpt lat="45.29892" lon="5.58237">
        <ele>139.25</ele>
        <time>2017-02-25T16:57:09Z</time>
      </trkpt>
      <trkpt lat="45.29907" lon="5.58279">
        <ele>139.65</ele>
        <time>2017-02-25T16:57:10Z</time>
      </trkpt>
      <trkpt lat="45.29924" lon="5.5832">
        <ele>140.05</ele>
        <time>2017-02-25T16:57:11Z</time>
      </trkpt>
      <trkpt lat="45.29941" lon="5.58361">
        <ele>140.29</ele>
        <time>2017-02-25T16:57:12Z</time>
      </trkpt>
      <trkpt lat="45.2996" lon="5.58401">
        <ele>140.5</ele>
        <time>2017-02-25T16:57:13Z</time>
      </trkpt>
      <trkpt lat="45.2998" lon="5.5844">
        <ele>140.62</ele>
        <time>2017-02-25T16:57:14Z</time>
      </trkpt>
      <trkpt lat="45.30001" lon="5.58478">
        <ele>140.32</ele>
        <time>2017-02-25T16:57:15Z</time>
      </trkpt>
      <trkpt lat="45.30022" lon="5.58515">
        <ele>140.02</ele>
        <time>2017-02-25T16:57:16Z</time>
      </trkpt>
      <trkpt lat="45.30043" lon="5.58553">
        <ele>139.72</ele>
        <time>2017-02-25T16:57:17Z</time>
      </trkpt>
      <trkpt lat="45.30065" lon="5.5859">
        <ele>139.58</ele>
        <time>2017-02-25T16:57:18Z</time>
      </trkpt>
      <trkpt lat="45.30087" lon="5.58627">
        <ele>139.4</ele>
        <time>2017-02-25T16:57:19Z</time>
      </trkpt>
      <trkpt lat="45.30109" lon="5.58664">
        <ele>139.28</ele>
        <time>2017-02-25T16:57:20Z</time>
      </trkpt>
      <trkpt lat="45.30131" lon="5.58701">
        <ele>139.17</ele>
        <time>2017-02-25T16:57:21Z</time>
      </trkpt>
      <trkpt lat="45.30152" lon="5.58738">
        <ele>139.15</ele>
        <time>2017-02-25T16:57:22Z</time>
      </trkpt>
      <trkpt lat="45.30174" lon="5.58775">
        <ele>138.75</ele>
        <time>2017-02-25T16:57:23Z</time>
      </trkpt>
      <trkpt lat="45.30194" lon="5.58813">
        <ele>138.67</ele>
        <time>2017-02-25T16:57:24Z</time>
      </trkpt>
      <trkpt lat="45.30214" lon="5.58852">
        <ele>138.73</ele>
        <time>2017-02-25T16:57:25Z</time>
      </trkpt>
      <trkpt lat="45.30234" lon="5.58892">
        <ele>138.75</ele>
        <time>2017-02-25T16:57:26Z</time>
      </trkpt>
      <trkpt lat="45.30253" lon="5.58932">
        <ele>138.75</ele>
        <time>2017-02-25T16:57:27Z</time>
      </trkpt>
      <trkpt lat="45.30271" lon="5.58972">
        <ele>138.51</ele>
        <time>2017-02-25T16:57:28Z</time>
      </trkpt>
      <trkpt lat="45.30289" lon="5.59013">
        <ele>138.3</ele>
        <time>2017-02-25T16:57:29Z</time>
      </trkpt>
      <trkpt lat="45.30306" lon="5.59055">
        <ele>138.5</ele>
        <time>2017-02-25T16:57:30Z</time>
      </trkpt>
      <trkpt lat="45.30323" lon="5.59097">
        <ele>138.46</ele>
        <time>2017-02-25T16:57:31Z</time>
      </trkpt>
      <trkpt lat="45.30338" lon="5.59139">
        <ele>138.45</ele>
        <time>2017-02-25T16:57:32Z</time>
      </trkpt>
      <trkpt lat="45.30353" lon="5.59182">
        <ele>138.61</ele>
        <time>2017-02-25T16:57:33Z</time>
      </trkpt>
      <trkpt lat="45.30367" lon="5.59225">
        <ele>138.96</ele>
        <time>2017-02-25T16:57:34Z</time>
      </trkpt>
      <trkpt lat="45.30381" lon="5.59268">
        <ele>139.27</ele>
        <time>2017-02-25T16:57:35Z</time>
      </trkpt>
      <trkpt lat="45.30394" lon="5.59311">
        <ele>139.49</ele>
        <time>2017-02-25T16:57:36Z</time>
      </trkpt>
      <trkpt lat="45.30407" lon="5.59355">
        <ele>140.1</ele>
        <time>2017-02-25T16:57:37Z</time>
      </trkpt>
      <trkpt lat="45.30419" lon="5.59399">
        <ele>141.1</ele>
        <time>2017-02-25T16:57:38Z</time>
      </trkpt>
      <trkpt lat="45.30431" lon="5.59444">
        <ele>142.1</ele>
        <time>2017-02-25T16:57:39Z</time>
      </trkpt>
      <trkpt lat="45.30442" lon="5.59489">
        <ele>143.1</ele>
        <time>2017-02-25T16:57:40Z</time>
      </trkpt>
      <trkpt lat="45.30452" lon="5.59534">
        <ele>144.26</ele>
        <time>2017-02-25T16:57:41Z</time>
      </trkpt>
      <trkpt lat="45.3046" lon="5.5958">
        <ele>145.13</ele>
        <time>2017-02-25T16:57:42Z</time>
      </trkpt>
      <trkpt lat="45.30469" lon="5.59626">
        <ele>146.19</ele>
        <time>2017-02-25T16:57:43Z</time>
      </trkpt>
      <trkpt lat="45.30476" lon="5.59672">
        <ele>147.2</ele>
        <time>2017-02-25T16:57:44Z</time>
      </trkpt>
      <trkpt lat="45.30483" lon="5.59718">
        <ele>147.96</ele>
        <time>2017-02-25T16:57:45Z</time>
      </trkpt>
      <trkpt lat="45.30488" lon="5.59765">
        <ele>148.59</ele>
        <time>2017-02-25T16:57:46Z</time>
      </trkpt>
      <trkpt lat="45.30492" lon="5.59812">
        <ele>149.2</ele>
        <time>2017-02-25T16:57:47Z</time>
      </trkpt>
      <trkpt lat="45.30496" lon="5.59858">
        <ele>149.8</ele>
        <time>2017-02-25T16:57:48Z</time>
      </trkpt>
      <trkpt lat="45.305" lon="5.59906">
        <ele>150.32</ele>
        <time>2017-02-25T16:57:49Z</time>
      </trkpt>
      <trkpt lat="45.30503" lon="5.59953">
        <ele>150.58</ele>
        <time>2017-02-25T16:57:50Z</time>
      </trkpt>
      <trkpt lat="45.30504" lon="5.6">
        <ele>149.68</ele>
        <time>2017-02-25T16:57:51Z</time>
      </trkpt>
      <trkpt lat="45.30506" lon="5.60047">
        <ele>149.01</ele>
        <time>2017-02-25T16:57:52Z</time>
      </trkpt>
      <trkpt lat="45.30507" lon="5.60095">
        <ele>149.12</ele>
        <time>2017-02-25T16:57:53Z</time>
      </trkpt>
      <trkpt lat="45.30507" lon="5.60143">
        <ele>148.74</ele>
        <time>2017-02-25T16:57:54Z</time>
      </trkpt>
      <trkpt lat="45.30506" lon="5.6019">
        <ele>148.51</ele>
        <time>2017-02-25T16:57:55Z</time>
      </trkpt>
      <trkpt lat="45.30505" lon="5.60237">
        <ele>147.98</ele>
        <time>2017-02-25T16:57:56Z</time>
      </trkpt>
      <trkpt lat="45.30502" lon="5.60284">
        <ele>147.48</ele>
        <time>2017-02-25T16:57:57Z</time>
      </trkpt>
      <trkpt lat="45.305" lon="5.60331">
        <ele>147.45</ele>
        <time>2017-02-25T16:57:58Z</time>
      </trkpt>
      <trkpt lat="45.30497" lon="5.60378">
        <ele>147.05</ele>
        <time>2017-02-25T16:57:59Z</time>
      </trkpt>
      <trkpt lat="45.30492" lon="5.60424">
        <ele>146.97</ele>
        <time>2017-02-25T16:58:00Z</time>
      </trkpt>
      <trkpt lat="45.30486" lon="5.6047">
        <ele>146.47</ele>
        <time>2017-02-25T16:58:01Z</time>
      </trkpt>
      <trkpt lat="45.30479" lon="5.60516">
        <ele>145.81</ele>
        <time>2017-02-25T16:58:02Z</time>
      </trkpt>
      <trkpt lat="45.30472" lon="5.60561">
        <ele>145.36</ele>
        <time>2017-02-25T16:58:03Z</time>
      </trkpt>
      <trkpt lat="45.30464" lon="5.60606">
        <ele>145.43</ele>
        <time>2017-02-25T16:58:04Z</time>
      </trkpt>
      <trkpt lat="45.30455" lon="5.60651">
        <ele>145.05</ele>
        <time>2017-02-25T16:58:05Z</time>
      </trkpt>
      <trkpt lat="45.30446" lon="5.60696">
        <ele>144.73</ele>
        <time>2017-02-25T16:58:06Z</time>
      </trkpt>
      <trkpt lat="45.30435" lon="5.6074">
        <ele>144.42</ele>
        <time>2017-02-25T16:58:07Z</time>
      </trkpt>
      <trkpt lat="45.30423" lon="5.60784">
        <ele>143.64</ele>
        <time>2017-02-25T16:58:08Z</time>
      </trkpt>
      <trkpt lat="45.3041" lon="5.60827">
        <ele>142.77</ele>
        <time>2017-02-25T16:58:09Z</time>
      </trkpt>
      <trkpt lat="45.30397" lon="5.6087">
        <ele>142.67</ele>
        <time>2017-02-25T16:58:10Z</time>
      </trkpt>
      <trkpt lat="45.30383" lon="5.60913">
        <ele>142.57</ele>
        <time>2017-02-25T16:58:11Z</time>
      </trkpt>
      <trkpt lat="45.30368" lon="5.60955">
        <ele>141.51</ele>
        <time>2017-02-25T16:58:12Z</time>
      </trkpt>
      <trkpt lat="45.30353" lon="5.60996">
        <ele>140.9</ele>
        <time>2017-02-25T16:58:13Z</time>
      </trkpt>
      <trkpt lat="45.30337" lon="5.61037">
        <ele>140.22</ele>
        <time>2017-02-25T16:58:14Z</time>
      </trkpt>
      <trkpt lat="45.3032" lon="5.61077">
        <ele>139.6</ele>
        <time>2017-02-25T16:58:15Z</time>
      </trkpt>
      <trkpt lat="45.30303" lon="5.61117">
        <ele>139.72</ele>
        <time>2017-02-25T16:58:16Z</time>
      </trkpt>
      <trkpt lat="45.30285" lon="5.61157">
        <ele>139.58</ele>
        <time>2017-02-25T16:58:17Z</time>
      </trkpt>
      <trkpt lat="45.30267" lon="5.61196">
        <ele>139.48</ele>
        <time>2017-02-25T16:58:18Z</time>
      </trkpt>
      <trkpt lat="45.30248" lon="5.61235">
        <ele>139.45</ele>
        <time>2017-02-25T16:58:19Z</time>
      </trkpt>
      <trkpt lat="45.30229" lon="5.61272">
        <ele>139.37</ele>
        <time>2017-02-25T16:58:20Z</time>
      </trkpt>
      <trkpt lat="45.30209" lon="5.6131">
        <ele>139.35</ele>
        <time>2017-02-25T16:58:21Z</time>
      </trkpt>
      <trkpt lat="45.30189" lon="5.61348">
        <ele>139.11</ele>
        <time>2017-02-25T16:58:22Z</time>
      </trkpt>
      <trkpt lat="45.3017" lon="5.61385">
        <ele>138.82</ele>
        <time>2017-02-25T16:58:23Z</time>
      </trkpt>
      <trkpt lat="45.3015" lon="5.61422">
        <ele>138.76</ele>
        <time>2017-02-25T16:58:24Z</time>
      </trkpt>
      <trkpt lat="45.30129" lon="5.61459">
        <ele>138.59</ele>
        <time>2017-02-25T16:58:25Z</time>
      </trkpt>
      <trkpt lat="45.30109" lon="5.61496">
        <ele>138.56</ele>
        <time>2017-02-25T16:58:26Z</time>
      </trkpt>
      <trkpt lat="45.30089" lon="5.61533">
        <ele>138.31</ele>
        <time>2017-02-25T16:58:27Z</time>
      </trkpt>
      <trkpt lat="45.30069" lon="5.61569">
        <ele>138.1</ele>
        <time>2017-02-25T16:58:28Z</time>
      </trkpt>
      <trkpt lat="45.30049" lon="5.61606">
        <ele>138.06</ele>
        <time>2017-02-25T16:58:29Z</time>
      </trkpt>
      <trkpt lat="45.30029" lon="5.61643">
        <ele>137.89</ele>
        <time>2017-02-25T16:58:30Z</time>
      </trkpt>
      <trkpt lat="45.30009" lon="5.61679">
        <ele>137.62</ele>
        <time>2017-02-25T16:58:31Z</time>
      </trkpt>
      <trkpt lat="45.29989" lon="5.61716">
        <ele>137.48</ele>
        <time>2017-02-25T16:58:32Z</time>
      </trkpt>
      <trkpt lat="45.29969" lon="5.61752">
        <ele>137.14</ele>
        <time>2017-02-25T16:58:33Z</time>
      </trkpt>
      <trkpt lat="45.29949" lon="5.61787">
        <ele>137.15</ele>
        <time>2017-02-25T16:58:34Z</time>
      </trkpt>
      <trkpt lat="45.29927" lon="5.61821">
        <ele>137.31</ele>
        <time>2017-02-25T16:58:35Z</time>
      </trkpt>
      <trkpt lat="45.29905" lon="5.61853">
        <ele>137.34</ele>
        <time>2017-02-25T16:58:36Z</time>
      </trkpt>
      <trkpt lat="45.29881" lon="5.61883">
        <ele>137.27</ele>
        <time>2017-02-25T16:58:37Z</time>
      </trkpt>
      <trkpt lat="45.29858" lon="5.61912">
        <ele>137.25</ele>
        <time>2017-02-25T16:58:38Z</time>
      </trkpt>
      <trkpt lat="45.29832" lon="5.61938">
        <ele>137.01</ele>
        <time>2017-02-25T16:58:39Z</time>
      </trkpt>
      <trkpt lat="45.29807" lon="5.61961">
        <ele>137.28</ele>
        <time>2017-02-25T16:58:40Z</time>
      </trkpt>
      <trkpt lat="45.2978" lon="5.61982">
        <ele>137.74</ele>
        <time>2017-02-25T16:58:41Z</time>
      </trkpt>
      <trkpt lat="45.29753" lon="5.62">
        <ele>138.39</ele>
        <time>2017-02-25T16:58:42Z</time>
      </trkpt>
      <trkpt lat="45.29724" lon="5.62015">
        <ele>138.92</ele>
        <time>2017-02-25T16:58:43Z</time>
      </trkpt>
      <trkpt lat="45.29695" lon="5.62029">
        <ele>139.18</ele>
        <time>2017-02-25T16:58:44Z</time>
      </trkpt>
      <trkpt lat="45.29665" lon="5.62039">
        <ele>139.16</ele>
        <time>2017-02-25T16:58:45Z</time>
      </trkpt>
      <trkpt lat="45.29634" lon="5.62047">
        <ele>139.15</ele>
        <time>2017-02-25T16:58:46Z</time>
      </trkpt>
      <trkpt lat="45.29603" lon="5.62053">
        <ele>139.31</ele>
        <time>2017-02-25T16:58:47Z</time>
      </trkpt>
      <trkpt lat="45.2957" lon="5.62055">
        <ele>140.3</ele>
        <time>2017-02-25T16:58:48Z</time>
      </trkpt>
      <trkpt lat="45.29537" lon="5.62055">
        <ele>141.22</ele>
        <time>2017-02-25T16:58:49Z</time>
      </trkpt>
      <trkpt lat="45.29504" lon="5.62051">
        <ele>142.28</ele>
        <time>2017-02-25T16:58:50Z</time>
      </trkpt>
      <trkpt lat="45.29472" lon="5.62046">
        <ele>143.14</ele>
        <time>2017-02-25T16:58:51Z</time>
      </trkpt>
      <trkpt lat="45.29441" lon="5.62042">
        <ele>143.39</ele>
        <time>2017-02-25T16:58:52Z</time>
      </trkpt>
      <trkpt lat="45.29409" lon="5.62038">
        <ele>142.96</ele>
        <time>2017-02-25T16:58:53Z</time>
      </trkpt>
      <trkpt lat="45.29378" lon="5.62032">
        <ele>142.39</ele>
        <time>2017-02-25T16:58:54Z</time>
      </trkpt>
      <trkpt lat="45.29346" lon="5.62027">
        <ele>141.96</ele>
        <time>2017-02-25T16:58:55Z</time>
      </trkpt>
      <trkpt lat="45.29313" lon="5.62022">
        <ele>141.87</ele>
        <time>2017-02-25T16:58:56Z</time>
      </trkpt>
      <trkpt lat="45.29279" lon="5.62018">
        <ele>142.01</ele>
        <time>2017-02-25T16:58:57Z</time>
      </trkpt>
      <trkpt lat="45.29245" lon="5.62014">
        <ele>141.96</ele>
        <time>2017-02-25T16:58:58Z</time>
      </trkpt>
      <trkpt lat="45.29211" lon="5.6201">
        <ele>142.11</ele>
        <time>2017-02-25T16:58:59Z</time>
      </trkpt>
      <trkpt lat="45.29178" lon="5.62007">
        <ele>142.14</ele>
        <time>2017-02-25T16:59:00Z</time>
      </trkpt>
      <trkpt lat="45.29144" lon="5.62006">
        <ele>142.15</ele>
        <time>2017-02-25T16:59:01Z</time>
      </trkpt>
      <trkpt lat="45.29112" lon="5.62005">
        <ele>141.83</ele>
        <time>2017-02-25T16:59:02Z</time>
      </trkpt>
      <trkpt lat="45.29079" lon="5.62005">
        <ele>141.76</ele>
        <time>2017-02-25T16:59:03Z</time>
      </trkpt>
      <trkpt lat="45.29047" lon="5.62005">
        <ele>141.67</ele>
        <time>2017-02-25T16:59:04Z</time>
      </trkpt>
      <trkpt lat="45.29014" lon="5.62007">
        <ele>141.65</ele>
        <time>2017-02-25T16:59:05Z</time>
      </trkpt>
      <trkpt lat="45.28982" lon="5.62008">
        <ele>141.49</ele>
        <time>2017-02-25T16:59:06Z</time>
      </trkpt>
      <trkpt lat="45.28949" lon="5.62011">
        <ele>141.3</ele>
        <time>2017-02-25T16:59:07Z</time>
      </trkpt>
      <trkpt lat="45.28917" lon="5.62013">
        <ele>141.26</ele>
        <time>2017-02-25T16:59:08Z</time>
      </trkpt>
      <trkpt lat="45.28884" lon="5.62017">
        <ele>141.25</ele>
        <time>2017-02-25T16:59:09Z</time>
      </trkpt>
      <trkpt lat="45.28851" lon="5.62021">
        <ele>141.41</ele>
        <time>2017-02-25T16:59:10Z</time>
      </trkpt>
      <trkpt lat="45.28819" lon="5.62025">
        <ele>141.6</ele>
        <time>2017-02-25T16:59:11Z</time>
      </trkpt>
      <trkpt lat="45.28786" lon="5.6203">
        <ele>141.48</ele>
        <time>2017-02-25T16:59:12Z</time>
      </trkpt>
      <trkpt lat="45.28754" lon="5.62036">
        <ele>141.3</ele>
        <time>2017-02-25T16:59:13Z</time>
      </trkpt>
      <trkpt lat="45.28722" lon="5.62041">
        <ele>141.18</ele>
        <time>2017-02-25T16:59:14Z</time>
      </trkpt>
      <trkpt lat="45.28692" lon="5.62047">
        <ele>140.83</ele>
        <time>2017-02-25T16:59:15Z</time>
      </trkpt>
      <trkpt lat="45.28662" lon="5.62053">
        <ele>140.61</ele>
        <time>2017-02-25T16:59:16Z</time>
      </trkpt>
      <trkpt lat="45.28634" lon="5.62059">
        <ele>140.4</ele>
        <time>2017-02-25T16:59:17Z</time>
      </trkpt>
      <trkpt lat="45.28607" lon="5.62064">
        <ele>140.36</ele>
        <time>2017-02-25T16:59:18Z</time>
      </trkpt>
      <trkpt lat="45.2858" lon="5.62069">
        <ele>140.19</ele>
        <time>2017-02-25T16:59:19Z</time>
      </trkpt>
      <trkpt lat="45.28553" lon="5.62073">
        <ele>140.24</ele>
        <time>2017-02-25T16:59:20Z</time>
      </trkpt>
      <trkpt lat="45.28526" lon="5.62077">
        <ele>140.17</ele>
        <time>2017-02-25T16:59:21Z</time>
      </trkpt>
      <trkpt lat="45.28499" lon="5.62079">
        <ele>139.91</ele>
        <time>2017-02-25T16:59:22Z</time>
      </trkpt>
      <trkpt lat="45.28474" lon="5.62082">
        <ele>139.78</ele>
        <time>2017-02-25T16:59:23Z</time>
      </trkpt>
      <trkpt lat="45.28451" lon="5.62084">
        <ele>139.6</ele>
        <time>2017-02-25T16:59:24Z</time>
      </trkpt>
      <trkpt lat="45.28431" lon="5.62086">
        <ele>139.24</ele>
        <time>2017-02-25T16:59:25Z</time>
      </trkpt>
      <trkpt lat="45.28411" lon="5.62089">
        <ele>138.85</ele>
        <time>2017-02-25T16:59:26Z</time>
      </trkpt>
      <trkpt lat="45.28394" lon="5.62092">
        <ele>138.29</ele>
        <time>2017-02-25T16:59:27Z</time>
      </trkpt>
      <trkpt lat="45.28378" lon="5.62094">
        <ele>137.94</ele>
        <time>2017-02-25T16:59:28Z</time>
      </trkpt>
      <trkpt lat="45.28364" lon="5.62097">
        <ele>137.63</ele>
        <time>2017-02-25T16:59:29Z</time>
      </trkpt>
      <trkpt lat="45.2835" lon="5.621">
        <ele>137.4</ele>
        <time>2017-02-25T16:59:30Z</time>
      </trkpt>
      <trkpt lat="45.28338" lon="5.62103">
        <ele>137.2</ele>
        <time>2017-02-25T16:59:31Z</time>
      </trkpt>
      <trkpt lat="45.28328" lon="5.62106">
        <ele>136.76</ele>
        <time>2017-02-25T16:59:32Z</time>
      </trkpt>
      <trkpt lat="45.28319" lon="5.62108">
        <ele>136.67</ele>
        <time>2017-02-25T16:59:33Z</time>
      </trkpt>
      <trkpt lat="45.28312" lon="5.6211">
        <ele>136.57</ele>
        <time>2017-02-25T16:59:34Z</time>
      </trkpt>
      <trkpt lat="45.28305" lon="5.62111">
        <ele>136.31</ele>
        <time>2017-02-25T16:59:35Z</time>
      </trkpt>
      <trkpt lat="45.28299" lon="5.62113">
        <ele>136.1</ele>
        <time>2017-02-25T16:59:36Z</time>
      </trkpt>
      <trkpt lat="45.28295" lon="5.62113">
        <ele>135.82</ele>
        <time>2017-02-25T16:59:37Z</time>
      </trkpt>
      <trkpt lat="45.28292" lon="5.62113">
        <ele>135.44</ele>
        <time>2017-02-25T16:59:38Z</time>
      </trkpt>
      <trkpt lat="45.28291" lon="5.62113">
        <ele>134.97</ele>
        <time>2017-02-25T16:59:39Z</time>
      </trkpt>
      <trkpt lat="45.2829" lon="5.62113">
        <ele>135.11</ele>
        <time>2017-02-25T16:59:40Z</time>
      </trkpt>
      <trkpt lat="45.28289" lon="5.62114">
        <ele>135.38</ele>
        <time>2017-02-25T16:59:41Z</time>
      </trkpt>
      <trkpt lat="45.28287" lon="5.62116">
        <ele>135.68</ele>
        <time>2017-02-25T16:59:42Z</time>
      </trkpt>
      <trkpt lat="45.28281" lon="5.62117">
        <ele>136.05</ele>
        <time>2017-02-25T16:59:43Z</time>
      </trkpt>
      <trkpt lat="45.28278" lon="5.62119">
        <ele>136.21</ele>
        <time>2017-02-25T16:59:44Z</time>
      </trkpt>
      <trkpt lat="45.28273" lon="5.62122">
        <ele>136.24</ele>
        <time>2017-02-25T16:59:45Z</time>
      </trkpt>
      <trkpt lat="45.28267" lon="5.62124">
        <ele>136.25</ele>
        <time>2017-02-25T16:59:46Z</time>
      </trkpt>
      <trkpt lat="45.28259" lon="5.62126">
        <ele>136.25</ele>
        <time>2017-02-25T16:59:47Z</time>
      </trkpt>
      <trkpt lat="45.28252" lon="5.62129">
        <ele>136.65</ele>
        <time>2017-02-25T16:59:48Z</time>
      </trkpt>
      <trkpt lat="45.28243" lon="5.62133">
        <ele>136.73</ele>
        <time>2017-02-25T16:59:49Z</time>
      </trkpt>
      <trkpt lat="45.28233" lon="5.62137">
        <ele>136.9</ele>
        <time>2017-02-25T16:59:50Z</time>
      </trkpt>
      <trkpt lat="45.28221" lon="5.62143">
        <ele>137.02</ele>
        <time>2017-02-25T16:59:51Z</time>
      </trkpt>
      <trkpt lat="45.28208" lon="5.62149">
        <ele>137.12</ele>
        <time>2017-02-25T16:59:52Z</time>
      </trkpt>
      <trkpt lat="45.28194" lon="5.62157">
        <ele>137.3</ele>
        <time>2017-02-25T16:59:53Z</time>
      </trkpt>
      <trkpt lat="45.28179" lon="5.62165">
        <ele>137.26</ele>
        <time>2017-02-25T16:59:54Z</time>
      </trkpt>
      <trkpt lat="45.28162" lon="5.62174">
        <ele>137.09</ele>
        <time>2017-02-25T16:59:55Z</time>
      </trkpt>
      <trkpt lat="45.28144" lon="5.62182">
        <ele>136.9</ele>
        <time>2017-02-25T16:59:56Z</time>
      </trkpt>
      <trkpt lat="45.28124" lon="5.62191">
        <ele>136.62</ele>
        <time>2017-02-25T16:59:57Z</time>
      </trkpt>
      <trkpt lat="45.28104" lon="5.62201">
        <ele>136.56</ele>
        <time>2017-02-25T16:59:58Z</time>
      </trkpt>
      <trkpt lat="45.28083" lon="5.62211">
        <ele>136.79</ele>
        <time>2017-02-25T16:59:59Z</time>
      </trkpt>
      <trkpt lat="45.28061" lon="5.62221">
        <ele>137.32</ele>
        <time>2017-02-25T17:00:00Z</time>
      </trkpt>
      <trkpt lat="45.28039" lon="5.6223">
        <ele>137.5</ele>
        <time>2017-02-25T17:00:01Z</time>
      </trkpt>
      <trkpt lat="45.28016" lon="5.6224">
        <ele>137.54</ele>
        <time>2017-02-25T17:00:02Z</time>
      </trkpt>
      <trkpt lat="45.27992" lon="5.6225">
        <ele>137.79</ele>
        <time>2017-02-25T17:00:03Z</time>
      </trkpt>
      <trkpt lat="45.27967" lon="5.6226">
        <ele>138.32</ele>
        <time>2017-02-25T17:00:04Z</time>
      </trkpt>
      <trkpt lat="45.27941" lon="5.62271">
        <ele>138.58</ele>
        <time>2017-02-25T17:00:05Z</time>
      </trkpt>
      <trkpt lat="45.27915" lon="5.62282">
        <ele>138.72</ele>
        <time>2017-02-25T17:00:06Z</time>
      </trkpt>
      <trkpt lat="45.27888" lon="5.62293">
        <ele>138.82</ele>
        <time>2017-02-25T17:00:07Z</time>
      </trkpt>
      <trkpt lat="45.27862" lon="5.62304">
        <ele>138.84</ele>
        <time>2017-02-25T17:00:08Z</time>
      </trkpt>
      <trkpt lat="45.27835" lon="5.62314">
        <ele>138.77</ele>
        <time>2017-02-25T17:00:09Z</time>
      </trkpt>
      <trkpt lat="45.27808" lon="5.62325">
        <ele>138.35</ele>
        <time>2017-02-25T17:00:10Z</time>
      </trkpt>
      <trkpt lat="45.27781" lon="5.62337">
        <ele>138.03</ele>
        <time>2017-02-25T17:00:11Z</time>
      </trkpt>
      <trkpt lat="45.27754" lon="5.62348">
        <ele>137.81</ele>
        <time>2017-02-25T17:00:12Z</time>
      </trkpt>
      <trkpt lat="45.27727" lon="5.6236">
        <ele>137.68</ele>
        <time>2017-02-25T17:00:13Z</time>
      </trkpt>
      <trkpt lat="45.277" lon="5.62372">
        <ele>137.58</ele>
        <time>2017-02-25T17:00:14Z</time>
      </trkpt>
      <trkpt lat="45.27673" lon="5.62385">
        <ele>137.71</ele>
        <time>2017-02-25T17:00:15Z</time>
      </trkpt>
      <trkpt lat="45.27645" lon="5.62397">
        <ele>137.82</ele>
        <time>2017-02-25T17:00:16Z</time>
      </trkpt>
      <trkpt lat="45.27617" lon="5.6241">
        <ele>137.92</ele>
        <time>2017-02-25T17:00:17Z</time>
      </trkpt>
      <trkpt lat="45.27589" lon="5.62423">
        <ele>138.18</ele>
        <time>2017-02-25T17:00:18Z</time>
      </trkpt>
      <trkpt lat="45.27561" lon="5.62437">
        <ele>138.32</ele>
        <time>2017-02-25T17:00:19Z</time>
      </trkpt>
      <trkpt lat="45.27533" lon="5.6245">
        <ele>138.58</ele>
        <time>2017-02-25T17:00:20Z</time>
      </trkpt>
      <trkpt lat="45.27505" lon="5.62463">
        <ele>138.72</ele>
        <time>2017-02-25T17:00:21Z</time>
      </trkpt>
      <trkpt lat="45.27478" lon="5.62476">
        <ele>138.74</ele>
        <time>2017-02-25T17:00:22Z</time>
      </trkpt>
      <trkpt lat="45.27451" lon="5.62489">
        <ele>138.51</ele>
        <time>2017-02-25T17:00:23Z</time>
      </trkpt>
      <trkpt lat="45.27424" lon="5.62502">
        <ele>138.46</ele>
        <time>2017-02-25T17:00:24Z</time>
      </trkpt>
      <trkpt lat="45.27398" lon="5.62515">
        <ele>138.45</ele>
        <time>2017-02-25T17:00:25Z</time>
      </trkpt>
      <trkpt lat="45.27371" lon="5.62528">
        <ele>138.61</ele>
        <time>2017-02-25T17:00:26Z</time>
      </trkpt>
      <trkpt lat="45.27345" lon="5.62542">
        <ele>138.64</ele>
        <time>2017-02-25T17:00:27Z</time>
      </trkpt>
      <trkpt lat="45.27319" lon="5.62555">
        <ele>138.65</ele>
        <time>2017-02-25T17:00:28Z</time>
      </trkpt>
      <trkpt lat="45.27293" lon="5.62568">
        <ele>138.49</ele>
        <time>2017-02-25T17:00:29Z</time>
      </trkpt>
      <trkpt lat="45.27267" lon="5.62581">
        <ele>138.62</ele>
        <time>2017-02-25T17:00:30Z</time>
      </trkpt>
      <trkpt lat="45.27241" lon="5.62595">
        <ele>138.88</ele>
        <time>2017-02-25T17:00:31Z</time>
      </trkpt>
      <trkpt lat="45.27214" lon="5.62608">
        <ele>138.94</ele>
        <time>2017-02-25T17:00:32Z</time>
      </trkpt>
      <trkpt lat="45.27188" lon="5.62622">
        <ele>139.03</ele>
        <time>2017-02-25T17:00:33Z</time>
      </trkpt>
      <trkpt lat="45.27162" lon="5.62635">
        <ele>139.12</ele>
        <time>2017-02-25T17:00:34Z</time>
      </trkpt>
      <trkpt lat="45.27135" lon="5.62648">
        <ele>139.46</ele>
        <time>2017-02-25T17:00:35Z</time>
      </trkpt>
      <trkpt lat="45.27109" lon="5.62661">
        <ele>139.93</ele>
        <time>2017-02-25T17:00:36Z</time>
      </trkpt>
      <trkpt lat="45.27082" lon="5.62674">
        <ele>139.95</ele>
        <time>2017-02-25T17:00:37Z</time>
      </trkpt>
      <trkpt lat="45.27055" lon="5.62687">
        <ele>139.87</ele>
        <time>2017-02-25T17:00:38Z</time>
      </trkpt>
      <trkpt lat="45.27028" lon="5.627">
        <ele>139.61</ele>
        <time>2017-02-25T17:00:39Z</time>
      </trkpt>
      <trkpt lat="45.27001" lon="5.62713">
        <ele>139.72</ele>
        <time>2017-02-25T17:00:40Z</time>
      </trkpt>
      <trkpt lat="45.26974" lon="5.62726">
        <ele>140.06</ele>
        <time>2017-02-25T17:00:41Z</time>
      </trkpt>
      <trkpt lat="45.26947" lon="5.62739">
        <ele>140.21</ele>
        <time>2017-02-25T17:00:42Z</time>
      </trkpt>
      <trkpt lat="45.2692" lon="5.62753">
        <ele>140.24</ele>
        <time>2017-02-25T17:00:43Z</time>
      </trkpt>
      <trkpt lat="45.26892" lon="5.62768">
        <ele>140.41</ele>
        <time>2017-02-25T17:00:44Z</time>
      </trkpt>
      <trkpt lat="45.26865" lon="5.62783">
        <ele>140.6</ele>
        <time>2017-02-25T17:00:45Z</time>
      </trkpt>
      <trkpt lat="45.26838" lon="5.62799">
        <ele>140.48</ele>
        <time>2017-02-25T17:00:46Z</time>
      </trkpt>
      <trkpt lat="45.26812" lon="5.62816">
        <ele>140.38</ele>
        <time>2017-02-25T17:00:47Z</time>
      </trkpt>
      <trkpt lat="45.26785" lon="5.62833">
        <ele>140.11</ele>
        <time>2017-02-25T17:00:48Z</time>
      </trkpt>
      <trkpt lat="45.26759" lon="5.62851">
        <ele>139.74</ele>
        <time>2017-02-25T17:00:49Z</time>
      </trkpt>
      <trkpt lat="45.26733" lon="5.62869">
        <ele>139.67</ele>
        <time>2017-02-25T17:00:50Z</time>
      </trkpt>
      <trkpt lat="45.26707" lon="5.62889">
        <ele>139.65</ele>
        <time>2017-02-25T17:00:51Z</time>
      </trkpt>
      <trkpt lat="45.26682" lon="5.62909">
        <ele>139.41</ele>
        <time>2017-02-25T17:00:52Z</time>
      </trkpt>
      <trkpt lat="45.26657" lon="5.6293">
        <ele>139.28</ele>
        <time>2017-02-25T17:00:53Z</time>
      </trkpt>
      <trkpt lat="45.26632" lon="5.62952">
        <ele>139.82</ele>
        <time>2017-02-25T17:00:54Z</time>
      </trkpt>
      <trkpt lat="45.26607" lon="5.62974">
        <ele>140.32</ele>
        <time>2017-02-25T17:00:55Z</time>
      </trkpt>
      <trkpt lat="45.26584" lon="5.62996">
        <ele>140.82</ele>
        <time>2017-02-25T17:00:56Z</time>
      </trkpt>
      <trkpt lat="45.2656" lon="5.63019">
        <ele>141.4</ele>
        <time>2017-02-25T17:00:57Z</time>
      </trkpt>
      <trkpt lat="45.26537" lon="5.63043">
        <ele>141.68</ele>
        <time>2017-02-25T17:00:58Z</time>
      </trkpt>
      <trkpt lat="45.26514" lon="5.63067">
        <ele>141.74</ele>
        <time>2017-02-25T17:00:59Z</time>
      </trkpt>
      <trkpt lat="45.26492" lon="5.63091">
        <ele>141.11</ele>
        <time>2017-02-25T17:01:00Z</time>
      </trkpt>
      <trkpt lat="45.26469" lon="5.63116">
        <ele>140.82</ele>
        <time>2017-02-25T17:01:01Z</time>
      </trkpt>
      <trkpt lat="45.26447" lon="5.63141">
        <ele>140.68</ele>
        <time>2017-02-25T17:01:02Z</time>
      </trkpt>
      <trkpt lat="45.26425" lon="5.63167">
        <ele>140.82</ele>
        <time>2017-02-25T17:01:03Z</time>
      </trkpt>
      <trkpt lat="45.26404" lon="5.63193">
        <ele>140.76</ele>
        <time>2017-02-25T17:01:04Z</time>
      </trkpt>
      <trkpt lat="45.26382" lon="5.63219">
        <ele>140.83</ele>
        <time>2017-02-25T17:01:05Z</time>
      </trkpt>
      <trkpt lat="45.26361" lon="5.63246">
        <ele>141.17</ele>
        <time>2017-02-25T17:01:06Z</time>
      </trkpt>
      <trkpt lat="45.26339" lon="5.63272">
        <ele>141.63</ele>
        <time>2017-02-25T17:01:07Z</time>
      </trkpt>
      <trkpt lat="45.26318" lon="5.63299">
        <ele>141.81</ele>
        <time>2017-02-25T17:01:08Z</time>
      </trkpt>
      <trkpt lat="45.26296" lon="5.63326">
        <ele>142</ele>
        <time>2017-02-25T17:01:09Z</time>
      </trkpt>
      <trkpt lat="45.26275" lon="5.63353">
        <ele>141.88</ele>
        <time>2017-02-25T17:01:10Z</time>
      </trkpt>
      <trkpt lat="45.26253" lon="5.6338">
        <ele>142.26</ele>
        <time>2017-02-25T17:01:11Z</time>
      </trkpt>
      <trkpt lat="45.26232" lon="5.63406">
        <ele>142.33</ele>
        <time>2017-02-25T17:01:12Z</time>
      </trkpt>
      <trkpt lat="45.2621" lon="5.63433">
        <ele>142.35</ele>
        <time>2017-02-25T17:01:13Z</time>
      </trkpt>
      <trkpt lat="45.26189" lon="5.6346">
        <ele>142.43</ele>
        <time>2017-02-25T17:01:14Z</time>
      </trkpt>
      <trkpt lat="45.26168" lon="5.63486">
        <ele>142.2</ele>
        <time>2017-02-25T17:01:15Z</time>
      </trkpt>
      <trkpt lat="45.26146" lon="5.63513">
        <ele>141.92</ele>
        <time>2017-02-25T17:01:16Z</time>
      </trkpt>
      <trkpt lat="45.26124" lon="5.63539">
        <ele>141.62</ele>
        <time>2017-02-25T17:01:17Z</time>
      </trkpt>
      <trkpt lat="45.26102" lon="5.63565">
        <ele>141.32</ele>
        <time>2017-02-25T17:01:18Z</time>
      </trkpt>
      <trkpt lat="45.2608" lon="5.63591">
        <ele>141.02</ele>
        <time>2017-02-25T17:01:19Z</time>
      </trkpt>
      <trkpt lat="45.26059" lon="5.63618">
        <ele>140.8</ele>
        <time>2017-02-25T17:01:20Z</time>
      </trkpt>
      <trkpt lat="45.26037" lon="5.63645">
        <ele>140.84</ele>
        <time>2017-02-25T17:01:21Z</time>
      </trkpt>
      <trkpt lat="45.26015" lon="5.63672">
        <ele>141.01</ele>
        <time>2017-02-25T17:01:22Z</time>
      </trkpt>
      <trkpt lat="45.25994" lon="5.637">
        <ele>141.12</ele>
        <time>2017-02-25T17:01:23Z</time>
      </trkpt>
      <trkpt lat="45.25973" lon="5.63727">
        <ele>141.14</ele>
        <time>2017-02-25T17:01:24Z</time>
      </trkpt>
      <trkpt lat="45.25952" lon="5.63755">
        <ele>141.47</ele>
        <time>2017-02-25T17:01:25Z</time>
      </trkpt>
      <trkpt lat="45.25931" lon="5.63784">
        <ele>142.01</ele>
        <time>2017-02-25T17:01:26Z</time>
      </trkpt>
      <trkpt lat="45.2591" lon="5.63814">
        <ele>142.44</ele>
        <time>2017-02-25T17:01:27Z</time>
      </trkpt>
      <trkpt lat="45.2589" lon="5.63843">
        <ele>143.01</ele>
        <time>2017-02-25T17:01:28Z</time>
      </trkpt>
      <trkpt lat="45.2587" lon="5.63873">
        <ele>143.28</ele>
        <time>2017-02-25T17:01:29Z</time>
      </trkpt>
      <trkpt lat="45.25851" lon="5.63904">
        <ele>143.9</ele>
        <time>2017-02-25T17:01:30Z</time>
      </trkpt>
      <trkpt lat="45.25832" lon="5.63934">
        <ele>144.18</ele>
        <time>2017-02-25T17:01:31Z</time>
      </trkpt>
      <trkpt lat="45.25813" lon="5.63965">
        <ele>144.23</ele>
        <time>2017-02-25T17:01:32Z</time>
      </trkpt>
      <trkpt lat="45.25795" lon="5.63997">
        <ele>144.25</ele>
        <time>2017-02-25T17:01:33Z</time>
      </trkpt>
      <trkpt lat="45.25777" lon="5.64028">
        <ele>144.57</ele>
        <time>2017-02-25T17:01:34Z</time>
      </trkpt>
      <trkpt lat="45.25759" lon="5.64059">
        <ele>144.63</ele>
        <time>2017-02-25T17:01:35Z</time>
      </trkpt>
      <trkpt lat="45.25741" lon="5.64091">
        <ele>144.89</ele>
        <time>2017-02-25T17:01:36Z</time>
      </trkpt>
      <trkpt lat="45.25724" lon="5.64123">
        <ele>145.18</ele>
        <time>2017-02-25T17:01:37Z</time>
      </trkpt>
      <trkpt lat="45.25706" lon="5.64155">
        <ele>145.39</ele>
        <time>2017-02-25T17:01:38Z</time>
      </trkpt>
      <trkpt lat="45.25689" lon="5.64188">
        <ele>145.76</ele>
        <time>2017-02-25T17:01:39Z</time>
      </trkpt>
      <trkpt lat="45.25672" lon="5.6422">
        <ele>145.67</ele>
        <time>2017-02-25T17:01:40Z</time>
      </trkpt>
      <trkpt lat="45.25656" lon="5.64253">
        <ele>145.81</ele>
        <time>2017-02-25T17:01:41Z</time>
      </trkpt>
      <trkpt lat="45.25639" lon="5.64287">
        <ele>145.92</ele>
        <time>2017-02-25T17:01:42Z</time>
      </trkpt>
      <trkpt lat="45.25622" lon="5.6432">
        <ele>146.18</ele>
        <time>2017-02-25T17:01:43Z</time>
      </trkpt>
      <trkpt lat="45.25605" lon="5.64354">
        <ele>146.56</ele>
        <time>2017-02-25T17:01:44Z</time>
      </trkpt>
      <trkpt lat="45.25588" lon="5.64387">
        <ele>146.47</ele>
        <time>2017-02-25T17:01:45Z</time>
      </trkpt>
      <trkpt lat="45.25571" lon="5.64419">
        <ele>146.37</ele>
        <time>2017-02-25T17:01:46Z</time>
      </trkpt>
      <trkpt lat="45.25553" lon="5.64452">
        <ele>146.75</ele>
        <time>2017-02-25T17:01:47Z</time>
      </trkpt>
      <trkpt lat="45.25535" lon="5.64483">
        <ele>146.83</ele>
        <time>2017-02-25T17:01:48Z</time>
      </trkpt>
      <trkpt lat="45.25517" lon="5.64515">
        <ele>146.77</ele>
        <time>2017-02-25T17:01:49Z</time>
      </trkpt>
      <trkpt lat="45.25499" lon="5.64546">
        <ele>146.83</ele>
        <time>2017-02-25T17:01:50Z</time>
      </trkpt>
      <trkpt lat="45.25481" lon="5.64576">
        <ele>146.93</ele>
        <time>2017-02-25T17:01:51Z</time>
      </trkpt>
      <trkpt lat="45.25462" lon="5.64607">
        <ele>147.02</ele>
        <time>2017-02-25T17:01:52Z</time>
      </trkpt>
      <trkpt lat="45.25443" lon="5.64636">
        <ele>147.04</ele>
        <time>2017-02-25T17:01:53Z</time>
      </trkpt>
      <trkpt lat="45.25424" lon="5.64665">
        <ele>147.21</ele>
        <time>2017-02-25T17:01:54Z</time>
      </trkpt>
      <trkpt lat="45.25404" lon="5.64694">
        <ele>147.08</ele>
        <time>2017-02-25T17:01:55Z</time>
      </trkpt>
      <trkpt lat="45.25385" lon="5.64722">
        <ele>146.74</ele>
        <time>2017-02-25T17:01:56Z</time>
      </trkpt>
      <trkpt lat="45.25365" lon="5.64751">
        <ele>146.59</ele>
        <time>2017-02-25T17:01:57Z</time>
      </trkpt>
      <trkpt lat="45.25345" lon="5.64778">
        <ele>146.56</ele>
        <time>2017-02-25T17:01:58Z</time>
      </trkpt>
      <trkpt lat="45.25324" lon="5.64806">
        <ele>146.63</ele>
        <time>2017-02-25T17:01:59Z</time>
      </trkpt>
      <trkpt lat="45.25303" lon="5.64833">
        <ele>146.65</ele>
        <time>2017-02-25T17:02:00Z</time>
      </trkpt>
      <trkpt lat="45.25282" lon="5.64859">
        <ele>146.81</ele>
        <time>2017-02-25T17:02:01Z</time>
      </trkpt>
      <trkpt lat="45.25261" lon="5.64886">
        <ele>147.08</ele>
        <time>2017-02-25T17:02:02Z</time>
      </trkpt>
      <trkpt lat="45.25239" lon="5.64913">
        <ele>147.14</ele>
        <time>2017-02-25T17:02:03Z</time>
      </trkpt>
      <trkpt lat="45.25218" lon="5.6494">
        <ele>147.31</ele>
        <time>2017-02-25T17:02:04Z</time>
      </trkpt>
      <trkpt lat="45.25197" lon="5.64967">
        <ele>147.66</ele>
        <time>2017-02-25T17:02:05Z</time>
      </trkpt>
      <trkpt lat="45.25177" lon="5.64995">
        <ele>147.73</ele>
        <time>2017-02-25T17:02:06Z</time>
      </trkpt>
      <trkpt lat="45.25156" lon="5.65022">
        <ele>147.99</ele>
        <time>2017-02-25T17:02:07Z</time>
      </trkpt>
      <trkpt lat="45.25136" lon="5.6505">
        <ele>148.12</ele>
        <time>2017-02-25T17:02:08Z</time>
      </trkpt>
      <trkpt lat="45.25115" lon="5.65077">
        <ele>148.3</ele>
        <time>2017-02-25T17:02:09Z</time>
      </trkpt>
      <trkpt lat="45.25094" lon="5.65104">
        <ele>148.34</ele>
        <time>2017-02-25T17:02:10Z</time>
      </trkpt>
      <trkpt lat="45.25073" lon="5.65132">
        <ele>148.43</ele>
        <time>2017-02-25T17:02:11Z</time>
      </trkpt>
      <trkpt lat="45.25053" lon="5.65159">
        <ele>148.44</ele>
        <time>2017-02-25T17:02:12Z</time>
      </trkpt>
      <trkpt lat="45.25032" lon="5.65186">
        <ele>148.53</ele>
        <time>2017-02-25T17:02:13Z</time>
      </trkpt>
      <trkpt lat="45.2501" lon="5.65213">
        <ele>148.78</ele>
        <time>2017-02-25T17:02:14Z</time>
      </trkpt>
      <trkpt lat="45.24989" lon="5.65239">
        <ele>149</ele>
        <time>2017-02-25T17:02:15Z</time>
      </trkpt>
      <trkpt lat="45.24968" lon="5.65265">
        <ele>149.28</ele>
        <time>2017-02-25T17:02:16Z</time>
      </trkpt>
      <trkpt lat="45.24946" lon="5.65291">
        <ele>149.57</ele>
        <time>2017-02-25T17:02:17Z</time>
      </trkpt>
      <trkpt lat="45.24924" lon="5.65316">
        <ele>149.79</ele>
        <time>2017-02-25T17:02:18Z</time>
      </trkpt>
      <trkpt lat="45.24902" lon="5.65341">
        <ele>150</ele>
        <time>2017-02-25T17:02:19Z</time>
      </trkpt>
      <trkpt lat="45.24879" lon="5.65364">
        <ele>150.04</ele>
        <time>2017-02-25T17:02:20Z</time>
      </trkpt>
      <trkpt lat="45.24857" lon="5.65387">
        <ele>150.05</ele>
        <time>2017-02-25T17:02:21Z</time>
      </trkpt>
      <trkpt lat="45.24833" lon="5.65409">
        <ele>149.73</ele>
        <time>2017-02-25T17:02:22Z</time>
      </trkpt>
      <trkpt lat="45.2481" lon="5.65431">
        <ele>149.66</ele>
        <time>2017-02-25T17:02:23Z</time>
      </trkpt>
      <trkpt lat="45.24786" lon="5.65451">
        <ele>149.57</ele>
        <time>2017-02-25T17:02:24Z</time>
      </trkpt>
      <trkpt lat="45.24762" lon="5.65471">
        <ele>149.07</ele>
        <time>2017-02-25T17:02:25Z</time>
      </trkpt>
      <trkpt lat="45.24737" lon="5.65491">
        <ele>148.81</ele>
        <time>2017-02-25T17:02:26Z</time>
      </trkpt>
      <trkpt lat="45.24713" lon="5.6551">
        <ele>148.76</ele>
        <time>2017-02-25T17:02:27Z</time>
      </trkpt>
      <trkpt lat="45.24688" lon="5.6553">
        <ele>148.51</ele>
        <time>2017-02-25T17:02:28Z</time>
      </trkpt>
      <trkpt lat="45.24663" lon="5.65548">
        <ele>148.3</ele>
        <time>2017-02-25T17:02:29Z</time>
      </trkpt>
      <trkpt lat="45.24638" lon="5.65567">
        <ele>147.86</ele>
        <time>2017-02-25T17:02:30Z</time>
      </trkpt>
      <trkpt lat="45.24613" lon="5.65585">
        <ele>147.53</ele>
        <time>2017-02-25T17:02:31Z</time>
      </trkpt>
      <trkpt lat="45.24588" lon="5.65603">
        <ele>147.63</ele>
        <time>2017-02-25T17:02:32Z</time>
      </trkpt>
      <trkpt lat="45.24563" lon="5.65622">
        <ele>147.88</ele>
        <time>2017-02-25T17:02:33Z</time>
      </trkpt>
      <trkpt lat="45.24538" lon="5.6564">
        <ele>148.18</ele>
        <time>2017-02-25T17:02:34Z</time>
      </trkpt>
      <trkpt lat="45.24513" lon="5.65658">
        <ele>148.31</ele>
        <time>2017-02-25T17:02:35Z</time>
      </trkpt>
      <trkpt lat="45.24487" lon="5.65676">
        <ele>148.5</ele>
        <time>2017-02-25T17:02:36Z</time>
      </trkpt>
      <trkpt lat="45.24462" lon="5.65694">
        <ele>148.62</ele>
        <time>2017-02-25T17:02:37Z</time>
      </trkpt>
      <trkpt lat="45.24437" lon="5.65712">
        <ele>148.56</ele>
        <time>2017-02-25T17:02:38Z</time>
      </trkpt>
      <trkpt lat="45.24411" lon="5.6573">
        <ele>148.55</ele>
        <time>2017-02-25T17:02:39Z</time>
      </trkpt>
      <trkpt lat="45.24386" lon="5.65748">
        <ele>148.31</ele>
        <time>2017-02-25T17:02:40Z</time>
      </trkpt>
      <trkpt lat="45.24361" lon="5.65766">
        <ele>148.1</ele>
        <time>2017-02-25T17:02:41Z</time>
      </trkpt>
      <trkpt lat="45.24335" lon="5.65784">
        <ele>147.66</ele>
        <time>2017-02-25T17:02:42Z</time>
      </trkpt>
      <trkpt lat="45.2431" lon="5.65803">
        <ele>147.33</ele>
        <time>2017-02-25T17:02:43Z</time>
      </trkpt>
      <trkpt lat="45.24285" lon="5.65821">
        <ele>146.87</ele>
        <time>2017-02-25T17:02:44Z</time>
      </trkpt>
      <trkpt lat="45.2426" lon="5.65839">
        <ele>146.53</ele>
        <time>2017-02-25T17:02:45Z</time>
      </trkpt>
      <trkpt lat="45.24235" lon="5.65857">
        <ele>146.39</ele>
        <time>2017-02-25T17:02:46Z</time>
      </trkpt>
      <trkpt lat="45.24209" lon="5.65876">
        <ele>146.44</ele>
        <time>2017-02-25T17:02:47Z</time>
      </trkpt>
      <trkpt lat="45.24184" lon="5.65894">
        <ele>146.45</ele>
        <time>2017-02-25T17:02:48Z</time>
      </trkpt>
      <trkpt lat="45.24159" lon="5.65912">
        <ele>146.45</ele>
        <time>2017-02-25T17:02:49Z</time>
      </trkpt>
      <trkpt lat="45.24134" lon="5.6593">
        <ele>146.61</ele>
        <time>2017-02-25T17:02:50Z</time>
      </trkpt>
      <trkpt lat="45.24109" lon="5.65948">
        <ele>146.64</ele>
        <time>2017-02-25T17:02:51Z</time>
      </trkpt>
      <trkpt lat="45.24084" lon="5.65965">
        <ele>146.81</ele>
        <time>2017-02-25T17:02:52Z</time>
      </trkpt>
      <trkpt lat="45.2406" lon="5.65983">
        <ele>146.52</ele>
        <time>2017-02-25T17:02:53Z</time>
      </trkpt>
      <trkpt lat="45.24035" lon="5.66001">
        <ele>146.06</ele>
        <time>2017-02-25T17:02:54Z</time>
      </trkpt>
      <trkpt lat="45.2401" lon="5.66018">
        <ele>145.81</ele>
        <time>2017-02-25T17:02:55Z</time>
      </trkpt>
      <trkpt lat="45.23985" lon="5.66035">
        <ele>145.76</ele>
        <time>2017-02-25T17:02:56Z</time>
      </trkpt>
      <trkpt lat="45.23959" lon="5.66051">
        <ele>145.83</ele>
        <time>2017-02-25T17:02:57Z</time>
      </trkpt>
      <trkpt lat="45.23934" lon="5.66068">
        <ele>145.93</ele>
        <time>2017-02-25T17:02:58Z</time>
      </trkpt>
      <trkpt lat="45.23908" lon="5.66084">
        <ele>145.78</ele>
        <time>2017-02-25T17:02:59Z</time>
      </trkpt>
      <trkpt lat="45.23883" lon="5.661">
        <ele>145.6</ele>
        <time>2017-02-25T17:03:00Z</time>
      </trkpt>
      <trkpt lat="45.23857" lon="5.66116">
        <ele>145.24</ele>
        <time>2017-02-25T17:03:01Z</time>
      </trkpt>
      <trkpt lat="45.23831" lon="5.66132">
        <ele>145.01</ele>
        <time>2017-02-25T17:03:02Z</time>
      </trkpt>
      <trkpt lat="45.23805" lon="5.66148">
        <ele>144.8</ele>
        <time>2017-02-25T17:03:03Z</time>
      </trkpt>
      <trkpt lat="45.2378" lon="5.66162">
        <ele>144.36</ele>
        <time>2017-02-25T17:03:04Z</time>
      </trkpt>
      <trkpt lat="45.23755" lon="5.66176">
        <ele>144.11</ele>
        <time>2017-02-25T17:03:05Z</time>
      </trkpt>
      <trkpt lat="45.23731" lon="5.66189">
        <ele>144.06</ele>
        <time>2017-02-25T17:03:06Z</time>
      </trkpt>
      <trkpt lat="45.23708" lon="5.66202">
        <ele>143.81</ele>
        <time>2017-02-25T17:03:07Z</time>
      </trkpt>
      <trkpt lat="45.23685" lon="5.66214">
        <ele>143.44</ele>
        <time>2017-02-25T17:03:08Z</time>
      </trkpt>
      <trkpt lat="45.23662" lon="5.66227">
        <ele>143.77</ele>
        <time>2017-02-25T17:03:09Z</time>
      </trkpt>
      <trkpt lat="45.23639" lon="5.66239">
        <ele>144.07</ele>
        <time>2017-02-25T17:03:10Z</time>
      </trkpt>
      <trkpt lat="45.23617" lon="5.66251">
        <ele>144.21</ele>
        <time>2017-02-25T17:03:11Z</time>
      </trkpt>
      <trkpt lat="45.23595" lon="5.66262">
        <ele>144.24</ele>
        <time>2017-02-25T17:03:12Z</time>
      </trkpt>
      <trkpt lat="45.23573" lon="5.66273">
        <ele>144.25</ele>
        <time>2017-02-25T17:03:13Z</time>
      </trkpt>
      <trkpt lat="45.23551" lon="5.66283">
        <ele>144.17</ele>
        <time>2017-02-25T17:03:14Z</time>
      </trkpt>
      <trkpt lat="45.23529" lon="5.66293">
        <ele>143.99</ele>
        <time>2017-02-25T17:03:15Z</time>
      </trkpt>
      <trkpt lat="45.23507" lon="5.66303">
        <ele>144.12</ele>
        <time>2017-02-25T17:03:16Z</time>
      </trkpt>
      <trkpt lat="45.23485" lon="5.66313">
        <ele>144.06</ele>
        <time>2017-02-25T17:03:17Z</time>
      </trkpt>
      <trkpt lat="45.23464" lon="5.66323">
        <ele>143.97</ele>
        <time>2017-02-25T17:03:18Z</time>
      </trkpt>
      <trkpt lat="45.23443" lon="5.66333">
        <ele>144.03</ele>
        <time>2017-02-25T17:03:19Z</time>
      </trkpt>
      <trkpt lat="45.23422" lon="5.66343">
        <ele>143.97</ele>
        <time>2017-02-25T17:03:20Z</time>
      </trkpt>
      <trkpt lat="45.23402" lon="5.66353">
        <ele>144.11</ele>
        <time>2017-02-25T17:03:21Z</time>
      </trkpt>
      <trkpt lat="45.23381" lon="5.66364">
        <ele>144.46</ele>
        <time>2017-02-25T17:03:22Z</time>
      </trkpt>
      <trkpt lat="45.23361" lon="5.66375">
        <ele>144.77</ele>
        <time>2017-02-25T17:03:23Z</time>
      </trkpt>
      <trkpt lat="45.2334" lon="5.66387">
        <ele>144.91</ele>
        <time>2017-02-25T17:03:24Z</time>
      </trkpt>
      <trkpt lat="45.23319" lon="5.664">
        <ele>144.94</ele>
        <time>2017-02-25T17:03:25Z</time>
      </trkpt>
      <trkpt lat="45.23297" lon="5.66412">
        <ele>145.19</ele>
        <time>2017-02-25T17:03:26Z</time>
      </trkpt>
      <trkpt lat="45.23274" lon="5.66425">
        <ele>145.32</ele>
        <time>2017-02-25T17:03:27Z</time>
      </trkpt>
      <trkpt lat="45.23252" lon="5.66439">
        <ele>145.42</ele>
        <time>2017-02-25T17:03:28Z</time>
      </trkpt>
      <trkpt lat="45.23229" lon="5.66452">
        <ele>145.44</ele>
        <time>2017-02-25T17:03:29Z</time>
      </trkpt>
      <trkpt lat="45.23206" lon="5.66465">
        <ele>145.37</ele>
        <time>2017-02-25T17:03:30Z</time>
      </trkpt>
      <trkpt lat="45.23183" lon="5.66478">
        <ele>145.51</ele>
        <time>2017-02-25T17:03:31Z</time>
      </trkpt>
      <trkpt lat="45.23161" lon="5.66491">
        <ele>145.78</ele>
        <time>2017-02-25T17:03:32Z</time>
      </trkpt>
      <trkpt lat="45.23139" lon="5.66505">
        <ele>146.08</ele>
        <time>2017-02-25T17:03:33Z</time>
      </trkpt>
      <trkpt lat="45.23116" lon="5.66519">
        <ele>146.05</ele>
        <time>2017-02-25T17:03:34Z</time>
      </trkpt>
      <trkpt lat="45.23094" lon="5.66534">
        <ele>145.97</ele>
        <time>2017-02-25T17:03:35Z</time>
      </trkpt>
      <trkpt lat="45.23072" lon="5.66547">
        <ele>145.95</ele>
        <time>2017-02-25T17:03:36Z</time>
      </trkpt>
      <trkpt lat="45.2305" lon="5.66561">
        <ele>145.87</ele>
        <time>2017-02-25T17:03:37Z</time>
      </trkpt>
      <trkpt lat="45.23028" lon="5.66576">
        <ele>145.77</ele>
        <time>2017-02-25T17:03:38Z</time>
      </trkpt>
      <trkpt lat="45.23006" lon="5.6659">
        <ele>145.67</ele>
        <time>2017-02-25T17:03:39Z</time>
      </trkpt>
      <trkpt lat="45.22984" lon="5.66605">
        <ele>145.33</ele>
        <time>2017-02-25T17:03:40Z</time>
      </trkpt>
      <trkpt lat="45.22962" lon="5.66619">
        <ele>145.11</ele>
        <time>2017-02-25T17:03:41Z</time>
      </trkpt>
      <trkpt lat="45.2294" lon="5.66634">
        <ele>145.06</ele>
        <time>2017-02-25T17:03:42Z</time>
      </trkpt>
      <trkpt lat="45.22918" lon="5.6665">
        <ele>144.89</ele>
        <time>2017-02-25T17:03:43Z</time>
      </trkpt>
      <trkpt lat="45.22896" lon="5.66665">
        <ele>144.78</ele>
        <time>2017-02-25T17:03:44Z</time>
      </trkpt>
      <trkpt lat="45.22873" lon="5.66681">
        <ele>144.83</ele>
        <time>2017-02-25T17:03:45Z</time>
      </trkpt>
      <trkpt lat="45.22851" lon="5.66697">
        <ele>145.25</ele>
        <time>2017-02-25T17:03:46Z</time>
      </trkpt>
      <trkpt lat="45.22828" lon="5.66714">
        <ele>145.81</ele>
        <time>2017-02-25T17:03:47Z</time>
      </trkpt>
      <trkpt lat="45.22805" lon="5.6673">
        <ele>146.24</ele>
        <time>2017-02-25T17:03:48Z</time>
      </trkpt>
      <trkpt lat="45.22783" lon="5.66747">
        <ele>146.25</ele>
        <time>2017-02-25T17:03:49Z</time>
      </trkpt>
      <trkpt lat="45.2276" lon="5.66764">
        <ele>146.57</ele>
        <time>2017-02-25T17:03:50Z</time>
      </trkpt>
      <trkpt lat="45.22738" lon="5.66782">
        <ele>146.79</ele>
        <time>2017-02-25T17:03:51Z</time>
      </trkpt>
      <trkpt lat="45.22716" lon="5.66799">
        <ele>147.24</ele>
        <time>2017-02-25T17:03:52Z</time>
      </trkpt>
      <trkpt lat="45.22694" lon="5.66816">
        <ele>147.81</ele>
        <time>2017-02-25T17:03:53Z</time>
      </trkpt>
      <trkpt lat="45.22672" lon="5.66832">
        <ele>148.08</ele>
        <time>2017-02-25T17:03:54Z</time>
      </trkpt>
      <trkpt lat="45.22652" lon="5.66847">
        <ele>148.7</ele>
        <time>2017-02-25T17:03:55Z</time>
      </trkpt>
      <trkpt lat="45.22631" lon="5.66862">
        <ele>149.22</ele>
        <time>2017-02-25T17:03:56Z</time>
      </trkpt>
      <trkpt lat="45.2261" lon="5.66878">
        <ele>149.56</ele>
        <time>2017-02-25T17:03:57Z</time>
      </trkpt>
      <trkpt lat="45.22589" lon="5.66894">
        <ele>150.19</ele>
        <time>2017-02-25T17:03:58Z</time>
      </trkpt>
      <trkpt lat="45.22568" lon="5.66911">
        <ele>150.72</ele>
        <time>2017-02-25T17:03:59Z</time>
      </trkpt>
      <trkpt lat="45.22546" lon="5.66928">
        <ele>151.3</ele>
        <time>2017-02-25T17:04:00Z</time>
      </trkpt>
      <trkpt lat="45.22524" lon="5.66945">
        <ele>151.74</ele>
        <time>2017-02-25T17:04:01Z</time>
      </trkpt>
      <trkpt lat="45.22502" lon="5.66961">
        <ele>152.15</ele>
        <time>2017-02-25T17:04:02Z</time>
      </trkpt>
      <trkpt lat="45.2248" lon="5.66977">
        <ele>152.39</ele>
        <time>2017-02-25T17:04:03Z</time>
      </trkpt>
      <trkpt lat="45.22458" lon="5.66994">
        <ele>152.6</ele>
        <time>2017-02-25T17:04:04Z</time>
      </trkpt>
      <trkpt lat="45.22435" lon="5.67011">
        <ele>152.72</ele>
        <time>2017-02-25T17:04:05Z</time>
      </trkpt>
      <trkpt lat="45.22413" lon="5.67027">
        <ele>152.82</ele>
        <time>2017-02-25T17:04:06Z</time>
      </trkpt>
      <trkpt lat="45.22391" lon="5.67044">
        <ele>152.68</ele>
        <time>2017-02-25T17:04:07Z</time>
      </trkpt>
      <trkpt lat="45.22369" lon="5.67061">
        <ele>152.34</ele>
        <time>2017-02-25T17:04:08Z</time>
      </trkpt>
      <trkpt lat="45.22347" lon="5.67078">
        <ele>151.87</ele>
        <time>2017-02-25T17:04:09Z</time>
      </trkpt>
      <trkpt lat="45.22325" lon="5.67095">
        <ele>151.45</ele>
        <time>2017-02-25T17:04:10Z</time>
      </trkpt>
      <trkpt lat="45.22303" lon="5.67111">
        <ele>151.21</ele>
        <time>2017-02-25T17:04:11Z</time>
      </trkpt>
      <trkpt lat="45.2228" lon="5.67128">
        <ele>150.6</ele>
        <time>2017-02-25T17:04:12Z</time>
      </trkpt>
      <trkpt lat="45.22257" lon="5.67144">
        <ele>150.08</ele>
        <time>2017-02-25T17:04:13Z</time>
      </trkpt>
      <trkpt lat="45.22234" lon="5.67159">
        <ele>149.66</ele>
        <time>2017-02-25T17:04:14Z</time>
      </trkpt>
      <trkpt lat="45.22211" lon="5.67175">
        <ele>149.25</ele>
        <time>2017-02-25T17:04:15Z</time>
      </trkpt>
      <trkpt lat="45.22188" lon="5.67191">
        <ele>148.69</ele>
        <time>2017-02-25T17:04:16Z</time>
      </trkpt>
      <trkpt lat="45.22165" lon="5.67206">
        <ele>148.26</ele>
        <time>2017-02-25T17:04:17Z</time>
      </trkpt>
      <trkpt lat="45.22142" lon="5.67223">
        <ele>148.01</ele>
        <time>2017-02-25T17:04:18Z</time>
      </trkpt>
      <trkpt lat="45.2212" lon="5.6724">
        <ele>148.2</ele>
        <time>2017-02-25T17:04:19Z</time>
      </trkpt>
      <trkpt lat="45.22097" lon="5.67257">
        <ele>148.4</ele>
        <time>2017-02-25T17:04:20Z</time>
      </trkpt>
      <trkpt lat="45.22075" lon="5.67275">
        <ele>148.6</ele>
        <time>2017-02-25T17:04:21Z</time>
      </trkpt>
      <trkpt lat="45.22053" lon="5.67293">
        <ele>148.72</ele>
        <time>2017-02-25T17:04:22Z</time>
      </trkpt>
      <trkpt lat="45.22032" lon="5.67312">
        <ele>148.5</ele>
        <time>2017-02-25T17:04:23Z</time>
      </trkpt>
      <trkpt lat="45.22011" lon="5.67331">
        <ele>148.22</ele>
        <time>2017-02-25T17:04:24Z</time>
      </trkpt>
      <trkpt lat="45.2199" lon="5.67351">
        <ele>148.08</ele>
        <time>2017-02-25T17:04:25Z</time>
      </trkpt>
      <trkpt lat="45.2197" lon="5.67371">
        <ele>148.06</ele>
        <time>2017-02-25T17:04:26Z</time>
      </trkpt>
      <trkpt lat="45.2195" lon="5.67391">
        <ele>147.73</ele>
        <time>2017-02-25T17:04:27Z</time>
      </trkpt>
      <trkpt lat="45.2193" lon="5.67412">
        <ele>147.59</ele>
        <time>2017-02-25T17:04:28Z</time>
      </trkpt>
      <trkpt lat="45.21911" lon="5.67434">
        <ele>147.72</ele>
        <time>2017-02-25T17:04:29Z</time>
      </trkpt>
      <trkpt lat="45.21892" lon="5.67456">
        <ele>147.82</ele>
        <time>2017-02-25T17:04:30Z</time>
      </trkpt>
      <trkpt lat="45.21874" lon="5.67479">
        <ele>147.68</ele>
        <time>2017-02-25T17:04:31Z</time>
      </trkpt>
      <trkpt lat="45.21856" lon="5.67503">
        <ele>147.58</ele>
        <time>2017-02-25T17:04:32Z</time>
      </trkpt>
      <trkpt lat="45.21838" lon="5.67526">
        <ele>147.47</ele>
        <time>2017-02-25T17:04:33Z</time>
      </trkpt>
      <trkpt lat="45.21821" lon="5.67549">
        <ele>147.53</ele>
        <time>2017-02-25T17:04:34Z</time>
      </trkpt>
      <trkpt lat="45.21804" lon="5.67574">
        <ele>148.03</ele>
        <time>2017-02-25T17:04:35Z</time>
      </trkpt>
      <trkpt lat="45.21787" lon="5.67598">
        <ele>148.12</ele>
        <time>2017-02-25T17:04:36Z</time>
      </trkpt>
      <trkpt lat="45.2177" lon="5.67622">
        <ele>148.22</ele>
        <time>2017-02-25T17:04:37Z</time>
      </trkpt>
      <trkpt lat="45.21754" lon="5.67647">
        <ele>148.64</ele>
        <time>2017-02-25T17:04:38Z</time>
      </trkpt>
      <trkpt lat="45.21737" lon="5.67672">
        <ele>149.29</ele>
        <time>2017-02-25T17:04:39Z</time>
      </trkpt>
      <trkpt lat="45.2172" lon="5.67696">
        <ele>149.74</ele>
        <time>2017-02-25T17:04:40Z</time>
      </trkpt>
      <trkpt lat="45.21703" lon="5.6772">
        <ele>150.07</ele>
        <time>2017-02-25T17:04:41Z</time>
      </trkpt>
      <trkpt lat="45.21687" lon="5.67745">
        <ele>150.45</ele>
        <time>2017-02-25T17:04:42Z</time>
      </trkpt>
      <trkpt lat="45.21671" lon="5.6777">
        <ele>150.77</ele>
        <time>2017-02-25T17:04:43Z</time>
      </trkpt>
      <trkpt lat="45.21655" lon="5.67794">
        <ele>150.59</ele>
        <time>2017-02-25T17:04:44Z</time>
      </trkpt>
      <trkpt lat="45.21639" lon="5.67818">
        <ele>150.48</ele>
        <time>2017-02-25T17:04:45Z</time>
      </trkpt>
      <trkpt lat="45.21622" lon="5.67843">
        <ele>150.53</ele>
        <time>2017-02-25T17:04:46Z</time>
      </trkpt>
      <trkpt lat="45.21606" lon="5.67867">
        <ele>150.63</ele>
        <time>2017-02-25T17:04:47Z</time>
      </trkpt>
      <trkpt lat="45.21591" lon="5.67891">
        <ele>150.56</ele>
        <time>2017-02-25T17:04:48Z</time>
      </trkpt>
      <trkpt lat="45.21575" lon="5.67916">
        <ele>150.47</ele>
        <time>2017-02-25T17:04:49Z</time>
      </trkpt>
      <trkpt lat="45.21558" lon="5.6794">
        <ele>150.37</ele>
        <time>2017-02-25T17:04:50Z</time>
      </trkpt>
      <trkpt lat="45.21542" lon="5.67965">
        <ele>150.35</ele>
        <time>2017-02-25T17:04:51Z</time>
      </trkpt>
      <trkpt lat="45.21525" lon="5.67989">
        <ele>150.11</ele>
        <time>2017-02-25T17:04:52Z</time>
      </trkpt>
      <trkpt lat="45.21509" lon="5.68014">
        <ele>149.98</ele>
        <time>2017-02-25T17:04:53Z</time>
      </trkpt>
      <trkpt lat="45.21492" lon="5.68039">
        <ele>149.88</ele>
        <time>2017-02-25T17:04:54Z</time>
      </trkpt>
      <trkpt lat="45.21476" lon="5.68064">
        <ele>149.69</ele>
        <time>2017-02-25T17:04:55Z</time>
      </trkpt>
      <trkpt lat="45.2146" lon="5.68089">
        <ele>149.5</ele>
        <time>2017-02-25T17:04:56Z</time>
      </trkpt>
      <trkpt lat="45.21444" lon="5.68115">
        <ele>149.22</ele>
        <time>2017-02-25T17:04:57Z</time>
      </trkpt>
      <trkpt lat="45.21428" lon="5.68141">
        <ele>149.08</ele>
        <time>2017-02-25T17:04:58Z</time>
      </trkpt>
      <trkpt lat="45.21413" lon="5.68168">
        <ele>149.14</ele>
        <time>2017-02-25T17:04:59Z</time>
      </trkpt>
      <trkpt lat="45.21397" lon="5.68194">
        <ele>150.11</ele>
        <time>2017-02-25T17:05:00Z</time>
      </trkpt>
      <trkpt lat="45.21382" lon="5.68221">
        <ele>150.62</ele>
        <time>2017-02-25T17:05:01Z</time>
      </trkpt>
      <trkpt lat="45.21368" lon="5.68248">
        <ele>151.2</ele>
        <time>2017-02-25T17:05:02Z</time>
      </trkpt>
      <trkpt lat="45.21354" lon="5.68276">
        <ele>151.88</ele>
        <time>2017-02-25T17:05:03Z</time>
      </trkpt>
      <trkpt lat="45.2134" lon="5.68304">
        <ele>152.34</ele>
        <time>2017-02-25T17:05:04Z</time>
      </trkpt>
      <trkpt lat="45.21328" lon="5.68332">
        <ele>152.43</ele>
        <time>2017-02-25T17:05:05Z</time>
      </trkpt>
      <trkpt lat="45.21316" lon="5.68361">
        <ele>152.28</ele>
        <time>2017-02-25T17:05:06Z</time>
      </trkpt>
      <trkpt lat="45.21304" lon="5.68389">
        <ele>152.58</ele>
        <time>2017-02-25T17:05:07Z</time>
      </trkpt>
      <trkpt lat="45.21291" lon="5.68418">
        <ele>152.63</ele>
        <time>2017-02-25T17:05:08Z</time>
      </trkpt>
      <trkpt lat="45.21279" lon="5.68446">
        <ele>152.73</ele>
        <time>2017-02-25T17:05:09Z</time>
      </trkpt>
      <trkpt lat="45.21267" lon="5.68475">
        <ele>152.66</ele>
        <time>2017-02-25T17:05:10Z</time>
      </trkpt>
      <trkpt lat="45.21255" lon="5.68505">
        <ele>152.57</ele>
        <time>2017-02-25T17:05:11Z</time>
      </trkpt>
      <trkpt lat="45.21245" lon="5.68536">
        <ele>152.39</ele>
        <time>2017-02-25T17:05:12Z</time>
      </trkpt>
      <trkpt lat="45.21236" lon="5.68566">
        <ele>152.36</ele>
        <time>2017-02-25T17:05:13Z</time>
      </trkpt>
      <trkpt lat="45.21226" lon="5.68596">
        <ele>152.51</ele>
        <time>2017-02-25T17:05:14Z</time>
      </trkpt>
      <trkpt lat="45.21218" lon="5.68627">
        <ele>152.06</ele>
        <time>2017-02-25T17:05:15Z</time>
      </trkpt>
      <trkpt lat="45.2121" lon="5.68657">
        <ele>151.81</ele>
        <time>2017-02-25T17:05:16Z</time>
      </trkpt>
      <trkpt lat="45.21201" lon="5.68687">
        <ele>151.36</ele>
        <time>2017-02-25T17:05:17Z</time>
      </trkpt>
      <trkpt lat="45.21194" lon="5.68718">
        <ele>150.87</ele>
        <time>2017-02-25T17:05:18Z</time>
      </trkpt>
      <trkpt lat="45.21186" lon="5.68749">
        <ele>150.77</ele>
        <time>2017-02-25T17:05:19Z</time>
      </trkpt>
      <trkpt lat="45.21178" lon="5.68781">
        <ele>150.91</ele>
        <time>2017-02-25T17:05:20Z</time>
      </trkpt>
      <trkpt lat="45.21171" lon="5.68812">
        <ele>150.94</ele>
        <time>2017-02-25T17:05:21Z</time>
      </trkpt>
      <trkpt lat="45.21164" lon="5.68844">
        <ele>150.87</ele>
        <time>2017-02-25T17:05:22Z</time>
      </trkpt>
      <trkpt lat="45.21158" lon="5.68876">
        <ele>150.85</ele>
        <time>2017-02-25T17:05:23Z</time>
      </trkpt>
      <trkpt lat="45.21152" lon="5.68907">
        <ele>150.61</ele>
        <time>2017-02-25T17:05:24Z</time>
      </trkpt>
      <trkpt lat="45.21147" lon="5.6894">
        <ele>150.48</ele>
        <time>2017-02-25T17:05:25Z</time>
      </trkpt>
      <trkpt lat="45.21142" lon="5.68972">
        <ele>150.46</ele>
        <time>2017-02-25T17:05:26Z</time>
      </trkpt>
      <trkpt lat="45.21137" lon="5.69005">
        <ele>150.53</ele>
        <time>2017-02-25T17:05:27Z</time>
      </trkpt>
      <trkpt lat="45.21132" lon="5.69037">
        <ele>150.55</ele>
        <time>2017-02-25T17:05:28Z</time>
      </trkpt>
      <trkpt lat="45.21127" lon="5.69069">
        <ele>150.39</ele>
        <time>2017-02-25T17:05:29Z</time>
      </trkpt>
      <trkpt lat="45.21122" lon="5.69101">
        <ele>150.2</ele>
        <time>2017-02-25T17:05:30Z</time>
      </trkpt>
      <trkpt lat="45.21117" lon="5.69134">
        <ele>150.48</ele>
        <time>2017-02-25T17:05:31Z</time>
      </trkpt>
      <trkpt lat="45.21113" lon="5.69166">
        <ele>150.77</ele>
        <time>2017-02-25T17:05:32Z</time>
      </trkpt>
      <trkpt lat="45.21108" lon="5.69198">
        <ele>151.23</ele>
        <time>2017-02-25T17:05:33Z</time>
      </trkpt>
      <trkpt lat="45.21104" lon="5.6923">
        <ele>151.57</ele>
        <time>2017-02-25T17:05:34Z</time>
      </trkpt>
      <trkpt lat="45.21099" lon="5.69262">
        <ele>152.11</ele>
        <time>2017-02-25T17:05:35Z</time>
      </trkpt>
      <trkpt lat="45.21095" lon="5.69294">
        <ele>152.7</ele>
        <time>2017-02-25T17:05:36Z</time>
      </trkpt>
      <trkpt lat="45.21091" lon="5.69326">
        <ele>153.22</ele>
        <time>2017-02-25T17:05:37Z</time>
      </trkpt>
      <trkpt lat="45.21086" lon="5.69358">
        <ele>153.56</ele>
        <time>2017-02-25T17:05:38Z</time>
      </trkpt>
      <trkpt lat="45.21081" lon="5.6939">
        <ele>153.39</ele>
        <time>2017-02-25T17:05:39Z</time>
      </trkpt>
      <trkpt lat="45.21076" lon="5.69422">
        <ele>153.6</ele>
        <time>2017-02-25T17:05:40Z</time>
      </trkpt>
      <trkpt lat="45.2107" lon="5.69454">
        <ele>153.8</ele>
        <time>2017-02-25T17:05:41Z</time>
      </trkpt>
      <trkpt lat="45.21065" lon="5.69487">
        <ele>154.64</ele>
        <time>2017-02-25T17:05:42Z</time>
      </trkpt>
      <trkpt lat="45.21059" lon="5.69519">
        <ele>154.73</ele>
        <time>2017-02-25T17:05:43Z</time>
      </trkpt>
      <trkpt lat="45.21053" lon="5.69551">
        <ele>154.9</ele>
        <time>2017-02-25T17:05:44Z</time>
      </trkpt>
      <trkpt lat="45.21047" lon="5.69583">
        <ele>155.1</ele>
        <time>2017-02-25T17:05:45Z</time>
      </trkpt>
      <trkpt lat="45.21041" lon="5.69615">
        <ele>155.46</ele>
        <time>2017-02-25T17:05:46Z</time>
      </trkpt>
      <trkpt lat="45.21034" lon="5.69646">
        <ele>156.09</ele>
        <time>2017-02-25T17:05:47Z</time>
      </trkpt>
      <trkpt lat="45.21026" lon="5.69678">
        <ele>156.78</ele>
        <time>2017-02-25T17:05:48Z</time>
      </trkpt>
      <trkpt lat="45.21019" lon="5.69709">
        <ele>157.31</ele>
        <time>2017-02-25T17:05:49Z</time>
      </trkpt>
      <trkpt lat="45.21011" lon="5.6974">
        <ele>157.82</ele>
        <time>2017-02-25T17:05:50Z</time>
      </trkpt>
      <trkpt lat="45.21002" lon="5.6977">
        <ele>158.16</ele>
        <time>2017-02-25T17:05:51Z</time>
      </trkpt>
      <trkpt lat="45.20994" lon="5.69801">
        <ele>158.31</ele>
        <time>2017-02-25T17:05:52Z</time>
      </trkpt>
      <trkpt lat="45.20986" lon="5.69831">
        <ele>158.74</ele>
        <time>2017-02-25T17:05:53Z</time>
      </trkpt>
      <trkpt lat="45.20977" lon="5.69862">
        <ele>159.47</ele>
        <time>2017-02-25T17:05:54Z</time>
      </trkpt>
      <trkpt lat="45.20967" lon="5.69892">
        <ele>159.77</ele>
        <time>2017-02-25T17:05:55Z</time>
      </trkpt>
      <trkpt lat="45.20958" lon="5.69922">
        <ele>160.23</ele>
        <time>2017-02-25T17:05:56Z</time>
      </trkpt>
      <trkpt lat="45.20949" lon="5.69951">
        <ele>160.65</ele>
        <time>2017-02-25T17:05:57Z</time>
      </trkpt>
      <trkpt lat="45.20939" lon="5.6998">
        <ele>161.13</ele>
        <time>2017-02-25T17:05:58Z</time>
      </trkpt>
      <trkpt lat="45.20928" lon="5.70009">
        <ele>161.54</ele>
        <time>2017-02-25T17:05:59Z</time>
      </trkpt>
      <trkpt lat="45.20918" lon="5.70038">
        <ele>162.11</ele>
        <time>2017-02-25T17:06:00Z</time>
      </trkpt>
      <trkpt lat="45.20908" lon="5.70067">
        <ele>162.62</ele>
        <time>2017-02-25T17:06:01Z</time>
      </trkpt>
      <trkpt lat="45.20897" lon="5.70096">
        <ele>163.04</ele>
        <time>2017-02-25T17:06:02Z</time>
      </trkpt>
      <trkpt lat="45.20887" lon="5.70124">
        <ele>163.45</ele>
        <time>2017-02-25T17:06:03Z</time>
      </trkpt>
      <trkpt lat="45.20876" lon="5.70152">
        <ele>163.93</ele>
        <time>2017-02-25T17:06:04Z</time>
      </trkpt>
      <trkpt lat="45.20865" lon="5.70181">
        <ele>164.34</ele>
        <time>2017-02-25T17:06:05Z</time>
      </trkpt>
      <trkpt lat="45.20853" lon="5.70208">
        <ele>165.07</ele>
        <time>2017-02-25T17:06:06Z</time>
      </trkpt>
      <trkpt lat="45.20842" lon="5.70236">
        <ele>165.69</ele>
        <time>2017-02-25T17:06:07Z</time>
      </trkpt>
      <trkpt lat="45.2083" lon="5.70264">
        <ele>166.38</ele>
        <time>2017-02-25T17:06:08Z</time>
      </trkpt>
      <trkpt lat="45.20818" lon="5.70292">
        <ele>166.99</ele>
        <time>2017-02-25T17:06:09Z</time>
      </trkpt>
      <trkpt lat="45.20806" lon="5.7032">
        <ele>167.76</ele>
        <time>2017-02-25T17:06:10Z</time>
      </trkpt>
      <trkpt lat="45.20794" lon="5.70348">
        <ele>168.39</ele>
        <time>2017-02-25T17:06:11Z</time>
      </trkpt>
      <trkpt lat="45.20781" lon="5.70377">
        <ele>168.76</ele>
        <time>2017-02-25T17:06:12Z</time>
      </trkpt>
      <trkpt lat="45.20769" lon="5.70405">
        <ele>169.23</ele>
        <time>2017-02-25T17:06:13Z</time>
      </trkpt>
      <trkpt lat="45.20757" lon="5.70434">
        <ele>169.33</ele>
        <time>2017-02-25T17:06:14Z</time>
      </trkpt>
      <trkpt lat="45.20745" lon="5.70463">
        <ele>169.42</ele>
        <time>2017-02-25T17:06:15Z</time>
      </trkpt>
      <trkpt lat="45.20733" lon="5.70493">
        <ele>169.76</ele>
        <time>2017-02-25T17:06:16Z</time>
      </trkpt>
      <trkpt lat="45.20721" lon="5.70522">
        <ele>170.07</ele>
        <time>2017-02-25T17:06:17Z</time>
      </trkpt>
      <trkpt lat="45.20709" lon="5.70551">
        <ele>170.29</ele>
        <time>2017-02-25T17:06:18Z</time>
      </trkpt>
      <trkpt lat="45.20697" lon="5.70581">
        <ele>170.42</ele>
        <time>2017-02-25T17:06:19Z</time>
      </trkpt>
      <trkpt lat="45.20685" lon="5.7061">
        <ele>170.6</ele>
        <time>2017-02-25T17:06:20Z</time>
      </trkpt>
      <trkpt lat="45.20673" lon="5.7064">
        <ele>170.56</ele>
        <time>2017-02-25T17:06:21Z</time>
      </trkpt>
      <trkpt lat="45.2066" lon="5.70669">
        <ele>170.79</ele>
        <time>2017-02-25T17:06:22Z</time>
      </trkpt>
      <trkpt lat="45.20649" lon="5.70698">
        <ele>170.68</ele>
        <time>2017-02-25T17:06:23Z</time>
      </trkpt>
      <trkpt lat="45.20637" lon="5.70727">
        <ele>170.65</ele>
        <time>2017-02-25T17:06:24Z</time>
      </trkpt>
      <trkpt lat="45.20626" lon="5.70756">
        <ele>170.41</ele>
        <time>2017-02-25T17:06:25Z</time>
      </trkpt>
      <trkpt lat="45.20616" lon="5.70784">
        <ele>170.04</ele>
        <time>2017-02-25T17:06:26Z</time>
      </trkpt>
      <trkpt lat="45.20605" lon="5.70811">
        <ele>169.81</ele>
        <time>2017-02-25T17:06:27Z</time>
      </trkpt>
      <trkpt lat="45.20596" lon="5.70836">
        <ele>169.6</ele>
        <time>2017-02-25T17:06:28Z</time>
      </trkpt>
      <trkpt lat="45.20587" lon="5.70862">
        <ele>169.16</ele>
        <time>2017-02-25T17:06:29Z</time>
      </trkpt>
      <trkpt lat="45.20578" lon="5.70887">
        <ele>168.83</ele>
        <time>2017-02-25T17:06:30Z</time>
      </trkpt>
      <trkpt lat="45.2057" lon="5.70911">
        <ele>168.29</ele>
        <time>2017-02-25T17:06:31Z</time>
      </trkpt>
      <trkpt lat="45.20562" lon="5.70936">
        <ele>167.54</ele>
        <time>2017-02-25T17:06:32Z</time>
      </trkpt>
      <trkpt lat="45.20554" lon="5.7096">
        <ele>166.43</ele>
        <time>2017-02-25T17:06:33Z</time>
      </trkpt>
      <trkpt lat="45.20546" lon="5.70985">
        <ele>165.24</ele>
        <time>2017-02-25T17:06:34Z</time>
      </trkpt>
      <trkpt lat="45.20537" lon="5.71008">
        <ele>164.05</ele>
        <time>2017-02-25T17:06:35Z</time>
      </trkpt>
      <trkpt lat="45.20529" lon="5.71032">
        <ele>162.93</ele>
        <time>2017-02-25T17:06:36Z</time>
      </trkpt>
      <trkpt lat="45.2052" lon="5.71056">
        <ele>161.82</ele>
        <time>2017-02-25T17:06:37Z</time>
      </trkpt>
      <trkpt lat="45.2051" lon="5.7108">
        <ele>160.96</ele>
        <time>2017-02-25T17:06:38Z</time>
      </trkpt>
      <trkpt lat="45.205" lon="5.71103">
        <ele>160.31</ele>
        <time>2017-02-25T17:06:39Z</time>
      </trkpt>
      <trkpt lat="45.20489" lon="5.71125">
        <ele>159.38</ele>
        <time>2017-02-25T17:06:40Z</time>
      </trkpt>
      <trkpt lat="45.20478" lon="5.71147">
        <ele>158.32</ele>
        <time>2017-02-25T17:06:41Z</time>
      </trkpt>
      <trkpt lat="45.20465" lon="5.71168">
        <ele>157.38</ele>
        <time>2017-02-25T17:06:42Z</time>
      </trkpt>
      <trkpt lat="45.20452" lon="5.71187">
        <ele>156.64</ele>
        <time>2017-02-25T17:06:43Z</time>
      </trkpt>
      <trkpt lat="45.20439" lon="5.71207">
        <ele>156.33</ele>
        <time>2017-02-25T17:06:44Z</time>
      </trkpt>
      <trkpt lat="45.20425" lon="5.71225">
        <ele>156.02</ele>
        <time>2017-02-25T17:06:45Z</time>
      </trkpt>
      <trkpt lat="45.20411" lon="5.71244">
        <ele>155.64</ele>
        <time>2017-02-25T17:06:46Z</time>
      </trkpt>
      <trkpt lat="45.20398" lon="5.71262">
        <ele>154.77</ele>
        <time>2017-02-25T17:06:47Z</time>
      </trkpt>
      <trkpt lat="45.20384" lon="5.71281">
        <ele>154.03</ele>
        <time>2017-02-25T17:06:48Z</time>
      </trkpt>
      <trkpt lat="45.2037" lon="5.71299">
        <ele>153.57</ele>
        <time>2017-02-25T17:06:49Z</time>
      </trkpt>
      <trkpt lat="45.20356" lon="5.71317">
        <ele>152.83</ele>
        <time>2017-02-25T17:06:50Z</time>
      </trkpt>
      <trkpt lat="45.20343" lon="5.71334">
        <ele>152.29</ele>
        <time>2017-02-25T17:06:51Z</time>
      </trkpt>
      <trkpt lat="45.20329" lon="5.71352">
        <ele>151.78</ele>
        <time>2017-02-25T17:06:52Z</time>
      </trkpt>
      <trkpt lat="45.20316" lon="5.71369">
        <ele>151.27</ele>
        <time>2017-02-25T17:06:53Z</time>
      </trkpt>
      <trkpt lat="45.20303" lon="5.71386">
        <ele>150.61</ele>
        <time>2017-02-25T17:06:54Z</time>
      </trkpt>
      <trkpt lat="45.2029" lon="5.71403">
        <ele>150.16</ele>
        <time>2017-02-25T17:06:55Z</time>
      </trkpt>
      <trkpt lat="45.20277" lon="5.71421">
        <ele>149.67</ele>
        <time>2017-02-25T17:06:56Z</time>
      </trkpt>
      <trkpt lat="45.20263" lon="5.71439">
        <ele>149.25</ele>
        <time>2017-02-25T17:06:57Z</time>
      </trkpt>
      <trkpt lat="45.2025" lon="5.71457">
        <ele>148.53</ele>
        <time>2017-02-25T17:06:58Z</time>
      </trkpt>
      <trkpt lat="45.20236" lon="5.71475">
        <ele>148.39</ele>
        <time>2017-02-25T17:06:59Z</time>
      </trkpt>
      <trkpt lat="45.20222" lon="5.71493">
        <ele>147.88</ele>
        <time>2017-02-25T17:07:00Z</time>
      </trkpt>
      <trkpt lat="45.20208" lon="5.7151">
        <ele>147.37</ele>
        <time>2017-02-25T17:07:01Z</time>
      </trkpt>
      <trkpt lat="45.20194" lon="5.71526">
        <ele>146.71</ele>
        <time>2017-02-25T17:07:02Z</time>
      </trkpt>
      <trkpt lat="45.20179" lon="5.71543">
        <ele>146.42</ele>
        <time>2017-02-25T17:07:03Z</time>
      </trkpt>
      <trkpt lat="45.20164" lon="5.71558">
        <ele>146.6</ele>
        <time>2017-02-25T17:07:04Z</time>
      </trkpt>
      <trkpt lat="45.20149" lon="5.71573">
        <ele>146.64</ele>
        <time>2017-02-25T17:07:05Z</time>
      </trkpt>
      <trkpt lat="45.20133" lon="5.71587">
        <ele>146.41</ele>
        <time>2017-02-25T17:07:06Z</time>
      </trkpt>
      <trkpt lat="45.20117" lon="5.716">
        <ele>146.36</ele>
        <time>2017-02-25T17:07:07Z</time>
      </trkpt>
      <trkpt lat="45.201" lon="5.71612">
        <ele>146.35</ele>
        <time>2017-02-25T17:07:08Z</time>
      </trkpt>
      <trkpt lat="45.20082" lon="5.71622">
        <ele>146.91</ele>
        <time>2017-02-25T17:07:09Z</time>
      </trkpt>
      <trkpt lat="45.20064" lon="5.71631">
        <ele>147.5</ele>
        <time>2017-02-25T17:07:10Z</time>
      </trkpt>
      <trkpt lat="45.20046" lon="5.71638">
        <ele>147.94</ele>
        <time>2017-02-25T17:07:11Z</time>
      </trkpt>
      <trkpt lat="45.20028" lon="5.71643">
        <ele>147.95</ele>
        <time>2017-02-25T17:07:12Z</time>
      </trkpt>
      <trkpt lat="45.20009" lon="5.71647">
        <ele>148.19</ele>
        <time>2017-02-25T17:07:13Z</time>
      </trkpt>
      <trkpt lat="45.1999" lon="5.7165">
        <ele>148.8</ele>
        <time>2017-02-25T17:07:14Z</time>
      </trkpt>
      <trkpt lat="45.19971" lon="5.71652">
        <ele>149.24</ele>
        <time>2017-02-25T17:07:15Z</time>
      </trkpt>
      <trkpt lat="45.19952" lon="5.71652">
        <ele>149.57</ele>
        <time>2017-02-25T17:07:16Z</time>
      </trkpt>
      <trkpt lat="45.19933" lon="5.71651">
        <ele>149.87</ele>
        <time>2017-02-25T17:07:17Z</time>
      </trkpt>
      <trkpt lat="45.19914" lon="5.71648">
        <ele>149.93</ele>
        <time>2017-02-25T17:07:18Z</time>
      </trkpt>
      <trkpt lat="45.19895" lon="5.71645">
        <ele>150.11</ele>
        <time>2017-02-25T17:07:19Z</time>
      </trkpt>
      <trkpt lat="45.19876" lon="5.7164">
        <ele>149.82</ele>
        <time>2017-02-25T17:07:20Z</time>
      </trkpt>
      <trkpt lat="45.19857" lon="5.71634">
        <ele>149.2</ele>
        <time>2017-02-25T17:07:21Z</time>
      </trkpt>
      <trkpt lat="45.19838" lon="5.71628">
        <ele>148.84</ele>
        <time>2017-02-25T17:07:22Z</time>
      </trkpt>
      <trkpt lat="45.19819" lon="5.71621">
        <ele>149.01</ele>
        <time>2017-02-25T17:07:23Z</time>
      </trkpt>
      <trkpt lat="45.198" lon="5.71615">
        <ele>148.72</ele>
        <time>2017-02-25T17:07:24Z</time>
      </trkpt>
      <trkpt lat="45.19782" lon="5.71609">
        <ele>148.5</ele>
        <time>2017-02-25T17:07:25Z</time>
      </trkpt>
      <trkpt lat="45.19763" lon="5.71604">
        <ele>148.14</ele>
        <time>2017-02-25T17:07:26Z</time>
      </trkpt>
      <trkpt lat="45.19744" lon="5.71599">
        <ele>147.83</ele>
        <time>2017-02-25T17:07:27Z</time>
      </trkpt>
      <trkpt lat="45.19725" lon="5.71595">
        <ele>147.52</ele>
        <time>2017-02-25T17:07:28Z</time>
      </trkpt>
      <trkpt lat="45.19706" lon="5.71591">
        <ele>147.78</ele>
        <time>2017-02-25T17:07:29Z</time>
      </trkpt>
      <trkpt lat="45.19686" lon="5.71589">
        <ele>148</ele>
        <time>2017-02-25T17:07:30Z</time>
      </trkpt>
      <trkpt lat="45.19667" lon="5.71589">
        <ele>148.04</ele>
        <time>2017-02-25T17:07:31Z</time>
      </trkpt>
      <trkpt lat="45.19647" lon="5.7159">
        <ele>148.05</ele>
        <time>2017-02-25T17:07:32Z</time>
      </trkpt>
      <trkpt lat="45.19627" lon="5.71593">
        <ele>148.13</ele>
        <time>2017-02-25T17:07:33Z</time>
      </trkpt>
      <trkpt lat="45.19608" lon="5.71598">
        <ele>148.3</ele>
        <time>2017-02-25T17:07:34Z</time>
      </trkpt>
      <trkpt lat="45.19589" lon="5.71605">
        <ele>148.1</ele>
        <time>2017-02-25T17:07:35Z</time>
      </trkpt>
      <trkpt lat="45.1957" lon="5.71613">
        <ele>147.98</ele>
        <time>2017-02-25T17:07:36Z</time>
      </trkpt>
      <trkpt lat="45.19552" lon="5.71622">
        <ele>148.04</ele>
        <time>2017-02-25T17:07:37Z</time>
      </trkpt>
      <trkpt lat="45.19534" lon="5.71632">
        <ele>147.73</ele>
        <time>2017-02-25T17:07:38Z</time>
      </trkpt>
      <trkpt lat="45.19517" lon="5.71643">
        <ele>147.58</ele>
        <time>2017-02-25T17:07:39Z</time>
      </trkpt>
      <trkpt lat="45.195" lon="5.71654">
        <ele>147.64</ele>
        <time>2017-02-25T17:07:40Z</time>
      </trkpt>
      <trkpt lat="45.19485" lon="5.71665">
        <ele>148.21</ele>
        <time>2017-02-25T17:07:41Z</time>
      </trkpt>
      <trkpt lat="45.19471" lon="5.71676">
        <ele>148</ele>
        <time>2017-02-25T17:07:42Z</time>
      </trkpt>
      <trkpt lat="45.19457" lon="5.71689">
        <ele>147.88</ele>
        <time>2017-02-25T17:07:43Z</time>
      </trkpt>
      <trkpt lat="45.19444" lon="5.71701">
        <ele>148.02</ele>
        <time>2017-02-25T17:07:44Z</time>
      </trkpt>
      <trkpt lat="45.19432" lon="5.71714">
        <ele>148.12</ele>
        <time>2017-02-25T17:07:45Z</time>
      </trkpt>
      <trkpt lat="45.19421" lon="5.71728">
        <ele>148.38</ele>
        <time>2017-02-25T17:07:46Z</time>
      </trkpt>
      <trkpt lat="45.19411" lon="5.71742">
        <ele>148.52</ele>
        <time>2017-02-25T17:07:47Z</time>
      </trkpt>
      <trkpt lat="45.19403" lon="5.71756">
        <ele>148.78</ele>
        <time>2017-02-25T17:07:48Z</time>
      </trkpt>
      <trkpt lat="45.19395" lon="5.7177">
        <ele>149.56</ele>
        <time>2017-02-25T17:07:49Z</time>
      </trkpt>
      <trkpt lat="45.19388" lon="5.71784">
        <ele>150.03</ele>
        <time>2017-02-25T17:07:50Z</time>
      </trkpt>
      <trkpt lat="45.19383" lon="5.71799">
        <ele>150.53</ele>
        <time>2017-02-25T17:07:51Z</time>
      </trkpt>
      <trkpt lat="45.19378" lon="5.71812">
        <ele>150.62</ele>
        <time>2017-02-25T17:07:52Z</time>
      </trkpt>
      <trkpt lat="45.19374" lon="5.71826">
        <ele>150.48</ele>
        <time>2017-02-25T17:07:53Z</time>
      </trkpt>
      <trkpt lat="45.19371" lon="5.71839">
        <ele>150.7</ele>
        <time>2017-02-25T17:07:54Z</time>
      </trkpt>
      <trkpt lat="45.19368" lon="5.71852">
        <ele>150.9</ele>
        <time>2017-02-25T17:07:55Z</time>
      </trkpt>
      <trkpt lat="45.19365" lon="5.71865">
        <ele>151.18</ele>
        <time>2017-02-25T17:07:56Z</time>
      </trkpt>
      <trkpt lat="45.19362" lon="5.71875">
        <ele>151.87</ele>
        <time>2017-02-25T17:07:57Z</time>
      </trkpt>
      <trkpt lat="45.1936" lon="5.71885">
        <ele>152.57</ele>
        <time>2017-02-25T17:07:58Z</time>
      </trkpt>
      <trkpt lat="45.19359" lon="5.71893">
        <ele>153.43</ele>
        <time>2017-02-25T17:07:59Z</time>
      </trkpt>
      <trkpt lat="45.1936" lon="5.71901">
        <ele>153.29</ele>
        <time>2017-02-25T17:08:00Z</time>
      </trkpt>
      <trkpt lat="45.19361" lon="5.71907">
        <ele>153.26</ele>
        <time>2017-02-25T17:08:01Z</time>
      </trkpt>
      <trkpt lat="45.19364" lon="5.7191">
        <ele>153.17</ele>
        <time>2017-02-25T17:08:02Z</time>
      </trkpt>
      <trkpt lat="45.19368" lon="5.71912">
        <ele>153.07</ele>
        <time>2017-02-25T17:08:03Z</time>
      </trkpt>
      <trkpt lat="45.19372" lon="5.71914">
        <ele>152.89</ele>
        <time>2017-02-25T17:08:04Z</time>
      </trkpt>
      <trkpt lat="45.19376" lon="5.71916">
        <ele>152.7</ele>
        <time>2017-02-25T17:08:05Z</time>
      </trkpt>
      <trkpt lat="45.19378" lon="5.71916">
        <ele>152.5</ele>
        <time>2017-02-25T17:08:06Z</time>
      </trkpt>
      <trkpt lat="45.1938" lon="5.71917">
        <ele>152.06</ele>
        <time>2017-02-25T17:08:07Z</time>
      </trkpt>
      <trkpt lat="45.1938" lon="5.71917">
        <ele>151.73</ele>
        <time>2017-02-25T17:08:08Z</time>
      </trkpt>
      <trkpt lat="45.19381" lon="5.71917">
        <ele>151.75</ele>
        <time>2017-02-25T17:08:09Z</time>
      </trkpt>
      <trkpt lat="45.19381" lon="5.71917">
        <ele>151.75</ele>
        <time>2017-02-25T17:08:10Z</time>
      </trkpt>
      <trkpt lat="45.19381" lon="5.71917">
        <ele>151.75</ele>
        <time>2017-02-25T17:08:11Z</time>
      </trkpt>
      <trkpt lat="45.19381" lon="5.71917">
        <ele>151.75</ele>
        <time>2017-02-25T17:08:12Z</time>
      </trkpt>
      <trkpt lat="45.19386" lon="5.71918">
        <ele>152.55</ele>
        <time>2017-02-25T17:08:13Z</time>
      </trkpt>
      <trkpt lat="45.19391" lon="5.71919">
        <ele>152.79</ele>
        <time>2017-02-25T17:08:14Z</time>
      </trkpt>
      <trkpt lat="45.19397" lon="5.7192">
        <ele>152.92</ele>
        <time>2017-02-25T17:08:15Z</time>
      </trkpt>
      <trkpt lat="45.19404" lon="5.7192">
        <ele>153.02</ele>
        <time>2017-02-25T17:08:16Z</time>
      </trkpt>
      <trkpt lat="45.19412" lon="5.71921">
        <ele>152.96</ele>
        <time>2017-02-25T17:08:17Z</time>
      </trkpt>
      <trkpt lat="45.19421" lon="5.71922">
        <ele>153.11</ele>
        <time>2017-02-25T17:08:18Z</time>
      </trkpt>
      <trkpt lat="45.1943" lon="5.71922">
        <ele>153.14</ele>
        <time>2017-02-25T17:08:19Z</time>
      </trkpt>
      <trkpt lat="45.19439" lon="5.71923">
        <ele>153.23</ele>
        <time>2017-02-25T17:08:20Z</time>
      </trkpt>
      <trkpt lat="45.19449" lon="5.71922">
        <ele>153.24</ele>
        <time>2017-02-25T17:08:21Z</time>
      </trkpt>
      <trkpt lat="45.19458" lon="5.71922">
        <ele>153.33</ele>
        <time>2017-02-25T17:08:22Z</time>
      </trkpt>
      <trkpt lat="45.19467" lon="5.71921">
        <ele>153.26</ele>
        <time>2017-02-25T17:08:23Z</time>
      </trkpt>
      <trkpt lat="45.19476" lon="5.71921">
        <ele>153.33</ele>
        <time>2017-02-25T17:08:24Z</time>
      </trkpt>
      <trkpt lat="45.19484" lon="5.7192">
        <ele>153.35</ele>
        <time>2017-02-25T17:08:25Z</time>
      </trkpt>
      <trkpt lat="45.19493" lon="5.71919">
        <ele>153.35</ele>
        <time>2017-02-25T17:08:26Z</time>
      </trkpt>
      <trkpt lat="45.195" lon="5.71918">
        <ele>153.43</ele>
        <time>2017-02-25T17:08:27Z</time>
      </trkpt>
      <trkpt lat="45.19508" lon="5.71918">
        <ele>153.52</ele>
        <time>2017-02-25T17:08:28Z</time>
      </trkpt>
      <trkpt lat="45.19515" lon="5.71917">
        <ele>153.54</ele>
        <time>2017-02-25T17:08:29Z</time>
      </trkpt>
      <trkpt lat="45.19522" lon="5.71917">
        <ele>153.55</ele>
        <time>2017-02-25T17:08:30Z</time>
      </trkpt>
      <trkpt lat="45.19528" lon="5.71917">
        <ele>153.63</ele>
        <time>2017-02-25T17:08:31Z</time>
      </trkpt>
      <trkpt lat="45.19534" lon="5.71916">
        <ele>153.64</ele>
        <time>2017-02-25T17:08:32Z</time>
      </trkpt>
      <trkpt lat="45.19539" lon="5.71916">
        <ele>153.65</ele>
        <time>2017-02-25T17:08:33Z</time>
      </trkpt>
      <trkpt lat="45.19545" lon="5.71915">
        <ele>153.65</ele>
        <time>2017-02-25T17:08:34Z</time>
      </trkpt>
      <trkpt lat="45.19553" lon="5.71913">
        <ele>153.65</ele>
        <time>2017-02-25T17:08:35Z</time>
      </trkpt>
      <trkpt lat="45.19565" lon="5.71912">
        <ele>153.73</ele>
        <time>2017-02-25T17:08:36Z</time>
      </trkpt>
      <trkpt lat="45.19578" lon="5.71909">
        <ele>153.66</ele>
        <time>2017-02-25T17:08:37Z</time>
      </trkpt>
      <trkpt lat="45.19591" lon="5.71905">
        <ele>153.57</ele>
        <time>2017-02-25T17:08:38Z</time>
      </trkpt>
      <trkpt lat="45.19603" lon="5.71902">
        <ele>153.47</ele>
        <time>2017-02-25T17:08:39Z</time>
      </trkpt>
      <trkpt lat="45.19614" lon="5.71898">
        <ele>153.53</ele>
        <time>2017-02-25T17:08:40Z</time>
      </trkpt>
      <trkpt lat="45.19625" lon="5.71894">
        <ele>153.47</ele>
        <time>2017-02-25T17:08:41Z</time>
      </trkpt>
      <trkpt lat="45.19635" lon="5.71891">
        <ele>153.45</ele>
        <time>2017-02-25T17:08:42Z</time>
      </trkpt>
      <trkpt lat="45.19646" lon="5.71887">
        <ele>153.45</ele>
        <time>2017-02-25T17:08:43Z</time>
      </trkpt>
      <trkpt lat="45.19657" lon="5.71883">
        <ele>153.45</ele>
        <time>2017-02-25T17:08:44Z</time>
      </trkpt>
      <trkpt lat="45.19668" lon="5.7188">
        <ele>153.37</ele>
        <time>2017-02-25T17:08:45Z</time>
      </trkpt>
      <trkpt lat="45.1968" lon="5.71875">
        <ele>153.35</ele>
        <time>2017-02-25T17:08:46Z</time>
      </trkpt>
      <trkpt lat="45.19692" lon="5.71872">
        <ele>153.35</ele>
        <time>2017-02-25T17:08:47Z</time>
      </trkpt>
      <trkpt lat="45.19704" lon="5.71869">
        <ele>153.35</ele>
        <time>2017-02-25T17:08:48Z</time>
      </trkpt>
      <trkpt lat="45.19716" lon="5.71865">
        <ele>153.27</ele>
        <time>2017-02-25T17:08:49Z</time>
      </trkpt>
      <trkpt lat="45.19729" lon="5.71863">
        <ele>153.09</ele>
        <time>2017-02-25T17:08:50Z</time>
      </trkpt>
      <trkpt lat="45.19743" lon="5.71861">
        <ele>152.74</ele>
        <time>2017-02-25T17:08:51Z</time>
      </trkpt>
      <trkpt lat="45.19756" lon="5.71857">
        <ele>152.67</ele>
        <time>2017-02-25T17:08:52Z</time>
      </trkpt>
      <trkpt lat="45.19769" lon="5.71854">
        <ele>152.65</ele>
        <time>2017-02-25T17:08:53Z</time>
      </trkpt>
      <trkpt lat="45.19781" lon="5.7185">
        <ele>152.65</ele>
        <time>2017-02-25T17:08:54Z</time>
      </trkpt>
      <trkpt lat="45.19794" lon="5.71846">
        <ele>152.57</ele>
        <time>2017-02-25T17:08:55Z</time>
      </trkpt>
      <trkpt lat="45.19806" lon="5.71842">
        <ele>152.47</ele>
        <time>2017-02-25T17:08:56Z</time>
      </trkpt>
      <trkpt lat="45.19819" lon="5.71838">
        <ele>152.45</ele>
        <time>2017-02-25T17:08:57Z</time>
      </trkpt>
      <trkpt lat="45.19832" lon="5.71835">
        <ele>152.53</ele>
        <time>2017-02-25T17:08:58Z</time>
      </trkpt>
      <trkpt lat="45.19845" lon="5.71831">
        <ele>152.55</ele>
        <time>2017-02-25T17:08:59Z</time>
      </trkpt>
      <trkpt lat="45.19858" lon="5.71826">
        <ele>152.55</ele>
        <time>2017-02-25T17:09:00Z</time>
      </trkpt>
      <trkpt lat="45.19871" lon="5.71822">
        <ele>152.55</ele>
        <time>2017-02-25T17:09:01Z</time>
      </trkpt>
      <trkpt lat="45.19884" lon="5.71818">
        <ele>152.71</ele>
        <time>2017-02-25T17:09:02Z</time>
      </trkpt>
      <trkpt lat="45.19898" lon="5.71815">
        <ele>152.74</ele>
        <time>2017-02-25T17:09:03Z</time>
      </trkpt>
      <trkpt lat="45.19911" lon="5.71811">
        <ele>152.83</ele>
        <time>2017-02-25T17:09:04Z</time>
      </trkpt>
      <trkpt lat="45.19925" lon="5.71807">
        <ele>152.92</ele>
        <time>2017-02-25T17:09:05Z</time>
      </trkpt>
      <trkpt lat="45.19938" lon="5.71803">
        <ele>153.02</ele>
        <time>2017-02-25T17:09:06Z</time>
      </trkpt>
      <trkpt lat="45.19951" lon="5.71799">
        <ele>153.12</ele>
        <time>2017-02-25T17:09:07Z</time>
      </trkpt>
      <trkpt lat="45.19965" lon="5.71795">
        <ele>153.22</ele>
        <time>2017-02-25T17:09:08Z</time>
      </trkpt>
      <trkpt lat="45.19978" lon="5.71792">
        <ele>153.16</ele>
        <time>2017-02-25T17:09:09Z</time>
      </trkpt>
      <trkpt lat="45.19991" lon="5.71789">
        <ele>153.07</ele>
        <time>2017-02-25T17:09:10Z</time>
      </trkpt>
      <trkpt lat="45.20003" lon="5.71787">
        <ele>152.81</ele>
        <time>2017-02-25T17:09:11Z</time>
      </trkpt>
      <trkpt lat="45.20016" lon="5.71785">
        <ele>152.68</ele>
        <time>2017-02-25T17:09:12Z</time>
      </trkpt>
      <trkpt lat="45.2003" lon="5.71784">
        <ele>152.74</ele>
        <time>2017-02-25T17:09:13Z</time>
      </trkpt>
      <trkpt lat="45.20042" lon="5.71782">
        <ele>152.83</ele>
        <time>2017-02-25T17:09:14Z</time>
      </trkpt>
      <trkpt lat="45.20055" lon="5.7178">
        <ele>152.92</ele>
        <time>2017-02-25T17:09:15Z</time>
      </trkpt>
      <trkpt lat="45.20067" lon="5.71775">
        <ele>153.18</ele>
        <time>2017-02-25T17:09:16Z</time>
      </trkpt>
      <trkpt lat="45.20079" lon="5.71769">
        <ele>153.48</ele>
        <time>2017-02-25T17:09:17Z</time>
      </trkpt>
      <trkpt lat="45.20089" lon="5.71762">
        <ele>153.77</ele>
        <time>2017-02-25T17:09:18Z</time>
      </trkpt>
      <trkpt lat="45.20098" lon="5.71756">
        <ele>154.15</ele>
        <time>2017-02-25T17:09:19Z</time>
      </trkpt>
      <trkpt lat="45.20105" lon="5.7175">
        <ele>154.47</ele>
        <time>2017-02-25T17:09:20Z</time>
      </trkpt>
      <trkpt lat="45.20111" lon="5.71745">
        <ele>154.69</ele>
        <time>2017-02-25T17:09:21Z</time>
      </trkpt>
      <trkpt lat="45.20115" lon="5.71741">
        <ele>154.82</ele>
        <time>2017-02-25T17:09:22Z</time>
      </trkpt>
      <trkpt lat="45.20117" lon="5.7174">
        <ele>155</ele>
        <time>2017-02-25T17:09:23Z</time>
      </trkpt>
      <trkpt lat="45.20118" lon="5.71739">
        <ele>155.2</ele>
        <time>2017-02-25T17:09:24Z</time>
      </trkpt>
      <trkpt lat="45.20117" lon="5.71741">
        <ele>155.24</ele>
        <time>2017-02-25T17:09:25Z</time>
      </trkpt>
      <trkpt lat="45.20116" lon="5.71744">
        <ele>155.33</ele>
        <time>2017-02-25T17:09:26Z</time>
      </trkpt>
      <trkpt lat="45.20114" lon="5.71748">
        <ele>155.34</ele>
        <time>2017-02-25T17:09:27Z</time>
      </trkpt>
      <trkpt lat="45.20112" lon="5.71754">
        <ele>155.43</ele>
        <time>2017-02-25T17:09:28Z</time>
      </trkpt>
      <trkpt lat="45.20107" lon="5.71759">
        <ele>155.44</ele>
        <time>2017-02-25T17:09:29Z</time>
      </trkpt>
      <trkpt lat="45.20102" lon="5.71765">
        <ele>155.45</ele>
        <time>2017-02-25T17:09:30Z</time>
      </trkpt>
      <trkpt lat="45.20097" lon="5.7177">
        <ele>155.45</ele>
        <time>2017-02-25T17:09:31Z</time>
      </trkpt>
      <trkpt lat="45.20093" lon="5.71776">
        <ele>155.53</ele>
        <time>2017-02-25T17:09:32Z</time>
      </trkpt>
      <trkpt lat="45.20088" lon="5.71781">
        <ele>155.54</ele>
        <time>2017-02-25T17:09:33Z</time>
      </trkpt>
      <trkpt lat="45.20084" lon="5.71788">
        <ele>155.63</ele>
        <time>2017-02-25T17:09:34Z</time>
      </trkpt>
      <trkpt lat="45.20081" lon="5.71793">
        <ele>155.88</ele>
        <time>2017-02-25T17:09:35Z</time>
      </trkpt>
      <trkpt lat="45.20079" lon="5.71798">
        <ele>156.02</ele>
        <time>2017-02-25T17:09:36Z</time>
      </trkpt>
      <trkpt lat="45.20079" lon="5.71802">
        <ele>156.2</ele>
        <time>2017-02-25T17:09:37Z</time>
      </trkpt>
      <trkpt lat="45.20081" lon="5.71807">
        <ele>156.4</ele>
        <time>2017-02-25T17:09:38Z</time>
      </trkpt>
      <trkpt lat="45.20081" lon="5.71811">
        <ele>156.6</ele>
        <time>2017-02-25T17:09:39Z</time>
      </trkpt>
      <trkpt lat="45.20084" lon="5.71812">
        <ele>156.8</ele>
        <time>2017-02-25T17:09:40Z</time>
      </trkpt>
      <trkpt lat="45.20089" lon="5.71812">
        <ele>157.08</ele>
        <time>2017-02-25T17:09:41Z</time>
      </trkpt>
      <trkpt lat="45.20094" lon="5.71809">
        <ele>157.38</ele>
        <time>2017-02-25T17:09:42Z</time>
      </trkpt>
      <trkpt lat="45.201" lon="5.71805">
        <ele>157.67</ele>
        <time>2017-02-25T17:09:43Z</time>
      </trkpt>
      <trkpt lat="45.20105" lon="5.71803">
        <ele>157.97</ele>
        <time>2017-02-25T17:09:44Z</time>
      </trkpt>
      <trkpt lat="45.2011" lon="5.71801">
        <ele>158.19</ele>
        <time>2017-02-25T17:09:45Z</time>
      </trkpt>
      <trkpt lat="45.20114" lon="5.71799">
        <ele>158.56</ele>
        <time>2017-02-25T17:09:46Z</time>
      </trkpt>
      <trkpt lat="45.20116" lon="5.71799">
        <ele>158.95</ele>
        <time>2017-02-25T17:09:47Z</time>
      </trkpt>
      <trkpt lat="45.20117" lon="5.71798">
        <ele>159.19</ele>
        <time>2017-02-25T17:09:48Z</time>
      </trkpt>
      <trkpt lat="45.20118" lon="5.71797">
        <ele>159.72</ele>
        <time>2017-02-25T17:09:49Z</time>
      </trkpt>
      <trkpt lat="45.20118" lon="5.71797">
        <ele>160.22</ele>
        <time>2017-02-25T17:09:50Z</time>
      </trkpt>
      <trkpt lat="45.20118" lon="5.71796">
        <ele>160.56</ele>
        <time>2017-02-25T17:09:51Z</time>
      </trkpt>
      <trkpt lat="45.20118" lon="5.71796">
        <ele>160.63</ele>
        <time>2017-02-25T17:09:52Z</time>
      </trkpt>
      <trkpt lat="45.20118" lon="5.71796">
        <ele>160.65</ele>
        <time>2017-02-25T17:09:53Z</time>
      </trkpt>
      <trkpt lat="45.20118" lon="5.71796">
        <ele>160.65</ele>
        <time>2017-02-25T17:09:54Z</time>
      </trkpt>
      <trkpt lat="45.20118" lon="5.71796">
        <ele>160.65</ele>
        <time>2017-02-25T17:09:55Z</time>
      </trkpt>
      <trkpt lat="45.20118" lon="5.71796">
        <ele>160.65</ele>
        <time>2017-02-25T17:09:56Z</time>
      </trkpt>
      <trkpt lat="45.20118" lon="5.71796">
        <ele>160.65</ele>
        <time>2017-02-25T17:09:57Z</time>
      </trkpt>
      <trkpt lat="45.20118" lon="5.71796">
        <ele>160.65</ele>
        <time>2017-02-25T17:09:58Z</time>
      </trkpt>
      <trkpt lat="45.20118" lon="5.71796">
        <ele>160.65</ele>
        <time>2017-02-25T17:09:59Z</time>
      </trkpt>
      <trkpt lat="45.20118" lon="5.71796">
        <ele>160.65</ele>
        <time>2017-02-25T17:10:00Z</time>
      </trkpt>
      <trkpt lat="45.20118" lon="5.71796">
        <ele>160.65</ele>
        <time>2017-02-25T17:10:01Z</time>
      </trkpt>
      <trkpt lat="45.20118" lon="5.71796">
        <ele>160.65</ele>
        <time>2017-02-25T17:10:02Z</time>
      </trkpt>
      <trkpt lat="45.20118" lon="5.71796">
        <ele>160.65</ele>
        <time>2017-02-25T17:10:03Z</time>
      </trkpt>
      <trkpt lat="45.20118" lon="5.71796">
        <ele>160.65</ele>
        <time>2017-02-25T17:10:04Z</time>
      </trkpt>
      <trkpt lat="45.20118" lon="5.71796">
        <ele>160.65</ele>
        <time>2017-02-25T17:10:05Z</time>
      </trkpt>
      <trkpt lat="45.20118" lon="5.71796">
        <ele>160.65</ele>
        <time>2017-02-25T17:10:06Z</time>
      </trkpt>
      <trkpt lat="45.20118" lon="5.71796">
        <ele>160.65</ele>
        <time>2017-02-25T17:10:07Z</time>
      </trkpt>
      <trkpt lat="45.20118" lon="5.71796">
        <ele>160.65</ele>
        <time>2017-02-25T17:10:08Z</time>
      </trkpt>
    </trkseg>
  </trk>
</gpx>